<?xml version='1.0' encoding='UTF-8'?><gpx version="1.1" creator="JPX - https://github.com/jenetics/jpx" xmlns="http://www.topografix.com/GPX/1/1"><trk><trkseg><trkpt lat="43.4674119" lon="11.4342049"><ele>354.0</ele><time>2026-04-04T08:47:22.211Z</time></trkpt><trkpt lat="43.4674729" lon="11.4342351"><ele>354.0</ele><time>2026-04-04T08:47:26.209Z</time></trkpt><trkpt lat="43.4674117" lon="11.434149"><ele>354.0</ele><time>2026-04-04T08:47:56.21Z</time></trkpt><trkpt lat="43.4672956" lon="11.4341828"><ele>354.0</ele><time>2026-04-04T08:47:58.209Z</time></trkpt><trkpt lat="43.4672068" lon="11.4342081"><ele>354.0</ele><time>2026-04-04T08:47:59.211Z</time></trkpt><trkpt lat="43.4671218" lon="11.4342374"><ele>354.0</ele><time>2026-04-04T08:48:00.209Z</time></trkpt><trkpt lat="43.4670287" lon="11.4342616"><ele>353.4</ele><time>2026-04-04T08:48:01.209Z</time></trkpt><trkpt lat="43.4669346" lon="11.434284"><ele>352.79999999999995</ele><time>2026-04-04T08:48:02.21Z</time></trkpt><trkpt lat="43.4668408" lon="11.4343071"><ele>352.20000000000005</ele><time>2026-04-04T08:48:03.209Z</time></trkpt><trkpt lat="43.4667515" lon="11.4343199"><ele>351.6</ele><time>2026-04-04T08:48:04.209Z</time></trkpt><trkpt lat="43.4666619" lon="11.4343427"><ele>351.0</ele><time>2026-04-04T08:48:05.207Z</time></trkpt><trkpt lat="43.4665723" lon="11.4343483"><ele>351.0</ele><time>2026-04-04T08:48:06.208Z</time></trkpt><trkpt lat="43.4664782" lon="11.4343535"><ele>351.0</ele><time>2026-04-04T08:48:07.208Z</time></trkpt><trkpt lat="43.466378" lon="11.434357"><ele>351.0</ele><time>2026-04-04T08:48:08.21Z</time></trkpt><trkpt lat="43.4662796" lon="11.4343258"><ele>351.0</ele><time>2026-04-04T08:48:09.208Z</time></trkpt><trkpt lat="43.4661705" lon="11.434299"><ele>351.0</ele><time>2026-04-04T08:48:10.21Z</time></trkpt><trkpt lat="43.4660609" lon="11.4342749"><ele>350.4</ele><time>2026-04-04T08:48:11.209Z</time></trkpt><trkpt lat="43.4659539" lon="11.4342453"><ele>349.8</ele><time>2026-04-04T08:48:12.21Z</time></trkpt><trkpt lat="43.4658474" lon="11.4341994"><ele>349.2</ele><time>2026-04-04T08:48:13.209Z</time></trkpt><trkpt lat="43.4657408" lon="11.4341542"><ele>348.59999999999997</ele><time>2026-04-04T08:48:14.208Z</time></trkpt><trkpt lat="43.4656377" lon="11.4340822"><ele>348.0</ele><time>2026-04-04T08:48:15.208Z</time></trkpt><trkpt lat="43.4655372" lon="11.4339864"><ele>348.0</ele><time>2026-04-04T08:48:16.209Z</time></trkpt><trkpt lat="43.4654336" lon="11.4338703"><ele>348.0</ele><time>2026-04-04T08:48:17.21Z</time></trkpt><trkpt lat="43.4653417" lon="11.4337497"><ele>348.0</ele><time>2026-04-04T08:48:18.207Z</time></trkpt><trkpt lat="43.4652567" lon="11.4336097"><ele>348.0</ele><time>2026-04-04T08:48:19.21Z</time></trkpt><trkpt lat="43.4651646" lon="11.433468"><ele>348.0</ele><time>2026-04-04T08:48:20.21Z</time></trkpt><trkpt lat="43.4650648" lon="11.4333511"><ele>348.0</ele><time>2026-04-04T08:48:21.21Z</time></trkpt><trkpt lat="43.4649622" lon="11.4332464"><ele>348.0</ele><time>2026-04-04T08:48:22.21Z</time></trkpt><trkpt lat="43.4648495" lon="11.4331453"><ele>348.0</ele><time>2026-04-04T08:48:23.208Z</time></trkpt><trkpt lat="43.4647339" lon="11.4330548"><ele>348.25</ele><time>2026-04-04T08:48:24.209Z</time></trkpt><trkpt lat="43.4646154" lon="11.4329619"><ele>348.5</ele><time>2026-04-04T08:48:25.209Z</time></trkpt><trkpt lat="43.4645064" lon="11.4328648"><ele>348.75</ele><time>2026-04-04T08:48:26.21Z</time></trkpt><trkpt lat="43.4644019" lon="11.4327526"><ele>349.0</ele><time>2026-04-04T08:48:27.209Z</time></trkpt><trkpt lat="43.4643079" lon="11.4326367"><ele>349.0</ele><time>2026-04-04T08:48:28.208Z</time></trkpt><trkpt lat="43.4642305" lon="11.4325061"><ele>349.0</ele><time>2026-04-04T08:48:29.208Z</time></trkpt><trkpt lat="43.4641566" lon="11.4323637"><ele>349.0</ele><time>2026-04-04T08:48:30.209Z</time></trkpt><trkpt lat="43.4640831" lon="11.4322049"><ele>349.0</ele><time>2026-04-04T08:48:31.209Z</time></trkpt><trkpt lat="43.464014" lon="11.4320414"><ele>348.0</ele><time>2026-04-04T08:48:32.208Z</time></trkpt><trkpt lat="43.4639477" lon="11.4318631"><ele>347.0</ele><time>2026-04-04T08:48:33.209Z</time></trkpt><trkpt lat="43.46388" lon="11.4316805"><ele>346.0</ele><time>2026-04-04T08:48:34.208Z</time></trkpt><trkpt lat="43.463812" lon="11.4314956"><ele>345.0</ele><time>2026-04-04T08:48:35.208Z</time></trkpt><trkpt lat="43.4637371" lon="11.4313097"><ele>345.6666666666667</ele><time>2026-04-04T08:48:36.21Z</time></trkpt><trkpt lat="43.4636606" lon="11.431126"><ele>346.33333333333337</ele><time>2026-04-04T08:48:37.209Z</time></trkpt><trkpt lat="43.463572" lon="11.4309514"><ele>347.0</ele><time>2026-04-04T08:48:38.21Z</time></trkpt><trkpt lat="43.4634758" lon="11.4307778"><ele>347.0</ele><time>2026-04-04T08:48:39.208Z</time></trkpt><trkpt lat="43.4633636" lon="11.4306049"><ele>347.0</ele><time>2026-04-04T08:48:40.209Z</time></trkpt><trkpt lat="43.4632702" lon="11.4304408"><ele>347.0</ele><time>2026-04-04T08:48:41.208Z</time></trkpt><trkpt lat="43.4631583" lon="11.4302696"><ele>346.6666666666667</ele><time>2026-04-04T08:48:42.208Z</time></trkpt><trkpt lat="43.4630644" lon="11.4300901"><ele>346.3333333333333</ele><time>2026-04-04T08:48:43.209Z</time></trkpt><trkpt lat="43.4629643" lon="11.4299103"><ele>346.0</ele><time>2026-04-04T08:48:44.209Z</time></trkpt><trkpt lat="43.4628497" lon="11.4297453"><ele>346.0</ele><time>2026-04-04T08:48:45.208Z</time></trkpt><trkpt lat="43.4627295" lon="11.4295861"><ele>346.0</ele><time>2026-04-04T08:48:46.207Z</time></trkpt><trkpt lat="43.4626018" lon="11.4294276"><ele>346.0</ele><time>2026-04-04T08:48:47.208Z</time></trkpt><trkpt lat="43.4624813" lon="11.4292715"><ele>346.0</ele><time>2026-04-04T08:48:48.207Z</time></trkpt><trkpt lat="43.462363" lon="11.4291116"><ele>346.0</ele><time>2026-04-04T08:48:49.21Z</time></trkpt><trkpt lat="43.4622439" lon="11.4289549"><ele>346.0</ele><time>2026-04-04T08:48:50.21Z</time></trkpt><trkpt lat="43.4621202" lon="11.4288009"><ele>344.66666666666663</ele><time>2026-04-04T08:48:51.208Z</time></trkpt><trkpt lat="43.4619887" lon="11.428643"><ele>343.3333333333333</ele><time>2026-04-04T08:48:52.209Z</time></trkpt><trkpt lat="43.4618631" lon="11.428491"><ele>342.0</ele><time>2026-04-04T08:48:53.208Z</time></trkpt><trkpt lat="43.4617249" lon="11.4283471"><ele>342.0</ele><time>2026-04-04T08:48:54.21Z</time></trkpt><trkpt lat="43.4615968" lon="11.4282011"><ele>342.0</ele><time>2026-04-04T08:48:55.209Z</time></trkpt><trkpt lat="43.4614622" lon="11.4280595"><ele>342.0</ele><time>2026-04-04T08:48:56.207Z</time></trkpt><trkpt lat="43.4613271" lon="11.4279247"><ele>341.3333333333333</ele><time>2026-04-04T08:48:57.208Z</time></trkpt><trkpt lat="43.4611887" lon="11.4277872"><ele>340.66666666666663</ele><time>2026-04-04T08:48:58.208Z</time></trkpt><trkpt lat="43.4610628" lon="11.4276507"><ele>340.0</ele><time>2026-04-04T08:48:59.21Z</time></trkpt><trkpt lat="43.4609491" lon="11.427519"><ele>340.0</ele><time>2026-04-04T08:49:00.208Z</time></trkpt><trkpt lat="43.4608367" lon="11.4274003"><ele>340.0</ele><time>2026-04-04T08:49:01.209Z</time></trkpt><trkpt lat="43.4607217" lon="11.4272936"><ele>340.0</ele><time>2026-04-04T08:49:02.209Z</time></trkpt><trkpt lat="43.4605965" lon="11.4272"><ele>340.0</ele><time>2026-04-04T08:49:03.209Z</time></trkpt><trkpt lat="43.4604605" lon="11.4271195"><ele>341.0</ele><time>2026-04-04T08:49:04.207Z</time></trkpt><trkpt lat="43.4603194" lon="11.4270472"><ele>342.0</ele><time>2026-04-04T08:49:05.209Z</time></trkpt><trkpt lat="43.4601762" lon="11.4269686"><ele>343.0</ele><time>2026-04-04T08:49:06.208Z</time></trkpt><trkpt lat="43.4600234" lon="11.4269018"><ele>343.0</ele><time>2026-04-04T08:49:07.21Z</time></trkpt><trkpt lat="43.4598679" lon="11.4268352"><ele>343.0</ele><time>2026-04-04T08:49:08.208Z</time></trkpt><trkpt lat="43.459714" lon="11.4267689"><ele>343.0</ele><time>2026-04-04T08:49:09.207Z</time></trkpt><trkpt lat="43.459545" lon="11.4266949"><ele>341.66666666666663</ele><time>2026-04-04T08:49:10.21Z</time></trkpt><trkpt lat="43.4593815" lon="11.4266255"><ele>340.3333333333333</ele><time>2026-04-04T08:49:11.209Z</time></trkpt><trkpt lat="43.4592208" lon="11.4265437"><ele>339.0</ele><time>2026-04-04T08:49:12.209Z</time></trkpt><trkpt lat="43.4590528" lon="11.4264707"><ele>339.0</ele><time>2026-04-04T08:49:13.208Z</time></trkpt><trkpt lat="43.4588768" lon="11.4264033"><ele>339.0</ele><time>2026-04-04T08:49:14.208Z</time></trkpt><trkpt lat="43.4586794" lon="11.4263219"><ele>339.0</ele><time>2026-04-04T08:49:15.209Z</time></trkpt><trkpt lat="43.4584753" lon="11.4262405"><ele>338.0</ele><time>2026-04-04T08:49:16.21Z</time></trkpt><trkpt lat="43.4582648" lon="11.4261564"><ele>337.0</ele><time>2026-04-04T08:49:17.208Z</time></trkpt><trkpt lat="43.4580615" lon="11.4260561"><ele>336.0</ele><time>2026-04-04T08:49:18.207Z</time></trkpt><trkpt lat="43.4578549" lon="11.4259577"><ele>336.0</ele><time>2026-04-04T08:49:19.209Z</time></trkpt><trkpt lat="43.4576526" lon="11.4258535"><ele>336.0</ele><time>2026-04-04T08:49:20.208Z</time></trkpt><trkpt lat="43.4574471" lon="11.4257676"><ele>336.0</ele><time>2026-04-04T08:49:21.209Z</time></trkpt><trkpt lat="43.4572527" lon="11.4256857"><ele>338.0</ele><time>2026-04-04T08:49:22.207Z</time></trkpt><trkpt lat="43.4570641" lon="11.4256149"><ele>340.0</ele><time>2026-04-04T08:49:23.208Z</time></trkpt><trkpt lat="43.4568874" lon="11.4255721"><ele>342.0</ele><time>2026-04-04T08:49:24.209Z</time></trkpt><trkpt lat="43.4567326" lon="11.4255561"><ele>342.0</ele><time>2026-04-04T08:49:25.208Z</time></trkpt><trkpt lat="43.4565948" lon="11.4255383"><ele>342.0</ele><time>2026-04-04T08:49:26.208Z</time></trkpt><trkpt lat="43.4564643" lon="11.4255298"><ele>342.0</ele><time>2026-04-04T08:49:27.208Z</time></trkpt><trkpt lat="43.4563331" lon="11.425497"><ele>342.0</ele><time>2026-04-04T08:49:28.21Z</time></trkpt><trkpt lat="43.4562189" lon="11.4254462"><ele>340.75</ele><time>2026-04-04T08:49:29.207Z</time></trkpt><trkpt lat="43.4560945" lon="11.4253522"><ele>339.5</ele><time>2026-04-04T08:49:30.21Z</time></trkpt><trkpt lat="43.4559743" lon="11.4252363"><ele>338.25</ele><time>2026-04-04T08:49:31.209Z</time></trkpt><trkpt lat="43.4558502" lon="11.4251029"><ele>337.0</ele><time>2026-04-04T08:49:32.21Z</time></trkpt><trkpt lat="43.455725" lon="11.4249644"><ele>337.0</ele><time>2026-04-04T08:49:33.208Z</time></trkpt><trkpt lat="43.4555989" lon="11.4248414"><ele>337.0</ele><time>2026-04-04T08:49:34.208Z</time></trkpt><trkpt lat="43.4554691" lon="11.4247087"><ele>337.0</ele><time>2026-04-04T08:49:35.208Z</time></trkpt><trkpt lat="43.4553492" lon="11.4245872"><ele>335.66666666666663</ele><time>2026-04-04T08:49:36.21Z</time></trkpt><trkpt lat="43.455223" lon="11.4244561"><ele>334.3333333333333</ele><time>2026-04-04T08:49:37.209Z</time></trkpt><trkpt lat="43.4550944" lon="11.424325"><ele>333.0</ele><time>2026-04-04T08:49:38.208Z</time></trkpt><trkpt lat="43.4549742" lon="11.4241964"><ele>333.0</ele><time>2026-04-04T08:49:39.209Z</time></trkpt><trkpt lat="43.4548493" lon="11.4240659"><ele>333.0</ele><time>2026-04-04T08:49:40.209Z</time></trkpt><trkpt lat="43.4547223" lon="11.4239396"><ele>333.0</ele><time>2026-04-04T08:49:41.208Z</time></trkpt><trkpt lat="43.4546016" lon="11.4238081"><ele>332.3333333333333</ele><time>2026-04-04T08:49:42.208Z</time></trkpt><trkpt lat="43.4544736" lon="11.4236835"><ele>331.66666666666663</ele><time>2026-04-04T08:49:43.208Z</time></trkpt><trkpt lat="43.4543494" lon="11.4235384"><ele>331.0</ele><time>2026-04-04T08:49:44.207Z</time></trkpt><trkpt lat="43.4542352" lon="11.4233731"><ele>331.0</ele><time>2026-04-04T08:49:45.209Z</time></trkpt><trkpt lat="43.4541232" lon="11.4231985"><ele>331.0</ele><time>2026-04-04T08:49:46.21Z</time></trkpt><trkpt lat="43.4540105" lon="11.4230235"><ele>331.0</ele><time>2026-04-04T08:49:47.209Z</time></trkpt><trkpt lat="43.4538918" lon="11.4228404"><ele>329.0</ele><time>2026-04-04T08:49:48.209Z</time></trkpt><trkpt lat="43.453776" lon="11.4226586"><ele>327.0</ele><time>2026-04-04T08:49:49.209Z</time></trkpt><trkpt lat="43.4536571" lon="11.4224743"><ele>325.0</ele><time>2026-04-04T08:49:50.208Z</time></trkpt><trkpt lat="43.4535383" lon="11.4222955"><ele>327.3333333333333</ele><time>2026-04-04T08:49:51.209Z</time></trkpt><trkpt lat="43.4534269" lon="11.4221153"><ele>329.6666666666667</ele><time>2026-04-04T08:49:52.208Z</time></trkpt><trkpt lat="43.4533099" lon="11.4219424"><ele>332.0</ele><time>2026-04-04T08:49:53.209Z</time></trkpt><trkpt lat="43.4532002" lon="11.4217777"><ele>332.0</ele><time>2026-04-04T08:49:54.21Z</time></trkpt><trkpt lat="43.4530876" lon="11.4216187"><ele>332.0</ele><time>2026-04-04T08:49:55.208Z</time></trkpt><trkpt lat="43.4529701" lon="11.4214827"><ele>332.0</ele><time>2026-04-04T08:49:56.207Z</time></trkpt><trkpt lat="43.4528357" lon="11.4213872"><ele>333.0</ele><time>2026-04-04T08:49:57.209Z</time></trkpt><trkpt lat="43.4526871" lon="11.4212767"><ele>334.0</ele><time>2026-04-04T08:49:58.209Z</time></trkpt><trkpt lat="43.4525605" lon="11.4211539"><ele>335.0</ele><time>2026-04-04T08:49:59.209Z</time></trkpt><trkpt lat="43.4524388" lon="11.4210196"><ele>335.0</ele><time>2026-04-04T08:50:00.207Z</time></trkpt><trkpt lat="43.4523243" lon="11.4208484"><ele>335.0</ele><time>2026-04-04T08:50:01.207Z</time></trkpt><trkpt lat="43.4522117" lon="11.4206793"><ele>335.0</ele><time>2026-04-04T08:50:02.209Z</time></trkpt><trkpt lat="43.4521002" lon="11.4205166"><ele>333.6666666666667</ele><time>2026-04-04T08:50:03.209Z</time></trkpt><trkpt lat="43.4519944" lon="11.4203399"><ele>332.3333333333333</ele><time>2026-04-04T08:50:04.208Z</time></trkpt><trkpt lat="43.4518848" lon="11.4201682"><ele>331.0</ele><time>2026-04-04T08:50:05.208Z</time></trkpt><trkpt lat="43.4517865" lon="11.4200074"><ele>331.0</ele><time>2026-04-04T08:50:06.208Z</time></trkpt><trkpt lat="43.4516986" lon="11.4198581"><ele>331.0</ele><time>2026-04-04T08:50:07.208Z</time></trkpt><trkpt lat="43.4516004" lon="11.4197121"><ele>331.0</ele><time>2026-04-04T08:50:08.207Z</time></trkpt><trkpt lat="43.4514939" lon="11.4195827"><ele>331.0</ele><time>2026-04-04T08:50:09.209Z</time></trkpt><trkpt lat="43.4513822" lon="11.4194695"><ele>330.0</ele><time>2026-04-04T08:50:10.208Z</time></trkpt><trkpt lat="43.4512844" lon="11.4193742"><ele>329.0</ele><time>2026-04-04T08:50:11.209Z</time></trkpt><trkpt lat="43.4511935" lon="11.4192929"><ele>328.0</ele><time>2026-04-04T08:50:12.209Z</time></trkpt><trkpt lat="43.4511029" lon="11.4192259"><ele>327.0</ele><time>2026-04-04T08:50:13.207Z</time></trkpt><trkpt lat="43.4510097" lon="11.4191599"><ele>326.0</ele><time>2026-04-04T08:50:14.209Z</time></trkpt><trkpt lat="43.4509136" lon="11.4191156"><ele>326.0</ele><time>2026-04-04T08:50:15.207Z</time></trkpt><trkpt lat="43.4508218" lon="11.4190832"><ele>326.0</ele><time>2026-04-04T08:50:16.208Z</time></trkpt><trkpt lat="43.4507331" lon="11.4190538"><ele>326.0</ele><time>2026-04-04T08:50:17.208Z</time></trkpt><trkpt lat="43.4506457" lon="11.4190319"><ele>326.0</ele><time>2026-04-04T08:50:18.209Z</time></trkpt><trkpt lat="43.450552" lon="11.4190063"><ele>326.0</ele><time>2026-04-04T08:50:19.209Z</time></trkpt><trkpt lat="43.4504519" lon="11.4189843"><ele>325.5</ele><time>2026-04-04T08:50:20.207Z</time></trkpt><trkpt lat="43.4503374" lon="11.418972"><ele>325.0</ele><time>2026-04-04T08:50:21.208Z</time></trkpt><trkpt lat="43.450214" lon="11.4189472"><ele>324.5</ele><time>2026-04-04T08:50:22.208Z</time></trkpt><trkpt lat="43.4500757" lon="11.4189121"><ele>324.0</ele><time>2026-04-04T08:50:23.207Z</time></trkpt><trkpt lat="43.4499402" lon="11.418866"><ele>325.0</ele><time>2026-04-04T08:50:24.208Z</time></trkpt><trkpt lat="43.4498035" lon="11.4188047"><ele>326.0</ele><time>2026-04-04T08:50:25.208Z</time></trkpt><trkpt lat="43.4496703" lon="11.4187498"><ele>327.0</ele><time>2026-04-04T08:50:26.209Z</time></trkpt><trkpt lat="43.4495333" lon="11.4186884"><ele>328.0</ele><time>2026-04-04T08:50:27.208Z</time></trkpt><trkpt lat="43.4493891" lon="11.4186291"><ele>329.0</ele><time>2026-04-04T08:50:28.207Z</time></trkpt><trkpt lat="43.449237" lon="11.4185908"><ele>330.0</ele><time>2026-04-04T08:50:29.207Z</time></trkpt><trkpt lat="43.4490851" lon="11.4185616"><ele>331.0</ele><time>2026-04-04T08:50:30.208Z</time></trkpt><trkpt lat="43.4489346" lon="11.4185446"><ele>331.0</ele><time>2026-04-04T08:50:31.207Z</time></trkpt><trkpt lat="43.4487789" lon="11.4185159"><ele>331.0</ele><time>2026-04-04T08:50:32.208Z</time></trkpt><trkpt lat="43.4486261" lon="11.4184954"><ele>331.0</ele><time>2026-04-04T08:50:33.208Z</time></trkpt><trkpt lat="43.4484859" lon="11.4184667"><ele>331.0</ele><time>2026-04-04T08:50:34.209Z</time></trkpt><trkpt lat="43.4483417" lon="11.4184044"><ele>331.0</ele><time>2026-04-04T08:50:35.207Z</time></trkpt><trkpt lat="43.4482095" lon="11.4183134"><ele>331.0</ele><time>2026-04-04T08:50:36.209Z</time></trkpt><trkpt lat="43.4480788" lon="11.4182026"><ele>329.5</ele><time>2026-04-04T08:50:37.209Z</time></trkpt><trkpt lat="43.4479595" lon="11.4180888"><ele>328.0</ele><time>2026-04-04T08:50:38.209Z</time></trkpt><trkpt lat="43.4478336" lon="11.4179746"><ele>326.5</ele><time>2026-04-04T08:50:39.207Z</time></trkpt><trkpt lat="43.4477056" lon="11.4178638"><ele>325.0</ele><time>2026-04-04T08:50:40.207Z</time></trkpt><trkpt lat="43.4475745" lon="11.4177806"><ele>329.3333333333333</ele><time>2026-04-04T08:50:41.209Z</time></trkpt><trkpt lat="43.4474335" lon="11.4177239"><ele>333.6666666666667</ele><time>2026-04-04T08:50:42.207Z</time></trkpt><trkpt lat="43.4472824" lon="11.4176829"><ele>338.0</ele><time>2026-04-04T08:50:43.208Z</time></trkpt><trkpt lat="43.4471319" lon="11.4176534"><ele>338.6666666666667</ele><time>2026-04-04T08:50:44.209Z</time></trkpt><trkpt lat="43.4469807" lon="11.4176186"><ele>339.3333333333333</ele><time>2026-04-04T08:50:45.207Z</time></trkpt><trkpt lat="43.446837" lon="11.4175867"><ele>340.0</ele><time>2026-04-04T08:50:46.208Z</time></trkpt><trkpt lat="43.4466877" lon="11.4175384"><ele>340.0</ele><time>2026-04-04T08:50:47.209Z</time></trkpt><trkpt lat="43.4465485" lon="11.4175029"><ele>340.0</ele><time>2026-04-04T08:50:48.209Z</time></trkpt><trkpt lat="43.4464155" lon="11.4174676"><ele>340.0</ele><time>2026-04-04T08:50:49.209Z</time></trkpt><trkpt lat="43.4462977" lon="11.4174574"><ele>340.0</ele><time>2026-04-04T08:50:50.207Z</time></trkpt><trkpt lat="43.4461869" lon="11.4174675"><ele>343.0</ele><time>2026-04-04T08:50:51.208Z</time></trkpt><trkpt lat="43.4460788" lon="11.4175222"><ele>346.0</ele><time>2026-04-04T08:50:52.208Z</time></trkpt><trkpt lat="43.4459851" lon="11.4176119"><ele>349.0</ele><time>2026-04-04T08:50:53.208Z</time></trkpt><trkpt lat="43.4459079" lon="11.4177479"><ele>352.0</ele><time>2026-04-04T08:50:54.209Z</time></trkpt><trkpt lat="43.4458335" lon="11.4178997"><ele>349.5</ele><time>2026-04-04T08:50:55.207Z</time></trkpt><trkpt lat="43.4457689" lon="11.4180582"><ele>347.0</ele><time>2026-04-04T08:50:56.208Z</time></trkpt><trkpt lat="43.445716" lon="11.4182572"><ele>344.5</ele><time>2026-04-04T08:50:57.208Z</time></trkpt><trkpt lat="43.445672" lon="11.4184526"><ele>342.0</ele><time>2026-04-04T08:50:58.208Z</time></trkpt><trkpt lat="43.4456436" lon="11.4186724"><ele>340.0</ele><time>2026-04-04T08:50:59.209Z</time></trkpt><trkpt lat="43.4456425" lon="11.4188912"><ele>338.0</ele><time>2026-04-04T08:51:00.208Z</time></trkpt><trkpt lat="43.4456454" lon="11.4191055"><ele>336.0</ele><time>2026-04-04T08:51:01.208Z</time></trkpt><trkpt lat="43.4456412" lon="11.419269"><ele>334.0</ele><time>2026-04-04T08:51:02.209Z</time></trkpt><trkpt lat="43.4456283" lon="11.4194155"><ele>334.0</ele><time>2026-04-04T08:51:03.208Z</time></trkpt><trkpt lat="43.4455985" lon="11.4195443"><ele>334.0</ele><time>2026-04-04T08:51:04.208Z</time></trkpt><trkpt lat="43.4455436" lon="11.4196502"><ele>334.0</ele><time>2026-04-04T08:51:05.208Z</time></trkpt><trkpt lat="43.4454495" lon="11.4197266"><ele>334.0</ele><time>2026-04-04T08:51:06.208Z</time></trkpt><trkpt lat="43.4453419" lon="11.4197969"><ele>334.0</ele><time>2026-04-04T08:51:07.208Z</time></trkpt><trkpt lat="43.4452082" lon="11.4198685"><ele>335.66666666666663</ele><time>2026-04-04T08:51:08.209Z</time></trkpt><trkpt lat="43.4450729" lon="11.4199525"><ele>337.3333333333333</ele><time>2026-04-04T08:51:09.207Z</time></trkpt><trkpt lat="43.4449249" lon="11.4200362"><ele>339.0</ele><time>2026-04-04T08:51:10.207Z</time></trkpt><trkpt lat="43.4447802" lon="11.4201213"><ele>339.0</ele><time>2026-04-04T08:51:11.208Z</time></trkpt><trkpt lat="43.4446522" lon="11.4202339"><ele>339.0</ele><time>2026-04-04T08:51:12.209Z</time></trkpt><trkpt lat="43.4445395" lon="11.4203762"><ele>339.0</ele><time>2026-04-04T08:51:13.208Z</time></trkpt><trkpt lat="43.44444" lon="11.4205403"><ele>338.3333333333333</ele><time>2026-04-04T08:51:14.207Z</time></trkpt><trkpt lat="43.4443322" lon="11.4206927"><ele>337.66666666666663</ele><time>2026-04-04T08:51:15.207Z</time></trkpt><trkpt lat="43.444209" lon="11.4208362"><ele>337.0</ele><time>2026-04-04T08:51:16.207Z</time></trkpt><trkpt lat="43.4440683" lon="11.4209514"><ele>337.0</ele><time>2026-04-04T08:51:17.207Z</time></trkpt><trkpt lat="43.4439201" lon="11.4210728"><ele>337.0</ele><time>2026-04-04T08:51:18.208Z</time></trkpt><trkpt lat="43.4437614" lon="11.4211817"><ele>337.0</ele><time>2026-04-04T08:51:19.209Z</time></trkpt><trkpt lat="43.4436045" lon="11.4212955"><ele>334.0</ele><time>2026-04-04T08:51:20.207Z</time></trkpt><trkpt lat="43.4434543" lon="11.4214049"><ele>331.0</ele><time>2026-04-04T08:51:21.208Z</time></trkpt><trkpt lat="43.4432998" lon="11.4214879"><ele>328.0</ele><time>2026-04-04T08:51:22.208Z</time></trkpt><trkpt lat="43.4431339" lon="11.4215375"><ele>328.0</ele><time>2026-04-04T08:51:23.208Z</time></trkpt><trkpt lat="43.442961" lon="11.4215657"><ele>328.0</ele><time>2026-04-04T08:51:24.208Z</time></trkpt><trkpt lat="43.4427858" lon="11.4215644"><ele>328.0</ele><time>2026-04-04T08:51:25.206Z</time></trkpt><trkpt lat="43.4425922" lon="11.4215595"><ele>328.0</ele><time>2026-04-04T08:51:26.208Z</time></trkpt><trkpt lat="43.4424079" lon="11.4215553"><ele>328.0</ele><time>2026-04-04T08:51:27.208Z</time></trkpt><trkpt lat="43.4422073" lon="11.4215324"><ele>328.0</ele><time>2026-04-04T08:51:28.208Z</time></trkpt><trkpt lat="43.4420098" lon="11.4215064"><ele>326.3333333333333</ele><time>2026-04-04T08:51:29.208Z</time></trkpt><trkpt lat="43.4418116" lon="11.4214734"><ele>324.6666666666667</ele><time>2026-04-04T08:51:30.208Z</time></trkpt><trkpt lat="43.4416125" lon="11.4214454"><ele>323.0</ele><time>2026-04-04T08:51:31.208Z</time></trkpt><trkpt lat="43.4414266" lon="11.4214117"><ele>321.33333333333337</ele><time>2026-04-04T08:51:32.208Z</time></trkpt><trkpt lat="43.4412445" lon="11.4213665"><ele>319.6666666666667</ele><time>2026-04-04T08:51:33.208Z</time></trkpt><trkpt lat="43.4410805" lon="11.4212879"><ele>318.0</ele><time>2026-04-04T08:51:34.207Z</time></trkpt><trkpt lat="43.4409204" lon="11.4211724"><ele>317.6666666666667</ele><time>2026-04-04T08:51:35.209Z</time></trkpt><trkpt lat="43.4407649" lon="11.42104"><ele>317.33333333333337</ele><time>2026-04-04T08:51:36.208Z</time></trkpt><trkpt lat="43.4406002" lon="11.4209029"><ele>317.0</ele><time>2026-04-04T08:51:37.207Z</time></trkpt><trkpt lat="43.4404356" lon="11.4207625"><ele>317.0</ele><time>2026-04-04T08:51:38.208Z</time></trkpt><trkpt lat="43.4402633" lon="11.4206155"><ele>317.0</ele><time>2026-04-04T08:51:39.208Z</time></trkpt><trkpt lat="43.4400977" lon="11.4204656"><ele>317.0</ele><time>2026-04-04T08:51:40.208Z</time></trkpt><trkpt lat="43.4399407" lon="11.4203249"><ele>317.33333333333337</ele><time>2026-04-04T08:51:41.207Z</time></trkpt><trkpt lat="43.4397832" lon="11.4201854"><ele>317.6666666666667</ele><time>2026-04-04T08:51:42.209Z</time></trkpt><trkpt lat="43.439625" lon="11.4200584"><ele>318.0</ele><time>2026-04-04T08:51:43.207Z</time></trkpt><trkpt lat="43.4394719" lon="11.4199401"><ele>318.0</ele><time>2026-04-04T08:51:44.209Z</time></trkpt><trkpt lat="43.4393119" lon="11.4198269"><ele>318.0</ele><time>2026-04-04T08:51:45.209Z</time></trkpt><trkpt lat="43.4391458" lon="11.4197393"><ele>318.0</ele><time>2026-04-04T08:51:46.207Z</time></trkpt><trkpt lat="43.4389665" lon="11.4196693"><ele>321.3333333333333</ele><time>2026-04-04T08:51:47.209Z</time></trkpt><trkpt lat="43.438778" lon="11.4196143"><ele>324.66666666666663</ele><time>2026-04-04T08:51:48.207Z</time></trkpt><trkpt lat="43.4385807" lon="11.4195906"><ele>328.0</ele><time>2026-04-04T08:51:49.208Z</time></trkpt><trkpt lat="43.4383776" lon="11.4195638"><ele>328.0</ele><time>2026-04-04T08:51:50.207Z</time></trkpt><trkpt lat="43.4381715" lon="11.4195439"><ele>328.0</ele><time>2026-04-04T08:51:51.207Z</time></trkpt><trkpt lat="43.437967" lon="11.4195132"><ele>328.0</ele><time>2026-04-04T08:51:52.207Z</time></trkpt><trkpt lat="43.4377579" lon="11.4194815"><ele>326.3333333333333</ele><time>2026-04-04T08:51:53.208Z</time></trkpt><trkpt lat="43.4375422" lon="11.4194429"><ele>324.6666666666667</ele><time>2026-04-04T08:51:54.208Z</time></trkpt><trkpt lat="43.4373312" lon="11.4194087"><ele>323.0</ele><time>2026-04-04T08:51:55.208Z</time></trkpt><trkpt lat="43.4371127" lon="11.4193617"><ele>322.0</ele><time>2026-04-04T08:51:56.208Z</time></trkpt><trkpt lat="43.4368967" lon="11.4193228"><ele>321.0</ele><time>2026-04-04T08:51:57.208Z</time></trkpt><trkpt lat="43.4366765" lon="11.4192869"><ele>320.0</ele><time>2026-04-04T08:51:58.207Z</time></trkpt><trkpt lat="43.4364684" lon="11.4192523"><ele>318.6666666666667</ele><time>2026-04-04T08:51:59.207Z</time></trkpt><trkpt lat="43.4362669" lon="11.4192252"><ele>317.3333333333333</ele><time>2026-04-04T08:52:00.207Z</time></trkpt><trkpt lat="43.4360779" lon="11.4191961"><ele>316.0</ele><time>2026-04-04T08:52:01.207Z</time></trkpt><trkpt lat="43.4358998" lon="11.41917"><ele>316.0</ele><time>2026-04-04T08:52:02.209Z</time></trkpt><trkpt lat="43.4357384" lon="11.4191394"><ele>316.0</ele><time>2026-04-04T08:52:03.208Z</time></trkpt><trkpt lat="43.4355854" lon="11.4191065"><ele>316.0</ele><time>2026-04-04T08:52:04.206Z</time></trkpt><trkpt lat="43.4354536" lon="11.4190831"><ele>316.75</ele><time>2026-04-04T08:52:05.208Z</time></trkpt><trkpt lat="43.4353233" lon="11.4190974"><ele>317.5</ele><time>2026-04-04T08:52:06.207Z</time></trkpt><trkpt lat="43.4352008" lon="11.4191386"><ele>318.25</ele><time>2026-04-04T08:52:07.207Z</time></trkpt><trkpt lat="43.4350793" lon="11.4192052"><ele>319.0</ele><time>2026-04-04T08:52:08.207Z</time></trkpt><trkpt lat="43.4349272" lon="11.4192862"><ele>319.0</ele><time>2026-04-04T08:52:09.209Z</time></trkpt><trkpt lat="43.4347846" lon="11.4194264"><ele>319.0</ele><time>2026-04-04T08:52:10.207Z</time></trkpt><trkpt lat="43.4346347" lon="11.4195732"><ele>319.0</ele><time>2026-04-04T08:52:11.208Z</time></trkpt><trkpt lat="43.434498" lon="11.419729"><ele>318.0</ele><time>2026-04-04T08:52:12.207Z</time></trkpt><trkpt lat="43.4343698" lon="11.4198869"><ele>317.0</ele><time>2026-04-04T08:52:13.207Z</time></trkpt><trkpt lat="43.4342365" lon="11.4200498"><ele>316.0</ele><time>2026-04-04T08:52:14.208Z</time></trkpt><trkpt lat="43.4341039" lon="11.4202107"><ele>316.0</ele><time>2026-04-04T08:52:15.209Z</time></trkpt><trkpt lat="43.4339841" lon="11.420363"><ele>316.0</ele><time>2026-04-04T08:52:16.209Z</time></trkpt><trkpt lat="43.4338707" lon="11.4205087"><ele>316.0</ele><time>2026-04-04T08:52:17.209Z</time></trkpt><trkpt lat="43.4337664" lon="11.4206278"><ele>313.40000000000003</ele><time>2026-04-04T08:52:18.207Z</time></trkpt><trkpt lat="43.4336713" lon="11.4207304"><ele>310.8</ele><time>2026-04-04T08:52:19.207Z</time></trkpt><trkpt lat="43.4335764" lon="11.420814"><ele>308.20000000000005</ele><time>2026-04-04T08:52:20.207Z</time></trkpt><trkpt lat="43.4334754" lon="11.4208518"><ele>305.6</ele><time>2026-04-04T08:52:21.208Z</time></trkpt><trkpt lat="43.4333803" lon="11.4208529"><ele>303.0</ele><time>2026-04-04T08:52:22.207Z</time></trkpt><trkpt lat="43.4332915" lon="11.420804"><ele>303.0</ele><time>2026-04-04T08:52:23.207Z</time></trkpt><trkpt lat="43.4332044" lon="11.4207092"><ele>303.0</ele><time>2026-04-04T08:52:24.208Z</time></trkpt><trkpt lat="43.4331175" lon="11.420592"><ele>303.0</ele><time>2026-04-04T08:52:25.208Z</time></trkpt><trkpt lat="43.4330516" lon="11.4204492"><ele>303.0</ele><time>2026-04-04T08:52:26.206Z</time></trkpt><trkpt lat="43.4329813" lon="11.4202771"><ele>303.25</ele><time>2026-04-04T08:52:27.206Z</time></trkpt><trkpt lat="43.4329054" lon="11.4200895"><ele>303.5</ele><time>2026-04-04T08:52:28.209Z</time></trkpt><trkpt lat="43.432833" lon="11.4199226"><ele>303.75</ele><time>2026-04-04T08:52:29.207Z</time></trkpt><trkpt lat="43.4327495" lon="11.4197565"><ele>304.0</ele><time>2026-04-04T08:52:30.207Z</time></trkpt><trkpt lat="43.4326741" lon="11.419601"><ele>304.0</ele><time>2026-04-04T08:52:31.207Z</time></trkpt><trkpt lat="43.4325777" lon="11.4194445"><ele>304.0</ele><time>2026-04-04T08:52:32.208Z</time></trkpt><trkpt lat="43.4324735" lon="11.41929"><ele>304.0</ele><time>2026-04-04T08:52:33.208Z</time></trkpt><trkpt lat="43.4323618" lon="11.4191346"><ele>304.0</ele><time>2026-04-04T08:52:34.207Z</time></trkpt><trkpt lat="43.4322593" lon="11.418972"><ele>304.0</ele><time>2026-04-04T08:52:35.207Z</time></trkpt><trkpt lat="43.4321527" lon="11.4188101"><ele>304.0</ele><time>2026-04-04T08:52:36.209Z</time></trkpt><trkpt lat="43.4320454" lon="11.4186425"><ele>302.75</ele><time>2026-04-04T08:52:37.208Z</time></trkpt><trkpt lat="43.4319407" lon="11.4184895"><ele>301.5</ele><time>2026-04-04T08:52:38.207Z</time></trkpt><trkpt lat="43.4318493" lon="11.4183416"><ele>300.25</ele><time>2026-04-04T08:52:39.207Z</time></trkpt><trkpt lat="43.4317633" lon="11.4182088"><ele>299.0</ele><time>2026-04-04T08:52:40.208Z</time></trkpt><trkpt lat="43.4316755" lon="11.4180837"><ele>301.2</ele><time>2026-04-04T08:52:41.207Z</time></trkpt><trkpt lat="43.4315936" lon="11.417967"><ele>303.4</ele><time>2026-04-04T08:52:42.207Z</time></trkpt><trkpt lat="43.4315237" lon="11.4178581"><ele>305.6</ele><time>2026-04-04T08:52:43.208Z</time></trkpt><trkpt lat="43.4314592" lon="11.4177687"><ele>307.8</ele><time>2026-04-04T08:52:44.209Z</time></trkpt><trkpt lat="43.4314077" lon="11.4176863"><ele>310.0</ele><time>2026-04-04T08:52:45.207Z</time></trkpt><trkpt lat="43.4313543" lon="11.4176165"><ele>310.0</ele><time>2026-04-04T08:52:46.207Z</time></trkpt><trkpt lat="43.4313077" lon="11.4175451"><ele>310.0</ele><time>2026-04-04T08:52:47.206Z</time></trkpt><trkpt lat="43.4312623" lon="11.4174739"><ele>310.0</ele><time>2026-04-04T08:52:48.207Z</time></trkpt><trkpt lat="43.4312106" lon="11.4174032"><ele>310.0</ele><time>2026-04-04T08:52:49.207Z</time></trkpt><trkpt lat="43.4311545" lon="11.4173286"><ele>310.0</ele><time>2026-04-04T08:52:50.208Z</time></trkpt><trkpt lat="43.4310931" lon="11.4172393"><ele>310.0</ele><time>2026-04-04T08:52:51.208Z</time></trkpt><trkpt lat="43.4310256" lon="11.417161"><ele>310.7142857142857</ele><time>2026-04-04T08:52:52.207Z</time></trkpt><trkpt lat="43.4309627" lon="11.4170962"><ele>311.42857142857144</ele><time>2026-04-04T08:52:53.207Z</time></trkpt><trkpt lat="43.4309062" lon="11.4170463"><ele>312.1428571428571</ele><time>2026-04-04T08:52:54.207Z</time></trkpt><trkpt lat="43.430848" lon="11.417011"><ele>312.8571428571429</ele><time>2026-04-04T08:52:55.207Z</time></trkpt><trkpt lat="43.4307835" lon="11.4169734"><ele>313.57142857142856</ele><time>2026-04-04T08:52:56.208Z</time></trkpt><trkpt lat="43.4307171" lon="11.4169515"><ele>314.2857142857143</ele><time>2026-04-04T08:52:57.208Z</time></trkpt><trkpt lat="43.4306408" lon="11.4169236"><ele>315.0</ele><time>2026-04-04T08:52:58.207Z</time></trkpt><trkpt lat="43.4305659" lon="11.4168862"><ele>315.0</ele><time>2026-04-04T08:52:59.207Z</time></trkpt><trkpt lat="43.4304912" lon="11.4168618"><ele>315.0</ele><time>2026-04-04T08:53:00.206Z</time></trkpt><trkpt lat="43.4304025" lon="11.4168349"><ele>315.0</ele><time>2026-04-04T08:53:01.207Z</time></trkpt><trkpt lat="43.4303068" lon="11.4168247"><ele>315.0</ele><time>2026-04-04T08:53:02.207Z</time></trkpt><trkpt lat="43.430205" lon="11.416832"><ele>315.0</ele><time>2026-04-04T08:53:03.207Z</time></trkpt><trkpt lat="43.4301084" lon="11.4168288"><ele>314.1666666666667</ele><time>2026-04-04T08:53:04.208Z</time></trkpt><trkpt lat="43.4300134" lon="11.4168117"><ele>313.3333333333333</ele><time>2026-04-04T08:53:05.206Z</time></trkpt><trkpt lat="43.4299226" lon="11.4167851"><ele>312.5</ele><time>2026-04-04T08:53:06.208Z</time></trkpt><trkpt lat="43.429839" lon="11.4167346"><ele>311.66666666666663</ele><time>2026-04-04T08:53:07.207Z</time></trkpt><trkpt lat="43.429775" lon="11.4166668"><ele>310.8333333333333</ele><time>2026-04-04T08:53:08.207Z</time></trkpt><trkpt lat="43.4297084" lon="11.4165864"><ele>310.0</ele><time>2026-04-04T08:53:09.207Z</time></trkpt><trkpt lat="43.4296506" lon="11.4164944"><ele>307.8</ele><time>2026-04-04T08:53:10.208Z</time></trkpt><trkpt lat="43.4295926" lon="11.4163946"><ele>305.6</ele><time>2026-04-04T08:53:11.207Z</time></trkpt><trkpt lat="43.4295508" lon="11.4162861"><ele>303.4</ele><time>2026-04-04T08:53:12.207Z</time></trkpt><trkpt lat="43.4295196" lon="11.4161661"><ele>301.2</ele><time>2026-04-04T08:53:13.207Z</time></trkpt><trkpt lat="43.4295083" lon="11.4160339"><ele>299.0</ele><time>2026-04-04T08:53:14.207Z</time></trkpt><trkpt lat="43.4295223" lon="11.4158826"><ele>298.8</ele><time>2026-04-04T08:53:15.208Z</time></trkpt><trkpt lat="43.42956" lon="11.4157572"><ele>298.59999999999997</ele><time>2026-04-04T08:53:16.207Z</time></trkpt><trkpt lat="43.4296286" lon="11.4156481"><ele>298.4</ele><time>2026-04-04T08:53:17.208Z</time></trkpt><trkpt lat="43.4297149" lon="11.4155517"><ele>298.2</ele><time>2026-04-04T08:53:18.207Z</time></trkpt><trkpt lat="43.4297923" lon="11.4154799"><ele>298.0</ele><time>2026-04-04T08:53:19.207Z</time></trkpt><trkpt lat="43.4298535" lon="11.4154244"><ele>298.6</ele><time>2026-04-04T08:53:20.208Z</time></trkpt><trkpt lat="43.4299315" lon="11.4153643"><ele>299.20000000000005</ele><time>2026-04-04T08:53:22.208Z</time></trkpt><trkpt lat="43.4300124" lon="11.4152964"><ele>299.8</ele><time>2026-04-04T08:53:35.207Z</time></trkpt><trkpt lat="43.4301052" lon="11.4152075"><ele>300.40000000000003</ele><time>2026-04-04T08:53:37.207Z</time></trkpt><trkpt lat="43.4301672" lon="11.4151412"><ele>301.0</ele><time>2026-04-04T08:53:38.207Z</time></trkpt><trkpt lat="43.4302335" lon="11.4150871"><ele>301.0</ele><time>2026-04-04T08:53:39.207Z</time></trkpt><trkpt lat="43.4303058" lon="11.414973"><ele>301.0</ele><time>2026-04-04T08:53:40.208Z</time></trkpt><trkpt lat="43.430382" lon="11.4148586"><ele>301.0</ele><time>2026-04-04T08:53:41.207Z</time></trkpt><trkpt lat="43.430454" lon="11.4147477"><ele>301.0</ele><time>2026-04-04T08:53:42.208Z</time></trkpt><trkpt lat="43.4305301" lon="11.4146308"><ele>301.0</ele><time>2026-04-04T08:53:43.206Z</time></trkpt><trkpt lat="43.430608" lon="11.4145192"><ele>301.5</ele><time>2026-04-04T08:53:44.208Z</time></trkpt><trkpt lat="43.4307141" lon="11.4144223"><ele>302.0</ele><time>2026-04-04T08:53:45.206Z</time></trkpt><trkpt lat="43.4308257" lon="11.4143469"><ele>302.5</ele><time>2026-04-04T08:53:46.209Z</time></trkpt><trkpt lat="43.4309474" lon="11.4142876"><ele>303.0</ele><time>2026-04-04T08:53:47.208Z</time></trkpt><trkpt lat="43.4310668" lon="11.4142405"><ele>303.0</ele><time>2026-04-04T08:53:48.207Z</time></trkpt><trkpt lat="43.4311889" lon="11.4141932"><ele>303.0</ele><time>2026-04-04T08:53:49.208Z</time></trkpt><trkpt lat="43.4313024" lon="11.414151"><ele>303.0</ele><time>2026-04-04T08:53:50.207Z</time></trkpt><trkpt lat="43.431405" lon="11.4141087"><ele>303.0</ele><time>2026-04-04T08:53:51.207Z</time></trkpt><trkpt lat="43.4315034" lon="11.4140486"><ele>302.8</ele><time>2026-04-04T08:53:52.208Z</time></trkpt><trkpt lat="43.4315934" lon="11.4139606"><ele>302.6</ele><time>2026-04-04T08:53:53.208Z</time></trkpt><trkpt lat="43.4316679" lon="11.4138565"><ele>302.4</ele><time>2026-04-04T08:53:54.207Z</time></trkpt><trkpt lat="43.4317326" lon="11.4137306"><ele>302.2</ele><time>2026-04-04T08:53:55.208Z</time></trkpt><trkpt lat="43.4317839" lon="11.4135937"><ele>302.0</ele><time>2026-04-04T08:53:56.207Z</time></trkpt><trkpt lat="43.4318271" lon="11.4134681"><ele>302.0</ele><time>2026-04-04T08:53:57.207Z</time></trkpt><trkpt lat="43.4318615" lon="11.4133424"><ele>302.0</ele><time>2026-04-04T08:53:58.206Z</time></trkpt><trkpt lat="43.4318763" lon="11.4132148"><ele>302.0</ele><time>2026-04-04T08:53:59.206Z</time></trkpt><trkpt lat="43.4318717" lon="11.4130836"><ele>302.0</ele><time>2026-04-04T08:54:00.206Z</time></trkpt><trkpt lat="43.4318452" lon="11.4129507"><ele>302.0</ele><time>2026-04-04T08:54:01.208Z</time></trkpt><trkpt lat="43.4318069" lon="11.4128464"><ele>304.0</ele><time>2026-04-04T08:54:02.207Z</time></trkpt><trkpt lat="43.4317634" lon="11.4127693"><ele>304.0</ele><time>2026-04-04T08:54:03.207Z</time></trkpt><trkpt lat="43.4317195" lon="11.4126887"><ele>304.0</ele><time>2026-04-04T08:54:05.207Z</time></trkpt></trkseg><trkseg><trkpt lat="43.4316403" lon="11.4126051"><ele>304.0</ele><time>2026-04-04T09:12:55.201Z</time></trkpt><trkpt lat="43.4315695" lon="11.412586"><ele>304.0</ele><time>2026-04-04T09:12:57.201Z</time></trkpt><trkpt lat="43.4314854" lon="11.4125131"><ele>304.0</ele><time>2026-04-04T09:12:59.2Z</time></trkpt><trkpt lat="43.4314009" lon="11.4123769"><ele>304.0</ele><time>2026-04-04T09:13:01.201Z</time></trkpt><trkpt lat="43.4313413" lon="11.4122851"><ele>304.0</ele><time>2026-04-04T09:13:02.2Z</time></trkpt><trkpt lat="43.4312604" lon="11.4121719"><ele>301.75</ele><time>2026-04-04T09:13:03.199Z</time></trkpt><trkpt lat="43.4311682" lon="11.4120401"><ele>299.5</ele><time>2026-04-04T09:13:04.201Z</time></trkpt><trkpt lat="43.4310862" lon="11.4119238"><ele>297.25</ele><time>2026-04-04T09:13:05.2Z</time></trkpt><trkpt lat="43.4310009" lon="11.4118047"><ele>295.0</ele><time>2026-04-04T09:13:06.2Z</time></trkpt><trkpt lat="43.4309393" lon="11.4116712"><ele>295.0</ele><time>2026-04-04T09:13:07.201Z</time></trkpt><trkpt lat="43.4308899" lon="11.411527"><ele>295.0</ele><time>2026-04-04T09:13:08.2Z</time></trkpt><trkpt lat="43.4308502" lon="11.411378"><ele>295.0</ele><time>2026-04-04T09:13:09.2Z</time></trkpt><trkpt lat="43.4307964" lon="11.4112298"><ele>295.0</ele><time>2026-04-04T09:13:10.2Z</time></trkpt><trkpt lat="43.4307426" lon="11.4110787"><ele>296.25</ele><time>2026-04-04T09:13:11.2Z</time></trkpt><trkpt lat="43.4306723" lon="11.4109074"><ele>297.5</ele><time>2026-04-04T09:13:12.2Z</time></trkpt><trkpt lat="43.4306051" lon="11.4107487"><ele>298.75</ele><time>2026-04-04T09:13:13.2Z</time></trkpt><trkpt lat="43.4305104" lon="11.4105928"><ele>300.0</ele><time>2026-04-04T09:13:14.201Z</time></trkpt><trkpt lat="43.4304204" lon="11.4104568"><ele>300.0</ele><time>2026-04-04T09:13:15.199Z</time></trkpt><trkpt lat="43.4303184" lon="11.4103409"><ele>300.0</ele><time>2026-04-04T09:13:16.199Z</time></trkpt><trkpt lat="43.4302119" lon="11.410241"><ele>300.0</ele><time>2026-04-04T09:13:17.198Z</time></trkpt><trkpt lat="43.4301032" lon="11.4101566"><ele>300.0</ele><time>2026-04-04T09:13:18.199Z</time></trkpt><trkpt lat="43.4299798" lon="11.4100907"><ele>300.0</ele><time>2026-04-04T09:13:19.199Z</time></trkpt><trkpt lat="43.429852" lon="11.4100078"><ele>300.0</ele><time>2026-04-04T09:13:20.199Z</time></trkpt><trkpt lat="43.4297212" lon="11.4099179"><ele>300.0</ele><time>2026-04-04T09:13:21.199Z</time></trkpt><trkpt lat="43.4295946" lon="11.4098143"><ele>300.0</ele><time>2026-04-04T09:13:22.199Z</time></trkpt><trkpt lat="43.429473" lon="11.4096829"><ele>299.3333333333333</ele><time>2026-04-04T09:13:23.2Z</time></trkpt><trkpt lat="43.4293617" lon="11.4095329"><ele>298.66666666666663</ele><time>2026-04-04T09:13:24.198Z</time></trkpt><trkpt lat="43.4292528" lon="11.4093565"><ele>298.0</ele><time>2026-04-04T09:13:25.201Z</time></trkpt><trkpt lat="43.4291524" lon="11.4091707"><ele>298.0</ele><time>2026-04-04T09:13:26.199Z</time></trkpt><trkpt lat="43.4290497" lon="11.4089864"><ele>298.0</ele><time>2026-04-04T09:13:27.199Z</time></trkpt><trkpt lat="43.4289649" lon="11.4088219"><ele>298.0</ele><time>2026-04-04T09:13:28.2Z</time></trkpt><trkpt lat="43.4288896" lon="11.4086521"><ele>297.75</ele><time>2026-04-04T09:13:29.2Z</time></trkpt><trkpt lat="43.4288027" lon="11.4085216"><ele>297.5</ele><time>2026-04-04T09:13:30.199Z</time></trkpt><trkpt lat="43.4287139" lon="11.4084137"><ele>297.25</ele><time>2026-04-04T09:13:31.199Z</time></trkpt><trkpt lat="43.4286264" lon="11.4083185"><ele>297.0</ele><time>2026-04-04T09:13:32.198Z</time></trkpt><trkpt lat="43.4285338" lon="11.4082404"><ele>297.0</ele><time>2026-04-04T09:13:33.2Z</time></trkpt><trkpt lat="43.4283332" lon="11.4083396"><ele>297.0</ele><time>2026-04-04T09:13:34.2Z</time></trkpt><trkpt lat="43.4281971" lon="11.4083138"><ele>297.0</ele><time>2026-04-04T09:13:35.2Z</time></trkpt><trkpt lat="43.4280406" lon="11.4083183"><ele>295.0</ele><time>2026-04-04T09:13:36.2Z</time></trkpt><trkpt lat="43.4278963" lon="11.4082934"><ele>293.0</ele><time>2026-04-04T09:13:37.2Z</time></trkpt><trkpt lat="43.4277623" lon="11.4082221"><ele>291.0</ele><time>2026-04-04T09:13:38.199Z</time></trkpt><trkpt lat="43.4276279" lon="11.4081495"><ele>289.0</ele><time>2026-04-04T09:13:39.2Z</time></trkpt><trkpt lat="43.4275153" lon="11.4080209"><ele>288.5</ele><time>2026-04-04T09:13:40.199Z</time></trkpt><trkpt lat="43.4274032" lon="11.4078964"><ele>288.0</ele><time>2026-04-04T09:13:41.199Z</time></trkpt><trkpt lat="43.4272897" lon="11.4077629"><ele>287.5</ele><time>2026-04-04T09:13:42.199Z</time></trkpt><trkpt lat="43.4271765" lon="11.4076302"><ele>287.0</ele><time>2026-04-04T09:13:43.2Z</time></trkpt><trkpt lat="43.4270684" lon="11.4075236"><ele>287.0</ele><time>2026-04-04T09:13:44.199Z</time></trkpt><trkpt lat="43.4269518" lon="11.4074261"><ele>287.0</ele><time>2026-04-04T09:13:45.2Z</time></trkpt><trkpt lat="43.4268414" lon="11.407331"><ele>287.0</ele><time>2026-04-04T09:13:46.201Z</time></trkpt><trkpt lat="43.4267667" lon="11.4072169"><ele>287.0</ele><time>2026-04-04T09:13:47.199Z</time></trkpt><trkpt lat="43.4267225" lon="11.4070837"><ele>287.0</ele><time>2026-04-04T09:13:48.2Z</time></trkpt><trkpt lat="43.4267107" lon="11.4069118"><ele>287.0</ele><time>2026-04-04T09:13:49.199Z</time></trkpt><trkpt lat="43.4267249" lon="11.4067112"><ele>287.0</ele><time>2026-04-04T09:13:50.198Z</time></trkpt><trkpt lat="43.4267385" lon="11.4065003"><ele>287.0</ele><time>2026-04-04T09:13:51.199Z</time></trkpt><trkpt lat="43.4267417" lon="11.4063016"><ele>287.5</ele><time>2026-04-04T09:13:52.199Z</time></trkpt><trkpt lat="43.4267616" lon="11.4061018"><ele>288.0</ele><time>2026-04-04T09:13:53.199Z</time></trkpt><trkpt lat="43.426755" lon="11.4059258"><ele>288.5</ele><time>2026-04-04T09:13:54.2Z</time></trkpt><trkpt lat="43.426758" lon="11.4057442"><ele>289.0</ele><time>2026-04-04T09:13:55.199Z</time></trkpt><trkpt lat="43.426721" lon="11.4055806"><ele>291.5</ele><time>2026-04-04T09:13:56.199Z</time></trkpt><trkpt lat="43.4266913" lon="11.4054084"><ele>294.0</ele><time>2026-04-04T09:13:57.2Z</time></trkpt><trkpt lat="43.4265867" lon="11.405262"><ele>296.5</ele><time>2026-04-04T09:13:58.2Z</time></trkpt><trkpt lat="43.4265196" lon="11.4051153"><ele>299.0</ele><time>2026-04-04T09:13:59.199Z</time></trkpt><trkpt lat="43.4264518" lon="11.404966"><ele>299.0</ele><time>2026-04-04T09:14:00.199Z</time></trkpt><trkpt lat="43.426375" lon="11.4048519"><ele>299.0</ele><time>2026-04-04T09:14:01.2Z</time></trkpt><trkpt lat="43.426283" lon="11.4047751"><ele>299.0</ele><time>2026-04-04T09:14:02.2Z</time></trkpt><trkpt lat="43.42618" lon="11.4047151"><ele>299.0</ele><time>2026-04-04T09:14:03.2Z</time></trkpt><trkpt lat="43.4260764" lon="11.4046694"><ele>299.0</ele><time>2026-04-04T09:14:04.199Z</time></trkpt><trkpt lat="43.4259653" lon="11.4046094"><ele>298.5</ele><time>2026-04-04T09:14:05.198Z</time></trkpt><trkpt lat="43.4258476" lon="11.4045653"><ele>298.0</ele><time>2026-04-04T09:14:06.2Z</time></trkpt><trkpt lat="43.4257421" lon="11.4045004"><ele>297.5</ele><time>2026-04-04T09:14:07.2Z</time></trkpt><trkpt lat="43.4256258" lon="11.4044547"><ele>297.0</ele><time>2026-04-04T09:14:08.2Z</time></trkpt><trkpt lat="43.4255041" lon="11.4044028"><ele>294.25</ele><time>2026-04-04T09:14:09.2Z</time></trkpt><trkpt lat="43.4253857" lon="11.4043409"><ele>291.5</ele><time>2026-04-04T09:14:10.2Z</time></trkpt><trkpt lat="43.4252734" lon="11.404243"><ele>288.75</ele><time>2026-04-04T09:14:11.199Z</time></trkpt><trkpt lat="43.4251792" lon="11.404153"><ele>286.0</ele><time>2026-04-04T09:14:12.199Z</time></trkpt><trkpt lat="43.4250662" lon="11.4041095"><ele>286.0</ele><time>2026-04-04T09:14:13.199Z</time></trkpt><trkpt lat="43.4249437" lon="11.4040866"><ele>286.0</ele><time>2026-04-04T09:14:14.2Z</time></trkpt><trkpt lat="43.4248126" lon="11.4040947"><ele>286.0</ele><time>2026-04-04T09:14:15.199Z</time></trkpt><trkpt lat="43.4246715" lon="11.4041126"><ele>286.0</ele><time>2026-04-04T09:14:16.2Z</time></trkpt><trkpt lat="43.4244998" lon="11.4041151"><ele>285.5</ele><time>2026-04-04T09:14:17.199Z</time></trkpt><trkpt lat="43.4243547" lon="11.4041278"><ele>285.0</ele><time>2026-04-04T09:14:18.2Z</time></trkpt><trkpt lat="43.4241962" lon="11.404127"><ele>284.5</ele><time>2026-04-04T09:14:19.199Z</time></trkpt><trkpt lat="43.4240695" lon="11.4040941"><ele>284.0</ele><time>2026-04-04T09:14:20.2Z</time></trkpt><trkpt lat="43.4239444" lon="11.4040623"><ele>284.0</ele><time>2026-04-04T09:14:21.2Z</time></trkpt><trkpt lat="43.4238405" lon="11.4040534"><ele>284.0</ele><time>2026-04-04T09:14:22.2Z</time></trkpt><trkpt lat="43.4237123" lon="11.4040722"><ele>284.0</ele><time>2026-04-04T09:14:23.2Z</time></trkpt><trkpt lat="43.4236031" lon="11.4041181"><ele>284.0</ele><time>2026-04-04T09:14:24.199Z</time></trkpt><trkpt lat="43.4234836" lon="11.4041712"><ele>285.5</ele><time>2026-04-04T09:14:25.199Z</time></trkpt><trkpt lat="43.4233673" lon="11.404247"><ele>287.0</ele><time>2026-04-04T09:14:26.2Z</time></trkpt><trkpt lat="43.4232475" lon="11.4043644"><ele>288.5</ele><time>2026-04-04T09:14:27.199Z</time></trkpt><trkpt lat="43.4231354" lon="11.4044839"><ele>290.0</ele><time>2026-04-04T09:14:28.2Z</time></trkpt><trkpt lat="43.4230535" lon="11.4046234"><ele>289.2</ele><time>2026-04-04T09:14:29.2Z</time></trkpt><trkpt lat="43.4229945" lon="11.4047419"><ele>288.4</ele><time>2026-04-04T09:14:30.199Z</time></trkpt><trkpt lat="43.4229317" lon="11.4048534"><ele>287.6</ele><time>2026-04-04T09:14:31.198Z</time></trkpt><trkpt lat="43.4228478" lon="11.4049388"><ele>286.8</ele><time>2026-04-04T09:14:32.198Z</time></trkpt><trkpt lat="43.4227578" lon="11.4049768"><ele>286.0</ele><time>2026-04-04T09:14:33.2Z</time></trkpt><trkpt lat="43.4226588" lon="11.4049792"><ele>286.0</ele><time>2026-04-04T09:14:34.2Z</time></trkpt><trkpt lat="43.4225532" lon="11.4049583"><ele>286.0</ele><time>2026-04-04T09:14:35.198Z</time></trkpt><trkpt lat="43.422442" lon="11.4049147"><ele>286.0</ele><time>2026-04-04T09:14:36.199Z</time></trkpt><trkpt lat="43.4223153" lon="11.4048604"><ele>286.0</ele><time>2026-04-04T09:14:37.197Z</time></trkpt><trkpt lat="43.4221996" lon="11.4047781"><ele>286.5</ele><time>2026-04-04T09:14:38.199Z</time></trkpt><trkpt lat="43.4220853" lon="11.4046653"><ele>287.0</ele><time>2026-04-04T09:14:39.199Z</time></trkpt><trkpt lat="43.4219804" lon="11.4045156"><ele>287.5</ele><time>2026-04-04T09:14:40.2Z</time></trkpt><trkpt lat="43.421873" lon="11.4043606"><ele>288.0</ele><time>2026-04-04T09:14:41.2Z</time></trkpt><trkpt lat="43.4217674" lon="11.4041981"><ele>288.0</ele><time>2026-04-04T09:14:42.199Z</time></trkpt><trkpt lat="43.4216392" lon="11.4040333"><ele>288.0</ele><time>2026-04-04T09:14:43.198Z</time></trkpt><trkpt lat="43.4215209" lon="11.4038829"><ele>288.0</ele><time>2026-04-04T09:14:44.199Z</time></trkpt><trkpt lat="43.4213798" lon="11.4037197"><ele>287.3333333333333</ele><time>2026-04-04T09:14:45.199Z</time></trkpt><trkpt lat="43.4212542" lon="11.4035659"><ele>286.66666666666663</ele><time>2026-04-04T09:14:46.199Z</time></trkpt><trkpt lat="43.421114" lon="11.4034097"><ele>286.0</ele><time>2026-04-04T09:14:47.199Z</time></trkpt><trkpt lat="43.4209715" lon="11.4032453"><ele>286.0</ele><time>2026-04-04T09:14:48.199Z</time></trkpt><trkpt lat="43.4208434" lon="11.403097"><ele>286.0</ele><time>2026-04-04T09:14:49.2Z</time></trkpt><trkpt lat="43.4206988" lon="11.4029647"><ele>286.0</ele><time>2026-04-04T09:14:50.199Z</time></trkpt><trkpt lat="43.4205568" lon="11.4028547"><ele>285.0</ele><time>2026-04-04T09:14:51.199Z</time></trkpt><trkpt lat="43.4203998" lon="11.4027545"><ele>284.0</ele><time>2026-04-04T09:14:52.197Z</time></trkpt><trkpt lat="43.4202385" lon="11.4026603"><ele>283.0</ele><time>2026-04-04T09:14:53.199Z</time></trkpt><trkpt lat="43.4200782" lon="11.4025546"><ele>283.0</ele><time>2026-04-04T09:14:54.2Z</time></trkpt><trkpt lat="43.4199421" lon="11.4024529"><ele>283.0</ele><time>2026-04-04T09:14:55.198Z</time></trkpt><trkpt lat="43.4198062" lon="11.4023145"><ele>283.0</ele><time>2026-04-04T09:14:56.197Z</time></trkpt><trkpt lat="43.4196902" lon="11.4021514"><ele>280.66666666666663</ele><time>2026-04-04T09:14:57.199Z</time></trkpt><trkpt lat="43.419598" lon="11.4019467"><ele>278.3333333333333</ele><time>2026-04-04T09:14:58.199Z</time></trkpt><trkpt lat="43.419511" lon="11.4016989"><ele>276.0</ele><time>2026-04-04T09:14:59.199Z</time></trkpt><trkpt lat="43.419434" lon="11.4014492"><ele>276.0</ele><time>2026-04-04T09:15:00.198Z</time></trkpt><trkpt lat="43.4193531" lon="11.4012205"><ele>276.0</ele><time>2026-04-04T09:15:01.199Z</time></trkpt><trkpt lat="43.4192668" lon="11.4010008"><ele>276.0</ele><time>2026-04-04T09:15:02.199Z</time></trkpt><trkpt lat="43.4191792" lon="11.400794"><ele>276.0</ele><time>2026-04-04T09:15:03.197Z</time></trkpt><trkpt lat="43.4190811" lon="11.4006122"><ele>276.0</ele><time>2026-04-04T09:15:04.199Z</time></trkpt><trkpt lat="43.418978" lon="11.4004494"><ele>276.0</ele><time>2026-04-04T09:15:05.2Z</time></trkpt><trkpt lat="43.4188752" lon="11.4002913"><ele>275.3333333333333</ele><time>2026-04-04T09:15:06.2Z</time></trkpt><trkpt lat="43.4187563" lon="11.4001436"><ele>274.66666666666663</ele><time>2026-04-04T09:15:07.198Z</time></trkpt><trkpt lat="43.4186279" lon="11.4000003"><ele>274.0</ele><time>2026-04-04T09:15:08.198Z</time></trkpt><trkpt lat="43.4185181" lon="11.399852"><ele>274.0</ele><time>2026-04-04T09:15:09.2Z</time></trkpt><trkpt lat="43.4184119" lon="11.3997066"><ele>274.0</ele><time>2026-04-04T09:15:10.198Z</time></trkpt><trkpt lat="43.4183017" lon="11.399558"><ele>274.0</ele><time>2026-04-04T09:15:11.198Z</time></trkpt><trkpt lat="43.4181821" lon="11.3994112"><ele>274.0</ele><time>2026-04-04T09:15:12.2Z</time></trkpt><trkpt lat="43.4180707" lon="11.3992552"><ele>274.0</ele><time>2026-04-04T09:15:13.199Z</time></trkpt><trkpt lat="43.4179742" lon="11.3990751"><ele>274.0</ele><time>2026-04-04T09:15:14.198Z</time></trkpt><trkpt lat="43.4178764" lon="11.3989077"><ele>279.25</ele><time>2026-04-04T09:15:15.199Z</time></trkpt><trkpt lat="43.4177719" lon="11.3987656"><ele>284.5</ele><time>2026-04-04T09:15:16.199Z</time></trkpt><trkpt lat="43.4176354" lon="11.3986529"><ele>289.75</ele><time>2026-04-04T09:15:17.2Z</time></trkpt><trkpt lat="43.4175103" lon="11.3985702"><ele>295.0</ele><time>2026-04-04T09:15:18.198Z</time></trkpt><trkpt lat="43.4173822" lon="11.3984857"><ele>295.0</ele><time>2026-04-04T09:15:19.199Z</time></trkpt><trkpt lat="43.4172532" lon="11.3984204"><ele>295.0</ele><time>2026-04-04T09:15:20.2Z</time></trkpt><trkpt lat="43.4171245" lon="11.3983589"><ele>295.0</ele><time>2026-04-04T09:15:21.198Z</time></trkpt><trkpt lat="43.4169925" lon="11.3983299"><ele>295.0</ele><time>2026-04-04T09:15:22.198Z</time></trkpt><trkpt lat="43.4168443" lon="11.3983628"><ele>292.66666666666663</ele><time>2026-04-04T09:15:23.2Z</time></trkpt><trkpt lat="43.4167012" lon="11.3983818"><ele>290.3333333333333</ele><time>2026-04-04T09:15:24.198Z</time></trkpt><trkpt lat="43.4165484" lon="11.3984199"><ele>288.0</ele><time>2026-04-04T09:15:25.201Z</time></trkpt><trkpt lat="43.4163902" lon="11.3985062"><ele>290.3333333333333</ele><time>2026-04-04T09:15:26.199Z</time></trkpt><trkpt lat="43.4162124" lon="11.3985594"><ele>292.66666666666663</ele><time>2026-04-04T09:15:27.199Z</time></trkpt><trkpt lat="43.4160501" lon="11.3986258"><ele>295.0</ele><time>2026-04-04T09:15:28.199Z</time></trkpt><trkpt lat="43.4158949" lon="11.3986961"><ele>295.0</ele><time>2026-04-04T09:15:29.201Z</time></trkpt><trkpt lat="43.415722" lon="11.3987791"><ele>295.0</ele><time>2026-04-04T09:15:30.198Z</time></trkpt><trkpt lat="43.4155498" lon="11.3988479"><ele>295.0</ele><time>2026-04-04T09:15:31.199Z</time></trkpt><trkpt lat="43.41537" lon="11.3989388"><ele>288.0</ele><time>2026-04-04T09:15:32.199Z</time></trkpt><trkpt lat="43.4151929" lon="11.3990165"><ele>281.0</ele><time>2026-04-04T09:15:33.199Z</time></trkpt><trkpt lat="43.4150111" lon="11.3990737"><ele>274.0</ele><time>2026-04-04T09:15:34.197Z</time></trkpt><trkpt lat="43.414824" lon="11.3990972"><ele>272.66666666666663</ele><time>2026-04-04T09:15:35.198Z</time></trkpt><trkpt lat="43.4146199" lon="11.3991079"><ele>271.3333333333333</ele><time>2026-04-04T09:15:36.199Z</time></trkpt><trkpt lat="43.414416" lon="11.3991017"><ele>270.0</ele><time>2026-04-04T09:15:37.198Z</time></trkpt><trkpt lat="43.4141946" lon="11.3990846"><ele>270.0</ele><time>2026-04-04T09:15:38.198Z</time></trkpt><trkpt lat="43.4139569" lon="11.3990434"><ele>270.0</ele><time>2026-04-04T09:15:39.198Z</time></trkpt><trkpt lat="43.4137089" lon="11.3990153"><ele>269.0</ele><time>2026-04-04T09:15:40.2Z</time></trkpt><trkpt lat="43.4134773" lon="11.3989895"><ele>268.0</ele><time>2026-04-04T09:15:41.199Z</time></trkpt><trkpt lat="43.4132532" lon="11.3989599"><ele>268.0</ele><time>2026-04-04T09:15:42.198Z</time></trkpt><trkpt lat="43.4130511" lon="11.3989225"><ele>268.0</ele><time>2026-04-04T09:15:43.199Z</time></trkpt><trkpt lat="43.4128558" lon="11.3989012"><ele>268.0</ele><time>2026-04-04T09:15:44.198Z</time></trkpt><trkpt lat="43.4126705" lon="11.3988873"><ele>267.66666666666663</ele><time>2026-04-04T09:15:45.199Z</time></trkpt><trkpt lat="43.4124886" lon="11.3988995"><ele>267.3333333333333</ele><time>2026-04-04T09:15:46.199Z</time></trkpt><trkpt lat="43.4123256" lon="11.3989331"><ele>267.0</ele><time>2026-04-04T09:15:47.199Z</time></trkpt><trkpt lat="43.4121549" lon="11.3990066"><ele>267.0</ele><time>2026-04-04T09:15:48.2Z</time></trkpt><trkpt lat="43.4119989" lon="11.3991043"><ele>267.0</ele><time>2026-04-04T09:15:49.199Z</time></trkpt><trkpt lat="43.4118494" lon="11.3992305"><ele>267.0</ele><time>2026-04-04T09:15:50.198Z</time></trkpt><trkpt lat="43.4117006" lon="11.3993905"><ele>267.0</ele><time>2026-04-04T09:15:51.2Z</time></trkpt><trkpt lat="43.4115763" lon="11.3995766"><ele>267.0</ele><time>2026-04-04T09:15:52.198Z</time></trkpt><trkpt lat="43.4114419" lon="11.3997703"><ele>267.0</ele><time>2026-04-04T09:15:53.198Z</time></trkpt><trkpt lat="43.4113081" lon="11.3999536"><ele>266.6666666666667</ele><time>2026-04-04T09:15:54.197Z</time></trkpt><trkpt lat="43.4111695" lon="11.4001483"><ele>266.33333333333337</ele><time>2026-04-04T09:15:55.198Z</time></trkpt><trkpt lat="43.4110439" lon="11.4003276"><ele>266.0</ele><time>2026-04-04T09:15:56.198Z</time></trkpt><trkpt lat="43.4109227" lon="11.4005243"><ele>268.6666666666667</ele><time>2026-04-04T09:15:57.2Z</time></trkpt><trkpt lat="43.410796" lon="11.4007095"><ele>271.3333333333333</ele><time>2026-04-04T09:15:58.2Z</time></trkpt><trkpt lat="43.4106662" lon="11.4008907"><ele>274.0</ele><time>2026-04-04T09:15:59.199Z</time></trkpt><trkpt lat="43.4105367" lon="11.401071"><ele>271.66666666666663</ele><time>2026-04-04T09:16:00.2Z</time></trkpt><trkpt lat="43.4104051" lon="11.4012511"><ele>269.3333333333333</ele><time>2026-04-04T09:16:01.199Z</time></trkpt><trkpt lat="43.4102669" lon="11.4014452"><ele>267.0</ele><time>2026-04-04T09:16:02.198Z</time></trkpt><trkpt lat="43.4101373" lon="11.4016302"><ele>267.0</ele><time>2026-04-04T09:16:03.197Z</time></trkpt><trkpt lat="43.4100013" lon="11.401822"><ele>267.0</ele><time>2026-04-04T09:16:04.199Z</time></trkpt><trkpt lat="43.4098668" lon="11.4020116"><ele>267.0</ele><time>2026-04-04T09:16:05.199Z</time></trkpt><trkpt lat="43.409736" lon="11.4021976"><ele>266.6666666666667</ele><time>2026-04-04T09:16:06.198Z</time></trkpt><trkpt lat="43.4096009" lon="11.4023854"><ele>266.33333333333337</ele><time>2026-04-04T09:16:07.199Z</time></trkpt><trkpt lat="43.4094604" lon="11.402574"><ele>266.0</ele><time>2026-04-04T09:16:08.198Z</time></trkpt><trkpt lat="43.4093276" lon="11.4027529"><ele>266.0</ele><time>2026-04-04T09:16:09.198Z</time></trkpt><trkpt lat="43.4091959" lon="11.4029459"><ele>266.0</ele><time>2026-04-04T09:16:10.198Z</time></trkpt><trkpt lat="43.4090718" lon="11.4031353"><ele>266.0</ele><time>2026-04-04T09:16:11.198Z</time></trkpt><trkpt lat="43.4089501" lon="11.4033274"><ele>265.6666666666667</ele><time>2026-04-04T09:16:12.198Z</time></trkpt><trkpt lat="43.4088329" lon="11.4034953"><ele>265.3333333333333</ele><time>2026-04-04T09:16:13.199Z</time></trkpt><trkpt lat="43.4087201" lon="11.4036448"><ele>265.0</ele><time>2026-04-04T09:16:14.2Z</time></trkpt><trkpt lat="43.4085929" lon="11.4037507"><ele>265.0</ele><time>2026-04-04T09:16:15.198Z</time></trkpt><trkpt lat="43.4084588" lon="11.4038058"><ele>265.0</ele><time>2026-04-04T09:16:16.2Z</time></trkpt><trkpt lat="43.4083194" lon="11.4038208"><ele>265.0</ele><time>2026-04-04T09:16:17.197Z</time></trkpt><trkpt lat="43.4081723" lon="11.4038405"><ele>265.0</ele><time>2026-04-04T09:16:18.2Z</time></trkpt><trkpt lat="43.4080138" lon="11.4038658"><ele>269.66666666666663</ele><time>2026-04-04T09:16:19.198Z</time></trkpt><trkpt lat="43.4078802" lon="11.4039255"><ele>274.3333333333333</ele><time>2026-04-04T09:16:20.198Z</time></trkpt><trkpt lat="43.4077131" lon="11.4039803"><ele>279.0</ele><time>2026-04-04T09:16:21.198Z</time></trkpt><trkpt lat="43.4075524" lon="11.4040468"><ele>279.0</ele><time>2026-04-04T09:16:22.199Z</time></trkpt><trkpt lat="43.4073765" lon="11.4041236"><ele>279.0</ele><time>2026-04-04T09:16:23.197Z</time></trkpt><trkpt lat="43.4072078" lon="11.4042039"><ele>279.0</ele><time>2026-04-04T09:16:24.197Z</time></trkpt><trkpt lat="43.4070189" lon="11.4042859"><ele>275.3333333333333</ele><time>2026-04-04T09:16:25.199Z</time></trkpt><trkpt lat="43.4068454" lon="11.4043847"><ele>271.66666666666663</ele><time>2026-04-04T09:16:26.198Z</time></trkpt><trkpt lat="43.4066655" lon="11.4044914"><ele>268.0</ele><time>2026-04-04T09:16:27.198Z</time></trkpt><trkpt lat="43.4064793" lon="11.4045871"><ele>270.0</ele><time>2026-04-04T09:16:28.198Z</time></trkpt><trkpt lat="43.4062934" lon="11.4046661"><ele>272.0</ele><time>2026-04-04T09:16:29.198Z</time></trkpt><trkpt lat="43.4061057" lon="11.4047406"><ele>274.0</ele><time>2026-04-04T09:16:30.198Z</time></trkpt><trkpt lat="43.4059233" lon="11.4047766"><ele>274.0</ele><time>2026-04-04T09:16:31.199Z</time></trkpt><trkpt lat="43.4057434" lon="11.4048241"><ele>274.0</ele><time>2026-04-04T09:16:32.199Z</time></trkpt><trkpt lat="43.4055575" lon="11.4048504"><ele>274.0</ele><time>2026-04-04T09:16:33.199Z</time></trkpt><trkpt lat="43.405371" lon="11.4048634"><ele>273.0</ele><time>2026-04-04T09:16:34.198Z</time></trkpt><trkpt lat="43.4051979" lon="11.4048589"><ele>272.0</ele><time>2026-04-04T09:16:35.197Z</time></trkpt><trkpt lat="43.4050303" lon="11.4048286"><ele>271.0</ele><time>2026-04-04T09:16:36.199Z</time></trkpt><trkpt lat="43.4048888" lon="11.4048366"><ele>271.0</ele><time>2026-04-04T09:16:37.199Z</time></trkpt><trkpt lat="43.4047449" lon="11.4048459"><ele>271.0</ele><time>2026-04-04T09:16:38.197Z</time></trkpt><trkpt lat="43.4045895" lon="11.4049539"><ele>271.0</ele><time>2026-04-04T09:16:39.2Z</time></trkpt><trkpt lat="43.4044278" lon="11.4050579"><ele>269.3333333333333</ele><time>2026-04-04T09:16:40.2Z</time></trkpt><trkpt lat="43.4042677" lon="11.4051588"><ele>267.6666666666667</ele><time>2026-04-04T09:16:41.198Z</time></trkpt><trkpt lat="43.4041021" lon="11.4052606"><ele>266.0</ele><time>2026-04-04T09:16:42.198Z</time></trkpt><trkpt lat="43.4039271" lon="11.4053467"><ele>263.6666666666667</ele><time>2026-04-04T09:16:43.199Z</time></trkpt><trkpt lat="43.4037528" lon="11.4054276"><ele>261.3333333333333</ele><time>2026-04-04T09:16:44.197Z</time></trkpt><trkpt lat="43.4035779" lon="11.4054942"><ele>259.0</ele><time>2026-04-04T09:16:45.197Z</time></trkpt><trkpt lat="43.4034049" lon="11.4055607"><ele>260.66666666666663</ele><time>2026-04-04T09:16:46.198Z</time></trkpt><trkpt lat="43.4032343" lon="11.4056236"><ele>262.3333333333333</ele><time>2026-04-04T09:16:47.198Z</time></trkpt><trkpt lat="43.4030739" lon="11.4056991"><ele>264.0</ele><time>2026-04-04T09:16:48.199Z</time></trkpt><trkpt lat="43.4029268" lon="11.4057673"><ele>264.0</ele><time>2026-04-04T09:16:49.197Z</time></trkpt><trkpt lat="43.4027854" lon="11.405842"><ele>264.0</ele><time>2026-04-04T09:16:50.199Z</time></trkpt><trkpt lat="43.4026535" lon="11.40595"><ele>264.0</ele><time>2026-04-04T09:16:51.198Z</time></trkpt><trkpt lat="43.4025266" lon="11.4060523"><ele>264.0</ele><time>2026-04-04T09:16:52.199Z</time></trkpt><trkpt lat="43.4023982" lon="11.406138"><ele>264.0</ele><time>2026-04-04T09:16:53.199Z</time></trkpt><trkpt lat="43.4022684" lon="11.4061917"><ele>264.0</ele><time>2026-04-04T09:16:54.199Z</time></trkpt><trkpt lat="43.4021448" lon="11.4062118"><ele>264.0</ele><time>2026-04-04T09:16:55.199Z</time></trkpt><trkpt lat="43.4020136" lon="11.4061814"><ele>263.25</ele><time>2026-04-04T09:16:56.199Z</time></trkpt><trkpt lat="43.4018863" lon="11.4061134"><ele>262.5</ele><time>2026-04-04T09:16:57.199Z</time></trkpt><trkpt lat="43.4017497" lon="11.4060229"><ele>261.75</ele><time>2026-04-04T09:16:58.198Z</time></trkpt><trkpt lat="43.4016211" lon="11.4059241"><ele>261.0</ele><time>2026-04-04T09:16:59.199Z</time></trkpt><trkpt lat="43.4014832" lon="11.4058122"><ele>261.0</ele><time>2026-04-04T09:17:00.199Z</time></trkpt><trkpt lat="43.4013428" lon="11.4056976"><ele>261.0</ele><time>2026-04-04T09:17:01.197Z</time></trkpt><trkpt lat="43.4011994" lon="11.4055911"><ele>261.0</ele><time>2026-04-04T09:17:02.199Z</time></trkpt><trkpt lat="43.4010471" lon="11.405482"><ele>261.3333333333333</ele><time>2026-04-04T09:17:03.199Z</time></trkpt><trkpt lat="43.4008971" lon="11.4053667"><ele>261.66666666666663</ele><time>2026-04-04T09:17:04.199Z</time></trkpt><trkpt lat="43.4007482" lon="11.4052444"><ele>262.0</ele><time>2026-04-04T09:17:05.198Z</time></trkpt><trkpt lat="43.4006061" lon="11.4051357"><ele>267.0</ele><time>2026-04-04T09:17:06.199Z</time></trkpt><trkpt lat="43.4004732" lon="11.4050339"><ele>272.0</ele><time>2026-04-04T09:17:07.199Z</time></trkpt><trkpt lat="43.4003338" lon="11.4049187"><ele>277.0</ele><time>2026-04-04T09:17:08.198Z</time></trkpt><trkpt lat="43.4002005" lon="11.4047953"><ele>272.3333333333333</ele><time>2026-04-04T09:17:09.197Z</time></trkpt><trkpt lat="43.4000769" lon="11.4046367"><ele>267.6666666666667</ele><time>2026-04-04T09:17:10.198Z</time></trkpt><trkpt lat="43.3999697" lon="11.4044781"><ele>263.0</ele><time>2026-04-04T09:17:11.198Z</time></trkpt><trkpt lat="43.3998674" lon="11.4043"><ele>263.0</ele><time>2026-04-04T09:17:12.199Z</time></trkpt><trkpt lat="43.3997738" lon="11.4041109"><ele>263.0</ele><time>2026-04-04T09:17:13.198Z</time></trkpt><trkpt lat="43.3996687" lon="11.4039017"><ele>263.0</ele><time>2026-04-04T09:17:14.197Z</time></trkpt><trkpt lat="43.3995456" lon="11.4037243"><ele>263.33333333333337</ele><time>2026-04-04T09:17:15.198Z</time></trkpt><trkpt lat="43.3994198" lon="11.4035764"><ele>263.6666666666667</ele><time>2026-04-04T09:17:16.198Z</time></trkpt><trkpt lat="43.399264" lon="11.4034488"><ele>264.0</ele><time>2026-04-04T09:17:17.198Z</time></trkpt><trkpt lat="43.3991203" lon="11.4033486"><ele>264.0</ele><time>2026-04-04T09:17:18.198Z</time></trkpt><trkpt lat="43.3989599" lon="11.4032592"><ele>264.0</ele><time>2026-04-04T09:17:19.198Z</time></trkpt><trkpt lat="43.398795" lon="11.4031919"><ele>264.0</ele><time>2026-04-04T09:17:20.197Z</time></trkpt><trkpt lat="43.3986454" lon="11.4031271"><ele>264.0</ele><time>2026-04-04T09:17:21.198Z</time></trkpt><trkpt lat="43.3985076" lon="11.4030799"><ele>264.0</ele><time>2026-04-04T09:17:22.198Z</time></trkpt><trkpt lat="43.3983702" lon="11.4030562"><ele>264.0</ele><time>2026-04-04T09:17:23.198Z</time></trkpt><trkpt lat="43.3982397" lon="11.4030748"><ele>264.0</ele><time>2026-04-04T09:17:24.198Z</time></trkpt><trkpt lat="43.398113" lon="11.4031222"><ele>261.6666666666667</ele><time>2026-04-04T09:17:25.199Z</time></trkpt><trkpt lat="43.3979905" lon="11.4032278"><ele>259.33333333333337</ele><time>2026-04-04T09:17:26.197Z</time></trkpt><trkpt lat="43.3978721" lon="11.4033417"><ele>257.0</ele><time>2026-04-04T09:17:27.198Z</time></trkpt><trkpt lat="43.397747" lon="11.4034811"><ele>257.0</ele><time>2026-04-04T09:17:28.198Z</time></trkpt><trkpt lat="43.3976154" lon="11.4036377"><ele>257.0</ele><time>2026-04-04T09:17:29.197Z</time></trkpt><trkpt lat="43.3974838" lon="11.4037909"><ele>257.0</ele><time>2026-04-04T09:17:30.198Z</time></trkpt><trkpt lat="43.3973465" lon="11.4039561"><ele>257.0</ele><time>2026-04-04T09:17:31.199Z</time></trkpt><trkpt lat="43.3972054" lon="11.4041159"><ele>257.0</ele><time>2026-04-04T09:17:32.198Z</time></trkpt><trkpt lat="43.3970717" lon="11.4042994"><ele>257.0</ele><time>2026-04-04T09:17:33.199Z</time></trkpt><trkpt lat="43.3969311" lon="11.4044863"><ele>259.6666666666667</ele><time>2026-04-04T09:17:34.199Z</time></trkpt><trkpt lat="43.3967885" lon="11.4046679"><ele>262.3333333333333</ele><time>2026-04-04T09:17:35.197Z</time></trkpt><trkpt lat="43.3966475" lon="11.4048517"><ele>265.0</ele><time>2026-04-04T09:17:36.198Z</time></trkpt><trkpt lat="43.3964977" lon="11.4050354"><ele>265.0</ele><time>2026-04-04T09:17:37.197Z</time></trkpt><trkpt lat="43.3963392" lon="11.4052223"><ele>265.0</ele><time>2026-04-04T09:17:38.198Z</time></trkpt><trkpt lat="43.3961821" lon="11.405406"><ele>265.0</ele><time>2026-04-04T09:17:39.199Z</time></trkpt><trkpt lat="43.3960277" lon="11.405587"><ele>263.3333333333333</ele><time>2026-04-04T09:17:40.199Z</time></trkpt><trkpt lat="43.395871" lon="11.4057611"><ele>261.6666666666667</ele><time>2026-04-04T09:17:41.197Z</time></trkpt><trkpt lat="43.3957315" lon="11.4059147"><ele>260.0</ele><time>2026-04-04T09:17:42.198Z</time></trkpt><trkpt lat="43.3955923" lon="11.4060634"><ele>259.0</ele><time>2026-04-04T09:17:43.199Z</time></trkpt><trkpt lat="43.3954607" lon="11.4062171"><ele>258.0</ele><time>2026-04-04T09:17:44.196Z</time></trkpt><trkpt lat="43.3953288" lon="11.4063943"><ele>257.0</ele><time>2026-04-04T09:17:45.197Z</time></trkpt><trkpt lat="43.3951902" lon="11.4065922"><ele>257.0</ele><time>2026-04-04T09:17:46.198Z</time></trkpt><trkpt lat="43.3950586" lon="11.4067853"><ele>257.0</ele><time>2026-04-04T09:17:47.199Z</time></trkpt><trkpt lat="43.3949331" lon="11.4069915"><ele>257.0</ele><time>2026-04-04T09:17:48.199Z</time></trkpt><trkpt lat="43.3948303" lon="11.4072085"><ele>258.0</ele><time>2026-04-04T09:17:49.198Z</time></trkpt><trkpt lat="43.3947311" lon="11.4074205"><ele>259.0</ele><time>2026-04-04T09:17:50.198Z</time></trkpt><trkpt lat="43.3946349" lon="11.4076364"><ele>260.0</ele><time>2026-04-04T09:17:51.198Z</time></trkpt><trkpt lat="43.3945435" lon="11.4078464"><ele>258.33333333333337</ele><time>2026-04-04T09:17:52.198Z</time></trkpt><trkpt lat="43.3944424" lon="11.4080508"><ele>256.6666666666667</ele><time>2026-04-04T09:17:53.198Z</time></trkpt><trkpt lat="43.394345" lon="11.4082528"><ele>255.0</ele><time>2026-04-04T09:17:54.197Z</time></trkpt><trkpt lat="43.3942451" lon="11.4084616"><ele>255.0</ele><time>2026-04-04T09:17:55.196Z</time></trkpt><trkpt lat="43.3941484" lon="11.4086603"><ele>255.0</ele><time>2026-04-04T09:17:56.197Z</time></trkpt><trkpt lat="43.394063" lon="11.4088629"><ele>255.0</ele><time>2026-04-04T09:17:57.198Z</time></trkpt><trkpt lat="43.3939851" lon="11.4090831"><ele>253.66666666666669</ele><time>2026-04-04T09:17:58.199Z</time></trkpt><trkpt lat="43.3939106" lon="11.4092917"><ele>252.33333333333334</ele><time>2026-04-04T09:17:59.199Z</time></trkpt><trkpt lat="43.3938344" lon="11.4095117"><ele>251.0</ele><time>2026-04-04T09:18:00.197Z</time></trkpt><trkpt lat="43.3937702" lon="11.409738"><ele>251.0</ele><time>2026-04-04T09:18:01.197Z</time></trkpt><trkpt lat="43.3937122" lon="11.4099712"><ele>251.0</ele><time>2026-04-04T09:18:02.199Z</time></trkpt><trkpt lat="43.3936594" lon="11.4102073"><ele>251.0</ele><time>2026-04-04T09:18:03.198Z</time></trkpt><trkpt lat="43.3935958" lon="11.410438"><ele>252.33333333333334</ele><time>2026-04-04T09:18:04.198Z</time></trkpt><trkpt lat="43.3935096" lon="11.410668"><ele>253.66666666666669</ele><time>2026-04-04T09:18:05.197Z</time></trkpt><trkpt lat="43.3934096" lon="11.4108829"><ele>255.0</ele><time>2026-04-04T09:18:06.199Z</time></trkpt><trkpt lat="43.3933087" lon="11.4110908"><ele>255.0</ele><time>2026-04-04T09:18:07.199Z</time></trkpt><trkpt lat="43.3932035" lon="11.4113061"><ele>255.0</ele><time>2026-04-04T09:18:08.199Z</time></trkpt><trkpt lat="43.3930945" lon="11.4115259"><ele>255.0</ele><time>2026-04-04T09:18:09.199Z</time></trkpt><trkpt lat="43.3929987" lon="11.4117488"><ele>254.33333333333331</ele><time>2026-04-04T09:18:10.198Z</time></trkpt><trkpt lat="43.3928919" lon="11.4119738"><ele>253.66666666666666</ele><time>2026-04-04T09:18:11.198Z</time></trkpt><trkpt lat="43.3927835" lon="11.4121976"><ele>253.0</ele><time>2026-04-04T09:18:12.199Z</time></trkpt><trkpt lat="43.3926813" lon="11.412427"><ele>253.0</ele><time>2026-04-04T09:18:13.198Z</time></trkpt><trkpt lat="43.3925854" lon="11.4126471"><ele>253.0</ele><time>2026-04-04T09:18:14.199Z</time></trkpt><trkpt lat="43.3924952" lon="11.4128458"><ele>253.0</ele><time>2026-04-04T09:18:15.199Z</time></trkpt><trkpt lat="43.3924099" lon="11.4130312"><ele>253.5</ele><time>2026-04-04T09:18:16.199Z</time></trkpt><trkpt lat="43.3923266" lon="11.4131869"><ele>254.0</ele><time>2026-04-04T09:18:17.198Z</time></trkpt><trkpt lat="43.3922297" lon="11.4133313"><ele>254.5</ele><time>2026-04-04T09:18:18.199Z</time></trkpt><trkpt lat="43.3921216" lon="11.4134468"><ele>255.0</ele><time>2026-04-04T09:18:19.198Z</time></trkpt><trkpt lat="43.3920167" lon="11.4135648"><ele>255.25</ele><time>2026-04-04T09:18:20.198Z</time></trkpt><trkpt lat="43.3919077" lon="11.4136623"><ele>255.5</ele><time>2026-04-04T09:18:21.199Z</time></trkpt><trkpt lat="43.3917829" lon="11.4137568"><ele>255.75</ele><time>2026-04-04T09:18:22.198Z</time></trkpt><trkpt lat="43.3916581" lon="11.4138582"><ele>256.0</ele><time>2026-04-04T09:18:23.198Z</time></trkpt><trkpt lat="43.3915232" lon="11.4139497"><ele>256.25</ele><time>2026-04-04T09:18:24.197Z</time></trkpt><trkpt lat="43.3913853" lon="11.4140318"><ele>256.5</ele><time>2026-04-04T09:18:25.198Z</time></trkpt><trkpt lat="43.3912554" lon="11.4140793"><ele>256.75</ele><time>2026-04-04T09:18:26.198Z</time></trkpt><trkpt lat="43.3911308" lon="11.414113"><ele>257.0</ele><time>2026-04-04T09:18:27.198Z</time></trkpt><trkpt lat="43.3910098" lon="11.4141345"><ele>257.0</ele><time>2026-04-04T09:18:28.197Z</time></trkpt><trkpt lat="43.3909034" lon="11.414144"><ele>257.0</ele><time>2026-04-04T09:18:29.197Z</time></trkpt><trkpt lat="43.3908218" lon="11.4141444"><ele>257.0</ele><time>2026-04-04T09:18:30.198Z</time></trkpt><trkpt lat="43.3907326" lon="11.4142087"><ele>257.0</ele><time>2026-04-04T09:18:32.199Z</time></trkpt><trkpt lat="43.3907647" lon="11.4143057"><ele>257.0</ele><time>2026-04-04T09:18:34.198Z</time></trkpt><trkpt lat="43.3908919" lon="11.4143616"><ele>257.0</ele><time>2026-04-04T09:18:36.198Z</time></trkpt><trkpt lat="43.3909893" lon="11.414393"><ele>257.0</ele><time>2026-04-04T09:18:37.197Z</time></trkpt><trkpt lat="43.3910943" lon="11.4144312"><ele>257.0</ele><time>2026-04-04T09:18:38.198Z</time></trkpt><trkpt lat="43.3912085" lon="11.414484"><ele>257.0</ele><time>2026-04-04T09:18:39.196Z</time></trkpt><trkpt lat="43.39133" lon="11.4145374"><ele>258.0</ele><time>2026-04-04T09:18:40.199Z</time></trkpt><trkpt lat="43.3914448" lon="11.4145917"><ele>259.0</ele><time>2026-04-04T09:18:41.199Z</time></trkpt><trkpt lat="43.3915575" lon="11.4146464"><ele>260.0</ele><time>2026-04-04T09:18:42.198Z</time></trkpt><trkpt lat="43.3916652" lon="11.4147067"><ele>261.0</ele><time>2026-04-04T09:18:43.196Z</time></trkpt><trkpt lat="43.3917712" lon="11.4147613"><ele>263.6</ele><time>2026-04-04T09:18:44.199Z</time></trkpt><trkpt lat="43.391873" lon="11.4147921"><ele>266.20000000000005</ele><time>2026-04-04T09:18:45.196Z</time></trkpt><trkpt lat="43.3919855" lon="11.4148073"><ele>268.79999999999995</ele><time>2026-04-04T09:18:46.199Z</time></trkpt><trkpt lat="43.3921007" lon="11.4148297"><ele>271.4</ele><time>2026-04-04T09:18:47.199Z</time></trkpt><trkpt lat="43.3922036" lon="11.4148399"><ele>274.0</ele><time>2026-04-04T09:18:48.197Z</time></trkpt><trkpt lat="43.392308" lon="11.4148691"><ele>274.0</ele><time>2026-04-04T09:18:49.199Z</time></trkpt><trkpt lat="43.3924026" lon="11.4149413"><ele>274.0</ele><time>2026-04-04T09:18:50.197Z</time></trkpt><trkpt lat="43.3924815" lon="11.4150307"><ele>274.0</ele><time>2026-04-04T09:18:51.198Z</time></trkpt><trkpt lat="43.3925547" lon="11.4151474"><ele>274.0</ele><time>2026-04-04T09:18:52.197Z</time></trkpt><trkpt lat="43.3926255" lon="11.4152911"><ele>274.0</ele><time>2026-04-04T09:18:53.197Z</time></trkpt><trkpt lat="43.3926936" lon="11.415434"><ele>279.25</ele><time>2026-04-04T09:18:54.197Z</time></trkpt><trkpt lat="43.3927652" lon="11.4155995"><ele>284.5</ele><time>2026-04-04T09:18:55.198Z</time></trkpt><trkpt lat="43.3928391" lon="11.4157459"><ele>289.75</ele><time>2026-04-04T09:18:56.197Z</time></trkpt><trkpt lat="43.3929086" lon="11.4158903"><ele>295.0</ele><time>2026-04-04T09:18:57.197Z</time></trkpt><trkpt lat="43.3929843" lon="11.416024"><ele>295.75</ele><time>2026-04-04T09:18:58.198Z</time></trkpt><trkpt lat="43.3930676" lon="11.4161837"><ele>296.5</ele><time>2026-04-04T09:18:59.197Z</time></trkpt><trkpt lat="43.3931534" lon="11.4163324"><ele>297.25</ele><time>2026-04-04T09:19:00.199Z</time></trkpt><trkpt lat="43.3932417" lon="11.4164642"><ele>298.0</ele><time>2026-04-04T09:19:01.199Z</time></trkpt><trkpt lat="43.3933373" lon="11.4165756"><ele>298.0</ele><time>2026-04-04T09:19:02.199Z</time></trkpt><trkpt lat="43.3934483" lon="11.4166816"><ele>298.0</ele><time>2026-04-04T09:19:03.198Z</time></trkpt><trkpt lat="43.3935591" lon="11.4167851"><ele>298.0</ele><time>2026-04-04T09:19:04.198Z</time></trkpt><trkpt lat="43.3936707" lon="11.4168863"><ele>298.0</ele><time>2026-04-04T09:19:05.197Z</time></trkpt><trkpt lat="43.3937843" lon="11.4169969"><ele>299.0</ele><time>2026-04-04T09:19:06.199Z</time></trkpt><trkpt lat="43.3938902" lon="11.4171188"><ele>300.0</ele><time>2026-04-04T09:19:07.198Z</time></trkpt><trkpt lat="43.3940154" lon="11.4172325"><ele>301.0</ele><time>2026-04-04T09:19:08.196Z</time></trkpt><trkpt lat="43.3941313" lon="11.4173802"><ele>302.0</ele><time>2026-04-04T09:19:09.196Z</time></trkpt><trkpt lat="43.3942492" lon="11.4175113"><ele>302.0</ele><time>2026-04-04T09:19:10.197Z</time></trkpt><trkpt lat="43.3943599" lon="11.4176481"><ele>302.0</ele><time>2026-04-04T09:19:11.197Z</time></trkpt><trkpt lat="43.3944675" lon="11.4177899"><ele>302.0</ele><time>2026-04-04T09:19:12.197Z</time></trkpt><trkpt lat="43.3945621" lon="11.4179505"><ele>302.0</ele><time>2026-04-04T09:19:13.197Z</time></trkpt><trkpt lat="43.3946416" lon="11.4181374"><ele>302.0</ele><time>2026-04-04T09:19:14.198Z</time></trkpt><trkpt lat="43.3947214" lon="11.4183135"><ele>302.0</ele><time>2026-04-04T09:19:15.196Z</time></trkpt><trkpt lat="43.3948024" lon="11.4184663"><ele>302.0</ele><time>2026-04-04T09:19:16.197Z</time></trkpt><trkpt lat="43.394913" lon="11.4186002"><ele>302.0</ele><time>2026-04-04T09:19:17.198Z</time></trkpt><trkpt lat="43.3950537" lon="11.4187181"><ele>304.0</ele><time>2026-04-04T09:19:18.197Z</time></trkpt><trkpt lat="43.3951933" lon="11.418827"><ele>306.0</ele><time>2026-04-04T09:19:19.199Z</time></trkpt><trkpt lat="43.3953241" lon="11.41893"><ele>308.0</ele><time>2026-04-04T09:19:20.196Z</time></trkpt><trkpt lat="43.3954416" lon="11.4190094"><ele>310.0</ele><time>2026-04-04T09:19:21.198Z</time></trkpt><trkpt lat="43.3955387" lon="11.4190899"><ele>310.0</ele><time>2026-04-04T09:19:22.197Z</time></trkpt><trkpt lat="43.3956256" lon="11.4191494"><ele>310.0</ele><time>2026-04-04T09:19:23.198Z</time></trkpt><trkpt lat="43.3957186" lon="11.419198"><ele>310.0</ele><time>2026-04-04T09:19:24.197Z</time></trkpt><trkpt lat="43.3958067" lon="11.4192645"><ele>310.0</ele><time>2026-04-04T09:19:25.197Z</time></trkpt><trkpt lat="43.3958935" lon="11.4193595"><ele>310.0</ele><time>2026-04-04T09:19:26.198Z</time></trkpt><trkpt lat="43.3959878" lon="11.4194569"><ele>310.0</ele><time>2026-04-04T09:19:27.197Z</time></trkpt><trkpt lat="43.3960862" lon="11.4195469"><ele>310.0</ele><time>2026-04-04T09:19:28.198Z</time></trkpt><trkpt lat="43.3962074" lon="11.4196301"><ele>310.0</ele><time>2026-04-04T09:19:29.198Z</time></trkpt><trkpt lat="43.3963303" lon="11.4197149"><ele>310.0</ele><time>2026-04-04T09:19:30.197Z</time></trkpt><trkpt lat="43.3964458" lon="11.4197886"><ele>312.6</ele><time>2026-04-04T09:19:31.197Z</time></trkpt><trkpt lat="43.3965392" lon="11.4198566"><ele>315.2</ele><time>2026-04-04T09:19:32.197Z</time></trkpt><trkpt lat="43.3966185" lon="11.4199215"><ele>317.79999999999995</ele><time>2026-04-04T09:19:33.197Z</time></trkpt><trkpt lat="43.3966918" lon="11.4199661"><ele>320.4</ele><time>2026-04-04T09:19:34.198Z</time></trkpt><trkpt lat="43.3967809" lon="11.4200399"><ele>323.0</ele><time>2026-04-04T09:19:36.197Z</time></trkpt><trkpt lat="43.3967496" lon="11.4201325"><ele>323.0</ele><time>2026-04-04T09:19:38.196Z</time></trkpt><trkpt lat="43.3966443" lon="11.420118"><ele>323.0</ele><time>2026-04-04T09:19:40.197Z</time></trkpt><trkpt lat="43.3965864" lon="11.420083"><ele>323.0</ele><time>2026-04-04T09:19:41.198Z</time></trkpt><trkpt lat="43.396529" lon="11.420039"><ele>323.0</ele><time>2026-04-04T09:19:42.197Z</time></trkpt><trkpt lat="43.3964716" lon="11.4199798"><ele>323.0</ele><time>2026-04-04T09:19:43.197Z</time></trkpt><trkpt lat="43.396404" lon="11.4199247"><ele>323.0</ele><time>2026-04-04T09:19:44.196Z</time></trkpt><trkpt lat="43.3963313" lon="11.4198718"><ele>322.83333333333337</ele><time>2026-04-04T09:19:45.197Z</time></trkpt><trkpt lat="43.3962527" lon="11.4198198"><ele>322.6666666666667</ele><time>2026-04-04T09:19:46.197Z</time></trkpt><trkpt lat="43.3961708" lon="11.4197716"><ele>322.5</ele><time>2026-04-04T09:19:47.196Z</time></trkpt><trkpt lat="43.3960891" lon="11.4197189"><ele>322.3333333333333</ele><time>2026-04-04T09:19:48.197Z</time></trkpt><trkpt lat="43.3960045" lon="11.4196567"><ele>322.16666666666663</ele><time>2026-04-04T09:19:49.198Z</time></trkpt><trkpt lat="43.3959334" lon="11.4195985"><ele>322.0</ele><time>2026-04-04T09:19:50.198Z</time></trkpt><trkpt lat="43.3958634" lon="11.4195378"><ele>321.0</ele><time>2026-04-04T09:19:51.197Z</time></trkpt><trkpt lat="43.3957989" lon="11.4194783"><ele>320.0</ele><time>2026-04-04T09:19:52.198Z</time></trkpt><trkpt lat="43.3957229" lon="11.4194208"><ele>319.0</ele><time>2026-04-04T09:19:53.196Z</time></trkpt><trkpt lat="43.395638" lon="11.4193607"><ele>318.0</ele><time>2026-04-04T09:19:54.197Z</time></trkpt><trkpt lat="43.395562" lon="11.4193083"><ele>317.0</ele><time>2026-04-04T09:19:55.197Z</time></trkpt><trkpt lat="43.3954919" lon="11.4192769"><ele>316.0</ele><time>2026-04-04T09:19:56.197Z</time></trkpt><trkpt lat="43.3954254" lon="11.4192487"><ele>316.0</ele><time>2026-04-04T09:19:57.197Z</time></trkpt><trkpt lat="43.3953446" lon="11.4192594"><ele>316.0</ele><time>2026-04-04T09:19:58.198Z</time></trkpt><trkpt lat="43.3952706" lon="11.4192965"><ele>316.0</ele><time>2026-04-04T09:19:59.197Z</time></trkpt><trkpt lat="43.3952033" lon="11.4193622"><ele>316.0</ele><time>2026-04-04T09:20:00.197Z</time></trkpt><trkpt lat="43.3951265" lon="11.4194594"><ele>316.0</ele><time>2026-04-04T09:20:01.197Z</time></trkpt><trkpt lat="43.3950575" lon="11.4195862"><ele>316.8333333333333</ele><time>2026-04-04T09:20:02.197Z</time></trkpt><trkpt lat="43.3949927" lon="11.4197163"><ele>317.66666666666663</ele><time>2026-04-04T09:20:03.198Z</time></trkpt><trkpt lat="43.3949316" lon="11.4198193"><ele>318.5</ele><time>2026-04-04T09:20:04.196Z</time></trkpt><trkpt lat="43.3948774" lon="11.4198961"><ele>319.3333333333333</ele><time>2026-04-04T09:20:05.197Z</time></trkpt><trkpt lat="43.3948216" lon="11.4199661"><ele>320.1666666666667</ele><time>2026-04-04T09:20:06.197Z</time></trkpt><trkpt lat="43.3947674" lon="11.4200212"><ele>321.0</ele><time>2026-04-04T09:20:07.197Z</time></trkpt><trkpt lat="43.3946972" lon="11.4200612"><ele>321.6</ele><time>2026-04-04T09:20:08.196Z</time></trkpt><trkpt lat="43.3946193" lon="11.4200904"><ele>322.20000000000005</ele><time>2026-04-04T09:20:09.197Z</time></trkpt><trkpt lat="43.394525" lon="11.4200919"><ele>322.79999999999995</ele><time>2026-04-04T09:20:10.197Z</time></trkpt><trkpt lat="43.3944094" lon="11.4201326"><ele>323.4</ele><time>2026-04-04T09:20:11.196Z</time></trkpt><trkpt lat="43.3942789" lon="11.4201772"><ele>324.0</ele><time>2026-04-04T09:20:12.198Z</time></trkpt><trkpt lat="43.3941665" lon="11.4202119"><ele>324.0</ele><time>2026-04-04T09:20:13.196Z</time></trkpt><trkpt lat="43.3940692" lon="11.420261"><ele>324.0</ele><time>2026-04-04T09:20:14.197Z</time></trkpt><trkpt lat="43.393979" lon="11.4202984"><ele>324.0</ele><time>2026-04-04T09:20:15.197Z</time></trkpt><trkpt lat="43.3939184" lon="11.4203272"><ele>324.0</ele><time>2026-04-04T09:20:16.198Z</time></trkpt><trkpt lat="43.3938391" lon="11.4203958"><ele>324.0</ele><time>2026-04-04T09:20:18.198Z</time></trkpt><trkpt lat="43.393773" lon="11.4204827"><ele>324.0</ele><time>2026-04-04T09:20:20.196Z</time></trkpt><trkpt lat="43.393723" lon="11.4205896"><ele>324.1666666666667</ele><time>2026-04-04T09:20:22.198Z</time></trkpt><trkpt lat="43.3936934" lon="11.4207166"><ele>324.3333333333333</ele><time>2026-04-04T09:20:24.197Z</time></trkpt><trkpt lat="43.3936652" lon="11.4208232"><ele>324.5</ele><time>2026-04-04T09:20:26.197Z</time></trkpt><trkpt lat="43.3936373" lon="11.4209309"><ele>324.66666666666663</ele><time>2026-04-04T09:20:28.198Z</time></trkpt><trkpt lat="43.3936257" lon="11.4210818"><ele>324.8333333333333</ele><time>2026-04-04T09:20:30.196Z</time></trkpt><trkpt lat="43.3936256" lon="11.4211698"><ele>325.0</ele><time>2026-04-04T09:20:31.198Z</time></trkpt><trkpt lat="43.3936101" lon="11.4212697"><ele>325.0</ele><time>2026-04-04T09:20:32.197Z</time></trkpt><trkpt lat="43.3936017" lon="11.4213672"><ele>325.0</ele><time>2026-04-04T09:20:33.196Z</time></trkpt><trkpt lat="43.393597" lon="11.4214654"><ele>325.0</ele><time>2026-04-04T09:20:34.197Z</time></trkpt><trkpt lat="43.3935823" lon="11.4215618"><ele>325.0</ele><time>2026-04-04T09:20:35.197Z</time></trkpt><trkpt lat="43.3935698" lon="11.4216533"><ele>325.0</ele><time>2026-04-04T09:20:36.198Z</time></trkpt><trkpt lat="43.3935571" lon="11.4217439"><ele>325.0</ele><time>2026-04-04T09:20:37.197Z</time></trkpt><trkpt lat="43.393553" lon="11.4218404"><ele>325.0</ele><time>2026-04-04T09:20:38.197Z</time></trkpt><trkpt lat="43.3935222" lon="11.4220218"><ele>325.0</ele><time>2026-04-04T09:20:40.199Z</time></trkpt><trkpt lat="43.3935008" lon="11.4221208"><ele>325.0</ele><time>2026-04-04T09:20:41.197Z</time></trkpt><trkpt lat="43.3934693" lon="11.422224"><ele>325.0</ele><time>2026-04-04T09:20:42.197Z</time></trkpt><trkpt lat="43.393436" lon="11.4223243"><ele>325.0</ele><time>2026-04-04T09:20:43.196Z</time></trkpt><trkpt lat="43.3933997" lon="11.422407"><ele>325.0</ele><time>2026-04-04T09:20:44.197Z</time></trkpt><trkpt lat="43.3933484" lon="11.422492"><ele>325.0</ele><time>2026-04-04T09:20:45.197Z</time></trkpt><trkpt lat="43.393276" lon="11.4225415"><ele>325.66666666666663</ele><time>2026-04-04T09:20:46.198Z</time></trkpt><trkpt lat="43.3932117" lon="11.4226041"><ele>326.3333333333333</ele><time>2026-04-04T09:20:47.198Z</time></trkpt><trkpt lat="43.3931466" lon="11.4226626"><ele>327.0</ele><time>2026-04-04T09:20:48.198Z</time></trkpt><trkpt lat="43.3930736" lon="11.4226942"><ele>327.6666666666667</ele><time>2026-04-04T09:20:49.197Z</time></trkpt><trkpt lat="43.3929382" lon="11.4227166"><ele>328.33333333333337</ele><time>2026-04-04T09:20:51.198Z</time></trkpt><trkpt lat="43.392864" lon="11.4227099"><ele>329.0</ele><time>2026-04-04T09:20:52.197Z</time></trkpt><trkpt lat="43.3927874" lon="11.4227019"><ele>329.0</ele><time>2026-04-04T09:20:53.197Z</time></trkpt><trkpt lat="43.3927089" lon="11.4227012"><ele>329.0</ele><time>2026-04-04T09:20:54.198Z</time></trkpt><trkpt lat="43.3926362" lon="11.4227027"><ele>329.0</ele><time>2026-04-04T09:20:55.197Z</time></trkpt><trkpt lat="43.3925626" lon="11.4227179"><ele>329.0</ele><time>2026-04-04T09:20:56.198Z</time></trkpt><trkpt lat="43.3924891" lon="11.4227521"><ele>329.0</ele><time>2026-04-04T09:20:57.196Z</time></trkpt><trkpt lat="43.3924217" lon="11.4228022"><ele>329.0</ele><time>2026-04-04T09:20:58.197Z</time></trkpt><trkpt lat="43.3923596" lon="11.4228602"><ele>329.0</ele><time>2026-04-04T09:20:59.196Z</time></trkpt><trkpt lat="43.3922909" lon="11.4229189"><ele>329.0</ele><time>2026-04-04T09:21:00.196Z</time></trkpt><trkpt lat="43.3922255" lon="11.422976"><ele>329.0</ele><time>2026-04-04T09:21:01.197Z</time></trkpt><trkpt lat="43.3921711" lon="11.4230437"><ele>329.0</ele><time>2026-04-04T09:21:02.198Z</time></trkpt><trkpt lat="43.3921062" lon="11.4231075"><ele>329.0</ele><time>2026-04-04T09:21:03.198Z</time></trkpt><trkpt lat="43.392059" lon="11.4231807"><ele>329.0</ele><time>2026-04-04T09:21:04.196Z</time></trkpt><trkpt lat="43.3920143" lon="11.4232617"><ele>329.1666666666667</ele><time>2026-04-04T09:21:05.198Z</time></trkpt><trkpt lat="43.3919814" lon="11.4233586"><ele>329.33333333333337</ele><time>2026-04-04T09:21:06.197Z</time></trkpt><trkpt lat="43.3919526" lon="11.423462"><ele>329.5</ele><time>2026-04-04T09:21:07.197Z</time></trkpt><trkpt lat="43.3919239" lon="11.4235754"><ele>329.6666666666667</ele><time>2026-04-04T09:21:08.197Z</time></trkpt><trkpt lat="43.3918992" lon="11.4236986"><ele>329.8333333333333</ele><time>2026-04-04T09:21:09.198Z</time></trkpt><trkpt lat="43.3918746" lon="11.42382"><ele>330.0</ele><time>2026-04-04T09:21:10.196Z</time></trkpt><trkpt lat="43.3918515" lon="11.4239346"><ele>330.00000000000006</ele><time>2026-04-04T09:21:11.197Z</time></trkpt><trkpt lat="43.3918338" lon="11.4240452"><ele>330.0</ele><time>2026-04-04T09:21:12.197Z</time></trkpt><trkpt lat="43.3918174" lon="11.4241497"><ele>330.0</ele><time>2026-04-04T09:21:13.197Z</time></trkpt><trkpt lat="43.3918022" lon="11.4242478"><ele>330.0</ele><time>2026-04-04T09:21:14.198Z</time></trkpt><trkpt lat="43.3917883" lon="11.4243418"><ele>330.0</ele><time>2026-04-04T09:21:15.196Z</time></trkpt><trkpt lat="43.3917786" lon="11.424434"><ele>330.00000000000006</ele><time>2026-04-04T09:21:16.197Z</time></trkpt><trkpt lat="43.3917638" lon="11.4245223"><ele>330.0</ele><time>2026-04-04T09:21:17.197Z</time></trkpt><trkpt lat="43.3917464" lon="11.4246097"><ele>330.0</ele><time>2026-04-04T09:21:18.198Z</time></trkpt><trkpt lat="43.3917225" lon="11.4246912"><ele>330.0</ele><time>2026-04-04T09:21:19.196Z</time></trkpt><trkpt lat="43.3916532" lon="11.424825"><ele>330.0</ele><time>2026-04-04T09:21:21.198Z</time></trkpt><trkpt lat="43.391596" lon="11.4248869"><ele>330.0</ele><time>2026-04-04T09:21:22.197Z</time></trkpt><trkpt lat="43.3915382" lon="11.4249368"><ele>330.0</ele><time>2026-04-04T09:21:23.196Z</time></trkpt><trkpt lat="43.3914792" lon="11.4249817"><ele>330.0</ele><time>2026-04-04T09:21:24.197Z</time></trkpt><trkpt lat="43.3914122" lon="11.4250136"><ele>328.2</ele><time>2026-04-04T09:21:25.196Z</time></trkpt><trkpt lat="43.3913041" lon="11.4250619"><ele>326.4</ele><time>2026-04-04T09:21:27.197Z</time></trkpt><trkpt lat="43.3912408" lon="11.4250912"><ele>324.6</ele><time>2026-04-04T09:21:28.198Z</time></trkpt><trkpt lat="43.391151" lon="11.4251684"><ele>322.8</ele><time>2026-04-04T09:21:30.197Z</time></trkpt><trkpt lat="43.3910722" lon="11.4253012"><ele>321.0</ele><time>2026-04-04T09:21:32.196Z</time></trkpt><trkpt lat="43.391036" lon="11.4253861"><ele>321.20000000000005</ele><time>2026-04-04T09:21:33.196Z</time></trkpt><trkpt lat="43.3909925" lon="11.4255474"><ele>321.40000000000003</ele><time>2026-04-04T09:21:35.198Z</time></trkpt><trkpt lat="43.3909725" lon="11.4256308"><ele>321.6</ele><time>2026-04-04T09:21:36.197Z</time></trkpt><trkpt lat="43.3909469" lon="11.4257121"><ele>321.8</ele><time>2026-04-04T09:21:37.197Z</time></trkpt><trkpt lat="43.3908901" lon="11.4258561"><ele>322.0</ele><time>2026-04-04T09:21:39.196Z</time></trkpt><trkpt lat="43.390811" lon="11.4259937"><ele>322.0</ele><time>2026-04-04T09:21:41.197Z</time></trkpt><trkpt lat="43.3907823" lon="11.4260748"><ele>322.0</ele><time>2026-04-04T09:21:42.197Z</time></trkpt><trkpt lat="43.3907213" lon="11.4262111"><ele>322.0</ele><time>2026-04-04T09:21:44.196Z</time></trkpt><trkpt lat="43.3907102" lon="11.4263615"><ele>322.0</ele><time>2026-04-04T09:21:46.197Z</time></trkpt><trkpt lat="43.3907442" lon="11.4265065"><ele>322.0</ele><time>2026-04-04T09:21:48.197Z</time></trkpt><trkpt lat="43.3908434" lon="11.4266207"><ele>320.8</ele><time>2026-04-04T09:21:50.196Z</time></trkpt><trkpt lat="43.3909058" lon="11.4266675"><ele>319.6</ele><time>2026-04-04T09:21:51.197Z</time></trkpt><trkpt lat="43.3910037" lon="11.4267381"><ele>318.40000000000003</ele><time>2026-04-04T09:21:53.196Z</time></trkpt><trkpt lat="43.3910845" lon="11.4268357"><ele>317.20000000000005</ele><time>2026-04-04T09:21:55.198Z</time></trkpt><trkpt lat="43.39114" lon="11.4269446"><ele>316.0</ele><time>2026-04-04T09:21:57.196Z</time></trkpt><trkpt lat="43.3911458" lon="11.4270661"><ele>314.6</ele><time>2026-04-04T09:21:59.195Z</time></trkpt><trkpt lat="43.3910936" lon="11.4271708"><ele>313.20000000000005</ele><time>2026-04-04T09:22:01.198Z</time></trkpt><trkpt lat="43.3910064" lon="11.4272569"><ele>311.79999999999995</ele><time>2026-04-04T09:22:03.197Z</time></trkpt><trkpt lat="43.3909162" lon="11.4273426"><ele>310.4</ele><time>2026-04-04T09:22:05.196Z</time></trkpt><trkpt lat="43.3908426" lon="11.4274558"><ele>309.0</ele><time>2026-04-04T09:22:07.198Z</time></trkpt><trkpt lat="43.3908019" lon="11.427606"><ele>309.0</ele><time>2026-04-04T09:22:09.197Z</time></trkpt><trkpt lat="43.3907964" lon="11.4277736"><ele>309.0</ele><time>2026-04-04T09:22:11.196Z</time></trkpt><trkpt lat="43.3908169" lon="11.4279319"><ele>309.0</ele><time>2026-04-04T09:22:13.198Z</time></trkpt><trkpt lat="43.3908301" lon="11.428017"><ele>309.0</ele><time>2026-04-04T09:22:14.196Z</time></trkpt><trkpt lat="43.3908757" lon="11.4281659"><ele>309.0</ele><time>2026-04-04T09:22:16.196Z</time></trkpt><trkpt lat="43.3909013" lon="11.4282508"><ele>307.8571428571429</ele><time>2026-04-04T09:22:17.197Z</time></trkpt><trkpt lat="43.3909204" lon="11.4283362"><ele>306.7142857142857</ele><time>2026-04-04T09:22:18.196Z</time></trkpt><trkpt lat="43.3909386" lon="11.4284253"><ele>305.57142857142856</ele><time>2026-04-04T09:22:19.197Z</time></trkpt><trkpt lat="43.390984" lon="11.4285702"><ele>304.42857142857144</ele><time>2026-04-04T09:22:21.196Z</time></trkpt><trkpt lat="43.3910172" lon="11.4286442"><ele>303.2857142857143</ele><time>2026-04-04T09:22:22.196Z</time></trkpt><trkpt lat="43.3910512" lon="11.4287269"><ele>302.14285714285717</ele><time>2026-04-04T09:22:23.195Z</time></trkpt><trkpt lat="43.3910826" lon="11.4288026"><ele>301.0</ele><time>2026-04-04T09:22:24.197Z</time></trkpt><trkpt lat="43.3911514" lon="11.4289121"><ele>301.0</ele><time>2026-04-04T09:22:26.196Z</time></trkpt><trkpt lat="43.3912344" lon="11.4289903"><ele>301.0</ele><time>2026-04-04T09:22:28.197Z</time></trkpt><trkpt lat="43.3913344" lon="11.429073"><ele>301.0</ele><time>2026-04-04T09:22:30.196Z</time></trkpt><trkpt lat="43.3914289" lon="11.4291363"><ele>301.0</ele><time>2026-04-04T09:22:32.197Z</time></trkpt><trkpt lat="43.3915197" lon="11.4292327"><ele>301.0</ele><time>2026-04-04T09:22:34.195Z</time></trkpt><trkpt lat="43.3915787" lon="11.4293534"><ele>301.0</ele><time>2026-04-04T09:22:36.197Z</time></trkpt><trkpt lat="43.3915964" lon="11.429442"><ele>301.0</ele><time>2026-04-04T09:22:37.196Z</time></trkpt><trkpt lat="43.391599" lon="11.4295516"><ele>301.0</ele><time>2026-04-04T09:22:38.196Z</time></trkpt><trkpt lat="43.39158" lon="11.429635"><ele>301.0</ele><time>2026-04-04T09:22:39.196Z</time></trkpt><trkpt lat="43.3915669" lon="11.4297253"><ele>301.0</ele><time>2026-04-04T09:22:40.197Z</time></trkpt><trkpt lat="43.3915217" lon="11.4298565"><ele>301.0</ele><time>2026-04-04T09:22:42.197Z</time></trkpt><trkpt lat="43.3914856" lon="11.429934"><ele>301.0</ele><time>2026-04-04T09:22:44.197Z</time></trkpt><trkpt lat="43.3914346" lon="11.4300371"><ele>300.0</ele><time>2026-04-04T09:22:46.196Z</time></trkpt><trkpt lat="43.3913555" lon="11.430115"><ele>299.0</ele><time>2026-04-04T09:22:48.196Z</time></trkpt><trkpt lat="43.3912538" lon="11.4301681"><ele>298.0</ele><time>2026-04-04T09:22:50.195Z</time></trkpt><trkpt lat="43.3911378" lon="11.4302011"><ele>297.0</ele><time>2026-04-04T09:22:52.196Z</time></trkpt><trkpt lat="43.3910172" lon="11.430197"><ele>296.0</ele><time>2026-04-04T09:22:54.196Z</time></trkpt><trkpt lat="43.3909481" lon="11.4301876"><ele>296.0</ele><time>2026-04-04T09:22:55.198Z</time></trkpt><trkpt lat="43.3908754" lon="11.4301681"><ele>296.0</ele><time>2026-04-04T09:22:56.196Z</time></trkpt><trkpt lat="43.3907985" lon="11.4301705"><ele>296.0</ele><time>2026-04-04T09:22:57.196Z</time></trkpt><trkpt lat="43.3907245" lon="11.4301531"><ele>296.0</ele><time>2026-04-04T09:22:58.197Z</time></trkpt><trkpt lat="43.3906629" lon="11.4301282"><ele>296.0</ele><time>2026-04-04T09:22:59.197Z</time></trkpt><trkpt lat="43.3905902" lon="11.4300926"><ele>296.0</ele><time>2026-04-04T09:23:00.195Z</time></trkpt><trkpt lat="43.39051" lon="11.4300528"><ele>297.83333333333337</ele><time>2026-04-04T09:23:01.195Z</time></trkpt><trkpt lat="43.3904429" lon="11.4300094"><ele>299.6666666666667</ele><time>2026-04-04T09:23:02.197Z</time></trkpt><trkpt lat="43.3903851" lon="11.4299652"><ele>301.5</ele><time>2026-04-04T09:23:03.196Z</time></trkpt><trkpt lat="43.3903234" lon="11.4299301"><ele>303.3333333333333</ele><time>2026-04-04T09:23:04.197Z</time></trkpt><trkpt lat="43.3902159" lon="11.4298495"><ele>305.16666666666663</ele><time>2026-04-04T09:23:06.196Z</time></trkpt><trkpt lat="43.3901573" lon="11.4298076"><ele>307.0</ele><time>2026-04-04T09:23:07.196Z</time></trkpt><trkpt lat="43.3900832" lon="11.4297498"><ele>306.99999999999994</ele><time>2026-04-04T09:23:08.196Z</time></trkpt><trkpt lat="43.3900243" lon="11.4297009"><ele>307.0</ele><time>2026-04-04T09:23:09.197Z</time></trkpt><trkpt lat="43.3899661" lon="11.4296568"><ele>307.0</ele><time>2026-04-04T09:23:10.196Z</time></trkpt><trkpt lat="43.3899114" lon="11.4296012"><ele>307.0</ele><time>2026-04-04T09:23:11.196Z</time></trkpt><trkpt lat="43.3898467" lon="11.4295479"><ele>307.0</ele><time>2026-04-04T09:23:12.197Z</time></trkpt><trkpt lat="43.389786" lon="11.4294786"><ele>306.99999999999994</ele><time>2026-04-04T09:23:13.198Z</time></trkpt><trkpt lat="43.3897315" lon="11.4294223"><ele>307.0</ele><time>2026-04-04T09:23:14.195Z</time></trkpt><trkpt lat="43.3896768" lon="11.4293472"><ele>307.66666666666663</ele><time>2026-04-04T09:23:15.198Z</time></trkpt><trkpt lat="43.3896265" lon="11.4292676"><ele>308.3333333333333</ele><time>2026-04-04T09:23:16.195Z</time></trkpt><trkpt lat="43.3895727" lon="11.4291872"><ele>309.0</ele><time>2026-04-04T09:23:17.195Z</time></trkpt><trkpt lat="43.3895084" lon="11.4290987"><ele>309.6666666666667</ele><time>2026-04-04T09:23:18.197Z</time></trkpt><trkpt lat="43.3894595" lon="11.4290094"><ele>310.33333333333337</ele><time>2026-04-04T09:23:19.196Z</time></trkpt><trkpt lat="43.3894025" lon="11.4289179"><ele>311.0</ele><time>2026-04-04T09:23:20.196Z</time></trkpt><trkpt lat="43.3893523" lon="11.4288336"><ele>308.1666666666667</ele><time>2026-04-04T09:23:21.197Z</time></trkpt><trkpt lat="43.389293" lon="11.4287712"><ele>305.33333333333337</ele><time>2026-04-04T09:23:22.197Z</time></trkpt><trkpt lat="43.3892355" lon="11.4287265"><ele>302.5</ele><time>2026-04-04T09:23:23.196Z</time></trkpt><trkpt lat="43.3891214" lon="11.4286657"><ele>299.6666666666667</ele><time>2026-04-04T09:23:25.196Z</time></trkpt><trkpt lat="43.3890541" lon="11.428647"><ele>296.8333333333333</ele><time>2026-04-04T09:23:26.197Z</time></trkpt><trkpt lat="43.3889773" lon="11.428635"><ele>294.0</ele><time>2026-04-04T09:23:27.196Z</time></trkpt><trkpt lat="43.3888993" lon="11.4286437"><ele>295.1666666666667</ele><time>2026-04-04T09:23:28.196Z</time></trkpt><trkpt lat="43.3888195" lon="11.4286341"><ele>296.3333333333333</ele><time>2026-04-04T09:23:29.198Z</time></trkpt><trkpt lat="43.3887359" lon="11.4286303"><ele>297.5</ele><time>2026-04-04T09:23:30.197Z</time></trkpt><trkpt lat="43.3886592" lon="11.4286261"><ele>298.66666666666663</ele><time>2026-04-04T09:23:31.196Z</time></trkpt><trkpt lat="43.3885783" lon="11.4286178"><ele>299.8333333333333</ele><time>2026-04-04T09:23:32.198Z</time></trkpt><trkpt lat="43.3884981" lon="11.4286015"><ele>301.0</ele><time>2026-04-04T09:23:33.196Z</time></trkpt><trkpt lat="43.3884125" lon="11.428562"><ele>301.0</ele><time>2026-04-04T09:23:34.197Z</time></trkpt><trkpt lat="43.388336" lon="11.428517"><ele>301.0</ele><time>2026-04-04T09:23:35.197Z</time></trkpt><trkpt lat="43.3882529" lon="11.4284702"><ele>301.0</ele><time>2026-04-04T09:23:36.195Z</time></trkpt><trkpt lat="43.3881787" lon="11.4284114"><ele>301.0</ele><time>2026-04-04T09:23:37.195Z</time></trkpt><trkpt lat="43.3880995" lon="11.428381"><ele>301.0</ele><time>2026-04-04T09:23:38.196Z</time></trkpt><trkpt lat="43.388029" lon="11.4283496"><ele>301.0</ele><time>2026-04-04T09:23:39.196Z</time></trkpt><trkpt lat="43.3879619" lon="11.4283291"><ele>301.5</ele><time>2026-04-04T09:23:40.196Z</time></trkpt><trkpt lat="43.3878861" lon="11.4283374"><ele>302.0</ele><time>2026-04-04T09:23:41.195Z</time></trkpt><trkpt lat="43.387805" lon="11.4283548"><ele>302.5</ele><time>2026-04-04T09:23:42.196Z</time></trkpt><trkpt lat="43.3877147" lon="11.4283874"><ele>303.0</ele><time>2026-04-04T09:23:43.196Z</time></trkpt><trkpt lat="43.3876209" lon="11.4284173"><ele>303.5</ele><time>2026-04-04T09:23:44.197Z</time></trkpt><trkpt lat="43.3875432" lon="11.4284374"><ele>304.0</ele><time>2026-04-04T09:23:45.196Z</time></trkpt><trkpt lat="43.3874148" lon="11.4284759"><ele>304.0</ele><time>2026-04-04T09:23:47.197Z</time></trkpt><trkpt lat="43.3873489" lon="11.4284965"><ele>304.0</ele><time>2026-04-04T09:23:48.197Z</time></trkpt><trkpt lat="43.3872811" lon="11.4285353"><ele>304.0</ele><time>2026-04-04T09:23:49.197Z</time></trkpt><trkpt lat="43.3872113" lon="11.4285705"><ele>304.0</ele><time>2026-04-04T09:23:50.197Z</time></trkpt><trkpt lat="43.3871413" lon="11.4286008"><ele>304.0</ele><time>2026-04-04T09:23:51.197Z</time></trkpt><trkpt lat="43.3870787" lon="11.4286144"><ele>304.0</ele><time>2026-04-04T09:23:52.197Z</time></trkpt><trkpt lat="43.3869527" lon="11.4286505"><ele>302.8333333333333</ele><time>2026-04-04T09:23:54.195Z</time></trkpt><trkpt lat="43.3868763" lon="11.4286754"><ele>301.66666666666663</ele><time>2026-04-04T09:23:55.197Z</time></trkpt><trkpt lat="43.386797" lon="11.4287001"><ele>300.5</ele><time>2026-04-04T09:23:56.196Z</time></trkpt><trkpt lat="43.3867149" lon="11.4287258"><ele>299.3333333333333</ele><time>2026-04-04T09:23:57.195Z</time></trkpt><trkpt lat="43.3866217" lon="11.4287539"><ele>298.1666666666667</ele><time>2026-04-04T09:23:58.196Z</time></trkpt><trkpt lat="43.3865287" lon="11.4287801"><ele>297.0</ele><time>2026-04-04T09:23:59.195Z</time></trkpt><trkpt lat="43.3864374" lon="11.4288015"><ele>297.8333333333333</ele><time>2026-04-04T09:24:00.197Z</time></trkpt><trkpt lat="43.3863533" lon="11.4288299"><ele>298.6666666666667</ele><time>2026-04-04T09:24:01.196Z</time></trkpt><trkpt lat="43.3862757" lon="11.4288477"><ele>299.5</ele><time>2026-04-04T09:24:02.196Z</time></trkpt><trkpt lat="43.3861968" lon="11.4288716"><ele>300.33333333333337</ele><time>2026-04-04T09:24:03.196Z</time></trkpt><trkpt lat="43.3861166" lon="11.4288927"><ele>301.1666666666667</ele><time>2026-04-04T09:24:04.196Z</time></trkpt><trkpt lat="43.3860388" lon="11.4289129"><ele>302.0</ele><time>2026-04-04T09:24:05.195Z</time></trkpt><trkpt lat="43.3859534" lon="11.428936"><ele>300.5714285714286</ele><time>2026-04-04T09:24:06.196Z</time></trkpt><trkpt lat="43.3858736" lon="11.4289553"><ele>299.14285714285717</ele><time>2026-04-04T09:24:07.195Z</time></trkpt><trkpt lat="43.3857994" lon="11.4289769"><ele>297.7142857142857</ele><time>2026-04-04T09:24:08.195Z</time></trkpt><trkpt lat="43.385727" lon="11.4289974"><ele>296.28571428571433</ele><time>2026-04-04T09:24:09.196Z</time></trkpt><trkpt lat="43.3856569" lon="11.4290156"><ele>294.8571428571429</ele><time>2026-04-04T09:24:10.197Z</time></trkpt><trkpt lat="43.3855929" lon="11.4290391"><ele>293.42857142857144</ele><time>2026-04-04T09:24:11.196Z</time></trkpt><trkpt lat="43.3855274" lon="11.4290596"><ele>292.0</ele><time>2026-04-04T09:24:12.196Z</time></trkpt><trkpt lat="43.3854516" lon="11.429084"><ele>290.7142857142857</ele><time>2026-04-04T09:24:13.195Z</time></trkpt><trkpt lat="43.385383" lon="11.4291179"><ele>289.42857142857144</ele><time>2026-04-04T09:24:14.197Z</time></trkpt><trkpt lat="43.3853058" lon="11.4291416"><ele>288.14285714285717</ele><time>2026-04-04T09:24:15.196Z</time></trkpt><trkpt lat="43.3852315" lon="11.429166"><ele>286.8571428571429</ele><time>2026-04-04T09:24:16.195Z</time></trkpt><trkpt lat="43.3851647" lon="11.4291784"><ele>285.5714285714286</ele><time>2026-04-04T09:24:17.196Z</time></trkpt><trkpt lat="43.3851006" lon="11.4291968"><ele>284.2857142857143</ele><time>2026-04-04T09:24:18.195Z</time></trkpt><trkpt lat="43.3850386" lon="11.4292205"><ele>283.0</ele><time>2026-04-04T09:24:19.196Z</time></trkpt><trkpt lat="43.3849439" lon="11.4292923"><ele>283.0</ele><time>2026-04-04T09:24:21.195Z</time></trkpt><trkpt lat="43.3848933" lon="11.4294525"><ele>283.0</ele><time>2026-04-04T09:24:23.196Z</time></trkpt><trkpt lat="43.3848728" lon="11.4295391"><ele>283.0</ele><time>2026-04-04T09:24:24.195Z</time></trkpt><trkpt lat="43.3848649" lon="11.4296978"><ele>283.0</ele><time>2026-04-04T09:24:26.196Z</time></trkpt><trkpt lat="43.38485" lon="11.4298439"><ele>283.0</ele><time>2026-04-04T09:24:28.196Z</time></trkpt><trkpt lat="43.3848198" lon="11.4299987"><ele>283.2</ele><time>2026-04-04T09:24:30.197Z</time></trkpt><trkpt lat="43.3847975" lon="11.4300849"><ele>283.4</ele><time>2026-04-04T09:24:31.195Z</time></trkpt><trkpt lat="43.3847695" lon="11.4301672"><ele>283.59999999999997</ele><time>2026-04-04T09:24:32.196Z</time></trkpt><trkpt lat="43.3847396" lon="11.4303217"><ele>283.8</ele><time>2026-04-04T09:24:34.197Z</time></trkpt><trkpt lat="43.3847206" lon="11.4304736"><ele>284.0</ele><time>2026-04-04T09:24:36.195Z</time></trkpt><trkpt lat="43.3847185" lon="11.4306232"><ele>284.0</ele><time>2026-04-04T09:24:38.197Z</time></trkpt><trkpt lat="43.3847391" lon="11.430787"><ele>284.0</ele><time>2026-04-04T09:24:40.196Z</time></trkpt><trkpt lat="43.384755" lon="11.4308729"><ele>284.0</ele><time>2026-04-04T09:24:41.197Z</time></trkpt><trkpt lat="43.384777" lon="11.4309594"><ele>284.0</ele><time>2026-04-04T09:24:42.195Z</time></trkpt><trkpt lat="43.3847881" lon="11.4310572"><ele>284.0</ele><time>2026-04-04T09:24:43.195Z</time></trkpt><trkpt lat="43.3847796" lon="11.4311511"><ele>284.0</ele><time>2026-04-04T09:24:44.197Z</time></trkpt><trkpt lat="43.3847688" lon="11.4312406"><ele>283.8</ele><time>2026-04-04T09:24:45.196Z</time></trkpt><trkpt lat="43.3847074" lon="11.4313746"><ele>283.59999999999997</ele><time>2026-04-04T09:24:47.195Z</time></trkpt><trkpt lat="43.3846138" lon="11.4314494"><ele>283.4</ele><time>2026-04-04T09:24:49.196Z</time></trkpt><trkpt lat="43.3845097" lon="11.4314606"><ele>283.2</ele><time>2026-04-04T09:24:51.196Z</time></trkpt><trkpt lat="43.3844117" lon="11.4314129"><ele>283.0</ele><time>2026-04-04T09:24:53.197Z</time></trkpt><trkpt lat="43.3843307" lon="11.4313201"><ele>282.0</ele><time>2026-04-04T09:24:55.195Z</time></trkpt><trkpt lat="43.3842919" lon="11.4312471"><ele>281.0</ele><time>2026-04-04T09:24:56.196Z</time></trkpt><trkpt lat="43.3842472" lon="11.4311757"><ele>280.0</ele><time>2026-04-04T09:24:57.196Z</time></trkpt><trkpt lat="43.384177" lon="11.4310973"><ele>279.0</ele><time>2026-04-04T09:24:58.195Z</time></trkpt><trkpt lat="43.3840806" lon="11.430975"><ele>278.0</ele><time>2026-04-04T09:24:59.197Z</time></trkpt><trkpt lat="43.3839549" lon="11.4308212"><ele>277.25</ele><time>2026-04-04T09:25:00.196Z</time></trkpt><trkpt lat="43.3838334" lon="11.4306728"><ele>276.5</ele><time>2026-04-04T09:25:01.196Z</time></trkpt><trkpt lat="43.3837512" lon="11.4305399"><ele>275.75</ele><time>2026-04-04T09:25:02.196Z</time></trkpt><trkpt lat="43.3836771" lon="11.4304271"><ele>275.0</ele><time>2026-04-04T09:25:03.196Z</time></trkpt><trkpt lat="43.3836108" lon="11.4303355"><ele>275.0</ele><time>2026-04-04T09:25:04.196Z</time></trkpt><trkpt lat="43.3835535" lon="11.4302789"><ele>275.0</ele><time>2026-04-04T09:25:05.196Z</time></trkpt><trkpt lat="43.383474" lon="11.4302028"><ele>275.0</ele><time>2026-04-04T09:25:07.195Z</time></trkpt><trkpt lat="43.3834092" lon="11.4301905"><ele>275.0</ele><time>2026-04-04T09:25:09.195Z</time></trkpt><trkpt lat="43.3833393" lon="11.4302001"><ele>275.0</ele><time>2026-04-04T09:25:11.196Z</time></trkpt><trkpt lat="43.3832517" lon="11.4302353"><ele>275.0</ele><time>2026-04-04T09:25:13.197Z</time></trkpt><trkpt lat="43.3831675" lon="11.430306"><ele>275.0</ele><time>2026-04-04T09:25:15.196Z</time></trkpt><trkpt lat="43.3830976" lon="11.4304043"><ele>275.0</ele><time>2026-04-04T09:25:17.197Z</time></trkpt><trkpt lat="43.3830556" lon="11.4305374"><ele>275.0</ele><time>2026-04-04T09:25:19.195Z</time></trkpt><trkpt lat="43.3830435" lon="11.4306682"><ele>275.0</ele><time>2026-04-04T09:25:21.194Z</time></trkpt><trkpt lat="43.3830824" lon="11.4308004"><ele>275.0</ele><time>2026-04-04T09:25:23.196Z</time></trkpt><trkpt lat="43.3831752" lon="11.4308366"><ele>277.4</ele><time>2026-04-04T09:25:25.195Z</time></trkpt><trkpt lat="43.3832416" lon="11.4308452"><ele>279.8</ele><time>2026-04-04T09:25:26.196Z</time></trkpt><trkpt lat="43.3833488" lon="11.4308674"><ele>282.2</ele><time>2026-04-04T09:25:28.195Z</time></trkpt><trkpt lat="43.3834464" lon="11.4309073"><ele>284.6</ele><time>2026-04-04T09:25:30.195Z</time></trkpt><trkpt lat="43.3835026" lon="11.4310151"><ele>287.0</ele><time>2026-04-04T09:25:32.196Z</time></trkpt><trkpt lat="43.3835155" lon="11.4311461"><ele>287.0</ele><time>2026-04-04T09:25:34.195Z</time></trkpt><trkpt lat="43.3834686" lon="11.4312255"><ele>287.0</ele><time>2026-04-04T09:25:36.195Z</time></trkpt><trkpt lat="43.3834408" lon="11.4313148"><ele>287.0</ele><time>2026-04-04T09:28:46.195Z</time></trkpt><trkpt lat="43.38339" lon="11.4313782"><ele>287.0</ele><time>2026-04-04T09:28:48.193Z</time></trkpt><trkpt lat="43.3833275" lon="11.4314513"><ele>287.0</ele><time>2026-04-04T09:28:50.196Z</time></trkpt><trkpt lat="43.3832434" lon="11.4315556"><ele>287.0</ele><time>2026-04-04T09:28:52.194Z</time></trkpt><trkpt lat="43.3831537" lon="11.431631"><ele>289.0</ele><time>2026-04-04T09:28:54.195Z</time></trkpt><trkpt lat="43.3829939" lon="11.4316865"><ele>291.0</ele><time>2026-04-04T09:37:17.19Z</time></trkpt><trkpt lat="43.3829066" lon="11.4317236"><ele>293.0</ele><time>2026-04-04T09:37:19.19Z</time></trkpt><trkpt lat="43.3828205" lon="11.4317412"><ele>295.0</ele><time>2026-04-04T09:37:21.191Z</time></trkpt><trkpt lat="43.3826931" lon="11.4317723"><ele>295.0</ele><time>2026-04-04T09:37:23.19Z</time></trkpt><trkpt lat="43.3826239" lon="11.4317951"><ele>295.0</ele><time>2026-04-04T09:37:24.19Z</time></trkpt><trkpt lat="43.3825486" lon="11.4318126"><ele>295.0</ele><time>2026-04-04T09:37:25.191Z</time></trkpt><trkpt lat="43.3824707" lon="11.4318345"><ele>295.0</ele><time>2026-04-04T09:37:26.192Z</time></trkpt><trkpt lat="43.3823839" lon="11.4318687"><ele>295.0</ele><time>2026-04-04T09:37:27.191Z</time></trkpt><trkpt lat="43.3823081" lon="11.4318826"><ele>295.0</ele><time>2026-04-04T09:37:28.191Z</time></trkpt><trkpt lat="43.3822332" lon="11.431904"><ele>295.8333333333333</ele><time>2026-04-04T09:37:29.191Z</time></trkpt><trkpt lat="43.3821572" lon="11.4319331"><ele>296.66666666666663</ele><time>2026-04-04T09:37:30.191Z</time></trkpt><trkpt lat="43.3820873" lon="11.4319497"><ele>297.5</ele><time>2026-04-04T09:37:31.19Z</time></trkpt><trkpt lat="43.3820122" lon="11.4319783"><ele>298.3333333333333</ele><time>2026-04-04T09:37:32.191Z</time></trkpt><trkpt lat="43.3819442" lon="11.4319982"><ele>299.1666666666667</ele><time>2026-04-04T09:37:33.191Z</time></trkpt><trkpt lat="43.3818208" lon="11.432054"><ele>300.0</ele><time>2026-04-04T09:37:35.192Z</time></trkpt><trkpt lat="43.3817556" lon="11.4320684"><ele>300.0</ele><time>2026-04-04T09:37:36.191Z</time></trkpt><trkpt lat="43.3816406" lon="11.4320614"><ele>300.0</ele><time>2026-04-04T09:37:38.191Z</time></trkpt><trkpt lat="43.3815768" lon="11.4320311"><ele>300.0</ele><time>2026-04-04T09:37:39.192Z</time></trkpt><trkpt lat="43.3814732" lon="11.4319509"><ele>300.0</ele><time>2026-04-04T09:37:41.191Z</time></trkpt><trkpt lat="43.3814107" lon="11.4318212"><ele>300.0</ele><time>2026-04-04T09:37:43.19Z</time></trkpt><trkpt lat="43.3813892" lon="11.43168"><ele>302.3333333333333</ele><time>2026-04-04T09:37:45.191Z</time></trkpt><trkpt lat="43.3813423" lon="11.4315457"><ele>304.6666666666667</ele><time>2026-04-04T09:37:47.191Z</time></trkpt><trkpt lat="43.3812953" lon="11.4313924"><ele>307.0</ele><time>2026-04-04T09:37:49.191Z</time></trkpt><trkpt lat="43.3812652" lon="11.4313081"><ele>309.33333333333337</ele><time>2026-04-04T09:37:50.191Z</time></trkpt><trkpt lat="43.3812371" lon="11.4312145"><ele>311.6666666666667</ele><time>2026-04-04T09:37:51.192Z</time></trkpt><trkpt lat="43.3812117" lon="11.4311229"><ele>314.0</ele><time>2026-04-04T09:37:52.191Z</time></trkpt><trkpt lat="43.3811815" lon="11.4310287"><ele>314.0</ele><time>2026-04-04T09:37:53.19Z</time></trkpt><trkpt lat="43.3811529" lon="11.4309317"><ele>314.0</ele><time>2026-04-04T09:37:54.191Z</time></trkpt><trkpt lat="43.3811182" lon="11.4308426"><ele>314.0</ele><time>2026-04-04T09:37:55.192Z</time></trkpt><trkpt lat="43.3810564" lon="11.4307038"><ele>314.0</ele><time>2026-04-04T09:37:57.19Z</time></trkpt><trkpt lat="43.3810077" lon="11.4305762"><ele>314.0</ele><time>2026-04-04T09:37:59.192Z</time></trkpt><trkpt lat="43.3809375" lon="11.430481"><ele>314.0</ele><time>2026-04-04T09:38:01.189Z</time></trkpt><trkpt lat="43.3808662" lon="11.4304408"><ele>314.0</ele><time>2026-04-04T09:38:03.19Z</time></trkpt><trkpt lat="43.3807982" lon="11.4304357"><ele>314.0</ele><time>2026-04-04T09:38:05.192Z</time></trkpt><trkpt lat="43.380739" lon="11.4304894"><ele>314.0</ele><time>2026-04-04T09:38:07.19Z</time></trkpt><trkpt lat="43.3806797" lon="11.4306176"><ele>314.0</ele><time>2026-04-04T09:38:09.191Z</time></trkpt><trkpt lat="43.3805977" lon="11.4307623"><ele>314.0</ele><time>2026-04-04T09:38:11.192Z</time></trkpt><trkpt lat="43.3805526" lon="11.4308445"><ele>314.0</ele><time>2026-04-04T09:38:12.189Z</time></trkpt><trkpt lat="43.3805054" lon="11.4309323"><ele>314.0</ele><time>2026-04-04T09:38:13.189Z</time></trkpt><trkpt lat="43.3804538" lon="11.4310192"><ele>314.0</ele><time>2026-04-04T09:38:14.192Z</time></trkpt><trkpt lat="43.3803955" lon="11.4311088"><ele>314.0</ele><time>2026-04-04T09:38:15.19Z</time></trkpt><trkpt lat="43.3803416" lon="11.4311881"><ele>314.0</ele><time>2026-04-04T09:38:16.192Z</time></trkpt><trkpt lat="43.3802742" lon="11.4312748"><ele>315.33333333333337</ele><time>2026-04-04T09:38:17.19Z</time></trkpt><trkpt lat="43.3802133" lon="11.4313644"><ele>316.6666666666667</ele><time>2026-04-04T09:38:18.191Z</time></trkpt><trkpt lat="43.3801542" lon="11.4314556"><ele>318.0</ele><time>2026-04-04T09:38:19.191Z</time></trkpt><trkpt lat="43.3800986" lon="11.4315561"><ele>319.3333333333333</ele><time>2026-04-04T09:38:20.191Z</time></trkpt><trkpt lat="43.3800521" lon="11.4316534"><ele>320.66666666666663</ele><time>2026-04-04T09:38:21.192Z</time></trkpt><trkpt lat="43.3800257" lon="11.4317456"><ele>322.0</ele><time>2026-04-04T09:38:22.189Z</time></trkpt><trkpt lat="43.3800103" lon="11.4318397"><ele>322.0</ele><time>2026-04-04T09:38:23.19Z</time></trkpt><trkpt lat="43.3800061" lon="11.4319435"><ele>322.0</ele><time>2026-04-04T09:38:24.192Z</time></trkpt><trkpt lat="43.3800229" lon="11.4320557"><ele>322.0</ele><time>2026-04-04T09:38:25.189Z</time></trkpt><trkpt lat="43.3800369" lon="11.432162"><ele>322.0</ele><time>2026-04-04T09:38:26.192Z</time></trkpt><trkpt lat="43.3800513" lon="11.4322508"><ele>322.0</ele><time>2026-04-04T09:38:27.192Z</time></trkpt><trkpt lat="43.3800955" lon="11.4323941"><ele>322.0</ele><time>2026-04-04T09:38:29.192Z</time></trkpt><trkpt lat="43.3800764" lon="11.4324927"><ele>321.8333333333333</ele><time>2026-04-04T09:38:31.191Z</time></trkpt><trkpt lat="43.3800351" lon="11.4325717"><ele>321.66666666666663</ele><time>2026-04-04T09:38:33.191Z</time></trkpt><trkpt lat="43.3799555" lon="11.432596"><ele>321.5</ele><time>2026-04-04T09:38:35.192Z</time></trkpt><trkpt lat="43.3798496" lon="11.4325791"><ele>321.3333333333333</ele><time>2026-04-04T09:38:37.191Z</time></trkpt><trkpt lat="43.3797729" lon="11.4325488"><ele>321.1666666666667</ele><time>2026-04-04T09:38:38.19Z</time></trkpt><trkpt lat="43.3796909" lon="11.4325123"><ele>321.0</ele><time>2026-04-04T09:38:39.192Z</time></trkpt><trkpt lat="43.3796061" lon="11.4324753"><ele>320.40000000000003</ele><time>2026-04-04T09:38:40.19Z</time></trkpt><trkpt lat="43.3795123" lon="11.4324431"><ele>319.8</ele><time>2026-04-04T09:38:41.191Z</time></trkpt><trkpt lat="43.3794219" lon="11.4324079"><ele>319.20000000000005</ele><time>2026-04-04T09:38:42.191Z</time></trkpt><trkpt lat="43.3793255" lon="11.4323571"><ele>318.6</ele><time>2026-04-04T09:38:43.192Z</time></trkpt><trkpt lat="43.3792322" lon="11.4323116"><ele>318.0</ele><time>2026-04-04T09:38:44.191Z</time></trkpt><trkpt lat="43.379127" lon="11.4322628"><ele>318.0</ele><time>2026-04-04T09:38:45.191Z</time></trkpt><trkpt lat="43.3790317" lon="11.4322075"><ele>318.0</ele><time>2026-04-04T09:38:46.191Z</time></trkpt><trkpt lat="43.3789306" lon="11.432166"><ele>318.0</ele><time>2026-04-04T09:38:47.19Z</time></trkpt><trkpt lat="43.3788404" lon="11.4321201"><ele>318.0</ele><time>2026-04-04T09:38:48.19Z</time></trkpt><trkpt lat="43.3787381" lon="11.4320774"><ele>318.0</ele><time>2026-04-04T09:38:49.189Z</time></trkpt><trkpt lat="43.3786459" lon="11.4320244"><ele>317.8</ele><time>2026-04-04T09:38:50.19Z</time></trkpt><trkpt lat="43.3785459" lon="11.4319588"><ele>317.6</ele><time>2026-04-04T09:38:51.191Z</time></trkpt><trkpt lat="43.3784354" lon="11.4318904"><ele>317.4</ele><time>2026-04-04T09:38:52.189Z</time></trkpt><trkpt lat="43.3783436" lon="11.4318384"><ele>317.2</ele><time>2026-04-04T09:38:53.191Z</time></trkpt><trkpt lat="43.3782408" lon="11.431783"><ele>317.0</ele><time>2026-04-04T09:38:54.19Z</time></trkpt><trkpt lat="43.3781461" lon="11.4317276"><ele>317.0</ele><time>2026-04-04T09:38:55.189Z</time></trkpt><trkpt lat="43.3780325" lon="11.4316879"><ele>317.0</ele><time>2026-04-04T09:38:56.19Z</time></trkpt><trkpt lat="43.377929" lon="11.4316405"><ele>317.0</ele><time>2026-04-04T09:38:57.19Z</time></trkpt><trkpt lat="43.3778231" lon="11.4315858"><ele>317.0</ele><time>2026-04-04T09:38:58.19Z</time></trkpt><trkpt lat="43.3777214" lon="11.4315306"><ele>317.0</ele><time>2026-04-04T09:38:59.19Z</time></trkpt><trkpt lat="43.3776274" lon="11.4314751"><ele>316.8</ele><time>2026-04-04T09:39:00.191Z</time></trkpt><trkpt lat="43.3775195" lon="11.4314227"><ele>316.6</ele><time>2026-04-04T09:39:01.19Z</time></trkpt><trkpt lat="43.3774124" lon="11.4313891"><ele>316.40000000000003</ele><time>2026-04-04T09:39:02.191Z</time></trkpt><trkpt lat="43.3773162" lon="11.4313593"><ele>316.2</ele><time>2026-04-04T09:39:03.19Z</time></trkpt><trkpt lat="43.3772168" lon="11.4313399"><ele>316.0</ele><time>2026-04-04T09:39:04.19Z</time></trkpt><trkpt lat="43.3771107" lon="11.4313244"><ele>316.0</ele><time>2026-04-04T09:39:05.19Z</time></trkpt><trkpt lat="43.3770027" lon="11.4313134"><ele>316.0</ele><time>2026-04-04T09:39:06.189Z</time></trkpt><trkpt lat="43.3768899" lon="11.4313056"><ele>316.0</ele><time>2026-04-04T09:39:07.191Z</time></trkpt><trkpt lat="43.3767706" lon="11.4312964"><ele>316.0</ele><time>2026-04-04T09:39:08.19Z</time></trkpt><trkpt lat="43.3766681" lon="11.431274"><ele>316.0</ele><time>2026-04-04T09:39:09.19Z</time></trkpt><trkpt lat="43.376564" lon="11.4312593"><ele>315.40000000000003</ele><time>2026-04-04T09:39:10.19Z</time></trkpt><trkpt lat="43.3764636" lon="11.4312517"><ele>314.8</ele><time>2026-04-04T09:39:11.189Z</time></trkpt><trkpt lat="43.3763497" lon="11.4312305"><ele>314.20000000000005</ele><time>2026-04-04T09:39:12.191Z</time></trkpt><trkpt lat="43.3762428" lon="11.4312048"><ele>313.6</ele><time>2026-04-04T09:39:13.192Z</time></trkpt><trkpt lat="43.3761214" lon="11.4311877"><ele>313.0</ele><time>2026-04-04T09:39:14.189Z</time></trkpt><trkpt lat="43.3760007" lon="11.4311654"><ele>313.0</ele><time>2026-04-04T09:39:15.191Z</time></trkpt><trkpt lat="43.3758784" lon="11.431117"><ele>313.0</ele><time>2026-04-04T09:39:16.19Z</time></trkpt><trkpt lat="43.3757551" lon="11.4310413"><ele>313.0</ele><time>2026-04-04T09:39:17.19Z</time></trkpt><trkpt lat="43.375635" lon="11.4309673"><ele>313.0</ele><time>2026-04-04T09:39:18.19Z</time></trkpt><trkpt lat="43.3755092" lon="11.4308946"><ele>310.75</ele><time>2026-04-04T09:39:19.189Z</time></trkpt><trkpt lat="43.375394" lon="11.4307947"><ele>308.5</ele><time>2026-04-04T09:39:20.191Z</time></trkpt><trkpt lat="43.375268" lon="11.4306992"><ele>306.25</ele><time>2026-04-04T09:39:21.189Z</time></trkpt><trkpt lat="43.3751645" lon="11.4306193"><ele>304.0</ele><time>2026-04-04T09:39:22.191Z</time></trkpt><trkpt lat="43.3750543" lon="11.4305517"><ele>304.0</ele><time>2026-04-04T09:39:23.191Z</time></trkpt><trkpt lat="43.3749454" lon="11.4304925"><ele>304.0</ele><time>2026-04-04T09:39:24.19Z</time></trkpt><trkpt lat="43.3748306" lon="11.4304341"><ele>304.0</ele><time>2026-04-04T09:39:25.19Z</time></trkpt><trkpt lat="43.3747131" lon="11.4303884"><ele>304.0</ele><time>2026-04-04T09:39:26.189Z</time></trkpt><trkpt lat="43.374593" lon="11.4303525"><ele>304.25</ele><time>2026-04-04T09:39:27.19Z</time></trkpt><trkpt lat="43.3744731" lon="11.4303191"><ele>304.5</ele><time>2026-04-04T09:39:28.191Z</time></trkpt><trkpt lat="43.3743554" lon="11.4302861"><ele>304.75</ele><time>2026-04-04T09:39:29.19Z</time></trkpt><trkpt lat="43.3742326" lon="11.4302515"><ele>305.0</ele><time>2026-04-04T09:39:30.19Z</time></trkpt><trkpt lat="43.3741138" lon="11.4301951"><ele>305.0</ele><time>2026-04-04T09:39:31.19Z</time></trkpt><trkpt lat="43.3740066" lon="11.4301549"><ele>305.0</ele><time>2026-04-04T09:39:32.19Z</time></trkpt><trkpt lat="43.3738819" lon="11.4301088"><ele>305.0</ele><time>2026-04-04T09:39:33.19Z</time></trkpt><trkpt lat="43.373763" lon="11.4300568"><ele>305.0</ele><time>2026-04-04T09:39:34.19Z</time></trkpt><trkpt lat="43.3736446" lon="11.4300029"><ele>304.75</ele><time>2026-04-04T09:39:35.189Z</time></trkpt><trkpt lat="43.3735315" lon="11.4299549"><ele>304.5</ele><time>2026-04-04T09:39:36.191Z</time></trkpt><trkpt lat="43.3733881" lon="11.4298672"><ele>304.25</ele><time>2026-04-04T09:39:37.19Z</time></trkpt><trkpt lat="43.3732539" lon="11.4297758"><ele>304.0</ele><time>2026-04-04T09:39:38.19Z</time></trkpt><trkpt lat="43.3731044" lon="11.429688"><ele>301.66666666666663</ele><time>2026-04-04T09:39:39.191Z</time></trkpt><trkpt lat="43.3729669" lon="11.4296056"><ele>299.3333333333333</ele><time>2026-04-04T09:39:40.189Z</time></trkpt><trkpt lat="43.3728074" lon="11.4295368"><ele>297.0</ele><time>2026-04-04T09:39:41.191Z</time></trkpt><trkpt lat="43.3726649" lon="11.429458"><ele>297.0</ele><time>2026-04-04T09:39:42.191Z</time></trkpt><trkpt lat="43.3725271" lon="11.4293717"><ele>297.0</ele><time>2026-04-04T09:39:43.191Z</time></trkpt><trkpt lat="43.3723806" lon="11.4292934"><ele>297.0</ele><time>2026-04-04T09:39:44.191Z</time></trkpt><trkpt lat="43.3722336" lon="11.4292135"><ele>295.6666666666667</ele><time>2026-04-04T09:39:45.19Z</time></trkpt><trkpt lat="43.3720889" lon="11.4291377"><ele>294.33333333333337</ele><time>2026-04-04T09:39:46.19Z</time></trkpt><trkpt lat="43.3719567" lon="11.4290468"><ele>293.0</ele><time>2026-04-04T09:39:47.19Z</time></trkpt><trkpt lat="43.3718129" lon="11.428964"><ele>293.0</ele><time>2026-04-04T09:39:48.19Z</time></trkpt><trkpt lat="43.3716757" lon="11.4288824"><ele>293.0</ele><time>2026-04-04T09:39:49.19Z</time></trkpt><trkpt lat="43.3715339" lon="11.4288131"><ele>293.0</ele><time>2026-04-04T09:39:50.189Z</time></trkpt><trkpt lat="43.3713866" lon="11.4287451"><ele>293.33333333333337</ele><time>2026-04-04T09:39:51.19Z</time></trkpt><trkpt lat="43.3712233" lon="11.428688"><ele>293.6666666666667</ele><time>2026-04-04T09:39:52.19Z</time></trkpt><trkpt lat="43.3710694" lon="11.4286414"><ele>294.0</ele><time>2026-04-04T09:39:53.189Z</time></trkpt><trkpt lat="43.3709097" lon="11.4286055"><ele>294.0</ele><time>2026-04-04T09:39:54.189Z</time></trkpt><trkpt lat="43.3707515" lon="11.4285797"><ele>294.0</ele><time>2026-04-04T09:39:55.191Z</time></trkpt><trkpt lat="43.3705936" lon="11.4285565"><ele>294.0</ele><time>2026-04-04T09:39:56.189Z</time></trkpt><trkpt lat="43.3704325" lon="11.4285317"><ele>291.6666666666667</ele><time>2026-04-04T09:39:57.19Z</time></trkpt><trkpt lat="43.3702671" lon="11.4285196"><ele>289.33333333333337</ele><time>2026-04-04T09:39:58.189Z</time></trkpt><trkpt lat="43.370108" lon="11.4285029"><ele>287.0</ele><time>2026-04-04T09:39:59.19Z</time></trkpt><trkpt lat="43.3699564" lon="11.4284904"><ele>287.0</ele><time>2026-04-04T09:40:00.189Z</time></trkpt><trkpt lat="43.3697988" lon="11.4284728"><ele>287.0</ele><time>2026-04-04T09:40:01.188Z</time></trkpt><trkpt lat="43.3696389" lon="11.4284568"><ele>287.0</ele><time>2026-04-04T09:40:02.189Z</time></trkpt><trkpt lat="43.3694793" lon="11.4284369"><ele>285.75</ele><time>2026-04-04T09:40:03.189Z</time></trkpt><trkpt lat="43.3693169" lon="11.428415"><ele>284.5</ele><time>2026-04-04T09:40:04.191Z</time></trkpt><trkpt lat="43.3691683" lon="11.4284158"><ele>283.25</ele><time>2026-04-04T09:40:05.189Z</time></trkpt><trkpt lat="43.3690323" lon="11.4284177"><ele>282.0</ele><time>2026-04-04T09:40:06.19Z</time></trkpt><trkpt lat="43.3688936" lon="11.4283905"><ele>282.5</ele><time>2026-04-04T09:40:07.191Z</time></trkpt><trkpt lat="43.36876" lon="11.4283614"><ele>283.0</ele><time>2026-04-04T09:40:08.19Z</time></trkpt><trkpt lat="43.3686312" lon="11.428301"><ele>283.5</ele><time>2026-04-04T09:40:09.19Z</time></trkpt><trkpt lat="43.3685154" lon="11.4282317"><ele>284.0</ele><time>2026-04-04T09:40:10.191Z</time></trkpt><trkpt lat="43.3684043" lon="11.4281446"><ele>284.0</ele><time>2026-04-04T09:40:11.19Z</time></trkpt><trkpt lat="43.3682998" lon="11.4280292"><ele>284.0</ele><time>2026-04-04T09:40:12.19Z</time></trkpt><trkpt lat="43.3682087" lon="11.4278929"><ele>284.0</ele><time>2026-04-04T09:40:13.189Z</time></trkpt><trkpt lat="43.3681292" lon="11.4277408"><ele>284.0</ele><time>2026-04-04T09:40:14.191Z</time></trkpt><trkpt lat="43.3680759" lon="11.4275629"><ele>284.0</ele><time>2026-04-04T09:40:15.19Z</time></trkpt><trkpt lat="43.3680237" lon="11.4273795"><ele>284.0</ele><time>2026-04-04T09:40:16.189Z</time></trkpt><trkpt lat="43.3679711" lon="11.4272024"><ele>284.0</ele><time>2026-04-04T09:40:17.19Z</time></trkpt><trkpt lat="43.367906" lon="11.4270449"><ele>284.0</ele><time>2026-04-04T09:40:18.189Z</time></trkpt><trkpt lat="43.3678336" lon="11.4269"><ele>284.0</ele><time>2026-04-04T09:40:19.189Z</time></trkpt><trkpt lat="43.3677357" lon="11.4267967"><ele>284.0</ele><time>2026-04-04T09:40:20.19Z</time></trkpt><trkpt lat="43.367627" lon="11.4267303"><ele>284.0</ele><time>2026-04-04T09:40:21.19Z</time></trkpt><trkpt lat="43.3675078" lon="11.4266751"><ele>284.0</ele><time>2026-04-04T09:40:22.191Z</time></trkpt><trkpt lat="43.3673842" lon="11.4266201"><ele>284.0</ele><time>2026-04-04T09:40:23.19Z</time></trkpt><trkpt lat="43.36726" lon="11.4265711"><ele>284.0</ele><time>2026-04-04T09:40:24.19Z</time></trkpt><trkpt lat="43.3671334" lon="11.4265152"><ele>284.0</ele><time>2026-04-04T09:40:25.189Z</time></trkpt><trkpt lat="43.3670005" lon="11.4264519"><ele>284.0</ele><time>2026-04-04T09:40:26.19Z</time></trkpt><trkpt lat="43.3668825" lon="11.4264013"><ele>285.25</ele><time>2026-04-04T09:40:27.189Z</time></trkpt><trkpt lat="43.3667572" lon="11.4263552"><ele>286.5</ele><time>2026-04-04T09:40:28.191Z</time></trkpt><trkpt lat="43.366639" lon="11.4263207"><ele>287.75</ele><time>2026-04-04T09:40:29.188Z</time></trkpt><trkpt lat="43.3665096" lon="11.4262998"><ele>289.0</ele><time>2026-04-04T09:40:30.19Z</time></trkpt><trkpt lat="43.3663812" lon="11.4263077"><ele>289.25</ele><time>2026-04-04T09:40:31.188Z</time></trkpt><trkpt lat="43.3662425" lon="11.4263189"><ele>289.5</ele><time>2026-04-04T09:40:32.191Z</time></trkpt><trkpt lat="43.3661129" lon="11.4263348"><ele>289.75</ele><time>2026-04-04T09:40:33.189Z</time></trkpt><trkpt lat="43.3659905" lon="11.4263219"><ele>290.0</ele><time>2026-04-04T09:40:34.19Z</time></trkpt><trkpt lat="43.3658845" lon="11.4262761"><ele>290.0</ele><time>2026-04-04T09:40:35.19Z</time></trkpt><trkpt lat="43.365789" lon="11.4261897"><ele>290.0</ele><time>2026-04-04T09:40:36.188Z</time></trkpt><trkpt lat="43.3657095" lon="11.4260937"><ele>290.0</ele><time>2026-04-04T09:40:37.19Z</time></trkpt><trkpt lat="43.3656324" lon="11.4259766"><ele>290.0</ele><time>2026-04-04T09:40:38.189Z</time></trkpt><trkpt lat="43.3655497" lon="11.4258468"><ele>288.0</ele><time>2026-04-04T09:40:39.189Z</time></trkpt><trkpt lat="43.3654666" lon="11.4257056"><ele>286.0</ele><time>2026-04-04T09:40:40.19Z</time></trkpt><trkpt lat="43.3653771" lon="11.4255667"><ele>284.0</ele><time>2026-04-04T09:40:41.188Z</time></trkpt><trkpt lat="43.3652831" lon="11.4254121"><ele>282.0</ele><time>2026-04-04T09:40:42.191Z</time></trkpt><trkpt lat="43.3651916" lon="11.4252618"><ele>281.75</ele><time>2026-04-04T09:40:43.191Z</time></trkpt><trkpt lat="43.3650939" lon="11.4251153"><ele>281.5</ele><time>2026-04-04T09:40:44.19Z</time></trkpt><trkpt lat="43.3650053" lon="11.4249681"><ele>281.25</ele><time>2026-04-04T09:40:45.19Z</time></trkpt><trkpt lat="43.3649141" lon="11.4248276"><ele>281.0</ele><time>2026-04-04T09:40:46.191Z</time></trkpt><trkpt lat="43.3648274" lon="11.4246731"><ele>280.5</ele><time>2026-04-04T09:40:47.19Z</time></trkpt><trkpt lat="43.3647551" lon="11.4245065"><ele>280.0</ele><time>2026-04-04T09:40:48.19Z</time></trkpt><trkpt lat="43.3646921" lon="11.4243628"><ele>279.5</ele><time>2026-04-04T09:40:49.188Z</time></trkpt><trkpt lat="43.3646383" lon="11.4242116"><ele>279.0</ele><time>2026-04-04T09:40:50.188Z</time></trkpt><trkpt lat="43.3646009" lon="11.4240447"><ele>278.75</ele><time>2026-04-04T09:40:51.19Z</time></trkpt><trkpt lat="43.3645742" lon="11.423859"><ele>278.5</ele><time>2026-04-04T09:40:52.189Z</time></trkpt><trkpt lat="43.3645517" lon="11.4236714"><ele>278.25</ele><time>2026-04-04T09:40:53.191Z</time></trkpt><trkpt lat="43.3645306" lon="11.4234801"><ele>278.0</ele><time>2026-04-04T09:40:54.189Z</time></trkpt><trkpt lat="43.3645155" lon="11.4232843"><ele>276.25</ele><time>2026-04-04T09:40:55.191Z</time></trkpt><trkpt lat="43.3645006" lon="11.4230983"><ele>274.5</ele><time>2026-04-04T09:40:56.188Z</time></trkpt><trkpt lat="43.3644953" lon="11.4228905"><ele>272.75</ele><time>2026-04-04T09:40:57.189Z</time></trkpt><trkpt lat="43.3644821" lon="11.422693"><ele>271.0</ele><time>2026-04-04T09:40:58.188Z</time></trkpt><trkpt lat="43.364461" lon="11.4224971"><ele>269.25</ele><time>2026-04-04T09:40:59.19Z</time></trkpt><trkpt lat="43.3644573" lon="11.422298"><ele>267.5</ele><time>2026-04-04T09:41:00.189Z</time></trkpt><trkpt lat="43.3644402" lon="11.4220939"><ele>265.75</ele><time>2026-04-04T09:41:01.191Z</time></trkpt><trkpt lat="43.364437" lon="11.4219073"><ele>264.0</ele><time>2026-04-04T09:41:02.189Z</time></trkpt><trkpt lat="43.3644333" lon="11.4217042"><ele>261.6666666666667</ele><time>2026-04-04T09:41:03.19Z</time></trkpt><trkpt lat="43.364414" lon="11.4214936"><ele>259.33333333333337</ele><time>2026-04-04T09:41:04.19Z</time></trkpt><trkpt lat="43.3643814" lon="11.4212975"><ele>257.0</ele><time>2026-04-04T09:41:05.19Z</time></trkpt><trkpt lat="43.3643325" lon="11.4210966"><ele>256.75</ele><time>2026-04-04T09:41:06.189Z</time></trkpt><trkpt lat="43.3642821" lon="11.4209046"><ele>256.5</ele><time>2026-04-04T09:41:07.189Z</time></trkpt><trkpt lat="43.3642322" lon="11.4207317"><ele>256.25</ele><time>2026-04-04T09:41:08.188Z</time></trkpt><trkpt lat="43.3641846" lon="11.42057"><ele>256.0</ele><time>2026-04-04T09:41:09.19Z</time></trkpt><trkpt lat="43.3641393" lon="11.4204145"><ele>255.5</ele><time>2026-04-04T09:41:10.19Z</time></trkpt><trkpt lat="43.3641108" lon="11.4202494"><ele>255.0</ele><time>2026-04-04T09:41:11.189Z</time></trkpt><trkpt lat="43.3640945" lon="11.4200713"><ele>254.5</ele><time>2026-04-04T09:41:12.19Z</time></trkpt><trkpt lat="43.3640747" lon="11.4198979"><ele>254.0</ele><time>2026-04-04T09:41:13.19Z</time></trkpt><trkpt lat="43.3640618" lon="11.4197214"><ele>253.0</ele><time>2026-04-04T09:41:14.188Z</time></trkpt><trkpt lat="43.3640526" lon="11.4195358"><ele>252.0</ele><time>2026-04-04T09:41:15.189Z</time></trkpt><trkpt lat="43.3640538" lon="11.4193509"><ele>251.0</ele><time>2026-04-04T09:41:16.189Z</time></trkpt><trkpt lat="43.3640477" lon="11.4191737"><ele>250.0</ele><time>2026-04-04T09:41:17.19Z</time></trkpt><trkpt lat="43.3640478" lon="11.4190098"><ele>249.99999999999997</ele><time>2026-04-04T09:41:18.189Z</time></trkpt><trkpt lat="43.3640496" lon="11.4188768"><ele>250.0</ele><time>2026-04-04T09:41:19.188Z</time></trkpt><trkpt lat="43.3640558" lon="11.4187663"><ele>250.0</ele><time>2026-04-04T09:41:20.188Z</time></trkpt><trkpt lat="43.3640801" lon="11.418638"><ele>250.0</ele><time>2026-04-04T09:41:22.189Z</time></trkpt><trkpt lat="43.3641013" lon="11.4185388"><ele>249.99999999999997</ele><time>2026-04-04T09:41:25.188Z</time></trkpt><trkpt lat="43.3640629" lon="11.4184394"><ele>250.0</ele><time>2026-04-04T09:41:46.189Z</time></trkpt><trkpt lat="43.3639811" lon="11.4184259"><ele>248.99999999999997</ele><time>2026-04-04T09:41:48.189Z</time></trkpt><trkpt lat="43.3639182" lon="11.4184203"><ele>248.0</ele><time>2026-04-04T09:41:49.189Z</time></trkpt><trkpt lat="43.3638336" lon="11.4184274"><ele>247.0</ele><time>2026-04-04T09:41:50.189Z</time></trkpt><trkpt lat="43.3637327" lon="11.4184297"><ele>246.0</ele><time>2026-04-04T09:41:51.19Z</time></trkpt><trkpt lat="43.3636316" lon="11.4184355"><ele>244.99999999999997</ele><time>2026-04-04T09:41:52.188Z</time></trkpt><trkpt lat="43.3635574" lon="11.4184383"><ele>244.0</ele><time>2026-04-04T09:41:53.19Z</time></trkpt><trkpt lat="43.3634554" lon="11.4184383"><ele>243.0</ele><time>2026-04-04T09:41:54.188Z</time></trkpt><trkpt lat="43.3633086" lon="11.4184294"><ele>242.0</ele><time>2026-04-04T09:41:55.188Z</time></trkpt><trkpt lat="43.3631671" lon="11.4184253"><ele>241.0</ele><time>2026-04-04T09:41:56.19Z</time></trkpt><trkpt lat="43.3630327" lon="11.4183911"><ele>240.0</ele><time>2026-04-04T09:41:57.189Z</time></trkpt><trkpt lat="43.3629043" lon="11.4183577"><ele>239.25</ele><time>2026-04-04T09:41:58.188Z</time></trkpt><trkpt lat="43.3627484" lon="11.4183075"><ele>238.5</ele><time>2026-04-04T09:41:59.19Z</time></trkpt><trkpt lat="43.3626084" lon="11.4182652"><ele>237.75</ele><time>2026-04-04T09:42:00.189Z</time></trkpt><trkpt lat="43.3624821" lon="11.4182411"><ele>237.0</ele><time>2026-04-04T09:42:01.19Z</time></trkpt><trkpt lat="43.3623634" lon="11.4182542"><ele>237.0</ele><time>2026-04-04T09:42:02.189Z</time></trkpt><trkpt lat="43.362245" lon="11.4183048"><ele>237.0</ele><time>2026-04-04T09:42:03.189Z</time></trkpt><trkpt lat="43.3621464" lon="11.4183738"><ele>237.0</ele><time>2026-04-04T09:42:04.188Z</time></trkpt><trkpt lat="43.3620447" lon="11.4184832"><ele>237.0</ele><time>2026-04-04T09:42:05.19Z</time></trkpt><trkpt lat="43.3619529" lon="11.418623"><ele>237.25</ele><time>2026-04-04T09:42:06.188Z</time></trkpt><trkpt lat="43.3618546" lon="11.4187592"><ele>237.5</ele><time>2026-04-04T09:42:07.189Z</time></trkpt><trkpt lat="43.3617663" lon="11.4188902"><ele>237.75</ele><time>2026-04-04T09:42:08.19Z</time></trkpt><trkpt lat="43.3616621" lon="11.4190148"><ele>238.0</ele><time>2026-04-04T09:42:09.189Z</time></trkpt><trkpt lat="43.3615419" lon="11.4191056"><ele>238.0</ele><time>2026-04-04T09:42:10.19Z</time></trkpt><trkpt lat="43.3614077" lon="11.4191643"><ele>238.0</ele><time>2026-04-04T09:42:11.19Z</time></trkpt><trkpt lat="43.3612723" lon="11.4192318"><ele>238.0</ele><time>2026-04-04T09:42:12.189Z</time></trkpt><trkpt lat="43.3611243" lon="11.419296"><ele>238.0</ele><time>2026-04-04T09:42:13.189Z</time></trkpt><trkpt lat="43.3609893" lon="11.4193369"><ele>236.5</ele><time>2026-04-04T09:42:14.19Z</time></trkpt><trkpt lat="43.3608446" lon="11.4193894"><ele>235.0</ele><time>2026-04-04T09:42:15.189Z</time></trkpt><trkpt lat="43.3607006" lon="11.4194379"><ele>233.5</ele><time>2026-04-04T09:42:16.188Z</time></trkpt><trkpt lat="43.360561" lon="11.4194899"><ele>232.0</ele><time>2026-04-04T09:42:17.189Z</time></trkpt><trkpt lat="43.3604217" lon="11.4195422"><ele>232.0</ele><time>2026-04-04T09:42:18.188Z</time></trkpt><trkpt lat="43.3602784" lon="11.4195995"><ele>232.0</ele><time>2026-04-04T09:42:19.189Z</time></trkpt><trkpt lat="43.3601143" lon="11.4196473"><ele>232.0</ele><time>2026-04-04T09:42:20.189Z</time></trkpt><trkpt lat="43.3599587" lon="11.4196966"><ele>232.0</ele><time>2026-04-04T09:42:21.189Z</time></trkpt><trkpt lat="43.3598024" lon="11.4197536"><ele>232.0</ele><time>2026-04-04T09:42:22.189Z</time></trkpt><trkpt lat="43.3596468" lon="11.419815"><ele>232.0</ele><time>2026-04-04T09:42:23.19Z</time></trkpt><trkpt lat="43.3595041" lon="11.4198675"><ele>231.0</ele><time>2026-04-04T09:42:24.189Z</time></trkpt><trkpt lat="43.3593646" lon="11.4199099"><ele>230.0</ele><time>2026-04-04T09:42:25.189Z</time></trkpt><trkpt lat="43.3592339" lon="11.4199259"><ele>229.0</ele><time>2026-04-04T09:42:26.189Z</time></trkpt><trkpt lat="43.3591084" lon="11.4199358"><ele>228.0</ele><time>2026-04-04T09:42:27.188Z</time></trkpt><trkpt lat="43.3589896" lon="11.4199285"><ele>228.0</ele><time>2026-04-04T09:42:28.189Z</time></trkpt><trkpt lat="43.3588989" lon="11.4197194"><ele>228.0</ele><time>2026-04-04T09:42:29.189Z</time></trkpt><trkpt lat="43.3588007" lon="11.419569"><ele>228.0</ele><time>2026-04-04T09:42:30.19Z</time></trkpt><trkpt lat="43.358698" lon="11.4194135"><ele>226.0</ele><time>2026-04-04T09:42:31.189Z</time></trkpt><trkpt lat="43.3585914" lon="11.4192531"><ele>224.0</ele><time>2026-04-04T09:42:32.189Z</time></trkpt><trkpt lat="43.3584851" lon="11.4190833"><ele>222.0</ele><time>2026-04-04T09:42:33.19Z</time></trkpt><trkpt lat="43.3583675" lon="11.4189296"><ele>221.66666666666669</ele><time>2026-04-04T09:42:34.19Z</time></trkpt><trkpt lat="43.3582663" lon="11.4187587"><ele>221.33333333333334</ele><time>2026-04-04T09:42:35.188Z</time></trkpt><trkpt lat="43.3581595" lon="11.4185961"><ele>221.0</ele><time>2026-04-04T09:42:36.189Z</time></trkpt><trkpt lat="43.3580606" lon="11.4184273"><ele>220.66666666666669</ele><time>2026-04-04T09:42:37.189Z</time></trkpt><trkpt lat="43.357954" lon="11.4182753"><ele>220.33333333333331</ele><time>2026-04-04T09:42:38.188Z</time></trkpt><trkpt lat="43.3578484" lon="11.4181255"><ele>220.0</ele><time>2026-04-04T09:42:39.189Z</time></trkpt><trkpt lat="43.3577492" lon="11.4179772"><ele>220.0</ele><time>2026-04-04T09:42:40.189Z</time></trkpt><trkpt lat="43.3576521" lon="11.4178296"><ele>220.0</ele><time>2026-04-04T09:42:41.19Z</time></trkpt><trkpt lat="43.3575499" lon="11.4176803"><ele>220.0</ele><time>2026-04-04T09:42:42.189Z</time></trkpt><trkpt lat="43.357451" lon="11.4175251"><ele>220.0</ele><time>2026-04-04T09:42:43.188Z</time></trkpt><trkpt lat="43.3573648" lon="11.4173799"><ele>220.0</ele><time>2026-04-04T09:42:44.189Z</time></trkpt><trkpt lat="43.3572862" lon="11.4172422"><ele>220.0</ele><time>2026-04-04T09:42:45.187Z</time></trkpt><trkpt lat="43.3572132" lon="11.4171098"><ele>220.0</ele><time>2026-04-04T09:42:46.19Z</time></trkpt><trkpt lat="43.3571346" lon="11.4169883"><ele>220.0</ele><time>2026-04-04T09:42:47.189Z</time></trkpt><trkpt lat="43.3570623" lon="11.4168694"><ele>219.75</ele><time>2026-04-04T09:42:48.189Z</time></trkpt><trkpt lat="43.356988" lon="11.4167523"><ele>219.5</ele><time>2026-04-04T09:42:49.19Z</time></trkpt><trkpt lat="43.3569158" lon="11.4166407"><ele>219.25</ele><time>2026-04-04T09:42:50.189Z</time></trkpt><trkpt lat="43.3568381" lon="11.4165307"><ele>219.0</ele><time>2026-04-04T09:42:51.19Z</time></trkpt><trkpt lat="43.356764" lon="11.4163853"><ele>219.39999999999998</ele><time>2026-04-04T09:42:52.189Z</time></trkpt><trkpt lat="43.3566892" lon="11.4162744"><ele>219.79999999999998</ele><time>2026-04-04T09:42:53.19Z</time></trkpt><trkpt lat="43.3566229" lon="11.4161679"><ele>220.20000000000002</ele><time>2026-04-04T09:42:54.189Z</time></trkpt><trkpt lat="43.3565643" lon="11.4160528"><ele>220.60000000000002</ele><time>2026-04-04T09:42:55.19Z</time></trkpt><trkpt lat="43.3565064" lon="11.4159583"><ele>221.0</ele><time>2026-04-04T09:42:56.189Z</time></trkpt><trkpt lat="43.3564507" lon="11.4158751"><ele>221.00000000000003</ele><time>2026-04-04T09:42:57.189Z</time></trkpt><trkpt lat="43.3563835" lon="11.4158142"><ele>221.0</ele><time>2026-04-04T09:42:58.189Z</time></trkpt><trkpt lat="43.3563028" lon="11.4157705"><ele>221.0</ele><time>2026-04-04T09:42:59.189Z</time></trkpt><trkpt lat="43.3562161" lon="11.4157668"><ele>221.0</ele><time>2026-04-04T09:43:00.189Z</time></trkpt><trkpt lat="43.3561261" lon="11.4157923"><ele>221.00000000000003</ele><time>2026-04-04T09:43:01.188Z</time></trkpt><trkpt lat="43.3560292" lon="11.4158395"><ele>221.0</ele><time>2026-04-04T09:43:02.189Z</time></trkpt><trkpt lat="43.3559342" lon="11.4158957"><ele>221.25</ele><time>2026-04-04T09:43:03.188Z</time></trkpt><trkpt lat="43.3558349" lon="11.4159638"><ele>221.5</ele><time>2026-04-04T09:43:04.187Z</time></trkpt><trkpt lat="43.3557295" lon="11.416031"><ele>221.75</ele><time>2026-04-04T09:43:05.189Z</time></trkpt><trkpt lat="43.3556192" lon="11.4160993"><ele>222.0</ele><time>2026-04-04T09:43:06.189Z</time></trkpt><trkpt lat="43.3555068" lon="11.4161607"><ele>223.25</ele><time>2026-04-04T09:43:07.189Z</time></trkpt><trkpt lat="43.3553858" lon="11.4161892"><ele>224.5</ele><time>2026-04-04T09:43:08.188Z</time></trkpt><trkpt lat="43.3552595" lon="11.4161946"><ele>225.75</ele><time>2026-04-04T09:43:09.19Z</time></trkpt><trkpt lat="43.3551276" lon="11.4161811"><ele>227.0</ele><time>2026-04-04T09:43:10.188Z</time></trkpt><trkpt lat="43.3549937" lon="11.416167"><ele>227.0</ele><time>2026-04-04T09:43:11.189Z</time></trkpt><trkpt lat="43.3548587" lon="11.4161487"><ele>227.0</ele><time>2026-04-04T09:43:12.19Z</time></trkpt><trkpt lat="43.3547139" lon="11.4161287"><ele>227.0</ele><time>2026-04-04T09:43:13.189Z</time></trkpt><trkpt lat="43.3545653" lon="11.416114"><ele>227.0</ele><time>2026-04-04T09:43:14.189Z</time></trkpt><trkpt lat="43.3544276" lon="11.4161044"><ele>226.5</ele><time>2026-04-04T09:43:15.19Z</time></trkpt><trkpt lat="43.354279" lon="11.4160922"><ele>226.0</ele><time>2026-04-04T09:43:16.189Z</time></trkpt><trkpt lat="43.354125" lon="11.4160756"><ele>225.5</ele><time>2026-04-04T09:43:17.189Z</time></trkpt><trkpt lat="43.3539807" lon="11.416056"><ele>225.0</ele><time>2026-04-04T09:43:18.189Z</time></trkpt><trkpt lat="43.3538295" lon="11.4160187"><ele>224.33333333333331</ele><time>2026-04-04T09:43:19.188Z</time></trkpt><trkpt lat="43.3536794" lon="11.4159924"><ele>223.66666666666666</ele><time>2026-04-04T09:43:20.187Z</time></trkpt><trkpt lat="43.3535277" lon="11.4159543"><ele>223.0</ele><time>2026-04-04T09:43:21.189Z</time></trkpt><trkpt lat="43.3533779" lon="11.4159137"><ele>223.0</ele><time>2026-04-04T09:43:22.188Z</time></trkpt><trkpt lat="43.3532232" lon="11.4158703"><ele>223.0</ele><time>2026-04-04T09:43:23.19Z</time></trkpt><trkpt lat="43.353074" lon="11.4158296"><ele>223.0</ele><time>2026-04-04T09:43:24.189Z</time></trkpt><trkpt lat="43.3529221" lon="11.4157854"><ele>223.0</ele><time>2026-04-04T09:43:25.189Z</time></trkpt><trkpt lat="43.3527756" lon="11.4157416"><ele>223.0</ele><time>2026-04-04T09:43:26.189Z</time></trkpt><trkpt lat="43.352635" lon="11.4156933"><ele>223.0</ele><time>2026-04-04T09:43:27.189Z</time></trkpt><trkpt lat="43.3524885" lon="11.4156573"><ele>223.0</ele><time>2026-04-04T09:43:28.189Z</time></trkpt><trkpt lat="43.3523568" lon="11.4156225"><ele>223.0</ele><time>2026-04-04T09:43:29.19Z</time></trkpt><trkpt lat="43.35224" lon="11.4155881"><ele>223.0</ele><time>2026-04-04T09:43:30.187Z</time></trkpt><trkpt lat="43.3521263" lon="11.4155722"><ele>223.0</ele><time>2026-04-04T09:43:31.189Z</time></trkpt><trkpt lat="43.3520308" lon="11.4155454"><ele>223.0</ele><time>2026-04-04T09:43:32.19Z</time></trkpt><trkpt lat="43.3519393" lon="11.4155163"><ele>223.0</ele><time>2026-04-04T09:43:33.19Z</time></trkpt><trkpt lat="43.3518481" lon="11.4154887"><ele>222.60000000000002</ele><time>2026-04-04T09:43:34.187Z</time></trkpt><trkpt lat="43.3517708" lon="11.4154621"><ele>222.20000000000002</ele><time>2026-04-04T09:43:35.189Z</time></trkpt><trkpt lat="43.3516576" lon="11.4154424"><ele>221.8</ele><time>2026-04-04T09:43:36.188Z</time></trkpt><trkpt lat="43.3515495" lon="11.4154043"><ele>221.4</ele><time>2026-04-04T09:43:37.188Z</time></trkpt><trkpt lat="43.3514212" lon="11.4153683"><ele>221.0</ele><time>2026-04-04T09:43:38.188Z</time></trkpt><trkpt lat="43.351275" lon="11.4153294"><ele>220.66666666666669</ele><time>2026-04-04T09:43:39.19Z</time></trkpt><trkpt lat="43.3511322" lon="11.4152866"><ele>220.33333333333331</ele><time>2026-04-04T09:43:40.19Z</time></trkpt><trkpt lat="43.3509759" lon="11.415234"><ele>220.0</ele><time>2026-04-04T09:43:41.189Z</time></trkpt><trkpt lat="43.350833" lon="11.4151947"><ele>220.0</ele><time>2026-04-04T09:43:42.189Z</time></trkpt><trkpt lat="43.3506888" lon="11.4151367"><ele>220.0</ele><time>2026-04-04T09:43:43.189Z</time></trkpt><trkpt lat="43.3505431" lon="11.4150951"><ele>220.0</ele><time>2026-04-04T09:43:44.189Z</time></trkpt><trkpt lat="43.3503966" lon="11.415029"><ele>220.5</ele><time>2026-04-04T09:43:45.187Z</time></trkpt><trkpt lat="43.350263" lon="11.414963"><ele>221.0</ele><time>2026-04-04T09:43:46.19Z</time></trkpt><trkpt lat="43.3501371" lon="11.4148803"><ele>221.5</ele><time>2026-04-04T09:43:47.188Z</time></trkpt><trkpt lat="43.3500486" lon="11.4147428"><ele>222.0</ele><time>2026-04-04T09:43:48.189Z</time></trkpt><trkpt lat="43.3499516" lon="11.4145905"><ele>222.0</ele><time>2026-04-04T09:43:49.189Z</time></trkpt><trkpt lat="43.3498497" lon="11.4144298"><ele>222.0</ele><time>2026-04-04T09:43:50.187Z</time></trkpt><trkpt lat="43.349762" lon="11.414255"><ele>222.0</ele><time>2026-04-04T09:43:51.188Z</time></trkpt><trkpt lat="43.3496872" lon="11.4140713"><ele>223.66666666666669</ele><time>2026-04-04T09:43:52.188Z</time></trkpt><trkpt lat="43.3495992" lon="11.4138853"><ele>225.33333333333334</ele><time>2026-04-04T09:43:53.188Z</time></trkpt><trkpt lat="43.3495202" lon="11.4136727"><ele>227.0</ele><time>2026-04-04T09:43:54.189Z</time></trkpt><trkpt lat="43.349445" lon="11.4134637"><ele>227.0</ele><time>2026-04-04T09:43:55.189Z</time></trkpt><trkpt lat="43.3493592" lon="11.4132584"><ele>227.0</ele><time>2026-04-04T09:43:56.188Z</time></trkpt><trkpt lat="43.3492438" lon="11.4130725"><ele>227.0</ele><time>2026-04-04T09:43:57.188Z</time></trkpt><trkpt lat="43.3491161" lon="11.4129026"><ele>226.33333333333334</ele><time>2026-04-04T09:43:58.187Z</time></trkpt><trkpt lat="43.3489869" lon="11.412725"><ele>225.66666666666669</ele><time>2026-04-04T09:43:59.188Z</time></trkpt><trkpt lat="43.3488757" lon="11.4125335"><ele>225.0</ele><time>2026-04-04T09:44:00.187Z</time></trkpt><trkpt lat="43.3487733" lon="11.4123296"><ele>227.33333333333331</ele><time>2026-04-04T09:44:01.187Z</time></trkpt><trkpt lat="43.3486996" lon="11.4121027"><ele>229.66666666666666</ele><time>2026-04-04T09:44:02.188Z</time></trkpt><trkpt lat="43.3486372" lon="11.411875"><ele>232.0</ele><time>2026-04-04T09:44:03.187Z</time></trkpt><trkpt lat="43.3485928" lon="11.4116398"><ele>232.0</ele><time>2026-04-04T09:44:04.19Z</time></trkpt><trkpt lat="43.3485709" lon="11.4114096"><ele>232.0</ele><time>2026-04-04T09:44:05.19Z</time></trkpt><trkpt lat="43.3485505" lon="11.4111745"><ele>232.0</ele><time>2026-04-04T09:44:06.187Z</time></trkpt><trkpt lat="43.3485241" lon="11.4109371"><ele>234.0</ele><time>2026-04-04T09:44:07.189Z</time></trkpt><trkpt lat="43.3484913" lon="11.4106951"><ele>236.0</ele><time>2026-04-04T09:44:08.19Z</time></trkpt><trkpt lat="43.3484501" lon="11.4104644"><ele>238.0</ele><time>2026-04-04T09:44:09.189Z</time></trkpt><trkpt lat="43.3483997" lon="11.4102474"><ele>238.66666666666666</ele><time>2026-04-04T09:44:10.189Z</time></trkpt><trkpt lat="43.3483434" lon="11.4100244"><ele>239.33333333333331</ele><time>2026-04-04T09:44:11.188Z</time></trkpt><trkpt lat="43.3482882" lon="11.4098127"><ele>240.0</ele><time>2026-04-04T09:44:12.188Z</time></trkpt><trkpt lat="43.3482348" lon="11.409616"><ele>240.0</ele><time>2026-04-04T09:44:13.189Z</time></trkpt><trkpt lat="43.3481855" lon="11.4094143"><ele>240.0</ele><time>2026-04-04T09:44:14.189Z</time></trkpt><trkpt lat="43.3481264" lon="11.409216"><ele>240.0</ele><time>2026-04-04T09:44:15.188Z</time></trkpt><trkpt lat="43.3480831" lon="11.409013"><ele>241.0</ele><time>2026-04-04T09:44:16.188Z</time></trkpt><trkpt lat="43.3480546" lon="11.4087909"><ele>242.0</ele><time>2026-04-04T09:44:17.189Z</time></trkpt><trkpt lat="43.3480444" lon="11.4085523"><ele>243.0</ele><time>2026-04-04T09:44:18.19Z</time></trkpt><trkpt lat="43.3480382" lon="11.408299"><ele>244.0</ele><time>2026-04-04T09:44:19.189Z</time></trkpt><trkpt lat="43.3480348" lon="11.4080481"><ele>245.0</ele><time>2026-04-04T09:44:20.187Z</time></trkpt><trkpt lat="43.3480455" lon="11.4077964"><ele>246.0</ele><time>2026-04-04T09:44:21.189Z</time></trkpt><trkpt lat="43.3480528" lon="11.4075505"><ele>246.0</ele><time>2026-04-04T09:44:22.189Z</time></trkpt><trkpt lat="43.3480705" lon="11.4072914"><ele>246.0</ele><time>2026-04-04T09:44:23.188Z</time></trkpt><trkpt lat="43.3480869" lon="11.4070598"><ele>246.0</ele><time>2026-04-04T09:44:24.19Z</time></trkpt><trkpt lat="43.3481102" lon="11.4068365"><ele>247.0</ele><time>2026-04-04T09:44:25.187Z</time></trkpt><trkpt lat="43.3481373" lon="11.406611"><ele>248.0</ele><time>2026-04-04T09:44:26.188Z</time></trkpt><trkpt lat="43.3481759" lon="11.4063932"><ele>249.0</ele><time>2026-04-04T09:44:27.189Z</time></trkpt><trkpt lat="43.3482222" lon="11.4061808"><ele>251.33333333333331</ele><time>2026-04-04T09:44:28.189Z</time></trkpt><trkpt lat="43.3482869" lon="11.4059792"><ele>253.66666666666666</ele><time>2026-04-04T09:44:29.189Z</time></trkpt><trkpt lat="43.3483468" lon="11.4057914"><ele>256.0</ele><time>2026-04-04T09:44:30.187Z</time></trkpt><trkpt lat="43.348402" lon="11.4055674"><ele>259.66666666666663</ele><time>2026-04-04T09:44:31.188Z</time></trkpt><trkpt lat="43.3484444" lon="11.405359"><ele>263.3333333333333</ele><time>2026-04-04T09:44:32.187Z</time></trkpt><trkpt lat="43.3484663" lon="11.4051616"><ele>267.0</ele><time>2026-04-04T09:44:33.187Z</time></trkpt><trkpt lat="43.3484959" lon="11.4049462"><ele>267.0</ele><time>2026-04-04T09:44:34.187Z</time></trkpt><trkpt lat="43.3485214" lon="11.4047371"><ele>267.0</ele><time>2026-04-04T09:44:35.187Z</time></trkpt><trkpt lat="43.3485595" lon="11.4045456"><ele>267.0</ele><time>2026-04-04T09:44:36.188Z</time></trkpt><trkpt lat="43.3486312" lon="11.4043726"><ele>267.0</ele><time>2026-04-04T09:44:37.189Z</time></trkpt><trkpt lat="43.3487168" lon="11.4042008"><ele>267.5</ele><time>2026-04-04T09:44:38.187Z</time></trkpt><trkpt lat="43.3488074" lon="11.4040527"><ele>268.0</ele><time>2026-04-04T09:44:39.189Z</time></trkpt><trkpt lat="43.3488837" lon="11.4039164"><ele>268.5</ele><time>2026-04-04T09:44:40.188Z</time></trkpt><trkpt lat="43.3489757" lon="11.4037557"><ele>269.0</ele><time>2026-04-04T09:44:41.187Z</time></trkpt><trkpt lat="43.3490464" lon="11.4036081"><ele>269.75</ele><time>2026-04-04T09:44:42.189Z</time></trkpt><trkpt lat="43.3490949" lon="11.4034384"><ele>270.5</ele><time>2026-04-04T09:44:43.19Z</time></trkpt><trkpt lat="43.3491451" lon="11.4032693"><ele>271.25</ele><time>2026-04-04T09:44:44.189Z</time></trkpt><trkpt lat="43.3491628" lon="11.4030941"><ele>272.0</ele><time>2026-04-04T09:44:45.189Z</time></trkpt><trkpt lat="43.3491796" lon="11.4029062"><ele>274.33333333333337</ele><time>2026-04-04T09:44:46.19Z</time></trkpt><trkpt lat="43.349216" lon="11.4027169"><ele>276.6666666666667</ele><time>2026-04-04T09:44:47.188Z</time></trkpt><trkpt lat="43.3492318" lon="11.4024872"><ele>279.0</ele><time>2026-04-04T09:44:48.189Z</time></trkpt><trkpt lat="43.3492682" lon="11.402292"><ele>281.0</ele><time>2026-04-04T09:44:49.189Z</time></trkpt><trkpt lat="43.3492864" lon="11.4020909"><ele>283.0</ele><time>2026-04-04T09:44:50.188Z</time></trkpt><trkpt lat="43.3493121" lon="11.4019079"><ele>285.0</ele><time>2026-04-04T09:44:51.189Z</time></trkpt><trkpt lat="43.349356" lon="11.4017877"><ele>287.0</ele><time>2026-04-04T09:44:52.189Z</time></trkpt><trkpt lat="43.3494153" lon="11.4016744"><ele>287.0</ele><time>2026-04-04T09:44:53.188Z</time></trkpt><trkpt lat="43.3494826" lon="11.40159"><ele>287.0</ele><time>2026-04-04T09:44:54.187Z</time></trkpt><trkpt lat="43.3495765" lon="11.4015347"><ele>287.0</ele><time>2026-04-04T09:44:55.188Z</time></trkpt><trkpt lat="43.3496835" lon="11.4015463"><ele>287.0</ele><time>2026-04-04T09:44:56.188Z</time></trkpt><trkpt lat="43.3497842" lon="11.4015771"><ele>287.0</ele><time>2026-04-04T09:44:57.188Z</time></trkpt><trkpt lat="43.3499026" lon="11.4016175"><ele>286.0</ele><time>2026-04-04T09:44:58.188Z</time></trkpt><trkpt lat="43.349999" lon="11.401635"><ele>285.0</ele><time>2026-04-04T09:44:59.188Z</time></trkpt><trkpt lat="43.3500864" lon="11.4016222"><ele>284.0</ele><time>2026-04-04T09:45:00.188Z</time></trkpt><trkpt lat="43.350167" lon="11.4015567"><ele>283.0</ele><time>2026-04-04T09:45:01.189Z</time></trkpt><trkpt lat="43.3502214" lon="11.4014481"><ele>282.0</ele><time>2026-04-04T09:45:02.188Z</time></trkpt><trkpt lat="43.3502639" lon="11.4013447"><ele>284.0</ele><time>2026-04-04T09:45:03.189Z</time></trkpt><trkpt lat="43.3502491" lon="11.4012216"><ele>286.0</ele><time>2026-04-04T09:45:04.189Z</time></trkpt><trkpt lat="43.350197" lon="11.4011014"><ele>288.0</ele><time>2026-04-04T09:45:05.189Z</time></trkpt><trkpt lat="43.3501217" lon="11.4009839"><ele>290.0</ele><time>2026-04-04T09:45:06.188Z</time></trkpt><trkpt lat="43.3500377" lon="11.4008665"><ele>292.0</ele><time>2026-04-04T09:45:07.19Z</time></trkpt><trkpt lat="43.3499403" lon="11.4007519"><ele>292.0</ele><time>2026-04-04T09:45:08.189Z</time></trkpt><trkpt lat="43.349825" lon="11.400665"><ele>292.0</ele><time>2026-04-04T09:45:09.189Z</time></trkpt><trkpt lat="43.3496983" lon="11.4006131"><ele>292.0</ele><time>2026-04-04T09:45:10.188Z</time></trkpt><trkpt lat="43.3495776" lon="11.4006013"><ele>292.0</ele><time>2026-04-04T09:45:11.189Z</time></trkpt><trkpt lat="43.3494591" lon="11.4006386"><ele>292.5</ele><time>2026-04-04T09:45:12.188Z</time></trkpt><trkpt lat="43.3493329" lon="11.4007061"><ele>293.0</ele><time>2026-04-04T09:45:13.189Z</time></trkpt><trkpt lat="43.3492164" lon="11.4007584"><ele>293.5</ele><time>2026-04-04T09:45:14.188Z</time></trkpt><trkpt lat="43.3490947" lon="11.4008232"><ele>294.0</ele><time>2026-04-04T09:45:15.189Z</time></trkpt><trkpt lat="43.3489621" lon="11.4009006"><ele>295.2</ele><time>2026-04-04T09:45:16.187Z</time></trkpt><trkpt lat="43.3488386" lon="11.4009617"><ele>296.4</ele><time>2026-04-04T09:45:17.189Z</time></trkpt><trkpt lat="43.3487313" lon="11.4009915"><ele>297.6</ele><time>2026-04-04T09:45:18.188Z</time></trkpt><trkpt lat="43.348633" lon="11.4009758"><ele>298.8</ele><time>2026-04-04T09:45:19.189Z</time></trkpt><trkpt lat="43.3485381" lon="11.4009181"><ele>300.0</ele><time>2026-04-04T09:45:20.187Z</time></trkpt><trkpt lat="43.3484492" lon="11.4008376"><ele>300.0</ele><time>2026-04-04T09:45:21.188Z</time></trkpt><trkpt lat="43.3483575" lon="11.4007403"><ele>300.0</ele><time>2026-04-04T09:45:22.187Z</time></trkpt><trkpt lat="43.3482809" lon="11.4006357"><ele>300.0</ele><time>2026-04-04T09:45:23.189Z</time></trkpt><trkpt lat="43.3481903" lon="11.400537"><ele>300.0</ele><time>2026-04-04T09:45:24.188Z</time></trkpt><trkpt lat="43.348095" lon="11.4004488"><ele>301.75</ele><time>2026-04-04T09:45:25.189Z</time></trkpt><trkpt lat="43.3480012" lon="11.4003669"><ele>303.5</ele><time>2026-04-04T09:45:26.187Z</time></trkpt><trkpt lat="43.3479014" lon="11.4002931"><ele>305.25</ele><time>2026-04-04T09:45:27.187Z</time></trkpt><trkpt lat="43.3477906" lon="11.4002306"><ele>307.0</ele><time>2026-04-04T09:45:28.187Z</time></trkpt><trkpt lat="43.3476909" lon="11.4001686"><ele>307.0</ele><time>2026-04-04T09:45:29.188Z</time></trkpt><trkpt lat="43.3475917" lon="11.4001096"><ele>307.0</ele><time>2026-04-04T09:45:30.187Z</time></trkpt><trkpt lat="43.3475465" lon="11.4000266"><ele>307.0</ele><time>2026-04-04T09:45:31.188Z</time></trkpt><trkpt lat="43.3474976" lon="11.3999101"><ele>307.0</ele><time>2026-04-04T09:45:32.187Z</time></trkpt><trkpt lat="43.3474662" lon="11.3997896"><ele>307.0</ele><time>2026-04-04T09:45:33.187Z</time></trkpt><trkpt lat="43.3474616" lon="11.3996484"><ele>307.2</ele><time>2026-04-04T09:45:34.187Z</time></trkpt><trkpt lat="43.3474776" lon="11.3995269"><ele>307.4</ele><time>2026-04-04T09:45:35.188Z</time></trkpt><trkpt lat="43.3475401" lon="11.399435"><ele>307.6</ele><time>2026-04-04T09:45:36.188Z</time></trkpt><trkpt lat="43.3476035" lon="11.3993523"><ele>307.8</ele><time>2026-04-04T09:45:37.189Z</time></trkpt><trkpt lat="43.3476917" lon="11.3992696"><ele>308.0</ele><time>2026-04-04T09:45:38.188Z</time></trkpt><trkpt lat="43.347784" lon="11.3991903"><ele>308.0</ele><time>2026-04-04T09:45:39.188Z</time></trkpt><trkpt lat="43.3478791" lon="11.3991173"><ele>308.0</ele><time>2026-04-04T09:45:40.189Z</time></trkpt><trkpt lat="43.347981" lon="11.3990639"><ele>308.0</ele><time>2026-04-04T09:45:41.188Z</time></trkpt><trkpt lat="43.3480837" lon="11.3990171"><ele>308.0</ele><time>2026-04-04T09:45:42.187Z</time></trkpt><trkpt lat="43.3481845" lon="11.3989801"><ele>308.0</ele><time>2026-04-04T09:45:43.187Z</time></trkpt><trkpt lat="43.3482757" lon="11.398946"><ele>308.4</ele><time>2026-04-04T09:45:44.188Z</time></trkpt><trkpt lat="43.3483518" lon="11.3989274"><ele>308.8</ele><time>2026-04-04T09:45:45.188Z</time></trkpt><trkpt lat="43.348435" lon="11.3988805"><ele>309.2</ele><time>2026-04-04T09:45:47.187Z</time></trkpt><trkpt lat="43.3484106" lon="11.3987884"><ele>309.6</ele><time>2026-04-04T09:45:49.187Z</time></trkpt><trkpt lat="43.3483383" lon="11.398665"><ele>310.0</ele><time>2026-04-04T09:45:51.189Z</time></trkpt><trkpt lat="43.3482679" lon="11.3985385"><ele>309.16666666666663</ele><time>2026-04-04T09:45:53.189Z</time></trkpt><trkpt lat="43.3482115" lon="11.3984847"><ele>308.3333333333333</ele><time>2026-04-04T09:45:54.188Z</time></trkpt><trkpt lat="43.34809" lon="11.3984629"><ele>307.5</ele><time>2026-04-04T09:45:56.187Z</time></trkpt><trkpt lat="43.348022" lon="11.3984847"><ele>306.6666666666667</ele><time>2026-04-04T09:45:57.188Z</time></trkpt><trkpt lat="43.3479463" lon="11.3985288"><ele>305.83333333333337</ele><time>2026-04-04T09:45:58.188Z</time></trkpt><trkpt lat="43.3478719" lon="11.3985769"><ele>305.0</ele><time>2026-04-04T09:45:59.187Z</time></trkpt><trkpt lat="43.3477954" lon="11.3986102"><ele>303.8</ele><time>2026-04-04T09:46:00.187Z</time></trkpt><trkpt lat="43.3477015" lon="11.3986309"><ele>302.6</ele><time>2026-04-04T09:46:01.188Z</time></trkpt><trkpt lat="43.3476072" lon="11.3986481"><ele>301.4</ele><time>2026-04-04T09:46:02.188Z</time></trkpt><trkpt lat="43.3475131" lon="11.3986575"><ele>300.2</ele><time>2026-04-04T09:46:03.189Z</time></trkpt><trkpt lat="43.3474188" lon="11.3986763"><ele>299.0</ele><time>2026-04-04T09:46:04.188Z</time></trkpt><trkpt lat="43.34732" lon="11.3987079"><ele>299.0</ele><time>2026-04-04T09:46:05.189Z</time></trkpt><trkpt lat="43.3472296" lon="11.3987276"><ele>299.0</ele><time>2026-04-04T09:46:06.187Z</time></trkpt><trkpt lat="43.3471337" lon="11.3987446"><ele>299.0</ele><time>2026-04-04T09:46:07.189Z</time></trkpt><trkpt lat="43.3470445" lon="11.3987644"><ele>299.0</ele><time>2026-04-04T09:46:08.188Z</time></trkpt><trkpt lat="43.3469545" lon="11.3988094"><ele>299.0</ele><time>2026-04-04T09:46:09.189Z</time></trkpt><trkpt lat="43.3468704" lon="11.3988637"><ele>299.5</ele><time>2026-04-04T09:46:10.189Z</time></trkpt><trkpt lat="43.3467969" lon="11.398929"><ele>300.0</ele><time>2026-04-04T09:46:11.189Z</time></trkpt><trkpt lat="43.346727" lon="11.39901"><ele>300.5</ele><time>2026-04-04T09:46:12.189Z</time></trkpt><trkpt lat="43.3466564" lon="11.3990886"><ele>301.0</ele><time>2026-04-04T09:46:13.188Z</time></trkpt><trkpt lat="43.3466006" lon="11.3991744"><ele>301.5</ele><time>2026-04-04T09:46:14.189Z</time></trkpt><trkpt lat="43.346542" lon="11.3992638"><ele>302.0</ele><time>2026-04-04T09:46:15.189Z</time></trkpt><trkpt lat="43.3464876" lon="11.3993473"><ele>302.0</ele><time>2026-04-04T09:46:16.188Z</time></trkpt><trkpt lat="43.3464374" lon="11.399429"><ele>302.0</ele><time>2026-04-04T09:46:17.188Z</time></trkpt><trkpt lat="43.3463866" lon="11.3995047"><ele>302.0</ele><time>2026-04-04T09:46:18.188Z</time></trkpt><trkpt lat="43.3463183" lon="11.3996302"><ele>302.0</ele><time>2026-04-04T09:46:20.189Z</time></trkpt><trkpt lat="43.3462741" lon="11.3997003"><ele>302.0</ele><time>2026-04-04T09:46:21.187Z</time></trkpt><trkpt lat="43.3462279" lon="11.3997815"><ele>302.0</ele><time>2026-04-04T09:46:22.189Z</time></trkpt><trkpt lat="43.3461698" lon="11.3998642"><ele>301.5</ele><time>2026-04-04T09:46:23.189Z</time></trkpt><trkpt lat="43.3461157" lon="11.3999447"><ele>301.0</ele><time>2026-04-04T09:46:24.188Z</time></trkpt><trkpt lat="43.3460605" lon="11.4000312"><ele>300.5</ele><time>2026-04-04T09:46:25.188Z</time></trkpt><trkpt lat="43.3459985" lon="11.4001215"><ele>300.0</ele><time>2026-04-04T09:46:26.189Z</time></trkpt><trkpt lat="43.3459381" lon="11.4002023"><ele>299.5</ele><time>2026-04-04T09:46:27.188Z</time></trkpt><trkpt lat="43.3458808" lon="11.4002887"><ele>299.0</ele><time>2026-04-04T09:46:28.188Z</time></trkpt><trkpt lat="43.345826" lon="11.4003741"><ele>299.0</ele><time>2026-04-04T09:46:29.188Z</time></trkpt><trkpt lat="43.3457717" lon="11.4004541"><ele>299.0</ele><time>2026-04-04T09:46:30.187Z</time></trkpt><trkpt lat="43.3457155" lon="11.4005216"><ele>299.0</ele><time>2026-04-04T09:46:31.187Z</time></trkpt><trkpt lat="43.3456601" lon="11.400591"><ele>299.0</ele><time>2026-04-04T09:46:32.187Z</time></trkpt><trkpt lat="43.3456084" lon="11.4006667"><ele>299.0</ele><time>2026-04-04T09:46:33.187Z</time></trkpt><trkpt lat="43.3455618" lon="11.4007549"><ele>299.0</ele><time>2026-04-04T09:46:34.186Z</time></trkpt><trkpt lat="43.3455173" lon="11.4008401"><ele>299.0</ele><time>2026-04-04T09:46:35.187Z</time></trkpt><trkpt lat="43.345471" lon="11.4009028"><ele>299.0</ele><time>2026-04-04T09:46:36.187Z</time></trkpt><trkpt lat="43.3453997" lon="11.4009976"><ele>299.0</ele><time>2026-04-04T09:46:38.189Z</time></trkpt><trkpt lat="43.345294" lon="11.4010926"><ele>299.0</ele><time>2026-04-04T09:46:40.188Z</time></trkpt><trkpt lat="43.345233" lon="11.4011433"><ele>299.0</ele><time>2026-04-04T09:46:41.186Z</time></trkpt><trkpt lat="43.345153" lon="11.4011757"><ele>299.0</ele><time>2026-04-04T09:46:42.187Z</time></trkpt><trkpt lat="43.3450663" lon="11.4012125"><ele>299.0</ele><time>2026-04-04T09:46:43.188Z</time></trkpt><trkpt lat="43.3449826" lon="11.4012451"><ele>299.0</ele><time>2026-04-04T09:46:44.189Z</time></trkpt><trkpt lat="43.3448857" lon="11.401272"><ele>299.0</ele><time>2026-04-04T09:46:45.188Z</time></trkpt><trkpt lat="43.3447992" lon="11.4012952"><ele>299.0</ele><time>2026-04-04T09:46:46.188Z</time></trkpt><trkpt lat="43.3447047" lon="11.4013112"><ele>299.0</ele><time>2026-04-04T09:46:47.188Z</time></trkpt><trkpt lat="43.3446086" lon="11.401301"><ele>298.59999999999997</ele><time>2026-04-04T09:46:48.186Z</time></trkpt><trkpt lat="43.3445157" lon="11.4013082"><ele>298.2</ele><time>2026-04-04T09:46:49.187Z</time></trkpt><trkpt lat="43.3444267" lon="11.4013063"><ele>297.79999999999995</ele><time>2026-04-04T09:46:50.188Z</time></trkpt><trkpt lat="43.3443372" lon="11.4012988"><ele>297.4</ele><time>2026-04-04T09:46:51.189Z</time></trkpt><trkpt lat="43.3442507" lon="11.4013074"><ele>297.0</ele><time>2026-04-04T09:46:52.187Z</time></trkpt><trkpt lat="43.3441597" lon="11.4013197"><ele>296.2</ele><time>2026-04-04T09:46:53.188Z</time></trkpt><trkpt lat="43.3440749" lon="11.401343"><ele>295.4</ele><time>2026-04-04T09:46:54.188Z</time></trkpt><trkpt lat="43.3439792" lon="11.4013842"><ele>294.6</ele><time>2026-04-04T09:46:55.187Z</time></trkpt><trkpt lat="43.3438822" lon="11.4014237"><ele>293.8</ele><time>2026-04-04T09:46:56.187Z</time></trkpt><trkpt lat="43.3437978" lon="11.4014727"><ele>293.0</ele><time>2026-04-04T09:46:57.188Z</time></trkpt><trkpt lat="43.3437188" lon="11.4015284"><ele>292.8</ele><time>2026-04-04T09:46:58.189Z</time></trkpt><trkpt lat="43.3436426" lon="11.4015747"><ele>292.6</ele><time>2026-04-04T09:46:59.189Z</time></trkpt><trkpt lat="43.3435601" lon="11.401628"><ele>292.4</ele><time>2026-04-04T09:47:00.187Z</time></trkpt><trkpt lat="43.3434788" lon="11.4016907"><ele>292.2</ele><time>2026-04-04T09:47:01.187Z</time></trkpt><trkpt lat="43.3434048" lon="11.4017607"><ele>292.0</ele><time>2026-04-04T09:47:02.187Z</time></trkpt><trkpt lat="43.3433159" lon="11.4018617"><ele>292.0</ele><time>2026-04-04T09:47:03.187Z</time></trkpt><trkpt lat="43.3432551" lon="11.401965"><ele>292.0</ele><time>2026-04-04T09:47:04.187Z</time></trkpt><trkpt lat="43.3432061" lon="11.4020814"><ele>292.0</ele><time>2026-04-04T09:47:05.189Z</time></trkpt><trkpt lat="43.3431606" lon="11.4022033"><ele>292.0</ele><time>2026-04-04T09:47:06.187Z</time></trkpt><trkpt lat="43.3431287" lon="11.4023302"><ele>292.0</ele><time>2026-04-04T09:47:07.188Z</time></trkpt><trkpt lat="43.3431089" lon="11.4024445"><ele>291.4</ele><time>2026-04-04T09:47:08.187Z</time></trkpt><trkpt lat="43.3430908" lon="11.4025729"><ele>290.79999999999995</ele><time>2026-04-04T09:47:09.189Z</time></trkpt><trkpt lat="43.343082" lon="11.4026999"><ele>290.2</ele><time>2026-04-04T09:47:10.187Z</time></trkpt><trkpt lat="43.3430697" lon="11.4028267"><ele>289.59999999999997</ele><time>2026-04-04T09:47:11.188Z</time></trkpt><trkpt lat="43.3430472" lon="11.4029432"><ele>289.0</ele><time>2026-04-04T09:47:12.186Z</time></trkpt><trkpt lat="43.3430089" lon="11.4030634"><ele>289.0</ele><time>2026-04-04T09:47:13.188Z</time></trkpt><trkpt lat="43.342951" lon="11.4031678"><ele>289.0</ele><time>2026-04-04T09:47:14.187Z</time></trkpt><trkpt lat="43.3428755" lon="11.4032467"><ele>289.0</ele><time>2026-04-04T09:47:15.188Z</time></trkpt><trkpt lat="43.3427888" lon="11.4032839"><ele>289.0</ele><time>2026-04-04T09:47:16.186Z</time></trkpt><trkpt lat="43.3426969" lon="11.4033058"><ele>289.0</ele><time>2026-04-04T09:47:17.189Z</time></trkpt><trkpt lat="43.3426106" lon="11.4033258"><ele>289.0</ele><time>2026-04-04T09:47:18.187Z</time></trkpt><trkpt lat="43.3425123" lon="11.4033383"><ele>289.0</ele><time>2026-04-04T09:47:19.189Z</time></trkpt><trkpt lat="43.3424221" lon="11.403376"><ele>289.0</ele><time>2026-04-04T09:47:20.187Z</time></trkpt><trkpt lat="43.3423259" lon="11.403444"><ele>289.0</ele><time>2026-04-04T09:47:21.187Z</time></trkpt><trkpt lat="43.3422334" lon="11.4035309"><ele>289.0</ele><time>2026-04-04T09:47:22.186Z</time></trkpt><trkpt lat="43.3421485" lon="11.4036235"><ele>288.0</ele><time>2026-04-04T09:47:23.186Z</time></trkpt><trkpt lat="43.3420624" lon="11.4037228"><ele>287.0</ele><time>2026-04-04T09:47:24.187Z</time></trkpt><trkpt lat="43.3419873" lon="11.4038226"><ele>286.0</ele><time>2026-04-04T09:47:25.187Z</time></trkpt><trkpt lat="43.3419068" lon="11.4039085"><ele>285.0</ele><time>2026-04-04T09:47:26.188Z</time></trkpt><trkpt lat="43.3418316" lon="11.403997"><ele>284.0</ele><time>2026-04-04T09:47:27.187Z</time></trkpt><trkpt lat="43.3417554" lon="11.4040843"><ele>284.0</ele><time>2026-04-04T09:47:28.187Z</time></trkpt><trkpt lat="43.3416824" lon="11.4041571"><ele>284.0</ele><time>2026-04-04T09:47:29.188Z</time></trkpt><trkpt lat="43.3416126" lon="11.4042321"><ele>284.0</ele><time>2026-04-04T09:47:30.187Z</time></trkpt><trkpt lat="43.3415361" lon="11.4042953"><ele>284.0</ele><time>2026-04-04T09:47:31.187Z</time></trkpt><trkpt lat="43.3414718" lon="11.4043754"><ele>284.0</ele><time>2026-04-04T09:47:32.188Z</time></trkpt><trkpt lat="43.341409" lon="11.4044545"><ele>284.0</ele><time>2026-04-04T09:47:33.187Z</time></trkpt><trkpt lat="43.3413463" lon="11.4045431"><ele>285.2</ele><time>2026-04-04T09:47:34.187Z</time></trkpt><trkpt lat="43.3412836" lon="11.4046445"><ele>286.4</ele><time>2026-04-04T09:47:35.188Z</time></trkpt><trkpt lat="43.3412239" lon="11.4047444"><ele>287.6</ele><time>2026-04-04T09:47:36.188Z</time></trkpt><trkpt lat="43.3411674" lon="11.4048448"><ele>288.8</ele><time>2026-04-04T09:47:37.186Z</time></trkpt><trkpt lat="43.3411038" lon="11.4049387"><ele>290.0</ele><time>2026-04-04T09:47:38.188Z</time></trkpt><trkpt lat="43.3410413" lon="11.4050361"><ele>290.0</ele><time>2026-04-04T09:47:39.187Z</time></trkpt><trkpt lat="43.340972" lon="11.40513"><ele>290.0</ele><time>2026-04-04T09:47:40.187Z</time></trkpt><trkpt lat="43.3408941" lon="11.4052107"><ele>290.0</ele><time>2026-04-04T09:47:41.187Z</time></trkpt><trkpt lat="43.3408092" lon="11.4052833"><ele>290.0</ele><time>2026-04-04T09:47:42.187Z</time></trkpt><trkpt lat="43.3407289" lon="11.4053433"><ele>290.0</ele><time>2026-04-04T09:47:43.187Z</time></trkpt><trkpt lat="43.3406373" lon="11.4054019"><ele>290.0</ele><time>2026-04-04T09:47:44.186Z</time></trkpt><trkpt lat="43.3405559" lon="11.4054566"><ele>290.0</ele><time>2026-04-04T09:47:45.186Z</time></trkpt><trkpt lat="43.3404745" lon="11.4055157"><ele>290.0</ele><time>2026-04-04T09:47:46.188Z</time></trkpt><trkpt lat="43.3403874" lon="11.4055614"><ele>290.0</ele><time>2026-04-04T09:47:47.187Z</time></trkpt><trkpt lat="43.3402891" lon="11.4056153"><ele>290.0</ele><time>2026-04-04T09:47:48.189Z</time></trkpt><trkpt lat="43.340201" lon="11.4056716"><ele>290.0</ele><time>2026-04-04T09:47:49.189Z</time></trkpt><trkpt lat="43.3401187" lon="11.4057183"><ele>290.0</ele><time>2026-04-04T09:47:50.188Z</time></trkpt><trkpt lat="43.3400362" lon="11.4057626"><ele>290.0</ele><time>2026-04-04T09:47:51.188Z</time></trkpt><trkpt lat="43.3399643" lon="11.4058116"><ele>290.0</ele><time>2026-04-04T09:47:52.188Z</time></trkpt><trkpt lat="43.3398837" lon="11.4058572"><ele>290.0</ele><time>2026-04-04T09:47:53.188Z</time></trkpt><trkpt lat="43.3398135" lon="11.4059109"><ele>290.0</ele><time>2026-04-04T09:47:54.188Z</time></trkpt><trkpt lat="43.3397385" lon="11.4059588"><ele>289.5</ele><time>2026-04-04T09:47:55.188Z</time></trkpt><trkpt lat="43.3396742" lon="11.4060193"><ele>289.0</ele><time>2026-04-04T09:47:56.187Z</time></trkpt><trkpt lat="43.3396151" lon="11.4060851"><ele>288.5</ele><time>2026-04-04T09:47:57.187Z</time></trkpt><trkpt lat="43.3395766" lon="11.4061542"><ele>288.0</ele><time>2026-04-04T09:47:58.187Z</time></trkpt><trkpt lat="43.3395398" lon="11.4062499"><ele>287.5</ele><time>2026-04-04T09:47:59.188Z</time></trkpt><trkpt lat="43.3395034" lon="11.4063433"><ele>287.0</ele><time>2026-04-04T09:48:00.188Z</time></trkpt><trkpt lat="43.3394609" lon="11.4064418"><ele>287.0</ele><time>2026-04-04T09:48:01.187Z</time></trkpt><trkpt lat="43.3394075" lon="11.4065346"><ele>287.0</ele><time>2026-04-04T09:48:02.187Z</time></trkpt><trkpt lat="43.339345" lon="11.4066325"><ele>287.0</ele><time>2026-04-04T09:48:03.189Z</time></trkpt><trkpt lat="43.3392795" lon="11.4067246"><ele>287.0</ele><time>2026-04-04T09:48:04.187Z</time></trkpt><trkpt lat="43.3392121" lon="11.4068047"><ele>287.0</ele><time>2026-04-04T09:48:05.187Z</time></trkpt><trkpt lat="43.3391375" lon="11.4068856"><ele>287.0</ele><time>2026-04-04T09:48:06.187Z</time></trkpt><trkpt lat="43.3390723" lon="11.4069688"><ele>287.0</ele><time>2026-04-04T09:48:07.188Z</time></trkpt><trkpt lat="43.338996" lon="11.4070526"><ele>287.0</ele><time>2026-04-04T09:48:08.188Z</time></trkpt><trkpt lat="43.3389309" lon="11.4071341"><ele>287.0</ele><time>2026-04-04T09:48:09.188Z</time></trkpt><trkpt lat="43.3388656" lon="11.4072214"><ele>287.0</ele><time>2026-04-04T09:48:10.187Z</time></trkpt><trkpt lat="43.3387983" lon="11.4073081"><ele>287.33333333333337</ele><time>2026-04-04T09:48:11.187Z</time></trkpt><trkpt lat="43.3387236" lon="11.4073814"><ele>287.6666666666667</ele><time>2026-04-04T09:48:12.188Z</time></trkpt><trkpt lat="43.3386558" lon="11.4074555"><ele>288.0</ele><time>2026-04-04T09:48:13.188Z</time></trkpt><trkpt lat="43.3385883" lon="11.4075198"><ele>288.3333333333333</ele><time>2026-04-04T09:48:14.186Z</time></trkpt><trkpt lat="43.3385113" lon="11.4075729"><ele>288.66666666666663</ele><time>2026-04-04T09:48:15.188Z</time></trkpt><trkpt lat="43.3384371" lon="11.4076374"><ele>289.0</ele><time>2026-04-04T09:48:16.187Z</time></trkpt><trkpt lat="43.3383715" lon="11.4076971"><ele>289.0</ele><time>2026-04-04T09:48:17.187Z</time></trkpt><trkpt lat="43.3382868" lon="11.4077444"><ele>289.0</ele><time>2026-04-04T09:48:18.187Z</time></trkpt><trkpt lat="43.3382077" lon="11.4077847"><ele>289.0</ele><time>2026-04-04T09:48:19.187Z</time></trkpt><trkpt lat="43.3381292" lon="11.4078018"><ele>289.0</ele><time>2026-04-04T09:48:20.187Z</time></trkpt><trkpt lat="43.33805" lon="11.4077838"><ele>289.0</ele><time>2026-04-04T09:48:21.187Z</time></trkpt><trkpt lat="43.3379756" lon="11.4077463"><ele>289.0</ele><time>2026-04-04T09:48:22.188Z</time></trkpt><trkpt lat="43.3379087" lon="11.4076953"><ele>289.3333333333333</ele><time>2026-04-04T09:48:23.189Z</time></trkpt><trkpt lat="43.3378434" lon="11.4076349"><ele>289.66666666666663</ele><time>2026-04-04T09:48:24.186Z</time></trkpt><trkpt lat="43.3377775" lon="11.4075779"><ele>290.0</ele><time>2026-04-04T09:48:25.188Z</time></trkpt><trkpt lat="43.3377224" lon="11.4075171"><ele>290.3333333333333</ele><time>2026-04-04T09:48:26.187Z</time></trkpt><trkpt lat="43.3376654" lon="11.4074563"><ele>290.6666666666667</ele><time>2026-04-04T09:48:27.188Z</time></trkpt><trkpt lat="43.3375985" lon="11.4073977"><ele>291.0</ele><time>2026-04-04T09:48:28.187Z</time></trkpt><trkpt lat="43.3375271" lon="11.407332"><ele>291.0</ele><time>2026-04-04T09:48:29.187Z</time></trkpt><trkpt lat="43.3374481" lon="11.407252"><ele>291.0</ele><time>2026-04-04T09:48:30.187Z</time></trkpt><trkpt lat="43.3373747" lon="11.4071842"><ele>291.0</ele><time>2026-04-04T09:48:31.187Z</time></trkpt><trkpt lat="43.3373017" lon="11.4071101"><ele>291.0</ele><time>2026-04-04T09:48:32.188Z</time></trkpt><trkpt lat="43.3372216" lon="11.4070444"><ele>291.0</ele><time>2026-04-04T09:48:33.186Z</time></trkpt><trkpt lat="43.3371381" lon="11.4069925"><ele>291.2</ele><time>2026-04-04T09:48:34.187Z</time></trkpt><trkpt lat="43.3370509" lon="11.4069482"><ele>291.40000000000003</ele><time>2026-04-04T09:48:35.188Z</time></trkpt><trkpt lat="43.3369631" lon="11.406908"><ele>291.6</ele><time>2026-04-04T09:48:36.188Z</time></trkpt><trkpt lat="43.3368672" lon="11.4068684"><ele>291.8</ele><time>2026-04-04T09:48:37.187Z</time></trkpt><trkpt lat="43.3367716" lon="11.4068302"><ele>292.0</ele><time>2026-04-04T09:48:38.187Z</time></trkpt><trkpt lat="43.3366829" lon="11.4067868"><ele>292.0</ele><time>2026-04-04T09:48:39.186Z</time></trkpt><trkpt lat="43.3365955" lon="11.4067351"><ele>292.0</ele><time>2026-04-04T09:48:40.187Z</time></trkpt><trkpt lat="43.3365073" lon="11.406698"><ele>292.0</ele><time>2026-04-04T09:48:41.187Z</time></trkpt><trkpt lat="43.3364143" lon="11.4066801"><ele>292.0</ele><time>2026-04-04T09:48:42.187Z</time></trkpt><trkpt lat="43.3363191" lon="11.4066674"><ele>292.0</ele><time>2026-04-04T09:48:43.187Z</time></trkpt><trkpt lat="43.3362332" lon="11.4066773"><ele>293.16666666666663</ele><time>2026-04-04T09:48:44.188Z</time></trkpt><trkpt lat="43.3361581" lon="11.4067002"><ele>294.3333333333333</ele><time>2026-04-04T09:48:45.188Z</time></trkpt><trkpt lat="43.3360825" lon="11.4067321"><ele>295.5</ele><time>2026-04-04T09:48:46.187Z</time></trkpt><trkpt lat="43.3360033" lon="11.4067845"><ele>296.6666666666667</ele><time>2026-04-04T09:48:47.188Z</time></trkpt><trkpt lat="43.3359291" lon="11.4068426"><ele>297.83333333333337</ele><time>2026-04-04T09:48:48.186Z</time></trkpt><trkpt lat="43.33586" lon="11.4069029"><ele>299.0</ele><time>2026-04-04T09:48:49.186Z</time></trkpt><trkpt lat="43.3357925" lon="11.4069819"><ele>299.0</ele><time>2026-04-04T09:48:50.187Z</time></trkpt><trkpt lat="43.3357254" lon="11.4070646"><ele>299.0</ele><time>2026-04-04T09:48:51.188Z</time></trkpt><trkpt lat="43.3356516" lon="11.4071488"><ele>299.0</ele><time>2026-04-04T09:48:52.187Z</time></trkpt><trkpt lat="43.335579" lon="11.4072254"><ele>299.0</ele><time>2026-04-04T09:48:53.188Z</time></trkpt><trkpt lat="43.3355047" lon="11.4072992"><ele>299.0</ele><time>2026-04-04T09:48:54.187Z</time></trkpt><trkpt lat="43.3354231" lon="11.4073484"><ele>298.6666666666667</ele><time>2026-04-04T09:48:55.188Z</time></trkpt><trkpt lat="43.3353405" lon="11.4073708"><ele>298.33333333333337</ele><time>2026-04-04T09:48:56.187Z</time></trkpt><trkpt lat="43.3352538" lon="11.4073677"><ele>298.0</ele><time>2026-04-04T09:48:57.186Z</time></trkpt><trkpt lat="43.3351568" lon="11.4073529"><ele>297.6666666666667</ele><time>2026-04-04T09:48:58.187Z</time></trkpt><trkpt lat="43.3350821" lon="11.40736"><ele>297.3333333333333</ele><time>2026-04-04T09:48:59.187Z</time></trkpt><trkpt lat="43.3350006" lon="11.4073898"><ele>297.0</ele><time>2026-04-04T09:49:00.186Z</time></trkpt><trkpt lat="43.3349165" lon="11.4074121"><ele>297.0</ele><time>2026-04-04T09:49:01.188Z</time></trkpt><trkpt lat="43.3348147" lon="11.4074393"><ele>297.0</ele><time>2026-04-04T09:49:02.189Z</time></trkpt><trkpt lat="43.334719" lon="11.4074415"><ele>297.0</ele><time>2026-04-04T09:49:03.186Z</time></trkpt><trkpt lat="43.3346265" lon="11.4074352"><ele>297.0</ele><time>2026-04-04T09:49:04.188Z</time></trkpt><trkpt lat="43.3345562" lon="11.4074476"><ele>297.0</ele><time>2026-04-04T09:49:05.187Z</time></trkpt><trkpt lat="43.3344893" lon="11.4074539"><ele>297.0</ele><time>2026-04-04T09:49:06.187Z</time></trkpt><trkpt lat="43.3343639" lon="11.4074339"><ele>295.8333333333333</ele><time>2026-04-04T09:49:08.187Z</time></trkpt><trkpt lat="43.3342773" lon="11.4073414"><ele>294.6666666666667</ele><time>2026-04-04T09:49:10.186Z</time></trkpt><trkpt lat="43.3342512" lon="11.4072571"><ele>293.5</ele><time>2026-04-04T09:49:11.186Z</time></trkpt><trkpt lat="43.3342319" lon="11.4071563"><ele>292.33333333333337</ele><time>2026-04-04T09:49:12.187Z</time></trkpt><trkpt lat="43.3342232" lon="11.4070444"><ele>291.1666666666667</ele><time>2026-04-04T09:49:13.188Z</time></trkpt><trkpt lat="43.3342087" lon="11.4069246"><ele>290.0</ele><time>2026-04-04T09:49:14.187Z</time></trkpt><trkpt lat="43.3341963" lon="11.4068085"><ele>289.83333333333337</ele><time>2026-04-04T09:49:15.188Z</time></trkpt><trkpt lat="43.3341758" lon="11.4067023"><ele>289.6666666666667</ele><time>2026-04-04T09:49:16.187Z</time></trkpt><trkpt lat="43.3341508" lon="11.4065846"><ele>289.5</ele><time>2026-04-04T09:49:17.186Z</time></trkpt><trkpt lat="43.3341415" lon="11.4064641"><ele>289.3333333333333</ele><time>2026-04-04T09:49:18.188Z</time></trkpt><trkpt lat="43.3341247" lon="11.4063407"><ele>289.16666666666663</ele><time>2026-04-04T09:49:19.187Z</time></trkpt><trkpt lat="43.3341128" lon="11.40624"><ele>289.0</ele><time>2026-04-04T09:49:20.188Z</time></trkpt><trkpt lat="43.3340978" lon="11.4061258"><ele>288.5</ele><time>2026-04-04T09:49:21.188Z</time></trkpt><trkpt lat="43.3340891" lon="11.4060139"><ele>288.0</ele><time>2026-04-04T09:49:22.186Z</time></trkpt><trkpt lat="43.3340864" lon="11.4058968"><ele>287.5</ele><time>2026-04-04T09:49:23.187Z</time></trkpt><trkpt lat="43.3340918" lon="11.4057813"><ele>287.0</ele><time>2026-04-04T09:49:24.186Z</time></trkpt><trkpt lat="43.334101" lon="11.4056578"><ele>286.5</ele><time>2026-04-04T09:49:25.187Z</time></trkpt><trkpt lat="43.3341101" lon="11.4055288"><ele>286.0</ele><time>2026-04-04T09:49:26.187Z</time></trkpt><trkpt lat="43.334118" lon="11.4054007"><ele>285.2</ele><time>2026-04-04T09:49:27.188Z</time></trkpt><trkpt lat="43.3341425" lon="11.4052661"><ele>284.40000000000003</ele><time>2026-04-04T09:49:28.188Z</time></trkpt><trkpt lat="43.3341526" lon="11.4051367"><ele>283.6</ele><time>2026-04-04T09:49:29.186Z</time></trkpt><trkpt lat="43.3341648" lon="11.4050122"><ele>282.8</ele><time>2026-04-04T09:49:30.188Z</time></trkpt><trkpt lat="43.3341735" lon="11.4048922"><ele>282.0</ele><time>2026-04-04T09:49:31.185Z</time></trkpt><trkpt lat="43.3341804" lon="11.4047786"><ele>282.0</ele><time>2026-04-04T09:49:32.186Z</time></trkpt><trkpt lat="43.3341874" lon="11.4046676"><ele>282.0</ele><time>2026-04-04T09:49:33.186Z</time></trkpt><trkpt lat="43.3341975" lon="11.4045668"><ele>282.0</ele><time>2026-04-04T09:49:34.187Z</time></trkpt><trkpt lat="43.3342044" lon="11.4044633"><ele>282.0</ele><time>2026-04-04T09:49:35.187Z</time></trkpt><trkpt lat="43.3342177" lon="11.4043664"><ele>282.0</ele><time>2026-04-04T09:49:36.187Z</time></trkpt><trkpt lat="43.3342192" lon="11.4042621"><ele>282.0</ele><time>2026-04-04T09:49:37.187Z</time></trkpt><trkpt lat="43.3342117" lon="11.4041743"><ele>282.0</ele><time>2026-04-04T09:49:38.186Z</time></trkpt><trkpt lat="43.3341605" lon="11.4040313"><ele>282.0</ele><time>2026-04-04T09:49:40.187Z</time></trkpt><trkpt lat="43.3340559" lon="11.4039889"><ele>282.0</ele><time>2026-04-04T09:49:42.187Z</time></trkpt><trkpt lat="43.3339911" lon="11.4040135"><ele>282.0</ele><time>2026-04-04T09:49:43.187Z</time></trkpt><trkpt lat="43.3339182" lon="11.4040479"><ele>282.0</ele><time>2026-04-04T09:49:44.187Z</time></trkpt><trkpt lat="43.3338493" lon="11.4040879"><ele>282.0</ele><time>2026-04-04T09:49:45.188Z</time></trkpt><trkpt lat="43.3337848" lon="11.4041287"><ele>282.0</ele><time>2026-04-04T09:49:46.186Z</time></trkpt><trkpt lat="43.3337133" lon="11.4041643"><ele>281.7142857142857</ele><time>2026-04-04T09:49:47.186Z</time></trkpt><trkpt lat="43.3336523" lon="11.4041935"><ele>281.42857142857144</ele><time>2026-04-04T09:49:48.187Z</time></trkpt><trkpt lat="43.3335829" lon="11.4042264"><ele>281.1428571428571</ele><time>2026-04-04T09:49:49.186Z</time></trkpt><trkpt lat="43.333518" lon="11.4042584"><ele>280.8571428571429</ele><time>2026-04-04T09:49:50.188Z</time></trkpt><trkpt lat="43.3334484" lon="11.4042971"><ele>280.57142857142856</ele><time>2026-04-04T09:49:51.188Z</time></trkpt><trkpt lat="43.333382" lon="11.4043361"><ele>280.2857142857143</ele><time>2026-04-04T09:49:52.186Z</time></trkpt><trkpt lat="43.3333074" lon="11.4043822"><ele>280.0</ele><time>2026-04-04T09:49:53.186Z</time></trkpt><trkpt lat="43.3332364" lon="11.4044227"><ele>280.0</ele><time>2026-04-04T09:49:54.188Z</time></trkpt><trkpt lat="43.33316" lon="11.4044634"><ele>280.0</ele><time>2026-04-04T09:49:55.186Z</time></trkpt><trkpt lat="43.3330847" lon="11.4044876"><ele>280.0</ele><time>2026-04-04T09:49:56.187Z</time></trkpt><trkpt lat="43.3330034" lon="11.4045271"><ele>280.0</ele><time>2026-04-04T09:49:57.188Z</time></trkpt><trkpt lat="43.3329264" lon="11.4045702"><ele>280.0</ele><time>2026-04-04T09:49:58.187Z</time></trkpt><trkpt lat="43.3328562" lon="11.404617"><ele>280.0</ele><time>2026-04-04T09:49:59.187Z</time></trkpt><trkpt lat="43.3327721" lon="11.4046623"><ele>279.5</ele><time>2026-04-04T09:50:00.187Z</time></trkpt><trkpt lat="43.332688" lon="11.4047122"><ele>279.0</ele><time>2026-04-04T09:50:01.188Z</time></trkpt><trkpt lat="43.3326033" lon="11.4047585"><ele>278.5</ele><time>2026-04-04T09:50:02.186Z</time></trkpt><trkpt lat="43.3325267" lon="11.4048118"><ele>278.0</ele><time>2026-04-04T09:50:03.187Z</time></trkpt><trkpt lat="43.3324465" lon="11.4048579"><ele>277.5</ele><time>2026-04-04T09:50:04.188Z</time></trkpt><trkpt lat="43.3323714" lon="11.4048977"><ele>277.0</ele><time>2026-04-04T09:50:05.186Z</time></trkpt><trkpt lat="43.3322879" lon="11.404936"><ele>277.16666666666663</ele><time>2026-04-04T09:50:06.185Z</time></trkpt><trkpt lat="43.3322064" lon="11.4049838"><ele>277.3333333333333</ele><time>2026-04-04T09:50:07.186Z</time></trkpt><trkpt lat="43.3321254" lon="11.4050303"><ele>277.5</ele><time>2026-04-04T09:50:08.188Z</time></trkpt><trkpt lat="43.3320483" lon="11.4050628"><ele>277.6666666666667</ele><time>2026-04-04T09:50:09.187Z</time></trkpt><trkpt lat="43.3319744" lon="11.4050959"><ele>277.83333333333337</ele><time>2026-04-04T09:50:10.188Z</time></trkpt><trkpt lat="43.3318723" lon="11.4051506"><ele>278.0</ele><time>2026-04-04T09:50:11.186Z</time></trkpt><trkpt lat="43.331789" lon="11.4051813"><ele>278.0</ele><time>2026-04-04T09:50:12.186Z</time></trkpt><trkpt lat="43.331702" lon="11.4052091"><ele>278.0</ele><time>2026-04-04T09:50:13.188Z</time></trkpt><trkpt lat="43.3316155" lon="11.4052309"><ele>278.0</ele><time>2026-04-04T09:50:14.187Z</time></trkpt><trkpt lat="43.3315342" lon="11.4052449"><ele>278.0</ele><time>2026-04-04T09:50:15.188Z</time></trkpt><trkpt lat="43.3314532" lon="11.4052668"><ele>278.0</ele><time>2026-04-04T09:50:16.188Z</time></trkpt><trkpt lat="43.3313636" lon="11.4052919"><ele>278.0</ele><time>2026-04-04T09:50:17.186Z</time></trkpt><trkpt lat="43.3312642" lon="11.4053219"><ele>276.8</ele><time>2026-04-04T09:50:18.187Z</time></trkpt><trkpt lat="43.3311668" lon="11.4053429"><ele>275.6</ele><time>2026-04-04T09:50:19.188Z</time></trkpt><trkpt lat="43.3310628" lon="11.4053506"><ele>274.4</ele><time>2026-04-04T09:50:20.186Z</time></trkpt><trkpt lat="43.3309626" lon="11.405379"><ele>273.2</ele><time>2026-04-04T09:50:21.187Z</time></trkpt><trkpt lat="43.3308619" lon="11.4054104"><ele>272.0</ele><time>2026-04-04T09:50:22.187Z</time></trkpt><trkpt lat="43.3307731" lon="11.4054399"><ele>272.0</ele><time>2026-04-04T09:50:23.185Z</time></trkpt><trkpt lat="43.3306796" lon="11.405467"><ele>272.0</ele><time>2026-04-04T09:50:24.186Z</time></trkpt><trkpt lat="43.3305967" lon="11.40549"><ele>272.0</ele><time>2026-04-04T09:50:25.186Z</time></trkpt><trkpt lat="43.3305125" lon="11.4055161"><ele>272.0</ele><time>2026-04-04T09:50:26.187Z</time></trkpt><trkpt lat="43.3304398" lon="11.4055515"><ele>272.0</ele><time>2026-04-04T09:50:27.187Z</time></trkpt><trkpt lat="43.3303687" lon="11.4055745"><ele>272.0</ele><time>2026-04-04T09:50:28.187Z</time></trkpt><trkpt lat="43.3302879" lon="11.4056116"><ele>270.6666666666667</ele><time>2026-04-04T09:50:29.187Z</time></trkpt><trkpt lat="43.3302128" lon="11.4056581"><ele>269.33333333333337</ele><time>2026-04-04T09:50:30.187Z</time></trkpt><trkpt lat="43.3301299" lon="11.4056958"><ele>268.0</ele><time>2026-04-04T09:50:31.187Z</time></trkpt><trkpt lat="43.3300476" lon="11.4057455"><ele>266.6666666666667</ele><time>2026-04-04T09:50:32.185Z</time></trkpt><trkpt lat="43.3299763" lon="11.4057882"><ele>265.3333333333333</ele><time>2026-04-04T09:50:33.188Z</time></trkpt><trkpt lat="43.3299086" lon="11.4058319"><ele>264.0</ele><time>2026-04-04T09:50:34.187Z</time></trkpt><trkpt lat="43.329841" lon="11.4058799"><ele>264.0</ele><time>2026-04-04T09:50:35.187Z</time></trkpt><trkpt lat="43.3297774" lon="11.4059215"><ele>264.0</ele><time>2026-04-04T09:50:36.187Z</time></trkpt><trkpt lat="43.3297198" lon="11.4059622"><ele>264.0</ele><time>2026-04-04T09:50:37.187Z</time></trkpt><trkpt lat="43.3296631" lon="11.4060047"><ele>264.0</ele><time>2026-04-04T09:50:38.186Z</time></trkpt><trkpt lat="43.3295801" lon="11.4060894"><ele>264.0</ele><time>2026-04-04T09:50:40.186Z</time></trkpt><trkpt lat="43.3294984" lon="11.4061718"><ele>264.0</ele><time>2026-04-04T09:50:42.187Z</time></trkpt><trkpt lat="43.3294429" lon="11.4062368"><ele>263.2857142857143</ele><time>2026-04-04T09:50:45.186Z</time></trkpt><trkpt lat="43.3293831" lon="11.4063054"><ele>262.57142857142856</ele><time>2026-04-04T09:52:50.186Z</time></trkpt><trkpt lat="43.3293179" lon="11.4063974"><ele>261.8571428571429</ele><time>2026-04-04T09:52:52.185Z</time></trkpt><trkpt lat="43.329273" lon="11.4064626"><ele>261.1428571428571</ele><time>2026-04-04T09:52:53.186Z</time></trkpt><trkpt lat="43.3292206" lon="11.4065202"><ele>260.42857142857144</ele><time>2026-04-04T09:52:54.186Z</time></trkpt><trkpt lat="43.329164" lon="11.4065775"><ele>259.7142857142857</ele><time>2026-04-04T09:52:55.185Z</time></trkpt><trkpt lat="43.3291092" lon="11.4066435"><ele>259.0</ele><time>2026-04-04T09:52:56.185Z</time></trkpt><trkpt lat="43.3290503" lon="11.4067214"><ele>258.8</ele><time>2026-04-04T09:52:57.185Z</time></trkpt><trkpt lat="43.3289913" lon="11.4067968"><ele>258.59999999999997</ele><time>2026-04-04T09:52:58.184Z</time></trkpt><trkpt lat="43.3289254" lon="11.4068813"><ele>258.4</ele><time>2026-04-04T09:52:59.185Z</time></trkpt><trkpt lat="43.328852" lon="11.4069644"><ele>258.2</ele><time>2026-04-04T09:53:00.186Z</time></trkpt><trkpt lat="43.3287817" lon="11.4070466"><ele>258.0</ele><time>2026-04-04T09:53:01.185Z</time></trkpt><trkpt lat="43.328706" lon="11.4071268"><ele>257.0</ele><time>2026-04-04T09:53:02.185Z</time></trkpt><trkpt lat="43.3286385" lon="11.4072119"><ele>256.0</ele><time>2026-04-04T09:53:03.185Z</time></trkpt><trkpt lat="43.3285703" lon="11.4072984"><ele>255.0</ele><time>2026-04-04T09:53:04.185Z</time></trkpt><trkpt lat="43.3284958" lon="11.407381"><ele>254.0</ele><time>2026-04-04T09:53:05.185Z</time></trkpt><trkpt lat="43.3284266" lon="11.4074647"><ele>253.0</ele><time>2026-04-04T09:53:06.185Z</time></trkpt><trkpt lat="43.3283578" lon="11.4075457"><ele>252.99999999999997</ele><time>2026-04-04T09:53:07.186Z</time></trkpt><trkpt lat="43.3282925" lon="11.4076238"><ele>253.0</ele><time>2026-04-04T09:53:08.185Z</time></trkpt><trkpt lat="43.3282191" lon="11.4076859"><ele>253.0</ele><time>2026-04-04T09:53:09.185Z</time></trkpt><trkpt lat="43.3281501" lon="11.4077683"><ele>253.0</ele><time>2026-04-04T09:53:10.184Z</time></trkpt><trkpt lat="43.3280869" lon="11.4078554"><ele>252.99999999999997</ele><time>2026-04-04T09:53:11.185Z</time></trkpt><trkpt lat="43.3280258" lon="11.4079325"><ele>253.0</ele><time>2026-04-04T09:53:12.185Z</time></trkpt><trkpt lat="43.3279613" lon="11.4080069"><ele>253.0</ele><time>2026-04-04T09:53:13.186Z</time></trkpt><trkpt lat="43.3278991" lon="11.4080867"><ele>253.0</ele><time>2026-04-04T09:53:14.187Z</time></trkpt><trkpt lat="43.3278344" lon="11.4081812"><ele>253.0</ele><time>2026-04-04T09:53:15.187Z</time></trkpt><trkpt lat="43.3277643" lon="11.4082672"><ele>253.0</ele><time>2026-04-04T09:53:16.186Z</time></trkpt><trkpt lat="43.3276862" lon="11.4083594"><ele>253.0</ele><time>2026-04-04T09:53:17.185Z</time></trkpt><trkpt lat="43.3276068" lon="11.4084417"><ele>253.0</ele><time>2026-04-04T09:53:18.185Z</time></trkpt><trkpt lat="43.3275316" lon="11.4085267"><ele>253.0</ele><time>2026-04-04T09:53:19.186Z</time></trkpt><trkpt lat="43.3274549" lon="11.4086105"><ele>253.0</ele><time>2026-04-04T09:53:20.185Z</time></trkpt><trkpt lat="43.3273764" lon="11.408698"><ele>253.0</ele><time>2026-04-04T09:53:21.184Z</time></trkpt><trkpt lat="43.3272971" lon="11.4087888"><ele>253.0</ele><time>2026-04-04T09:53:22.185Z</time></trkpt><trkpt lat="43.3272083" lon="11.4088697"><ele>251.60000000000002</ele><time>2026-04-04T09:53:23.186Z</time></trkpt><trkpt lat="43.3271327" lon="11.4089522"><ele>250.20000000000002</ele><time>2026-04-04T09:53:24.187Z</time></trkpt><trkpt lat="43.3270612" lon="11.4090521"><ele>248.8</ele><time>2026-04-04T09:53:25.184Z</time></trkpt><trkpt lat="43.3269954" lon="11.4091607"><ele>247.4</ele><time>2026-04-04T09:53:26.185Z</time></trkpt><trkpt lat="43.32693" lon="11.4092684"><ele>246.0</ele><time>2026-04-04T09:53:27.186Z</time></trkpt><trkpt lat="43.3268726" lon="11.4093922"><ele>246.0</ele><time>2026-04-04T09:53:28.185Z</time></trkpt><trkpt lat="43.3268036" lon="11.4094966"><ele>246.00000000000003</ele><time>2026-04-04T09:53:29.185Z</time></trkpt><trkpt lat="43.3267316" lon="11.4095925"><ele>246.00000000000003</ele><time>2026-04-04T09:53:30.185Z</time></trkpt><trkpt lat="43.3266514" lon="11.4096927"><ele>246.0</ele><time>2026-04-04T09:53:31.186Z</time></trkpt><trkpt lat="43.3265797" lon="11.4097789"><ele>246.0</ele><time>2026-04-04T09:53:32.187Z</time></trkpt><trkpt lat="43.3264956" lon="11.4098513"><ele>245.4</ele><time>2026-04-04T09:53:33.186Z</time></trkpt><trkpt lat="43.3264228" lon="11.40994"><ele>244.8</ele><time>2026-04-04T09:53:34.185Z</time></trkpt><trkpt lat="43.3263567" lon="11.4100232"><ele>244.20000000000002</ele><time>2026-04-04T09:53:35.186Z</time></trkpt><trkpt lat="43.3262848" lon="11.410103"><ele>243.60000000000002</ele><time>2026-04-04T09:53:36.185Z</time></trkpt><trkpt lat="43.3262272" lon="11.4101686"><ele>243.0</ele><time>2026-04-04T09:53:37.185Z</time></trkpt><trkpt lat="43.3261383" lon="11.4102836"><ele>243.0</ele><time>2026-04-04T09:53:39.186Z</time></trkpt><trkpt lat="43.3260499" lon="11.4103485"><ele>243.0</ele><time>2026-04-04T09:53:41.186Z</time></trkpt><trkpt lat="43.325966" lon="11.4103288"><ele>243.0</ele><time>2026-04-04T09:53:43.186Z</time></trkpt><trkpt lat="43.3259013" lon="11.4102032"><ele>243.0</ele><time>2026-04-04T09:53:45.187Z</time></trkpt><trkpt lat="43.3258704" lon="11.4101102"><ele>243.0</ele><time>2026-04-04T09:53:46.184Z</time></trkpt><trkpt lat="43.3258397" lon="11.4100005"><ele>243.0</ele><time>2026-04-04T09:53:47.184Z</time></trkpt><trkpt lat="43.3258173" lon="11.4098848"><ele>243.0</ele><time>2026-04-04T09:53:48.186Z</time></trkpt><trkpt lat="43.3258107" lon="11.4097625"><ele>243.0</ele><time>2026-04-04T09:53:49.185Z</time></trkpt><trkpt lat="43.3258186" lon="11.4096307"><ele>243.0</ele><time>2026-04-04T09:53:50.185Z</time></trkpt><trkpt lat="43.3258302" lon="11.4094931"><ele>243.0</ele><time>2026-04-04T09:53:51.185Z</time></trkpt><trkpt lat="43.3258323" lon="11.409355"><ele>241.4</ele><time>2026-04-04T09:53:52.186Z</time></trkpt><trkpt lat="43.3258305" lon="11.4092219"><ele>239.8</ele><time>2026-04-04T09:53:53.186Z</time></trkpt><trkpt lat="43.3258268" lon="11.409091"><ele>238.2</ele><time>2026-04-04T09:53:54.184Z</time></trkpt><trkpt lat="43.3258128" lon="11.4089488"><ele>236.6</ele><time>2026-04-04T09:53:55.187Z</time></trkpt><trkpt lat="43.3258021" lon="11.4087947"><ele>235.0</ele><time>2026-04-04T09:53:56.187Z</time></trkpt><trkpt lat="43.3257875" lon="11.4086422"><ele>234.0</ele><time>2026-04-04T09:53:57.185Z</time></trkpt><trkpt lat="43.3257695" lon="11.4084908"><ele>233.0</ele><time>2026-04-04T09:53:58.185Z</time></trkpt><trkpt lat="43.3257562" lon="11.4083376"><ele>232.0</ele><time>2026-04-04T09:53:59.185Z</time></trkpt><trkpt lat="43.3257377" lon="11.4081752"><ele>231.0</ele><time>2026-04-04T09:54:00.187Z</time></trkpt><trkpt lat="43.325714" lon="11.4080065"><ele>230.0</ele><time>2026-04-04T09:54:01.185Z</time></trkpt><trkpt lat="43.3256988" lon="11.4078436"><ele>229.0</ele><time>2026-04-04T09:54:02.185Z</time></trkpt><trkpt lat="43.3256836" lon="11.4076718"><ele>228.0</ele><time>2026-04-04T09:54:03.186Z</time></trkpt><trkpt lat="43.3256651" lon="11.40748"><ele>227.0</ele><time>2026-04-04T09:54:04.185Z</time></trkpt><trkpt lat="43.3256409" lon="11.4072653"><ele>225.66666666666669</ele><time>2026-04-04T09:54:05.185Z</time></trkpt><trkpt lat="43.3256107" lon="11.4070491"><ele>224.33333333333331</ele><time>2026-04-04T09:54:06.186Z</time></trkpt><trkpt lat="43.3255704" lon="11.4068511"><ele>223.0</ele><time>2026-04-04T09:54:07.185Z</time></trkpt><trkpt lat="43.3255058" lon="11.4066767"><ele>223.0</ele><time>2026-04-04T09:54:08.186Z</time></trkpt><trkpt lat="43.3254254" lon="11.4065086"><ele>223.0</ele><time>2026-04-04T09:54:09.185Z</time></trkpt><trkpt lat="43.3253426" lon="11.4063431"><ele>223.0</ele><time>2026-04-04T09:54:10.186Z</time></trkpt><trkpt lat="43.3252671" lon="11.406175"><ele>223.0</ele><time>2026-04-04T09:54:11.186Z</time></trkpt><trkpt lat="43.3252033" lon="11.4059744"><ele>221.0</ele><time>2026-04-04T09:54:12.184Z</time></trkpt><trkpt lat="43.3251372" lon="11.4057713"><ele>219.0</ele><time>2026-04-04T09:54:13.185Z</time></trkpt><trkpt lat="43.3250711" lon="11.4055735"><ele>217.0</ele><time>2026-04-04T09:54:14.185Z</time></trkpt><trkpt lat="43.3250171" lon="11.4053677"><ele>216.33333333333331</ele><time>2026-04-04T09:54:15.187Z</time></trkpt><trkpt lat="43.3249777" lon="11.4051669"><ele>215.66666666666669</ele><time>2026-04-04T09:54:16.185Z</time></trkpt><trkpt lat="43.3249514" lon="11.4049582"><ele>215.0</ele><time>2026-04-04T09:54:17.185Z</time></trkpt><trkpt lat="43.3249438" lon="11.4047578"><ele>214.75</ele><time>2026-04-04T09:54:18.186Z</time></trkpt><trkpt lat="43.3249383" lon="11.4045568"><ele>214.5</ele><time>2026-04-04T09:54:19.185Z</time></trkpt><trkpt lat="43.324938" lon="11.4043584"><ele>214.25</ele><time>2026-04-04T09:54:20.186Z</time></trkpt><trkpt lat="43.3249351" lon="11.4041631"><ele>214.0</ele><time>2026-04-04T09:54:21.185Z</time></trkpt><trkpt lat="43.324932" lon="11.4039682"><ele>213.5</ele><time>2026-04-04T09:54:22.185Z</time></trkpt><trkpt lat="43.324936" lon="11.4037797"><ele>213.0</ele><time>2026-04-04T09:54:23.184Z</time></trkpt><trkpt lat="43.3249452" lon="11.403587"><ele>212.5</ele><time>2026-04-04T09:54:24.184Z</time></trkpt><trkpt lat="43.3249632" lon="11.4034057"><ele>212.0</ele><time>2026-04-04T09:54:25.186Z</time></trkpt><trkpt lat="43.3249745" lon="11.4032199"><ele>212.0</ele><time>2026-04-04T09:54:26.186Z</time></trkpt><trkpt lat="43.3250041" lon="11.4030391"><ele>212.0</ele><time>2026-04-04T09:54:27.184Z</time></trkpt><trkpt lat="43.3250194" lon="11.4028521"><ele>212.0</ele><time>2026-04-04T09:54:28.185Z</time></trkpt><trkpt lat="43.3250343" lon="11.4026694"><ele>212.0</ele><time>2026-04-04T09:54:29.184Z</time></trkpt><trkpt lat="43.3250559" lon="11.4024861"><ele>213.0</ele><time>2026-04-04T09:54:30.185Z</time></trkpt><trkpt lat="43.3250711" lon="11.4023071"><ele>214.0</ele><time>2026-04-04T09:54:31.184Z</time></trkpt><trkpt lat="43.325085" lon="11.4021287"><ele>215.0</ele><time>2026-04-04T09:54:32.185Z</time></trkpt><trkpt lat="43.3250982" lon="11.4019364"><ele>216.0</ele><time>2026-04-04T09:54:33.184Z</time></trkpt><trkpt lat="43.3250984" lon="11.4017308"><ele>218.5</ele><time>2026-04-04T09:54:34.185Z</time></trkpt><trkpt lat="43.3250935" lon="11.4015129"><ele>221.0</ele><time>2026-04-04T09:54:35.185Z</time></trkpt><trkpt lat="43.3250859" lon="11.4013188"><ele>223.5</ele><time>2026-04-04T09:54:36.184Z</time></trkpt><trkpt lat="43.3250847" lon="11.4011509"><ele>226.0</ele><time>2026-04-04T09:54:37.185Z</time></trkpt><trkpt lat="43.3250998" lon="11.4010123"><ele>226.83333333333331</ele><time>2026-04-04T09:54:38.185Z</time></trkpt><trkpt lat="43.3250981" lon="11.400881"><ele>227.66666666666666</ele><time>2026-04-04T09:54:39.186Z</time></trkpt><trkpt lat="43.3250952" lon="11.4007655"><ele>228.5</ele><time>2026-04-04T09:54:40.185Z</time></trkpt><trkpt lat="43.3251053" lon="11.4006541"><ele>229.33333333333331</ele><time>2026-04-04T09:54:41.185Z</time></trkpt><trkpt lat="43.325119" lon="11.4005375"><ele>230.16666666666666</ele><time>2026-04-04T09:54:42.185Z</time></trkpt><trkpt lat="43.325139" lon="11.4004186"><ele>231.0</ele><time>2026-04-04T09:54:43.184Z</time></trkpt><trkpt lat="43.3251601" lon="11.4002909"><ele>232.0</ele><time>2026-04-04T09:54:44.186Z</time></trkpt><trkpt lat="43.3251745" lon="11.4001548"><ele>233.00000000000003</ele><time>2026-04-04T09:54:45.186Z</time></trkpt><trkpt lat="43.3251909" lon="11.4000238"><ele>234.00000000000003</ele><time>2026-04-04T09:54:46.186Z</time></trkpt><trkpt lat="43.3251944" lon="11.3998797"><ele>235.0</ele><time>2026-04-04T09:54:47.183Z</time></trkpt><trkpt lat="43.3251825" lon="11.3997383"><ele>236.0</ele><time>2026-04-04T09:54:48.183Z</time></trkpt><trkpt lat="43.3251783" lon="11.3995814"><ele>237.25</ele><time>2026-04-04T09:54:49.185Z</time></trkpt><trkpt lat="43.3251719" lon="11.39943"><ele>238.5</ele><time>2026-04-04T09:54:50.184Z</time></trkpt><trkpt lat="43.3251554" lon="11.3992664"><ele>239.75</ele><time>2026-04-04T09:54:51.183Z</time></trkpt><trkpt lat="43.3251448" lon="11.3991017"><ele>241.0</ele><time>2026-04-04T09:54:52.183Z</time></trkpt><trkpt lat="43.3251347" lon="11.3989317"><ele>242.5</ele><time>2026-04-04T09:54:53.185Z</time></trkpt><trkpt lat="43.325125" lon="11.3987642"><ele>244.0</ele><time>2026-04-04T09:54:54.184Z</time></trkpt><trkpt lat="43.3251148" lon="11.3985975"><ele>245.5</ele><time>2026-04-04T09:54:55.184Z</time></trkpt><trkpt lat="43.3251066" lon="11.3984299"><ele>247.0</ele><time>2026-04-04T09:54:56.185Z</time></trkpt><trkpt lat="43.3251066" lon="11.3982547"><ele>247.0</ele><time>2026-04-04T09:54:57.185Z</time></trkpt><trkpt lat="43.3251063" lon="11.3980879"><ele>247.0</ele><time>2026-04-04T09:54:58.186Z</time></trkpt><trkpt lat="43.3251155" lon="11.3979238"><ele>247.0</ele><time>2026-04-04T09:54:59.184Z</time></trkpt><trkpt lat="43.3251335" lon="11.3977676"><ele>247.0</ele><time>2026-04-04T09:55:00.185Z</time></trkpt><trkpt lat="43.3251863" lon="11.3976102"><ele>247.0</ele><time>2026-04-04T09:55:01.184Z</time></trkpt><trkpt lat="43.3252353" lon="11.3974607"><ele>247.0</ele><time>2026-04-04T09:55:02.184Z</time></trkpt><trkpt lat="43.3252849" lon="11.3973168"><ele>247.0</ele><time>2026-04-04T09:55:03.185Z</time></trkpt><trkpt lat="43.3253337" lon="11.3971612"><ele>247.0</ele><time>2026-04-04T09:55:04.186Z</time></trkpt><trkpt lat="43.32538" lon="11.397002"><ele>247.0</ele><time>2026-04-04T09:55:05.185Z</time></trkpt><trkpt lat="43.3254212" lon="11.396852"><ele>247.0</ele><time>2026-04-04T09:55:06.186Z</time></trkpt><trkpt lat="43.3254772" lon="11.3967049"><ele>247.0</ele><time>2026-04-04T09:55:07.184Z</time></trkpt><trkpt lat="43.3255218" lon="11.3965402"><ele>247.0</ele><time>2026-04-04T09:55:08.185Z</time></trkpt><trkpt lat="43.3255704" lon="11.3963662"><ele>247.75</ele><time>2026-04-04T09:55:09.185Z</time></trkpt><trkpt lat="43.3256292" lon="11.3961965"><ele>248.5</ele><time>2026-04-04T09:55:10.185Z</time></trkpt><trkpt lat="43.3256746" lon="11.3960154"><ele>249.25</ele><time>2026-04-04T09:55:11.185Z</time></trkpt><trkpt lat="43.3256978" lon="11.3958257"><ele>250.0</ele><time>2026-04-04T09:55:12.184Z</time></trkpt><trkpt lat="43.3257093" lon="11.3956315"><ele>250.5</ele><time>2026-04-04T09:55:13.184Z</time></trkpt><trkpt lat="43.3257127" lon="11.3954379"><ele>251.0</ele><time>2026-04-04T09:55:14.185Z</time></trkpt><trkpt lat="43.3257228" lon="11.395242"><ele>251.5</ele><time>2026-04-04T09:55:15.184Z</time></trkpt><trkpt lat="43.3257176" lon="11.3950602"><ele>252.0</ele><time>2026-04-04T09:55:16.185Z</time></trkpt><trkpt lat="43.3257107" lon="11.3948737"><ele>252.0</ele><time>2026-04-04T09:55:17.186Z</time></trkpt><trkpt lat="43.3256996" lon="11.3946932"><ele>252.0</ele><time>2026-04-04T09:55:18.184Z</time></trkpt><trkpt lat="43.3256713" lon="11.3945073"><ele>252.0</ele><time>2026-04-04T09:55:19.183Z</time></trkpt><trkpt lat="43.3256397" lon="11.3943207"><ele>252.0</ele><time>2026-04-04T09:55:20.185Z</time></trkpt><trkpt lat="43.3255919" lon="11.3941398"><ele>253.0</ele><time>2026-04-04T09:55:21.184Z</time></trkpt><trkpt lat="43.3255229" lon="11.393957"><ele>254.0</ele><time>2026-04-04T09:55:22.185Z</time></trkpt><trkpt lat="43.3254597" lon="11.3937677"><ele>255.0</ele><time>2026-04-04T09:55:23.183Z</time></trkpt><trkpt lat="43.3254065" lon="11.3935763"><ele>256.25</ele><time>2026-04-04T09:55:24.184Z</time></trkpt><trkpt lat="43.3253579" lon="11.3933802"><ele>257.5</ele><time>2026-04-04T09:55:25.186Z</time></trkpt><trkpt lat="43.325311" lon="11.3931911"><ele>258.75</ele><time>2026-04-04T09:55:26.184Z</time></trkpt><trkpt lat="43.3252558" lon="11.3929957"><ele>260.0</ele><time>2026-04-04T09:55:27.185Z</time></trkpt><trkpt lat="43.3251982" lon="11.3928329"><ele>260.8</ele><time>2026-04-04T09:55:28.185Z</time></trkpt><trkpt lat="43.3251448" lon="11.3926831"><ele>261.6</ele><time>2026-04-04T09:55:29.185Z</time></trkpt><trkpt lat="43.3250813" lon="11.3925771"><ele>262.4</ele><time>2026-04-04T09:55:30.185Z</time></trkpt><trkpt lat="43.3250116" lon="11.3925184"><ele>263.2</ele><time>2026-04-04T09:55:31.186Z</time></trkpt><trkpt lat="43.3249333" lon="11.3924979"><ele>264.0</ele><time>2026-04-04T09:55:32.185Z</time></trkpt><trkpt lat="43.3248283" lon="11.3925011"><ele>264.2</ele><time>2026-04-04T09:55:33.184Z</time></trkpt><trkpt lat="43.3247181" lon="11.3925244"><ele>264.4</ele><time>2026-04-04T09:55:34.184Z</time></trkpt><trkpt lat="43.3246114" lon="11.3925302"><ele>264.6</ele><time>2026-04-04T09:55:35.185Z</time></trkpt><trkpt lat="43.3245056" lon="11.3925175"><ele>264.8</ele><time>2026-04-04T09:55:36.184Z</time></trkpt><trkpt lat="43.3243955" lon="11.3924839"><ele>265.0</ele><time>2026-04-04T09:55:37.185Z</time></trkpt><trkpt lat="43.324288" lon="11.3924261"><ele>265.0</ele><time>2026-04-04T09:55:38.184Z</time></trkpt><trkpt lat="43.3241778" lon="11.3923826"><ele>265.0</ele><time>2026-04-04T09:55:39.184Z</time></trkpt><trkpt lat="43.3240644" lon="11.3923471"><ele>265.0</ele><time>2026-04-04T09:55:40.185Z</time></trkpt><trkpt lat="43.323943" lon="11.3923082"><ele>265.0</ele><time>2026-04-04T09:55:41.183Z</time></trkpt><trkpt lat="43.3238302" lon="11.3922665"><ele>264.8</ele><time>2026-04-04T09:55:42.184Z</time></trkpt><trkpt lat="43.3237196" lon="11.3922337"><ele>264.6</ele><time>2026-04-04T09:55:43.183Z</time></trkpt><trkpt lat="43.3236021" lon="11.3922102"><ele>264.4</ele><time>2026-04-04T09:55:44.184Z</time></trkpt><trkpt lat="43.3234935" lon="11.3921929"><ele>264.2</ele><time>2026-04-04T09:55:45.184Z</time></trkpt><trkpt lat="43.3233879" lon="11.3921602"><ele>264.0</ele><time>2026-04-04T09:55:46.185Z</time></trkpt><trkpt lat="43.3232815" lon="11.3921363"><ele>262.59999999999997</ele><time>2026-04-04T09:55:47.184Z</time></trkpt><trkpt lat="43.3231723" lon="11.392106"><ele>261.2</ele><time>2026-04-04T09:55:48.184Z</time></trkpt><trkpt lat="43.3230638" lon="11.3920677"><ele>259.79999999999995</ele><time>2026-04-04T09:55:49.186Z</time></trkpt><trkpt lat="43.3229557" lon="11.3920341"><ele>258.4</ele><time>2026-04-04T09:55:50.185Z</time></trkpt><trkpt lat="43.3228557" lon="11.3919916"><ele>257.0</ele><time>2026-04-04T09:55:51.184Z</time></trkpt><trkpt lat="43.3227461" lon="11.3919573"><ele>257.0</ele><time>2026-04-04T09:55:52.185Z</time></trkpt><trkpt lat="43.322634" lon="11.3919361"><ele>257.0</ele><time>2026-04-04T09:55:53.185Z</time></trkpt><trkpt lat="43.3225179" lon="11.3919059"><ele>257.0</ele><time>2026-04-04T09:55:54.185Z</time></trkpt><trkpt lat="43.3224069" lon="11.3918721"><ele>257.0</ele><time>2026-04-04T09:55:55.185Z</time></trkpt><trkpt lat="43.3222901" lon="11.3918459"><ele>256.0</ele><time>2026-04-04T09:55:56.183Z</time></trkpt><trkpt lat="43.3221607" lon="11.3918116"><ele>255.0</ele><time>2026-04-04T09:55:57.185Z</time></trkpt><trkpt lat="43.3220238" lon="11.3917683"><ele>254.0</ele><time>2026-04-04T09:55:58.183Z</time></trkpt><trkpt lat="43.3218899" lon="11.391732"><ele>253.0</ele><time>2026-04-04T09:55:59.183Z</time></trkpt><trkpt lat="43.3217469" lon="11.3916985"><ele>253.0</ele><time>2026-04-04T09:56:00.183Z</time></trkpt><trkpt lat="43.3216259" lon="11.3916394"><ele>253.0</ele><time>2026-04-04T09:56:01.186Z</time></trkpt><trkpt lat="43.3215031" lon="11.3915828"><ele>253.0</ele><time>2026-04-04T09:56:02.185Z</time></trkpt><trkpt lat="43.3213693" lon="11.3915089"><ele>253.0</ele><time>2026-04-04T09:56:03.184Z</time></trkpt><trkpt lat="43.3212406" lon="11.3914226"><ele>251.5</ele><time>2026-04-04T09:56:04.183Z</time></trkpt><trkpt lat="43.3211237" lon="11.3913333"><ele>250.0</ele><time>2026-04-04T09:56:05.185Z</time></trkpt><trkpt lat="43.3209944" lon="11.3912519"><ele>248.5</ele><time>2026-04-04T09:56:06.186Z</time></trkpt><trkpt lat="43.3208725" lon="11.3911499"><ele>247.0</ele><time>2026-04-04T09:56:07.185Z</time></trkpt><trkpt lat="43.3207531" lon="11.3910817"><ele>247.0</ele><time>2026-04-04T09:56:08.185Z</time></trkpt><trkpt lat="43.3206372" lon="11.3910128"><ele>247.0</ele><time>2026-04-04T09:56:09.185Z</time></trkpt><trkpt lat="43.3205195" lon="11.3909685"><ele>247.0</ele><time>2026-04-04T09:56:10.185Z</time></trkpt><trkpt lat="43.3204155" lon="11.3909394"><ele>247.0</ele><time>2026-04-04T09:56:11.185Z</time></trkpt><trkpt lat="43.3203248" lon="11.3909089"><ele>247.0</ele><time>2026-04-04T09:56:12.186Z</time></trkpt><trkpt lat="43.3202373" lon="11.3908794"><ele>247.0</ele><time>2026-04-04T09:56:13.184Z</time></trkpt><trkpt lat="43.3201641" lon="11.3908241"><ele>247.0</ele><time>2026-04-04T09:56:14.185Z</time></trkpt><trkpt lat="43.3201152" lon="11.3907256"><ele>247.0</ele><time>2026-04-04T09:56:15.183Z</time></trkpt><trkpt lat="43.3200894" lon="11.3906044"><ele>247.0</ele><time>2026-04-04T09:56:16.183Z</time></trkpt><trkpt lat="43.320064" lon="11.3904612"><ele>247.0</ele><time>2026-04-04T09:56:17.183Z</time></trkpt><trkpt lat="43.3200391" lon="11.3903023"><ele>247.0</ele><time>2026-04-04T09:56:18.185Z</time></trkpt><trkpt lat="43.3200108" lon="11.3901428"><ele>247.0</ele><time>2026-04-04T09:56:19.184Z</time></trkpt><trkpt lat="43.3199736" lon="11.3899841"><ele>247.0</ele><time>2026-04-04T09:56:20.184Z</time></trkpt><trkpt lat="43.3199377" lon="11.3898222"><ele>247.0</ele><time>2026-04-04T09:56:21.184Z</time></trkpt><trkpt lat="43.3198945" lon="11.3896497"><ele>246.0</ele><time>2026-04-04T09:56:22.184Z</time></trkpt><trkpt lat="43.3198441" lon="11.3894852"><ele>245.0</ele><time>2026-04-04T09:56:23.183Z</time></trkpt><trkpt lat="43.3197995" lon="11.3893171"><ele>244.0</ele><time>2026-04-04T09:56:24.184Z</time></trkpt><trkpt lat="43.3197487" lon="11.3891333"><ele>243.0</ele><time>2026-04-04T09:56:25.184Z</time></trkpt><trkpt lat="43.3197043" lon="11.3889223"><ele>239.5</ele><time>2026-04-04T09:56:26.184Z</time></trkpt><trkpt lat="43.3196659" lon="11.3887359"><ele>236.0</ele><time>2026-04-04T09:56:27.184Z</time></trkpt><trkpt lat="43.3196238" lon="11.3885468"><ele>232.5</ele><time>2026-04-04T09:56:28.185Z</time></trkpt><trkpt lat="43.3195872" lon="11.3883643"><ele>229.0</ele><time>2026-04-04T09:56:29.185Z</time></trkpt><trkpt lat="43.3195574" lon="11.3881881"><ele>229.0</ele><time>2026-04-04T09:56:30.184Z</time></trkpt><trkpt lat="43.3195331" lon="11.3880206"><ele>228.99999999999997</ele><time>2026-04-04T09:56:31.185Z</time></trkpt><trkpt lat="43.3195068" lon="11.3878649"><ele>228.99999999999997</ele><time>2026-04-04T09:56:32.183Z</time></trkpt><trkpt lat="43.3194824" lon="11.3877328"><ele>229.0</ele><time>2026-04-04T09:56:33.183Z</time></trkpt><trkpt lat="43.3194403" lon="11.3876157"><ele>229.0</ele><time>2026-04-04T09:56:34.184Z</time></trkpt><trkpt lat="43.3193834" lon="11.387509"><ele>229.0</ele><time>2026-04-04T09:56:35.185Z</time></trkpt><trkpt lat="43.3192941" lon="11.3874255"><ele>228.99999999999997</ele><time>2026-04-04T09:56:36.185Z</time></trkpt><trkpt lat="43.3192018" lon="11.387369"><ele>228.99999999999997</ele><time>2026-04-04T09:56:37.185Z</time></trkpt><trkpt lat="43.3191245" lon="11.3872986"><ele>229.0</ele><time>2026-04-04T09:56:38.184Z</time></trkpt><trkpt lat="43.3190657" lon="11.3871957"><ele>229.0</ele><time>2026-04-04T09:56:39.183Z</time></trkpt><trkpt lat="43.3190471" lon="11.3870673"><ele>228.6</ele><time>2026-04-04T09:56:40.184Z</time></trkpt><trkpt lat="43.3190613" lon="11.3869269"><ele>228.2</ele><time>2026-04-04T09:56:41.184Z</time></trkpt><trkpt lat="43.3190924" lon="11.3867945"><ele>227.79999999999998</ele><time>2026-04-04T09:56:42.183Z</time></trkpt><trkpt lat="43.319134" lon="11.3866742"><ele>227.39999999999998</ele><time>2026-04-04T09:56:43.183Z</time></trkpt><trkpt lat="43.3191907" lon="11.3865708"><ele>227.0</ele><time>2026-04-04T09:56:44.183Z</time></trkpt><trkpt lat="43.3192711" lon="11.3864906"><ele>227.0</ele><time>2026-04-04T09:56:45.184Z</time></trkpt><trkpt lat="43.3193607" lon="11.3864118"><ele>227.0</ele><time>2026-04-04T09:56:46.184Z</time></trkpt><trkpt lat="43.3194664" lon="11.3863474"><ele>227.0</ele><time>2026-04-04T09:56:47.186Z</time></trkpt><trkpt lat="43.3195684" lon="11.3862739"><ele>227.0</ele><time>2026-04-04T09:56:48.184Z</time></trkpt><trkpt lat="43.319672" lon="11.3862195"><ele>227.0</ele><time>2026-04-04T09:56:49.185Z</time></trkpt><trkpt lat="43.3197753" lon="11.3861677"><ele>226.0</ele><time>2026-04-04T09:56:50.185Z</time></trkpt><trkpt lat="43.3198837" lon="11.3861097"><ele>225.0</ele><time>2026-04-04T09:56:51.185Z</time></trkpt><trkpt lat="43.3199661" lon="11.3860231"><ele>224.0</ele><time>2026-04-04T09:56:52.184Z</time></trkpt><trkpt lat="43.3200366" lon="11.3859278"><ele>223.0</ele><time>2026-04-04T09:56:53.185Z</time></trkpt><trkpt lat="43.3200915" lon="11.3858227"><ele>222.0</ele><time>2026-04-04T09:56:54.183Z</time></trkpt><trkpt lat="43.3201228" lon="11.3856963"><ele>222.0</ele><time>2026-04-04T09:56:55.185Z</time></trkpt><trkpt lat="43.3201276" lon="11.3855609"><ele>222.0</ele><time>2026-04-04T09:56:56.184Z</time></trkpt><trkpt lat="43.320125" lon="11.3854152"><ele>222.0</ele><time>2026-04-04T09:56:57.185Z</time></trkpt><trkpt lat="43.3201251" lon="11.3852623"><ele>222.0</ele><time>2026-04-04T09:56:58.184Z</time></trkpt><trkpt lat="43.320151" lon="11.3851193"><ele>222.0</ele><time>2026-04-04T09:56:59.184Z</time></trkpt><trkpt lat="43.3201928" lon="11.3849753"><ele>220.75</ele><time>2026-04-04T09:57:00.184Z</time></trkpt><trkpt lat="43.3202512" lon="11.3848349"><ele>219.5</ele><time>2026-04-04T09:57:01.184Z</time></trkpt><trkpt lat="43.3203197" lon="11.3847115"><ele>218.25</ele><time>2026-04-04T09:57:02.184Z</time></trkpt><trkpt lat="43.320404" lon="11.3845881"><ele>217.0</ele><time>2026-04-04T09:57:03.184Z</time></trkpt><trkpt lat="43.320492" lon="11.3844877"><ele>215.6</ele><time>2026-04-04T09:57:04.186Z</time></trkpt><trkpt lat="43.3205727" lon="11.3843871"><ele>214.2</ele><time>2026-04-04T09:57:05.185Z</time></trkpt><trkpt lat="43.3206605" lon="11.3842852"><ele>212.8</ele><time>2026-04-04T09:57:06.184Z</time></trkpt><trkpt lat="43.3207273" lon="11.3841855"><ele>211.4</ele><time>2026-04-04T09:57:07.185Z</time></trkpt><trkpt lat="43.3207601" lon="11.384084"><ele>210.0</ele><time>2026-04-04T09:57:08.184Z</time></trkpt><trkpt lat="43.3207842" lon="11.3839826"><ele>210.0</ele><time>2026-04-04T09:57:09.183Z</time></trkpt><trkpt lat="43.3207866" lon="11.3838852"><ele>210.0</ele><time>2026-04-04T09:57:10.184Z</time></trkpt><trkpt lat="43.3207708" lon="11.3837873"><ele>210.0</ele><time>2026-04-04T09:57:11.183Z</time></trkpt><trkpt lat="43.3207499" lon="11.3836881"><ele>210.0</ele><time>2026-04-04T09:57:12.185Z</time></trkpt><trkpt lat="43.3207255" lon="11.3835854"><ele>210.0</ele><time>2026-04-04T09:57:13.184Z</time></trkpt><trkpt lat="43.3206871" lon="11.3834685"><ele>210.0</ele><time>2026-04-04T09:57:14.183Z</time></trkpt><trkpt lat="43.3206522" lon="11.383336"><ele>208.4</ele><time>2026-04-04T09:57:15.184Z</time></trkpt><trkpt lat="43.3206157" lon="11.3831981"><ele>206.8</ele><time>2026-04-04T09:57:16.185Z</time></trkpt><trkpt lat="43.3206075" lon="11.3830746"><ele>205.2</ele><time>2026-04-04T09:57:17.185Z</time></trkpt><trkpt lat="43.3205964" lon="11.3829452"><ele>203.6</ele><time>2026-04-04T09:57:18.184Z</time></trkpt><trkpt lat="43.3205866" lon="11.3828074"><ele>202.0</ele><time>2026-04-04T09:57:19.185Z</time></trkpt><trkpt lat="43.3205699" lon="11.3826677"><ele>201.39999999999998</ele><time>2026-04-04T09:57:20.183Z</time></trkpt><trkpt lat="43.3205492" lon="11.3825112"><ele>200.79999999999998</ele><time>2026-04-04T09:57:21.184Z</time></trkpt><trkpt lat="43.3205328" lon="11.3823711"><ele>200.2</ele><time>2026-04-04T09:57:22.184Z</time></trkpt><trkpt lat="43.3205116" lon="11.3822327"><ele>199.6</ele><time>2026-04-04T09:57:23.183Z</time></trkpt><trkpt lat="43.3204916" lon="11.3820833"><ele>199.0</ele><time>2026-04-04T09:57:24.183Z</time></trkpt><trkpt lat="43.3204659" lon="11.3819479"><ele>198.79999999999998</ele><time>2026-04-04T09:57:25.184Z</time></trkpt><trkpt lat="43.3204458" lon="11.3818163"><ele>198.6</ele><time>2026-04-04T09:57:26.184Z</time></trkpt><trkpt lat="43.3204257" lon="11.3816789"><ele>198.4</ele><time>2026-04-04T09:57:27.183Z</time></trkpt><trkpt lat="43.3204005" lon="11.381538"><ele>198.2</ele><time>2026-04-04T09:57:28.183Z</time></trkpt><trkpt lat="43.3203802" lon="11.3814021"><ele>198.0</ele><time>2026-04-04T09:57:29.184Z</time></trkpt><trkpt lat="43.3203603" lon="11.3812648"><ele>197.8</ele><time>2026-04-04T09:57:30.185Z</time></trkpt><trkpt lat="43.3203492" lon="11.3811129"><ele>197.60000000000002</ele><time>2026-04-04T09:57:31.183Z</time></trkpt><trkpt lat="43.3203403" lon="11.3809736"><ele>197.39999999999998</ele><time>2026-04-04T09:57:32.184Z</time></trkpt><trkpt lat="43.3203362" lon="11.3808338"><ele>197.2</ele><time>2026-04-04T09:57:33.184Z</time></trkpt><trkpt lat="43.3203469" lon="11.3806921"><ele>197.0</ele><time>2026-04-04T09:57:34.185Z</time></trkpt><trkpt lat="43.3203649" lon="11.3805556"><ele>197.0</ele><time>2026-04-04T09:57:35.184Z</time></trkpt><trkpt lat="43.3203831" lon="11.380424"><ele>197.0</ele><time>2026-04-04T09:57:36.185Z</time></trkpt><trkpt lat="43.3204053" lon="11.3802786"><ele>197.0</ele><time>2026-04-04T09:57:37.184Z</time></trkpt><trkpt lat="43.3204219" lon="11.3801412"><ele>197.0</ele><time>2026-04-04T09:57:38.184Z</time></trkpt><trkpt lat="43.3204428" lon="11.3799945"><ele>197.0</ele><time>2026-04-04T09:57:39.184Z</time></trkpt><trkpt lat="43.3204576" lon="11.379855"><ele>197.0</ele><time>2026-04-04T09:57:40.183Z</time></trkpt><trkpt lat="43.3204729" lon="11.3797133"><ele>197.0</ele><time>2026-04-04T09:57:41.184Z</time></trkpt><trkpt lat="43.3204813" lon="11.3795771"><ele>197.0</ele><time>2026-04-04T09:57:42.185Z</time></trkpt><trkpt lat="43.3205062" lon="11.3794279"><ele>197.0</ele><time>2026-04-04T09:57:43.184Z</time></trkpt><trkpt lat="43.3205319" lon="11.3792731"><ele>197.0</ele><time>2026-04-04T09:57:44.183Z</time></trkpt><trkpt lat="43.3205507" lon="11.3791079"><ele>197.5</ele><time>2026-04-04T09:57:45.184Z</time></trkpt><trkpt lat="43.3205717" lon="11.3789547"><ele>198.0</ele><time>2026-04-04T09:57:46.184Z</time></trkpt><trkpt lat="43.3205872" lon="11.3787912"><ele>198.5</ele><time>2026-04-04T09:57:47.185Z</time></trkpt><trkpt lat="43.3205998" lon="11.3786261"><ele>199.0</ele><time>2026-04-04T09:57:48.184Z</time></trkpt><trkpt lat="43.3206029" lon="11.378462"><ele>200.75</ele><time>2026-04-04T09:57:49.183Z</time></trkpt><trkpt lat="43.3205999" lon="11.3782787"><ele>202.5</ele><time>2026-04-04T09:57:50.183Z</time></trkpt><trkpt lat="43.3205944" lon="11.378098"><ele>204.25</ele><time>2026-04-04T09:57:51.184Z</time></trkpt><trkpt lat="43.3205758" lon="11.3779154"><ele>206.0</ele><time>2026-04-04T09:57:52.184Z</time></trkpt><trkpt lat="43.3205559" lon="11.3777365"><ele>208.0</ele><time>2026-04-04T09:57:53.183Z</time></trkpt><trkpt lat="43.3205285" lon="11.3775648"><ele>210.0</ele><time>2026-04-04T09:57:54.184Z</time></trkpt><trkpt lat="43.3205022" lon="11.3773875"><ele>212.0</ele><time>2026-04-04T09:57:55.185Z</time></trkpt><trkpt lat="43.3204825" lon="11.3772047"><ele>214.0</ele><time>2026-04-04T09:57:56.182Z</time></trkpt><trkpt lat="43.3204594" lon="11.3770225"><ele>215.75</ele><time>2026-04-04T09:57:57.185Z</time></trkpt><trkpt lat="43.3204566" lon="11.3768405"><ele>217.5</ele><time>2026-04-04T09:57:58.185Z</time></trkpt><trkpt lat="43.3204595" lon="11.3766527"><ele>219.25</ele><time>2026-04-04T09:57:59.183Z</time></trkpt><trkpt lat="43.3204801" lon="11.3764757"><ele>221.0</ele><time>2026-04-04T09:58:00.183Z</time></trkpt><trkpt lat="43.3204951" lon="11.3762916"><ele>221.0</ele><time>2026-04-04T09:58:01.185Z</time></trkpt><trkpt lat="43.3205044" lon="11.3761062"><ele>221.0</ele><time>2026-04-04T09:58:02.185Z</time></trkpt><trkpt lat="43.3205106" lon="11.3759337"><ele>221.0</ele><time>2026-04-04T09:58:03.184Z</time></trkpt><trkpt lat="43.3205141" lon="11.3757752"><ele>221.0</ele><time>2026-04-04T09:58:04.184Z</time></trkpt><trkpt lat="43.3205047" lon="11.3756727"><ele>221.00000000000003</ele><time>2026-04-04T09:58:05.184Z</time></trkpt><trkpt lat="43.3204853" lon="11.375568"><ele>221.0</ele><time>2026-04-04T09:58:06.183Z</time></trkpt><trkpt lat="43.3204506" lon="11.3754614"><ele>221.0</ele><time>2026-04-04T09:58:07.185Z</time></trkpt><trkpt lat="43.3204043" lon="11.3753664"><ele>221.0</ele><time>2026-04-04T09:58:08.184Z</time></trkpt><trkpt lat="43.3203483" lon="11.375269"><ele>221.00000000000003</ele><time>2026-04-04T09:58:09.183Z</time></trkpt><trkpt lat="43.3202973" lon="11.3751587"><ele>221.0</ele><time>2026-04-04T09:58:10.185Z</time></trkpt><trkpt lat="43.3202599" lon="11.3750499"><ele>221.0</ele><time>2026-04-04T09:58:11.184Z</time></trkpt><trkpt lat="43.3202416" lon="11.3749394"><ele>221.00000000000003</ele><time>2026-04-04T09:58:12.184Z</time></trkpt><trkpt lat="43.3202523" lon="11.374809"><ele>221.00000000000003</ele><time>2026-04-04T09:58:13.183Z</time></trkpt><trkpt lat="43.3202796" lon="11.3746663"><ele>221.0</ele><time>2026-04-04T09:58:14.184Z</time></trkpt><trkpt lat="43.3203212" lon="11.3745117"><ele>221.0</ele><time>2026-04-04T09:58:15.184Z</time></trkpt><trkpt lat="43.3203455" lon="11.374361"><ele>221.0</ele><time>2026-04-04T09:58:16.184Z</time></trkpt><trkpt lat="43.3203864" lon="11.3742069"><ele>221.0</ele><time>2026-04-04T09:58:17.184Z</time></trkpt><trkpt lat="43.3204326" lon="11.3740557"><ele>221.0</ele><time>2026-04-04T09:58:18.184Z</time></trkpt><trkpt lat="43.3204806" lon="11.3739023"><ele>221.0</ele><time>2026-04-04T09:58:19.185Z</time></trkpt><trkpt lat="43.320529" lon="11.3737561"><ele>223.0</ele><time>2026-04-04T09:58:20.184Z</time></trkpt><trkpt lat="43.3205813" lon="11.3736171"><ele>225.0</ele><time>2026-04-04T09:58:21.183Z</time></trkpt><trkpt lat="43.3206405" lon="11.3734778"><ele>227.0</ele><time>2026-04-04T09:58:22.184Z</time></trkpt><trkpt lat="43.3207012" lon="11.3733404"><ele>229.0</ele><time>2026-04-04T09:58:23.182Z</time></trkpt><trkpt lat="43.3207587" lon="11.3732186"><ele>229.0</ele><time>2026-04-04T09:58:24.184Z</time></trkpt><trkpt lat="43.3208135" lon="11.3730889"><ele>228.99999999999997</ele><time>2026-04-04T09:58:25.183Z</time></trkpt><trkpt lat="43.3208774" lon="11.3729529"><ele>228.99999999999997</ele><time>2026-04-04T09:58:26.183Z</time></trkpt><trkpt lat="43.3209418" lon="11.3728235"><ele>229.0</ele><time>2026-04-04T09:58:27.184Z</time></trkpt><trkpt lat="43.3209869" lon="11.3726878"><ele>229.0</ele><time>2026-04-04T09:58:28.185Z</time></trkpt><trkpt lat="43.3210208" lon="11.3725475"><ele>231.25</ele><time>2026-04-04T09:58:29.183Z</time></trkpt><trkpt lat="43.3210506" lon="11.3723954"><ele>233.5</ele><time>2026-04-04T09:58:30.184Z</time></trkpt><trkpt lat="43.3210866" lon="11.3722468"><ele>235.75</ele><time>2026-04-04T09:58:31.184Z</time></trkpt><trkpt lat="43.3211045" lon="11.3720922"><ele>238.0</ele><time>2026-04-04T09:58:32.183Z</time></trkpt><trkpt lat="43.3211356" lon="11.3719453"><ele>239.8</ele><time>2026-04-04T09:58:33.184Z</time></trkpt><trkpt lat="43.3211598" lon="11.3718056"><ele>241.60000000000002</ele><time>2026-04-04T09:58:34.183Z</time></trkpt><trkpt lat="43.3211739" lon="11.3716437"><ele>243.39999999999998</ele><time>2026-04-04T09:58:35.183Z</time></trkpt><trkpt lat="43.3212007" lon="11.3715027"><ele>245.2</ele><time>2026-04-04T09:58:36.183Z</time></trkpt><trkpt lat="43.3212193" lon="11.3713456"><ele>247.0</ele><time>2026-04-04T09:58:37.183Z</time></trkpt><trkpt lat="43.3212422" lon="11.3711946"><ele>248.25</ele><time>2026-04-04T09:58:38.183Z</time></trkpt><trkpt lat="43.3212665" lon="11.3710392"><ele>249.5</ele><time>2026-04-04T09:58:39.185Z</time></trkpt><trkpt lat="43.3212989" lon="11.3708811"><ele>250.75</ele><time>2026-04-04T09:58:40.183Z</time></trkpt><trkpt lat="43.321343" lon="11.3707398"><ele>252.0</ele><time>2026-04-04T09:58:41.183Z</time></trkpt><trkpt lat="43.3213939" lon="11.3706135"><ele>252.0</ele><time>2026-04-04T09:58:42.183Z</time></trkpt><trkpt lat="43.3214537" lon="11.3704735"><ele>252.0</ele><time>2026-04-04T09:58:43.183Z</time></trkpt><trkpt lat="43.3215148" lon="11.3703488"><ele>252.0</ele><time>2026-04-04T09:58:44.184Z</time></trkpt><trkpt lat="43.3215758" lon="11.370223"><ele>252.0</ele><time>2026-04-04T09:58:45.183Z</time></trkpt><trkpt lat="43.3216377" lon="11.3700918"><ele>252.0</ele><time>2026-04-04T09:58:46.185Z</time></trkpt><trkpt lat="43.3217057" lon="11.3699657"><ele>252.0</ele><time>2026-04-04T09:58:47.185Z</time></trkpt><trkpt lat="43.3217712" lon="11.3698334"><ele>252.0</ele><time>2026-04-04T09:58:48.185Z</time></trkpt><trkpt lat="43.3218356" lon="11.3696923"><ele>252.0</ele><time>2026-04-04T09:58:49.184Z</time></trkpt><trkpt lat="43.3218993" lon="11.3695584"><ele>253.5</ele><time>2026-04-04T09:58:50.185Z</time></trkpt><trkpt lat="43.3219557" lon="11.3694398"><ele>255.0</ele><time>2026-04-04T09:58:51.183Z</time></trkpt><trkpt lat="43.3220067" lon="11.3693388"><ele>256.5</ele><time>2026-04-04T09:58:52.184Z</time></trkpt><trkpt lat="43.322023" lon="11.3692509"><ele>258.0</ele><time>2026-04-04T09:58:53.184Z</time></trkpt><trkpt lat="43.3219612" lon="11.3691272"><ele>259.5</ele><time>2026-04-04T09:58:55.183Z</time></trkpt><trkpt lat="43.3218917" lon="11.3691238"><ele>261.0</ele><time>2026-04-04T09:58:56.183Z</time></trkpt><trkpt lat="43.3218262" lon="11.3691561"><ele>261.0</ele><time>2026-04-04T09:58:57.183Z</time></trkpt><trkpt lat="43.3217626" lon="11.3692314"><ele>261.0</ele><time>2026-04-04T09:58:58.183Z</time></trkpt><trkpt lat="43.3216843" lon="11.3693034"><ele>261.0</ele><time>2026-04-04T09:58:59.184Z</time></trkpt><trkpt lat="43.3216072" lon="11.3693446"><ele>261.0</ele><time>2026-04-04T09:59:00.184Z</time></trkpt><trkpt lat="43.3215195" lon="11.3693652"><ele>261.0</ele><time>2026-04-04T09:59:01.185Z</time></trkpt><trkpt lat="43.3214399" lon="11.3693496"><ele>261.0</ele><time>2026-04-04T09:59:02.185Z</time></trkpt><trkpt lat="43.3213586" lon="11.3692876"><ele>261.3333333333333</ele><time>2026-04-04T09:59:03.184Z</time></trkpt><trkpt lat="43.3212841" lon="11.3692208"><ele>261.6666666666667</ele><time>2026-04-04T09:59:04.182Z</time></trkpt><trkpt lat="43.3212092" lon="11.3691636"><ele>262.0</ele><time>2026-04-04T09:59:05.185Z</time></trkpt><trkpt lat="43.3211433" lon="11.3690709"><ele>262.33333333333337</ele><time>2026-04-04T09:59:06.183Z</time></trkpt><trkpt lat="43.3210825" lon="11.3689795"><ele>262.6666666666667</ele><time>2026-04-04T09:59:07.183Z</time></trkpt><trkpt lat="43.3210292" lon="11.3689085"><ele>263.0</ele><time>2026-04-04T09:59:08.184Z</time></trkpt><trkpt lat="43.3209849" lon="11.3688422"><ele>263.0</ele><time>2026-04-04T09:59:09.183Z</time></trkpt><trkpt lat="43.3209664" lon="11.3687208"><ele>263.0</ele><time>2026-04-04T09:59:11.183Z</time></trkpt><trkpt lat="43.320969" lon="11.3685947"><ele>263.0</ele><time>2026-04-04T09:59:13.185Z</time></trkpt><trkpt lat="43.3210016" lon="11.3684497"><ele>263.0</ele><time>2026-04-04T09:59:15.185Z</time></trkpt><trkpt lat="43.3210175" lon="11.3683578"><ele>263.0</ele><time>2026-04-04T09:59:16.182Z</time></trkpt><trkpt lat="43.3210347" lon="11.3682705"><ele>263.0</ele><time>2026-04-04T09:59:17.184Z</time></trkpt><trkpt lat="43.321047" lon="11.3681754"><ele>263.0</ele><time>2026-04-04T09:59:18.183Z</time></trkpt><trkpt lat="43.3210502" lon="11.3680663"><ele>263.0</ele><time>2026-04-04T09:59:19.185Z</time></trkpt><trkpt lat="43.321054" lon="11.3679591"><ele>263.0</ele><time>2026-04-04T09:59:20.183Z</time></trkpt><trkpt lat="43.3210567" lon="11.367842"><ele>263.0</ele><time>2026-04-04T09:59:21.184Z</time></trkpt><trkpt lat="43.3210703" lon="11.3677327"><ele>263.0</ele><time>2026-04-04T09:59:22.184Z</time></trkpt><trkpt lat="43.3210711" lon="11.3676368"><ele>263.0</ele><time>2026-04-04T09:59:23.183Z</time></trkpt><trkpt lat="43.3210772" lon="11.3675237"><ele>263.6666666666667</ele><time>2026-04-04T09:59:24.184Z</time></trkpt><trkpt lat="43.3210844" lon="11.3674152"><ele>264.33333333333337</ele><time>2026-04-04T09:59:25.184Z</time></trkpt><trkpt lat="43.3210874" lon="11.3673061"><ele>265.0</ele><time>2026-04-04T09:59:26.183Z</time></trkpt><trkpt lat="43.3210992" lon="11.3672024"><ele>265.6666666666667</ele><time>2026-04-04T09:59:27.184Z</time></trkpt><trkpt lat="43.3211108" lon="11.3670901"><ele>266.3333333333333</ele><time>2026-04-04T09:59:28.185Z</time></trkpt><trkpt lat="43.3211109" lon="11.3669756"><ele>267.0</ele><time>2026-04-04T09:59:29.185Z</time></trkpt><trkpt lat="43.321111" lon="11.3668618"><ele>267.6666666666667</ele><time>2026-04-04T09:59:30.183Z</time></trkpt><trkpt lat="43.3211061" lon="11.3667467"><ele>268.3333333333333</ele><time>2026-04-04T09:59:31.184Z</time></trkpt><trkpt lat="43.3210954" lon="11.3666384"><ele>269.0</ele><time>2026-04-04T09:59:32.183Z</time></trkpt><trkpt lat="43.3210838" lon="11.3665264"><ele>269.66666666666663</ele><time>2026-04-04T09:59:33.183Z</time></trkpt><trkpt lat="43.3210661" lon="11.3664056"><ele>270.3333333333333</ele><time>2026-04-04T09:59:34.183Z</time></trkpt><trkpt lat="43.3210524" lon="11.3662966"><ele>271.0</ele><time>2026-04-04T09:59:35.183Z</time></trkpt><trkpt lat="43.3210395" lon="11.3661727"><ele>271.0</ele><time>2026-04-04T09:59:36.184Z</time></trkpt><trkpt lat="43.3210269" lon="11.3660456"><ele>271.0</ele><time>2026-04-04T09:59:37.182Z</time></trkpt><trkpt lat="43.3210005" lon="11.3659097"><ele>271.0</ele><time>2026-04-04T09:59:38.183Z</time></trkpt><trkpt lat="43.3209688" lon="11.3657602"><ele>271.0</ele><time>2026-04-04T09:59:39.184Z</time></trkpt><trkpt lat="43.3209231" lon="11.3656086"><ele>271.0</ele><time>2026-04-04T09:59:40.184Z</time></trkpt><trkpt lat="43.3208701" lon="11.3654499"><ele>271.25</ele><time>2026-04-04T09:59:41.183Z</time></trkpt><trkpt lat="43.3208145" lon="11.3653136"><ele>271.5</ele><time>2026-04-04T09:59:42.183Z</time></trkpt><trkpt lat="43.3207617" lon="11.3651633"><ele>271.75</ele><time>2026-04-04T09:59:43.185Z</time></trkpt><trkpt lat="43.3206949" lon="11.3649891"><ele>272.0</ele><time>2026-04-04T09:59:44.182Z</time></trkpt><trkpt lat="43.3206181" lon="11.3648358"><ele>272.4</ele><time>2026-04-04T09:59:45.184Z</time></trkpt><trkpt lat="43.320551" lon="11.3646934"><ele>272.79999999999995</ele><time>2026-04-04T09:59:46.182Z</time></trkpt><trkpt lat="43.3204845" lon="11.3645597"><ele>273.2</ele><time>2026-04-04T09:59:47.185Z</time></trkpt><trkpt lat="43.3204281" lon="11.3644422"><ele>273.59999999999997</ele><time>2026-04-04T09:59:48.184Z</time></trkpt><trkpt lat="43.320367" lon="11.3643394"><ele>274.0</ele><time>2026-04-04T09:59:49.183Z</time></trkpt><trkpt lat="43.3202965" lon="11.364214"><ele>274.0</ele><time>2026-04-04T09:59:50.182Z</time></trkpt><trkpt lat="43.3202249" lon="11.3641004"><ele>274.0</ele><time>2026-04-04T09:59:51.185Z</time></trkpt><trkpt lat="43.3201594" lon="11.3639745"><ele>274.0</ele><time>2026-04-04T09:59:52.182Z</time></trkpt><trkpt lat="43.3200765" lon="11.3638537"><ele>274.0</ele><time>2026-04-04T09:59:53.183Z</time></trkpt><trkpt lat="43.3199955" lon="11.3637302"><ele>274.75</ele><time>2026-04-04T09:59:54.185Z</time></trkpt><trkpt lat="43.3199036" lon="11.3636137"><ele>275.5</ele><time>2026-04-04T09:59:55.184Z</time></trkpt><trkpt lat="43.3198184" lon="11.3634929"><ele>276.25</ele><time>2026-04-04T09:59:56.182Z</time></trkpt><trkpt lat="43.3197328" lon="11.3633821"><ele>277.0</ele><time>2026-04-04T09:59:57.183Z</time></trkpt><trkpt lat="43.3196501" lon="11.3632643"><ele>277.0</ele><time>2026-04-04T09:59:58.184Z</time></trkpt><trkpt lat="43.3195761" lon="11.3631508"><ele>277.0</ele><time>2026-04-04T09:59:59.182Z</time></trkpt><trkpt lat="43.3195103" lon="11.3630243"><ele>277.0</ele><time>2026-04-04T10:00:00.184Z</time></trkpt><trkpt lat="43.3194666" lon="11.3628938"><ele>277.0</ele><time>2026-04-04T10:00:01.184Z</time></trkpt><trkpt lat="43.3194309" lon="11.3627598"><ele>277.0</ele><time>2026-04-04T10:00:02.185Z</time></trkpt><trkpt lat="43.3193956" lon="11.3626454"><ele>275.6</ele><time>2026-04-04T10:00:03.182Z</time></trkpt><trkpt lat="43.3193476" lon="11.3625297"><ele>274.2</ele><time>2026-04-04T10:00:04.184Z</time></trkpt><trkpt lat="43.3192876" lon="11.3624181"><ele>272.8</ele><time>2026-04-04T10:00:05.183Z</time></trkpt><trkpt lat="43.319215" lon="11.3623169"><ele>271.4</ele><time>2026-04-04T10:00:06.182Z</time></trkpt><trkpt lat="43.3191444" lon="11.3621972"><ele>270.0</ele><time>2026-04-04T10:00:07.183Z</time></trkpt><trkpt lat="43.3190709" lon="11.3620759"><ele>269.0</ele><time>2026-04-04T10:00:08.183Z</time></trkpt><trkpt lat="43.3189851" lon="11.3619419"><ele>268.0</ele><time>2026-04-04T10:00:09.183Z</time></trkpt><trkpt lat="43.318904" lon="11.3618076"><ele>267.0</ele><time>2026-04-04T10:00:10.183Z</time></trkpt><trkpt lat="43.31883" lon="11.3616825"><ele>266.0</ele><time>2026-04-04T10:00:11.183Z</time></trkpt><trkpt lat="43.3187562" lon="11.3615451"><ele>266.0</ele><time>2026-04-04T10:00:12.182Z</time></trkpt><trkpt lat="43.3186884" lon="11.3613995"><ele>266.0</ele><time>2026-04-04T10:00:13.184Z</time></trkpt><trkpt lat="43.3186352" lon="11.3612424"><ele>266.0</ele><time>2026-04-04T10:00:14.182Z</time></trkpt><trkpt lat="43.318585" lon="11.3610801"><ele>266.0</ele><time>2026-04-04T10:00:15.183Z</time></trkpt><trkpt lat="43.3185292" lon="11.3609135"><ele>264.0</ele><time>2026-04-04T10:00:16.184Z</time></trkpt><trkpt lat="43.3184734" lon="11.3607503"><ele>262.0</ele><time>2026-04-04T10:00:17.183Z</time></trkpt><trkpt lat="43.3184081" lon="11.3606066"><ele>260.0</ele><time>2026-04-04T10:00:18.183Z</time></trkpt><trkpt lat="43.3183504" lon="11.3604629"><ele>258.0</ele><time>2026-04-04T10:00:19.184Z</time></trkpt><trkpt lat="43.3182951" lon="11.3603288"><ele>256.6</ele><time>2026-04-04T10:00:20.183Z</time></trkpt><trkpt lat="43.3182378" lon="11.3602033"><ele>255.20000000000002</ele><time>2026-04-04T10:00:21.183Z</time></trkpt><trkpt lat="43.3181694" lon="11.3600721"><ele>253.8</ele><time>2026-04-04T10:00:22.183Z</time></trkpt><trkpt lat="43.3181016" lon="11.3599541"><ele>252.4</ele><time>2026-04-04T10:00:23.183Z</time></trkpt><trkpt lat="43.318027" lon="11.3598374"><ele>251.0</ele><time>2026-04-04T10:00:24.184Z</time></trkpt><trkpt lat="43.3179646" lon="11.359722"><ele>249.0</ele><time>2026-04-04T10:00:25.183Z</time></trkpt><trkpt lat="43.3179087" lon="11.3596019"><ele>247.00000000000003</ele><time>2026-04-04T10:00:26.183Z</time></trkpt><trkpt lat="43.3178635" lon="11.3594698"><ele>245.00000000000003</ele><time>2026-04-04T10:00:27.184Z</time></trkpt><trkpt lat="43.317823" lon="11.3593326"><ele>243.0</ele><time>2026-04-04T10:00:28.183Z</time></trkpt><trkpt lat="43.3177902" lon="11.3591993"><ele>241.0</ele><time>2026-04-04T10:00:29.183Z</time></trkpt><trkpt lat="43.3177479" lon="11.3590652"><ele>241.0</ele><time>2026-04-04T10:00:30.183Z</time></trkpt><trkpt lat="43.317719" lon="11.3589132"><ele>241.0</ele><time>2026-04-04T10:00:31.184Z</time></trkpt><trkpt lat="43.3176781" lon="11.3587789"><ele>241.0</ele><time>2026-04-04T10:00:32.184Z</time></trkpt><trkpt lat="43.3176246" lon="11.358641"><ele>241.0</ele><time>2026-04-04T10:00:33.183Z</time></trkpt><trkpt lat="43.3175451" lon="11.3585252"><ele>240.0</ele><time>2026-04-04T10:00:34.182Z</time></trkpt><trkpt lat="43.317452" lon="11.3584181"><ele>239.0</ele><time>2026-04-04T10:00:35.184Z</time></trkpt><trkpt lat="43.3173544" lon="11.3583412"><ele>238.0</ele><time>2026-04-04T10:00:36.183Z</time></trkpt><trkpt lat="43.3172586" lon="11.3583027"><ele>237.0</ele><time>2026-04-04T10:00:37.183Z</time></trkpt><trkpt lat="43.3171422" lon="11.3582822"><ele>235.6</ele><time>2026-04-04T10:00:38.184Z</time></trkpt><trkpt lat="43.3170312" lon="11.3582588"><ele>234.2</ele><time>2026-04-04T10:00:39.183Z</time></trkpt><trkpt lat="43.3169223" lon="11.3582568"><ele>232.8</ele><time>2026-04-04T10:00:40.184Z</time></trkpt><trkpt lat="43.3168237" lon="11.3582275"><ele>231.4</ele><time>2026-04-04T10:00:41.182Z</time></trkpt><trkpt lat="43.3167284" lon="11.3581778"><ele>230.0</ele><time>2026-04-04T10:00:42.182Z</time></trkpt><trkpt lat="43.3166301" lon="11.358112"><ele>230.5</ele><time>2026-04-04T10:00:43.183Z</time></trkpt><trkpt lat="43.3165557" lon="11.3579803"><ele>231.0</ele><time>2026-04-04T10:00:44.184Z</time></trkpt><trkpt lat="43.3164875" lon="11.3578506"><ele>231.5</ele><time>2026-04-04T10:00:45.183Z</time></trkpt><trkpt lat="43.3164043" lon="11.3577162"><ele>232.0</ele><time>2026-04-04T10:00:46.182Z</time></trkpt><trkpt lat="43.3163314" lon="11.3576178"><ele>231.0</ele><time>2026-04-04T10:00:47.184Z</time></trkpt><trkpt lat="43.3162637" lon="11.3575174"><ele>230.0</ele><time>2026-04-04T10:00:48.183Z</time></trkpt><trkpt lat="43.3161886" lon="11.357411"><ele>229.0</ele><time>2026-04-04T10:00:49.184Z</time></trkpt><trkpt lat="43.3161361" lon="11.3572915"><ele>228.0</ele><time>2026-04-04T10:00:50.183Z</time></trkpt><trkpt lat="43.3160965" lon="11.3571654"><ele>227.0</ele><time>2026-04-04T10:00:51.183Z</time></trkpt><trkpt lat="43.3160668" lon="11.3570307"><ele>226.83333333333334</ele><time>2026-04-04T10:00:52.183Z</time></trkpt><trkpt lat="43.3160544" lon="11.3568969"><ele>226.66666666666669</ele><time>2026-04-04T10:00:53.183Z</time></trkpt><trkpt lat="43.3160525" lon="11.3567598"><ele>226.5</ele><time>2026-04-04T10:00:54.183Z</time></trkpt><trkpt lat="43.3160453" lon="11.3566308"><ele>226.33333333333331</ele><time>2026-04-04T10:00:55.183Z</time></trkpt><trkpt lat="43.3160394" lon="11.3565113"><ele>226.16666666666666</ele><time>2026-04-04T10:00:56.183Z</time></trkpt><trkpt lat="43.3160361" lon="11.3564206"><ele>226.0</ele><time>2026-04-04T10:00:57.182Z</time></trkpt><trkpt lat="43.3160173" lon="11.3562741"><ele>225.8</ele><time>2026-04-04T10:00:59.183Z</time></trkpt><trkpt lat="43.3160127" lon="11.3561609"><ele>225.60000000000002</ele><time>2026-04-04T10:01:29.183Z</time></trkpt><trkpt lat="43.316077" lon="11.3560817"><ele>225.4</ele><time>2026-04-04T10:01:32.184Z</time></trkpt><trkpt lat="43.3161071" lon="11.3560037"><ele>225.2</ele><time>2026-04-04T10:01:34.182Z</time></trkpt><trkpt lat="43.3161539" lon="11.35589"><ele>225.0</ele><time>2026-04-04T10:01:36.181Z</time></trkpt><trkpt lat="43.3162302" lon="11.3557577"><ele>225.0</ele><time>2026-04-04T10:01:38.184Z</time></trkpt><trkpt lat="43.3162898" lon="11.3556774"><ele>225.0</ele><time>2026-04-04T10:01:39.182Z</time></trkpt><trkpt lat="43.3163496" lon="11.3556062"><ele>225.0</ele><time>2026-04-04T10:01:40.183Z</time></trkpt><trkpt lat="43.3163904" lon="11.3555248"><ele>225.0</ele><time>2026-04-04T10:01:41.183Z</time></trkpt><trkpt lat="43.3164147" lon="11.3554435"><ele>225.0</ele><time>2026-04-04T10:01:42.184Z</time></trkpt><trkpt lat="43.3163719" lon="11.3553119"><ele>225.0</ele><time>2026-04-04T10:01:44.183Z</time></trkpt><trkpt lat="43.316323" lon="11.3552523"><ele>225.33333333333334</ele><time>2026-04-04T10:01:45.182Z</time></trkpt><trkpt lat="43.3162605" lon="11.3552118"><ele>225.66666666666669</ele><time>2026-04-04T10:01:46.182Z</time></trkpt><trkpt lat="43.3161888" lon="11.3551861"><ele>226.0</ele><time>2026-04-04T10:01:47.182Z</time></trkpt><trkpt lat="43.3161294" lon="11.3551516"><ele>226.33333333333334</ele><time>2026-04-04T10:01:48.183Z</time></trkpt><trkpt lat="43.3160701" lon="11.3550859"><ele>226.66666666666669</ele><time>2026-04-04T10:01:49.181Z</time></trkpt><trkpt lat="43.3160147" lon="11.3549919"><ele>227.0</ele><time>2026-04-04T10:01:50.182Z</time></trkpt><trkpt lat="43.3159639" lon="11.3548811"><ele>227.0</ele><time>2026-04-04T10:01:51.184Z</time></trkpt><trkpt lat="43.3159279" lon="11.3547555"><ele>227.0</ele><time>2026-04-04T10:01:52.182Z</time></trkpt><trkpt lat="43.3158889" lon="11.3546325"><ele>227.0</ele><time>2026-04-04T10:01:53.182Z</time></trkpt><trkpt lat="43.315847" lon="11.3545039"><ele>227.0</ele><time>2026-04-04T10:01:54.184Z</time></trkpt><trkpt lat="43.3158176" lon="11.3543888"><ele>227.0</ele><time>2026-04-04T10:01:55.183Z</time></trkpt><trkpt lat="43.3157844" lon="11.354279"><ele>227.66666666666669</ele><time>2026-04-04T10:01:56.182Z</time></trkpt><trkpt lat="43.3157549" lon="11.3541723"><ele>228.33333333333334</ele><time>2026-04-04T10:01:57.183Z</time></trkpt><trkpt lat="43.315732" lon="11.3540687"><ele>229.0</ele><time>2026-04-04T10:01:58.184Z</time></trkpt><trkpt lat="43.3157074" lon="11.3539676"><ele>229.66666666666669</ele><time>2026-04-04T10:01:59.184Z</time></trkpt><trkpt lat="43.3156848" lon="11.3538721"><ele>230.33333333333334</ele><time>2026-04-04T10:02:00.182Z</time></trkpt><trkpt lat="43.3156622" lon="11.3537728"><ele>231.0</ele><time>2026-04-04T10:02:01.182Z</time></trkpt><trkpt lat="43.3156413" lon="11.3536735"><ele>231.5</ele><time>2026-04-04T10:02:02.182Z</time></trkpt><trkpt lat="43.3156198" lon="11.3535775"><ele>232.0</ele><time>2026-04-04T10:02:03.184Z</time></trkpt><trkpt lat="43.315592" lon="11.3534747"><ele>232.5</ele><time>2026-04-04T10:02:04.182Z</time></trkpt><trkpt lat="43.3155598" lon="11.3533613"><ele>233.0</ele><time>2026-04-04T10:02:05.181Z</time></trkpt><trkpt lat="43.3155375" lon="11.3532556"><ele>233.5</ele><time>2026-04-04T10:02:06.183Z</time></trkpt><trkpt lat="43.3155105" lon="11.3531423"><ele>234.0</ele><time>2026-04-04T10:02:07.182Z</time></trkpt><trkpt lat="43.3154741" lon="11.3530262"><ele>234.6</ele><time>2026-04-04T10:02:08.183Z</time></trkpt><trkpt lat="43.3154351" lon="11.3528927"><ele>235.2</ele><time>2026-04-04T10:02:09.182Z</time></trkpt><trkpt lat="43.3154084" lon="11.3527628"><ele>235.79999999999998</ele><time>2026-04-04T10:02:10.184Z</time></trkpt><trkpt lat="43.3153654" lon="11.3526266"><ele>236.39999999999998</ele><time>2026-04-04T10:02:11.182Z</time></trkpt><trkpt lat="43.3153315" lon="11.3525008"><ele>237.0</ele><time>2026-04-04T10:02:12.182Z</time></trkpt><trkpt lat="43.3152989" lon="11.352379"><ele>237.0</ele><time>2026-04-04T10:02:13.182Z</time></trkpt><trkpt lat="43.3152752" lon="11.3522671"><ele>237.0</ele><time>2026-04-04T10:02:14.184Z</time></trkpt><trkpt lat="43.3152536" lon="11.3521572"><ele>237.0</ele><time>2026-04-04T10:02:15.183Z</time></trkpt><trkpt lat="43.3152182" lon="11.3520435"><ele>237.0</ele><time>2026-04-04T10:02:16.182Z</time></trkpt><trkpt lat="43.3151848" lon="11.3519245"><ele>237.0</ele><time>2026-04-04T10:02:17.183Z</time></trkpt><trkpt lat="43.315151" lon="11.3518189"><ele>237.0</ele><time>2026-04-04T10:02:18.181Z</time></trkpt><trkpt lat="43.3151045" lon="11.3516937"><ele>238.75</ele><time>2026-04-04T10:02:19.184Z</time></trkpt><trkpt lat="43.3150543" lon="11.3515764"><ele>240.5</ele><time>2026-04-04T10:02:20.183Z</time></trkpt><trkpt lat="43.3149834" lon="11.3514239"><ele>242.25</ele><time>2026-04-04T10:02:21.183Z</time></trkpt><trkpt lat="43.314908" lon="11.3512784"><ele>244.0</ele><time>2026-04-04T10:02:22.183Z</time></trkpt><trkpt lat="43.3148344" lon="11.3511303"><ele>243.75</ele><time>2026-04-04T10:02:23.183Z</time></trkpt><trkpt lat="43.3147548" lon="11.3509875"><ele>243.5</ele><time>2026-04-04T10:02:24.182Z</time></trkpt><trkpt lat="43.3146745" lon="11.3508487"><ele>243.25</ele><time>2026-04-04T10:02:25.182Z</time></trkpt><trkpt lat="43.3145863" lon="11.3507156"><ele>243.0</ele><time>2026-04-04T10:02:26.183Z</time></trkpt><trkpt lat="43.3145092" lon="11.3505758"><ele>243.75</ele><time>2026-04-04T10:02:27.182Z</time></trkpt><trkpt lat="43.3144408" lon="11.3504275"><ele>244.5</ele><time>2026-04-04T10:02:28.183Z</time></trkpt><trkpt lat="43.3144241" lon="11.350274"><ele>245.25</ele><time>2026-04-04T10:02:29.183Z</time></trkpt><trkpt lat="43.3144376" lon="11.3501111"><ele>246.0</ele><time>2026-04-04T10:02:30.183Z</time></trkpt><trkpt lat="43.314459" lon="11.3499651"><ele>246.0</ele><time>2026-04-04T10:02:31.183Z</time></trkpt><trkpt lat="43.3145381" lon="11.3498782"><ele>246.00000000000003</ele><time>2026-04-04T10:02:32.182Z</time></trkpt><trkpt lat="43.3146034" lon="11.3498438"><ele>246.00000000000003</ele><time>2026-04-04T10:02:33.182Z</time></trkpt><trkpt lat="43.3146913" lon="11.3498312"><ele>246.0</ele><time>2026-04-04T10:02:34.182Z</time></trkpt><trkpt lat="43.3147876" lon="11.3498186"><ele>246.0</ele><time>2026-04-04T10:02:35.183Z</time></trkpt><trkpt lat="43.3149047" lon="11.3498073"><ele>249.0</ele><time>2026-04-04T10:02:36.181Z</time></trkpt><trkpt lat="43.3149899" lon="11.3497628"><ele>252.00000000000003</ele><time>2026-04-04T10:02:37.183Z</time></trkpt><trkpt lat="43.315072" lon="11.3496922"><ele>255.00000000000003</ele><time>2026-04-04T10:02:38.183Z</time></trkpt><trkpt lat="43.3151308" lon="11.3496076"><ele>258.0</ele><time>2026-04-04T10:02:39.182Z</time></trkpt><trkpt lat="43.3151735" lon="11.3495065"><ele>261.0</ele><time>2026-04-04T10:02:40.183Z</time></trkpt><trkpt lat="43.3151517" lon="11.3493548"><ele>261.6</ele><time>2026-04-04T10:02:41.184Z</time></trkpt><trkpt lat="43.3150996" lon="11.3492346"><ele>262.20000000000005</ele><time>2026-04-04T10:02:42.183Z</time></trkpt><trkpt lat="43.3150318" lon="11.3491235"><ele>262.79999999999995</ele><time>2026-04-04T10:02:43.181Z</time></trkpt><trkpt lat="43.3149649" lon="11.3490329"><ele>263.4</ele><time>2026-04-04T10:02:44.183Z</time></trkpt><trkpt lat="43.3148967" lon="11.3489552"><ele>264.0</ele><time>2026-04-04T10:02:45.182Z</time></trkpt><trkpt lat="43.3147996" lon="11.3488792"><ele>262.2</ele><time>2026-04-04T10:02:46.182Z</time></trkpt><trkpt lat="43.3147156" lon="11.3487863"><ele>260.4</ele><time>2026-04-04T10:02:47.184Z</time></trkpt><trkpt lat="43.3146584" lon="11.3486728"><ele>258.6</ele><time>2026-04-04T10:02:48.181Z</time></trkpt><trkpt lat="43.314616" lon="11.3485471"><ele>256.8</ele><time>2026-04-04T10:02:49.181Z</time></trkpt><trkpt lat="43.3146053" lon="11.3484084"><ele>255.0</ele><time>2026-04-04T10:02:50.182Z</time></trkpt><trkpt lat="43.3146126" lon="11.3482682"><ele>255.0</ele><time>2026-04-04T10:02:51.183Z</time></trkpt><trkpt lat="43.3146349" lon="11.348142"><ele>255.0</ele><time>2026-04-04T10:02:52.182Z</time></trkpt><trkpt lat="43.3146762" lon="11.348008"><ele>255.0</ele><time>2026-04-04T10:02:53.183Z</time></trkpt><trkpt lat="43.3147221" lon="11.347885"><ele>255.0</ele><time>2026-04-04T10:02:54.182Z</time></trkpt><trkpt lat="43.3148024" lon="11.3477642"><ele>255.0</ele><time>2026-04-04T10:02:55.184Z</time></trkpt><trkpt lat="43.3148744" lon="11.3476546"><ele>258.25</ele><time>2026-04-04T10:02:56.182Z</time></trkpt><trkpt lat="43.3149502" lon="11.3475268"><ele>261.5</ele><time>2026-04-04T10:02:57.183Z</time></trkpt><trkpt lat="43.315035" lon="11.3473917"><ele>264.75</ele><time>2026-04-04T10:02:58.182Z</time></trkpt><trkpt lat="43.315114" lon="11.347263"><ele>268.0</ele><time>2026-04-04T10:02:59.183Z</time></trkpt><trkpt lat="43.3151904" lon="11.3471214"><ele>268.0</ele><time>2026-04-04T10:03:00.183Z</time></trkpt><trkpt lat="43.3152786" lon="11.3469732"><ele>268.0</ele><time>2026-04-04T10:03:01.182Z</time></trkpt><trkpt lat="43.3153673" lon="11.3468243"><ele>268.0</ele><time>2026-04-04T10:03:02.183Z</time></trkpt><trkpt lat="43.3154522" lon="11.3466795"><ele>268.0</ele><time>2026-04-04T10:03:03.183Z</time></trkpt><trkpt lat="43.3155364" lon="11.3465401"><ele>270.4</ele><time>2026-04-04T10:03:04.181Z</time></trkpt><trkpt lat="43.3156143" lon="11.346401"><ele>272.8</ele><time>2026-04-04T10:03:05.182Z</time></trkpt><trkpt lat="43.3156791" lon="11.3462821"><ele>275.2</ele><time>2026-04-04T10:03:06.183Z</time></trkpt><trkpt lat="43.3157405" lon="11.3461632"><ele>277.6</ele><time>2026-04-04T10:03:07.183Z</time></trkpt><trkpt lat="43.315804" lon="11.34606"><ele>280.0</ele><time>2026-04-04T10:03:08.181Z</time></trkpt><trkpt lat="43.3158555" lon="11.3459885"><ele>280.0</ele><time>2026-04-04T10:03:09.184Z</time></trkpt><trkpt lat="43.3158965" lon="11.345921"><ele>280.0</ele><time>2026-04-04T10:03:11.182Z</time></trkpt><trkpt lat="43.3159654" lon="11.3458177"><ele>280.0</ele><time>2026-04-04T10:03:21.182Z</time></trkpt><trkpt lat="43.3160345" lon="11.3457093"><ele>280.0</ele><time>2026-04-04T10:03:23.184Z</time></trkpt><trkpt lat="43.3160997" lon="11.3455865"><ele>280.0</ele><time>2026-04-04T10:03:25.182Z</time></trkpt><trkpt lat="43.3161647" lon="11.3454818"><ele>281.2</ele><time>2026-04-04T10:03:27.183Z</time></trkpt><trkpt lat="43.3162356" lon="11.3453504"><ele>282.4</ele><time>2026-04-04T10:03:29.183Z</time></trkpt><trkpt lat="43.3162838" lon="11.3452623"><ele>283.6</ele><time>2026-04-04T10:03:30.183Z</time></trkpt><trkpt lat="43.3163377" lon="11.3451743"><ele>284.8</ele><time>2026-04-04T10:03:31.181Z</time></trkpt><trkpt lat="43.3163855" lon="11.3450785"><ele>286.0</ele><time>2026-04-04T10:03:32.183Z</time></trkpt><trkpt lat="43.3164483" lon="11.3449894"><ele>286.0</ele><time>2026-04-04T10:03:33.183Z</time></trkpt><trkpt lat="43.3165005" lon="11.3449057"><ele>286.0</ele><time>2026-04-04T10:03:34.182Z</time></trkpt><trkpt lat="43.3165579" lon="11.3448131"><ele>286.0</ele><time>2026-04-04T10:03:35.182Z</time></trkpt><trkpt lat="43.3166015" lon="11.3447157"><ele>286.0</ele><time>2026-04-04T10:03:36.182Z</time></trkpt><trkpt lat="43.3166437" lon="11.3446083"><ele>286.0</ele><time>2026-04-04T10:03:37.184Z</time></trkpt><trkpt lat="43.3166996" lon="11.3445186"><ele>286.0</ele><time>2026-04-04T10:03:38.183Z</time></trkpt><trkpt lat="43.3167681" lon="11.3444361"><ele>285.66666666666663</ele><time>2026-04-04T10:03:39.182Z</time></trkpt><trkpt lat="43.3168132" lon="11.3443703"><ele>285.3333333333333</ele><time>2026-04-04T10:03:40.182Z</time></trkpt><trkpt lat="43.3168455" lon="11.3442917"><ele>285.0</ele><time>2026-04-04T10:03:41.182Z</time></trkpt><trkpt lat="43.3168092" lon="11.3441386"><ele>284.6666666666667</ele><time>2026-04-04T10:03:43.182Z</time></trkpt><trkpt lat="43.3167125" lon="11.3440521"><ele>284.33333333333337</ele><time>2026-04-04T10:03:45.182Z</time></trkpt><trkpt lat="43.3166614" lon="11.3439894"><ele>284.0</ele><time>2026-04-04T10:03:46.182Z</time></trkpt><trkpt lat="43.3166333" lon="11.3438295"><ele>283.6666666666667</ele><time>2026-04-04T10:03:48.182Z</time></trkpt><trkpt lat="43.3166609" lon="11.3437376"><ele>283.33333333333337</ele><time>2026-04-04T10:03:49.182Z</time></trkpt><trkpt lat="43.316698" lon="11.3436484"><ele>283.0</ele><time>2026-04-04T10:03:50.181Z</time></trkpt><trkpt lat="43.3167288" lon="11.3435483"><ele>282.6666666666667</ele><time>2026-04-04T10:03:51.182Z</time></trkpt><trkpt lat="43.316749" lon="11.3434347"><ele>282.3333333333333</ele><time>2026-04-04T10:03:52.182Z</time></trkpt><trkpt lat="43.3167729" lon="11.3432943"><ele>282.0</ele><time>2026-04-04T10:03:53.181Z</time></trkpt><trkpt lat="43.3167896" lon="11.3431433"><ele>281.2</ele><time>2026-04-04T10:03:54.181Z</time></trkpt><trkpt lat="43.3168203" lon="11.3429953"><ele>280.4</ele><time>2026-04-04T10:03:55.183Z</time></trkpt><trkpt lat="43.3168378" lon="11.3428659"><ele>279.6</ele><time>2026-04-04T10:03:56.181Z</time></trkpt><trkpt lat="43.3168607" lon="11.3427202"><ele>278.8</ele><time>2026-04-04T10:03:57.182Z</time></trkpt><trkpt lat="43.3168468" lon="11.3426077"><ele>278.0</ele><time>2026-04-04T10:03:58.182Z</time></trkpt><trkpt lat="43.3168354" lon="11.3425143"><ele>278.0</ele><time>2026-04-04T10:03:59.182Z</time></trkpt><trkpt lat="43.3167981" lon="11.3424152"><ele>278.0</ele><time>2026-04-04T10:04:00.183Z</time></trkpt><trkpt lat="43.3167292" lon="11.3423467"><ele>278.0</ele><time>2026-04-04T10:04:01.182Z</time></trkpt><trkpt lat="43.316626" lon="11.3423071"><ele>278.0</ele><time>2026-04-04T10:04:02.182Z</time></trkpt><trkpt lat="43.3165146" lon="11.3422777"><ele>278.0</ele><time>2026-04-04T10:04:03.182Z</time></trkpt><trkpt lat="43.3164012" lon="11.3422306"><ele>278.75</ele><time>2026-04-04T10:04:04.181Z</time></trkpt><trkpt lat="43.3162821" lon="11.3421963"><ele>279.5</ele><time>2026-04-04T10:04:05.183Z</time></trkpt><trkpt lat="43.3161575" lon="11.3421621"><ele>280.25</ele><time>2026-04-04T10:04:06.181Z</time></trkpt><trkpt lat="43.3160362" lon="11.3421163"><ele>281.0</ele><time>2026-04-04T10:04:07.183Z</time></trkpt><trkpt lat="43.3159192" lon="11.3420807"><ele>281.0</ele><time>2026-04-04T10:04:08.183Z</time></trkpt><trkpt lat="43.3157977" lon="11.3420637"><ele>281.0</ele><time>2026-04-04T10:04:09.182Z</time></trkpt><trkpt lat="43.3156811" lon="11.3420769"><ele>281.0</ele><time>2026-04-04T10:04:10.182Z</time></trkpt><trkpt lat="43.3155735" lon="11.3421253"><ele>281.0</ele><time>2026-04-04T10:04:11.182Z</time></trkpt><trkpt lat="43.315459" lon="11.3422056"><ele>280.5</ele><time>2026-04-04T10:04:12.183Z</time></trkpt><trkpt lat="43.3153395" lon="11.3422875"><ele>280.0</ele><time>2026-04-04T10:04:13.181Z</time></trkpt><trkpt lat="43.3152209" lon="11.3423737"><ele>279.5</ele><time>2026-04-04T10:04:14.181Z</time></trkpt><trkpt lat="43.3151053" lon="11.3424652"><ele>279.0</ele><time>2026-04-04T10:04:15.181Z</time></trkpt><trkpt lat="43.314999" lon="11.3425516"><ele>279.0</ele><time>2026-04-04T10:04:16.182Z</time></trkpt><trkpt lat="43.3148763" lon="11.3426498"><ele>279.0</ele><time>2026-04-04T10:04:17.182Z</time></trkpt><trkpt lat="43.3147653" lon="11.3427239"><ele>279.0</ele><time>2026-04-04T10:04:18.181Z</time></trkpt><trkpt lat="43.314663" lon="11.3427763"><ele>279.0</ele><time>2026-04-04T10:04:19.183Z</time></trkpt><trkpt lat="43.3145681" lon="11.3428101"><ele>278.3333333333333</ele><time>2026-04-04T10:04:20.182Z</time></trkpt><trkpt lat="43.3144906" lon="11.3427599"><ele>277.6666666666667</ele><time>2026-04-04T10:04:21.183Z</time></trkpt><trkpt lat="43.3144182" lon="11.3427056"><ele>277.0</ele><time>2026-04-04T10:04:22.181Z</time></trkpt><trkpt lat="43.3143698" lon="11.3426092"><ele>276.33333333333337</ele><time>2026-04-04T10:04:23.181Z</time></trkpt><trkpt lat="43.3143492" lon="11.3425035"><ele>275.6666666666667</ele><time>2026-04-04T10:04:24.182Z</time></trkpt><trkpt lat="43.3143237" lon="11.3423682"><ele>275.0</ele><time>2026-04-04T10:04:25.182Z</time></trkpt><trkpt lat="43.3142977" lon="11.3422172"><ele>276.2</ele><time>2026-04-04T10:04:26.181Z</time></trkpt><trkpt lat="43.3142675" lon="11.3420728"><ele>277.4</ele><time>2026-04-04T10:04:27.183Z</time></trkpt><trkpt lat="43.3142152" lon="11.3419422"><ele>278.6</ele><time>2026-04-04T10:04:28.182Z</time></trkpt><trkpt lat="43.3141423" lon="11.3418493"><ele>279.8</ele><time>2026-04-04T10:04:29.181Z</time></trkpt><trkpt lat="43.3140497" lon="11.341784"><ele>281.0</ele><time>2026-04-04T10:04:30.182Z</time></trkpt><trkpt lat="43.3139513" lon="11.3417349"><ele>280.2</ele><time>2026-04-04T10:04:31.182Z</time></trkpt><trkpt lat="43.3138531" lon="11.3416893"><ele>279.40000000000003</ele><time>2026-04-04T10:04:32.181Z</time></trkpt><trkpt lat="43.313757" lon="11.341652"><ele>278.6</ele><time>2026-04-04T10:04:33.182Z</time></trkpt><trkpt lat="43.3136498" lon="11.3416186"><ele>277.8</ele><time>2026-04-04T10:04:34.181Z</time></trkpt><trkpt lat="43.3135396" lon="11.3415868"><ele>277.0</ele><time>2026-04-04T10:04:35.183Z</time></trkpt><trkpt lat="43.3134327" lon="11.3415522"><ele>277.0</ele><time>2026-04-04T10:04:36.184Z</time></trkpt><trkpt lat="43.3133242" lon="11.341508"><ele>277.0</ele><time>2026-04-04T10:04:37.182Z</time></trkpt><trkpt lat="43.3132143" lon="11.3414656"><ele>277.0</ele><time>2026-04-04T10:04:38.182Z</time></trkpt><trkpt lat="43.3131049" lon="11.3414204"><ele>277.0</ele><time>2026-04-04T10:04:39.182Z</time></trkpt><trkpt lat="43.3129847" lon="11.3413792"><ele>278.4</ele><time>2026-04-04T10:04:40.182Z</time></trkpt><trkpt lat="43.3128741" lon="11.341342"><ele>279.79999999999995</ele><time>2026-04-04T10:04:41.182Z</time></trkpt><trkpt lat="43.3127825" lon="11.3413081"><ele>281.2</ele><time>2026-04-04T10:04:42.181Z</time></trkpt><trkpt lat="43.3127001" lon="11.3412621"><ele>282.59999999999997</ele><time>2026-04-04T10:04:43.183Z</time></trkpt><trkpt lat="43.3126292" lon="11.3412085"><ele>284.0</ele><time>2026-04-04T10:04:44.18Z</time></trkpt><trkpt lat="43.3125918" lon="11.3411238"><ele>284.0</ele><time>2026-04-04T10:04:45.183Z</time></trkpt><trkpt lat="43.3125562" lon="11.3410045"><ele>284.0</ele><time>2026-04-04T10:04:46.182Z</time></trkpt><trkpt lat="43.3125347" lon="11.3408805"><ele>284.0</ele><time>2026-04-04T10:04:47.182Z</time></trkpt><trkpt lat="43.3124898" lon="11.340764"><ele>284.0</ele><time>2026-04-04T10:04:48.18Z</time></trkpt><trkpt lat="43.3124414" lon="11.3406458"><ele>284.0</ele><time>2026-04-04T10:04:49.183Z</time></trkpt><trkpt lat="43.3123562" lon="11.3405257"><ele>284.59999999999997</ele><time>2026-04-04T10:04:50.181Z</time></trkpt><trkpt lat="43.312279" lon="11.3404398"><ele>285.2</ele><time>2026-04-04T10:04:51.181Z</time></trkpt><trkpt lat="43.3121754" lon="11.3403833"><ele>285.79999999999995</ele><time>2026-04-04T10:04:52.182Z</time></trkpt><trkpt lat="43.312081" lon="11.3403115"><ele>286.4</ele><time>2026-04-04T10:04:53.182Z</time></trkpt><trkpt lat="43.3119862" lon="11.3402345"><ele>287.0</ele><time>2026-04-04T10:04:54.182Z</time></trkpt><trkpt lat="43.3119167" lon="11.3400915"><ele>287.0</ele><time>2026-04-04T10:04:55.184Z</time></trkpt><trkpt lat="43.3118692" lon="11.3399854"><ele>287.0</ele><time>2026-04-04T10:04:56.182Z</time></trkpt><trkpt lat="43.3118291" lon="11.3398883"><ele>287.0</ele><time>2026-04-04T10:04:57.18Z</time></trkpt><trkpt lat="43.3117879" lon="11.3397806"><ele>287.0</ele><time>2026-04-04T10:04:58.182Z</time></trkpt><trkpt lat="43.3117758" lon="11.3396632"><ele>287.0</ele><time>2026-04-04T10:05:47.181Z</time></trkpt><trkpt lat="43.3117471" lon="11.339547"><ele>287.0</ele><time>2026-04-04T10:05:49.181Z</time></trkpt><trkpt lat="43.3117307" lon="11.3394086"><ele>287.0</ele><time>2026-04-04T10:05:51.182Z</time></trkpt><trkpt lat="43.3116877" lon="11.3393031"><ele>287.0</ele><time>2026-04-04T10:05:53.181Z</time></trkpt><trkpt lat="43.3116091" lon="11.3393113"><ele>287.0</ele><time>2026-04-04T10:05:54.181Z</time></trkpt><trkpt lat="43.3115353" lon="11.3393248"><ele>287.0</ele><time>2026-04-04T10:05:55.181Z</time></trkpt><trkpt lat="43.3114476" lon="11.3393208"><ele>287.0</ele><time>2026-04-04T10:05:56.182Z</time></trkpt><trkpt lat="43.3113524" lon="11.3393216"><ele>287.0</ele><time>2026-04-04T10:05:57.182Z</time></trkpt><trkpt lat="43.3112475" lon="11.3393225"><ele>287.0</ele><time>2026-04-04T10:05:58.18Z</time></trkpt><trkpt lat="43.3111325" lon="11.3393218"><ele>287.0</ele><time>2026-04-04T10:05:59.182Z</time></trkpt><trkpt lat="43.3110167" lon="11.3393173"><ele>287.0</ele><time>2026-04-04T10:06:00.18Z</time></trkpt><trkpt lat="43.3108947" lon="11.3393098"><ele>287.0</ele><time>2026-04-04T10:06:01.181Z</time></trkpt><trkpt lat="43.3107769" lon="11.3392951"><ele>287.0</ele><time>2026-04-04T10:06:02.181Z</time></trkpt><trkpt lat="43.3106582" lon="11.3392795"><ele>287.0</ele><time>2026-04-04T10:06:03.181Z</time></trkpt><trkpt lat="43.3105447" lon="11.3392627"><ele>287.0</ele><time>2026-04-04T10:06:04.18Z</time></trkpt><trkpt lat="43.3104224" lon="11.3392402"><ele>287.0</ele><time>2026-04-04T10:06:05.182Z</time></trkpt><trkpt lat="43.3103094" lon="11.339216"><ele>286.4</ele><time>2026-04-04T10:06:06.181Z</time></trkpt><trkpt lat="43.3101956" lon="11.3391949"><ele>285.79999999999995</ele><time>2026-04-04T10:06:07.18Z</time></trkpt><trkpt lat="43.3100831" lon="11.3391737"><ele>285.2</ele><time>2026-04-04T10:06:08.18Z</time></trkpt><trkpt lat="43.3099714" lon="11.3391489"><ele>284.59999999999997</ele><time>2026-04-04T10:06:09.182Z</time></trkpt><trkpt lat="43.3098775" lon="11.3391275"><ele>284.0</ele><time>2026-04-04T10:06:10.18Z</time></trkpt><trkpt lat="43.3097734" lon="11.3391134"><ele>283.4</ele><time>2026-04-04T10:06:11.181Z</time></trkpt><trkpt lat="43.3096822" lon="11.3390879"><ele>282.79999999999995</ele><time>2026-04-04T10:06:12.18Z</time></trkpt><trkpt lat="43.3095807" lon="11.3390619"><ele>282.20000000000005</ele><time>2026-04-04T10:06:13.182Z</time></trkpt><trkpt lat="43.3094835" lon="11.3390615"><ele>281.6</ele><time>2026-04-04T10:06:14.181Z</time></trkpt><trkpt lat="43.3093847" lon="11.3390592"><ele>281.0</ele><time>2026-04-04T10:06:15.182Z</time></trkpt><trkpt lat="43.3092888" lon="11.3390467"><ele>281.0</ele><time>2026-04-04T10:06:16.18Z</time></trkpt><trkpt lat="43.3091794" lon="11.3390392"><ele>281.0</ele><time>2026-04-04T10:06:17.183Z</time></trkpt><trkpt lat="43.3090982" lon="11.3390185"><ele>281.0</ele><time>2026-04-04T10:06:18.181Z</time></trkpt><trkpt lat="43.3089994" lon="11.3390028"><ele>281.0</ele><time>2026-04-04T10:06:19.182Z</time></trkpt><trkpt lat="43.3088912" lon="11.3389828"><ele>281.0</ele><time>2026-04-04T10:06:20.181Z</time></trkpt><trkpt lat="43.3088029" lon="11.3389671"><ele>279.8</ele><time>2026-04-04T10:06:21.183Z</time></trkpt><trkpt lat="43.3086867" lon="11.3389431"><ele>278.6</ele><time>2026-04-04T10:06:22.181Z</time></trkpt><trkpt lat="43.3085798" lon="11.3389289"><ele>277.4</ele><time>2026-04-04T10:06:23.182Z</time></trkpt><trkpt lat="43.3084765" lon="11.3389146"><ele>276.2</ele><time>2026-04-04T10:06:24.18Z</time></trkpt><trkpt lat="43.3083573" lon="11.3389001"><ele>275.0</ele><time>2026-04-04T10:06:25.183Z</time></trkpt><trkpt lat="43.3082521" lon="11.3389049"><ele>275.0</ele><time>2026-04-04T10:06:26.181Z</time></trkpt><trkpt lat="43.3081529" lon="11.3389028"><ele>275.0</ele><time>2026-04-04T10:06:27.181Z</time></trkpt><trkpt lat="43.3080458" lon="11.3389079"><ele>275.0</ele><time>2026-04-04T10:06:28.182Z</time></trkpt><trkpt lat="43.3079462" lon="11.3389272"><ele>275.0</ele><time>2026-04-04T10:06:29.184Z</time></trkpt><trkpt lat="43.3078432" lon="11.3389358"><ele>275.0</ele><time>2026-04-04T10:06:30.18Z</time></trkpt><trkpt lat="43.3077505" lon="11.3389606"><ele>276.2</ele><time>2026-04-04T10:06:31.182Z</time></trkpt><trkpt lat="43.3076473" lon="11.3389897"><ele>277.4</ele><time>2026-04-04T10:06:32.183Z</time></trkpt><trkpt lat="43.3075382" lon="11.3390217"><ele>278.6</ele><time>2026-04-04T10:06:33.181Z</time></trkpt><trkpt lat="43.307437" lon="11.3390555"><ele>279.8</ele><time>2026-04-04T10:06:34.183Z</time></trkpt><trkpt lat="43.3073353" lon="11.3390995"><ele>281.0</ele><time>2026-04-04T10:06:35.182Z</time></trkpt><trkpt lat="43.3072258" lon="11.3391471"><ele>281.0</ele><time>2026-04-04T10:06:36.181Z</time></trkpt><trkpt lat="43.3071216" lon="11.3391758"><ele>281.0</ele><time>2026-04-04T10:06:37.182Z</time></trkpt><trkpt lat="43.3070127" lon="11.3391823"><ele>281.0</ele><time>2026-04-04T10:06:38.182Z</time></trkpt><trkpt lat="43.3069005" lon="11.3391981"><ele>281.0</ele><time>2026-04-04T10:06:39.183Z</time></trkpt><trkpt lat="43.3067854" lon="11.3391626"><ele>281.0</ele><time>2026-04-04T10:06:40.182Z</time></trkpt><trkpt lat="43.3066651" lon="11.3391424"><ele>281.0</ele><time>2026-04-04T10:06:41.181Z</time></trkpt><trkpt lat="43.3065509" lon="11.3391021"><ele>281.0</ele><time>2026-04-04T10:06:42.181Z</time></trkpt><trkpt lat="43.3064459" lon="11.3390524"><ele>281.0</ele><time>2026-04-04T10:06:43.182Z</time></trkpt><trkpt lat="43.3063459" lon="11.3389908"><ele>281.0</ele><time>2026-04-04T10:06:44.181Z</time></trkpt><trkpt lat="43.306237" lon="11.3389026"><ele>280.75</ele><time>2026-04-04T10:06:45.182Z</time></trkpt><trkpt lat="43.3061458" lon="11.3388054"><ele>280.5</ele><time>2026-04-04T10:06:46.181Z</time></trkpt><trkpt lat="43.3060465" lon="11.3386848"><ele>280.25</ele><time>2026-04-04T10:06:47.181Z</time></trkpt><trkpt lat="43.3059577" lon="11.3385735"><ele>280.0</ele><time>2026-04-04T10:06:48.181Z</time></trkpt><trkpt lat="43.3058701" lon="11.3384685"><ele>280.0</ele><time>2026-04-04T10:06:49.181Z</time></trkpt><trkpt lat="43.3057795" lon="11.338351"><ele>280.0</ele><time>2026-04-04T10:06:50.181Z</time></trkpt><trkpt lat="43.3056936" lon="11.3382407"><ele>280.0</ele><time>2026-04-04T10:06:51.181Z</time></trkpt><trkpt lat="43.3056032" lon="11.3381262"><ele>280.0</ele><time>2026-04-04T10:06:52.18Z</time></trkpt><trkpt lat="43.3055141" lon="11.3380145"><ele>279.75</ele><time>2026-04-04T10:06:53.18Z</time></trkpt><trkpt lat="43.3054196" lon="11.3379022"><ele>279.5</ele><time>2026-04-04T10:06:54.181Z</time></trkpt><trkpt lat="43.305336" lon="11.3377871"><ele>279.25</ele><time>2026-04-04T10:06:55.182Z</time></trkpt><trkpt lat="43.3052531" lon="11.3376775"><ele>279.0</ele><time>2026-04-04T10:06:56.182Z</time></trkpt><trkpt lat="43.3051558" lon="11.3375727"><ele>279.0</ele><time>2026-04-04T10:06:57.182Z</time></trkpt><trkpt lat="43.3050544" lon="11.3374815"><ele>279.0</ele><time>2026-04-04T10:06:58.18Z</time></trkpt><trkpt lat="43.3049526" lon="11.3374057"><ele>279.0</ele><time>2026-04-04T10:06:59.181Z</time></trkpt><trkpt lat="43.3048434" lon="11.3373392"><ele>279.0</ele><time>2026-04-04T10:07:00.181Z</time></trkpt><trkpt lat="43.3047284" lon="11.337268"><ele>277.0</ele><time>2026-04-04T10:07:01.181Z</time></trkpt><trkpt lat="43.3046255" lon="11.3371783"><ele>275.0</ele><time>2026-04-04T10:07:02.181Z</time></trkpt><trkpt lat="43.3045271" lon="11.3371067"><ele>273.0</ele><time>2026-04-04T10:07:03.181Z</time></trkpt><trkpt lat="43.3044341" lon="11.337033"><ele>271.0</ele><time>2026-04-04T10:07:04.181Z</time></trkpt><trkpt lat="43.3043251" lon="11.3369807"><ele>271.0</ele><time>2026-04-04T10:07:05.18Z</time></trkpt><trkpt lat="43.3042211" lon="11.336936"><ele>271.0</ele><time>2026-04-04T10:07:06.182Z</time></trkpt><trkpt lat="43.3040682" lon="11.3369356"><ele>271.0</ele><time>2026-04-04T10:07:07.182Z</time></trkpt><trkpt lat="43.3039422" lon="11.3369785"><ele>271.0</ele><time>2026-04-04T10:07:08.18Z</time></trkpt><trkpt lat="43.3038136" lon="11.3370259"><ele>270.75</ele><time>2026-04-04T10:07:09.182Z</time></trkpt><trkpt lat="43.3036772" lon="11.3370824"><ele>270.5</ele><time>2026-04-04T10:07:10.183Z</time></trkpt><trkpt lat="43.3035582" lon="11.3371481"><ele>270.25</ele><time>2026-04-04T10:07:11.182Z</time></trkpt><trkpt lat="43.303437" lon="11.3372077"><ele>270.0</ele><time>2026-04-04T10:07:12.182Z</time></trkpt><trkpt lat="43.3033071" lon="11.3372518"><ele>270.0</ele><time>2026-04-04T10:07:13.181Z</time></trkpt><trkpt lat="43.3031784" lon="11.3373068"><ele>270.0</ele><time>2026-04-04T10:07:14.181Z</time></trkpt><trkpt lat="43.3030628" lon="11.3373731"><ele>270.0</ele><time>2026-04-04T10:07:15.181Z</time></trkpt><trkpt lat="43.3029484" lon="11.3374477"><ele>270.0</ele><time>2026-04-04T10:07:16.18Z</time></trkpt><trkpt lat="43.3028345" lon="11.3375282"><ele>269.5</ele><time>2026-04-04T10:07:17.179Z</time></trkpt><trkpt lat="43.3027224" lon="11.3376122"><ele>269.0</ele><time>2026-04-04T10:07:18.18Z</time></trkpt><trkpt lat="43.3026151" lon="11.337692"><ele>268.5</ele><time>2026-04-04T10:07:19.182Z</time></trkpt><trkpt lat="43.3025015" lon="11.3377749"><ele>268.0</ele><time>2026-04-04T10:07:20.181Z</time></trkpt><trkpt lat="43.3023663" lon="11.3378429"><ele>265.0</ele><time>2026-04-04T10:07:21.18Z</time></trkpt><trkpt lat="43.3022245" lon="11.3378808"><ele>262.0</ele><time>2026-04-04T10:07:22.18Z</time></trkpt><trkpt lat="43.3020847" lon="11.3379048"><ele>259.0</ele><time>2026-04-04T10:07:23.181Z</time></trkpt><trkpt lat="43.3019477" lon="11.3379525"><ele>256.0</ele><time>2026-04-04T10:07:24.182Z</time></trkpt><trkpt lat="43.3018056" lon="11.3379852"><ele>256.0</ele><time>2026-04-04T10:07:25.182Z</time></trkpt><trkpt lat="43.3016615" lon="11.3379988"><ele>256.0</ele><time>2026-04-04T10:07:26.182Z</time></trkpt><trkpt lat="43.3015292" lon="11.3379866"><ele>256.0</ele><time>2026-04-04T10:07:27.18Z</time></trkpt><trkpt lat="43.301398" lon="11.3379439"><ele>256.0</ele><time>2026-04-04T10:07:28.181Z</time></trkpt><trkpt lat="43.3012688" lon="11.3378925"><ele>255.25</ele><time>2026-04-04T10:07:29.18Z</time></trkpt><trkpt lat="43.3011497" lon="11.3378081"><ele>254.5</ele><time>2026-04-04T10:07:30.181Z</time></trkpt><trkpt lat="43.3010329" lon="11.3377265"><ele>253.75</ele><time>2026-04-04T10:07:31.181Z</time></trkpt><trkpt lat="43.3009224" lon="11.3376258"><ele>253.0</ele><time>2026-04-04T10:07:32.181Z</time></trkpt><trkpt lat="43.300822" lon="11.3375206"><ele>253.0</ele><time>2026-04-04T10:07:33.182Z</time></trkpt><trkpt lat="43.3007076" lon="11.3374417"><ele>253.0</ele><time>2026-04-04T10:07:34.181Z</time></trkpt><trkpt lat="43.300591" lon="11.3373603"><ele>253.0</ele><time>2026-04-04T10:07:35.18Z</time></trkpt><trkpt lat="43.3004626" lon="11.3372914"><ele>253.0</ele><time>2026-04-04T10:07:36.181Z</time></trkpt><trkpt lat="43.3003393" lon="11.3372452"><ele>251.75</ele><time>2026-04-04T10:07:37.18Z</time></trkpt><trkpt lat="43.3002132" lon="11.337214"><ele>250.5</ele><time>2026-04-04T10:07:38.182Z</time></trkpt><trkpt lat="43.3000957" lon="11.3371868"><ele>249.25</ele><time>2026-04-04T10:07:39.18Z</time></trkpt><trkpt lat="43.299983" lon="11.337165"><ele>248.0</ele><time>2026-04-04T10:07:40.182Z</time></trkpt><trkpt lat="43.2998715" lon="11.3371486"><ele>248.0</ele><time>2026-04-04T10:07:41.182Z</time></trkpt><trkpt lat="43.2997618" lon="11.3371311"><ele>248.0</ele><time>2026-04-04T10:07:42.182Z</time></trkpt><trkpt lat="43.299649" lon="11.3371165"><ele>248.0</ele><time>2026-04-04T10:07:43.181Z</time></trkpt><trkpt lat="43.29953" lon="11.3371374"><ele>248.0</ele><time>2026-04-04T10:07:44.182Z</time></trkpt><trkpt lat="43.2994399" lon="11.3371479"><ele>248.0</ele><time>2026-04-04T10:07:45.182Z</time></trkpt><trkpt lat="43.299321" lon="11.3371718"><ele>248.0</ele><time>2026-04-04T10:07:46.181Z</time></trkpt><trkpt lat="43.2992139" lon="11.3371978"><ele>248.0</ele><time>2026-04-04T10:07:47.18Z</time></trkpt><trkpt lat="43.2990964" lon="11.3372307"><ele>248.0</ele><time>2026-04-04T10:07:48.182Z</time></trkpt><trkpt lat="43.2989832" lon="11.3372528"><ele>248.0</ele><time>2026-04-04T10:07:49.182Z</time></trkpt><trkpt lat="43.2988665" lon="11.3373035"><ele>247.0</ele><time>2026-04-04T10:07:50.179Z</time></trkpt><trkpt lat="43.298755" lon="11.3373626"><ele>246.0</ele><time>2026-04-04T10:07:51.181Z</time></trkpt><trkpt lat="43.2986392" lon="11.3374319"><ele>245.0</ele><time>2026-04-04T10:07:52.181Z</time></trkpt><trkpt lat="43.2985312" lon="11.3375181"><ele>244.0</ele><time>2026-04-04T10:07:53.181Z</time></trkpt><trkpt lat="43.2984143" lon="11.3376084"><ele>244.0</ele><time>2026-04-04T10:07:54.182Z</time></trkpt><trkpt lat="43.2983097" lon="11.3376997"><ele>244.0</ele><time>2026-04-04T10:07:55.182Z</time></trkpt><trkpt lat="43.2982042" lon="11.3378143"><ele>244.0</ele><time>2026-04-04T10:07:56.18Z</time></trkpt><trkpt lat="43.2981047" lon="11.3379412"><ele>244.0</ele><time>2026-04-04T10:07:57.182Z</time></trkpt><trkpt lat="43.298012" lon="11.3380639"><ele>243.25</ele><time>2026-04-04T10:07:58.181Z</time></trkpt><trkpt lat="43.2979117" lon="11.3382"><ele>242.5</ele><time>2026-04-04T10:07:59.182Z</time></trkpt><trkpt lat="43.2978051" lon="11.3383404"><ele>241.75</ele><time>2026-04-04T10:08:00.181Z</time></trkpt><trkpt lat="43.2976994" lon="11.3384686"><ele>241.0</ele><time>2026-04-04T10:08:01.181Z</time></trkpt><trkpt lat="43.2976029" lon="11.3385951"><ele>241.0</ele><time>2026-04-04T10:08:02.181Z</time></trkpt><trkpt lat="43.2975125" lon="11.3387367"><ele>241.0</ele><time>2026-04-04T10:08:03.182Z</time></trkpt><trkpt lat="43.2974164" lon="11.3388702"><ele>241.0</ele><time>2026-04-04T10:08:04.181Z</time></trkpt><trkpt lat="43.2973204" lon="11.3389984"><ele>241.0</ele><time>2026-04-04T10:08:05.182Z</time></trkpt><trkpt lat="43.2972212" lon="11.3391265"><ele>240.75</ele><time>2026-04-04T10:08:06.181Z</time></trkpt><trkpt lat="43.2971271" lon="11.3392545"><ele>240.5</ele><time>2026-04-04T10:08:07.182Z</time></trkpt><trkpt lat="43.2970392" lon="11.339371"><ele>240.25</ele><time>2026-04-04T10:08:08.182Z</time></trkpt><trkpt lat="43.2969432" lon="11.3394953"><ele>240.0</ele><time>2026-04-04T10:08:09.18Z</time></trkpt><trkpt lat="43.296855" lon="11.3396207"><ele>240.5</ele><time>2026-04-04T10:08:10.18Z</time></trkpt><trkpt lat="43.2967745" lon="11.3397469"><ele>241.0</ele><time>2026-04-04T10:08:11.179Z</time></trkpt><trkpt lat="43.2966935" lon="11.3398809"><ele>241.5</ele><time>2026-04-04T10:08:12.18Z</time></trkpt><trkpt lat="43.2966149" lon="11.3400109"><ele>242.0</ele><time>2026-04-04T10:08:13.18Z</time></trkpt><trkpt lat="43.2965477" lon="11.3401406"><ele>242.0</ele><time>2026-04-04T10:08:14.181Z</time></trkpt><trkpt lat="43.2964748" lon="11.3402701"><ele>242.0</ele><time>2026-04-04T10:08:15.182Z</time></trkpt><trkpt lat="43.2964138" lon="11.3403863"><ele>242.0</ele><time>2026-04-04T10:08:16.18Z</time></trkpt><trkpt lat="43.2963602" lon="11.3405074"><ele>242.0</ele><time>2026-04-04T10:08:17.179Z</time></trkpt><trkpt lat="43.2963059" lon="11.3406247"><ele>242.0</ele><time>2026-04-04T10:08:18.18Z</time></trkpt><trkpt lat="43.2962578" lon="11.3407431"><ele>242.50000000000003</ele><time>2026-04-04T10:08:19.18Z</time></trkpt><trkpt lat="43.2962124" lon="11.3408615"><ele>243.0</ele><time>2026-04-04T10:08:20.181Z</time></trkpt><trkpt lat="43.2961575" lon="11.3409604"><ele>243.5</ele><time>2026-04-04T10:08:21.18Z</time></trkpt><trkpt lat="43.296123" lon="11.3410563"><ele>244.0</ele><time>2026-04-04T10:08:22.179Z</time></trkpt><trkpt lat="43.2960885" lon="11.3411393"><ele>244.50000000000003</ele><time>2026-04-04T10:08:23.179Z</time></trkpt><trkpt lat="43.2960597" lon="11.3412236"><ele>245.0</ele><time>2026-04-04T10:08:24.182Z</time></trkpt><trkpt lat="43.29601" lon="11.3413423"><ele>245.0</ele><time>2026-04-04T10:08:26.181Z</time></trkpt><trkpt lat="43.2959691" lon="11.3414369"><ele>245.0</ele><time>2026-04-04T10:09:03.18Z</time></trkpt><trkpt lat="43.295899" lon="11.3415793"><ele>245.0</ele><time>2026-04-04T10:09:05.181Z</time></trkpt><trkpt lat="43.2958584" lon="11.3416708"><ele>245.0</ele><time>2026-04-04T10:09:06.18Z</time></trkpt><trkpt lat="43.2958176" lon="11.3417706"><ele>245.0</ele><time>2026-04-04T10:09:07.181Z</time></trkpt><trkpt lat="43.2957697" lon="11.3418727"><ele>245.0</ele><time>2026-04-04T10:09:08.181Z</time></trkpt><trkpt lat="43.2957118" lon="11.3419714"><ele>245.0</ele><time>2026-04-04T10:09:09.182Z</time></trkpt><trkpt lat="43.2956395" lon="11.3420692"><ele>245.0</ele><time>2026-04-04T10:09:10.18Z</time></trkpt><trkpt lat="43.2955572" lon="11.342169"><ele>245.0</ele><time>2026-04-04T10:09:11.18Z</time></trkpt><trkpt lat="43.2954686" lon="11.3422597"><ele>245.0</ele><time>2026-04-04T10:09:12.179Z</time></trkpt><trkpt lat="43.2953657" lon="11.3423559"><ele>245.0</ele><time>2026-04-04T10:09:13.182Z</time></trkpt><trkpt lat="43.2952613" lon="11.3424426"><ele>245.0</ele><time>2026-04-04T10:09:14.18Z</time></trkpt><trkpt lat="43.2951472" lon="11.34252"><ele>245.0</ele><time>2026-04-04T10:09:15.18Z</time></trkpt><trkpt lat="43.2950227" lon="11.3425982"><ele>245.0</ele><time>2026-04-04T10:09:16.18Z</time></trkpt><trkpt lat="43.2949026" lon="11.3426804"><ele>245.0</ele><time>2026-04-04T10:09:17.18Z</time></trkpt><trkpt lat="43.2947778" lon="11.3427445"><ele>245.0</ele><time>2026-04-04T10:09:18.182Z</time></trkpt><trkpt lat="43.2946378" lon="11.3428141"><ele>245.0</ele><time>2026-04-04T10:09:19.181Z</time></trkpt><trkpt lat="43.2945039" lon="11.3428831"><ele>245.0</ele><time>2026-04-04T10:09:20.181Z</time></trkpt><trkpt lat="43.2943683" lon="11.3429549"><ele>244.66666666666669</ele><time>2026-04-04T10:09:21.18Z</time></trkpt><trkpt lat="43.2942302" lon="11.3430172"><ele>244.33333333333331</ele><time>2026-04-04T10:09:22.18Z</time></trkpt><trkpt lat="43.2940814" lon="11.3430702"><ele>244.0</ele><time>2026-04-04T10:09:23.183Z</time></trkpt><trkpt lat="43.2939265" lon="11.3431233"><ele>243.66666666666666</ele><time>2026-04-04T10:09:24.179Z</time></trkpt><trkpt lat="43.2937764" lon="11.3431612"><ele>243.33333333333331</ele><time>2026-04-04T10:09:25.181Z</time></trkpt><trkpt lat="43.2936258" lon="11.3432027"><ele>243.0</ele><time>2026-04-04T10:09:26.179Z</time></trkpt><trkpt lat="43.2934636" lon="11.3432493"><ele>243.0</ele><time>2026-04-04T10:09:27.18Z</time></trkpt><trkpt lat="43.2933065" lon="11.343289"><ele>243.0</ele><time>2026-04-04T10:09:28.18Z</time></trkpt><trkpt lat="43.2931592" lon="11.3433217"><ele>243.0</ele><time>2026-04-04T10:09:29.181Z</time></trkpt><trkpt lat="43.293017" lon="11.3433755"><ele>244.0</ele><time>2026-04-04T10:09:30.181Z</time></trkpt><trkpt lat="43.2928777" lon="11.3434273"><ele>245.0</ele><time>2026-04-04T10:09:31.18Z</time></trkpt><trkpt lat="43.2927359" lon="11.3434709"><ele>246.0</ele><time>2026-04-04T10:09:32.18Z</time></trkpt><trkpt lat="43.2925983" lon="11.3435254"><ele>247.0</ele><time>2026-04-04T10:09:33.18Z</time></trkpt><trkpt lat="43.2924706" lon="11.3435698"><ele>247.0</ele><time>2026-04-04T10:09:34.182Z</time></trkpt><trkpt lat="43.2923345" lon="11.3436178"><ele>247.0</ele><time>2026-04-04T10:09:35.181Z</time></trkpt><trkpt lat="43.2921996" lon="11.3436731"><ele>247.0</ele><time>2026-04-04T10:09:36.181Z</time></trkpt><trkpt lat="43.2920615" lon="11.3437236"><ele>247.0</ele><time>2026-04-04T10:09:37.181Z</time></trkpt><trkpt lat="43.2919287" lon="11.3437662"><ele>246.5</ele><time>2026-04-04T10:09:38.182Z</time></trkpt><trkpt lat="43.2917986" lon="11.3437823"><ele>246.0</ele><time>2026-04-04T10:09:39.18Z</time></trkpt><trkpt lat="43.2916561" lon="11.3438191"><ele>245.5</ele><time>2026-04-04T10:09:40.18Z</time></trkpt><trkpt lat="43.2915037" lon="11.3438443"><ele>245.0</ele><time>2026-04-04T10:09:41.181Z</time></trkpt><trkpt lat="43.2913502" lon="11.3438722"><ele>244.66666666666669</ele><time>2026-04-04T10:09:42.18Z</time></trkpt><trkpt lat="43.2911982" lon="11.3438843"><ele>244.33333333333331</ele><time>2026-04-04T10:09:43.179Z</time></trkpt><trkpt lat="43.291031" lon="11.3438959"><ele>244.0</ele><time>2026-04-04T10:09:44.181Z</time></trkpt><trkpt lat="43.2908625" lon="11.3439129"><ele>244.0</ele><time>2026-04-04T10:09:45.18Z</time></trkpt><trkpt lat="43.2906877" lon="11.343911"><ele>244.0</ele><time>2026-04-04T10:09:46.18Z</time></trkpt><trkpt lat="43.2905187" lon="11.3438923"><ele>244.0</ele><time>2026-04-04T10:09:47.181Z</time></trkpt><trkpt lat="43.2903528" lon="11.3438598"><ele>245.0</ele><time>2026-04-04T10:09:48.18Z</time></trkpt><trkpt lat="43.2901901" lon="11.343809"><ele>246.0</ele><time>2026-04-04T10:09:49.18Z</time></trkpt><trkpt lat="43.2900372" lon="11.3437661"><ele>247.0</ele><time>2026-04-04T10:09:50.181Z</time></trkpt><trkpt lat="43.2898953" lon="11.3437316"><ele>247.0</ele><time>2026-04-04T10:09:51.18Z</time></trkpt><trkpt lat="43.2897722" lon="11.3437059"><ele>247.0</ele><time>2026-04-04T10:09:52.179Z</time></trkpt><trkpt lat="43.2896729" lon="11.3437025"><ele>247.0</ele><time>2026-04-04T10:09:53.18Z</time></trkpt><trkpt lat="43.2895881" lon="11.3437068"><ele>247.0</ele><time>2026-04-04T10:09:54.18Z</time></trkpt><trkpt lat="43.2894847" lon="11.3437262"><ele>247.0</ele><time>2026-04-04T10:09:56.18Z</time></trkpt><trkpt lat="43.2893959" lon="11.343751"><ele>247.2</ele><time>2026-04-04T10:09:59.18Z</time></trkpt><trkpt lat="43.2893176" lon="11.3437669"><ele>247.39999999999998</ele><time>2026-04-04T10:10:01.182Z</time></trkpt><trkpt lat="43.2892216" lon="11.3437849"><ele>247.60000000000002</ele><time>2026-04-04T10:10:03.179Z</time></trkpt><trkpt lat="43.2891037" lon="11.3438148"><ele>247.8</ele><time>2026-04-04T10:10:05.18Z</time></trkpt><trkpt lat="43.2890078" lon="11.3438401"><ele>248.0</ele><time>2026-04-04T10:10:07.18Z</time></trkpt><trkpt lat="43.2889036" lon="11.3438471"><ele>248.0</ele><time>2026-04-04T10:10:09.18Z</time></trkpt><trkpt lat="43.2888386" lon="11.3438625"><ele>248.0</ele><time>2026-04-04T10:10:10.179Z</time></trkpt><trkpt lat="43.2887566" lon="11.3438746"><ele>248.0</ele><time>2026-04-04T10:10:11.179Z</time></trkpt><trkpt lat="43.2886674" lon="11.3438954"><ele>248.0</ele><time>2026-04-04T10:10:12.18Z</time></trkpt><trkpt lat="43.2885429" lon="11.3439306"><ele>248.0</ele><time>2026-04-04T10:10:13.181Z</time></trkpt><trkpt lat="43.2884329" lon="11.3439581"><ele>248.0</ele><time>2026-04-04T10:10:14.18Z</time></trkpt><trkpt lat="43.2883285" lon="11.343982"><ele>248.0</ele><time>2026-04-04T10:10:15.179Z</time></trkpt><trkpt lat="43.288215" lon="11.3440182"><ele>248.0</ele><time>2026-04-04T10:10:16.181Z</time></trkpt><trkpt lat="43.288092" lon="11.3440608"><ele>248.0</ele><time>2026-04-04T10:10:17.18Z</time></trkpt><trkpt lat="43.2879843" lon="11.3441074"><ele>248.0</ele><time>2026-04-04T10:10:18.18Z</time></trkpt><trkpt lat="43.2878796" lon="11.3441678"><ele>248.0</ele><time>2026-04-04T10:10:19.179Z</time></trkpt><trkpt lat="43.2877788" lon="11.3442445"><ele>248.0</ele><time>2026-04-04T10:10:20.179Z</time></trkpt><trkpt lat="43.2876824" lon="11.3443351"><ele>248.0</ele><time>2026-04-04T10:10:21.179Z</time></trkpt><trkpt lat="43.2875865" lon="11.3444459"><ele>248.0</ele><time>2026-04-04T10:10:22.181Z</time></trkpt><trkpt lat="43.2874944" lon="11.3445645"><ele>248.0</ele><time>2026-04-04T10:10:23.179Z</time></trkpt><trkpt lat="43.2873978" lon="11.3446876"><ele>248.0</ele><time>2026-04-04T10:10:24.181Z</time></trkpt><trkpt lat="43.2873053" lon="11.3448195"><ele>248.0</ele><time>2026-04-04T10:10:25.181Z</time></trkpt><trkpt lat="43.2872158" lon="11.3449547"><ele>247.25</ele><time>2026-04-04T10:10:26.18Z</time></trkpt><trkpt lat="43.2871294" lon="11.3450907"><ele>246.5</ele><time>2026-04-04T10:10:27.179Z</time></trkpt><trkpt lat="43.2870453" lon="11.3452532"><ele>245.75</ele><time>2026-04-04T10:10:28.181Z</time></trkpt><trkpt lat="43.2869698" lon="11.345405"><ele>245.0</ele><time>2026-04-04T10:10:29.18Z</time></trkpt><trkpt lat="43.286905" lon="11.3455634"><ele>245.0</ele><time>2026-04-04T10:10:30.178Z</time></trkpt><trkpt lat="43.2868497" lon="11.3457298"><ele>245.0</ele><time>2026-04-04T10:10:31.179Z</time></trkpt><trkpt lat="43.2868042" lon="11.3458872"><ele>245.0</ele><time>2026-04-04T10:10:32.179Z</time></trkpt><trkpt lat="43.2867697" lon="11.3460456"><ele>245.0</ele><time>2026-04-04T10:10:33.18Z</time></trkpt><trkpt lat="43.2867403" lon="11.3461953"><ele>245.00000000000003</ele><time>2026-04-04T10:10:34.179Z</time></trkpt><trkpt lat="43.2867152" lon="11.3463221"><ele>245.0</ele><time>2026-04-04T10:10:35.18Z</time></trkpt><trkpt lat="43.2867017" lon="11.3464468"><ele>245.0</ele><time>2026-04-04T10:10:36.181Z</time></trkpt><trkpt lat="43.2866904" lon="11.3465618"><ele>245.0</ele><time>2026-04-04T10:10:37.181Z</time></trkpt><trkpt lat="43.2866513" lon="11.3466709"><ele>245.00000000000003</ele><time>2026-04-04T10:10:38.18Z</time></trkpt><trkpt lat="43.2866545" lon="11.3467877"><ele>245.0</ele><time>2026-04-04T10:10:39.18Z</time></trkpt><trkpt lat="43.2866582" lon="11.3468956"><ele>244.33333333333334</ele><time>2026-04-04T10:10:40.18Z</time></trkpt><trkpt lat="43.2866509" lon="11.3469972"><ele>243.66666666666669</ele><time>2026-04-04T10:10:41.18Z</time></trkpt><trkpt lat="43.286646" lon="11.3471031"><ele>243.0</ele><time>2026-04-04T10:10:42.18Z</time></trkpt><trkpt lat="43.2866374" lon="11.3472201"><ele>242.33333333333331</ele><time>2026-04-04T10:10:43.18Z</time></trkpt><trkpt lat="43.2866223" lon="11.3473395"><ele>241.66666666666666</ele><time>2026-04-04T10:10:44.18Z</time></trkpt><trkpt lat="43.2865946" lon="11.3474701"><ele>241.0</ele><time>2026-04-04T10:10:45.179Z</time></trkpt><trkpt lat="43.2865687" lon="11.3476125"><ele>241.0</ele><time>2026-04-04T10:10:46.178Z</time></trkpt><trkpt lat="43.2865302" lon="11.3477582"><ele>241.0</ele><time>2026-04-04T10:10:47.178Z</time></trkpt><trkpt lat="43.2864863" lon="11.3479132"><ele>241.0</ele><time>2026-04-04T10:10:48.179Z</time></trkpt><trkpt lat="43.2864327" lon="11.3480757"><ele>241.0</ele><time>2026-04-04T10:10:49.179Z</time></trkpt><trkpt lat="43.286384" lon="11.3482465"><ele>239.25</ele><time>2026-04-04T10:10:50.18Z</time></trkpt><trkpt lat="43.2863221" lon="11.348423"><ele>237.5</ele><time>2026-04-04T10:10:51.18Z</time></trkpt><trkpt lat="43.2862607" lon="11.3485813"><ele>235.75</ele><time>2026-04-04T10:10:52.179Z</time></trkpt><trkpt lat="43.2861867" lon="11.3487476"><ele>234.0</ele><time>2026-04-04T10:10:53.181Z</time></trkpt><trkpt lat="43.286108" lon="11.3489081"><ele>234.0</ele><time>2026-04-04T10:10:54.18Z</time></trkpt><trkpt lat="43.28604" lon="11.3490813"><ele>234.0</ele><time>2026-04-04T10:10:55.18Z</time></trkpt><trkpt lat="43.2859709" lon="11.3492502"><ele>234.0</ele><time>2026-04-04T10:10:56.18Z</time></trkpt><trkpt lat="43.2859039" lon="11.3494155"><ele>234.0</ele><time>2026-04-04T10:10:57.181Z</time></trkpt><trkpt lat="43.2858356" lon="11.3495844"><ele>234.25</ele><time>2026-04-04T10:10:58.18Z</time></trkpt><trkpt lat="43.285769" lon="11.349754"><ele>234.5</ele><time>2026-04-04T10:10:59.18Z</time></trkpt><trkpt lat="43.2857125" lon="11.3499328"><ele>234.75</ele><time>2026-04-04T10:11:00.18Z</time></trkpt><trkpt lat="43.2856551" lon="11.3501175"><ele>235.0</ele><time>2026-04-04T10:11:01.18Z</time></trkpt><trkpt lat="43.2855905" lon="11.3502987"><ele>235.75</ele><time>2026-04-04T10:11:02.18Z</time></trkpt><trkpt lat="43.28553" lon="11.3504813"><ele>236.5</ele><time>2026-04-04T10:11:03.18Z</time></trkpt><trkpt lat="43.2854692" lon="11.3506691"><ele>237.25</ele><time>2026-04-04T10:11:04.18Z</time></trkpt><trkpt lat="43.2854078" lon="11.3508583"><ele>238.0</ele><time>2026-04-04T10:11:05.179Z</time></trkpt><trkpt lat="43.2853517" lon="11.3510527"><ele>238.0</ele><time>2026-04-04T10:11:06.18Z</time></trkpt><trkpt lat="43.2852871" lon="11.3512534"><ele>238.0</ele><time>2026-04-04T10:11:07.179Z</time></trkpt><trkpt lat="43.285223" lon="11.3514497"><ele>238.0</ele><time>2026-04-04T10:11:08.179Z</time></trkpt><trkpt lat="43.2851604" lon="11.3516523"><ele>238.0</ele><time>2026-04-04T10:11:09.18Z</time></trkpt><trkpt lat="43.2850893" lon="11.3518451"><ele>238.0</ele><time>2026-04-04T10:11:10.18Z</time></trkpt><trkpt lat="43.2850241" lon="11.3520407"><ele>238.0</ele><time>2026-04-04T10:11:11.179Z</time></trkpt><trkpt lat="43.2849625" lon="11.352231"><ele>238.0</ele><time>2026-04-04T10:11:12.18Z</time></trkpt><trkpt lat="43.2848983" lon="11.3524205"><ele>238.0</ele><time>2026-04-04T10:11:13.179Z</time></trkpt><trkpt lat="43.2848249" lon="11.3526099"><ele>238.0</ele><time>2026-04-04T10:11:14.179Z</time></trkpt><trkpt lat="43.2847385" lon="11.3527854"><ele>237.5</ele><time>2026-04-04T10:11:15.179Z</time></trkpt><trkpt lat="43.2846392" lon="11.3529396"><ele>237.0</ele><time>2026-04-04T10:11:16.179Z</time></trkpt><trkpt lat="43.2845301" lon="11.3530782"><ele>236.5</ele><time>2026-04-04T10:11:17.179Z</time></trkpt><trkpt lat="43.2844178" lon="11.3532016"><ele>236.0</ele><time>2026-04-04T10:11:18.18Z</time></trkpt><trkpt lat="43.2842964" lon="11.3533236"><ele>236.0</ele><time>2026-04-04T10:11:19.178Z</time></trkpt><trkpt lat="43.284158" lon="11.3534235"><ele>236.0</ele><time>2026-04-04T10:11:20.179Z</time></trkpt><trkpt lat="43.2840346" lon="11.353488"><ele>236.0</ele><time>2026-04-04T10:11:21.18Z</time></trkpt><trkpt lat="43.2838939" lon="11.3535595"><ele>236.0</ele><time>2026-04-04T10:11:22.179Z</time></trkpt><trkpt lat="43.2837359" lon="11.3536176"><ele>236.5</ele><time>2026-04-04T10:11:23.18Z</time></trkpt><trkpt lat="43.283591" lon="11.35366"><ele>237.0</ele><time>2026-04-04T10:11:24.179Z</time></trkpt><trkpt lat="43.2834433" lon="11.3536787"><ele>237.5</ele><time>2026-04-04T10:11:25.179Z</time></trkpt><trkpt lat="43.2832964" lon="11.3536816"><ele>238.0</ele><time>2026-04-04T10:11:26.181Z</time></trkpt><trkpt lat="43.2831524" lon="11.3536752"><ele>238.0</ele><time>2026-04-04T10:11:27.18Z</time></trkpt><trkpt lat="43.2830082" lon="11.3536512"><ele>238.0</ele><time>2026-04-04T10:11:28.179Z</time></trkpt><trkpt lat="43.2828646" lon="11.3536254"><ele>238.0</ele><time>2026-04-04T10:11:29.179Z</time></trkpt><trkpt lat="43.2827172" lon="11.3536049"><ele>238.0</ele><time>2026-04-04T10:11:30.179Z</time></trkpt><trkpt lat="43.2825764" lon="11.3535758"><ele>238.0</ele><time>2026-04-04T10:11:31.179Z</time></trkpt><trkpt lat="43.2824349" lon="11.3535415"><ele>238.0</ele><time>2026-04-04T10:11:32.179Z</time></trkpt><trkpt lat="43.2822962" lon="11.3535082"><ele>238.0</ele><time>2026-04-04T10:11:33.18Z</time></trkpt><trkpt lat="43.2821572" lon="11.353472"><ele>238.0</ele><time>2026-04-04T10:11:34.179Z</time></trkpt><trkpt lat="43.2820191" lon="11.3534394"><ele>238.0</ele><time>2026-04-04T10:11:35.18Z</time></trkpt><trkpt lat="43.2818878" lon="11.3534047"><ele>238.0</ele><time>2026-04-04T10:11:36.178Z</time></trkpt><trkpt lat="43.2817501" lon="11.3533817"><ele>238.0</ele><time>2026-04-04T10:11:37.18Z</time></trkpt><trkpt lat="43.2816218" lon="11.3533551"><ele>238.0</ele><time>2026-04-04T10:11:38.18Z</time></trkpt><trkpt lat="43.2814972" lon="11.3533241"><ele>238.0</ele><time>2026-04-04T10:11:39.179Z</time></trkpt><trkpt lat="43.2813697" lon="11.3532865"><ele>238.0</ele><time>2026-04-04T10:11:40.178Z</time></trkpt><trkpt lat="43.2812478" lon="11.353254"><ele>238.0</ele><time>2026-04-04T10:11:41.181Z</time></trkpt><trkpt lat="43.2811167" lon="11.3532131"><ele>238.0</ele><time>2026-04-04T10:11:42.179Z</time></trkpt><trkpt lat="43.2809926" lon="11.3531602"><ele>238.0</ele><time>2026-04-04T10:11:43.18Z</time></trkpt><trkpt lat="43.2808624" lon="11.3531162"><ele>238.0</ele><time>2026-04-04T10:11:44.179Z</time></trkpt><trkpt lat="43.2807315" lon="11.3530738"><ele>238.0</ele><time>2026-04-04T10:11:45.179Z</time></trkpt><trkpt lat="43.2805988" lon="11.3530044"><ele>238.0</ele><time>2026-04-04T10:11:46.18Z</time></trkpt><trkpt lat="43.280464" lon="11.3529592"><ele>236.0</ele><time>2026-04-04T10:11:47.18Z</time></trkpt><trkpt lat="43.2803431" lon="11.3529058"><ele>234.0</ele><time>2026-04-04T10:11:48.18Z</time></trkpt><trkpt lat="43.2802166" lon="11.3528583"><ele>232.0</ele><time>2026-04-04T10:11:49.181Z</time></trkpt><trkpt lat="43.2800964" lon="11.3528186"><ele>230.0</ele><time>2026-04-04T10:11:50.179Z</time></trkpt><trkpt lat="43.2799746" lon="11.3527742"><ele>230.0</ele><time>2026-04-04T10:11:51.18Z</time></trkpt><trkpt lat="43.2798456" lon="11.3527488"><ele>230.0</ele><time>2026-04-04T10:11:52.18Z</time></trkpt><trkpt lat="43.2797137" lon="11.3527187"><ele>230.0</ele><time>2026-04-04T10:11:53.178Z</time></trkpt><trkpt lat="43.2795871" lon="11.3526733"><ele>230.0</ele><time>2026-04-04T10:11:54.179Z</time></trkpt><trkpt lat="43.2794628" lon="11.3526433"><ele>229.25</ele><time>2026-04-04T10:11:55.179Z</time></trkpt><trkpt lat="43.2793303" lon="11.3526182"><ele>228.5</ele><time>2026-04-04T10:11:56.18Z</time></trkpt><trkpt lat="43.279196" lon="11.3526043"><ele>227.75</ele><time>2026-04-04T10:11:57.179Z</time></trkpt><trkpt lat="43.2790604" lon="11.3525945"><ele>227.0</ele><time>2026-04-04T10:11:58.179Z</time></trkpt><trkpt lat="43.2789321" lon="11.3525967"><ele>227.0</ele><time>2026-04-04T10:11:59.18Z</time></trkpt><trkpt lat="43.2788031" lon="11.3526174"><ele>227.0</ele><time>2026-04-04T10:12:00.18Z</time></trkpt><trkpt lat="43.2786732" lon="11.35266"><ele>227.0</ele><time>2026-04-04T10:12:01.179Z</time></trkpt><trkpt lat="43.2785464" lon="11.3527312"><ele>227.0</ele><time>2026-04-04T10:12:02.181Z</time></trkpt><trkpt lat="43.2784177" lon="11.3528078"><ele>227.0</ele><time>2026-04-04T10:12:03.179Z</time></trkpt><trkpt lat="43.2782928" lon="11.3528829"><ele>227.0</ele><time>2026-04-04T10:12:04.18Z</time></trkpt><trkpt lat="43.2781615" lon="11.352968"><ele>227.0</ele><time>2026-04-04T10:12:05.178Z</time></trkpt><trkpt lat="43.2780234" lon="11.3530514"><ele>227.0</ele><time>2026-04-04T10:12:06.179Z</time></trkpt><trkpt lat="43.2778992" lon="11.3531233"><ele>228.0</ele><time>2026-04-04T10:12:07.18Z</time></trkpt><trkpt lat="43.2777621" lon="11.3532126"><ele>229.0</ele><time>2026-04-04T10:12:08.178Z</time></trkpt><trkpt lat="43.2776293" lon="11.3532971"><ele>230.0</ele><time>2026-04-04T10:12:09.178Z</time></trkpt><trkpt lat="43.2774921" lon="11.3533847"><ele>231.0</ele><time>2026-04-04T10:12:10.178Z</time></trkpt><trkpt lat="43.2773585" lon="11.3534648"><ele>231.25</ele><time>2026-04-04T10:12:11.18Z</time></trkpt><trkpt lat="43.2772212" lon="11.3535356"><ele>231.5</ele><time>2026-04-04T10:12:12.179Z</time></trkpt><trkpt lat="43.2770817" lon="11.3535972"><ele>231.75</ele><time>2026-04-04T10:12:13.179Z</time></trkpt><trkpt lat="43.2769405" lon="11.35365"><ele>232.0</ele><time>2026-04-04T10:12:14.18Z</time></trkpt><trkpt lat="43.2767844" lon="11.3536915"><ele>232.0</ele><time>2026-04-04T10:12:15.181Z</time></trkpt><trkpt lat="43.2766343" lon="11.353729"><ele>232.0</ele><time>2026-04-04T10:12:16.178Z</time></trkpt><trkpt lat="43.2764893" lon="11.3537608"><ele>232.0</ele><time>2026-04-04T10:12:17.18Z</time></trkpt><trkpt lat="43.2763492" lon="11.3537906"><ele>232.0</ele><time>2026-04-04T10:12:18.179Z</time></trkpt><trkpt lat="43.2762095" lon="11.3538144"><ele>230.75</ele><time>2026-04-04T10:12:19.181Z</time></trkpt><trkpt lat="43.2760827" lon="11.3538452"><ele>229.5</ele><time>2026-04-04T10:12:20.18Z</time></trkpt><trkpt lat="43.2759468" lon="11.3538723"><ele>228.25</ele><time>2026-04-04T10:12:21.179Z</time></trkpt><trkpt lat="43.2758121" lon="11.3539005"><ele>227.0</ele><time>2026-04-04T10:12:22.178Z</time></trkpt><trkpt lat="43.2756763" lon="11.3539219"><ele>225.75</ele><time>2026-04-04T10:12:23.18Z</time></trkpt><trkpt lat="43.2755372" lon="11.3539512"><ele>224.5</ele><time>2026-04-04T10:12:24.181Z</time></trkpt><trkpt lat="43.2753954" lon="11.353981"><ele>223.25</ele><time>2026-04-04T10:12:25.179Z</time></trkpt><trkpt lat="43.2752566" lon="11.3540052"><ele>222.0</ele><time>2026-04-04T10:12:26.179Z</time></trkpt><trkpt lat="43.2751205" lon="11.3540321"><ele>222.0</ele><time>2026-04-04T10:12:27.179Z</time></trkpt><trkpt lat="43.2749841" lon="11.3540627"><ele>222.0</ele><time>2026-04-04T10:12:28.179Z</time></trkpt><trkpt lat="43.274849" lon="11.35409"><ele>222.0</ele><time>2026-04-04T10:12:29.18Z</time></trkpt><trkpt lat="43.2747163" lon="11.3541569"><ele>222.0</ele><time>2026-04-04T10:12:30.178Z</time></trkpt><trkpt lat="43.2745905" lon="11.3542602"><ele>222.0</ele><time>2026-04-04T10:12:31.179Z</time></trkpt><trkpt lat="43.2744594" lon="11.3544173"><ele>222.0</ele><time>2026-04-04T10:12:32.179Z</time></trkpt><trkpt lat="43.2743228" lon="11.3545925"><ele>222.0</ele><time>2026-04-04T10:12:33.18Z</time></trkpt><trkpt lat="43.2741759" lon="11.3547945"><ele>222.0</ele><time>2026-04-04T10:12:34.18Z</time></trkpt><trkpt lat="43.2740151" lon="11.3550036"><ele>222.0</ele><time>2026-04-04T10:12:35.179Z</time></trkpt><trkpt lat="43.2738449" lon="11.3552016"><ele>222.0</ele><time>2026-04-04T10:12:36.18Z</time></trkpt><trkpt lat="43.2736613" lon="11.3554045"><ele>222.5</ele><time>2026-04-04T10:12:37.181Z</time></trkpt><trkpt lat="43.2734779" lon="11.3556104"><ele>223.0</ele><time>2026-04-04T10:12:38.179Z</time></trkpt><trkpt lat="43.2733016" lon="11.3558034"><ele>223.0</ele><time>2026-04-04T10:12:39.179Z</time></trkpt><trkpt lat="43.2731358" lon="11.3559884"><ele>223.0</ele><time>2026-04-04T10:12:40.181Z</time></trkpt><trkpt lat="43.2729766" lon="11.3561674"><ele>223.0</ele><time>2026-04-04T10:12:41.179Z</time></trkpt><trkpt lat="43.272823" lon="11.3563342"><ele>224.33333333333331</ele><time>2026-04-04T10:12:42.179Z</time></trkpt><trkpt lat="43.2726721" lon="11.3564969"><ele>225.66666666666669</ele><time>2026-04-04T10:12:43.18Z</time></trkpt><trkpt lat="43.2725248" lon="11.3566522"><ele>227.0</ele><time>2026-04-04T10:12:44.18Z</time></trkpt><trkpt lat="43.2723793" lon="11.3568092"><ele>225.66666666666669</ele><time>2026-04-04T10:12:45.18Z</time></trkpt><trkpt lat="43.2722436" lon="11.3569639"><ele>224.33333333333331</ele><time>2026-04-04T10:12:46.179Z</time></trkpt><trkpt lat="43.2721198" lon="11.3570958"><ele>223.0</ele><time>2026-04-04T10:12:47.178Z</time></trkpt><trkpt lat="43.2720177" lon="11.3572164"><ele>222.99999999999997</ele><time>2026-04-04T10:12:48.178Z</time></trkpt><trkpt lat="43.2719326" lon="11.3573055"><ele>223.0</ele><time>2026-04-04T10:12:49.179Z</time></trkpt><trkpt lat="43.2718659" lon="11.3573508"><ele>223.0</ele><time>2026-04-04T10:12:50.18Z</time></trkpt><trkpt lat="43.2717979" lon="11.3573507"><ele>223.0</ele><time>2026-04-04T10:12:51.18Z</time></trkpt><trkpt lat="43.2717195" lon="11.3573142"><ele>222.99999999999997</ele><time>2026-04-04T10:12:52.179Z</time></trkpt><trkpt lat="43.2716437" lon="11.3572384"><ele>223.0</ele><time>2026-04-04T10:12:53.179Z</time></trkpt><trkpt lat="43.2715643" lon="11.3571745"><ele>223.0</ele><time>2026-04-04T10:12:54.178Z</time></trkpt><trkpt lat="43.2714885" lon="11.357092"><ele>223.0</ele><time>2026-04-04T10:12:55.179Z</time></trkpt><trkpt lat="43.2714034" lon="11.3570083"><ele>223.0</ele><time>2026-04-04T10:12:56.179Z</time></trkpt><trkpt lat="43.2713235" lon="11.3569205"><ele>223.0</ele><time>2026-04-04T10:12:57.178Z</time></trkpt><trkpt lat="43.2712426" lon="11.3568374"><ele>223.0</ele><time>2026-04-04T10:12:58.179Z</time></trkpt><trkpt lat="43.2711558" lon="11.3567446"><ele>222.75</ele><time>2026-04-04T10:12:59.179Z</time></trkpt><trkpt lat="43.2710717" lon="11.3566476"><ele>222.5</ele><time>2026-04-04T10:13:00.178Z</time></trkpt><trkpt lat="43.2709792" lon="11.3565534"><ele>222.25</ele><time>2026-04-04T10:13:01.178Z</time></trkpt><trkpt lat="43.2708826" lon="11.3564638"><ele>222.0</ele><time>2026-04-04T10:13:02.178Z</time></trkpt><trkpt lat="43.2707945" lon="11.3563742"><ele>220.0</ele><time>2026-04-04T10:13:03.18Z</time></trkpt><trkpt lat="43.2707073" lon="11.3562964"><ele>218.0</ele><time>2026-04-04T10:13:04.179Z</time></trkpt><trkpt lat="43.270628" lon="11.3562121"><ele>216.0</ele><time>2026-04-04T10:13:05.18Z</time></trkpt><trkpt lat="43.2705534" lon="11.3561311"><ele>214.0</ele><time>2026-04-04T10:13:06.179Z</time></trkpt><trkpt lat="43.2704849" lon="11.3560619"><ele>212.0</ele><time>2026-04-04T10:13:07.179Z</time></trkpt><trkpt lat="43.2704215" lon="11.3560067"><ele>211.66666666666669</ele><time>2026-04-04T10:13:08.178Z</time></trkpt><trkpt lat="43.2703508" lon="11.3559669"><ele>211.33333333333334</ele><time>2026-04-04T10:13:09.18Z</time></trkpt><trkpt lat="43.2702739" lon="11.3559394"><ele>211.0</ele><time>2026-04-04T10:13:10.18Z</time></trkpt><trkpt lat="43.2701959" lon="11.3559149"><ele>210.66666666666669</ele><time>2026-04-04T10:13:11.18Z</time></trkpt><trkpt lat="43.2701094" lon="11.3559104"><ele>210.33333333333334</ele><time>2026-04-04T10:13:12.178Z</time></trkpt><trkpt lat="43.2700282" lon="11.3559036"><ele>210.0</ele><time>2026-04-04T10:13:13.178Z</time></trkpt><trkpt lat="43.269944" lon="11.3559117"><ele>210.0</ele><time>2026-04-04T10:13:14.178Z</time></trkpt><trkpt lat="43.2698609" lon="11.3559224"><ele>210.0</ele><time>2026-04-04T10:13:15.178Z</time></trkpt><trkpt lat="43.2697714" lon="11.355944"><ele>210.0</ele><time>2026-04-04T10:13:16.18Z</time></trkpt><trkpt lat="43.2696859" lon="11.3559817"><ele>210.0</ele><time>2026-04-04T10:13:17.18Z</time></trkpt><trkpt lat="43.2696024" lon="11.356031"><ele>210.0</ele><time>2026-04-04T10:13:18.179Z</time></trkpt><trkpt lat="43.2695196" lon="11.3560892"><ele>210.0</ele><time>2026-04-04T10:13:19.178Z</time></trkpt><trkpt lat="43.2694377" lon="11.3561579"><ele>208.4</ele><time>2026-04-04T10:13:20.179Z</time></trkpt><trkpt lat="43.2693565" lon="11.3562325"><ele>206.8</ele><time>2026-04-04T10:13:21.179Z</time></trkpt><trkpt lat="43.2692787" lon="11.3563226"><ele>205.2</ele><time>2026-04-04T10:13:22.178Z</time></trkpt><trkpt lat="43.2692132" lon="11.3564252"><ele>203.6</ele><time>2026-04-04T10:13:23.178Z</time></trkpt><trkpt lat="43.2691626" lon="11.3565351"><ele>202.0</ele><time>2026-04-04T10:13:24.18Z</time></trkpt><trkpt lat="43.2691076" lon="11.3566539"><ele>202.0</ele><time>2026-04-04T10:13:25.179Z</time></trkpt><trkpt lat="43.2690627" lon="11.3567807"><ele>202.0</ele><time>2026-04-04T10:13:26.18Z</time></trkpt><trkpt lat="43.2690145" lon="11.3569126"><ele>202.0</ele><time>2026-04-04T10:13:27.18Z</time></trkpt><trkpt lat="43.2689864" lon="11.3570493"><ele>202.0</ele><time>2026-04-04T10:13:28.179Z</time></trkpt><trkpt lat="43.2689604" lon="11.3572123"><ele>202.0</ele><time>2026-04-04T10:13:29.18Z</time></trkpt><trkpt lat="43.2689472" lon="11.3573646"><ele>199.39999999999998</ele><time>2026-04-04T10:13:30.179Z</time></trkpt><trkpt lat="43.2689383" lon="11.3575126"><ele>196.79999999999998</ele><time>2026-04-04T10:13:31.18Z</time></trkpt><trkpt lat="43.2689223" lon="11.3576556"><ele>194.2</ele><time>2026-04-04T10:13:32.177Z</time></trkpt><trkpt lat="43.2689254" lon="11.3578077"><ele>191.6</ele><time>2026-04-04T10:13:33.179Z</time></trkpt><trkpt lat="43.2689231" lon="11.3579502"><ele>189.0</ele><time>2026-04-04T10:13:34.18Z</time></trkpt><trkpt lat="43.2689165" lon="11.358096"><ele>189.0</ele><time>2026-04-04T10:13:35.178Z</time></trkpt><trkpt lat="43.2689016" lon="11.3582435"><ele>189.0</ele><time>2026-04-04T10:13:36.179Z</time></trkpt><trkpt lat="43.2688836" lon="11.358385"><ele>189.0</ele><time>2026-04-04T10:13:37.18Z</time></trkpt><trkpt lat="43.2688522" lon="11.3585302"><ele>189.0</ele><time>2026-04-04T10:13:38.179Z</time></trkpt><trkpt lat="43.2688177" lon="11.358665"><ele>189.0</ele><time>2026-04-04T10:13:39.179Z</time></trkpt><trkpt lat="43.2687688" lon="11.3587952"><ele>189.2</ele><time>2026-04-04T10:13:40.18Z</time></trkpt><trkpt lat="43.2687086" lon="11.3589167"><ele>189.39999999999998</ele><time>2026-04-04T10:13:41.18Z</time></trkpt><trkpt lat="43.2686354" lon="11.3590308"><ele>189.6</ele><time>2026-04-04T10:13:42.178Z</time></trkpt><trkpt lat="43.2685518" lon="11.3591286"><ele>189.8</ele><time>2026-04-04T10:13:43.179Z</time></trkpt><trkpt lat="43.2684594" lon="11.3592127"><ele>190.0</ele><time>2026-04-04T10:13:44.179Z</time></trkpt><trkpt lat="43.2683577" lon="11.3592782"><ele>190.0</ele><time>2026-04-04T10:13:45.179Z</time></trkpt><trkpt lat="43.2682352" lon="11.3593354"><ele>190.0</ele><time>2026-04-04T10:13:46.177Z</time></trkpt><trkpt lat="43.268115" lon="11.3593751"><ele>190.0</ele><time>2026-04-04T10:13:47.179Z</time></trkpt><trkpt lat="43.2679936" lon="11.3593839"><ele>190.0</ele><time>2026-04-04T10:13:48.178Z</time></trkpt><trkpt lat="43.2678752" lon="11.3593839"><ele>189.0</ele><time>2026-04-04T10:13:49.18Z</time></trkpt><trkpt lat="43.267749" lon="11.3593553"><ele>188.0</ele><time>2026-04-04T10:13:50.18Z</time></trkpt><trkpt lat="43.267632" lon="11.3593007"><ele>187.0</ele><time>2026-04-04T10:13:51.179Z</time></trkpt><trkpt lat="43.2675209" lon="11.3592498"><ele>186.0</ele><time>2026-04-04T10:13:52.178Z</time></trkpt><trkpt lat="43.2674064" lon="11.3591971"><ele>186.0</ele><time>2026-04-04T10:13:53.18Z</time></trkpt><trkpt lat="43.2672971" lon="11.3591455"><ele>186.0</ele><time>2026-04-04T10:13:54.178Z</time></trkpt><trkpt lat="43.2671849" lon="11.359103"><ele>186.0</ele><time>2026-04-04T10:13:55.179Z</time></trkpt><trkpt lat="43.267081" lon="11.35906"><ele>186.0</ele><time>2026-04-04T10:13:56.179Z</time></trkpt><trkpt lat="43.2669693" lon="11.3590223"><ele>185.8</ele><time>2026-04-04T10:13:57.178Z</time></trkpt><trkpt lat="43.2668609" lon="11.3589852"><ele>185.60000000000002</ele><time>2026-04-04T10:13:58.179Z</time></trkpt><trkpt lat="43.2667624" lon="11.3589487"><ele>185.4</ele><time>2026-04-04T10:13:59.178Z</time></trkpt><trkpt lat="43.2666717" lon="11.3589122"><ele>185.2</ele><time>2026-04-04T10:14:00.178Z</time></trkpt><trkpt lat="43.2665951" lon="11.3588816"><ele>185.0</ele><time>2026-04-04T10:14:01.178Z</time></trkpt><trkpt lat="43.2665202" lon="11.358856"><ele>185.0</ele><time>2026-04-04T10:14:02.179Z</time></trkpt><trkpt lat="43.2664477" lon="11.3588263"><ele>185.0</ele><time>2026-04-04T10:14:03.18Z</time></trkpt><trkpt lat="43.2663812" lon="11.3587873"><ele>185.0</ele><time>2026-04-04T10:14:04.178Z</time></trkpt><trkpt lat="43.2663179" lon="11.3587629"><ele>185.0</ele><time>2026-04-04T10:14:05.178Z</time></trkpt><trkpt lat="43.2662565" lon="11.3587358"><ele>185.0</ele><time>2026-04-04T10:14:06.179Z</time></trkpt><trkpt lat="43.2661886" lon="11.3586977"><ele>185.0</ele><time>2026-04-04T10:14:07.179Z</time></trkpt><trkpt lat="43.2660705" lon="11.3586326"><ele>184.99999999999997</ele><time>2026-04-04T10:14:09.178Z</time></trkpt><trkpt lat="43.2660027" lon="11.3586017"><ele>185.0</ele><time>2026-04-04T10:14:10.179Z</time></trkpt><trkpt lat="43.2659395" lon="11.3585659"><ele>185.0</ele><time>2026-04-04T10:14:11.179Z</time></trkpt><trkpt lat="43.2658707" lon="11.3585428"><ele>185.0</ele><time>2026-04-04T10:14:12.179Z</time></trkpt><trkpt lat="43.2657982" lon="11.3585087"><ele>185.0</ele><time>2026-04-04T10:14:13.179Z</time></trkpt><trkpt lat="43.2657247" lon="11.3584779"><ele>184.99999999999997</ele><time>2026-04-04T10:14:14.179Z</time></trkpt><trkpt lat="43.2656461" lon="11.358451"><ele>185.0</ele><time>2026-04-04T10:14:15.179Z</time></trkpt><trkpt lat="43.2655768" lon="11.3584211"><ele>184.8</ele><time>2026-04-04T10:14:16.178Z</time></trkpt><trkpt lat="43.2654625" lon="11.3583679"><ele>184.6</ele><time>2026-04-04T10:14:18.179Z</time></trkpt><trkpt lat="43.2653694" lon="11.3583231"><ele>184.39999999999998</ele><time>2026-04-04T10:14:20.179Z</time></trkpt><trkpt lat="43.2653047" lon="11.3582909"><ele>184.2</ele><time>2026-04-04T10:14:22.179Z</time></trkpt><trkpt lat="43.2652374" lon="11.3582663"><ele>184.0</ele><time>2026-04-04T10:18:17.178Z</time></trkpt><trkpt lat="43.2651323" lon="11.3582333"><ele>184.0</ele><time>2026-04-04T10:18:19.178Z</time></trkpt><trkpt lat="43.2650149" lon="11.3581987"><ele>184.0</ele><time>2026-04-04T10:18:21.176Z</time></trkpt><trkpt lat="43.2649509" lon="11.3581852"><ele>184.0</ele><time>2026-04-04T10:18:22.178Z</time></trkpt><trkpt lat="43.2648773" lon="11.3581754"><ele>184.0</ele><time>2026-04-04T10:18:23.178Z</time></trkpt><trkpt lat="43.2648108" lon="11.358186"><ele>184.0</ele><time>2026-04-04T10:18:24.176Z</time></trkpt><trkpt lat="43.264735" lon="11.3582189"><ele>184.0</ele><time>2026-04-04T10:18:25.177Z</time></trkpt><trkpt lat="43.2646594" lon="11.3582786"><ele>184.6</ele><time>2026-04-04T10:18:26.179Z</time></trkpt><trkpt lat="43.2645877" lon="11.3583511"><ele>185.2</ele><time>2026-04-04T10:18:27.179Z</time></trkpt><trkpt lat="43.2645141" lon="11.3584637"><ele>185.79999999999998</ele><time>2026-04-04T10:18:28.177Z</time></trkpt><trkpt lat="43.264454" lon="11.3585772"><ele>186.39999999999998</ele><time>2026-04-04T10:18:29.178Z</time></trkpt><trkpt lat="43.2643967" lon="11.3586866"><ele>187.0</ele><time>2026-04-04T10:18:30.177Z</time></trkpt><trkpt lat="43.264338" lon="11.3587921"><ele>186.5</ele><time>2026-04-04T10:18:31.176Z</time></trkpt><trkpt lat="43.2642831" lon="11.3588906"><ele>186.0</ele><time>2026-04-04T10:18:32.176Z</time></trkpt><trkpt lat="43.2642333" lon="11.358974"><ele>185.5</ele><time>2026-04-04T10:18:33.177Z</time></trkpt><trkpt lat="43.264182" lon="11.3590532"><ele>185.0</ele><time>2026-04-04T10:18:34.176Z</time></trkpt><trkpt lat="43.2641175" lon="11.3591179"><ele>184.5</ele><time>2026-04-04T10:18:35.178Z</time></trkpt><trkpt lat="43.2640438" lon="11.3591932"><ele>184.0</ele><time>2026-04-04T10:18:36.177Z</time></trkpt><trkpt lat="43.2639611" lon="11.3592641"><ele>183.79999999999998</ele><time>2026-04-04T10:18:37.177Z</time></trkpt><trkpt lat="43.263877" lon="11.3593282"><ele>183.6</ele><time>2026-04-04T10:18:38.178Z</time></trkpt><trkpt lat="43.2637868" lon="11.3593946"><ele>183.4</ele><time>2026-04-04T10:18:39.179Z</time></trkpt><trkpt lat="43.2636867" lon="11.3594585"><ele>183.2</ele><time>2026-04-04T10:18:40.179Z</time></trkpt><trkpt lat="43.2635953" lon="11.3595273"><ele>183.0</ele><time>2026-04-04T10:18:41.178Z</time></trkpt><trkpt lat="43.2635036" lon="11.3596032"><ele>183.0</ele><time>2026-04-04T10:18:42.177Z</time></trkpt><trkpt lat="43.2634076" lon="11.3596893"><ele>183.0</ele><time>2026-04-04T10:18:43.177Z</time></trkpt><trkpt lat="43.2633107" lon="11.3597739"><ele>183.0</ele><time>2026-04-04T10:18:44.178Z</time></trkpt><trkpt lat="43.263215" lon="11.3598786"><ele>183.0</ele><time>2026-04-04T10:18:45.177Z</time></trkpt><trkpt lat="43.2631196" lon="11.3599693"><ele>183.75</ele><time>2026-04-04T10:18:46.177Z</time></trkpt><trkpt lat="43.2630205" lon="11.3600889"><ele>184.5</ele><time>2026-04-04T10:18:47.178Z</time></trkpt><trkpt lat="43.2629429" lon="11.3601921"><ele>185.25</ele><time>2026-04-04T10:18:48.176Z</time></trkpt><trkpt lat="43.2628507" lon="11.3602991"><ele>186.0</ele><time>2026-04-04T10:18:49.177Z</time></trkpt><trkpt lat="43.2627673" lon="11.3603914"><ele>186.0</ele><time>2026-04-04T10:18:50.177Z</time></trkpt><trkpt lat="43.262677" lon="11.3604958"><ele>186.0</ele><time>2026-04-04T10:18:51.176Z</time></trkpt><trkpt lat="43.2625927" lon="11.3605989"><ele>186.0</ele><time>2026-04-04T10:18:52.177Z</time></trkpt><trkpt lat="43.2625169" lon="11.360694"><ele>186.0</ele><time>2026-04-04T10:18:53.177Z</time></trkpt><trkpt lat="43.2624385" lon="11.3607981"><ele>186.0</ele><time>2026-04-04T10:18:54.177Z</time></trkpt><trkpt lat="43.2623628" lon="11.3608988"><ele>186.60000000000002</ele><time>2026-04-04T10:18:55.177Z</time></trkpt><trkpt lat="43.2622794" lon="11.3610005"><ele>187.2</ele><time>2026-04-04T10:18:56.177Z</time></trkpt><trkpt lat="43.2622029" lon="11.3611003"><ele>187.8</ele><time>2026-04-04T10:18:57.177Z</time></trkpt><trkpt lat="43.2621283" lon="11.3611903"><ele>188.39999999999998</ele><time>2026-04-04T10:18:58.177Z</time></trkpt><trkpt lat="43.2620486" lon="11.3612735"><ele>189.0</ele><time>2026-04-04T10:18:59.178Z</time></trkpt><trkpt lat="43.2619605" lon="11.3613617"><ele>187.6</ele><time>2026-04-04T10:19:00.177Z</time></trkpt><trkpt lat="43.2618656" lon="11.3614355"><ele>186.2</ele><time>2026-04-04T10:19:01.179Z</time></trkpt><trkpt lat="43.2617728" lon="11.3615061"><ele>184.79999999999998</ele><time>2026-04-04T10:19:02.178Z</time></trkpt><trkpt lat="43.2616804" lon="11.3615778"><ele>183.39999999999998</ele><time>2026-04-04T10:19:03.177Z</time></trkpt><trkpt lat="43.2615732" lon="11.3616392"><ele>182.0</ele><time>2026-04-04T10:19:04.177Z</time></trkpt><trkpt lat="43.2614706" lon="11.3617034"><ele>182.0</ele><time>2026-04-04T10:19:05.178Z</time></trkpt><trkpt lat="43.261359" lon="11.3617687"><ele>182.0</ele><time>2026-04-04T10:19:06.177Z</time></trkpt><trkpt lat="43.2612563" lon="11.3618242"><ele>182.0</ele><time>2026-04-04T10:19:07.176Z</time></trkpt><trkpt lat="43.2611485" lon="11.361859"><ele>182.0</ele><time>2026-04-04T10:19:08.177Z</time></trkpt><trkpt lat="43.261033" lon="11.3618986"><ele>182.0</ele><time>2026-04-04T10:19:09.177Z</time></trkpt><trkpt lat="43.2609238" lon="11.3619117"><ele>182.0</ele><time>2026-04-04T10:19:10.177Z</time></trkpt><trkpt lat="43.2608084" lon="11.3619391"><ele>182.0</ele><time>2026-04-04T10:19:11.176Z</time></trkpt><trkpt lat="43.260693" lon="11.3619465"><ele>182.0</ele><time>2026-04-04T10:19:12.177Z</time></trkpt><trkpt lat="43.2605777" lon="11.3619389"><ele>182.6</ele><time>2026-04-04T10:19:13.177Z</time></trkpt><trkpt lat="43.2604655" lon="11.3619242"><ele>183.2</ele><time>2026-04-04T10:19:14.178Z</time></trkpt><trkpt lat="43.2603517" lon="11.3619035"><ele>183.8</ele><time>2026-04-04T10:19:15.177Z</time></trkpt><trkpt lat="43.2602471" lon="11.3618742"><ele>184.4</ele><time>2026-04-04T10:19:16.177Z</time></trkpt><trkpt lat="43.2601472" lon="11.3618477"><ele>185.0</ele><time>2026-04-04T10:19:17.177Z</time></trkpt><trkpt lat="43.260055" lon="11.3618221"><ele>185.0</ele><time>2026-04-04T10:19:18.176Z</time></trkpt><trkpt lat="43.2599837" lon="11.3617782"><ele>185.0</ele><time>2026-04-04T10:19:19.177Z</time></trkpt><trkpt lat="43.2598994" lon="11.3617512"><ele>185.0</ele><time>2026-04-04T10:19:20.178Z</time></trkpt><trkpt lat="43.2598071" lon="11.3617292"><ele>185.0</ele><time>2026-04-04T10:19:21.176Z</time></trkpt><trkpt lat="43.2597179" lon="11.3616978"><ele>185.0</ele><time>2026-04-04T10:19:22.177Z</time></trkpt><trkpt lat="43.2596291" lon="11.3616571"><ele>185.0</ele><time>2026-04-04T10:19:23.177Z</time></trkpt><trkpt lat="43.2595338" lon="11.3616184"><ele>185.0</ele><time>2026-04-04T10:19:24.177Z</time></trkpt><trkpt lat="43.2594363" lon="11.3615671"><ele>185.0</ele><time>2026-04-04T10:19:25.177Z</time></trkpt><trkpt lat="43.2593345" lon="11.3615193"><ele>185.0</ele><time>2026-04-04T10:19:26.178Z</time></trkpt><trkpt lat="43.2592367" lon="11.3614692"><ele>185.0</ele><time>2026-04-04T10:19:27.177Z</time></trkpt><trkpt lat="43.2591271" lon="11.3614177"><ele>185.0</ele><time>2026-04-04T10:19:28.177Z</time></trkpt><trkpt lat="43.2590263" lon="11.3613568"><ele>187.5</ele><time>2026-04-04T10:19:29.175Z</time></trkpt><trkpt lat="43.2589249" lon="11.3612932"><ele>190.0</ele><time>2026-04-04T10:19:30.176Z</time></trkpt><trkpt lat="43.2588259" lon="11.3612321"><ele>192.5</ele><time>2026-04-04T10:19:31.177Z</time></trkpt><trkpt lat="43.2587248" lon="11.3611639"><ele>195.0</ele><time>2026-04-04T10:19:32.178Z</time></trkpt><trkpt lat="43.2586219" lon="11.3610769"><ele>195.0</ele><time>2026-04-04T10:19:33.176Z</time></trkpt><trkpt lat="43.2585384" lon="11.3609822"><ele>195.0</ele><time>2026-04-04T10:19:34.176Z</time></trkpt><trkpt lat="43.2584496" lon="11.3609049"><ele>195.0</ele><time>2026-04-04T10:19:35.176Z</time></trkpt><trkpt lat="43.258362" lon="11.3608179"><ele>195.0</ele><time>2026-04-04T10:19:36.178Z</time></trkpt><trkpt lat="43.2582688" lon="11.3607267"><ele>195.0</ele><time>2026-04-04T10:19:37.177Z</time></trkpt><trkpt lat="43.2581823" lon="11.3606443"><ele>195.0</ele><time>2026-04-04T10:19:38.176Z</time></trkpt><trkpt lat="43.2581012" lon="11.3605604"><ele>195.0</ele><time>2026-04-04T10:19:39.176Z</time></trkpt><trkpt lat="43.2580166" lon="11.3604826"><ele>195.0</ele><time>2026-04-04T10:19:40.177Z</time></trkpt><trkpt lat="43.2579302" lon="11.3604114"><ele>195.0</ele><time>2026-04-04T10:19:41.177Z</time></trkpt><trkpt lat="43.2578384" lon="11.3603476"><ele>195.0</ele><time>2026-04-04T10:19:42.178Z</time></trkpt><trkpt lat="43.2577463" lon="11.3603075"><ele>195.0</ele><time>2026-04-04T10:19:43.177Z</time></trkpt><trkpt lat="43.2576522" lon="11.3602604"><ele>195.0</ele><time>2026-04-04T10:19:44.176Z</time></trkpt><trkpt lat="43.2575517" lon="11.3602247"><ele>195.0</ele><time>2026-04-04T10:19:45.176Z</time></trkpt><trkpt lat="43.2574547" lon="11.3601844"><ele>195.0</ele><time>2026-04-04T10:19:46.177Z</time></trkpt><trkpt lat="43.2573693" lon="11.3601415"><ele>195.0</ele><time>2026-04-04T10:19:47.178Z</time></trkpt><trkpt lat="43.2572785" lon="11.3601142"><ele>195.8</ele><time>2026-04-04T10:19:48.177Z</time></trkpt><trkpt lat="43.2571797" lon="11.3600952"><ele>196.6</ele><time>2026-04-04T10:19:49.176Z</time></trkpt><trkpt lat="43.2570829" lon="11.3600812"><ele>197.39999999999998</ele><time>2026-04-04T10:19:50.176Z</time></trkpt><trkpt lat="43.2569745" lon="11.3600746"><ele>198.2</ele><time>2026-04-04T10:19:51.177Z</time></trkpt><trkpt lat="43.2568745" lon="11.3600641"><ele>199.0</ele><time>2026-04-04T10:19:52.175Z</time></trkpt><trkpt lat="43.2567709" lon="11.3600771"><ele>199.0</ele><time>2026-04-04T10:19:53.176Z</time></trkpt><trkpt lat="43.2566695" lon="11.3600833"><ele>199.0</ele><time>2026-04-04T10:19:54.178Z</time></trkpt><trkpt lat="43.2565761" lon="11.3600961"><ele>199.0</ele><time>2026-04-04T10:19:55.177Z</time></trkpt><trkpt lat="43.256474" lon="11.3601182"><ele>199.0</ele><time>2026-04-04T10:19:56.177Z</time></trkpt><trkpt lat="43.2563725" lon="11.3601444"><ele>199.0</ele><time>2026-04-04T10:19:57.176Z</time></trkpt><trkpt lat="43.2562709" lon="11.3601772"><ele>199.79999999999998</ele><time>2026-04-04T10:19:58.176Z</time></trkpt><trkpt lat="43.2561728" lon="11.3602186"><ele>200.6</ele><time>2026-04-04T10:19:59.177Z</time></trkpt><trkpt lat="43.2560749" lon="11.3602715"><ele>201.4</ele><time>2026-04-04T10:20:00.177Z</time></trkpt><trkpt lat="43.2559896" lon="11.3603204"><ele>202.2</ele><time>2026-04-04T10:20:01.178Z</time></trkpt><trkpt lat="43.2559134" lon="11.3603774"><ele>203.0</ele><time>2026-04-04T10:20:02.175Z</time></trkpt><trkpt lat="43.2558353" lon="11.36043"><ele>203.00000000000003</ele><time>2026-04-04T10:20:03.177Z</time></trkpt><trkpt lat="43.2557681" lon="11.3604754"><ele>203.0</ele><time>2026-04-04T10:20:04.176Z</time></trkpt><trkpt lat="43.2556954" lon="11.3605191"><ele>203.0</ele><time>2026-04-04T10:20:05.178Z</time></trkpt><trkpt lat="43.2556258" lon="11.360568"><ele>203.0</ele><time>2026-04-04T10:20:06.176Z</time></trkpt><trkpt lat="43.2555575" lon="11.3606206"><ele>203.00000000000003</ele><time>2026-04-04T10:20:07.177Z</time></trkpt><trkpt lat="43.2554907" lon="11.3606713"><ele>203.0</ele><time>2026-04-04T10:20:08.177Z</time></trkpt><trkpt lat="43.2554199" lon="11.3607277"><ele>204.83333333333334</ele><time>2026-04-04T10:20:09.176Z</time></trkpt><trkpt lat="43.2553522" lon="11.3607768"><ele>206.66666666666669</ele><time>2026-04-04T10:20:10.177Z</time></trkpt><trkpt lat="43.2552875" lon="11.3608378"><ele>208.5</ele><time>2026-04-04T10:20:11.177Z</time></trkpt><trkpt lat="43.2552213" lon="11.3609124"><ele>210.33333333333331</ele><time>2026-04-04T10:20:12.175Z</time></trkpt><trkpt lat="43.2551578" lon="11.3609921"><ele>212.16666666666666</ele><time>2026-04-04T10:20:13.176Z</time></trkpt><trkpt lat="43.2550992" lon="11.3610707"><ele>214.0</ele><time>2026-04-04T10:20:14.177Z</time></trkpt><trkpt lat="43.2550486" lon="11.361153"><ele>213.99999999999997</ele><time>2026-04-04T10:20:15.178Z</time></trkpt><trkpt lat="43.2550038" lon="11.3612388"><ele>214.0</ele><time>2026-04-04T10:20:16.177Z</time></trkpt><trkpt lat="43.2549559" lon="11.3613242"><ele>214.0</ele><time>2026-04-04T10:20:17.177Z</time></trkpt><trkpt lat="43.2549159" lon="11.3614165"><ele>214.0</ele><time>2026-04-04T10:20:18.176Z</time></trkpt><trkpt lat="43.2548736" lon="11.3615074"><ele>213.99999999999997</ele><time>2026-04-04T10:20:19.177Z</time></trkpt><trkpt lat="43.2548347" lon="11.3615823"><ele>214.0</ele><time>2026-04-04T10:20:20.178Z</time></trkpt><trkpt lat="43.2547916" lon="11.3616636"><ele>215.83333333333331</ele><time>2026-04-04T10:20:21.177Z</time></trkpt><trkpt lat="43.2547498" lon="11.3617497"><ele>217.66666666666666</ele><time>2026-04-04T10:20:22.176Z</time></trkpt><trkpt lat="43.2547063" lon="11.3618376"><ele>219.5</ele><time>2026-04-04T10:20:23.176Z</time></trkpt><trkpt lat="43.2546533" lon="11.3619244"><ele>221.33333333333331</ele><time>2026-04-04T10:20:24.177Z</time></trkpt><trkpt lat="43.2545853" lon="11.3620098"><ele>223.16666666666666</ele><time>2026-04-04T10:20:25.177Z</time></trkpt><trkpt lat="43.2545101" lon="11.3620751"><ele>225.0</ele><time>2026-04-04T10:20:26.177Z</time></trkpt><trkpt lat="43.2544367" lon="11.3621373"><ele>224.0</ele><time>2026-04-04T10:20:27.176Z</time></trkpt><trkpt lat="43.2543579" lon="11.3621987"><ele>223.0</ele><time>2026-04-04T10:20:28.176Z</time></trkpt><trkpt lat="43.2542793" lon="11.362257"><ele>222.0</ele><time>2026-04-04T10:20:29.177Z</time></trkpt><trkpt lat="43.2541951" lon="11.3623098"><ele>221.0</ele><time>2026-04-04T10:20:30.178Z</time></trkpt><trkpt lat="43.2541032" lon="11.3623463"><ele>220.0</ele><time>2026-04-04T10:20:31.176Z</time></trkpt><trkpt lat="43.2540057" lon="11.3623708"><ele>221.0</ele><time>2026-04-04T10:20:32.177Z</time></trkpt><trkpt lat="43.2539119" lon="11.3623764"><ele>222.0</ele><time>2026-04-04T10:20:33.176Z</time></trkpt><trkpt lat="43.2538194" lon="11.3623767"><ele>223.0</ele><time>2026-04-04T10:20:34.177Z</time></trkpt><trkpt lat="43.2537206" lon="11.3623789"><ele>224.0</ele><time>2026-04-04T10:20:35.176Z</time></trkpt><trkpt lat="43.2536291" lon="11.3623895"><ele>225.0</ele><time>2026-04-04T10:20:36.176Z</time></trkpt><trkpt lat="43.2535353" lon="11.3624113"><ele>225.0</ele><time>2026-04-04T10:20:37.176Z</time></trkpt><trkpt lat="43.2534366" lon="11.3624395"><ele>225.0</ele><time>2026-04-04T10:20:38.176Z</time></trkpt><trkpt lat="43.2533444" lon="11.3624607"><ele>225.0</ele><time>2026-04-04T10:20:39.177Z</time></trkpt><trkpt lat="43.2532596" lon="11.3624862"><ele>225.0</ele><time>2026-04-04T10:20:40.177Z</time></trkpt><trkpt lat="43.2531751" lon="11.3625217"><ele>225.0</ele><time>2026-04-04T10:20:41.177Z</time></trkpt><trkpt lat="43.253097" lon="11.3625564"><ele>225.6</ele><time>2026-04-04T10:20:42.176Z</time></trkpt><trkpt lat="43.2530149" lon="11.362595"><ele>226.2</ele><time>2026-04-04T10:20:43.178Z</time></trkpt><trkpt lat="43.2529325" lon="11.3626356"><ele>226.8</ele><time>2026-04-04T10:20:44.177Z</time></trkpt><trkpt lat="43.252852" lon="11.3626836"><ele>227.4</ele><time>2026-04-04T10:20:45.177Z</time></trkpt><trkpt lat="43.2527603" lon="11.362745"><ele>228.0</ele><time>2026-04-04T10:20:46.176Z</time></trkpt><trkpt lat="43.252634" lon="11.362805"><ele>228.0</ele><time>2026-04-04T10:20:48.177Z</time></trkpt><trkpt lat="43.2525562" lon="11.3628524"><ele>228.0</ele><time>2026-04-04T10:20:49.177Z</time></trkpt><trkpt lat="43.2524703" lon="11.3629081"><ele>228.0</ele><time>2026-04-04T10:20:50.177Z</time></trkpt><trkpt lat="43.2524071" lon="11.3629714"><ele>228.0</ele><time>2026-04-04T10:20:51.177Z</time></trkpt><trkpt lat="43.2523374" lon="11.3630466"><ele>228.0</ele><time>2026-04-04T10:20:52.178Z</time></trkpt><trkpt lat="43.2522701" lon="11.3631249"><ele>228.0</ele><time>2026-04-04T10:20:53.177Z</time></trkpt><trkpt lat="43.252198" lon="11.3632097"><ele>228.83333333333334</ele><time>2026-04-04T10:20:54.176Z</time></trkpt><trkpt lat="43.2521251" lon="11.3632927"><ele>229.66666666666669</ele><time>2026-04-04T10:20:55.175Z</time></trkpt><trkpt lat="43.2520523" lon="11.363352"><ele>230.5</ele><time>2026-04-04T10:20:56.176Z</time></trkpt><trkpt lat="43.2519845" lon="11.3634169"><ele>231.33333333333334</ele><time>2026-04-04T10:20:57.176Z</time></trkpt><trkpt lat="43.2519217" lon="11.3634584"><ele>232.16666666666669</ele><time>2026-04-04T10:20:58.176Z</time></trkpt><trkpt lat="43.2518415" lon="11.3635093"><ele>233.0</ele><time>2026-04-04T10:20:59.176Z</time></trkpt><trkpt lat="43.2517578" lon="11.3635479"><ele>233.0</ele><time>2026-04-04T10:21:00.178Z</time></trkpt><trkpt lat="43.2516727" lon="11.363579"><ele>233.0</ele><time>2026-04-04T10:21:01.177Z</time></trkpt><trkpt lat="43.2515765" lon="11.3636"><ele>233.0</ele><time>2026-04-04T10:21:02.176Z</time></trkpt><trkpt lat="43.251487" lon="11.3635774"><ele>233.0</ele><time>2026-04-04T10:21:03.177Z</time></trkpt><trkpt lat="43.2513798" lon="11.3635611"><ele>233.0</ele><time>2026-04-04T10:21:04.177Z</time></trkpt><trkpt lat="43.2512833" lon="11.3635285"><ele>231.4</ele><time>2026-04-04T10:21:05.177Z</time></trkpt><trkpt lat="43.2511901" lon="11.3635016"><ele>229.8</ele><time>2026-04-04T10:21:06.175Z</time></trkpt><trkpt lat="43.2511008" lon="11.3634761"><ele>228.2</ele><time>2026-04-04T10:21:07.177Z</time></trkpt><trkpt lat="43.2510128" lon="11.3634417"><ele>226.6</ele><time>2026-04-04T10:21:08.176Z</time></trkpt><trkpt lat="43.2509265" lon="11.3634005"><ele>225.0</ele><time>2026-04-04T10:21:09.178Z</time></trkpt><trkpt lat="43.2508296" lon="11.3633598"><ele>225.0</ele><time>2026-04-04T10:21:10.176Z</time></trkpt><trkpt lat="43.2507297" lon="11.3633272"><ele>225.0</ele><time>2026-04-04T10:21:11.176Z</time></trkpt><trkpt lat="43.2506302" lon="11.3632995"><ele>225.0</ele><time>2026-04-04T10:21:12.178Z</time></trkpt><trkpt lat="43.2505295" lon="11.3632694"><ele>225.0</ele><time>2026-04-04T10:21:13.178Z</time></trkpt><trkpt lat="43.2504318" lon="11.3632526"><ele>225.0</ele><time>2026-04-04T10:21:14.176Z</time></trkpt><trkpt lat="43.2503352" lon="11.363232"><ele>224.6</ele><time>2026-04-04T10:21:15.175Z</time></trkpt><trkpt lat="43.2502433" lon="11.3632032"><ele>224.2</ele><time>2026-04-04T10:21:16.178Z</time></trkpt><trkpt lat="43.2501497" lon="11.3631762"><ele>223.8</ele><time>2026-04-04T10:21:17.176Z</time></trkpt><trkpt lat="43.2500596" lon="11.3631501"><ele>223.4</ele><time>2026-04-04T10:21:18.176Z</time></trkpt><trkpt lat="43.249968" lon="11.3631232"><ele>223.0</ele><time>2026-04-04T10:21:19.177Z</time></trkpt><trkpt lat="43.249885" lon="11.3630949"><ele>222.99999999999997</ele><time>2026-04-04T10:21:20.177Z</time></trkpt><trkpt lat="43.2497971" lon="11.363073"><ele>223.0</ele><time>2026-04-04T10:21:21.176Z</time></trkpt><trkpt lat="43.249716" lon="11.3630597"><ele>223.0</ele><time>2026-04-04T10:21:22.176Z</time></trkpt><trkpt lat="43.2496377" lon="11.3630727"><ele>223.0</ele><time>2026-04-04T10:21:23.176Z</time></trkpt><trkpt lat="43.2495473" lon="11.3630726"><ele>222.99999999999997</ele><time>2026-04-04T10:21:24.175Z</time></trkpt><trkpt lat="43.2494722" lon="11.3630755"><ele>223.0</ele><time>2026-04-04T10:21:25.176Z</time></trkpt><trkpt lat="43.2493913" lon="11.3630993"><ele>223.83333333333331</ele><time>2026-04-04T10:21:26.177Z</time></trkpt><trkpt lat="43.2493131" lon="11.3631413"><ele>224.66666666666666</ele><time>2026-04-04T10:21:27.177Z</time></trkpt><trkpt lat="43.2492331" lon="11.3631795"><ele>225.5</ele><time>2026-04-04T10:21:28.177Z</time></trkpt><trkpt lat="43.2491558" lon="11.363232"><ele>226.33333333333331</ele><time>2026-04-04T10:21:29.175Z</time></trkpt><trkpt lat="43.2490825" lon="11.3633025"><ele>227.16666666666666</ele><time>2026-04-04T10:21:30.177Z</time></trkpt><trkpt lat="43.2490184" lon="11.3633736"><ele>228.0</ele><time>2026-04-04T10:21:31.175Z</time></trkpt><trkpt lat="43.2489511" lon="11.3634581"><ele>228.0</ele><time>2026-04-04T10:21:32.177Z</time></trkpt><trkpt lat="43.2488919" lon="11.3635491"><ele>228.0</ele><time>2026-04-04T10:21:33.176Z</time></trkpt><trkpt lat="43.2488242" lon="11.3636483"><ele>228.0</ele><time>2026-04-04T10:21:34.175Z</time></trkpt><trkpt lat="43.2487515" lon="11.3637395"><ele>228.0</ele><time>2026-04-04T10:21:35.177Z</time></trkpt><trkpt lat="43.2486845" lon="11.3638407"><ele>228.0</ele><time>2026-04-04T10:21:36.176Z</time></trkpt><trkpt lat="43.2486201" lon="11.3639289"><ele>227.8</ele><time>2026-04-04T10:21:37.176Z</time></trkpt><trkpt lat="43.2485523" lon="11.3640267"><ele>227.60000000000002</ele><time>2026-04-04T10:21:38.175Z</time></trkpt><trkpt lat="43.2484841" lon="11.3641263"><ele>227.39999999999998</ele><time>2026-04-04T10:21:39.176Z</time></trkpt><trkpt lat="43.2484198" lon="11.3642266"><ele>227.2</ele><time>2026-04-04T10:21:40.175Z</time></trkpt><trkpt lat="43.2483637" lon="11.3643286"><ele>227.0</ele><time>2026-04-04T10:21:41.177Z</time></trkpt><trkpt lat="43.2483251" lon="11.3644446"><ele>227.0</ele><time>2026-04-04T10:21:42.175Z</time></trkpt><trkpt lat="43.2482965" lon="11.3645675"><ele>227.0</ele><time>2026-04-04T10:21:43.176Z</time></trkpt><trkpt lat="43.2482817" lon="11.3646953"><ele>227.0</ele><time>2026-04-04T10:21:44.176Z</time></trkpt><trkpt lat="43.2482734" lon="11.3648315"><ele>227.0</ele><time>2026-04-04T10:21:45.175Z</time></trkpt><trkpt lat="43.2482687" lon="11.3649524"><ele>227.0</ele><time>2026-04-04T10:21:46.176Z</time></trkpt><trkpt lat="43.2482707" lon="11.3650642"><ele>226.6</ele><time>2026-04-04T10:21:47.177Z</time></trkpt><trkpt lat="43.2482567" lon="11.3651654"><ele>226.2</ele><time>2026-04-04T10:21:48.176Z</time></trkpt><trkpt lat="43.2482464" lon="11.365257"><ele>225.8</ele><time>2026-04-04T10:21:49.176Z</time></trkpt><trkpt lat="43.248223" lon="11.3653376"><ele>225.4</ele><time>2026-04-04T10:21:50.176Z</time></trkpt><trkpt lat="43.2481603" lon="11.3654925"><ele>225.0</ele><time>2026-04-04T10:21:52.176Z</time></trkpt><trkpt lat="43.2480848" lon="11.3656341"><ele>224.66666666666666</ele><time>2026-04-04T10:21:54.176Z</time></trkpt><trkpt lat="43.248041" lon="11.3657027"><ele>224.33333333333331</ele><time>2026-04-04T10:21:55.175Z</time></trkpt><trkpt lat="43.247996" lon="11.3657695"><ele>224.0</ele><time>2026-04-04T10:21:56.175Z</time></trkpt><trkpt lat="43.2479442" lon="11.3658243"><ele>223.66666666666666</ele><time>2026-04-04T10:21:57.175Z</time></trkpt><trkpt lat="43.247862" lon="11.365914"><ele>223.33333333333331</ele><time>2026-04-04T10:21:59.176Z</time></trkpt><trkpt lat="43.2477806" lon="11.3659784"><ele>223.0</ele><time>2026-04-04T10:22:01.176Z</time></trkpt><trkpt lat="43.2476894" lon="11.3660233"><ele>223.0</ele><time>2026-04-04T10:22:03.176Z</time></trkpt><trkpt lat="43.2475786" lon="11.3660528"><ele>223.0</ele><time>2026-04-04T10:22:05.175Z</time></trkpt><trkpt lat="43.2474773" lon="11.3660876"><ele>223.0</ele><time>2026-04-04T10:22:07.176Z</time></trkpt><trkpt lat="43.2473629" lon="11.3661083"><ele>223.0</ele><time>2026-04-04T10:22:09.176Z</time></trkpt><trkpt lat="43.247255" lon="11.3661382"><ele>223.0</ele><time>2026-04-04T10:22:11.175Z</time></trkpt><trkpt lat="43.2471461" lon="11.3661561"><ele>222.60000000000002</ele><time>2026-04-04T10:22:13.176Z</time></trkpt><trkpt lat="43.2470395" lon="11.3661826"><ele>222.20000000000002</ele><time>2026-04-04T10:22:15.177Z</time></trkpt><trkpt lat="43.2469292" lon="11.3662135"><ele>221.8</ele><time>2026-04-04T10:22:17.176Z</time></trkpt><trkpt lat="43.2468189" lon="11.3662576"><ele>221.4</ele><time>2026-04-04T10:22:19.176Z</time></trkpt><trkpt lat="43.2467559" lon="11.3662875"><ele>221.0</ele><time>2026-04-04T10:22:20.177Z</time></trkpt><trkpt lat="43.246639" lon="11.366338"><ele>221.33333333333334</ele><time>2026-04-04T10:22:22.177Z</time></trkpt><trkpt lat="43.2465319" lon="11.3664007"><ele>221.66666666666669</ele><time>2026-04-04T10:22:24.176Z</time></trkpt><trkpt lat="43.2464721" lon="11.3664366"><ele>222.0</ele><time>2026-04-04T10:22:25.176Z</time></trkpt><trkpt lat="43.2464156" lon="11.3664781"><ele>222.33333333333331</ele><time>2026-04-04T10:22:26.177Z</time></trkpt><trkpt lat="43.2463535" lon="11.3665169"><ele>222.66666666666666</ele><time>2026-04-04T10:22:27.176Z</time></trkpt><trkpt lat="43.2462413" lon="11.3665826"><ele>223.0</ele><time>2026-04-04T10:22:29.176Z</time></trkpt><trkpt lat="43.246137" lon="11.3666855"><ele>223.2</ele><time>2026-04-04T10:22:31.176Z</time></trkpt><trkpt lat="43.2460484" lon="11.3667832"><ele>223.4</ele><time>2026-04-04T10:22:33.175Z</time></trkpt><trkpt lat="43.2459749" lon="11.3668759"><ele>223.59999999999997</ele><time>2026-04-04T10:22:35.177Z</time></trkpt><trkpt lat="43.2459113" lon="11.3669505"><ele>223.79999999999998</ele><time>2026-04-04T10:22:37.177Z</time></trkpt><trkpt lat="43.2458545" lon="11.3670187"><ele>224.0</ele><time>2026-04-04T10:22:39.175Z</time></trkpt><trkpt lat="43.2457915" lon="11.36709"><ele>224.0</ele><time>2026-04-04T10:22:41.176Z</time></trkpt><trkpt lat="43.2456882" lon="11.3671684"><ele>223.99999999999997</ele><time>2026-04-04T10:22:43.174Z</time></trkpt><trkpt lat="43.2456332" lon="11.3672174"><ele>223.99999999999997</ele><time>2026-04-04T10:22:44.177Z</time></trkpt><trkpt lat="43.2455752" lon="11.3672648"><ele>224.0</ele><time>2026-04-04T10:22:45.176Z</time></trkpt><trkpt lat="43.2454706" lon="11.3673289"><ele>224.0</ele><time>2026-04-04T10:22:47.176Z</time></trkpt><trkpt lat="43.2453865" lon="11.367357"><ele>223.33333333333334</ele><time>2026-04-04T10:22:49.177Z</time></trkpt><trkpt lat="43.2453228" lon="11.3673869"><ele>222.66666666666669</ele><time>2026-04-04T10:25:30.175Z</time></trkpt><trkpt lat="43.2452423" lon="11.3674242"><ele>222.0</ele><time>2026-04-04T10:25:32.175Z</time></trkpt><trkpt lat="43.2451161" lon="11.3674658"><ele>221.33333333333331</ele><time>2026-04-04T10:25:34.173Z</time></trkpt><trkpt lat="43.2450446" lon="11.3674845"><ele>220.66666666666666</ele><time>2026-04-04T10:25:35.174Z</time></trkpt><trkpt lat="43.2449681" lon="11.3675117"><ele>220.0</ele><time>2026-04-04T10:25:36.175Z</time></trkpt><trkpt lat="43.2448822" lon="11.367538"><ele>220.6</ele><time>2026-04-04T10:25:37.176Z</time></trkpt><trkpt lat="43.2447912" lon="11.3675602"><ele>221.2</ele><time>2026-04-04T10:25:38.175Z</time></trkpt><trkpt lat="43.2447003" lon="11.367591"><ele>221.8</ele><time>2026-04-04T10:25:39.175Z</time></trkpt><trkpt lat="43.2445931" lon="11.3676142"><ele>222.4</ele><time>2026-04-04T10:25:40.174Z</time></trkpt><trkpt lat="43.2444724" lon="11.3676464"><ele>223.0</ele><time>2026-04-04T10:25:41.175Z</time></trkpt><trkpt lat="43.2443207" lon="11.3676985"><ele>223.0</ele><time>2026-04-04T10:25:42.176Z</time></trkpt><trkpt lat="43.2441789" lon="11.3677467"><ele>223.0</ele><time>2026-04-04T10:25:43.174Z</time></trkpt><trkpt lat="43.2440526" lon="11.3677922"><ele>223.0</ele><time>2026-04-04T10:25:44.173Z</time></trkpt><trkpt lat="43.243936" lon="11.3678175"><ele>223.0</ele><time>2026-04-04T10:25:45.175Z</time></trkpt><trkpt lat="43.243837" lon="11.3678617"><ele>223.49999999999997</ele><time>2026-04-04T10:25:46.174Z</time></trkpt><trkpt lat="43.243754" lon="11.3678944"><ele>224.0</ele><time>2026-04-04T10:25:47.175Z</time></trkpt><trkpt lat="43.2436823" lon="11.3679137"><ele>224.5</ele><time>2026-04-04T10:25:48.176Z</time></trkpt><trkpt lat="43.2436164" lon="11.3679356"><ele>225.0</ele><time>2026-04-04T10:25:49.175Z</time></trkpt><trkpt lat="43.2434877" lon="11.3679676"><ele>225.49999999999997</ele><time>2026-04-04T10:25:51.174Z</time></trkpt><trkpt lat="43.2434201" lon="11.3679792"><ele>226.0</ele><time>2026-04-04T10:25:52.175Z</time></trkpt><trkpt lat="43.2433443" lon="11.3679937"><ele>225.99999999999997</ele><time>2026-04-04T10:25:53.174Z</time></trkpt><trkpt lat="43.2432626" lon="11.3680101"><ele>226.0</ele><time>2026-04-04T10:25:54.174Z</time></trkpt><trkpt lat="43.2431817" lon="11.3680303"><ele>226.0</ele><time>2026-04-04T10:25:55.174Z</time></trkpt><trkpt lat="43.2430977" lon="11.3680567"><ele>226.0</ele><time>2026-04-04T10:25:56.174Z</time></trkpt><trkpt lat="43.2430186" lon="11.3680844"><ele>225.99999999999997</ele><time>2026-04-04T10:25:57.175Z</time></trkpt><trkpt lat="43.2429458" lon="11.3681124"><ele>226.0</ele><time>2026-04-04T10:25:58.174Z</time></trkpt><trkpt lat="43.2428686" lon="11.3681535"><ele>225.33333333333331</ele><time>2026-04-04T10:25:59.176Z</time></trkpt><trkpt lat="43.2427881" lon="11.3681927"><ele>224.66666666666666</ele><time>2026-04-04T10:26:00.174Z</time></trkpt><trkpt lat="43.2427194" lon="11.3682457"><ele>224.0</ele><time>2026-04-04T10:26:01.174Z</time></trkpt><trkpt lat="43.2426538" lon="11.3683075"><ele>223.33333333333331</ele><time>2026-04-04T10:26:02.175Z</time></trkpt><trkpt lat="43.2425846" lon="11.3683796"><ele>222.66666666666666</ele><time>2026-04-04T10:26:03.175Z</time></trkpt><trkpt lat="43.2425193" lon="11.3684563"><ele>222.0</ele><time>2026-04-04T10:26:04.174Z</time></trkpt><trkpt lat="43.2424526" lon="11.3685333"><ele>222.0</ele><time>2026-04-04T10:26:05.175Z</time></trkpt><trkpt lat="43.2423947" lon="11.3685977"><ele>222.0</ele><time>2026-04-04T10:26:06.174Z</time></trkpt><trkpt lat="43.2423325" lon="11.3686739"><ele>222.0</ele><time>2026-04-04T10:26:07.174Z</time></trkpt><trkpt lat="43.2422661" lon="11.3687565"><ele>222.0</ele><time>2026-04-04T10:26:08.174Z</time></trkpt><trkpt lat="43.2422034" lon="11.3688325"><ele>222.0</ele><time>2026-04-04T10:26:09.175Z</time></trkpt><trkpt lat="43.2421492" lon="11.3689103"><ele>222.0</ele><time>2026-04-04T10:26:10.175Z</time></trkpt><trkpt lat="43.2420882" lon="11.3689959"><ele>221.6</ele><time>2026-04-04T10:26:11.174Z</time></trkpt><trkpt lat="43.2420229" lon="11.3690824"><ele>221.2</ele><time>2026-04-04T10:26:12.174Z</time></trkpt><trkpt lat="43.2419514" lon="11.3691735"><ele>220.8</ele><time>2026-04-04T10:26:13.174Z</time></trkpt><trkpt lat="43.2418841" lon="11.3692606"><ele>220.4</ele><time>2026-04-04T10:26:14.175Z</time></trkpt><trkpt lat="43.2418174" lon="11.3693421"><ele>220.0</ele><time>2026-04-04T10:26:15.175Z</time></trkpt><trkpt lat="43.2417527" lon="11.3694202"><ele>220.0</ele><time>2026-04-04T10:26:16.175Z</time></trkpt><trkpt lat="43.2416927" lon="11.3694991"><ele>220.0</ele><time>2026-04-04T10:26:17.174Z</time></trkpt><trkpt lat="43.2416178" lon="11.3695871"><ele>220.0</ele><time>2026-04-04T10:26:18.174Z</time></trkpt><trkpt lat="43.2415412" lon="11.3696755"><ele>220.0</ele><time>2026-04-04T10:26:19.173Z</time></trkpt><trkpt lat="43.2414643" lon="11.3697593"><ele>220.0</ele><time>2026-04-04T10:26:20.174Z</time></trkpt><trkpt lat="43.2413927" lon="11.3698432"><ele>219.0</ele><time>2026-04-04T10:26:21.176Z</time></trkpt><trkpt lat="43.2413101" lon="11.3699122"><ele>218.0</ele><time>2026-04-04T10:26:22.174Z</time></trkpt><trkpt lat="43.241232" lon="11.3699896"><ele>217.0</ele><time>2026-04-04T10:26:23.175Z</time></trkpt><trkpt lat="43.2411439" lon="11.3700731"><ele>216.0</ele><time>2026-04-04T10:26:24.174Z</time></trkpt><trkpt lat="43.2410585" lon="11.3701481"><ele>215.0</ele><time>2026-04-04T10:26:25.174Z</time></trkpt><trkpt lat="43.2409728" lon="11.3702212"><ele>215.0</ele><time>2026-04-04T10:26:26.175Z</time></trkpt><trkpt lat="43.2408888" lon="11.370297"><ele>215.0</ele><time>2026-04-04T10:26:27.175Z</time></trkpt><trkpt lat="43.2408109" lon="11.3703774"><ele>215.0</ele><time>2026-04-04T10:26:28.173Z</time></trkpt><trkpt lat="43.2407311" lon="11.3704483"><ele>215.0</ele><time>2026-04-04T10:26:29.173Z</time></trkpt><trkpt lat="43.2406548" lon="11.370527"><ele>215.0</ele><time>2026-04-04T10:26:30.176Z</time></trkpt><trkpt lat="43.2405854" lon="11.3706159"><ele>215.4</ele><time>2026-04-04T10:26:31.174Z</time></trkpt><trkpt lat="43.2405183" lon="11.3706989"><ele>215.8</ele><time>2026-04-04T10:26:32.174Z</time></trkpt><trkpt lat="43.2404568" lon="11.3707813"><ele>216.2</ele><time>2026-04-04T10:26:33.174Z</time></trkpt><trkpt lat="43.2403976" lon="11.3708717"><ele>216.6</ele><time>2026-04-04T10:26:34.173Z</time></trkpt><trkpt lat="43.2403355" lon="11.3709728"><ele>217.0</ele><time>2026-04-04T10:26:35.175Z</time></trkpt><trkpt lat="43.2402776" lon="11.371076"><ele>217.0</ele><time>2026-04-04T10:26:36.174Z</time></trkpt><trkpt lat="43.2402148" lon="11.371181"><ele>217.0</ele><time>2026-04-04T10:26:37.175Z</time></trkpt><trkpt lat="43.2401611" lon="11.3712833"><ele>217.0</ele><time>2026-04-04T10:26:38.173Z</time></trkpt><trkpt lat="43.240102" lon="11.3713873"><ele>217.0</ele><time>2026-04-04T10:26:39.174Z</time></trkpt><trkpt lat="43.2400351" lon="11.3714968"><ele>217.0</ele><time>2026-04-04T10:26:40.174Z</time></trkpt><trkpt lat="43.2399719" lon="11.3715996"><ele>216.39999999999998</ele><time>2026-04-04T10:26:41.174Z</time></trkpt><trkpt lat="43.2399097" lon="11.371709"><ele>215.79999999999998</ele><time>2026-04-04T10:26:42.175Z</time></trkpt><trkpt lat="43.2398508" lon="11.3718286"><ele>215.2</ele><time>2026-04-04T10:26:43.175Z</time></trkpt><trkpt lat="43.2397919" lon="11.3719398"><ele>214.6</ele><time>2026-04-04T10:26:44.175Z</time></trkpt><trkpt lat="43.2397404" lon="11.3720548"><ele>214.0</ele><time>2026-04-04T10:26:45.173Z</time></trkpt><trkpt lat="43.2396908" lon="11.3721621"><ele>213.83333333333331</ele><time>2026-04-04T10:26:46.176Z</time></trkpt><trkpt lat="43.2396489" lon="11.3722565"><ele>213.66666666666666</ele><time>2026-04-04T10:26:47.174Z</time></trkpt><trkpt lat="43.2395831" lon="11.3723915"><ele>213.5</ele><time>2026-04-04T10:26:49.174Z</time></trkpt><trkpt lat="43.2395413" lon="11.372459"><ele>213.33333333333331</ele><time>2026-04-04T10:26:50.173Z</time></trkpt><trkpt lat="43.2394934" lon="11.3725214"><ele>213.16666666666666</ele><time>2026-04-04T10:26:51.175Z</time></trkpt><trkpt lat="43.2394399" lon="11.3725803"><ele>213.0</ele><time>2026-04-04T10:26:52.173Z</time></trkpt><trkpt lat="43.2393122" lon="11.3726504"><ele>213.0</ele><time>2026-04-04T10:26:54.174Z</time></trkpt><trkpt lat="43.2392287" lon="11.372658"><ele>213.0</ele><time>2026-04-04T10:26:55.174Z</time></trkpt><trkpt lat="43.2391475" lon="11.372668"><ele>213.0</ele><time>2026-04-04T10:26:56.174Z</time></trkpt><trkpt lat="43.2390646" lon="11.3726707"><ele>213.0</ele><time>2026-04-04T10:26:57.175Z</time></trkpt><trkpt lat="43.2389812" lon="11.3726712"><ele>213.0</ele><time>2026-04-04T10:26:58.174Z</time></trkpt><trkpt lat="43.2388942" lon="11.372676"><ele>213.0</ele><time>2026-04-04T10:26:59.175Z</time></trkpt><trkpt lat="43.2388021" lon="11.3726989"><ele>213.0</ele><time>2026-04-04T10:27:00.174Z</time></trkpt><trkpt lat="43.2387154" lon="11.3727299"><ele>213.0</ele><time>2026-04-04T10:27:01.174Z</time></trkpt><trkpt lat="43.2386314" lon="11.3727654"><ele>213.0</ele><time>2026-04-04T10:27:02.175Z</time></trkpt><trkpt lat="43.2385551" lon="11.3728109"><ele>213.0</ele><time>2026-04-04T10:27:03.174Z</time></trkpt><trkpt lat="43.2384945" lon="11.372847"><ele>213.0</ele><time>2026-04-04T10:27:04.175Z</time></trkpt><trkpt lat="43.2384333" lon="11.3728988"><ele>213.0</ele><time>2026-04-04T10:27:05.174Z</time></trkpt><trkpt lat="43.2383689" lon="11.3729535"><ele>213.0</ele><time>2026-04-04T10:27:06.174Z</time></trkpt><trkpt lat="43.2383165" lon="11.3730182"><ele>213.0</ele><time>2026-04-04T10:27:07.174Z</time></trkpt><trkpt lat="43.2382783" lon="11.3730985"><ele>213.0</ele><time>2026-04-04T10:27:08.173Z</time></trkpt><trkpt lat="43.2382509" lon="11.3732021"><ele>213.0</ele><time>2026-04-04T10:27:09.175Z</time></trkpt><trkpt lat="43.2382368" lon="11.3733146"><ele>213.0</ele><time>2026-04-04T10:27:10.174Z</time></trkpt><trkpt lat="43.2382334" lon="11.3734291"><ele>213.0</ele><time>2026-04-04T10:27:11.175Z</time></trkpt><trkpt lat="43.2382341" lon="11.3735528"><ele>211.4</ele><time>2026-04-04T10:27:12.175Z</time></trkpt><trkpt lat="43.2382409" lon="11.3736742"><ele>209.8</ele><time>2026-04-04T10:27:13.174Z</time></trkpt><trkpt lat="43.2382501" lon="11.373798"><ele>208.2</ele><time>2026-04-04T10:27:14.173Z</time></trkpt><trkpt lat="43.23826" lon="11.3739204"><ele>206.6</ele><time>2026-04-04T10:27:15.174Z</time></trkpt><trkpt lat="43.2382687" lon="11.3740597"><ele>205.0</ele><time>2026-04-04T10:27:16.174Z</time></trkpt><trkpt lat="43.2382759" lon="11.3741952"><ele>204.8</ele><time>2026-04-04T10:27:17.175Z</time></trkpt><trkpt lat="43.2382831" lon="11.3743238"><ele>204.6</ele><time>2026-04-04T10:27:18.173Z</time></trkpt><trkpt lat="43.2382847" lon="11.3744593"><ele>204.39999999999998</ele><time>2026-04-04T10:27:19.174Z</time></trkpt><trkpt lat="43.2382867" lon="11.3745822"><ele>204.2</ele><time>2026-04-04T10:27:20.173Z</time></trkpt><trkpt lat="43.2382789" lon="11.3747231"><ele>204.0</ele><time>2026-04-04T10:27:21.175Z</time></trkpt><trkpt lat="43.2382581" lon="11.3748573"><ele>204.0</ele><time>2026-04-04T10:27:22.175Z</time></trkpt><trkpt lat="43.2382262" lon="11.3749566"><ele>204.0</ele><time>2026-04-04T10:27:23.173Z</time></trkpt><trkpt lat="43.2381775" lon="11.3750502"><ele>204.0</ele><time>2026-04-04T10:27:24.174Z</time></trkpt><trkpt lat="43.2380998" lon="11.3751423"><ele>204.0</ele><time>2026-04-04T10:27:25.175Z</time></trkpt><trkpt lat="43.2380134" lon="11.3752262"><ele>204.0</ele><time>2026-04-04T10:27:26.174Z</time></trkpt><trkpt lat="43.2379208" lon="11.3753034"><ele>204.0</ele><time>2026-04-04T10:27:27.175Z</time></trkpt><trkpt lat="43.2378346" lon="11.3753905"><ele>204.0</ele><time>2026-04-04T10:27:28.175Z</time></trkpt><trkpt lat="43.2377433" lon="11.3754787"><ele>204.0</ele><time>2026-04-04T10:27:29.175Z</time></trkpt><trkpt lat="43.2376537" lon="11.3755715"><ele>204.0</ele><time>2026-04-04T10:27:30.175Z</time></trkpt><trkpt lat="43.2375676" lon="11.3756637"><ele>204.0</ele><time>2026-04-04T10:27:31.173Z</time></trkpt><trkpt lat="43.2374821" lon="11.375759"><ele>203.0</ele><time>2026-04-04T10:27:32.174Z</time></trkpt><trkpt lat="43.2373986" lon="11.3758562"><ele>202.0</ele><time>2026-04-04T10:27:33.173Z</time></trkpt><trkpt lat="43.237312" lon="11.3759564"><ele>201.0</ele><time>2026-04-04T10:27:34.173Z</time></trkpt><trkpt lat="43.2372251" lon="11.3760512"><ele>200.0</ele><time>2026-04-04T10:27:35.174Z</time></trkpt><trkpt lat="43.2371412" lon="11.3761461"><ele>199.0</ele><time>2026-04-04T10:27:36.174Z</time></trkpt><trkpt lat="43.2370449" lon="11.376215"><ele>198.39999999999998</ele><time>2026-04-04T10:27:37.175Z</time></trkpt><trkpt lat="43.2369584" lon="11.3762743"><ele>197.8</ele><time>2026-04-04T10:27:38.173Z</time></trkpt><trkpt lat="43.2368683" lon="11.3763177"><ele>197.2</ele><time>2026-04-04T10:27:39.173Z</time></trkpt><trkpt lat="43.2367738" lon="11.3763304"><ele>196.60000000000002</ele><time>2026-04-04T10:27:40.173Z</time></trkpt><trkpt lat="43.2366846" lon="11.3763375"><ele>196.0</ele><time>2026-04-04T10:27:41.174Z</time></trkpt><trkpt lat="43.2365963" lon="11.3763237"><ele>196.0</ele><time>2026-04-04T10:27:42.174Z</time></trkpt><trkpt lat="43.2365088" lon="11.3762951"><ele>196.0</ele><time>2026-04-04T10:27:43.175Z</time></trkpt><trkpt lat="43.2364284" lon="11.3762509"><ele>196.0</ele><time>2026-04-04T10:27:44.173Z</time></trkpt><trkpt lat="43.2363664" lon="11.3761802"><ele>196.0</ele><time>2026-04-04T10:27:45.175Z</time></trkpt><trkpt lat="43.2363096" lon="11.3761115"><ele>196.0</ele><time>2026-04-04T10:27:46.173Z</time></trkpt><trkpt lat="43.236244" lon="11.3759699"><ele>194.0</ele><time>2026-04-04T10:27:48.173Z</time></trkpt><trkpt lat="43.2362113" lon="11.3758437"><ele>192.0</ele><time>2026-04-04T10:27:50.174Z</time></trkpt><trkpt lat="43.2361908" lon="11.3757213"><ele>190.0</ele><time>2026-04-04T10:27:52.173Z</time></trkpt><trkpt lat="43.2361812" lon="11.3756012"><ele>188.0</ele><time>2026-04-04T10:27:54.173Z</time></trkpt><trkpt lat="43.2361778" lon="11.3754682"><ele>186.0</ele><time>2026-04-04T10:27:56.173Z</time></trkpt><trkpt lat="43.236194" lon="11.375278"><ele>185.33333333333334</ele><time>2026-04-04T10:27:58.173Z</time></trkpt><trkpt lat="43.236223" lon="11.3751992"><ele>184.66666666666666</ele><time>2026-04-04T10:27:59.173Z</time></trkpt><trkpt lat="43.2362844" lon="11.3750441"><ele>184.0</ele><time>2026-04-04T10:28:01.174Z</time></trkpt><trkpt lat="43.2363345" lon="11.3749677"><ele>183.33333333333331</ele><time>2026-04-04T10:28:02.173Z</time></trkpt><trkpt lat="43.2363834" lon="11.3748813"><ele>182.66666666666666</ele><time>2026-04-04T10:28:03.175Z</time></trkpt><trkpt lat="43.2364239" lon="11.3747849"><ele>182.0</ele><time>2026-04-04T10:28:04.174Z</time></trkpt><trkpt lat="43.2364553" lon="11.3746799"><ele>183.5</ele><time>2026-04-04T10:28:05.173Z</time></trkpt><trkpt lat="43.2364917" lon="11.3745854"><ele>185.0</ele><time>2026-04-04T10:28:06.175Z</time></trkpt><trkpt lat="43.2365227" lon="11.3744686"><ele>186.5</ele><time>2026-04-04T10:28:07.174Z</time></trkpt><trkpt lat="43.2365295" lon="11.3743566"><ele>188.0</ele><time>2026-04-04T10:28:08.174Z</time></trkpt><trkpt lat="43.2365419" lon="11.3742489"><ele>189.5</ele><time>2026-04-04T10:28:09.175Z</time></trkpt><trkpt lat="43.2365636" lon="11.3741328"><ele>191.0</ele><time>2026-04-04T10:28:10.174Z</time></trkpt><trkpt lat="43.2365721" lon="11.3740178"><ele>191.0</ele><time>2026-04-04T10:28:11.172Z</time></trkpt><trkpt lat="43.2365712" lon="11.3739037"><ele>191.0</ele><time>2026-04-04T10:28:12.173Z</time></trkpt><trkpt lat="43.2365555" lon="11.3737965"><ele>191.0</ele><time>2026-04-04T10:28:13.173Z</time></trkpt><trkpt lat="43.2365238" lon="11.3736943"><ele>191.0</ele><time>2026-04-04T10:28:14.175Z</time></trkpt><trkpt lat="43.2364815" lon="11.3736015"><ele>191.0</ele><time>2026-04-04T10:28:15.173Z</time></trkpt><trkpt lat="43.2364246" lon="11.3735258"><ele>191.0</ele><time>2026-04-04T10:28:16.174Z</time></trkpt><trkpt lat="43.2363547" lon="11.3734565"><ele>189.20000000000002</ele><time>2026-04-04T10:28:17.174Z</time></trkpt><trkpt lat="43.236264" lon="11.3734197"><ele>187.4</ele><time>2026-04-04T10:28:18.174Z</time></trkpt><trkpt lat="43.2361758" lon="11.3734026"><ele>185.6</ele><time>2026-04-04T10:28:19.173Z</time></trkpt><trkpt lat="43.2360816" lon="11.3734036"><ele>183.8</ele><time>2026-04-04T10:28:20.174Z</time></trkpt><trkpt lat="43.2359965" lon="11.3734049"><ele>182.0</ele><time>2026-04-04T10:28:21.173Z</time></trkpt><trkpt lat="43.2359081" lon="11.3734149"><ele>182.0</ele><time>2026-04-04T10:28:22.175Z</time></trkpt><trkpt lat="43.2358237" lon="11.3734158"><ele>182.0</ele><time>2026-04-04T10:28:23.174Z</time></trkpt><trkpt lat="43.2357333" lon="11.3734251"><ele>182.0</ele><time>2026-04-04T10:28:24.174Z</time></trkpt><trkpt lat="43.2356393" lon="11.3734333"><ele>182.0</ele><time>2026-04-04T10:28:25.175Z</time></trkpt><trkpt lat="43.2355459" lon="11.373446"><ele>182.0</ele><time>2026-04-04T10:28:26.174Z</time></trkpt><trkpt lat="43.235449" lon="11.3734537"><ele>181.0</ele><time>2026-04-04T10:28:27.173Z</time></trkpt><trkpt lat="43.2353527" lon="11.3734687"><ele>180.0</ele><time>2026-04-04T10:28:28.173Z</time></trkpt><trkpt lat="43.2352661" lon="11.3734791"><ele>179.0</ele><time>2026-04-04T10:28:29.174Z</time></trkpt><trkpt lat="43.2351733" lon="11.3734812"><ele>178.0</ele><time>2026-04-04T10:28:30.175Z</time></trkpt><trkpt lat="43.2350799" lon="11.3734916"><ele>177.0</ele><time>2026-04-04T10:28:31.174Z</time></trkpt><trkpt lat="43.2349869" lon="11.3735078"><ele>177.0</ele><time>2026-04-04T10:28:32.172Z</time></trkpt><trkpt lat="43.2348852" lon="11.373517"><ele>177.0</ele><time>2026-04-04T10:28:33.174Z</time></trkpt><trkpt lat="43.2347891" lon="11.3735291"><ele>177.0</ele><time>2026-04-04T10:28:34.173Z</time></trkpt><trkpt lat="43.2346964" lon="11.3735306"><ele>177.0</ele><time>2026-04-04T10:28:35.172Z</time></trkpt><trkpt lat="43.2346056" lon="11.3735408"><ele>177.0</ele><time>2026-04-04T10:28:36.173Z</time></trkpt><trkpt lat="43.234519" lon="11.3735492"><ele>177.2</ele><time>2026-04-04T10:28:37.172Z</time></trkpt><trkpt lat="43.2344294" lon="11.3735502"><ele>177.39999999999998</ele><time>2026-04-04T10:28:38.174Z</time></trkpt><trkpt lat="43.2343294" lon="11.3735565"><ele>177.60000000000002</ele><time>2026-04-04T10:28:39.175Z</time></trkpt><trkpt lat="43.2342405" lon="11.3735686"><ele>177.8</ele><time>2026-04-04T10:28:40.174Z</time></trkpt><trkpt lat="43.2341519" lon="11.3735708"><ele>178.0</ele><time>2026-04-04T10:28:41.173Z</time></trkpt><trkpt lat="43.2340656" lon="11.373571"><ele>178.0</ele><time>2026-04-04T10:28:42.174Z</time></trkpt><trkpt lat="43.2339826" lon="11.3735765"><ele>178.0</ele><time>2026-04-04T10:28:43.173Z</time></trkpt><trkpt lat="43.2338973" lon="11.373587"><ele>178.0</ele><time>2026-04-04T10:28:44.174Z</time></trkpt><trkpt lat="43.2338173" lon="11.3736079"><ele>178.0</ele><time>2026-04-04T10:28:45.173Z</time></trkpt><trkpt lat="43.2337445" lon="11.3736341"><ele>178.0</ele><time>2026-04-04T10:28:46.173Z</time></trkpt><trkpt lat="43.2336581" lon="11.3736702"><ele>178.0</ele><time>2026-04-04T10:28:47.173Z</time></trkpt><trkpt lat="43.2335843" lon="11.3737141"><ele>178.2</ele><time>2026-04-04T10:28:48.173Z</time></trkpt><trkpt lat="43.233487" lon="11.3737638"><ele>178.4</ele><time>2026-04-04T10:28:49.175Z</time></trkpt><trkpt lat="43.2333993" lon="11.3738194"><ele>178.6</ele><time>2026-04-04T10:28:50.173Z</time></trkpt><trkpt lat="43.233312" lon="11.3738799"><ele>178.79999999999998</ele><time>2026-04-04T10:28:51.172Z</time></trkpt><trkpt lat="43.2332172" lon="11.3739363"><ele>179.0</ele><time>2026-04-04T10:28:52.174Z</time></trkpt><trkpt lat="43.23313" lon="11.3739973"><ele>179.0</ele><time>2026-04-04T10:28:53.174Z</time></trkpt><trkpt lat="43.233043" lon="11.3740581"><ele>179.0</ele><time>2026-04-04T10:28:54.172Z</time></trkpt><trkpt lat="43.2329527" lon="11.3741223"><ele>179.0</ele><time>2026-04-04T10:28:55.172Z</time></trkpt><trkpt lat="43.2328692" lon="11.3741909"><ele>179.0</ele><time>2026-04-04T10:28:56.174Z</time></trkpt><trkpt lat="43.2327822" lon="11.3742557"><ele>179.0</ele><time>2026-04-04T10:28:57.175Z</time></trkpt><trkpt lat="43.2326918" lon="11.3743176"><ele>179.0</ele><time>2026-04-04T10:28:58.174Z</time></trkpt><trkpt lat="43.2326158" lon="11.374369"><ele>179.0</ele><time>2026-04-04T10:28:59.173Z</time></trkpt><trkpt lat="43.2325395" lon="11.3744501"><ele>179.0</ele><time>2026-04-04T10:29:00.174Z</time></trkpt><trkpt lat="43.2324512" lon="11.3745125"><ele>179.0</ele><time>2026-04-04T10:29:01.174Z</time></trkpt><trkpt lat="43.2323656" lon="11.3745743"><ele>179.0</ele><time>2026-04-04T10:29:02.174Z</time></trkpt><trkpt lat="43.232279" lon="11.3746421"><ele>179.0</ele><time>2026-04-04T10:29:03.174Z</time></trkpt><trkpt lat="43.2321844" lon="11.3746996"><ele>179.0</ele><time>2026-04-04T10:29:04.173Z</time></trkpt><trkpt lat="43.2320943" lon="11.3747572"><ele>179.0</ele><time>2026-04-04T10:29:05.174Z</time></trkpt><trkpt lat="43.2320144" lon="11.3748214"><ele>179.0</ele><time>2026-04-04T10:29:06.173Z</time></trkpt><trkpt lat="43.2319166" lon="11.3748815"><ele>179.0</ele><time>2026-04-04T10:29:07.173Z</time></trkpt><trkpt lat="43.2318219" lon="11.3749362"><ele>179.0</ele><time>2026-04-04T10:29:08.174Z</time></trkpt><trkpt lat="43.2317469" lon="11.3749881"><ele>179.0</ele><time>2026-04-04T10:29:09.174Z</time></trkpt><trkpt lat="43.2316608" lon="11.3750484"><ele>179.0</ele><time>2026-04-04T10:29:10.173Z</time></trkpt><trkpt lat="43.2315811" lon="11.3751074"><ele>179.0</ele><time>2026-04-04T10:29:11.173Z</time></trkpt><trkpt lat="43.2315009" lon="11.3751712"><ele>179.0</ele><time>2026-04-04T10:29:12.174Z</time></trkpt><trkpt lat="43.2314134" lon="11.3752387"><ele>179.0</ele><time>2026-04-04T10:29:13.174Z</time></trkpt><trkpt lat="43.2313111" lon="11.375294"><ele>179.0</ele><time>2026-04-04T10:29:14.175Z</time></trkpt><trkpt lat="43.2312144" lon="11.3753558"><ele>179.0</ele><time>2026-04-04T10:29:15.174Z</time></trkpt><trkpt lat="43.2311264" lon="11.3754075"><ele>179.0</ele><time>2026-04-04T10:29:16.175Z</time></trkpt><trkpt lat="43.231029" lon="11.3754705"><ele>179.0</ele><time>2026-04-04T10:29:17.173Z</time></trkpt><trkpt lat="43.2309514" lon="11.3755605"><ele>179.0</ele><time>2026-04-04T10:29:18.173Z</time></trkpt><trkpt lat="43.2308606" lon="11.3756187"><ele>179.0</ele><time>2026-04-04T10:29:19.174Z</time></trkpt><trkpt lat="43.2307674" lon="11.3756873"><ele>179.0</ele><time>2026-04-04T10:29:20.173Z</time></trkpt><trkpt lat="43.2306786" lon="11.3757513"><ele>179.0</ele><time>2026-04-04T10:29:21.175Z</time></trkpt><trkpt lat="43.2305925" lon="11.3758202"><ele>179.0</ele><time>2026-04-04T10:29:22.173Z</time></trkpt><trkpt lat="43.2305014" lon="11.3758879"><ele>180.0</ele><time>2026-04-04T10:29:23.173Z</time></trkpt><trkpt lat="43.2304083" lon="11.375958"><ele>181.0</ele><time>2026-04-04T10:29:24.173Z</time></trkpt><trkpt lat="43.2303085" lon="11.3760198"><ele>182.0</ele><time>2026-04-04T10:29:25.173Z</time></trkpt><trkpt lat="43.230221" lon="11.3760915"><ele>183.0</ele><time>2026-04-04T10:29:26.174Z</time></trkpt><trkpt lat="43.2301315" lon="11.3761575"><ele>184.0</ele><time>2026-04-04T10:29:27.173Z</time></trkpt><trkpt lat="43.230038" lon="11.3762258"><ele>184.0</ele><time>2026-04-04T10:29:28.173Z</time></trkpt><trkpt lat="43.2299515" lon="11.3762989"><ele>184.0</ele><time>2026-04-04T10:29:29.172Z</time></trkpt><trkpt lat="43.2298625" lon="11.3763783"><ele>184.0</ele><time>2026-04-04T10:29:30.174Z</time></trkpt><trkpt lat="43.2297713" lon="11.3764555"><ele>184.0</ele><time>2026-04-04T10:29:31.173Z</time></trkpt><trkpt lat="43.2296792" lon="11.3765321"><ele>184.0</ele><time>2026-04-04T10:29:32.174Z</time></trkpt><trkpt lat="43.2295843" lon="11.3766034"><ele>184.39999999999998</ele><time>2026-04-04T10:29:33.172Z</time></trkpt><trkpt lat="43.2294889" lon="11.3766697"><ele>184.8</ele><time>2026-04-04T10:29:34.174Z</time></trkpt><trkpt lat="43.2293936" lon="11.3767475"><ele>185.2</ele><time>2026-04-04T10:29:35.173Z</time></trkpt><trkpt lat="43.2293022" lon="11.3768266"><ele>185.60000000000002</ele><time>2026-04-04T10:29:36.172Z</time></trkpt><trkpt lat="43.2292107" lon="11.3769016"><ele>186.0</ele><time>2026-04-04T10:29:37.173Z</time></trkpt><trkpt lat="43.2291215" lon="11.376979"><ele>186.0</ele><time>2026-04-04T10:29:38.173Z</time></trkpt><trkpt lat="43.2290252" lon="11.3770405"><ele>186.0</ele><time>2026-04-04T10:29:39.174Z</time></trkpt><trkpt lat="43.2289258" lon="11.3770907"><ele>186.0</ele><time>2026-04-04T10:29:40.173Z</time></trkpt><trkpt lat="43.2288435" lon="11.3771321"><ele>186.0</ele><time>2026-04-04T10:29:41.173Z</time></trkpt><trkpt lat="43.2287412" lon="11.3771685"><ele>186.0</ele><time>2026-04-04T10:29:42.172Z</time></trkpt><trkpt lat="43.22865" lon="11.3771972"><ele>184.4</ele><time>2026-04-04T10:29:43.172Z</time></trkpt><trkpt lat="43.2285475" lon="11.3772226"><ele>182.8</ele><time>2026-04-04T10:29:44.173Z</time></trkpt><trkpt lat="43.2284471" lon="11.3772323"><ele>181.20000000000002</ele><time>2026-04-04T10:29:45.173Z</time></trkpt><trkpt lat="43.2283457" lon="11.377244"><ele>179.60000000000002</ele><time>2026-04-04T10:29:46.172Z</time></trkpt><trkpt lat="43.228241" lon="11.3772547"><ele>178.0</ele><time>2026-04-04T10:29:47.173Z</time></trkpt><trkpt lat="43.2281419" lon="11.3772704"><ele>178.0</ele><time>2026-04-04T10:29:48.174Z</time></trkpt><trkpt lat="43.2280398" lon="11.3772774"><ele>178.0</ele><time>2026-04-04T10:29:49.173Z</time></trkpt><trkpt lat="43.227946" lon="11.3772807"><ele>178.0</ele><time>2026-04-04T10:29:50.173Z</time></trkpt><trkpt lat="43.2278415" lon="11.3772856"><ele>178.0</ele><time>2026-04-04T10:29:51.173Z</time></trkpt><trkpt lat="43.2277326" lon="11.3772877"><ele>178.0</ele><time>2026-04-04T10:29:52.174Z</time></trkpt><trkpt lat="43.227633" lon="11.3772745"><ele>178.0</ele><time>2026-04-04T10:29:53.173Z</time></trkpt><trkpt lat="43.2275318" lon="11.3772604"><ele>178.0</ele><time>2026-04-04T10:29:54.174Z</time></trkpt><trkpt lat="43.2274253" lon="11.3772547"><ele>178.0</ele><time>2026-04-04T10:29:55.174Z</time></trkpt><trkpt lat="43.2273269" lon="11.3772237"><ele>178.0</ele><time>2026-04-04T10:29:56.173Z</time></trkpt><trkpt lat="43.2272271" lon="11.3771881"><ele>178.0</ele><time>2026-04-04T10:29:57.173Z</time></trkpt><trkpt lat="43.2271282" lon="11.3771431"><ele>178.60000000000002</ele><time>2026-04-04T10:29:58.174Z</time></trkpt><trkpt lat="43.22704" lon="11.3770561"><ele>179.20000000000002</ele><time>2026-04-04T10:29:59.174Z</time></trkpt><trkpt lat="43.2269458" lon="11.3770042"><ele>179.8</ele><time>2026-04-04T10:30:00.174Z</time></trkpt><trkpt lat="43.2268522" lon="11.3769468"><ele>180.4</ele><time>2026-04-04T10:30:01.173Z</time></trkpt><trkpt lat="43.2267584" lon="11.3768782"><ele>181.0</ele><time>2026-04-04T10:30:02.174Z</time></trkpt><trkpt lat="43.2266689" lon="11.3768094"><ele>181.0</ele><time>2026-04-04T10:30:03.173Z</time></trkpt><trkpt lat="43.2265827" lon="11.376721"><ele>181.0</ele><time>2026-04-04T10:30:04.171Z</time></trkpt><trkpt lat="43.2265133" lon="11.3766177"><ele>181.0</ele><time>2026-04-04T10:30:05.174Z</time></trkpt><trkpt lat="43.2264442" lon="11.3765108"><ele>181.0</ele><time>2026-04-04T10:30:06.174Z</time></trkpt><trkpt lat="43.2263777" lon="11.3764076"><ele>181.0</ele><time>2026-04-04T10:30:07.173Z</time></trkpt><trkpt lat="43.2263126" lon="11.3763002"><ele>180.60000000000002</ele><time>2026-04-04T10:30:08.174Z</time></trkpt><trkpt lat="43.2262514" lon="11.3761791"><ele>180.2</ele><time>2026-04-04T10:30:09.172Z</time></trkpt><trkpt lat="43.2261994" lon="11.3760538"><ele>179.8</ele><time>2026-04-04T10:30:10.173Z</time></trkpt><trkpt lat="43.2261556" lon="11.3759097"><ele>179.39999999999998</ele><time>2026-04-04T10:30:11.171Z</time></trkpt><trkpt lat="43.226113" lon="11.3757631"><ele>179.0</ele><time>2026-04-04T10:30:12.173Z</time></trkpt><trkpt lat="43.2260804" lon="11.3756161"><ele>178.79999999999998</ele><time>2026-04-04T10:30:13.174Z</time></trkpt><trkpt lat="43.2260587" lon="11.3754708"><ele>178.6</ele><time>2026-04-04T10:30:14.174Z</time></trkpt><trkpt lat="43.2260544" lon="11.3753146"><ele>178.4</ele><time>2026-04-04T10:30:15.173Z</time></trkpt><trkpt lat="43.2260571" lon="11.3751693"><ele>178.2</ele><time>2026-04-04T10:30:16.173Z</time></trkpt><trkpt lat="43.2260682" lon="11.3750277"><ele>178.0</ele><time>2026-04-04T10:30:17.173Z</time></trkpt><trkpt lat="43.2260786" lon="11.3748724"><ele>178.0</ele><time>2026-04-04T10:30:18.172Z</time></trkpt><trkpt lat="43.2260895" lon="11.374715"><ele>178.0</ele><time>2026-04-04T10:30:19.174Z</time></trkpt><trkpt lat="43.2261033" lon="11.3745595"><ele>178.0</ele><time>2026-04-04T10:30:20.172Z</time></trkpt><trkpt lat="43.2261233" lon="11.374418"><ele>178.0</ele><time>2026-04-04T10:30:21.171Z</time></trkpt><trkpt lat="43.2261312" lon="11.3742658"><ele>178.0</ele><time>2026-04-04T10:30:22.173Z</time></trkpt><trkpt lat="43.2261363" lon="11.3741203"><ele>178.0</ele><time>2026-04-04T10:30:23.174Z</time></trkpt><trkpt lat="43.2261394" lon="11.3739712"><ele>178.0</ele><time>2026-04-04T10:30:24.174Z</time></trkpt><trkpt lat="43.226132" lon="11.373819"><ele>178.0</ele><time>2026-04-04T10:30:25.173Z</time></trkpt><trkpt lat="43.2261229" lon="11.3736665"><ele>178.0</ele><time>2026-04-04T10:30:26.173Z</time></trkpt><trkpt lat="43.2260951" lon="11.3735137"><ele>178.0</ele><time>2026-04-04T10:30:27.172Z</time></trkpt><trkpt lat="43.226058" lon="11.3733682"><ele>178.0</ele><time>2026-04-04T10:30:28.171Z</time></trkpt><trkpt lat="43.2260092" lon="11.3732257"><ele>178.0</ele><time>2026-04-04T10:30:29.172Z</time></trkpt><trkpt lat="43.2259664" lon="11.373071"><ele>178.0</ele><time>2026-04-04T10:30:30.172Z</time></trkpt><trkpt lat="43.2259289" lon="11.3729252"><ele>178.0</ele><time>2026-04-04T10:30:31.174Z</time></trkpt><trkpt lat="43.2258908" lon="11.3727767"><ele>178.8</ele><time>2026-04-04T10:30:32.174Z</time></trkpt><trkpt lat="43.2258458" lon="11.372639"><ele>179.60000000000002</ele><time>2026-04-04T10:30:33.173Z</time></trkpt><trkpt lat="43.2258035" lon="11.3725131"><ele>180.39999999999998</ele><time>2026-04-04T10:30:34.173Z</time></trkpt><trkpt lat="43.2257607" lon="11.3724003"><ele>181.2</ele><time>2026-04-04T10:30:35.173Z</time></trkpt><trkpt lat="43.2257044" lon="11.372297"><ele>182.0</ele><time>2026-04-04T10:30:36.173Z</time></trkpt><trkpt lat="43.2256477" lon="11.3722203"><ele>181.83333333333331</ele><time>2026-04-04T10:30:37.173Z</time></trkpt><trkpt lat="43.2255808" lon="11.3721572"><ele>181.66666666666666</ele><time>2026-04-04T10:30:38.173Z</time></trkpt><trkpt lat="43.2255078" lon="11.3721435"><ele>181.5</ele><time>2026-04-04T10:30:39.172Z</time></trkpt><trkpt lat="43.2254224" lon="11.3721369"><ele>181.33333333333334</ele><time>2026-04-04T10:30:40.174Z</time></trkpt><trkpt lat="43.2253668" lon="11.372187"><ele>181.16666666666669</ele><time>2026-04-04T10:30:41.173Z</time></trkpt><trkpt lat="43.225317" lon="11.3722714"><ele>181.0</ele><time>2026-04-04T10:30:42.173Z</time></trkpt><trkpt lat="43.2252708" lon="11.372384"><ele>180.8</ele><time>2026-04-04T10:30:43.172Z</time></trkpt><trkpt lat="43.2252262" lon="11.3725039"><ele>180.60000000000002</ele><time>2026-04-04T10:30:44.174Z</time></trkpt><trkpt lat="43.2251859" lon="11.3726194"><ele>180.4</ele><time>2026-04-04T10:30:45.172Z</time></trkpt><trkpt lat="43.2251379" lon="11.3727334"><ele>180.2</ele><time>2026-04-04T10:30:46.172Z</time></trkpt><trkpt lat="43.2250954" lon="11.3728484"><ele>180.0</ele><time>2026-04-04T10:30:47.174Z</time></trkpt><trkpt lat="43.2250397" lon="11.372978"><ele>180.0</ele><time>2026-04-04T10:30:48.171Z</time></trkpt><trkpt lat="43.2249852" lon="11.3731072"><ele>180.0</ele><time>2026-04-04T10:30:49.174Z</time></trkpt><trkpt lat="43.2249215" lon="11.3732125"><ele>180.0</ele><time>2026-04-04T10:30:50.172Z</time></trkpt><trkpt lat="43.2248506" lon="11.3732971"><ele>180.0</ele><time>2026-04-04T10:30:51.172Z</time></trkpt><trkpt lat="43.2247761" lon="11.3733734"><ele>180.0</ele><time>2026-04-04T10:30:52.173Z</time></trkpt><trkpt lat="43.2246902" lon="11.37343"><ele>181.33333333333334</ele><time>2026-04-04T10:30:53.174Z</time></trkpt><trkpt lat="43.2246055" lon="11.3734712"><ele>182.66666666666666</ele><time>2026-04-04T10:30:54.172Z</time></trkpt><trkpt lat="43.2245165" lon="11.3734877"><ele>184.0</ele><time>2026-04-04T10:30:55.172Z</time></trkpt><trkpt lat="43.224429" lon="11.3735067"><ele>185.33333333333331</ele><time>2026-04-04T10:30:56.171Z</time></trkpt><trkpt lat="43.2243438" lon="11.3735057"><ele>186.66666666666666</ele><time>2026-04-04T10:30:57.172Z</time></trkpt><trkpt lat="43.2242583" lon="11.3734979"><ele>188.0</ele><time>2026-04-04T10:30:58.172Z</time></trkpt><trkpt lat="43.2241738" lon="11.3734699"><ele>188.0</ele><time>2026-04-04T10:30:59.172Z</time></trkpt><trkpt lat="43.2240906" lon="11.3734435"><ele>188.0</ele><time>2026-04-04T10:31:00.173Z</time></trkpt><trkpt lat="43.2240166" lon="11.3734023"><ele>188.0</ele><time>2026-04-04T10:31:01.173Z</time></trkpt><trkpt lat="43.2239463" lon="11.3733476"><ele>188.0</ele><time>2026-04-04T10:31:02.173Z</time></trkpt><trkpt lat="43.22389" lon="11.3732859"><ele>188.0</ele><time>2026-04-04T10:31:03.173Z</time></trkpt><trkpt lat="43.2238442" lon="11.3731903"><ele>188.0</ele><time>2026-04-04T10:31:04.173Z</time></trkpt><trkpt lat="43.2237868" lon="11.3731294"><ele>191.0</ele><time>2026-04-04T10:31:05.171Z</time></trkpt><trkpt lat="43.223743" lon="11.3730561"><ele>194.0</ele><time>2026-04-04T10:31:06.173Z</time></trkpt><trkpt lat="43.2236935" lon="11.3729553"><ele>197.0</ele><time>2026-04-04T10:31:07.173Z</time></trkpt><trkpt lat="43.2236555" lon="11.3728624"><ele>200.0</ele><time>2026-04-04T10:31:08.172Z</time></trkpt><trkpt lat="43.2236048" lon="11.3727575"><ele>203.00000000000003</ele><time>2026-04-04T10:31:09.172Z</time></trkpt><trkpt lat="43.2235957" lon="11.3726483"><ele>206.0</ele><time>2026-04-04T10:31:10.173Z</time></trkpt><trkpt lat="43.2236016" lon="11.3725577"><ele>206.00000000000003</ele><time>2026-04-04T10:31:11.173Z</time></trkpt><trkpt lat="43.2236035" lon="11.3724683"><ele>206.0</ele><time>2026-04-04T10:31:12.174Z</time></trkpt><trkpt lat="43.2236247" lon="11.3722941"><ele>206.0</ele><time>2026-04-04T10:31:14.173Z</time></trkpt><trkpt lat="43.2236292" lon="11.3722022"><ele>206.0</ele><time>2026-04-04T10:31:15.172Z</time></trkpt><trkpt lat="43.2236533" lon="11.3720997"><ele>206.00000000000003</ele><time>2026-04-04T10:31:16.173Z</time></trkpt><trkpt lat="43.2236674" lon="11.3719811"><ele>206.0</ele><time>2026-04-04T10:31:17.172Z</time></trkpt><trkpt lat="43.2236642" lon="11.3718715"><ele>206.00000000000003</ele><time>2026-04-04T10:31:18.172Z</time></trkpt><trkpt lat="43.2236569" lon="11.3717695"><ele>206.0</ele><time>2026-04-04T10:31:19.172Z</time></trkpt><trkpt lat="43.2236308" lon="11.3716614"><ele>206.0</ele><time>2026-04-04T10:31:20.173Z</time></trkpt><trkpt lat="43.2235943" lon="11.3715666"><ele>206.0</ele><time>2026-04-04T10:31:21.173Z</time></trkpt><trkpt lat="43.2235562" lon="11.371472"><ele>206.00000000000003</ele><time>2026-04-04T10:31:22.173Z</time></trkpt><trkpt lat="43.2235116" lon="11.3713846"><ele>206.0</ele><time>2026-04-04T10:31:23.173Z</time></trkpt><trkpt lat="43.2234659" lon="11.3713047"><ele>205.33333333333334</ele><time>2026-04-04T10:31:24.171Z</time></trkpt><trkpt lat="43.2234053" lon="11.3712497"><ele>204.66666666666669</ele><time>2026-04-04T10:31:25.173Z</time></trkpt><trkpt lat="43.2233439" lon="11.3711861"><ele>204.0</ele><time>2026-04-04T10:31:26.173Z</time></trkpt><trkpt lat="43.2232744" lon="11.3711093"><ele>203.33333333333331</ele><time>2026-04-04T10:31:27.172Z</time></trkpt><trkpt lat="43.2231561" lon="11.3710817"><ele>202.66666666666666</ele><time>2026-04-04T10:31:29.174Z</time></trkpt><trkpt lat="43.2230873" lon="11.3711235"><ele>202.0</ele><time>2026-04-04T10:31:30.174Z</time></trkpt><trkpt lat="43.2230029" lon="11.3711761"><ele>201.83333333333331</ele><time>2026-04-04T10:31:31.174Z</time></trkpt><trkpt lat="43.2229453" lon="11.3712538"><ele>201.66666666666666</ele><time>2026-04-04T10:31:32.174Z</time></trkpt><trkpt lat="43.2228775" lon="11.3713296"><ele>201.5</ele><time>2026-04-04T10:31:33.172Z</time></trkpt><trkpt lat="43.2228261" lon="11.3714119"><ele>201.33333333333331</ele><time>2026-04-04T10:31:34.174Z</time></trkpt><trkpt lat="43.2227711" lon="11.3715034"><ele>201.16666666666666</ele><time>2026-04-04T10:31:35.172Z</time></trkpt><trkpt lat="43.2227191" lon="11.3716084"><ele>201.0</ele><time>2026-04-04T10:31:36.172Z</time></trkpt><trkpt lat="43.2226663" lon="11.3717022"><ele>202.16666666666666</ele><time>2026-04-04T10:31:37.173Z</time></trkpt><trkpt lat="43.2226125" lon="11.3718032"><ele>203.33333333333331</ele><time>2026-04-04T10:31:38.172Z</time></trkpt><trkpt lat="43.2225565" lon="11.3719009"><ele>204.5</ele><time>2026-04-04T10:31:39.172Z</time></trkpt><trkpt lat="43.2225001" lon="11.3719912"><ele>205.66666666666666</ele><time>2026-04-04T10:31:40.173Z</time></trkpt><trkpt lat="43.2224484" lon="11.3720616"><ele>206.83333333333331</ele><time>2026-04-04T10:31:41.173Z</time></trkpt><trkpt lat="43.2223908" lon="11.3721475"><ele>208.0</ele><time>2026-04-04T10:31:42.172Z</time></trkpt><trkpt lat="43.2223314" lon="11.3722267"><ele>210.16666666666666</ele><time>2026-04-04T10:31:43.173Z</time></trkpt><trkpt lat="43.2222683" lon="11.372297"><ele>212.33333333333331</ele><time>2026-04-04T10:31:44.173Z</time></trkpt><trkpt lat="43.2222058" lon="11.3723654"><ele>214.5</ele><time>2026-04-04T10:31:45.172Z</time></trkpt><trkpt lat="43.2221425" lon="11.3724276"><ele>216.66666666666669</ele><time>2026-04-04T10:31:46.173Z</time></trkpt><trkpt lat="43.2220768" lon="11.3724742"><ele>218.83333333333334</ele><time>2026-04-04T10:31:47.173Z</time></trkpt><trkpt lat="43.2220117" lon="11.3725251"><ele>221.0</ele><time>2026-04-04T10:31:48.172Z</time></trkpt><trkpt lat="43.2219367" lon="11.372549"><ele>221.00000000000003</ele><time>2026-04-04T10:31:49.171Z</time></trkpt><trkpt lat="43.2218614" lon="11.3725876"><ele>221.0</ele><time>2026-04-04T10:31:50.172Z</time></trkpt><trkpt lat="43.2217935" lon="11.3726033"><ele>221.0</ele><time>2026-04-04T10:31:51.172Z</time></trkpt><trkpt lat="43.2217281" lon="11.3726271"><ele>221.0</ele><time>2026-04-04T10:31:52.172Z</time></trkpt><trkpt lat="43.2216549" lon="11.3726486"><ele>221.00000000000003</ele><time>2026-04-04T10:31:53.173Z</time></trkpt><trkpt lat="43.2215758" lon="11.3726651"><ele>221.0</ele><time>2026-04-04T10:31:54.172Z</time></trkpt><trkpt lat="43.2214923" lon="11.3726817"><ele>222.00000000000003</ele><time>2026-04-04T10:31:55.172Z</time></trkpt><trkpt lat="43.2214073" lon="11.3727027"><ele>223.0</ele><time>2026-04-04T10:31:56.172Z</time></trkpt><trkpt lat="43.2213256" lon="11.3727376"><ele>224.0</ele><time>2026-04-04T10:31:57.171Z</time></trkpt><trkpt lat="43.2212385" lon="11.372759"><ele>225.0</ele><time>2026-04-04T10:31:58.173Z</time></trkpt><trkpt lat="43.221148" lon="11.372782"><ele>226.00000000000003</ele><time>2026-04-04T10:31:59.174Z</time></trkpt><trkpt lat="43.2210544" lon="11.3728059"><ele>227.0</ele><time>2026-04-04T10:32:00.172Z</time></trkpt><trkpt lat="43.2209631" lon="11.3728165"><ele>227.0</ele><time>2026-04-04T10:32:01.171Z</time></trkpt><trkpt lat="43.2208701" lon="11.3728282"><ele>227.0</ele><time>2026-04-04T10:32:02.172Z</time></trkpt><trkpt lat="43.2207732" lon="11.3728436"><ele>227.0</ele><time>2026-04-04T10:32:03.172Z</time></trkpt><trkpt lat="43.2206701" lon="11.372875"><ele>227.0</ele><time>2026-04-04T10:32:04.173Z</time></trkpt><trkpt lat="43.2205764" lon="11.3728926"><ele>227.0</ele><time>2026-04-04T10:32:05.173Z</time></trkpt><trkpt lat="43.220486" lon="11.3728939"><ele>227.8</ele><time>2026-04-04T10:32:06.173Z</time></trkpt><trkpt lat="43.2203852" lon="11.3729181"><ele>228.6</ele><time>2026-04-04T10:32:07.172Z</time></trkpt><trkpt lat="43.2202729" lon="11.3729521"><ele>229.40000000000003</ele><time>2026-04-04T10:32:08.173Z</time></trkpt><trkpt lat="43.2201597" lon="11.3729742"><ele>230.20000000000002</ele><time>2026-04-04T10:32:09.173Z</time></trkpt><trkpt lat="43.2200522" lon="11.3729993"><ele>231.0</ele><time>2026-04-04T10:32:10.174Z</time></trkpt><trkpt lat="43.2199566" lon="11.3730238"><ele>231.0</ele><time>2026-04-04T10:32:11.173Z</time></trkpt><trkpt lat="43.2198667" lon="11.3730442"><ele>231.00000000000003</ele><time>2026-04-04T10:32:12.172Z</time></trkpt><trkpt lat="43.2197667" lon="11.3730448"><ele>231.00000000000003</ele><time>2026-04-04T10:32:13.172Z</time></trkpt><trkpt lat="43.2196527" lon="11.3730557"><ele>231.0</ele><time>2026-04-04T10:32:14.173Z</time></trkpt><trkpt lat="43.2195496" lon="11.3730479"><ele>231.0</ele><time>2026-04-04T10:32:15.173Z</time></trkpt><trkpt lat="43.2194519" lon="11.3730494"><ele>233.60000000000002</ele><time>2026-04-04T10:32:16.172Z</time></trkpt><trkpt lat="43.2193631" lon="11.3730547"><ele>236.20000000000002</ele><time>2026-04-04T10:32:17.172Z</time></trkpt><trkpt lat="43.2192771" lon="11.3730269"><ele>238.79999999999998</ele><time>2026-04-04T10:32:18.173Z</time></trkpt><trkpt lat="43.2191574" lon="11.3730158"><ele>241.39999999999998</ele><time>2026-04-04T10:32:19.171Z</time></trkpt><trkpt lat="43.2190671" lon="11.3730031"><ele>244.0</ele><time>2026-04-04T10:32:20.172Z</time></trkpt><trkpt lat="43.2189359" lon="11.3729624"><ele>245.33333333333331</ele><time>2026-04-04T10:32:23.172Z</time></trkpt><trkpt lat="43.2188698" lon="11.3729364"><ele>246.66666666666666</ele><time>2026-04-04T10:32:24.173Z</time></trkpt><trkpt lat="43.2187877" lon="11.3728925"><ele>248.0</ele><time>2026-04-04T10:32:25.172Z</time></trkpt><trkpt lat="43.2186955" lon="11.3728477"><ele>249.33333333333331</ele><time>2026-04-04T10:32:26.172Z</time></trkpt><trkpt lat="43.2186027" lon="11.3728054"><ele>250.66666666666666</ele><time>2026-04-04T10:32:27.172Z</time></trkpt><trkpt lat="43.2185134" lon="11.372762"><ele>252.0</ele><time>2026-04-04T10:32:28.171Z</time></trkpt><trkpt lat="43.2184219" lon="11.3727122"><ele>252.0</ele><time>2026-04-04T10:32:29.172Z</time></trkpt><trkpt lat="43.2183379" lon="11.3726547"><ele>252.0</ele><time>2026-04-04T10:32:30.172Z</time></trkpt><trkpt lat="43.2182479" lon="11.3726151"><ele>252.0</ele><time>2026-04-04T10:32:31.173Z</time></trkpt><trkpt lat="43.2181477" lon="11.3725714"><ele>252.0</ele><time>2026-04-04T10:32:32.173Z</time></trkpt><trkpt lat="43.2180467" lon="11.3725215"><ele>252.0</ele><time>2026-04-04T10:32:33.173Z</time></trkpt><trkpt lat="43.2179379" lon="11.3724736"><ele>249.5</ele><time>2026-04-04T10:32:34.171Z</time></trkpt><trkpt lat="43.2178297" lon="11.3724204"><ele>247.0</ele><time>2026-04-04T10:32:35.172Z</time></trkpt><trkpt lat="43.217722" lon="11.3723682"><ele>244.5</ele><time>2026-04-04T10:32:36.171Z</time></trkpt><trkpt lat="43.2176117" lon="11.3723192"><ele>242.0</ele><time>2026-04-04T10:32:37.173Z</time></trkpt><trkpt lat="43.2174975" lon="11.3722832"><ele>242.0</ele><time>2026-04-04T10:32:38.173Z</time></trkpt><trkpt lat="43.2174003" lon="11.3722299"><ele>242.0</ele><time>2026-04-04T10:32:39.171Z</time></trkpt><trkpt lat="43.2172965" lon="11.372176"><ele>242.0</ele><time>2026-04-04T10:32:40.173Z</time></trkpt><trkpt lat="43.2171857" lon="11.3721249"><ele>242.0</ele><time>2026-04-04T10:32:41.173Z</time></trkpt><trkpt lat="43.2170716" lon="11.3720654"><ele>241.0</ele><time>2026-04-04T10:32:42.173Z</time></trkpt><trkpt lat="43.2169599" lon="11.3720024"><ele>240.0</ele><time>2026-04-04T10:32:43.173Z</time></trkpt><trkpt lat="43.2168542" lon="11.3719359"><ele>239.0</ele><time>2026-04-04T10:32:44.172Z</time></trkpt><trkpt lat="43.2167363" lon="11.371873"><ele>238.0</ele><time>2026-04-04T10:32:45.171Z</time></trkpt><trkpt lat="43.2166186" lon="11.3718122"><ele>238.0</ele><time>2026-04-04T10:32:46.173Z</time></trkpt><trkpt lat="43.2165028" lon="11.371752"><ele>238.0</ele><time>2026-04-04T10:32:47.172Z</time></trkpt><trkpt lat="43.2163961" lon="11.3716947"><ele>238.0</ele><time>2026-04-04T10:32:48.172Z</time></trkpt><trkpt lat="43.2162965" lon="11.3716424"><ele>238.0</ele><time>2026-04-04T10:32:49.173Z</time></trkpt><trkpt lat="43.2162071" lon="11.3715989"><ele>238.0</ele><time>2026-04-04T10:32:50.171Z</time></trkpt><trkpt lat="43.2161173" lon="11.3715535"><ele>238.4</ele><time>2026-04-04T10:32:51.173Z</time></trkpt><trkpt lat="43.2160247" lon="11.3715036"><ele>238.8</ele><time>2026-04-04T10:32:52.172Z</time></trkpt><trkpt lat="43.215934" lon="11.3714526"><ele>239.2</ele><time>2026-04-04T10:32:53.173Z</time></trkpt><trkpt lat="43.2158656" lon="11.3713864"><ele>239.6</ele><time>2026-04-04T10:32:54.173Z</time></trkpt><trkpt lat="43.2157937" lon="11.3713408"><ele>240.0</ele><time>2026-04-04T10:32:55.172Z</time></trkpt><trkpt lat="43.2157137" lon="11.3712659"><ele>240.0</ele><time>2026-04-04T10:32:56.172Z</time></trkpt><trkpt lat="43.2156166" lon="11.3711918"><ele>240.0</ele><time>2026-04-04T10:32:57.172Z</time></trkpt><trkpt lat="43.215545" lon="11.3711182"><ele>240.0</ele><time>2026-04-04T10:32:58.172Z</time></trkpt><trkpt lat="43.2154688" lon="11.3710351"><ele>240.0</ele><time>2026-04-04T10:32:59.173Z</time></trkpt><trkpt lat="43.2153944" lon="11.3709527"><ele>240.0</ele><time>2026-04-04T10:33:00.172Z</time></trkpt><trkpt lat="43.2152907" lon="11.3708892"><ele>240.0</ele><time>2026-04-04T10:33:01.173Z</time></trkpt><trkpt lat="43.2151937" lon="11.3708222"><ele>240.0</ele><time>2026-04-04T10:33:02.173Z</time></trkpt><trkpt lat="43.2150897" lon="11.3707598"><ele>240.0</ele><time>2026-04-04T10:33:03.173Z</time></trkpt><trkpt lat="43.2149764" lon="11.3707102"><ele>240.0</ele><time>2026-04-04T10:33:04.171Z</time></trkpt><trkpt lat="43.2148777" lon="11.3706874"><ele>240.0</ele><time>2026-04-04T10:33:05.173Z</time></trkpt><trkpt lat="43.2147715" lon="11.3706717"><ele>237.0</ele><time>2026-04-04T10:33:06.172Z</time></trkpt><trkpt lat="43.2146815" lon="11.3707128"><ele>234.0</ele><time>2026-04-04T10:33:07.171Z</time></trkpt><trkpt lat="43.2145656" lon="11.3707561"><ele>231.0</ele><time>2026-04-04T10:33:08.172Z</time></trkpt><trkpt lat="43.2144443" lon="11.3708306"><ele>228.0</ele><time>2026-04-04T10:33:09.172Z</time></trkpt><trkpt lat="43.2143169" lon="11.3709124"><ele>228.0</ele><time>2026-04-04T10:33:10.172Z</time></trkpt><trkpt lat="43.214182" lon="11.3709916"><ele>228.0</ele><time>2026-04-04T10:33:11.172Z</time></trkpt><trkpt lat="43.2140611" lon="11.371069"><ele>228.0</ele><time>2026-04-04T10:33:12.172Z</time></trkpt><trkpt lat="43.2139497" lon="11.3711481"><ele>228.0</ele><time>2026-04-04T10:33:13.172Z</time></trkpt><trkpt lat="43.2138268" lon="11.3712092"><ele>226.8</ele><time>2026-04-04T10:33:14.173Z</time></trkpt><trkpt lat="43.213717" lon="11.3712711"><ele>225.60000000000002</ele><time>2026-04-04T10:33:15.172Z</time></trkpt><trkpt lat="43.2136222" lon="11.3713019"><ele>224.39999999999998</ele><time>2026-04-04T10:33:16.172Z</time></trkpt><trkpt lat="43.2135147" lon="11.371324"><ele>223.2</ele><time>2026-04-04T10:33:17.171Z</time></trkpt><trkpt lat="43.2134179" lon="11.3713059"><ele>222.0</ele><time>2026-04-04T10:33:18.172Z</time></trkpt><trkpt lat="43.2133381" lon="11.3712641"><ele>222.0</ele><time>2026-04-04T10:33:19.171Z</time></trkpt><trkpt lat="43.2132601" lon="11.3711937"><ele>222.0</ele><time>2026-04-04T10:33:20.172Z</time></trkpt><trkpt lat="43.2131973" lon="11.3710921"><ele>222.0</ele><time>2026-04-04T10:33:21.172Z</time></trkpt><trkpt lat="43.2131593" lon="11.3710047"><ele>222.0</ele><time>2026-04-04T10:33:22.172Z</time></trkpt><trkpt lat="43.2131012" lon="11.3708931"><ele>222.0</ele><time>2026-04-04T10:33:23.172Z</time></trkpt><trkpt lat="43.2130467" lon="11.3708042"><ele>222.0</ele><time>2026-04-04T10:33:24.172Z</time></trkpt><trkpt lat="43.2129949" lon="11.3707116"><ele>222.0</ele><time>2026-04-04T10:33:25.172Z</time></trkpt><trkpt lat="43.2129425" lon="11.3706127"><ele>222.0</ele><time>2026-04-04T10:33:26.172Z</time></trkpt><trkpt lat="43.212895" lon="11.3705239"><ele>222.0</ele><time>2026-04-04T10:33:27.173Z</time></trkpt><trkpt lat="43.2128444" lon="11.370423"><ele>222.0</ele><time>2026-04-04T10:33:28.173Z</time></trkpt><trkpt lat="43.2128025" lon="11.3703248"><ele>222.0</ele><time>2026-04-04T10:33:29.171Z</time></trkpt><trkpt lat="43.2127577" lon="11.3702281"><ele>222.0</ele><time>2026-04-04T10:33:30.172Z</time></trkpt><trkpt lat="43.2127155" lon="11.3701334"><ele>222.5</ele><time>2026-04-04T10:33:31.172Z</time></trkpt><trkpt lat="43.2126653" lon="11.3700348"><ele>223.0</ele><time>2026-04-04T10:33:32.171Z</time></trkpt><trkpt lat="43.2126095" lon="11.3699441"><ele>223.5</ele><time>2026-04-04T10:33:33.171Z</time></trkpt><trkpt lat="43.2125501" lon="11.3698509"><ele>224.0</ele><time>2026-04-04T10:33:34.173Z</time></trkpt><trkpt lat="43.212492" lon="11.369765"><ele>224.5</ele><time>2026-04-04T10:33:35.173Z</time></trkpt><trkpt lat="43.2124316" lon="11.3696765"><ele>225.0</ele><time>2026-04-04T10:33:36.173Z</time></trkpt><trkpt lat="43.2123728" lon="11.369574"><ele>226.8</ele><time>2026-04-04T10:33:37.173Z</time></trkpt><trkpt lat="43.2123145" lon="11.3694843"><ele>228.6</ele><time>2026-04-04T10:33:38.171Z</time></trkpt><trkpt lat="43.2122565" lon="11.3693855"><ele>230.39999999999998</ele><time>2026-04-04T10:33:39.172Z</time></trkpt><trkpt lat="43.2121873" lon="11.3692935"><ele>232.2</ele><time>2026-04-04T10:33:40.171Z</time></trkpt><trkpt lat="43.2121204" lon="11.3692045"><ele>234.0</ele><time>2026-04-04T10:33:41.172Z</time></trkpt><trkpt lat="43.2120468" lon="11.3691218"><ele>234.0</ele><time>2026-04-04T10:33:42.172Z</time></trkpt><trkpt lat="43.2119669" lon="11.3690478"><ele>233.99999999999997</ele><time>2026-04-04T10:33:43.171Z</time></trkpt><trkpt lat="43.2118855" lon="11.3689818"><ele>233.99999999999997</ele><time>2026-04-04T10:33:44.173Z</time></trkpt><trkpt lat="43.2117965" lon="11.3689098"><ele>234.0</ele><time>2026-04-04T10:33:45.173Z</time></trkpt><trkpt lat="43.2117096" lon="11.3688511"><ele>234.0</ele><time>2026-04-04T10:33:46.173Z</time></trkpt><trkpt lat="43.2116187" lon="11.3687975"><ele>233.79999999999998</ele><time>2026-04-04T10:33:47.173Z</time></trkpt><trkpt lat="43.2115344" lon="11.368751"><ele>233.59999999999997</ele><time>2026-04-04T10:33:48.172Z</time></trkpt><trkpt lat="43.211433" lon="11.368725"><ele>233.4</ele><time>2026-04-04T10:33:49.172Z</time></trkpt><trkpt lat="43.211347" lon="11.3686884"><ele>233.2</ele><time>2026-04-04T10:33:50.173Z</time></trkpt><trkpt lat="43.2112564" lon="11.3686553"><ele>233.0</ele><time>2026-04-04T10:33:51.171Z</time></trkpt><trkpt lat="43.2111633" lon="11.3686297"><ele>233.0</ele><time>2026-04-04T10:33:52.172Z</time></trkpt><trkpt lat="43.2110734" lon="11.3685967"><ele>233.0</ele><time>2026-04-04T10:33:53.172Z</time></trkpt><trkpt lat="43.2109712" lon="11.3685651"><ele>233.0</ele><time>2026-04-04T10:33:54.171Z</time></trkpt><trkpt lat="43.2108774" lon="11.3685339"><ele>233.0</ele><time>2026-04-04T10:33:55.172Z</time></trkpt><trkpt lat="43.2107802" lon="11.3685081"><ele>233.0</ele><time>2026-04-04T10:33:56.172Z</time></trkpt><trkpt lat="43.2106811" lon="11.3684781"><ele>232.60000000000002</ele><time>2026-04-04T10:33:57.171Z</time></trkpt><trkpt lat="43.2105828" lon="11.3684455"><ele>232.20000000000002</ele><time>2026-04-04T10:33:58.171Z</time></trkpt><trkpt lat="43.2104845" lon="11.3684136"><ele>231.8</ele><time>2026-04-04T10:33:59.173Z</time></trkpt><trkpt lat="43.2103903" lon="11.3683829"><ele>231.4</ele><time>2026-04-04T10:34:00.172Z</time></trkpt><trkpt lat="43.2102875" lon="11.3683538"><ele>231.0</ele><time>2026-04-04T10:34:01.17Z</time></trkpt><trkpt lat="43.2101884" lon="11.3683187"><ele>231.0</ele><time>2026-04-04T10:34:02.171Z</time></trkpt><trkpt lat="43.2100986" lon="11.3682853"><ele>231.0</ele><time>2026-04-04T10:34:03.17Z</time></trkpt><trkpt lat="43.2100218" lon="11.3682636"><ele>231.0</ele><time>2026-04-04T10:34:04.173Z</time></trkpt><trkpt lat="43.2099606" lon="11.3682405"><ele>231.0</ele><time>2026-04-04T10:34:05.171Z</time></trkpt><trkpt lat="43.2098827" lon="11.3682236"><ele>231.0</ele><time>2026-04-04T10:34:06.17Z</time></trkpt><trkpt lat="43.2098015" lon="11.3682032"><ele>231.0</ele><time>2026-04-04T10:34:07.172Z</time></trkpt><trkpt lat="43.209725" lon="11.3682064"><ele>233.33333333333334</ele><time>2026-04-04T10:34:08.173Z</time></trkpt><trkpt lat="43.2096557" lon="11.3682439"><ele>235.66666666666669</ele><time>2026-04-04T10:34:09.172Z</time></trkpt><trkpt lat="43.2095924" lon="11.3682954"><ele>238.0</ele><time>2026-04-04T10:34:10.171Z</time></trkpt><trkpt lat="43.2095399" lon="11.3683658"><ele>240.33333333333334</ele><time>2026-04-04T10:34:11.172Z</time></trkpt><trkpt lat="43.2094876" lon="11.3684557"><ele>242.66666666666669</ele><time>2026-04-04T10:34:12.171Z</time></trkpt><trkpt lat="43.209428" lon="11.3685456"><ele>245.0</ele><time>2026-04-04T10:34:13.173Z</time></trkpt><trkpt lat="43.2093586" lon="11.3686369"><ele>245.0</ele><time>2026-04-04T10:34:14.171Z</time></trkpt><trkpt lat="43.2092972" lon="11.3687206"><ele>245.0</ele><time>2026-04-04T10:34:15.171Z</time></trkpt><trkpt lat="43.2092388" lon="11.3688277"><ele>245.0</ele><time>2026-04-04T10:34:16.172Z</time></trkpt><trkpt lat="43.2091751" lon="11.3689296"><ele>245.0</ele><time>2026-04-04T10:34:17.173Z</time></trkpt><trkpt lat="43.2091103" lon="11.3690274"><ele>245.0</ele><time>2026-04-04T10:34:18.172Z</time></trkpt><trkpt lat="43.2090425" lon="11.3691258"><ele>248.8</ele><time>2026-04-04T10:34:19.172Z</time></trkpt><trkpt lat="43.2089728" lon="11.3692248"><ele>252.6</ele><time>2026-04-04T10:34:20.172Z</time></trkpt><trkpt lat="43.2089033" lon="11.3693144"><ele>256.4</ele><time>2026-04-04T10:34:21.171Z</time></trkpt><trkpt lat="43.2088383" lon="11.3693979"><ele>260.2</ele><time>2026-04-04T10:34:22.173Z</time></trkpt><trkpt lat="43.2087694" lon="11.3695026"><ele>264.0</ele><time>2026-04-04T10:34:23.172Z</time></trkpt><trkpt lat="43.208698" lon="11.3695984"><ele>262.1666666666667</ele><time>2026-04-04T10:34:24.171Z</time></trkpt><trkpt lat="43.2086289" lon="11.3696957"><ele>260.3333333333333</ele><time>2026-04-04T10:34:25.171Z</time></trkpt><trkpt lat="43.2085614" lon="11.3697856"><ele>258.5</ele><time>2026-04-04T10:34:26.172Z</time></trkpt><trkpt lat="43.208492" lon="11.3698825"><ele>256.66666666666663</ele><time>2026-04-04T10:34:27.172Z</time></trkpt><trkpt lat="43.2084322" lon="11.3699558"><ele>254.83333333333331</ele><time>2026-04-04T10:34:28.174Z</time></trkpt><trkpt lat="43.2083862" lon="11.3700237"><ele>253.0</ele><time>2026-04-04T10:34:29.172Z</time></trkpt><trkpt lat="43.2083328" lon="11.3701002"><ele>252.99999999999997</ele><time>2026-04-04T10:34:30.171Z</time></trkpt><trkpt lat="43.2082797" lon="11.3701846"><ele>253.0</ele><time>2026-04-04T10:34:31.171Z</time></trkpt><trkpt lat="43.2082221" lon="11.370268"><ele>253.0</ele><time>2026-04-04T10:34:32.172Z</time></trkpt><trkpt lat="43.2081544" lon="11.3703715"><ele>253.0</ele><time>2026-04-04T10:34:33.171Z</time></trkpt><trkpt lat="43.2080996" lon="11.3704545"><ele>252.99999999999997</ele><time>2026-04-04T10:34:34.174Z</time></trkpt><trkpt lat="43.2080274" lon="11.3705318"><ele>253.0</ele><time>2026-04-04T10:34:35.172Z</time></trkpt><trkpt lat="43.2079643" lon="11.3706196"><ele>255.83333333333331</ele><time>2026-04-04T10:34:36.171Z</time></trkpt><trkpt lat="43.2079001" lon="11.3707059"><ele>258.66666666666663</ele><time>2026-04-04T10:34:37.17Z</time></trkpt><trkpt lat="43.2078309" lon="11.3707836"><ele>261.5</ele><time>2026-04-04T10:34:38.173Z</time></trkpt><trkpt lat="43.2077723" lon="11.3708581"><ele>264.3333333333333</ele><time>2026-04-04T10:34:39.171Z</time></trkpt><trkpt lat="43.2077079" lon="11.370945"><ele>267.1666666666667</ele><time>2026-04-04T10:34:40.171Z</time></trkpt><trkpt lat="43.2076578" lon="11.3710148"><ele>270.0</ele><time>2026-04-04T10:34:41.171Z</time></trkpt><trkpt lat="43.2076058" lon="11.3710857"><ele>270.0</ele><time>2026-04-04T10:34:42.172Z</time></trkpt><trkpt lat="43.2075294" lon="11.3712028"><ele>270.0</ele><time>2026-04-04T10:34:44.171Z</time></trkpt><trkpt lat="43.2074807" lon="11.3712969"><ele>270.0</ele><time>2026-04-04T10:34:45.172Z</time></trkpt><trkpt lat="43.2074137" lon="11.3713796"><ele>270.0</ele><time>2026-04-04T10:34:46.173Z</time></trkpt><trkpt lat="43.2073561" lon="11.3714609"><ele>270.0</ele><time>2026-04-04T10:34:47.17Z</time></trkpt><trkpt lat="43.2072956" lon="11.3715407"><ele>273.4</ele><time>2026-04-04T10:34:48.17Z</time></trkpt><trkpt lat="43.2072145" lon="11.3716441"><ele>276.8</ele><time>2026-04-04T10:34:49.172Z</time></trkpt><trkpt lat="43.2071294" lon="11.3717773"><ele>280.2</ele><time>2026-04-04T10:34:50.17Z</time></trkpt><trkpt lat="43.2070722" lon="11.3718864"><ele>283.6</ele><time>2026-04-04T10:34:51.171Z</time></trkpt><trkpt lat="43.2070182" lon="11.3719873"><ele>287.0</ele><time>2026-04-04T10:34:52.172Z</time></trkpt><trkpt lat="43.2069613" lon="11.3720798"><ele>287.0</ele><time>2026-04-04T10:34:53.171Z</time></trkpt><trkpt lat="43.2069099" lon="11.3721817"><ele>287.0</ele><time>2026-04-04T10:34:54.173Z</time></trkpt><trkpt lat="43.206831" lon="11.3723291"><ele>287.0</ele><time>2026-04-04T10:34:55.172Z</time></trkpt><trkpt lat="43.2067662" lon="11.3724387"><ele>287.0</ele><time>2026-04-04T10:34:56.171Z</time></trkpt><trkpt lat="43.2066775" lon="11.3725259"><ele>287.0</ele><time>2026-04-04T10:34:57.172Z</time></trkpt><trkpt lat="43.2065834" lon="11.3726442"><ele>287.4</ele><time>2026-04-04T10:34:58.172Z</time></trkpt><trkpt lat="43.2065055" lon="11.3727285"><ele>287.79999999999995</ele><time>2026-04-04T10:34:59.172Z</time></trkpt><trkpt lat="43.2064094" lon="11.3728054"><ele>288.2</ele><time>2026-04-04T10:35:00.171Z</time></trkpt><trkpt lat="43.2063135" lon="11.3728748"><ele>288.59999999999997</ele><time>2026-04-04T10:35:01.171Z</time></trkpt><trkpt lat="43.2061909" lon="11.372929"><ele>289.0</ele><time>2026-04-04T10:35:02.172Z</time></trkpt><trkpt lat="43.2060878" lon="11.3729925"><ele>284.8</ele><time>2026-04-04T10:35:03.17Z</time></trkpt><trkpt lat="43.2059874" lon="11.3730602"><ele>280.59999999999997</ele><time>2026-04-04T10:35:04.172Z</time></trkpt><trkpt lat="43.2058818" lon="11.3731332"><ele>276.4</ele><time>2026-04-04T10:35:05.17Z</time></trkpt><trkpt lat="43.2057936" lon="11.3731892"><ele>272.2</ele><time>2026-04-04T10:35:06.17Z</time></trkpt><trkpt lat="43.2057177" lon="11.3732647"><ele>268.0</ele><time>2026-04-04T10:35:07.171Z</time></trkpt><trkpt lat="43.2055937" lon="11.3733924"><ele>268.0</ele><time>2026-04-04T10:35:09.172Z</time></trkpt><trkpt lat="43.20553" lon="11.3734811"><ele>268.0</ele><time>2026-04-04T10:35:10.171Z</time></trkpt><trkpt lat="43.205448" lon="11.3735458"><ele>268.0</ele><time>2026-04-04T10:35:11.171Z</time></trkpt><trkpt lat="43.20534" lon="11.3736152"><ele>268.0</ele><time>2026-04-04T10:35:12.171Z</time></trkpt><trkpt lat="43.2052355" lon="11.3736874"><ele>268.0</ele><time>2026-04-04T10:35:13.173Z</time></trkpt><trkpt lat="43.2051358" lon="11.3737165"><ele>268.0</ele><time>2026-04-04T10:35:14.171Z</time></trkpt><trkpt lat="43.205032" lon="11.3737145"><ele>268.0</ele><time>2026-04-04T10:35:15.171Z</time></trkpt><trkpt lat="43.2049286" lon="11.3737029"><ele>268.0</ele><time>2026-04-04T10:35:16.172Z</time></trkpt><trkpt lat="43.20482" lon="11.3737125"><ele>268.0</ele><time>2026-04-04T10:35:17.171Z</time></trkpt><trkpt lat="43.204697" lon="11.3737217"><ele>268.0</ele><time>2026-04-04T10:35:18.171Z</time></trkpt><trkpt lat="43.2045939" lon="11.3737396"><ele>267.8</ele><time>2026-04-04T10:35:19.171Z</time></trkpt><trkpt lat="43.2044842" lon="11.3737732"><ele>267.6</ele><time>2026-04-04T10:35:20.172Z</time></trkpt><trkpt lat="43.2043935" lon="11.3738058"><ele>267.4</ele><time>2026-04-04T10:35:21.17Z</time></trkpt><trkpt lat="43.2042908" lon="11.3738434"><ele>267.2</ele><time>2026-04-04T10:35:22.17Z</time></trkpt><trkpt lat="43.2041838" lon="11.3738718"><ele>267.0</ele><time>2026-04-04T10:35:23.171Z</time></trkpt><trkpt lat="43.2040878" lon="11.3739034"><ele>265.2</ele><time>2026-04-04T10:35:24.173Z</time></trkpt><trkpt lat="43.2039968" lon="11.3739506"><ele>263.4</ele><time>2026-04-04T10:35:25.172Z</time></trkpt><trkpt lat="43.2039002" lon="11.3739945"><ele>261.6</ele><time>2026-04-04T10:35:26.17Z</time></trkpt><trkpt lat="43.2037917" lon="11.3740722"><ele>259.8</ele><time>2026-04-04T10:35:27.172Z</time></trkpt><trkpt lat="43.2036932" lon="11.3741376"><ele>258.0</ele><time>2026-04-04T10:35:28.172Z</time></trkpt><trkpt lat="43.2035885" lon="11.3742205"><ele>258.0</ele><time>2026-04-04T10:35:29.171Z</time></trkpt><trkpt lat="43.2034706" lon="11.3743252"><ele>258.0</ele><time>2026-04-04T10:35:30.172Z</time></trkpt><trkpt lat="43.2033627" lon="11.3744086"><ele>258.0</ele><time>2026-04-04T10:35:31.171Z</time></trkpt><trkpt lat="43.2032512" lon="11.3744701"><ele>258.0</ele><time>2026-04-04T10:35:32.17Z</time></trkpt><trkpt lat="43.2031462" lon="11.3745097"><ele>259.4</ele><time>2026-04-04T10:35:33.171Z</time></trkpt><trkpt lat="43.2030461" lon="11.3745384"><ele>260.8</ele><time>2026-04-04T10:35:34.171Z</time></trkpt><trkpt lat="43.2029513" lon="11.3745642"><ele>262.2</ele><time>2026-04-04T10:35:35.171Z</time></trkpt><trkpt lat="43.2028618" lon="11.3745868"><ele>263.6</ele><time>2026-04-04T10:35:36.171Z</time></trkpt><trkpt lat="43.202761" lon="11.374584"><ele>265.0</ele><time>2026-04-04T10:35:37.172Z</time></trkpt><trkpt lat="43.2026724" lon="11.3746"><ele>265.0</ele><time>2026-04-04T10:35:38.171Z</time></trkpt><trkpt lat="43.2025726" lon="11.3746163"><ele>265.0</ele><time>2026-04-04T10:35:39.171Z</time></trkpt><trkpt lat="43.2024655" lon="11.3746461"><ele>265.0</ele><time>2026-04-04T10:35:40.172Z</time></trkpt><trkpt lat="43.2023381" lon="11.37468"><ele>265.0</ele><time>2026-04-04T10:35:41.171Z</time></trkpt><trkpt lat="43.2022217" lon="11.3746997"><ele>265.2</ele><time>2026-04-04T10:35:42.171Z</time></trkpt><trkpt lat="43.2021259" lon="11.3746992"><ele>265.4</ele><time>2026-04-04T10:35:43.171Z</time></trkpt><trkpt lat="43.202031" lon="11.3747293"><ele>265.6</ele><time>2026-04-04T10:35:44.17Z</time></trkpt><trkpt lat="43.2019304" lon="11.3747588"><ele>265.8</ele><time>2026-04-04T10:35:45.171Z</time></trkpt><trkpt lat="43.2018421" lon="11.3747902"><ele>266.0</ele><time>2026-04-04T10:35:46.171Z</time></trkpt><trkpt lat="43.2017552" lon="11.3748285"><ele>266.0</ele><time>2026-04-04T10:35:47.17Z</time></trkpt><trkpt lat="43.2016324" lon="11.3749011"><ele>266.0</ele><time>2026-04-04T10:35:48.173Z</time></trkpt><trkpt lat="43.2015107" lon="11.37499"><ele>266.0</ele><time>2026-04-04T10:35:49.172Z</time></trkpt><trkpt lat="43.2014079" lon="11.3750692"><ele>266.0</ele><time>2026-04-04T10:35:50.171Z</time></trkpt><trkpt lat="43.2013198" lon="11.3751352"><ele>267.0</ele><time>2026-04-04T10:35:51.171Z</time></trkpt><trkpt lat="43.2012419" lon="11.3751858"><ele>268.0</ele><time>2026-04-04T10:35:52.17Z</time></trkpt><trkpt lat="43.2011604" lon="11.3752397"><ele>269.0</ele><time>2026-04-04T10:35:53.17Z</time></trkpt><trkpt lat="43.201066" lon="11.3753196"><ele>270.0</ele><time>2026-04-04T10:35:55.172Z</time></trkpt><trkpt lat="43.2009686" lon="11.3753604"><ele>271.0</ele><time>2026-04-04T10:35:57.17Z</time></trkpt><trkpt lat="43.2008602" lon="11.375326"><ele>271.0</ele><time>2026-04-04T10:35:59.172Z</time></trkpt><trkpt lat="43.2007486" lon="11.3752803"><ele>271.0</ele><time>2026-04-04T10:36:01.172Z</time></trkpt><trkpt lat="43.200679" lon="11.3752365"><ele>271.0</ele><time>2026-04-04T10:36:02.171Z</time></trkpt><trkpt lat="43.2006192" lon="11.3751977"><ele>271.0</ele><time>2026-04-04T10:36:03.171Z</time></trkpt><trkpt lat="43.2005465" lon="11.3751508"><ele>271.0</ele><time>2026-04-04T10:36:04.17Z</time></trkpt><trkpt lat="43.2004721" lon="11.3751075"><ele>271.0</ele><time>2026-04-04T10:36:05.171Z</time></trkpt><trkpt lat="43.2004056" lon="11.3750688"><ele>267.25</ele><time>2026-04-04T10:36:06.17Z</time></trkpt><trkpt lat="43.2002988" lon="11.3749833"><ele>263.5</ele><time>2026-04-04T10:36:08.172Z</time></trkpt><trkpt lat="43.2001824" lon="11.3749581"><ele>259.75</ele><time>2026-04-04T10:36:10.172Z</time></trkpt><trkpt lat="43.2000741" lon="11.3749833"><ele>256.0</ele><time>2026-04-04T10:36:12.17Z</time></trkpt><trkpt lat="43.1999843" lon="11.3751388"><ele>256.0</ele><time>2026-04-04T10:36:14.17Z</time></trkpt><trkpt lat="43.1999305" lon="11.375239"><ele>256.0</ele><time>2026-04-04T10:36:15.171Z</time></trkpt><trkpt lat="43.1998859" lon="11.375348"><ele>256.0</ele><time>2026-04-04T10:36:16.171Z</time></trkpt><trkpt lat="43.1998255" lon="11.3754608"><ele>256.0</ele><time>2026-04-04T10:36:17.172Z</time></trkpt><trkpt lat="43.1997591" lon="11.3755553"><ele>256.0</ele><time>2026-04-04T10:36:18.172Z</time></trkpt><trkpt lat="43.1996882" lon="11.3756469"><ele>253.60000000000002</ele><time>2026-04-04T10:36:19.171Z</time></trkpt><trkpt lat="43.1996164" lon="11.3757385"><ele>251.20000000000002</ele><time>2026-04-04T10:36:20.171Z</time></trkpt><trkpt lat="43.1995472" lon="11.3758249"><ele>248.79999999999998</ele><time>2026-04-04T10:36:21.17Z</time></trkpt><trkpt lat="43.1994806" lon="11.3759061"><ele>246.39999999999998</ele><time>2026-04-04T10:36:22.171Z</time></trkpt><trkpt lat="43.1993944" lon="11.3760105"><ele>244.0</ele><time>2026-04-04T10:36:23.171Z</time></trkpt><trkpt lat="43.1992762" lon="11.3760891"><ele>244.0</ele><time>2026-04-04T10:36:24.171Z</time></trkpt><trkpt lat="43.1991548" lon="11.3761468"><ele>244.0</ele><time>2026-04-04T10:36:25.171Z</time></trkpt><trkpt lat="43.1990024" lon="11.3761954"><ele>244.0</ele><time>2026-04-04T10:36:26.172Z</time></trkpt><trkpt lat="43.1988473" lon="11.376237"><ele>244.0</ele><time>2026-04-04T10:36:27.171Z</time></trkpt><trkpt lat="43.1987149" lon="11.3762594"><ele>243.2</ele><time>2026-04-04T10:36:28.171Z</time></trkpt><trkpt lat="43.1985941" lon="11.3762973"><ele>242.39999999999998</ele><time>2026-04-04T10:36:29.17Z</time></trkpt><trkpt lat="43.1984917" lon="11.376341"><ele>241.6</ele><time>2026-04-04T10:36:30.17Z</time></trkpt><trkpt lat="43.198399" lon="11.3763934"><ele>240.8</ele><time>2026-04-04T10:36:31.171Z</time></trkpt><trkpt lat="43.1983212" lon="11.3764538"><ele>240.0</ele><time>2026-04-04T10:36:32.171Z</time></trkpt><trkpt lat="43.198255" lon="11.3765239"><ele>240.0</ele><time>2026-04-04T10:36:33.171Z</time></trkpt><trkpt lat="43.1981911" lon="11.3765971"><ele>240.0</ele><time>2026-04-04T10:36:34.171Z</time></trkpt><trkpt lat="43.1981271" lon="11.3766707"><ele>240.0</ele><time>2026-04-04T10:36:35.171Z</time></trkpt><trkpt lat="43.198075" lon="11.3767273"><ele>240.0</ele><time>2026-04-04T10:36:36.171Z</time></trkpt><trkpt lat="43.1980052" lon="11.3767958"><ele>240.0</ele><time>2026-04-04T10:36:37.17Z</time></trkpt><trkpt lat="43.1979285" lon="11.3768688"><ele>240.0</ele><time>2026-04-04T10:36:38.171Z</time></trkpt><trkpt lat="43.1978543" lon="11.3769359"><ele>240.0</ele><time>2026-04-04T10:36:39.171Z</time></trkpt><trkpt lat="43.1977931" lon="11.3769957"><ele>240.0</ele><time>2026-04-04T10:36:40.171Z</time></trkpt><trkpt lat="43.1977173" lon="11.3770615"><ele>240.0</ele><time>2026-04-04T10:36:41.169Z</time></trkpt><trkpt lat="43.1976336" lon="11.3771151"><ele>240.0</ele><time>2026-04-04T10:36:42.171Z</time></trkpt><trkpt lat="43.1975504" lon="11.3771774"><ele>240.0</ele><time>2026-04-04T10:36:43.171Z</time></trkpt><trkpt lat="43.1974708" lon="11.3772341"><ele>240.0</ele><time>2026-04-04T10:36:44.172Z</time></trkpt><trkpt lat="43.1973867" lon="11.3772748"><ele>238.66666666666666</ele><time>2026-04-04T10:36:45.171Z</time></trkpt><trkpt lat="43.1973044" lon="11.3773325"><ele>237.33333333333331</ele><time>2026-04-04T10:36:46.171Z</time></trkpt><trkpt lat="43.1972278" lon="11.3774003"><ele>236.0</ele><time>2026-04-04T10:36:47.171Z</time></trkpt><trkpt lat="43.1971418" lon="11.3774447"><ele>234.66666666666666</ele><time>2026-04-04T10:36:48.172Z</time></trkpt><trkpt lat="43.1970627" lon="11.3774976"><ele>233.33333333333331</ele><time>2026-04-04T10:36:49.17Z</time></trkpt><trkpt lat="43.1970054" lon="11.3775384"><ele>232.0</ele><time>2026-04-04T10:36:50.171Z</time></trkpt><trkpt lat="43.1969338" lon="11.3775887"><ele>231.99999999999997</ele><time>2026-04-04T10:36:51.171Z</time></trkpt><trkpt lat="43.1968682" lon="11.3776364"><ele>232.0</ele><time>2026-04-04T10:36:52.171Z</time></trkpt><trkpt lat="43.1968049" lon="11.3776757"><ele>232.0</ele><time>2026-04-04T10:36:53.171Z</time></trkpt><trkpt lat="43.1967447" lon="11.3777243"><ele>232.0</ele><time>2026-04-04T10:36:54.171Z</time></trkpt><trkpt lat="43.1966497" lon="11.3777939"><ele>231.99999999999997</ele><time>2026-04-04T10:36:56.171Z</time></trkpt><trkpt lat="43.1965773" lon="11.3778432"><ele>232.0</ele><time>2026-04-04T10:36:57.172Z</time></trkpt><trkpt lat="43.196502" lon="11.3778947"><ele>231.6</ele><time>2026-04-04T10:36:58.172Z</time></trkpt><trkpt lat="43.1964231" lon="11.3779472"><ele>231.2</ele><time>2026-04-04T10:36:59.17Z</time></trkpt><trkpt lat="43.1963419" lon="11.3780083"><ele>230.8</ele><time>2026-04-04T10:37:00.17Z</time></trkpt><trkpt lat="43.1962565" lon="11.3780738"><ele>230.4</ele><time>2026-04-04T10:37:01.171Z</time></trkpt><trkpt lat="43.1961696" lon="11.3781257"><ele>230.0</ele><time>2026-04-04T10:37:02.172Z</time></trkpt><trkpt lat="43.1960846" lon="11.3781818"><ele>230.0</ele><time>2026-04-04T10:37:03.169Z</time></trkpt><trkpt lat="43.1959789" lon="11.3782447"><ele>230.0</ele><time>2026-04-04T10:37:04.172Z</time></trkpt><trkpt lat="43.1958824" lon="11.3782968"><ele>230.0</ele><time>2026-04-04T10:37:05.17Z</time></trkpt><trkpt lat="43.1957937" lon="11.3783394"><ele>230.0</ele><time>2026-04-04T10:37:06.171Z</time></trkpt><trkpt lat="43.1956962" lon="11.3783857"><ele>230.0</ele><time>2026-04-04T10:37:07.17Z</time></trkpt><trkpt lat="43.1956012" lon="11.3784299"><ele>230.0</ele><time>2026-04-04T10:37:08.17Z</time></trkpt><trkpt lat="43.1955197" lon="11.3784643"><ele>230.0</ele><time>2026-04-04T10:37:09.17Z</time></trkpt><trkpt lat="43.1954351" lon="11.3784999"><ele>230.0</ele><time>2026-04-04T10:37:10.171Z</time></trkpt><trkpt lat="43.195348" lon="11.3785466"><ele>230.0</ele><time>2026-04-04T10:37:11.171Z</time></trkpt><trkpt lat="43.1952721" lon="11.378608"><ele>230.0</ele><time>2026-04-04T10:37:12.171Z</time></trkpt><trkpt lat="43.1951922" lon="11.3786773"><ele>230.0</ele><time>2026-04-04T10:37:13.171Z</time></trkpt><trkpt lat="43.1951165" lon="11.3787635"><ele>230.0</ele><time>2026-04-04T10:37:14.17Z</time></trkpt><trkpt lat="43.1950461" lon="11.37885"><ele>230.0</ele><time>2026-04-04T10:37:15.169Z</time></trkpt><trkpt lat="43.1949724" lon="11.3789307"><ele>230.0</ele><time>2026-04-04T10:37:16.17Z</time></trkpt><trkpt lat="43.1949099" lon="11.379017"><ele>230.0</ele><time>2026-04-04T10:37:17.171Z</time></trkpt><trkpt lat="43.1948551" lon="11.3791"><ele>229.50000000000003</ele><time>2026-04-04T10:37:18.17Z</time></trkpt><trkpt lat="43.1948048" lon="11.379184"><ele>229.0</ele><time>2026-04-04T10:37:19.171Z</time></trkpt><trkpt lat="43.1947573" lon="11.3792768"><ele>228.5</ele><time>2026-04-04T10:37:20.17Z</time></trkpt><trkpt lat="43.1947136" lon="11.3793774"><ele>228.0</ele><time>2026-04-04T10:37:21.171Z</time></trkpt><trkpt lat="43.1946772" lon="11.3794778"><ele>227.50000000000003</ele><time>2026-04-04T10:37:22.17Z</time></trkpt><trkpt lat="43.1946488" lon="11.3795895"><ele>227.0</ele><time>2026-04-04T10:37:23.17Z</time></trkpt><trkpt lat="43.1946135" lon="11.3797179"><ele>227.0</ele><time>2026-04-04T10:37:24.171Z</time></trkpt><trkpt lat="43.1945836" lon="11.3798523"><ele>227.0</ele><time>2026-04-04T10:37:25.171Z</time></trkpt><trkpt lat="43.194567" lon="11.3799989"><ele>227.0</ele><time>2026-04-04T10:37:26.171Z</time></trkpt><trkpt lat="43.1945512" lon="11.380141"><ele>227.0</ele><time>2026-04-04T10:37:27.169Z</time></trkpt><trkpt lat="43.1945316" lon="11.380283"><ele>227.0</ele><time>2026-04-04T10:37:28.172Z</time></trkpt><trkpt lat="43.194533" lon="11.3804151"><ele>227.2</ele><time>2026-04-04T10:37:29.17Z</time></trkpt><trkpt lat="43.1945302" lon="11.3805523"><ele>227.39999999999998</ele><time>2026-04-04T10:37:30.17Z</time></trkpt><trkpt lat="43.1945236" lon="11.3806721"><ele>227.60000000000002</ele><time>2026-04-04T10:37:31.169Z</time></trkpt><trkpt lat="43.194505" lon="11.3807896"><ele>227.8</ele><time>2026-04-04T10:37:32.17Z</time></trkpt><trkpt lat="43.1944736" lon="11.3809112"><ele>228.0</ele><time>2026-04-04T10:37:33.171Z</time></trkpt><trkpt lat="43.1944465" lon="11.381041"><ele>228.0</ele><time>2026-04-04T10:37:34.171Z</time></trkpt><trkpt lat="43.1944028" lon="11.3811615"><ele>228.0</ele><time>2026-04-04T10:37:35.171Z</time></trkpt><trkpt lat="43.1943576" lon="11.3812833"><ele>228.0</ele><time>2026-04-04T10:37:36.171Z</time></trkpt><trkpt lat="43.1943151" lon="11.3814078"><ele>228.0</ele><time>2026-04-04T10:37:37.171Z</time></trkpt><trkpt lat="43.1942639" lon="11.381542"><ele>228.0</ele><time>2026-04-04T10:37:38.171Z</time></trkpt><trkpt lat="43.1942089" lon="11.3816816"><ele>228.0</ele><time>2026-04-04T10:37:39.171Z</time></trkpt><trkpt lat="43.1941488" lon="11.3818241"><ele>228.0</ele><time>2026-04-04T10:37:40.17Z</time></trkpt><trkpt lat="43.1941042" lon="11.3819804"><ele>228.0</ele><time>2026-04-04T10:37:41.17Z</time></trkpt><trkpt lat="43.1940456" lon="11.3821784"><ele>228.0</ele><time>2026-04-04T10:37:42.171Z</time></trkpt><trkpt lat="43.1939884" lon="11.3823759"><ele>227.5</ele><time>2026-04-04T10:37:43.171Z</time></trkpt><trkpt lat="43.1939218" lon="11.3825614"><ele>227.0</ele><time>2026-04-04T10:37:44.17Z</time></trkpt><trkpt lat="43.1938585" lon="11.3827231"><ele>226.5</ele><time>2026-04-04T10:37:45.17Z</time></trkpt><trkpt lat="43.1938011" lon="11.3828802"><ele>226.0</ele><time>2026-04-04T10:37:46.171Z</time></trkpt><trkpt lat="43.193746" lon="11.3830214"><ele>226.0</ele><time>2026-04-04T10:37:47.171Z</time></trkpt><trkpt lat="43.193698" lon="11.3831379"><ele>226.00000000000003</ele><time>2026-04-04T10:37:48.17Z</time></trkpt><trkpt lat="43.1936434" lon="11.3832365"><ele>226.00000000000003</ele><time>2026-04-04T10:37:49.171Z</time></trkpt><trkpt lat="43.19359" lon="11.3833217"><ele>226.0</ele><time>2026-04-04T10:37:50.17Z</time></trkpt><trkpt lat="43.1935234" lon="11.3833992"><ele>226.0</ele><time>2026-04-04T10:37:51.172Z</time></trkpt><trkpt lat="43.193436" lon="11.3834616"><ele>226.0</ele><time>2026-04-04T10:37:52.172Z</time></trkpt><trkpt lat="43.1933127" lon="11.3835263"><ele>226.0</ele><time>2026-04-04T10:37:53.172Z</time></trkpt><trkpt lat="43.1931697" lon="11.3835803"><ele>226.0</ele><time>2026-04-04T10:37:54.172Z</time></trkpt><trkpt lat="43.1930238" lon="11.3836357"><ele>226.0</ele><time>2026-04-04T10:37:55.169Z</time></trkpt><trkpt lat="43.192883" lon="11.3837084"><ele>225.5</ele><time>2026-04-04T10:37:56.17Z</time></trkpt><trkpt lat="43.1927552" lon="11.3837659"><ele>225.0</ele><time>2026-04-04T10:37:57.17Z</time></trkpt><trkpt lat="43.1926377" lon="11.3838281"><ele>224.5</ele><time>2026-04-04T10:37:58.171Z</time></trkpt><trkpt lat="43.1925147" lon="11.3838819"><ele>224.0</ele><time>2026-04-04T10:37:59.171Z</time></trkpt><trkpt lat="43.1923914" lon="11.3839161"><ele>224.2</ele><time>2026-04-04T10:38:00.17Z</time></trkpt><trkpt lat="43.1922728" lon="11.3839271"><ele>224.39999999999998</ele><time>2026-04-04T10:38:01.171Z</time></trkpt><trkpt lat="43.1921624" lon="11.3839327"><ele>224.6</ele><time>2026-04-04T10:38:02.17Z</time></trkpt><trkpt lat="43.1920631" lon="11.3839253"><ele>224.8</ele><time>2026-04-04T10:38:03.171Z</time></trkpt><trkpt lat="43.1919686" lon="11.3839124"><ele>225.0</ele><time>2026-04-04T10:38:04.17Z</time></trkpt><trkpt lat="43.1919021" lon="11.3839297"><ele>225.0</ele><time>2026-04-04T10:38:05.17Z</time></trkpt><trkpt lat="43.1918211" lon="11.3839576"><ele>225.0</ele><time>2026-04-04T10:38:06.171Z</time></trkpt><trkpt lat="43.1917445" lon="11.3840121"><ele>225.0</ele><time>2026-04-04T10:38:07.172Z</time></trkpt><trkpt lat="43.1916732" lon="11.3840765"><ele>225.0</ele><time>2026-04-04T10:38:08.17Z</time></trkpt><trkpt lat="43.1916095" lon="11.3841468"><ele>225.0</ele><time>2026-04-04T10:38:09.169Z</time></trkpt><trkpt lat="43.1915508" lon="11.3842361"><ele>225.0</ele><time>2026-04-04T10:38:10.173Z</time></trkpt><trkpt lat="43.1914946" lon="11.3843417"><ele>225.6</ele><time>2026-04-04T10:38:11.171Z</time></trkpt><trkpt lat="43.1914494" lon="11.3844411"><ele>226.2</ele><time>2026-04-04T10:38:12.17Z</time></trkpt><trkpt lat="43.1913773" lon="11.3845073"><ele>226.8</ele><time>2026-04-04T10:38:13.17Z</time></trkpt><trkpt lat="43.1913173" lon="11.384602"><ele>227.4</ele><time>2026-04-04T10:38:14.17Z</time></trkpt><trkpt lat="43.1912485" lon="11.3846972"><ele>228.0</ele><time>2026-04-04T10:38:15.169Z</time></trkpt><trkpt lat="43.1911861" lon="11.3847883"><ele>228.0</ele><time>2026-04-04T10:38:16.169Z</time></trkpt><trkpt lat="43.1910751" lon="11.3848561"><ele>228.0</ele><time>2026-04-04T10:38:17.172Z</time></trkpt><trkpt lat="43.1910263" lon="11.384946"><ele>228.0</ele><time>2026-04-04T10:38:18.17Z</time></trkpt><trkpt lat="43.1909517" lon="11.3850374"><ele>228.0</ele><time>2026-04-04T10:38:19.17Z</time></trkpt><trkpt lat="43.1908699" lon="11.3851192"><ele>228.0</ele><time>2026-04-04T10:38:20.171Z</time></trkpt><trkpt lat="43.1907756" lon="11.3852057"><ele>228.0</ele><time>2026-04-04T10:38:21.171Z</time></trkpt><trkpt lat="43.1906869" lon="11.3852791"><ele>228.0</ele><time>2026-04-04T10:38:22.171Z</time></trkpt><trkpt lat="43.1905894" lon="11.3853532"><ele>228.0</ele><time>2026-04-04T10:38:23.169Z</time></trkpt><trkpt lat="43.1904713" lon="11.385404"><ele>228.0</ele><time>2026-04-04T10:38:24.171Z</time></trkpt><trkpt lat="43.1903717" lon="11.3854505"><ele>228.0</ele><time>2026-04-04T10:38:25.171Z</time></trkpt><trkpt lat="43.1902593" lon="11.3854979"><ele>226.5</ele><time>2026-04-04T10:38:26.171Z</time></trkpt><trkpt lat="43.1901431" lon="11.3855398"><ele>225.0</ele><time>2026-04-04T10:38:27.17Z</time></trkpt><trkpt lat="43.1900287" lon="11.3855732"><ele>223.5</ele><time>2026-04-04T10:38:28.169Z</time></trkpt><trkpt lat="43.1899204" lon="11.3856036"><ele>222.0</ele><time>2026-04-04T10:38:29.171Z</time></trkpt><trkpt lat="43.1898045" lon="11.3856396"><ele>221.39999999999998</ele><time>2026-04-04T10:38:30.17Z</time></trkpt><trkpt lat="43.1897006" lon="11.3856741"><ele>220.79999999999998</ele><time>2026-04-04T10:38:31.17Z</time></trkpt><trkpt lat="43.1895939" lon="11.3856865"><ele>220.2</ele><time>2026-04-04T10:38:32.17Z</time></trkpt><trkpt lat="43.1894842" lon="11.3857073"><ele>219.6</ele><time>2026-04-04T10:38:33.17Z</time></trkpt><trkpt lat="43.189383" lon="11.3857569"><ele>219.0</ele><time>2026-04-04T10:38:34.17Z</time></trkpt><trkpt lat="43.1892775" lon="11.38578"><ele>219.0</ele><time>2026-04-04T10:38:35.169Z</time></trkpt><trkpt lat="43.1891637" lon="11.3858217"><ele>219.0</ele><time>2026-04-04T10:38:36.17Z</time></trkpt><trkpt lat="43.1890503" lon="11.3858558"><ele>219.0</ele><time>2026-04-04T10:38:37.17Z</time></trkpt><trkpt lat="43.1889358" lon="11.3858977"><ele>219.0</ele><time>2026-04-04T10:38:38.169Z</time></trkpt><trkpt lat="43.1888289" lon="11.3859263"><ele>220.39999999999998</ele><time>2026-04-04T10:38:39.17Z</time></trkpt><trkpt lat="43.1887203" lon="11.3859389"><ele>221.79999999999998</ele><time>2026-04-04T10:38:40.17Z</time></trkpt><trkpt lat="43.188616" lon="11.3859266"><ele>223.20000000000002</ele><time>2026-04-04T10:38:41.17Z</time></trkpt><trkpt lat="43.1885177" lon="11.3858932"><ele>224.60000000000002</ele><time>2026-04-04T10:38:42.171Z</time></trkpt><trkpt lat="43.1884201" lon="11.3858313"><ele>226.0</ele><time>2026-04-04T10:38:43.17Z</time></trkpt><trkpt lat="43.1883333" lon="11.3857796"><ele>226.0</ele><time>2026-04-04T10:38:44.17Z</time></trkpt><trkpt lat="43.1882515" lon="11.3857176"><ele>226.00000000000003</ele><time>2026-04-04T10:38:45.171Z</time></trkpt><trkpt lat="43.1881678" lon="11.3856418"><ele>226.00000000000003</ele><time>2026-04-04T10:38:46.17Z</time></trkpt><trkpt lat="43.1880928" lon="11.3855827"><ele>226.0</ele><time>2026-04-04T10:38:47.17Z</time></trkpt><trkpt lat="43.1880172" lon="11.3855166"><ele>226.0</ele><time>2026-04-04T10:38:48.17Z</time></trkpt><trkpt lat="43.1879358" lon="11.3854722"><ele>228.33333333333331</ele><time>2026-04-04T10:38:49.171Z</time></trkpt><trkpt lat="43.1878562" lon="11.3854239"><ele>230.66666666666666</ele><time>2026-04-04T10:38:50.17Z</time></trkpt><trkpt lat="43.1877838" lon="11.3853844"><ele>233.0</ele><time>2026-04-04T10:38:51.171Z</time></trkpt><trkpt lat="43.1877084" lon="11.3853533"><ele>235.33333333333331</ele><time>2026-04-04T10:38:52.17Z</time></trkpt><trkpt lat="43.1876253" lon="11.3853264"><ele>237.66666666666666</ele><time>2026-04-04T10:38:53.17Z</time></trkpt><trkpt lat="43.1875553" lon="11.3852945"><ele>240.0</ele><time>2026-04-04T10:38:54.171Z</time></trkpt><trkpt lat="43.1874858" lon="11.385277"><ele>240.0</ele><time>2026-04-04T10:38:55.171Z</time></trkpt><trkpt lat="43.1874112" lon="11.3852499"><ele>240.0</ele><time>2026-04-04T10:38:56.17Z</time></trkpt><trkpt lat="43.1873353" lon="11.3852407"><ele>240.0</ele><time>2026-04-04T10:38:57.169Z</time></trkpt><trkpt lat="43.1872604" lon="11.3852261"><ele>240.0</ele><time>2026-04-04T10:38:58.171Z</time></trkpt><trkpt lat="43.1871844" lon="11.3852329"><ele>240.0</ele><time>2026-04-04T10:38:59.17Z</time></trkpt><trkpt lat="43.1870937" lon="11.3852468"><ele>240.0</ele><time>2026-04-04T10:39:00.171Z</time></trkpt><trkpt lat="43.1870093" lon="11.3852467"><ele>241.33333333333334</ele><time>2026-04-04T10:39:01.17Z</time></trkpt><trkpt lat="43.186918" lon="11.3852722"><ele>242.66666666666669</ele><time>2026-04-04T10:39:02.171Z</time></trkpt><trkpt lat="43.1868305" lon="11.3853089"><ele>244.0</ele><time>2026-04-04T10:39:03.17Z</time></trkpt><trkpt lat="43.1867428" lon="11.3853269"><ele>245.33333333333334</ele><time>2026-04-04T10:39:04.169Z</time></trkpt><trkpt lat="43.1866571" lon="11.3853409"><ele>246.66666666666669</ele><time>2026-04-04T10:39:05.17Z</time></trkpt><trkpt lat="43.1865698" lon="11.3853542"><ele>248.0</ele><time>2026-04-04T10:39:06.168Z</time></trkpt><trkpt lat="43.18645" lon="11.3853624"><ele>250.0</ele><time>2026-04-04T10:39:07.17Z</time></trkpt><trkpt lat="43.1863075" lon="11.3853813"><ele>252.0</ele><time>2026-04-04T10:39:08.171Z</time></trkpt><trkpt lat="43.1861475" lon="11.3853834"><ele>254.0</ele><time>2026-04-04T10:39:09.169Z</time></trkpt><trkpt lat="43.1860051" lon="11.3853835"><ele>256.0</ele><time>2026-04-04T10:39:10.171Z</time></trkpt><trkpt lat="43.1858905" lon="11.3853926"><ele>255.99999999999997</ele><time>2026-04-04T10:39:11.169Z</time></trkpt><trkpt lat="43.1857886" lon="11.3854012"><ele>256.0</ele><time>2026-04-04T10:39:12.171Z</time></trkpt><trkpt lat="43.1857087" lon="11.3853947"><ele>256.0</ele><time>2026-04-04T10:39:13.17Z</time></trkpt><trkpt lat="43.185638" lon="11.3853946"><ele>256.0</ele><time>2026-04-04T10:39:14.169Z</time></trkpt><trkpt lat="43.1855155" lon="11.3853951"><ele>255.99999999999997</ele><time>2026-04-04T10:39:16.169Z</time></trkpt><trkpt lat="43.1854542" lon="11.3853705"><ele>256.0</ele><time>2026-04-04T10:39:17.171Z</time></trkpt><trkpt lat="43.185396" lon="11.3853344"><ele>257.8333333333333</ele><time>2026-04-04T10:39:18.171Z</time></trkpt><trkpt lat="43.1853389" lon="11.3852882"><ele>259.66666666666663</ele><time>2026-04-04T10:39:19.171Z</time></trkpt><trkpt lat="43.1852815" lon="11.3852326"><ele>261.5</ele><time>2026-04-04T10:39:20.17Z</time></trkpt><trkpt lat="43.1852172" lon="11.3851548"><ele>263.3333333333333</ele><time>2026-04-04T10:39:21.171Z</time></trkpt><trkpt lat="43.1851661" lon="11.3850777"><ele>265.1666666666667</ele><time>2026-04-04T10:39:22.17Z</time></trkpt><trkpt lat="43.1851074" lon="11.3849958"><ele>267.0</ele><time>2026-04-04T10:39:23.169Z</time></trkpt><trkpt lat="43.1850585" lon="11.3849158"><ele>267.00000000000006</ele><time>2026-04-04T10:39:24.17Z</time></trkpt><trkpt lat="43.1850138" lon="11.3848478"><ele>267.0</ele><time>2026-04-04T10:39:25.17Z</time></trkpt><trkpt lat="43.1849768" lon="11.3847689"><ele>267.0</ele><time>2026-04-04T10:39:26.171Z</time></trkpt><trkpt lat="43.1849363" lon="11.3846858"><ele>267.0</ele><time>2026-04-04T10:39:27.17Z</time></trkpt><trkpt lat="43.184885" lon="11.3846152"><ele>267.0</ele><time>2026-04-04T10:39:28.17Z</time></trkpt><trkpt lat="43.1848343" lon="11.3845509"><ele>267.00000000000006</ele><time>2026-04-04T10:39:29.17Z</time></trkpt><trkpt lat="43.1847798" lon="11.384483"><ele>267.0</ele><time>2026-04-04T10:39:30.17Z</time></trkpt><trkpt lat="43.1847316" lon="11.3844159"><ele>268.14285714285717</ele><time>2026-04-04T10:39:31.171Z</time></trkpt><trkpt lat="43.18467" lon="11.3843498"><ele>269.2857142857143</ele><time>2026-04-04T10:39:32.169Z</time></trkpt><trkpt lat="43.1846121" lon="11.3842963"><ele>270.42857142857144</ele><time>2026-04-04T10:39:33.169Z</time></trkpt><trkpt lat="43.1845539" lon="11.3842416"><ele>271.57142857142856</ele><time>2026-04-04T10:39:34.17Z</time></trkpt><trkpt lat="43.1844925" lon="11.3841925"><ele>272.7142857142857</ele><time>2026-04-04T10:39:35.17Z</time></trkpt><trkpt lat="43.1844344" lon="11.3841354"><ele>273.8571428571429</ele><time>2026-04-04T10:39:36.169Z</time></trkpt><trkpt lat="43.1843644" lon="11.3840734"><ele>275.0</ele><time>2026-04-04T10:39:37.17Z</time></trkpt><trkpt lat="43.1843033" lon="11.3840199"><ele>275.0</ele><time>2026-04-04T10:39:38.169Z</time></trkpt><trkpt lat="43.1842425" lon="11.3839652"><ele>275.0</ele><time>2026-04-04T10:39:39.17Z</time></trkpt><trkpt lat="43.1841816" lon="11.3839217"><ele>275.0</ele><time>2026-04-04T10:39:40.168Z</time></trkpt><trkpt lat="43.1841163" lon="11.3838889"><ele>275.0</ele><time>2026-04-04T10:39:41.17Z</time></trkpt><trkpt lat="43.1840519" lon="11.3838662"><ele>275.0</ele><time>2026-04-04T10:39:42.171Z</time></trkpt><trkpt lat="43.1839893" lon="11.3838441"><ele>275.0</ele><time>2026-04-04T10:39:43.17Z</time></trkpt><trkpt lat="43.1838704" lon="11.3838018"><ele>274.8571428571429</ele><time>2026-04-04T10:39:45.171Z</time></trkpt><trkpt lat="43.1838093" lon="11.3837806"><ele>274.7142857142857</ele><time>2026-04-04T10:39:46.171Z</time></trkpt><trkpt lat="43.183737" lon="11.3837506"><ele>274.57142857142856</ele><time>2026-04-04T10:39:47.17Z</time></trkpt><trkpt lat="43.1836732" lon="11.3837257"><ele>274.42857142857144</ele><time>2026-04-04T10:39:48.169Z</time></trkpt><trkpt lat="43.1836026" lon="11.3837008"><ele>274.2857142857143</ele><time>2026-04-04T10:39:49.171Z</time></trkpt><trkpt lat="43.1835293" lon="11.3836725"><ele>274.14285714285717</ele><time>2026-04-04T10:39:50.17Z</time></trkpt><trkpt lat="43.1834557" lon="11.38365"><ele>274.0</ele><time>2026-04-04T10:39:51.17Z</time></trkpt><trkpt lat="43.1833806" lon="11.3836193"><ele>274.0</ele><time>2026-04-04T10:39:52.17Z</time></trkpt><trkpt lat="43.1833057" lon="11.3835996"><ele>274.0</ele><time>2026-04-04T10:39:53.171Z</time></trkpt><trkpt lat="43.1831949" lon="11.3835398"><ele>274.0</ele><time>2026-04-04T10:39:55.168Z</time></trkpt><trkpt lat="43.1831109" lon="11.3835"><ele>274.0</ele><time>2026-04-04T10:39:56.169Z</time></trkpt><trkpt lat="43.1830195" lon="11.3834561"><ele>274.0</ele><time>2026-04-04T10:39:57.169Z</time></trkpt><trkpt lat="43.1829153" lon="11.3834142"><ele>273.25</ele><time>2026-04-04T10:39:58.169Z</time></trkpt><trkpt lat="43.1828146" lon="11.3833714"><ele>272.5</ele><time>2026-04-04T10:39:59.17Z</time></trkpt><trkpt lat="43.1827037" lon="11.3833202"><ele>271.75</ele><time>2026-04-04T10:40:00.17Z</time></trkpt><trkpt lat="43.1825962" lon="11.3832625"><ele>271.0</ele><time>2026-04-04T10:40:01.171Z</time></trkpt><trkpt lat="43.1824836" lon="11.3832301"><ele>271.0</ele><time>2026-04-04T10:40:02.17Z</time></trkpt><trkpt lat="43.1823783" lon="11.3831755"><ele>271.0</ele><time>2026-04-04T10:40:03.169Z</time></trkpt><trkpt lat="43.1822817" lon="11.3831401"><ele>271.0</ele><time>2026-04-04T10:40:04.168Z</time></trkpt><trkpt lat="43.1821852" lon="11.3831141"><ele>271.0</ele><time>2026-04-04T10:40:05.17Z</time></trkpt><trkpt lat="43.1820967" lon="11.3830905"><ele>271.0</ele><time>2026-04-04T10:40:06.168Z</time></trkpt><trkpt lat="43.1819922" lon="11.3830669"><ele>270.6</ele><time>2026-04-04T10:40:07.169Z</time></trkpt><trkpt lat="43.1818784" lon="11.3830311"><ele>270.20000000000005</ele><time>2026-04-04T10:40:08.171Z</time></trkpt><trkpt lat="43.1817566" lon="11.3829989"><ele>269.79999999999995</ele><time>2026-04-04T10:40:09.171Z</time></trkpt><trkpt lat="43.1816418" lon="11.3829801"><ele>269.4</ele><time>2026-04-04T10:40:10.171Z</time></trkpt><trkpt lat="43.1815552" lon="11.3829656"><ele>269.0</ele><time>2026-04-04T10:40:11.171Z</time></trkpt><trkpt lat="43.1814684" lon="11.3829511"><ele>268.4</ele><time>2026-04-04T10:40:12.17Z</time></trkpt><trkpt lat="43.1814007" lon="11.3829266"><ele>267.79999999999995</ele><time>2026-04-04T10:40:13.168Z</time></trkpt><trkpt lat="43.1813049" lon="11.382892"><ele>267.20000000000005</ele><time>2026-04-04T10:40:15.17Z</time></trkpt><trkpt lat="43.1812369" lon="11.3828665"><ele>266.6</ele><time>2026-04-04T10:40:17.17Z</time></trkpt><trkpt lat="43.1811515" lon="11.3828083"><ele>266.0</ele><time>2026-04-04T10:40:19.169Z</time></trkpt><trkpt lat="43.1810419" lon="11.3827565"><ele>266.0</ele><time>2026-04-04T10:40:21.169Z</time></trkpt><trkpt lat="43.1809413" lon="11.3826971"><ele>266.0</ele><time>2026-04-04T10:40:23.17Z</time></trkpt><trkpt lat="43.1808724" lon="11.38266"><ele>266.0</ele><time>2026-04-04T10:40:25.169Z</time></trkpt><trkpt lat="43.1808032" lon="11.3826735"><ele>266.0</ele><time>2026-04-04T10:40:27.169Z</time></trkpt><trkpt lat="43.1807083" lon="11.3827681"><ele>266.0</ele><time>2026-04-04T10:40:29.169Z</time></trkpt><trkpt lat="43.1806513" lon="11.382826"><ele>266.0</ele><time>2026-04-04T10:40:30.17Z</time></trkpt><trkpt lat="43.1805772" lon="11.3829038"><ele>266.0</ele><time>2026-04-04T10:40:31.169Z</time></trkpt><trkpt lat="43.1804948" lon="11.3829893"><ele>266.0</ele><time>2026-04-04T10:40:32.17Z</time></trkpt><trkpt lat="43.1804043" lon="11.3830678"><ele>266.0</ele><time>2026-04-04T10:40:33.17Z</time></trkpt><trkpt lat="43.1802928" lon="11.3831553"><ele>266.0</ele><time>2026-04-04T10:40:34.168Z</time></trkpt><trkpt lat="43.180196" lon="11.3832432"><ele>266.0</ele><time>2026-04-04T10:40:35.168Z</time></trkpt><trkpt lat="43.180084" lon="11.3833435"><ele>266.0</ele><time>2026-04-04T10:40:36.169Z</time></trkpt><trkpt lat="43.1799666" lon="11.3834258"><ele>266.0</ele><time>2026-04-04T10:40:37.168Z</time></trkpt><trkpt lat="43.1798399" lon="11.3834982"><ele>266.0</ele><time>2026-04-04T10:40:38.168Z</time></trkpt><trkpt lat="43.1797044" lon="11.3835646"><ele>265.25</ele><time>2026-04-04T10:40:39.17Z</time></trkpt><trkpt lat="43.1795676" lon="11.3836401"><ele>264.5</ele><time>2026-04-04T10:40:40.169Z</time></trkpt><trkpt lat="43.1794288" lon="11.3836967"><ele>263.75</ele><time>2026-04-04T10:40:41.17Z</time></trkpt><trkpt lat="43.1792948" lon="11.3837703"><ele>263.0</ele><time>2026-04-04T10:40:42.171Z</time></trkpt><trkpt lat="43.179161" lon="11.3838474"><ele>264.5</ele><time>2026-04-04T10:40:43.169Z</time></trkpt><trkpt lat="43.1790358" lon="11.3839215"><ele>266.0</ele><time>2026-04-04T10:40:44.169Z</time></trkpt><trkpt lat="43.1789014" lon="11.3840037"><ele>267.5</ele><time>2026-04-04T10:40:45.17Z</time></trkpt><trkpt lat="43.1787819" lon="11.3841076"><ele>269.0</ele><time>2026-04-04T10:40:46.17Z</time></trkpt><trkpt lat="43.1786653" lon="11.3842209"><ele>269.0</ele><time>2026-04-04T10:40:47.169Z</time></trkpt><trkpt lat="43.1785563" lon="11.3843493"><ele>269.0</ele><time>2026-04-04T10:40:48.168Z</time></trkpt><trkpt lat="43.1784499" lon="11.3844827"><ele>269.0</ele><time>2026-04-04T10:40:49.169Z</time></trkpt><trkpt lat="43.1783361" lon="11.3846119"><ele>269.0</ele><time>2026-04-04T10:40:50.169Z</time></trkpt><trkpt lat="43.1782193" lon="11.3847442"><ele>269.0</ele><time>2026-04-04T10:40:51.169Z</time></trkpt><trkpt lat="43.1780966" lon="11.3848539"><ele>269.0</ele><time>2026-04-04T10:40:52.17Z</time></trkpt><trkpt lat="43.1779695" lon="11.3849708"><ele>269.0</ele><time>2026-04-04T10:40:53.169Z</time></trkpt><trkpt lat="43.1778381" lon="11.3850776"><ele>269.0</ele><time>2026-04-04T10:40:54.169Z</time></trkpt><trkpt lat="43.1777081" lon="11.3851925"><ele>269.0</ele><time>2026-04-04T10:40:55.17Z</time></trkpt><trkpt lat="43.1775906" lon="11.3852797"><ele>269.0</ele><time>2026-04-04T10:40:56.169Z</time></trkpt><trkpt lat="43.1774877" lon="11.3853857"><ele>269.0</ele><time>2026-04-04T10:40:57.169Z</time></trkpt><trkpt lat="43.1773874" lon="11.3855175"><ele>270.25</ele><time>2026-04-04T10:40:58.169Z</time></trkpt><trkpt lat="43.1772984" lon="11.3856652"><ele>271.5</ele><time>2026-04-04T10:40:59.169Z</time></trkpt><trkpt lat="43.1772123" lon="11.385832"><ele>272.75</ele><time>2026-04-04T10:41:00.169Z</time></trkpt><trkpt lat="43.1771302" lon="11.3860196"><ele>274.0</ele><time>2026-04-04T10:41:01.168Z</time></trkpt><trkpt lat="43.1770539" lon="11.3862096"><ele>273.3333333333333</ele><time>2026-04-04T10:41:02.169Z</time></trkpt><trkpt lat="43.176978" lon="11.3864091"><ele>272.6666666666667</ele><time>2026-04-04T10:41:03.168Z</time></trkpt><trkpt lat="43.176897" lon="11.3866131"><ele>272.0</ele><time>2026-04-04T10:41:04.17Z</time></trkpt><trkpt lat="43.1768172" lon="11.3868089"><ele>272.0</ele><time>2026-04-04T10:41:05.169Z</time></trkpt><trkpt lat="43.1767441" lon="11.3870043"><ele>272.0</ele><time>2026-04-04T10:41:06.169Z</time></trkpt><trkpt lat="43.176668" lon="11.387201"><ele>272.0</ele><time>2026-04-04T10:41:07.169Z</time></trkpt><trkpt lat="43.1765819" lon="11.3873838"><ele>272.5</ele><time>2026-04-04T10:41:08.169Z</time></trkpt><trkpt lat="43.1765099" lon="11.3875589"><ele>273.0</ele><time>2026-04-04T10:41:09.17Z</time></trkpt><trkpt lat="43.1764249" lon="11.3877191"><ele>273.5</ele><time>2026-04-04T10:41:10.17Z</time></trkpt><trkpt lat="43.1763264" lon="11.3878747"><ele>274.0</ele><time>2026-04-04T10:41:11.169Z</time></trkpt><trkpt lat="43.1762146" lon="11.3880129"><ele>274.0</ele><time>2026-04-04T10:41:12.17Z</time></trkpt><trkpt lat="43.1760997" lon="11.3881487"><ele>274.0</ele><time>2026-04-04T10:41:13.17Z</time></trkpt><trkpt lat="43.1759553" lon="11.3882535"><ele>274.0</ele><time>2026-04-04T10:41:14.17Z</time></trkpt><trkpt lat="43.1758188" lon="11.388335"><ele>273.75</ele><time>2026-04-04T10:41:15.17Z</time></trkpt><trkpt lat="43.1756818" lon="11.3884085"><ele>273.5</ele><time>2026-04-04T10:41:16.17Z</time></trkpt><trkpt lat="43.1755495" lon="11.3884956"><ele>273.25</ele><time>2026-04-04T10:41:17.171Z</time></trkpt><trkpt lat="43.1754053" lon="11.3885607"><ele>273.0</ele><time>2026-04-04T10:41:18.168Z</time></trkpt><trkpt lat="43.1752619" lon="11.3886241"><ele>273.0</ele><time>2026-04-04T10:41:19.17Z</time></trkpt><trkpt lat="43.1751229" lon="11.3886867"><ele>273.0</ele><time>2026-04-04T10:41:20.169Z</time></trkpt><trkpt lat="43.1749888" lon="11.3887392"><ele>273.0</ele><time>2026-04-04T10:41:21.17Z</time></trkpt><trkpt lat="43.1748514" lon="11.3887913"><ele>273.0</ele><time>2026-04-04T10:41:22.169Z</time></trkpt><trkpt lat="43.1747153" lon="11.3888402"><ele>274.5</ele><time>2026-04-04T10:41:23.168Z</time></trkpt><trkpt lat="43.1745767" lon="11.3888993"><ele>276.0</ele><time>2026-04-04T10:41:24.169Z</time></trkpt><trkpt lat="43.1744441" lon="11.3889579"><ele>277.5</ele><time>2026-04-04T10:41:25.169Z</time></trkpt><trkpt lat="43.1743123" lon="11.3890145"><ele>279.0</ele><time>2026-04-04T10:41:26.169Z</time></trkpt><trkpt lat="43.1741822" lon="11.3890797"><ele>279.0</ele><time>2026-04-04T10:41:27.17Z</time></trkpt><trkpt lat="43.1740589" lon="11.3891579"><ele>279.0</ele><time>2026-04-04T10:41:28.169Z</time></trkpt><trkpt lat="43.1739416" lon="11.3892536"><ele>279.0</ele><time>2026-04-04T10:41:29.17Z</time></trkpt><trkpt lat="43.1738313" lon="11.3893662"><ele>279.0</ele><time>2026-04-04T10:41:30.169Z</time></trkpt><trkpt lat="43.1737295" lon="11.3895054"><ele>280.75</ele><time>2026-04-04T10:41:31.169Z</time></trkpt><trkpt lat="43.1736407" lon="11.3896419"><ele>282.5</ele><time>2026-04-04T10:41:32.168Z</time></trkpt><trkpt lat="43.1735562" lon="11.3897786"><ele>284.25</ele><time>2026-04-04T10:41:33.17Z</time></trkpt><trkpt lat="43.1734772" lon="11.3899105"><ele>286.0</ele><time>2026-04-04T10:41:34.17Z</time></trkpt><trkpt lat="43.1734034" lon="11.3900344"><ele>286.0</ele><time>2026-04-04T10:41:35.169Z</time></trkpt><trkpt lat="43.1733322" lon="11.3901514"><ele>286.0</ele><time>2026-04-04T10:41:36.17Z</time></trkpt><trkpt lat="43.1732667" lon="11.3902604"><ele>286.0</ele><time>2026-04-04T10:41:37.169Z</time></trkpt><trkpt lat="43.1732038" lon="11.3903615"><ele>286.0</ele><time>2026-04-04T10:41:38.17Z</time></trkpt><trkpt lat="43.1731415" lon="11.3904494"><ele>286.0</ele><time>2026-04-04T10:41:39.17Z</time></trkpt><trkpt lat="43.1730806" lon="11.3905295"><ele>288.40000000000003</ele><time>2026-04-04T10:41:40.17Z</time></trkpt><trkpt lat="43.1730132" lon="11.3905963"><ele>290.8</ele><time>2026-04-04T10:41:41.169Z</time></trkpt><trkpt lat="43.1729339" lon="11.3906618"><ele>293.20000000000005</ele><time>2026-04-04T10:41:42.169Z</time></trkpt><trkpt lat="43.1728421" lon="11.3907188"><ele>295.6</ele><time>2026-04-04T10:41:43.169Z</time></trkpt><trkpt lat="43.1727402" lon="11.3907657"><ele>298.0</ele><time>2026-04-04T10:41:44.168Z</time></trkpt><trkpt lat="43.172628" lon="11.3908146"><ele>298.0</ele><time>2026-04-04T10:41:45.17Z</time></trkpt><trkpt lat="43.1725138" lon="11.3908683"><ele>298.0</ele><time>2026-04-04T10:41:46.17Z</time></trkpt><trkpt lat="43.1724012" lon="11.3909171"><ele>298.0</ele><time>2026-04-04T10:41:47.168Z</time></trkpt><trkpt lat="43.17229" lon="11.3909704"><ele>298.0</ele><time>2026-04-04T10:41:48.17Z</time></trkpt><trkpt lat="43.1721791" lon="11.3910166"><ele>299.4</ele><time>2026-04-04T10:41:49.169Z</time></trkpt><trkpt lat="43.1720786" lon="11.3910684"><ele>300.8</ele><time>2026-04-04T10:41:50.17Z</time></trkpt><trkpt lat="43.1719815" lon="11.3911168"><ele>302.2</ele><time>2026-04-04T10:41:51.169Z</time></trkpt><trkpt lat="43.1718878" lon="11.3911641"><ele>303.6</ele><time>2026-04-04T10:41:52.169Z</time></trkpt><trkpt lat="43.1717949" lon="11.391203"><ele>305.0</ele><time>2026-04-04T10:41:53.169Z</time></trkpt><trkpt lat="43.1716932" lon="11.3912386"><ele>305.0</ele><time>2026-04-04T10:41:54.169Z</time></trkpt><trkpt lat="43.1716078" lon="11.3912326"><ele>305.0</ele><time>2026-04-04T10:41:55.169Z</time></trkpt><trkpt lat="43.1715139" lon="11.3912485"><ele>305.0</ele><time>2026-04-04T10:41:56.17Z</time></trkpt><trkpt lat="43.1714288" lon="11.3912569"><ele>305.0</ele><time>2026-04-04T10:41:57.169Z</time></trkpt><trkpt lat="43.1713519" lon="11.3912706"><ele>305.0</ele><time>2026-04-04T10:41:58.169Z</time></trkpt><trkpt lat="43.171272" lon="11.3912486"><ele>305.0</ele><time>2026-04-04T10:41:59.17Z</time></trkpt><trkpt lat="43.1711985" lon="11.3912272"><ele>304.5</ele><time>2026-04-04T10:42:00.169Z</time></trkpt><trkpt lat="43.1711331" lon="11.3911896"><ele>304.0</ele><time>2026-04-04T10:42:01.17Z</time></trkpt><trkpt lat="43.1710633" lon="11.391155"><ele>303.5</ele><time>2026-04-04T10:42:02.17Z</time></trkpt><trkpt lat="43.1709986" lon="11.3911242"><ele>303.0</ele><time>2026-04-04T10:42:03.169Z</time></trkpt><trkpt lat="43.1709346" lon="11.3910894"><ele>302.5</ele><time>2026-04-04T10:42:04.169Z</time></trkpt><trkpt lat="43.1708166" lon="11.3910211"><ele>302.0</ele><time>2026-04-04T10:42:06.169Z</time></trkpt><trkpt lat="43.1707164" lon="11.3909617"><ele>302.00000000000006</ele><time>2026-04-04T10:42:08.168Z</time></trkpt><trkpt lat="43.1706576" lon="11.3909247"><ele>302.0</ele><time>2026-04-04T10:42:09.17Z</time></trkpt><trkpt lat="43.170598" lon="11.3908915"><ele>302.0</ele><time>2026-04-04T10:42:10.168Z</time></trkpt><trkpt lat="43.1705352" lon="11.3908563"><ele>302.0</ele><time>2026-04-04T10:42:11.168Z</time></trkpt><trkpt lat="43.170475" lon="11.3908204"><ele>302.0</ele><time>2026-04-04T10:42:12.169Z</time></trkpt><trkpt lat="43.1704089" lon="11.3907713"><ele>302.00000000000006</ele><time>2026-04-04T10:42:13.168Z</time></trkpt><trkpt lat="43.1703422" lon="11.390725"><ele>302.0</ele><time>2026-04-04T10:42:14.168Z</time></trkpt><trkpt lat="43.1702735" lon="11.3906748"><ele>302.0</ele><time>2026-04-04T10:42:15.168Z</time></trkpt><trkpt lat="43.170198" lon="11.3906235"><ele>302.0</ele><time>2026-04-04T10:42:16.168Z</time></trkpt><trkpt lat="43.1701153" lon="11.3905597"><ele>302.0</ele><time>2026-04-04T10:42:17.169Z</time></trkpt><trkpt lat="43.1700264" lon="11.3904921"><ele>302.0</ele><time>2026-04-04T10:42:18.169Z</time></trkpt><trkpt lat="43.1699417" lon="11.3904227"><ele>302.0</ele><time>2026-04-04T10:42:19.169Z</time></trkpt><trkpt lat="43.169853" lon="11.3903481"><ele>299.0</ele><time>2026-04-04T10:42:20.169Z</time></trkpt><trkpt lat="43.1697574" lon="11.3902802"><ele>296.0</ele><time>2026-04-04T10:42:21.17Z</time></trkpt><trkpt lat="43.1696535" lon="11.3902157"><ele>293.0</ele><time>2026-04-04T10:42:22.169Z</time></trkpt><trkpt lat="43.1695484" lon="11.3901418"><ele>290.0</ele><time>2026-04-04T10:42:23.168Z</time></trkpt><trkpt lat="43.1694395" lon="11.3900858"><ele>290.0</ele><time>2026-04-04T10:42:24.168Z</time></trkpt><trkpt lat="43.1693228" lon="11.3900377"><ele>290.0</ele><time>2026-04-04T10:42:25.169Z</time></trkpt><trkpt lat="43.1691991" lon="11.3900052"><ele>290.0</ele><time>2026-04-04T10:42:26.169Z</time></trkpt><trkpt lat="43.169082" lon="11.3899803"><ele>290.0</ele><time>2026-04-04T10:42:27.17Z</time></trkpt><trkpt lat="43.16897" lon="11.3899643"><ele>287.8</ele><time>2026-04-04T10:42:28.168Z</time></trkpt><trkpt lat="43.1688711" lon="11.3899479"><ele>285.6</ele><time>2026-04-04T10:42:29.169Z</time></trkpt><trkpt lat="43.1687671" lon="11.3899425"><ele>283.4</ele><time>2026-04-04T10:42:30.169Z</time></trkpt><trkpt lat="43.1686582" lon="11.3899374"><ele>281.2</ele><time>2026-04-04T10:42:31.169Z</time></trkpt><trkpt lat="43.1685456" lon="11.3899122"><ele>279.0</ele><time>2026-04-04T10:42:32.169Z</time></trkpt><trkpt lat="43.1684173" lon="11.3899055"><ele>279.0</ele><time>2026-04-04T10:42:33.169Z</time></trkpt><trkpt lat="43.1682835" lon="11.3898989"><ele>279.0</ele><time>2026-04-04T10:42:34.17Z</time></trkpt><trkpt lat="43.1681432" lon="11.3898921"><ele>279.0</ele><time>2026-04-04T10:42:35.169Z</time></trkpt><trkpt lat="43.167995" lon="11.3898826"><ele>279.0</ele><time>2026-04-04T10:42:36.17Z</time></trkpt><trkpt lat="43.1678513" lon="11.3898759"><ele>277.75</ele><time>2026-04-04T10:42:37.168Z</time></trkpt><trkpt lat="43.1677152" lon="11.3898703"><ele>276.5</ele><time>2026-04-04T10:42:38.167Z</time></trkpt><trkpt lat="43.1675773" lon="11.3898582"><ele>275.25</ele><time>2026-04-04T10:42:39.167Z</time></trkpt><trkpt lat="43.1674425" lon="11.3898462"><ele>274.0</ele><time>2026-04-04T10:42:40.169Z</time></trkpt><trkpt lat="43.1673272" lon="11.3898394"><ele>274.0</ele><time>2026-04-04T10:42:41.17Z</time></trkpt><trkpt lat="43.1671954" lon="11.3898334"><ele>274.0</ele><time>2026-04-04T10:42:42.167Z</time></trkpt><trkpt lat="43.1670702" lon="11.3898293"><ele>274.0</ele><time>2026-04-04T10:42:43.17Z</time></trkpt><trkpt lat="43.1669349" lon="11.3898887"><ele>274.0</ele><time>2026-04-04T10:42:44.169Z</time></trkpt><trkpt lat="43.1668049" lon="11.3899493"><ele>274.0</ele><time>2026-04-04T10:42:45.168Z</time></trkpt><trkpt lat="43.1666828" lon="11.3900364"><ele>274.0</ele><time>2026-04-04T10:42:46.17Z</time></trkpt><trkpt lat="43.1665706" lon="11.3901302"><ele>274.0</ele><time>2026-04-04T10:42:47.168Z</time></trkpt><trkpt lat="43.1664771" lon="11.3902393"><ele>274.0</ele><time>2026-04-04T10:42:48.168Z</time></trkpt><trkpt lat="43.1663918" lon="11.3903519"><ele>274.75</ele><time>2026-04-04T10:42:49.168Z</time></trkpt><trkpt lat="43.1663101" lon="11.390454"><ele>275.5</ele><time>2026-04-04T10:42:50.168Z</time></trkpt><trkpt lat="43.1662223" lon="11.3905445"><ele>276.25</ele><time>2026-04-04T10:42:51.169Z</time></trkpt><trkpt lat="43.1661211" lon="11.3906213"><ele>277.0</ele><time>2026-04-04T10:42:52.169Z</time></trkpt><trkpt lat="43.1660076" lon="11.3907096"><ele>276.25</ele><time>2026-04-04T10:42:53.169Z</time></trkpt><trkpt lat="43.1658814" lon="11.3907695"><ele>275.5</ele><time>2026-04-04T10:42:54.168Z</time></trkpt><trkpt lat="43.1657395" lon="11.3908255"><ele>274.75</ele><time>2026-04-04T10:42:55.169Z</time></trkpt><trkpt lat="43.1656027" lon="11.3908721"><ele>274.0</ele><time>2026-04-04T10:42:56.168Z</time></trkpt><trkpt lat="43.1654575" lon="11.390907"><ele>274.0</ele><time>2026-04-04T10:42:57.167Z</time></trkpt><trkpt lat="43.1653067" lon="11.3909435"><ele>274.0</ele><time>2026-04-04T10:42:58.17Z</time></trkpt><trkpt lat="43.1651513" lon="11.3909854"><ele>274.0</ele><time>2026-04-04T10:42:59.168Z</time></trkpt><trkpt lat="43.1649923" lon="11.3910189"><ele>274.3333333333333</ele><time>2026-04-04T10:43:00.169Z</time></trkpt><trkpt lat="43.1648298" lon="11.3910609"><ele>274.6666666666667</ele><time>2026-04-04T10:43:01.169Z</time></trkpt><trkpt lat="43.1646682" lon="11.3911018"><ele>275.0</ele><time>2026-04-04T10:43:02.168Z</time></trkpt><trkpt lat="43.1645084" lon="11.3911477"><ele>275.0</ele><time>2026-04-04T10:43:03.169Z</time></trkpt><trkpt lat="43.1643453" lon="11.3911786"><ele>275.0</ele><time>2026-04-04T10:43:04.169Z</time></trkpt><trkpt lat="43.1641784" lon="11.3912145"><ele>275.0</ele><time>2026-04-04T10:43:05.169Z</time></trkpt><trkpt lat="43.1640082" lon="11.3912583"><ele>275.6666666666667</ele><time>2026-04-04T10:43:06.17Z</time></trkpt><trkpt lat="43.1638365" lon="11.3912999"><ele>276.3333333333333</ele><time>2026-04-04T10:43:07.169Z</time></trkpt><trkpt lat="43.1636723" lon="11.3913413"><ele>277.0</ele><time>2026-04-04T10:43:08.17Z</time></trkpt><trkpt lat="43.1635086" lon="11.3913874"><ele>277.0</ele><time>2026-04-04T10:43:09.168Z</time></trkpt><trkpt lat="43.163347" lon="11.3914321"><ele>277.0</ele><time>2026-04-04T10:43:10.169Z</time></trkpt><trkpt lat="43.1631838" lon="11.3914765"><ele>277.0</ele><time>2026-04-04T10:43:11.168Z</time></trkpt><trkpt lat="43.1630226" lon="11.3915103"><ele>278.66666666666663</ele><time>2026-04-04T10:43:12.169Z</time></trkpt><trkpt lat="43.1628661" lon="11.3915507"><ele>280.3333333333333</ele><time>2026-04-04T10:43:13.169Z</time></trkpt><trkpt lat="43.1627045" lon="11.3915768"><ele>282.0</ele><time>2026-04-04T10:43:14.168Z</time></trkpt><trkpt lat="43.1625566" lon="11.3915976"><ele>282.0</ele><time>2026-04-04T10:43:15.168Z</time></trkpt><trkpt lat="43.1624176" lon="11.3916085"><ele>282.0</ele><time>2026-04-04T10:43:16.168Z</time></trkpt><trkpt lat="43.1622873" lon="11.3916291"><ele>282.0</ele><time>2026-04-04T10:43:17.17Z</time></trkpt><trkpt lat="43.1621719" lon="11.3916459"><ele>282.0</ele><time>2026-04-04T10:43:18.169Z</time></trkpt><trkpt lat="43.1620589" lon="11.3916754"><ele>283.0</ele><time>2026-04-04T10:43:19.169Z</time></trkpt><trkpt lat="43.1619616" lon="11.3917272"><ele>284.0</ele><time>2026-04-04T10:43:20.168Z</time></trkpt><trkpt lat="43.1618607" lon="11.3918238"><ele>285.0</ele><time>2026-04-04T10:43:21.168Z</time></trkpt><trkpt lat="43.1617686" lon="11.3919568"><ele>286.0</ele><time>2026-04-04T10:43:22.169Z</time></trkpt><trkpt lat="43.1617082" lon="11.392111"><ele>285.0</ele><time>2026-04-04T10:43:23.168Z</time></trkpt><trkpt lat="43.1616503" lon="11.3922798"><ele>284.0</ele><time>2026-04-04T10:43:24.169Z</time></trkpt><trkpt lat="43.1616032" lon="11.3924675"><ele>283.0</ele><time>2026-04-04T10:43:25.169Z</time></trkpt><trkpt lat="43.1615411" lon="11.3926427"><ele>282.0</ele><time>2026-04-04T10:43:26.169Z</time></trkpt><trkpt lat="43.1614584" lon="11.3927984"><ele>281.25</ele><time>2026-04-04T10:43:27.168Z</time></trkpt><trkpt lat="43.1613515" lon="11.3929235"><ele>280.5</ele><time>2026-04-04T10:43:28.168Z</time></trkpt><trkpt lat="43.1612245" lon="11.3930323"><ele>279.75</ele><time>2026-04-04T10:43:29.17Z</time></trkpt><trkpt lat="43.1610778" lon="11.3931143"><ele>279.0</ele><time>2026-04-04T10:43:30.169Z</time></trkpt><trkpt lat="43.1609246" lon="11.3931922"><ele>279.0</ele><time>2026-04-04T10:43:31.17Z</time></trkpt><trkpt lat="43.1607752" lon="11.3932519"><ele>279.0</ele><time>2026-04-04T10:43:32.168Z</time></trkpt><trkpt lat="43.1606168" lon="11.3933086"><ele>279.0</ele><time>2026-04-04T10:43:33.169Z</time></trkpt><trkpt lat="43.160436" lon="11.3933925"><ele>278.3333333333333</ele><time>2026-04-04T10:43:34.169Z</time></trkpt><trkpt lat="43.1602493" lon="11.3934742"><ele>277.66666666666663</ele><time>2026-04-04T10:43:35.17Z</time></trkpt><trkpt lat="43.1600802" lon="11.3935508"><ele>277.0</ele><time>2026-04-04T10:43:36.168Z</time></trkpt><trkpt lat="43.1599133" lon="11.3936431"><ele>276.66666666666663</ele><time>2026-04-04T10:43:37.167Z</time></trkpt><trkpt lat="43.1597594" lon="11.3937415"><ele>276.3333333333333</ele><time>2026-04-04T10:43:38.17Z</time></trkpt><trkpt lat="43.1596054" lon="11.3938409"><ele>276.0</ele><time>2026-04-04T10:43:39.169Z</time></trkpt><trkpt lat="43.1594649" lon="11.3939675"><ele>276.0</ele><time>2026-04-04T10:43:40.169Z</time></trkpt><trkpt lat="43.1593329" lon="11.3940969"><ele>276.0</ele><time>2026-04-04T10:43:41.168Z</time></trkpt><trkpt lat="43.1592068" lon="11.3942445"><ele>276.0</ele><time>2026-04-04T10:43:42.169Z</time></trkpt><trkpt lat="43.1590891" lon="11.3944153"><ele>277.0</ele><time>2026-04-04T10:43:43.168Z</time></trkpt><trkpt lat="43.1589752" lon="11.3945977"><ele>278.0</ele><time>2026-04-04T10:43:44.169Z</time></trkpt><trkpt lat="43.1588808" lon="11.3947908"><ele>279.0</ele><time>2026-04-04T10:43:45.169Z</time></trkpt><trkpt lat="43.1588052" lon="11.395005"><ele>279.0</ele><time>2026-04-04T10:43:46.169Z</time></trkpt><trkpt lat="43.1587517" lon="11.3952321"><ele>279.0</ele><time>2026-04-04T10:43:47.169Z</time></trkpt><trkpt lat="43.1587142" lon="11.3954736"><ele>279.0</ele><time>2026-04-04T10:43:48.169Z</time></trkpt><trkpt lat="43.1587022" lon="11.3957246"><ele>279.0</ele><time>2026-04-04T10:43:49.169Z</time></trkpt><trkpt lat="43.1586947" lon="11.3959814"><ele>279.0</ele><time>2026-04-04T10:43:50.17Z</time></trkpt><trkpt lat="43.1586874" lon="11.3962234"><ele>279.0</ele><time>2026-04-04T10:43:51.169Z</time></trkpt><trkpt lat="43.1586855" lon="11.3964592"><ele>279.3333333333333</ele><time>2026-04-04T10:43:52.168Z</time></trkpt><trkpt lat="43.1586831" lon="11.3966912"><ele>279.66666666666663</ele><time>2026-04-04T10:43:53.169Z</time></trkpt><trkpt lat="43.1586805" lon="11.3969189"><ele>280.0</ele><time>2026-04-04T10:43:54.169Z</time></trkpt><trkpt lat="43.1586784" lon="11.3971487"><ele>280.0</ele><time>2026-04-04T10:43:55.169Z</time></trkpt><trkpt lat="43.1586788" lon="11.397383"><ele>280.0</ele><time>2026-04-04T10:43:56.168Z</time></trkpt><trkpt lat="43.1586874" lon="11.397617"><ele>280.0</ele><time>2026-04-04T10:43:57.169Z</time></trkpt><trkpt lat="43.1587126" lon="11.3978418"><ele>280.66666666666663</ele><time>2026-04-04T10:43:58.167Z</time></trkpt><trkpt lat="43.1587485" lon="11.3980661"><ele>281.3333333333333</ele><time>2026-04-04T10:43:59.167Z</time></trkpt><trkpt lat="43.1587827" lon="11.3983104"><ele>282.0</ele><time>2026-04-04T10:44:00.168Z</time></trkpt><trkpt lat="43.1588228" lon="11.3985106"><ele>282.0</ele><time>2026-04-04T10:44:01.169Z</time></trkpt><trkpt lat="43.1588722" lon="11.3987051"><ele>282.0</ele><time>2026-04-04T10:44:02.167Z</time></trkpt><trkpt lat="43.1589016" lon="11.3988948"><ele>282.0</ele><time>2026-04-04T10:44:03.168Z</time></trkpt><trkpt lat="43.1589135" lon="11.3990811"><ele>282.0</ele><time>2026-04-04T10:44:04.169Z</time></trkpt><trkpt lat="43.1588982" lon="11.3992554"><ele>282.4</ele><time>2026-04-04T10:44:05.168Z</time></trkpt><trkpt lat="43.1588669" lon="11.3994046"><ele>282.79999999999995</ele><time>2026-04-04T10:44:06.168Z</time></trkpt><trkpt lat="43.15882" lon="11.3995348"><ele>283.2</ele><time>2026-04-04T10:44:07.169Z</time></trkpt><trkpt lat="43.1587182" lon="11.3995974"><ele>283.59999999999997</ele><time>2026-04-04T10:44:08.169Z</time></trkpt><trkpt lat="43.1586197" lon="11.3996495"><ele>284.0</ele><time>2026-04-04T10:44:09.169Z</time></trkpt><trkpt lat="43.1584776" lon="11.3996642"><ele>284.0</ele><time>2026-04-04T10:44:10.168Z</time></trkpt><trkpt lat="43.158335" lon="11.3996304"><ele>284.0</ele><time>2026-04-04T10:44:11.169Z</time></trkpt><trkpt lat="43.1581933" lon="11.3996181"><ele>284.0</ele><time>2026-04-04T10:44:12.169Z</time></trkpt><trkpt lat="43.1580385" lon="11.3996575"><ele>284.0</ele><time>2026-04-04T10:44:13.17Z</time></trkpt><trkpt lat="43.1578984" lon="11.3997552"><ele>286.0</ele><time>2026-04-04T10:44:14.167Z</time></trkpt><trkpt lat="43.1577655" lon="11.3998675"><ele>288.0</ele><time>2026-04-04T10:44:15.169Z</time></trkpt><trkpt lat="43.1576142" lon="11.3999897"><ele>290.0</ele><time>2026-04-04T10:44:16.169Z</time></trkpt><trkpt lat="43.1574754" lon="11.400086"><ele>291.0</ele><time>2026-04-04T10:44:17.168Z</time></trkpt><trkpt lat="43.1573365" lon="11.4001368"><ele>292.0</ele><time>2026-04-04T10:44:18.168Z</time></trkpt><trkpt lat="43.1571952" lon="11.4001584"><ele>293.0</ele><time>2026-04-04T10:44:19.168Z</time></trkpt><trkpt lat="43.1570552" lon="11.4001533"><ele>294.0</ele><time>2026-04-04T10:44:20.169Z</time></trkpt><trkpt lat="43.1569098" lon="11.4000928"><ele>294.0</ele><time>2026-04-04T10:44:21.169Z</time></trkpt><trkpt lat="43.1568005" lon="11.4000398"><ele>294.0</ele><time>2026-04-04T10:44:22.167Z</time></trkpt><trkpt lat="43.1566766" lon="11.3999998"><ele>294.0</ele><time>2026-04-04T10:44:23.169Z</time></trkpt><trkpt lat="43.1565618" lon="11.3999628"><ele>294.0</ele><time>2026-04-04T10:44:24.168Z</time></trkpt><trkpt lat="43.1564835" lon="11.3999892"><ele>294.0</ele><time>2026-04-04T10:44:25.17Z</time></trkpt><trkpt lat="43.1564029" lon="11.4000283"><ele>296.59999999999997</ele><time>2026-04-04T10:44:26.169Z</time></trkpt><trkpt lat="43.1563573" lon="11.4001396"><ele>299.2</ele><time>2026-04-04T10:44:27.169Z</time></trkpt><trkpt lat="43.1563454" lon="11.4002838"><ele>301.79999999999995</ele><time>2026-04-04T10:44:28.169Z</time></trkpt><trkpt lat="43.1563281" lon="11.4004188"><ele>304.4</ele><time>2026-04-04T10:44:29.169Z</time></trkpt><trkpt lat="43.1563818" lon="11.4005452"><ele>307.0</ele><time>2026-04-04T10:44:30.169Z</time></trkpt><trkpt lat="43.1564308" lon="11.4006966"><ele>307.3333333333333</ele><time>2026-04-04T10:44:31.168Z</time></trkpt><trkpt lat="43.1565327" lon="11.4009221"><ele>307.6666666666667</ele><time>2026-04-04T10:44:32.17Z</time></trkpt><trkpt lat="43.1566076" lon="11.4011405"><ele>308.0</ele><time>2026-04-04T10:44:33.168Z</time></trkpt><trkpt lat="43.1566669" lon="11.4013099"><ele>302.25</ele><time>2026-04-04T10:44:34.167Z</time></trkpt><trkpt lat="43.1567073" lon="11.4014894"><ele>296.5</ele><time>2026-04-04T10:44:35.168Z</time></trkpt><trkpt lat="43.1567307" lon="11.4016695"><ele>290.75</ele><time>2026-04-04T10:44:36.168Z</time></trkpt><trkpt lat="43.1567071" lon="11.4018661"><ele>285.0</ele><time>2026-04-04T10:44:37.17Z</time></trkpt><trkpt lat="43.1566603" lon="11.4020845"><ele>284.3333333333333</ele><time>2026-04-04T10:44:38.169Z</time></trkpt><trkpt lat="43.1566177" lon="11.4023116"><ele>283.66666666666663</ele><time>2026-04-04T10:44:39.167Z</time></trkpt><trkpt lat="43.1565666" lon="11.4025262"><ele>283.0</ele><time>2026-04-04T10:44:40.168Z</time></trkpt><trkpt lat="43.1565297" lon="11.4027543"><ele>288.0</ele><time>2026-04-04T10:44:41.168Z</time></trkpt><trkpt lat="43.1564967" lon="11.402972"><ele>293.0</ele><time>2026-04-04T10:44:42.168Z</time></trkpt><trkpt lat="43.1564772" lon="11.4031824"><ele>298.0</ele><time>2026-04-04T10:44:43.167Z</time></trkpt><trkpt lat="43.1564436" lon="11.4033791"><ele>298.0</ele><time>2026-04-04T10:44:44.169Z</time></trkpt><trkpt lat="43.1564206" lon="11.4035816"><ele>298.0</ele><time>2026-04-04T10:44:45.169Z</time></trkpt><trkpt lat="43.1564046" lon="11.4037759"><ele>298.0</ele><time>2026-04-04T10:44:46.167Z</time></trkpt><trkpt lat="43.1563871" lon="11.403953"><ele>298.0</ele><time>2026-04-04T10:44:47.168Z</time></trkpt><trkpt lat="43.1563504" lon="11.4041186"><ele>296.5</ele><time>2026-04-04T10:44:48.169Z</time></trkpt><trkpt lat="43.1562872" lon="11.404279"><ele>295.0</ele><time>2026-04-04T10:44:49.167Z</time></trkpt><trkpt lat="43.1562058" lon="11.4044295"><ele>293.5</ele><time>2026-04-04T10:44:50.168Z</time></trkpt><trkpt lat="43.1561103" lon="11.4045489"><ele>292.0</ele><time>2026-04-04T10:44:51.169Z</time></trkpt><trkpt lat="43.156013" lon="11.4046548"><ele>290.25</ele><time>2026-04-04T10:44:52.169Z</time></trkpt><trkpt lat="43.1558929" lon="11.4047456"><ele>288.5</ele><time>2026-04-04T10:44:53.169Z</time></trkpt><trkpt lat="43.1557691" lon="11.4048145"><ele>286.75</ele><time>2026-04-04T10:44:54.169Z</time></trkpt><trkpt lat="43.1556366" lon="11.4048457"><ele>285.0</ele><time>2026-04-04T10:44:55.168Z</time></trkpt><trkpt lat="43.155501" lon="11.4048704"><ele>285.0</ele><time>2026-04-04T10:44:56.167Z</time></trkpt><trkpt lat="43.1553692" lon="11.4049015"><ele>285.0</ele><time>2026-04-04T10:44:57.168Z</time></trkpt><trkpt lat="43.1552458" lon="11.4049479"><ele>285.0</ele><time>2026-04-04T10:44:58.169Z</time></trkpt><trkpt lat="43.15513" lon="11.4049956"><ele>285.0</ele><time>2026-04-04T10:44:59.168Z</time></trkpt><trkpt lat="43.1549999" lon="11.405044"><ele>287.25</ele><time>2026-04-04T10:45:00.169Z</time></trkpt><trkpt lat="43.1548616" lon="11.4050965"><ele>289.5</ele><time>2026-04-04T10:45:01.168Z</time></trkpt><trkpt lat="43.1547227" lon="11.40515"><ele>291.75</ele><time>2026-04-04T10:45:02.168Z</time></trkpt><trkpt lat="43.1545889" lon="11.4052202"><ele>294.0</ele><time>2026-04-04T10:45:03.168Z</time></trkpt><trkpt lat="43.1544603" lon="11.4052972"><ele>294.0</ele><time>2026-04-04T10:45:04.169Z</time></trkpt><trkpt lat="43.1543306" lon="11.4053892"><ele>294.0</ele><time>2026-04-04T10:45:05.169Z</time></trkpt><trkpt lat="43.1542073" lon="11.405488"><ele>294.0</ele><time>2026-04-04T10:45:06.169Z</time></trkpt><trkpt lat="43.1540725" lon="11.4055725"><ele>294.0</ele><time>2026-04-04T10:45:07.168Z</time></trkpt><trkpt lat="43.153927" lon="11.4056267"><ele>291.3333333333333</ele><time>2026-04-04T10:45:08.168Z</time></trkpt><trkpt lat="43.1537587" lon="11.4056482"><ele>288.66666666666663</ele><time>2026-04-04T10:45:09.169Z</time></trkpt><trkpt lat="43.1536016" lon="11.4056589"><ele>286.0</ele><time>2026-04-04T10:45:10.169Z</time></trkpt><trkpt lat="43.1534586" lon="11.4056916"><ele>286.0</ele><time>2026-04-04T10:45:11.168Z</time></trkpt><trkpt lat="43.1533205" lon="11.4057525"><ele>286.0</ele><time>2026-04-04T10:45:12.168Z</time></trkpt><trkpt lat="43.1531814" lon="11.4058195"><ele>286.0</ele><time>2026-04-04T10:45:13.169Z</time></trkpt><trkpt lat="43.1530527" lon="11.4059361"><ele>286.0</ele><time>2026-04-04T10:45:14.168Z</time></trkpt><trkpt lat="43.1529299" lon="11.406064"><ele>285.0</ele><time>2026-04-04T10:45:15.167Z</time></trkpt><trkpt lat="43.1528018" lon="11.4061966"><ele>284.0</ele><time>2026-04-04T10:45:16.169Z</time></trkpt><trkpt lat="43.1526663" lon="11.4063118"><ele>283.0</ele><time>2026-04-04T10:45:17.168Z</time></trkpt><trkpt lat="43.1525214" lon="11.4063967"><ele>283.0</ele><time>2026-04-04T10:45:18.167Z</time></trkpt><trkpt lat="43.1523717" lon="11.4064662"><ele>283.0</ele><time>2026-04-04T10:45:19.168Z</time></trkpt><trkpt lat="43.1522196" lon="11.4065285"><ele>283.0</ele><time>2026-04-04T10:45:20.168Z</time></trkpt><trkpt lat="43.1520486" lon="11.4065504"><ele>283.0</ele><time>2026-04-04T10:45:21.167Z</time></trkpt><trkpt lat="43.1518768" lon="11.4065658"><ele>283.0</ele><time>2026-04-04T10:45:22.168Z</time></trkpt><trkpt lat="43.1517196" lon="11.4065906"><ele>283.0</ele><time>2026-04-04T10:45:23.169Z</time></trkpt><trkpt lat="43.1515475" lon="11.4066164"><ele>284.0</ele><time>2026-04-04T10:45:24.169Z</time></trkpt><trkpt lat="43.1513744" lon="11.4066444"><ele>285.0</ele><time>2026-04-04T10:45:25.169Z</time></trkpt><trkpt lat="43.1512159" lon="11.4066899"><ele>286.0</ele><time>2026-04-04T10:45:26.167Z</time></trkpt><trkpt lat="43.1510628" lon="11.4067327"><ele>286.0</ele><time>2026-04-04T10:45:27.167Z</time></trkpt><trkpt lat="43.1509166" lon="11.4067584"><ele>286.0</ele><time>2026-04-04T10:45:28.167Z</time></trkpt><trkpt lat="43.1507644" lon="11.4067648"><ele>286.0</ele><time>2026-04-04T10:45:29.167Z</time></trkpt><trkpt lat="43.1506163" lon="11.4067473"><ele>286.0</ele><time>2026-04-04T10:45:30.167Z</time></trkpt><trkpt lat="43.1504726" lon="11.4067216"><ele>284.75</ele><time>2026-04-04T10:45:31.168Z</time></trkpt><trkpt lat="43.1503365" lon="11.4066795"><ele>283.5</ele><time>2026-04-04T10:45:32.166Z</time></trkpt><trkpt lat="43.1502282" lon="11.4066053"><ele>282.25</ele><time>2026-04-04T10:45:33.168Z</time></trkpt><trkpt lat="43.1501231" lon="11.4065117"><ele>281.0</ele><time>2026-04-04T10:45:34.167Z</time></trkpt><trkpt lat="43.1500346" lon="11.4064053"><ele>283.6</ele><time>2026-04-04T10:45:35.167Z</time></trkpt><trkpt lat="43.1499564" lon="11.4063006"><ele>286.20000000000005</ele><time>2026-04-04T10:45:36.168Z</time></trkpt><trkpt lat="43.1498738" lon="11.4062217"><ele>288.79999999999995</ele><time>2026-04-04T10:45:37.167Z</time></trkpt><trkpt lat="43.14978" lon="11.4061647"><ele>291.4</ele><time>2026-04-04T10:45:38.168Z</time></trkpt><trkpt lat="43.1496668" lon="11.4061704"><ele>294.0</ele><time>2026-04-04T10:45:39.167Z</time></trkpt><trkpt lat="43.1495487" lon="11.4062309"><ele>291.75</ele><time>2026-04-04T10:45:40.168Z</time></trkpt><trkpt lat="43.149434" lon="11.4063309"><ele>289.5</ele><time>2026-04-04T10:45:41.168Z</time></trkpt><trkpt lat="43.1493389" lon="11.4064747"><ele>287.25</ele><time>2026-04-04T10:45:42.168Z</time></trkpt><trkpt lat="43.1492441" lon="11.4065816"><ele>285.0</ele><time>2026-04-04T10:45:43.169Z</time></trkpt><trkpt lat="43.1491352" lon="11.4066524"><ele>286.0</ele><time>2026-04-04T10:45:44.168Z</time></trkpt><trkpt lat="43.1490018" lon="11.4066928"><ele>287.0</ele><time>2026-04-04T10:45:45.167Z</time></trkpt><trkpt lat="43.1488707" lon="11.4067202"><ele>288.0</ele><time>2026-04-04T10:45:46.169Z</time></trkpt><trkpt lat="43.1487438" lon="11.4067547"><ele>289.0</ele><time>2026-04-04T10:45:47.168Z</time></trkpt><trkpt lat="43.1486274" lon="11.4068188"><ele>289.0</ele><time>2026-04-04T10:45:48.168Z</time></trkpt><trkpt lat="43.1485145" lon="11.4069185"><ele>289.0</ele><time>2026-04-04T10:45:49.167Z</time></trkpt><trkpt lat="43.1484104" lon="11.4070536"><ele>289.0</ele><time>2026-04-04T10:45:50.167Z</time></trkpt><trkpt lat="43.1482996" lon="11.4071994"><ele>289.0</ele><time>2026-04-04T10:45:51.168Z</time></trkpt><trkpt lat="43.1482177" lon="11.4073735"><ele>290.0</ele><time>2026-04-04T10:45:52.169Z</time></trkpt><trkpt lat="43.1481259" lon="11.4075628"><ele>291.0</ele><time>2026-04-04T10:45:53.167Z</time></trkpt><trkpt lat="43.1480471" lon="11.4077561"><ele>292.0</ele><time>2026-04-04T10:45:54.169Z</time></trkpt><trkpt lat="43.1479728" lon="11.4079409"><ele>290.0</ele><time>2026-04-04T10:45:55.167Z</time></trkpt><trkpt lat="43.1479481" lon="11.4081532"><ele>288.0</ele><time>2026-04-04T10:45:56.168Z</time></trkpt><trkpt lat="43.1479148" lon="11.4083813"><ele>286.0</ele><time>2026-04-04T10:45:57.168Z</time></trkpt><trkpt lat="43.1478892" lon="11.4086369"><ele>284.0</ele><time>2026-04-04T10:45:58.168Z</time></trkpt><trkpt lat="43.1478614" lon="11.4088942"><ele>282.0</ele><time>2026-04-04T10:45:59.169Z</time></trkpt><trkpt lat="43.147826" lon="11.4091353"><ele>280.0</ele><time>2026-04-04T10:46:00.169Z</time></trkpt><trkpt lat="43.1478048" lon="11.4093615"><ele>280.0</ele><time>2026-04-04T10:46:01.167Z</time></trkpt><trkpt lat="43.1477572" lon="11.4095728"><ele>280.0</ele><time>2026-04-04T10:46:02.169Z</time></trkpt><trkpt lat="43.1477188" lon="11.4097633"><ele>280.0</ele><time>2026-04-04T10:46:03.169Z</time></trkpt><trkpt lat="43.1476769" lon="11.4099438"><ele>280.0</ele><time>2026-04-04T10:46:04.168Z</time></trkpt><trkpt lat="43.1476074" lon="11.4101086"><ele>278.25</ele><time>2026-04-04T10:46:05.168Z</time></trkpt><trkpt lat="43.1475293" lon="11.4102723"><ele>276.5</ele><time>2026-04-04T10:46:06.169Z</time></trkpt><trkpt lat="43.1474318" lon="11.4104095"><ele>274.75</ele><time>2026-04-04T10:46:07.168Z</time></trkpt><trkpt lat="43.1473111" lon="11.4105127"><ele>273.0</ele><time>2026-04-04T10:46:08.168Z</time></trkpt><trkpt lat="43.1471767" lon="11.4106079"><ele>270.6666666666667</ele><time>2026-04-04T10:46:09.169Z</time></trkpt><trkpt lat="43.1470379" lon="11.4107048"><ele>268.33333333333337</ele><time>2026-04-04T10:46:10.168Z</time></trkpt><trkpt lat="43.1468989" lon="11.4108174"><ele>266.0</ele><time>2026-04-04T10:46:11.167Z</time></trkpt><trkpt lat="43.1467707" lon="11.4109423"><ele>266.0</ele><time>2026-04-04T10:46:12.169Z</time></trkpt><trkpt lat="43.1466645" lon="11.4110915"><ele>266.0</ele><time>2026-04-04T10:46:13.169Z</time></trkpt><trkpt lat="43.1465546" lon="11.4112492"><ele>266.0</ele><time>2026-04-04T10:46:14.168Z</time></trkpt><trkpt lat="43.1464537" lon="11.4114371"><ele>264.33333333333337</ele><time>2026-04-04T10:46:15.168Z</time></trkpt><trkpt lat="43.14635" lon="11.4116141"><ele>262.6666666666667</ele><time>2026-04-04T10:46:16.169Z</time></trkpt><trkpt lat="43.1462482" lon="11.4117932"><ele>261.0</ele><time>2026-04-04T10:46:17.168Z</time></trkpt><trkpt lat="43.1461539" lon="11.4119652"><ele>261.0</ele><time>2026-04-04T10:46:18.168Z</time></trkpt><trkpt lat="43.1460775" lon="11.4121383"><ele>261.0</ele><time>2026-04-04T10:46:19.168Z</time></trkpt><trkpt lat="43.1460126" lon="11.4123156"><ele>261.0</ele><time>2026-04-04T10:46:20.167Z</time></trkpt><trkpt lat="43.1459629" lon="11.4124934"><ele>261.0</ele><time>2026-04-04T10:46:21.167Z</time></trkpt><trkpt lat="43.1459222" lon="11.4126762"><ele>259.0</ele><time>2026-04-04T10:46:22.167Z</time></trkpt><trkpt lat="43.1458816" lon="11.4128512"><ele>257.0</ele><time>2026-04-04T10:46:23.168Z</time></trkpt><trkpt lat="43.145836" lon="11.4130327"><ele>255.0</ele><time>2026-04-04T10:46:24.169Z</time></trkpt><trkpt lat="43.1457745" lon="11.4132195"><ele>253.0</ele><time>2026-04-04T10:46:25.169Z</time></trkpt><trkpt lat="43.145697" lon="11.4133932"><ele>251.25</ele><time>2026-04-04T10:46:26.167Z</time></trkpt><trkpt lat="43.1456103" lon="11.4135416"><ele>249.5</ele><time>2026-04-04T10:46:27.168Z</time></trkpt><trkpt lat="43.1455183" lon="11.4136842"><ele>247.75</ele><time>2026-04-04T10:46:28.167Z</time></trkpt><trkpt lat="43.1454262" lon="11.4138086"><ele>246.0</ele><time>2026-04-04T10:46:29.168Z</time></trkpt><trkpt lat="43.1453547" lon="11.4139303"><ele>245.0</ele><time>2026-04-04T10:46:30.167Z</time></trkpt><trkpt lat="43.1452947" lon="11.4140542"><ele>244.0</ele><time>2026-04-04T10:46:31.168Z</time></trkpt><trkpt lat="43.1452477" lon="11.4141933"><ele>243.0</ele><time>2026-04-04T10:46:32.168Z</time></trkpt><trkpt lat="43.1452339" lon="11.4143548"><ele>242.0</ele><time>2026-04-04T10:46:33.167Z</time></trkpt><trkpt lat="43.14524" lon="11.4145077"><ele>240.5</ele><time>2026-04-04T10:46:34.168Z</time></trkpt><trkpt lat="43.1452702" lon="11.4146583"><ele>239.0</ele><time>2026-04-04T10:46:35.167Z</time></trkpt><trkpt lat="43.1453256" lon="11.4147998"><ele>237.5</ele><time>2026-04-04T10:46:36.168Z</time></trkpt><trkpt lat="43.145406" lon="11.4149168"><ele>236.0</ele><time>2026-04-04T10:46:37.167Z</time></trkpt><trkpt lat="43.1454871" lon="11.4150407"><ele>236.0</ele><time>2026-04-04T10:46:38.167Z</time></trkpt><trkpt lat="43.1455657" lon="11.415171"><ele>236.0</ele><time>2026-04-04T10:46:39.166Z</time></trkpt><trkpt lat="43.145643" lon="11.4153048"><ele>236.0</ele><time>2026-04-04T10:46:40.166Z</time></trkpt><trkpt lat="43.1457046" lon="11.4154478"><ele>236.0</ele><time>2026-04-04T10:46:41.166Z</time></trkpt><trkpt lat="43.1457444" lon="11.4155935"><ele>236.0</ele><time>2026-04-04T10:46:42.167Z</time></trkpt><trkpt lat="43.145768" lon="11.4157414"><ele>236.00000000000003</ele><time>2026-04-04T10:46:43.168Z</time></trkpt><trkpt lat="43.1457883" lon="11.4158965"><ele>236.00000000000003</ele><time>2026-04-04T10:46:44.168Z</time></trkpt><trkpt lat="43.1457851" lon="11.4160477"><ele>236.0</ele><time>2026-04-04T10:46:45.167Z</time></trkpt><trkpt lat="43.1457725" lon="11.4161927"><ele>236.0</ele><time>2026-04-04T10:46:46.167Z</time></trkpt><trkpt lat="43.1457624" lon="11.4163624"><ele>236.0</ele><time>2026-04-04T10:46:47.167Z</time></trkpt><trkpt lat="43.1457493" lon="11.4165384"><ele>236.0</ele><time>2026-04-04T10:46:48.167Z</time></trkpt><trkpt lat="43.1457296" lon="11.4167207"><ele>236.0</ele><time>2026-04-04T10:46:49.168Z</time></trkpt><trkpt lat="43.1456975" lon="11.4169036"><ele>236.0</ele><time>2026-04-04T10:46:50.168Z</time></trkpt><trkpt lat="43.1456682" lon="11.4170906"><ele>229.66666666666669</ele><time>2026-04-04T10:46:51.167Z</time></trkpt><trkpt lat="43.1456259" lon="11.4172875"><ele>223.33333333333331</ele><time>2026-04-04T10:46:52.168Z</time></trkpt><trkpt lat="43.1455712" lon="11.4174803"><ele>217.0</ele><time>2026-04-04T10:46:53.168Z</time></trkpt><trkpt lat="43.1455132" lon="11.41768"><ele>217.0</ele><time>2026-04-04T10:46:54.167Z</time></trkpt><trkpt lat="43.1454613" lon="11.4178644"><ele>217.0</ele><time>2026-04-04T10:46:55.167Z</time></trkpt><trkpt lat="43.1454163" lon="11.4180604"><ele>217.0</ele><time>2026-04-04T10:46:56.168Z</time></trkpt><trkpt lat="43.1453802" lon="11.4182583"><ele>217.0</ele><time>2026-04-04T10:46:57.167Z</time></trkpt><trkpt lat="43.145364" lon="11.4184723"><ele>216.0</ele><time>2026-04-04T10:46:58.166Z</time></trkpt><trkpt lat="43.1453561" lon="11.4186852"><ele>215.0</ele><time>2026-04-04T10:46:59.167Z</time></trkpt><trkpt lat="43.1453493" lon="11.4188887"><ele>214.0</ele><time>2026-04-04T10:47:00.167Z</time></trkpt><trkpt lat="43.1453345" lon="11.4191063"><ele>213.66666666666666</ele><time>2026-04-04T10:47:01.167Z</time></trkpt><trkpt lat="43.1453012" lon="11.4193118"><ele>213.33333333333331</ele><time>2026-04-04T10:47:02.169Z</time></trkpt><trkpt lat="43.1452585" lon="11.4195161"><ele>213.0</ele><time>2026-04-04T10:47:03.168Z</time></trkpt><trkpt lat="43.1452111" lon="11.4197268"><ele>212.0</ele><time>2026-04-04T10:47:04.168Z</time></trkpt><trkpt lat="43.1451776" lon="11.4199385"><ele>211.0</ele><time>2026-04-04T10:47:05.167Z</time></trkpt><trkpt lat="43.1451607" lon="11.420145"><ele>210.0</ele><time>2026-04-04T10:47:06.168Z</time></trkpt><trkpt lat="43.1451622" lon="11.4203462"><ele>209.25</ele><time>2026-04-04T10:47:07.167Z</time></trkpt><trkpt lat="43.1451644" lon="11.420548"><ele>208.5</ele><time>2026-04-04T10:47:08.168Z</time></trkpt><trkpt lat="43.1451629" lon="11.4207502"><ele>207.75</ele><time>2026-04-04T10:47:09.168Z</time></trkpt><trkpt lat="43.1451525" lon="11.4209487"><ele>207.0</ele><time>2026-04-04T10:47:10.167Z</time></trkpt><trkpt lat="43.1451051" lon="11.4211287"><ele>207.0</ele><time>2026-04-04T10:47:11.167Z</time></trkpt><trkpt lat="43.1450445" lon="11.421294"><ele>207.0</ele><time>2026-04-04T10:47:12.167Z</time></trkpt><trkpt lat="43.1449574" lon="11.4214281"><ele>207.0</ele><time>2026-04-04T10:47:13.168Z</time></trkpt><trkpt lat="43.144849" lon="11.421542"><ele>207.0</ele><time>2026-04-04T10:47:14.166Z</time></trkpt><trkpt lat="43.1447302" lon="11.4216314"><ele>206.0</ele><time>2026-04-04T10:47:15.167Z</time></trkpt><trkpt lat="43.144598" lon="11.4216986"><ele>205.0</ele><time>2026-04-04T10:47:16.168Z</time></trkpt><trkpt lat="43.1444537" lon="11.421747"><ele>204.0</ele><time>2026-04-04T10:47:17.166Z</time></trkpt><trkpt lat="43.1443043" lon="11.4217748"><ele>203.0</ele><time>2026-04-04T10:47:18.168Z</time></trkpt><trkpt lat="43.1441542" lon="11.4217952"><ele>201.66666666666669</ele><time>2026-04-04T10:47:19.167Z</time></trkpt><trkpt lat="43.1440019" lon="11.4218147"><ele>200.33333333333331</ele><time>2026-04-04T10:47:20.168Z</time></trkpt><trkpt lat="43.143846" lon="11.4218105"><ele>199.0</ele><time>2026-04-04T10:47:21.168Z</time></trkpt><trkpt lat="43.1436981" lon="11.4217895"><ele>199.0</ele><time>2026-04-04T10:47:22.168Z</time></trkpt><trkpt lat="43.1435479" lon="11.4217546"><ele>199.0</ele><time>2026-04-04T10:47:23.167Z</time></trkpt><trkpt lat="43.1434006" lon="11.4217035"><ele>199.0</ele><time>2026-04-04T10:47:24.168Z</time></trkpt><trkpt lat="43.1432644" lon="11.4216504"><ele>199.0</ele><time>2026-04-04T10:47:25.167Z</time></trkpt><trkpt lat="43.1431333" lon="11.4215968"><ele>198.75</ele><time>2026-04-04T10:47:26.168Z</time></trkpt><trkpt lat="43.1430024" lon="11.4215576"><ele>198.5</ele><time>2026-04-04T10:47:27.167Z</time></trkpt><trkpt lat="43.1428713" lon="11.4215194"><ele>198.25</ele><time>2026-04-04T10:47:28.168Z</time></trkpt><trkpt lat="43.142751" lon="11.4214781"><ele>198.0</ele><time>2026-04-04T10:47:29.167Z</time></trkpt><trkpt lat="43.1426353" lon="11.4214418"><ele>198.0</ele><time>2026-04-04T10:47:30.166Z</time></trkpt><trkpt lat="43.1425266" lon="11.4214075"><ele>198.0</ele><time>2026-04-04T10:47:31.167Z</time></trkpt><trkpt lat="43.1424203" lon="11.4213848"><ele>198.0</ele><time>2026-04-04T10:47:32.167Z</time></trkpt><trkpt lat="43.142301" lon="11.4213965"><ele>198.0</ele><time>2026-04-04T10:47:33.167Z</time></trkpt><trkpt lat="43.1421749" lon="11.421416"><ele>196.75</ele><time>2026-04-04T10:47:34.167Z</time></trkpt><trkpt lat="43.142057" lon="11.4214619"><ele>195.5</ele><time>2026-04-04T10:47:35.167Z</time></trkpt><trkpt lat="43.1419357" lon="11.4215117"><ele>194.25</ele><time>2026-04-04T10:47:36.168Z</time></trkpt><trkpt lat="43.1418094" lon="11.4215789"><ele>193.0</ele><time>2026-04-04T10:47:37.168Z</time></trkpt><trkpt lat="43.1416793" lon="11.4216119"><ele>194.25</ele><time>2026-04-04T10:47:38.168Z</time></trkpt><trkpt lat="43.1415457" lon="11.4216252"><ele>195.5</ele><time>2026-04-04T10:47:39.166Z</time></trkpt><trkpt lat="43.1414126" lon="11.4216024"><ele>196.75</ele><time>2026-04-04T10:47:40.168Z</time></trkpt><trkpt lat="43.1412803" lon="11.4215466"><ele>198.0</ele><time>2026-04-04T10:47:41.167Z</time></trkpt><trkpt lat="43.1411543" lon="11.4214712"><ele>198.0</ele><time>2026-04-04T10:47:42.168Z</time></trkpt><trkpt lat="43.1410331" lon="11.4213566"><ele>198.0</ele><time>2026-04-04T10:47:43.166Z</time></trkpt><trkpt lat="43.1409184" lon="11.4212372"><ele>198.0</ele><time>2026-04-04T10:47:44.168Z</time></trkpt><trkpt lat="43.1408088" lon="11.4211133"><ele>198.0</ele><time>2026-04-04T10:47:45.167Z</time></trkpt><trkpt lat="43.1406951" lon="11.4210028"><ele>198.25</ele><time>2026-04-04T10:47:46.167Z</time></trkpt><trkpt lat="43.1405813" lon="11.4209034"><ele>198.5</ele><time>2026-04-04T10:47:47.168Z</time></trkpt><trkpt lat="43.1404701" lon="11.4208309"><ele>198.75</ele><time>2026-04-04T10:47:48.168Z</time></trkpt><trkpt lat="43.1403434" lon="11.4207725"><ele>199.0</ele><time>2026-04-04T10:47:49.167Z</time></trkpt><trkpt lat="43.1402067" lon="11.4207283"><ele>199.0</ele><time>2026-04-04T10:47:50.166Z</time></trkpt><trkpt lat="43.1400619" lon="11.4207142"><ele>199.0</ele><time>2026-04-04T10:47:51.167Z</time></trkpt><trkpt lat="43.1399178" lon="11.4207243"><ele>199.0</ele><time>2026-04-04T10:47:52.167Z</time></trkpt><trkpt lat="43.139767" lon="11.420739"><ele>199.0</ele><time>2026-04-04T10:47:53.168Z</time></trkpt><trkpt lat="43.1396153" lon="11.4207658"><ele>199.33333333333331</ele><time>2026-04-04T10:47:54.168Z</time></trkpt><trkpt lat="43.1394706" lon="11.4208118"><ele>199.66666666666669</ele><time>2026-04-04T10:47:55.168Z</time></trkpt><trkpt lat="43.1393237" lon="11.4208905"><ele>200.0</ele><time>2026-04-04T10:47:56.168Z</time></trkpt><trkpt lat="43.1391886" lon="11.4209849"><ele>200.0</ele><time>2026-04-04T10:47:57.167Z</time></trkpt><trkpt lat="43.1390533" lon="11.4210728"><ele>200.0</ele><time>2026-04-04T10:47:58.167Z</time></trkpt><trkpt lat="43.1389034" lon="11.4211454"><ele>200.0</ele><time>2026-04-04T10:47:59.166Z</time></trkpt><trkpt lat="43.1387515" lon="11.4212122"><ele>200.33333333333334</ele><time>2026-04-04T10:48:00.167Z</time></trkpt><trkpt lat="43.1386003" lon="11.4212659"><ele>200.66666666666669</ele><time>2026-04-04T10:48:01.169Z</time></trkpt><trkpt lat="43.138444" lon="11.4213236"><ele>201.0</ele><time>2026-04-04T10:48:02.166Z</time></trkpt><trkpt lat="43.1383105" lon="11.4213939"><ele>201.0</ele><time>2026-04-04T10:48:03.167Z</time></trkpt><trkpt lat="43.1381893" lon="11.4214968"><ele>201.0</ele><time>2026-04-04T10:48:04.167Z</time></trkpt><trkpt lat="43.138091" lon="11.4216326"><ele>201.0</ele><time>2026-04-04T10:48:05.168Z</time></trkpt><trkpt lat="43.1380094" lon="11.4217829"><ele>201.0</ele><time>2026-04-04T10:48:06.168Z</time></trkpt><trkpt lat="43.1379338" lon="11.4219456"><ele>201.0</ele><time>2026-04-04T10:48:07.168Z</time></trkpt><trkpt lat="43.1378506" lon="11.4221037"><ele>201.0</ele><time>2026-04-04T10:48:08.168Z</time></trkpt><trkpt lat="43.1377532" lon="11.4222425"><ele>201.0</ele><time>2026-04-04T10:48:09.168Z</time></trkpt><trkpt lat="43.1376235" lon="11.4223627"><ele>201.0</ele><time>2026-04-04T10:48:10.166Z</time></trkpt><trkpt lat="43.1374987" lon="11.4224536"><ele>203.33333333333331</ele><time>2026-04-04T10:48:11.167Z</time></trkpt><trkpt lat="43.1373539" lon="11.4225303"><ele>205.66666666666666</ele><time>2026-04-04T10:48:12.166Z</time></trkpt><trkpt lat="43.1372069" lon="11.4225744"><ele>208.0</ele><time>2026-04-04T10:48:13.168Z</time></trkpt><trkpt lat="43.1370548" lon="11.4226285"><ele>208.0</ele><time>2026-04-04T10:48:14.168Z</time></trkpt><trkpt lat="43.1369019" lon="11.4226851"><ele>208.0</ele><time>2026-04-04T10:48:15.167Z</time></trkpt><trkpt lat="43.1367426" lon="11.4227466"><ele>208.0</ele><time>2026-04-04T10:48:16.166Z</time></trkpt><trkpt lat="43.1366481" lon="11.4228844"><ele>208.25</ele><time>2026-04-04T10:48:17.167Z</time></trkpt><trkpt lat="43.136537" lon="11.4230022"><ele>208.5</ele><time>2026-04-04T10:48:18.168Z</time></trkpt><trkpt lat="43.1364425" lon="11.4231499"><ele>208.75</ele><time>2026-04-04T10:48:19.167Z</time></trkpt><trkpt lat="43.1363656" lon="11.4233153"><ele>209.0</ele><time>2026-04-04T10:48:20.168Z</time></trkpt><trkpt lat="43.1362945" lon="11.4234929"><ele>209.0</ele><time>2026-04-04T10:48:21.168Z</time></trkpt><trkpt lat="43.1362246" lon="11.4236757"><ele>209.0</ele><time>2026-04-04T10:48:22.168Z</time></trkpt><trkpt lat="43.136133" lon="11.4238436"><ele>209.0</ele><time>2026-04-04T10:48:23.167Z</time></trkpt><trkpt lat="43.1360146" lon="11.4239942"><ele>211.0</ele><time>2026-04-04T10:48:24.166Z</time></trkpt><trkpt lat="43.1358915" lon="11.4241463"><ele>213.0</ele><time>2026-04-04T10:48:25.168Z</time></trkpt><trkpt lat="43.1357763" lon="11.424285"><ele>215.0</ele><time>2026-04-04T10:48:26.167Z</time></trkpt><trkpt lat="43.1356461" lon="11.4244254"><ele>216.33333333333334</ele><time>2026-04-04T10:48:27.167Z</time></trkpt><trkpt lat="43.1355063" lon="11.4245687"><ele>217.66666666666669</ele><time>2026-04-04T10:48:28.168Z</time></trkpt><trkpt lat="43.1353641" lon="11.4247212"><ele>219.0</ele><time>2026-04-04T10:48:29.167Z</time></trkpt><trkpt lat="43.1352214" lon="11.4248688"><ele>221.33333333333331</ele><time>2026-04-04T10:48:30.168Z</time></trkpt><trkpt lat="43.1350794" lon="11.4250135"><ele>223.66666666666666</ele><time>2026-04-04T10:48:31.168Z</time></trkpt><trkpt lat="43.1349423" lon="11.4251764"><ele>226.0</ele><time>2026-04-04T10:48:32.168Z</time></trkpt><trkpt lat="43.1347951" lon="11.4253153"><ele>232.0</ele><time>2026-04-04T10:48:33.168Z</time></trkpt><trkpt lat="43.1346592" lon="11.4254549"><ele>238.0</ele><time>2026-04-04T10:48:34.166Z</time></trkpt><trkpt lat="43.1345265" lon="11.4255879"><ele>244.0</ele><time>2026-04-04T10:48:35.167Z</time></trkpt><trkpt lat="43.1343869" lon="11.4257367"><ele>244.0</ele><time>2026-04-04T10:48:36.167Z</time></trkpt><trkpt lat="43.1342533" lon="11.4258813"><ele>244.0</ele><time>2026-04-04T10:48:37.168Z</time></trkpt><trkpt lat="43.1341253" lon="11.4260203"><ele>244.0</ele><time>2026-04-04T10:48:38.167Z</time></trkpt><trkpt lat="43.1339912" lon="11.4261584"><ele>245.66666666666666</ele><time>2026-04-04T10:48:39.167Z</time></trkpt><trkpt lat="43.133855" lon="11.4262661"><ele>247.33333333333331</ele><time>2026-04-04T10:48:40.168Z</time></trkpt><trkpt lat="43.1337167" lon="11.4263486"><ele>249.0</ele><time>2026-04-04T10:48:41.166Z</time></trkpt><trkpt lat="43.1335715" lon="11.4264131"><ele>249.0</ele><time>2026-04-04T10:48:42.166Z</time></trkpt><trkpt lat="43.1334127" lon="11.4264398"><ele>249.0</ele><time>2026-04-04T10:48:43.168Z</time></trkpt><trkpt lat="43.1332589" lon="11.4264549"><ele>249.0</ele><time>2026-04-04T10:48:44.166Z</time></trkpt><trkpt lat="43.133083" lon="11.4264736"><ele>248.66666666666669</ele><time>2026-04-04T10:48:45.169Z</time></trkpt><trkpt lat="43.1328985" lon="11.4264907"><ele>248.33333333333334</ele><time>2026-04-04T10:48:46.168Z</time></trkpt><trkpt lat="43.1327176" lon="11.4264945"><ele>248.0</ele><time>2026-04-04T10:48:47.168Z</time></trkpt><trkpt lat="43.1325441" lon="11.4264989"><ele>248.33333333333334</ele><time>2026-04-04T10:48:48.168Z</time></trkpt><trkpt lat="43.1323654" lon="11.4265084"><ele>248.66666666666669</ele><time>2026-04-04T10:48:49.168Z</time></trkpt><trkpt lat="43.13219" lon="11.4265079"><ele>249.0</ele><time>2026-04-04T10:48:50.166Z</time></trkpt><trkpt lat="43.1320124" lon="11.4265145"><ele>249.0</ele><time>2026-04-04T10:48:51.166Z</time></trkpt><trkpt lat="43.1318434" lon="11.4265258"><ele>249.0</ele><time>2026-04-04T10:48:52.167Z</time></trkpt><trkpt lat="43.1316918" lon="11.4265403"><ele>249.0</ele><time>2026-04-04T10:48:53.167Z</time></trkpt><trkpt lat="43.1315527" lon="11.426552"><ele>249.25</ele><time>2026-04-04T10:48:54.168Z</time></trkpt><trkpt lat="43.1314228" lon="11.4265636"><ele>249.5</ele><time>2026-04-04T10:48:55.167Z</time></trkpt><trkpt lat="43.1313059" lon="11.4266023"><ele>249.75</ele><time>2026-04-04T10:48:56.167Z</time></trkpt><trkpt lat="43.1311815" lon="11.4266604"><ele>250.0</ele><time>2026-04-04T10:48:57.167Z</time></trkpt><trkpt lat="43.1310612" lon="11.426739"><ele>250.0</ele><time>2026-04-04T10:48:58.167Z</time></trkpt><trkpt lat="43.130933" lon="11.4268467"><ele>250.0</ele><time>2026-04-04T10:48:59.166Z</time></trkpt><trkpt lat="43.130811" lon="11.4269747"><ele>250.0</ele><time>2026-04-04T10:49:00.168Z</time></trkpt><trkpt lat="43.1306847" lon="11.4271185"><ele>249.0</ele><time>2026-04-04T10:49:01.167Z</time></trkpt><trkpt lat="43.1305551" lon="11.4272733"><ele>248.0</ele><time>2026-04-04T10:49:02.166Z</time></trkpt><trkpt lat="43.130428" lon="11.4274257"><ele>247.0</ele><time>2026-04-04T10:49:03.166Z</time></trkpt><trkpt lat="43.1302977" lon="11.4275908"><ele>247.0</ele><time>2026-04-04T10:49:04.168Z</time></trkpt><trkpt lat="43.1301636" lon="11.4277566"><ele>247.0</ele><time>2026-04-04T10:49:05.167Z</time></trkpt><trkpt lat="43.1300335" lon="11.427914"><ele>247.0</ele><time>2026-04-04T10:49:06.168Z</time></trkpt><trkpt lat="43.1299091" lon="11.4280563"><ele>248.25</ele><time>2026-04-04T10:49:07.165Z</time></trkpt><trkpt lat="43.1297952" lon="11.4281944"><ele>249.5</ele><time>2026-04-04T10:49:08.167Z</time></trkpt><trkpt lat="43.1296856" lon="11.4283195"><ele>250.75</ele><time>2026-04-04T10:49:09.167Z</time></trkpt><trkpt lat="43.1296073" lon="11.4284596"><ele>252.0</ele><time>2026-04-04T10:49:10.166Z</time></trkpt><trkpt lat="43.1295448" lon="11.4285931"><ele>252.0</ele><time>2026-04-04T10:49:11.167Z</time></trkpt><trkpt lat="43.1294859" lon="11.4287367"><ele>252.0</ele><time>2026-04-04T10:49:12.166Z</time></trkpt><trkpt lat="43.1294355" lon="11.4288817"><ele>252.0</ele><time>2026-04-04T10:49:13.167Z</time></trkpt><trkpt lat="43.1293903" lon="11.4290386"><ele>252.0</ele><time>2026-04-04T10:49:14.166Z</time></trkpt><trkpt lat="43.1293518" lon="11.4291881"><ele>251.5</ele><time>2026-04-04T10:49:15.167Z</time></trkpt><trkpt lat="43.1293021" lon="11.4293579"><ele>251.0</ele><time>2026-04-04T10:49:16.167Z</time></trkpt><trkpt lat="43.1292499" lon="11.4295365"><ele>250.5</ele><time>2026-04-04T10:49:17.166Z</time></trkpt><trkpt lat="43.1292" lon="11.4297159"><ele>250.0</ele><time>2026-04-04T10:49:18.166Z</time></trkpt><trkpt lat="43.1291489" lon="11.4298973"><ele>250.0</ele><time>2026-04-04T10:49:19.167Z</time></trkpt><trkpt lat="43.1290901" lon="11.430081"><ele>250.0</ele><time>2026-04-04T10:49:20.167Z</time></trkpt><trkpt lat="43.129033" lon="11.430269"><ele>250.0</ele><time>2026-04-04T10:49:21.168Z</time></trkpt><trkpt lat="43.1289738" lon="11.4304548"><ele>250.0</ele><time>2026-04-04T10:49:22.167Z</time></trkpt><trkpt lat="43.1289293" lon="11.4306293"><ele>251.75</ele><time>2026-04-04T10:49:23.167Z</time></trkpt><trkpt lat="43.128885" lon="11.4308151"><ele>253.5</ele><time>2026-04-04T10:49:24.168Z</time></trkpt><trkpt lat="43.1288406" lon="11.4309975"><ele>255.25</ele><time>2026-04-04T10:49:25.167Z</time></trkpt><trkpt lat="43.1287978" lon="11.4311837"><ele>257.0</ele><time>2026-04-04T10:49:26.167Z</time></trkpt><trkpt lat="43.1287537" lon="11.4313792"><ele>258.33333333333337</ele><time>2026-04-04T10:49:27.168Z</time></trkpt><trkpt lat="43.1287118" lon="11.4315772"><ele>259.6666666666667</ele><time>2026-04-04T10:49:28.168Z</time></trkpt><trkpt lat="43.1286678" lon="11.4317927"><ele>261.0</ele><time>2026-04-04T10:49:29.167Z</time></trkpt><trkpt lat="43.1286293" lon="11.4319934"><ele>261.0</ele><time>2026-04-04T10:49:30.168Z</time></trkpt><trkpt lat="43.1285985" lon="11.4321909"><ele>261.0</ele><time>2026-04-04T10:49:31.166Z</time></trkpt><trkpt lat="43.128597" lon="11.4323593"><ele>261.0</ele><time>2026-04-04T10:49:32.166Z</time></trkpt><trkpt lat="43.1286012" lon="11.4325515"><ele>261.0</ele><time>2026-04-04T10:49:33.167Z</time></trkpt><trkpt lat="43.1286227" lon="11.4327366"><ele>261.0</ele><time>2026-04-04T10:49:34.168Z</time></trkpt><trkpt lat="43.1286392" lon="11.4329498"><ele>261.0</ele><time>2026-04-04T10:49:35.165Z</time></trkpt><trkpt lat="43.1286539" lon="11.43319"><ele>261.0</ele><time>2026-04-04T10:49:36.165Z</time></trkpt><trkpt lat="43.1286864" lon="11.4334273"><ele>261.0</ele><time>2026-04-04T10:49:37.166Z</time></trkpt><trkpt lat="43.1287158" lon="11.4336398"><ele>261.0</ele><time>2026-04-04T10:49:38.166Z</time></trkpt><trkpt lat="43.1287613" lon="11.433855"><ele>261.0</ele><time>2026-04-04T10:49:39.169Z</time></trkpt><trkpt lat="43.1288248" lon="11.434023"><ele>261.0</ele><time>2026-04-04T10:49:40.167Z</time></trkpt><trkpt lat="43.1288991" lon="11.4342005"><ele>261.0</ele><time>2026-04-04T10:49:41.166Z</time></trkpt><trkpt lat="43.1289721" lon="11.434365"><ele>261.0</ele><time>2026-04-04T10:49:42.168Z</time></trkpt><trkpt lat="43.1290419" lon="11.434506"><ele>261.0</ele><time>2026-04-04T10:49:43.167Z</time></trkpt><trkpt lat="43.1291218" lon="11.4346675"><ele>259.5</ele><time>2026-04-04T10:49:44.167Z</time></trkpt><trkpt lat="43.1292102" lon="11.434823"><ele>258.0</ele><time>2026-04-04T10:49:45.167Z</time></trkpt><trkpt lat="43.1292993" lon="11.4349748"><ele>256.5</ele><time>2026-04-04T10:49:46.167Z</time></trkpt><trkpt lat="43.1293909" lon="11.4351519"><ele>255.0</ele><time>2026-04-04T10:49:47.167Z</time></trkpt><trkpt lat="43.1294893" lon="11.4353373"><ele>253.66666666666669</ele><time>2026-04-04T10:49:48.166Z</time></trkpt><trkpt lat="43.1295878" lon="11.4355046"><ele>252.33333333333334</ele><time>2026-04-04T10:49:49.166Z</time></trkpt><trkpt lat="43.1296875" lon="11.4356728"><ele>251.0</ele><time>2026-04-04T10:49:50.166Z</time></trkpt><trkpt lat="43.129776" lon="11.4358616"><ele>251.0</ele><time>2026-04-04T10:49:51.167Z</time></trkpt><trkpt lat="43.1298507" lon="11.4360793"><ele>251.0</ele><time>2026-04-04T10:49:52.165Z</time></trkpt><trkpt lat="43.12991" lon="11.4363353"><ele>251.0</ele><time>2026-04-04T10:49:53.167Z</time></trkpt><trkpt lat="43.1299557" lon="11.4366338"><ele>249.5</ele><time>2026-04-04T10:49:54.167Z</time></trkpt><trkpt lat="43.1299845" lon="11.4369485"><ele>248.0</ele><time>2026-04-04T10:49:55.167Z</time></trkpt><trkpt lat="43.1299974" lon="11.4372846"><ele>246.0</ele><time>2026-04-04T10:49:56.166Z</time></trkpt><trkpt lat="43.1300095" lon="11.4376028"><ele>244.0</ele><time>2026-04-04T10:49:57.167Z</time></trkpt><trkpt lat="43.1300226" lon="11.4379086"><ele>245.0</ele><time>2026-04-04T10:49:58.166Z</time></trkpt><trkpt lat="43.1300321" lon="11.4381963"><ele>246.0</ele><time>2026-04-04T10:49:59.167Z</time></trkpt><trkpt lat="43.1300389" lon="11.4384648"><ele>247.0</ele><time>2026-04-04T10:50:00.168Z</time></trkpt><trkpt lat="43.1300473" lon="11.4387205"><ele>247.66666666666666</ele><time>2026-04-04T10:50:01.167Z</time></trkpt><trkpt lat="43.1300522" lon="11.4389641"><ele>248.33333333333331</ele><time>2026-04-04T10:50:02.166Z</time></trkpt><trkpt lat="43.1300552" lon="11.4392034"><ele>249.0</ele><time>2026-04-04T10:50:03.166Z</time></trkpt><trkpt lat="43.130071" lon="11.4394055"><ele>249.0</ele><time>2026-04-04T10:50:04.166Z</time></trkpt><trkpt lat="43.1300867" lon="11.4396008"><ele>249.0</ele><time>2026-04-04T10:50:05.167Z</time></trkpt><trkpt lat="43.1300952" lon="11.4397785"><ele>249.0</ele><time>2026-04-04T10:50:06.167Z</time></trkpt><trkpt lat="43.1301034" lon="11.4399459"><ele>249.0</ele><time>2026-04-04T10:50:07.167Z</time></trkpt><trkpt lat="43.1301142" lon="11.4401095"><ele>249.6</ele><time>2026-04-04T10:50:08.165Z</time></trkpt><trkpt lat="43.130119" lon="11.4402608"><ele>250.2</ele><time>2026-04-04T10:50:09.165Z</time></trkpt><trkpt lat="43.1301137" lon="11.4404112"><ele>250.79999999999998</ele><time>2026-04-04T10:50:10.166Z</time></trkpt><trkpt lat="43.1301212" lon="11.4405443"><ele>251.39999999999998</ele><time>2026-04-04T10:50:11.168Z</time></trkpt><trkpt lat="43.130131" lon="11.4406802"><ele>252.0</ele><time>2026-04-04T10:50:12.167Z</time></trkpt><trkpt lat="43.1301371" lon="11.4408262"><ele>252.0</ele><time>2026-04-04T10:50:13.166Z</time></trkpt><trkpt lat="43.1301411" lon="11.4409863"><ele>252.0</ele><time>2026-04-04T10:50:14.167Z</time></trkpt><trkpt lat="43.1301261" lon="11.4411349"><ele>252.0</ele><time>2026-04-04T10:50:15.165Z</time></trkpt><trkpt lat="43.130129" lon="11.4413121"><ele>252.0</ele><time>2026-04-04T10:50:16.166Z</time></trkpt><trkpt lat="43.1301227" lon="11.4414834"><ele>252.0</ele><time>2026-04-04T10:50:17.166Z</time></trkpt><trkpt lat="43.1301132" lon="11.4416372"><ele>252.0</ele><time>2026-04-04T10:50:18.167Z</time></trkpt><trkpt lat="43.1300627" lon="11.4417759"><ele>252.0</ele><time>2026-04-04T10:50:19.165Z</time></trkpt><trkpt lat="43.1300152" lon="11.4419558"><ele>252.0</ele><time>2026-04-04T10:50:20.168Z</time></trkpt><trkpt lat="43.1299493" lon="11.4421209"><ele>251.5</ele><time>2026-04-04T10:50:21.166Z</time></trkpt><trkpt lat="43.129848" lon="11.4422779"><ele>251.0</ele><time>2026-04-04T10:50:22.167Z</time></trkpt><trkpt lat="43.1297551" lon="11.4424157"><ele>250.5</ele><time>2026-04-04T10:50:23.167Z</time></trkpt><trkpt lat="43.1296426" lon="11.4425551"><ele>250.0</ele><time>2026-04-04T10:50:24.166Z</time></trkpt><trkpt lat="43.1295246" lon="11.442706"><ele>250.0</ele><time>2026-04-04T10:50:25.168Z</time></trkpt><trkpt lat="43.1294052" lon="11.4428598"><ele>250.0</ele><time>2026-04-04T10:50:26.166Z</time></trkpt><trkpt lat="43.1292968" lon="11.4430057"><ele>250.0</ele><time>2026-04-04T10:50:27.166Z</time></trkpt><trkpt lat="43.1291868" lon="11.4431212"><ele>250.0</ele><time>2026-04-04T10:50:28.168Z</time></trkpt><trkpt lat="43.1290951" lon="11.4432548"><ele>250.0</ele><time>2026-04-04T10:50:29.167Z</time></trkpt><trkpt lat="43.1290117" lon="11.4433564"><ele>250.0</ele><time>2026-04-04T10:50:30.168Z</time></trkpt><trkpt lat="43.1289174" lon="11.4434599"><ele>250.0</ele><time>2026-04-04T10:50:31.165Z</time></trkpt><trkpt lat="43.1288223" lon="11.4435652"><ele>250.0</ele><time>2026-04-04T10:50:32.166Z</time></trkpt><trkpt lat="43.1287137" lon="11.4436721"><ele>250.0</ele><time>2026-04-04T10:50:33.165Z</time></trkpt><trkpt lat="43.1286042" lon="11.4437806"><ele>250.0</ele><time>2026-04-04T10:50:34.166Z</time></trkpt><trkpt lat="43.1284921" lon="11.4438995"><ele>250.0</ele><time>2026-04-04T10:50:35.167Z</time></trkpt><trkpt lat="43.1283633" lon="11.4439993"><ele>250.0</ele><time>2026-04-04T10:50:36.166Z</time></trkpt><trkpt lat="43.1282362" lon="11.444117"><ele>250.0</ele><time>2026-04-04T10:50:37.166Z</time></trkpt><trkpt lat="43.1280977" lon="11.4442492"><ele>250.0</ele><time>2026-04-04T10:50:38.167Z</time></trkpt><trkpt lat="43.1279594" lon="11.4443828"><ele>248.66666666666666</ele><time>2026-04-04T10:50:39.166Z</time></trkpt><trkpt lat="43.1278193" lon="11.4445126"><ele>247.33333333333331</ele><time>2026-04-04T10:50:40.166Z</time></trkpt><trkpt lat="43.1276807" lon="11.4446526"><ele>246.0</ele><time>2026-04-04T10:50:41.166Z</time></trkpt><trkpt lat="43.1275387" lon="11.4447791"><ele>245.0</ele><time>2026-04-04T10:50:42.166Z</time></trkpt><trkpt lat="43.1274145" lon="11.4448991"><ele>244.0</ele><time>2026-04-04T10:50:43.166Z</time></trkpt><trkpt lat="43.1272952" lon="11.4450409"><ele>243.0</ele><time>2026-04-04T10:50:44.166Z</time></trkpt><trkpt lat="43.1271918" lon="11.4451995"><ele>243.0</ele><time>2026-04-04T10:50:45.167Z</time></trkpt><trkpt lat="43.1271042" lon="11.4453723"><ele>243.0</ele><time>2026-04-04T10:50:46.166Z</time></trkpt><trkpt lat="43.1270345" lon="11.4455637"><ele>243.0</ele><time>2026-04-04T10:50:47.165Z</time></trkpt><trkpt lat="43.126984" lon="11.4457639"><ele>242.66666666666669</ele><time>2026-04-04T10:50:48.165Z</time></trkpt><trkpt lat="43.1269308" lon="11.4459648"><ele>242.33333333333334</ele><time>2026-04-04T10:50:49.167Z</time></trkpt><trkpt lat="43.1268557" lon="11.4461425"><ele>242.0</ele><time>2026-04-04T10:50:50.168Z</time></trkpt><trkpt lat="43.1267656" lon="11.4463285"><ele>240.33333333333334</ele><time>2026-04-04T10:50:51.167Z</time></trkpt><trkpt lat="43.1266564" lon="11.4465109"><ele>238.66666666666669</ele><time>2026-04-04T10:50:52.166Z</time></trkpt><trkpt lat="43.1265178" lon="11.4466936"><ele>237.0</ele><time>2026-04-04T10:50:53.167Z</time></trkpt><trkpt lat="43.126358" lon="11.4468773"><ele>236.33333333333331</ele><time>2026-04-04T10:50:54.167Z</time></trkpt><trkpt lat="43.1261903" lon="11.4470653"><ele>235.66666666666666</ele><time>2026-04-04T10:50:55.167Z</time></trkpt><trkpt lat="43.1260242" lon="11.4472412"><ele>235.0</ele><time>2026-04-04T10:50:56.166Z</time></trkpt><trkpt lat="43.1258562" lon="11.4474292"><ele>234.66666666666666</ele><time>2026-04-04T10:50:57.167Z</time></trkpt><trkpt lat="43.1257132" lon="11.4475735"><ele>234.33333333333331</ele><time>2026-04-04T10:50:58.167Z</time></trkpt><trkpt lat="43.1255775" lon="11.4477181"><ele>234.0</ele><time>2026-04-04T10:50:59.166Z</time></trkpt><trkpt lat="43.1254389" lon="11.4478667"><ele>235.25</ele><time>2026-04-04T10:51:00.166Z</time></trkpt><trkpt lat="43.1253147" lon="11.4480032"><ele>236.5</ele><time>2026-04-04T10:51:01.168Z</time></trkpt><trkpt lat="43.1252023" lon="11.4481296"><ele>237.75</ele><time>2026-04-04T10:51:02.166Z</time></trkpt><trkpt lat="43.1250945" lon="11.4482378"><ele>239.0</ele><time>2026-04-04T10:51:03.166Z</time></trkpt><trkpt lat="43.1249957" lon="11.448348"><ele>239.0</ele><time>2026-04-04T10:51:04.166Z</time></trkpt><trkpt lat="43.1249056" lon="11.4484392"><ele>238.99999999999997</ele><time>2026-04-04T10:51:05.166Z</time></trkpt><trkpt lat="43.1248269" lon="11.448518"><ele>238.99999999999997</ele><time>2026-04-04T10:51:06.165Z</time></trkpt><trkpt lat="43.1247701" lon="11.4485744"><ele>239.0</ele><time>2026-04-04T10:51:07.167Z</time></trkpt><trkpt lat="43.124688" lon="11.4486635"><ele>239.0</ele><time>2026-04-04T10:51:09.166Z</time></trkpt><trkpt lat="43.1245873" lon="11.4487893"><ele>238.6</ele><time>2026-04-04T10:51:11.167Z</time></trkpt><trkpt lat="43.1245139" lon="11.448883"><ele>238.2</ele><time>2026-04-04T10:51:12.168Z</time></trkpt><trkpt lat="43.1244596" lon="11.448986"><ele>237.79999999999998</ele><time>2026-04-04T10:51:13.167Z</time></trkpt><trkpt lat="43.1244014" lon="11.4490917"><ele>237.39999999999998</ele><time>2026-04-04T10:51:14.166Z</time></trkpt><trkpt lat="43.1243123" lon="11.4491631"><ele>237.0</ele><time>2026-04-04T10:51:15.166Z</time></trkpt><trkpt lat="43.1242172" lon="11.4492171"><ele>237.0</ele><time>2026-04-04T10:51:16.167Z</time></trkpt><trkpt lat="43.1241082" lon="11.4492229"><ele>237.0</ele><time>2026-04-04T10:51:17.167Z</time></trkpt><trkpt lat="43.124004" lon="11.4492045"><ele>237.0</ele><time>2026-04-04T10:51:18.165Z</time></trkpt><trkpt lat="43.1238901" lon="11.4491747"><ele>237.0</ele><time>2026-04-04T10:51:19.167Z</time></trkpt><trkpt lat="43.1237729" lon="11.4491348"><ele>236.25</ele><time>2026-04-04T10:51:20.166Z</time></trkpt><trkpt lat="43.1236653" lon="11.4490974"><ele>235.5</ele><time>2026-04-04T10:51:21.166Z</time></trkpt><trkpt lat="43.1235491" lon="11.4490593"><ele>234.75</ele><time>2026-04-04T10:51:22.166Z</time></trkpt><trkpt lat="43.123431" lon="11.4490193"><ele>234.0</ele><time>2026-04-04T10:51:23.167Z</time></trkpt><trkpt lat="43.1233127" lon="11.448981"><ele>233.25</ele><time>2026-04-04T10:51:24.165Z</time></trkpt><trkpt lat="43.1231908" lon="11.4489351"><ele>232.5</ele><time>2026-04-04T10:51:25.165Z</time></trkpt><trkpt lat="43.1230675" lon="11.4489067"><ele>231.75</ele><time>2026-04-04T10:51:26.166Z</time></trkpt><trkpt lat="43.1229493" lon="11.4488494"><ele>231.0</ele><time>2026-04-04T10:51:27.167Z</time></trkpt><trkpt lat="43.1228184" lon="11.4488054"><ele>230.75</ele><time>2026-04-04T10:51:28.166Z</time></trkpt><trkpt lat="43.1226934" lon="11.4487558"><ele>230.5</ele><time>2026-04-04T10:51:29.166Z</time></trkpt><trkpt lat="43.1225555" lon="11.4487208"><ele>230.25</ele><time>2026-04-04T10:51:30.167Z</time></trkpt><trkpt lat="43.1224237" lon="11.4486855"><ele>230.0</ele><time>2026-04-04T10:51:31.166Z</time></trkpt><trkpt lat="43.1222843" lon="11.4486408"><ele>228.0</ele><time>2026-04-04T10:51:32.166Z</time></trkpt><trkpt lat="43.1221379" lon="11.4485769"><ele>226.0</ele><time>2026-04-04T10:51:33.165Z</time></trkpt><trkpt lat="43.1219888" lon="11.4485204"><ele>224.0</ele><time>2026-04-04T10:51:34.167Z</time></trkpt><trkpt lat="43.1218504" lon="11.4484614"><ele>224.0</ele><time>2026-04-04T10:51:35.166Z</time></trkpt><trkpt lat="43.1217092" lon="11.4484044"><ele>224.0</ele><time>2026-04-04T10:51:36.167Z</time></trkpt><trkpt lat="43.12159" lon="11.4483284"><ele>224.0</ele><time>2026-04-04T10:51:37.167Z</time></trkpt><trkpt lat="43.1214677" lon="11.4482115"><ele>224.0</ele><time>2026-04-04T10:51:38.166Z</time></trkpt><trkpt lat="43.1213502" lon="11.4480379"><ele>221.66666666666669</ele><time>2026-04-04T10:51:39.166Z</time></trkpt><trkpt lat="43.1212559" lon="11.4478159"><ele>219.33333333333331</ele><time>2026-04-04T10:51:40.165Z</time></trkpt><trkpt lat="43.1211726" lon="11.4475729"><ele>217.0</ele><time>2026-04-04T10:51:41.165Z</time></trkpt><trkpt lat="43.1211282" lon="11.4473402"><ele>217.0</ele><time>2026-04-04T10:51:42.165Z</time></trkpt><trkpt lat="43.121068" lon="11.4471444"><ele>217.0</ele><time>2026-04-04T10:51:43.166Z</time></trkpt><trkpt lat="43.1210118" lon="11.4469444"><ele>217.0</ele><time>2026-04-04T10:51:44.166Z</time></trkpt><trkpt lat="43.120955" lon="11.4467602"><ele>216.0</ele><time>2026-04-04T10:51:45.167Z</time></trkpt><trkpt lat="43.1208939" lon="11.4465863"><ele>215.0</ele><time>2026-04-04T10:51:46.165Z</time></trkpt><trkpt lat="43.1208522" lon="11.4464362"><ele>214.0</ele><time>2026-04-04T10:51:47.166Z</time></trkpt><trkpt lat="43.1208045" lon="11.4462842"><ele>213.0</ele><time>2026-04-04T10:51:48.166Z</time></trkpt><trkpt lat="43.120771" lon="11.4461299"><ele>212.60000000000002</ele><time>2026-04-04T10:51:49.166Z</time></trkpt><trkpt lat="43.1207421" lon="11.445981"><ele>212.20000000000002</ele><time>2026-04-04T10:51:50.166Z</time></trkpt><trkpt lat="43.1207562" lon="11.4458281"><ele>211.8</ele><time>2026-04-04T10:51:51.166Z</time></trkpt><trkpt lat="43.1207881" lon="11.4456795"><ele>211.4</ele><time>2026-04-04T10:51:52.167Z</time></trkpt><trkpt lat="43.1208201" lon="11.4455394"><ele>211.0</ele><time>2026-04-04T10:51:53.167Z</time></trkpt><trkpt lat="43.1208644" lon="11.4454083"><ele>211.0</ele><time>2026-04-04T10:51:54.165Z</time></trkpt><trkpt lat="43.1208986" lon="11.445277"><ele>211.0</ele><time>2026-04-04T10:51:55.166Z</time></trkpt><trkpt lat="43.1209222" lon="11.4451425"><ele>211.0</ele><time>2026-04-04T10:51:56.166Z</time></trkpt><trkpt lat="43.1209372" lon="11.4450069"><ele>211.0</ele><time>2026-04-04T10:51:57.166Z</time></trkpt><trkpt lat="43.1209417" lon="11.4448741"><ele>211.0</ele><time>2026-04-04T10:51:58.166Z</time></trkpt><trkpt lat="43.1209071" lon="11.4447816"><ele>211.0</ele><time>2026-04-04T10:51:59.166Z</time></trkpt><trkpt lat="43.1208768" lon="11.4446744"><ele>211.0</ele><time>2026-04-04T10:52:00.167Z</time></trkpt><trkpt lat="43.1208014" lon="11.444568"><ele>211.0</ele><time>2026-04-04T10:52:01.166Z</time></trkpt><trkpt lat="43.1207166" lon="11.4444726"><ele>211.0</ele><time>2026-04-04T10:52:02.166Z</time></trkpt><trkpt lat="43.1206295" lon="11.4443837"><ele>211.0</ele><time>2026-04-04T10:52:03.165Z</time></trkpt><trkpt lat="43.120517" lon="11.444287"><ele>209.25</ele><time>2026-04-04T10:52:04.166Z</time></trkpt><trkpt lat="43.1204039" lon="11.4442304"><ele>207.5</ele><time>2026-04-04T10:52:05.166Z</time></trkpt><trkpt lat="43.120284" lon="11.4441581"><ele>205.75</ele><time>2026-04-04T10:52:06.165Z</time></trkpt><trkpt lat="43.1201613" lon="11.4440868"><ele>204.0</ele><time>2026-04-04T10:52:07.165Z</time></trkpt><trkpt lat="43.1200529" lon="11.4440006"><ele>204.0</ele><time>2026-04-04T10:52:08.166Z</time></trkpt><trkpt lat="43.1199346" lon="11.4439267"><ele>204.0</ele><time>2026-04-04T10:52:09.168Z</time></trkpt><trkpt lat="43.1198275" lon="11.4438566"><ele>204.0</ele><time>2026-04-04T10:52:10.164Z</time></trkpt><trkpt lat="43.1197173" lon="11.4437806"><ele>204.0</ele><time>2026-04-04T10:52:11.168Z</time></trkpt><trkpt lat="43.1196219" lon="11.4437177"><ele>199.66666666666666</ele><time>2026-04-04T10:52:12.166Z</time></trkpt><trkpt lat="43.1195126" lon="11.4436147"><ele>195.33333333333331</ele><time>2026-04-04T10:52:13.165Z</time></trkpt><trkpt lat="43.1193663" lon="11.4435185"><ele>191.0</ele><time>2026-04-04T10:52:14.166Z</time></trkpt><trkpt lat="43.1192338" lon="11.443403"><ele>191.0</ele><time>2026-04-04T10:52:15.166Z</time></trkpt><trkpt lat="43.11911" lon="11.4432953"><ele>191.0</ele><time>2026-04-04T10:52:16.166Z</time></trkpt><trkpt lat="43.118972" lon="11.4431751"><ele>191.0</ele><time>2026-04-04T10:52:17.167Z</time></trkpt><trkpt lat="43.1188721" lon="11.4430414"><ele>187.25</ele><time>2026-04-04T10:52:18.166Z</time></trkpt><trkpt lat="43.1187639" lon="11.4429013"><ele>183.5</ele><time>2026-04-04T10:52:19.164Z</time></trkpt><trkpt lat="43.1186597" lon="11.4427665"><ele>179.75</ele><time>2026-04-04T10:52:20.166Z</time></trkpt><trkpt lat="43.1185433" lon="11.442681"><ele>176.0</ele><time>2026-04-04T10:52:21.166Z</time></trkpt><trkpt lat="43.1184411" lon="11.4425569"><ele>176.0</ele><time>2026-04-04T10:52:22.166Z</time></trkpt><trkpt lat="43.1183341" lon="11.4424832"><ele>176.0</ele><time>2026-04-04T10:52:23.166Z</time></trkpt><trkpt lat="43.1182434" lon="11.4423969"><ele>176.0</ele><time>2026-04-04T10:52:24.166Z</time></trkpt><trkpt lat="43.1181611" lon="11.442324"><ele>176.0</ele><time>2026-04-04T10:52:25.166Z</time></trkpt><trkpt lat="43.118073" lon="11.442268"><ele>176.0</ele><time>2026-04-04T10:52:26.167Z</time></trkpt><trkpt lat="43.1179895" lon="11.4422043"><ele>176.0</ele><time>2026-04-04T10:52:27.166Z</time></trkpt><trkpt lat="43.1179129" lon="11.4421513"><ele>176.0</ele><time>2026-04-04T10:52:28.167Z</time></trkpt><trkpt lat="43.1178366" lon="11.442097"><ele>176.0</ele><time>2026-04-04T10:52:29.165Z</time></trkpt><trkpt lat="43.117745" lon="11.4420353"><ele>176.0</ele><time>2026-04-04T10:52:30.165Z</time></trkpt><trkpt lat="43.1176435" lon="11.4419888"><ele>176.0</ele><time>2026-04-04T10:52:31.166Z</time></trkpt><trkpt lat="43.1175508" lon="11.4419403"><ele>173.8</ele><time>2026-04-04T10:52:32.166Z</time></trkpt><trkpt lat="43.1174628" lon="11.4419145"><ele>171.60000000000002</ele><time>2026-04-04T10:52:33.166Z</time></trkpt><trkpt lat="43.1173618" lon="11.4418846"><ele>169.4</ele><time>2026-04-04T10:52:34.165Z</time></trkpt><trkpt lat="43.1172493" lon="11.4419386"><ele>167.2</ele><time>2026-04-04T10:52:35.164Z</time></trkpt><trkpt lat="43.1171551" lon="11.4420103"><ele>165.0</ele><time>2026-04-04T10:52:36.165Z</time></trkpt><trkpt lat="43.1170516" lon="11.4420632"><ele>165.75</ele><time>2026-04-04T10:52:37.166Z</time></trkpt><trkpt lat="43.1169444" lon="11.4421224"><ele>166.5</ele><time>2026-04-04T10:52:38.166Z</time></trkpt><trkpt lat="43.1168289" lon="11.4421584"><ele>167.25</ele><time>2026-04-04T10:52:39.166Z</time></trkpt><trkpt lat="43.116721" lon="11.442184"><ele>168.0</ele><time>2026-04-04T10:52:40.165Z</time></trkpt><trkpt lat="43.1166124" lon="11.4421922"><ele>168.0</ele><time>2026-04-04T10:52:41.167Z</time></trkpt><trkpt lat="43.1164828" lon="11.44222"><ele>168.0</ele><time>2026-04-04T10:52:42.166Z</time></trkpt><trkpt lat="43.1164322" lon="11.4420963"><ele>168.0</ele><time>2026-04-04T10:52:43.166Z</time></trkpt><trkpt lat="43.1163732" lon="11.4420015"><ele>168.0</ele><time>2026-04-04T10:52:44.164Z</time></trkpt><trkpt lat="43.1163029" lon="11.4418896"><ele>168.0</ele><time>2026-04-04T10:52:45.166Z</time></trkpt><trkpt lat="43.1162256" lon="11.441766"><ele>165.75</ele><time>2026-04-04T10:52:46.165Z</time></trkpt><trkpt lat="43.1161253" lon="11.4416778"><ele>163.5</ele><time>2026-04-04T10:52:47.166Z</time></trkpt><trkpt lat="43.116022" lon="11.4415756"><ele>161.25</ele><time>2026-04-04T10:52:48.167Z</time></trkpt><trkpt lat="43.1159248" lon="11.4415019"><ele>159.0</ele><time>2026-04-04T10:52:49.167Z</time></trkpt><trkpt lat="43.1158409" lon="11.4414014"><ele>159.0</ele><time>2026-04-04T10:52:50.167Z</time></trkpt><trkpt lat="43.1157469" lon="11.4413195"><ele>159.0</ele><time>2026-04-04T10:52:51.167Z</time></trkpt><trkpt lat="43.1156656" lon="11.4412668"><ele>159.0</ele><time>2026-04-04T10:52:52.166Z</time></trkpt><trkpt lat="43.1155896" lon="11.4412299"><ele>159.0</ele><time>2026-04-04T10:52:53.165Z</time></trkpt><trkpt lat="43.1154725" lon="11.4412414"><ele>159.0</ele><time>2026-04-04T10:52:54.166Z</time></trkpt><trkpt lat="43.1153621" lon="11.4412576"><ele>157.6</ele><time>2026-04-04T10:52:55.165Z</time></trkpt><trkpt lat="43.1152595" lon="11.4412827"><ele>156.2</ele><time>2026-04-04T10:52:56.166Z</time></trkpt><trkpt lat="43.1151398" lon="11.4413022"><ele>154.79999999999998</ele><time>2026-04-04T10:52:57.166Z</time></trkpt><trkpt lat="43.1150342" lon="11.4413196"><ele>153.4</ele><time>2026-04-04T10:52:58.165Z</time></trkpt><trkpt lat="43.1149313" lon="11.441344"><ele>152.0</ele><time>2026-04-04T10:52:59.165Z</time></trkpt><trkpt lat="43.1148139" lon="11.4413431"><ele>149.79999999999998</ele><time>2026-04-04T10:53:00.166Z</time></trkpt><trkpt lat="43.1147043" lon="11.4413492"><ele>147.6</ele><time>2026-04-04T10:53:01.166Z</time></trkpt><trkpt lat="43.1145997" lon="11.4413464"><ele>145.39999999999998</ele><time>2026-04-04T10:53:02.166Z</time></trkpt><trkpt lat="43.1145078" lon="11.4413605"><ele>143.2</ele><time>2026-04-04T10:53:03.167Z</time></trkpt><trkpt lat="43.1144237" lon="11.441367"><ele>141.0</ele><time>2026-04-04T10:53:04.164Z</time></trkpt><trkpt lat="43.1143541" lon="11.4413611"><ele>141.0</ele><time>2026-04-04T10:53:05.165Z</time></trkpt><trkpt lat="43.1142365" lon="11.4413626"><ele>141.0</ele><time>2026-04-04T10:53:07.164Z</time></trkpt><trkpt lat="43.1141046" lon="11.4413739"><ele>141.0</ele><time>2026-04-04T10:53:09.167Z</time></trkpt><trkpt lat="43.1140172" lon="11.4413783"><ele>141.0</ele><time>2026-04-04T10:53:10.166Z</time></trkpt><trkpt lat="43.1139219" lon="11.4413847"><ele>141.0</ele><time>2026-04-04T10:53:11.165Z</time></trkpt><trkpt lat="43.1138228" lon="11.4413977"><ele>140.4</ele><time>2026-04-04T10:53:12.166Z</time></trkpt><trkpt lat="43.1137258" lon="11.4414091"><ele>139.8</ele><time>2026-04-04T10:53:13.166Z</time></trkpt><trkpt lat="43.1136303" lon="11.4414272"><ele>139.20000000000002</ele><time>2026-04-04T10:53:14.167Z</time></trkpt><trkpt lat="43.1135413" lon="11.441442"><ele>138.6</ele><time>2026-04-04T10:53:15.164Z</time></trkpt><trkpt lat="43.1134422" lon="11.4414535"><ele>138.0</ele><time>2026-04-04T10:53:16.165Z</time></trkpt><trkpt lat="43.1133424" lon="11.4414656"><ele>137.8</ele><time>2026-04-04T10:53:17.165Z</time></trkpt><trkpt lat="43.1132273" lon="11.4414785"><ele>137.60000000000002</ele><time>2026-04-04T10:53:18.166Z</time></trkpt><trkpt lat="43.1131285" lon="11.4414801"><ele>137.39999999999998</ele><time>2026-04-04T10:53:19.165Z</time></trkpt><trkpt lat="43.1130271" lon="11.4414864"><ele>137.2</ele><time>2026-04-04T10:53:20.166Z</time></trkpt><trkpt lat="43.1129258" lon="11.4415069"><ele>137.0</ele><time>2026-04-04T10:53:21.166Z</time></trkpt><trkpt lat="43.1128212" lon="11.4415127"><ele>137.0</ele><time>2026-04-04T10:53:22.165Z</time></trkpt><trkpt lat="43.1127127" lon="11.4415111"><ele>137.0</ele><time>2026-04-04T10:53:23.165Z</time></trkpt><trkpt lat="43.1126025" lon="11.4415148"><ele>137.0</ele><time>2026-04-04T10:53:24.166Z</time></trkpt><trkpt lat="43.1124936" lon="11.4415212"><ele>137.0</ele><time>2026-04-04T10:53:25.166Z</time></trkpt><trkpt lat="43.112383" lon="11.4415319"><ele>137.0</ele><time>2026-04-04T10:53:26.165Z</time></trkpt><trkpt lat="43.1122844" lon="11.4415384"><ele>136.79999999999998</ele><time>2026-04-04T10:53:27.166Z</time></trkpt><trkpt lat="43.1121904" lon="11.4415456"><ele>136.6</ele><time>2026-04-04T10:53:28.166Z</time></trkpt><trkpt lat="43.1120992" lon="11.4415517"><ele>136.39999999999998</ele><time>2026-04-04T10:53:29.167Z</time></trkpt><trkpt lat="43.1120083" lon="11.4415537"><ele>136.2</ele><time>2026-04-04T10:53:30.166Z</time></trkpt><trkpt lat="43.1119109" lon="11.4415601"><ele>136.0</ele><time>2026-04-04T10:53:31.164Z</time></trkpt><trkpt lat="43.1118199" lon="11.4415687"><ele>136.0</ele><time>2026-04-04T10:53:32.165Z</time></trkpt><trkpt lat="43.1117288" lon="11.4415692"><ele>136.0</ele><time>2026-04-04T10:53:33.164Z</time></trkpt><trkpt lat="43.1116382" lon="11.4415819"><ele>136.0</ele><time>2026-04-04T10:53:34.164Z</time></trkpt><trkpt lat="43.1115465" lon="11.4415956"><ele>136.0</ele><time>2026-04-04T10:53:35.167Z</time></trkpt><trkpt lat="43.1114673" lon="11.4416089"><ele>136.0</ele><time>2026-04-04T10:53:36.164Z</time></trkpt><trkpt lat="43.1113961" lon="11.4416351"><ele>136.0</ele><time>2026-04-04T10:53:37.166Z</time></trkpt><trkpt lat="43.1113292" lon="11.4416445"><ele>135.8</ele><time>2026-04-04T10:53:38.166Z</time></trkpt><trkpt lat="43.111247" lon="11.4416641"><ele>135.6</ele><time>2026-04-04T10:53:39.165Z</time></trkpt><trkpt lat="43.1111655" lon="11.4416716"><ele>135.4</ele><time>2026-04-04T10:53:40.166Z</time></trkpt><trkpt lat="43.1110729" lon="11.4416863"><ele>135.2</ele><time>2026-04-04T10:53:41.166Z</time></trkpt><trkpt lat="43.1109745" lon="11.4417041"><ele>135.0</ele><time>2026-04-04T10:53:42.165Z</time></trkpt><trkpt lat="43.1108826" lon="11.4417212"><ele>135.0</ele><time>2026-04-04T10:53:43.165Z</time></trkpt><trkpt lat="43.1107874" lon="11.4417293"><ele>135.0</ele><time>2026-04-04T10:53:44.166Z</time></trkpt><trkpt lat="43.1106957" lon="11.4417293"><ele>135.0</ele><time>2026-04-04T10:53:45.166Z</time></trkpt><trkpt lat="43.1105983" lon="11.4417304"><ele>135.0</ele><time>2026-04-04T10:53:46.167Z</time></trkpt><trkpt lat="43.1104968" lon="11.4417364"><ele>135.0</ele><time>2026-04-04T10:53:47.166Z</time></trkpt><trkpt lat="43.1104007" lon="11.4417458"><ele>134.6</ele><time>2026-04-04T10:53:48.166Z</time></trkpt><trkpt lat="43.110298" lon="11.4417613"><ele>134.2</ele><time>2026-04-04T10:53:49.166Z</time></trkpt><trkpt lat="43.1101921" lon="11.4417679"><ele>133.8</ele><time>2026-04-04T10:53:50.165Z</time></trkpt><trkpt lat="43.1100904" lon="11.4417834"><ele>133.4</ele><time>2026-04-04T10:53:51.165Z</time></trkpt><trkpt lat="43.1099874" lon="11.4418122"><ele>133.0</ele><time>2026-04-04T10:53:52.165Z</time></trkpt><trkpt lat="43.1098939" lon="11.4418557"><ele>133.0</ele><time>2026-04-04T10:53:53.166Z</time></trkpt><trkpt lat="43.1097937" lon="11.441894"><ele>133.0</ele><time>2026-04-04T10:53:54.166Z</time></trkpt><trkpt lat="43.1096986" lon="11.4419436"><ele>133.0</ele><time>2026-04-04T10:53:55.166Z</time></trkpt><trkpt lat="43.1095994" lon="11.4419862"><ele>133.0</ele><time>2026-04-04T10:53:56.167Z</time></trkpt><trkpt lat="43.1095056" lon="11.4420345"><ele>133.0</ele><time>2026-04-04T10:53:57.164Z</time></trkpt><trkpt lat="43.1094149" lon="11.4420805"><ele>133.0</ele><time>2026-04-04T10:53:58.166Z</time></trkpt><trkpt lat="43.1093153" lon="11.442119"><ele>133.0</ele><time>2026-04-04T10:53:59.166Z</time></trkpt><trkpt lat="43.1092198" lon="11.442149"><ele>133.0</ele><time>2026-04-04T10:54:00.164Z</time></trkpt><trkpt lat="43.1091188" lon="11.442175"><ele>133.0</ele><time>2026-04-04T10:54:01.165Z</time></trkpt><trkpt lat="43.1090177" lon="11.4421955"><ele>133.0</ele><time>2026-04-04T10:54:02.166Z</time></trkpt><trkpt lat="43.108917" lon="11.442221"><ele>133.0</ele><time>2026-04-04T10:54:03.166Z</time></trkpt><trkpt lat="43.1088144" lon="11.4422404"><ele>133.0</ele><time>2026-04-04T10:54:04.165Z</time></trkpt><trkpt lat="43.1087131" lon="11.4422603"><ele>133.0</ele><time>2026-04-04T10:54:05.166Z</time></trkpt><trkpt lat="43.1086126" lon="11.4422808"><ele>133.0</ele><time>2026-04-04T10:54:06.166Z</time></trkpt><trkpt lat="43.1085161" lon="11.4422982"><ele>133.0</ele><time>2026-04-04T10:54:07.165Z</time></trkpt><trkpt lat="43.1084219" lon="11.4423105"><ele>133.0</ele><time>2026-04-04T10:54:08.167Z</time></trkpt><trkpt lat="43.1083331" lon="11.4423271"><ele>133.0</ele><time>2026-04-04T10:54:09.166Z</time></trkpt><trkpt lat="43.1082451" lon="11.4423396"><ele>133.0</ele><time>2026-04-04T10:54:10.165Z</time></trkpt><trkpt lat="43.1081611" lon="11.4423574"><ele>133.0</ele><time>2026-04-04T10:54:11.165Z</time></trkpt><trkpt lat="43.1080847" lon="11.4423685"><ele>133.0</ele><time>2026-04-04T10:54:12.167Z</time></trkpt><trkpt lat="43.1080132" lon="11.4423851"><ele>133.0</ele><time>2026-04-04T10:54:13.165Z</time></trkpt><trkpt lat="43.1079326" lon="11.4424097"><ele>133.16666666666669</ele><time>2026-04-04T10:54:14.166Z</time></trkpt><trkpt lat="43.1078451" lon="11.4424285"><ele>133.33333333333334</ele><time>2026-04-04T10:54:15.165Z</time></trkpt><trkpt lat="43.1077641" lon="11.4424415"><ele>133.5</ele><time>2026-04-04T10:54:16.165Z</time></trkpt><trkpt lat="43.1076788" lon="11.4424481"><ele>133.66666666666666</ele><time>2026-04-04T10:54:17.166Z</time></trkpt><trkpt lat="43.1076077" lon="11.4424383"><ele>133.83333333333331</ele><time>2026-04-04T10:54:18.165Z</time></trkpt><trkpt lat="43.1075224" lon="11.4424244"><ele>134.0</ele><time>2026-04-04T10:54:19.165Z</time></trkpt><trkpt lat="43.1074413" lon="11.4423865"><ele>133.4</ele><time>2026-04-04T10:54:20.166Z</time></trkpt><trkpt lat="43.1073689" lon="11.4423027"><ele>132.8</ele><time>2026-04-04T10:54:21.164Z</time></trkpt><trkpt lat="43.1072906" lon="11.4421971"><ele>132.2</ele><time>2026-04-04T10:54:22.166Z</time></trkpt><trkpt lat="43.1072144" lon="11.4420764"><ele>131.6</ele><time>2026-04-04T10:54:23.165Z</time></trkpt><trkpt lat="43.107139" lon="11.4419714"><ele>131.0</ele><time>2026-04-04T10:54:24.164Z</time></trkpt><trkpt lat="43.1070635" lon="11.441875"><ele>131.0</ele><time>2026-04-04T10:54:25.167Z</time></trkpt><trkpt lat="43.106989" lon="11.4417677"><ele>131.0</ele><time>2026-04-04T10:54:26.165Z</time></trkpt><trkpt lat="43.1069071" lon="11.4416569"><ele>131.0</ele><time>2026-04-04T10:54:27.167Z</time></trkpt><trkpt lat="43.1068288" lon="11.4415456"><ele>131.0</ele><time>2026-04-04T10:54:28.164Z</time></trkpt><trkpt lat="43.1067557" lon="11.4414365"><ele>131.0</ele><time>2026-04-04T10:54:29.165Z</time></trkpt><trkpt lat="43.1066766" lon="11.4413258"><ele>131.0</ele><time>2026-04-04T10:54:30.166Z</time></trkpt><trkpt lat="43.1066157" lon="11.4412343"><ele>131.0</ele><time>2026-04-04T10:54:31.165Z</time></trkpt><trkpt lat="43.1065464" lon="11.4411174"><ele>131.0</ele><time>2026-04-04T10:54:32.165Z</time></trkpt><trkpt lat="43.1064684" lon="11.4410089"><ele>131.0</ele><time>2026-04-04T10:54:33.165Z</time></trkpt><trkpt lat="43.1063958" lon="11.4408982"><ele>131.0</ele><time>2026-04-04T10:54:34.164Z</time></trkpt><trkpt lat="43.1063294" lon="11.4408051"><ele>131.0</ele><time>2026-04-04T10:54:35.166Z</time></trkpt><trkpt lat="43.1062585" lon="11.4406871"><ele>131.0</ele><time>2026-04-04T10:54:36.164Z</time></trkpt><trkpt lat="43.1061999" lon="11.4405959"><ele>131.0</ele><time>2026-04-04T10:54:37.166Z</time></trkpt><trkpt lat="43.1061286" lon="11.4404912"><ele>131.0</ele><time>2026-04-04T10:54:38.164Z</time></trkpt><trkpt lat="43.1060623" lon="11.440394"><ele>131.0</ele><time>2026-04-04T10:54:39.166Z</time></trkpt><trkpt lat="43.1059918" lon="11.4402914"><ele>131.0</ele><time>2026-04-04T10:54:40.164Z</time></trkpt><trkpt lat="43.1059206" lon="11.4401931"><ele>131.0</ele><time>2026-04-04T10:54:41.166Z</time></trkpt><trkpt lat="43.1058447" lon="11.4400989"><ele>131.0</ele><time>2026-04-04T10:54:42.166Z</time></trkpt><trkpt lat="43.105767" lon="11.440017"><ele>131.0</ele><time>2026-04-04T10:54:43.165Z</time></trkpt><trkpt lat="43.1056965" lon="11.4399372"><ele>131.0</ele><time>2026-04-04T10:54:44.164Z</time></trkpt><trkpt lat="43.1056249" lon="11.4398484"><ele>130.8</ele><time>2026-04-04T10:54:45.165Z</time></trkpt><trkpt lat="43.1055609" lon="11.4397602"><ele>130.6</ele><time>2026-04-04T10:54:46.164Z</time></trkpt><trkpt lat="43.1054881" lon="11.4396676"><ele>130.4</ele><time>2026-04-04T10:54:47.165Z</time></trkpt><trkpt lat="43.1054189" lon="11.4395735"><ele>130.2</ele><time>2026-04-04T10:54:48.165Z</time></trkpt><trkpt lat="43.1053524" lon="11.4394836"><ele>130.0</ele><time>2026-04-04T10:54:49.164Z</time></trkpt><trkpt lat="43.1052935" lon="11.4393773"><ele>129.8</ele><time>2026-04-04T10:54:50.164Z</time></trkpt><trkpt lat="43.1052316" lon="11.4392697"><ele>129.6</ele><time>2026-04-04T10:54:51.166Z</time></trkpt><trkpt lat="43.1051652" lon="11.4391612"><ele>129.4</ele><time>2026-04-04T10:54:52.165Z</time></trkpt><trkpt lat="43.1051037" lon="11.4390518"><ele>129.2</ele><time>2026-04-04T10:54:53.165Z</time></trkpt><trkpt lat="43.1050294" lon="11.4389362"><ele>129.0</ele><time>2026-04-04T10:54:54.166Z</time></trkpt><trkpt lat="43.1049672" lon="11.4388285"><ele>129.4</ele><time>2026-04-04T10:54:55.165Z</time></trkpt><trkpt lat="43.1048991" lon="11.4387392"><ele>129.8</ele><time>2026-04-04T10:54:56.165Z</time></trkpt><trkpt lat="43.1048273" lon="11.4386497"><ele>130.2</ele><time>2026-04-04T10:54:57.165Z</time></trkpt><trkpt lat="43.1047554" lon="11.4385413"><ele>130.6</ele><time>2026-04-04T10:54:58.166Z</time></trkpt><trkpt lat="43.104683" lon="11.438436"><ele>131.0</ele><time>2026-04-04T10:54:59.165Z</time></trkpt><trkpt lat="43.1046147" lon="11.4383372"><ele>131.0</ele><time>2026-04-04T10:55:00.165Z</time></trkpt><trkpt lat="43.1045391" lon="11.4382372"><ele>131.0</ele><time>2026-04-04T10:55:01.166Z</time></trkpt><trkpt lat="43.1044707" lon="11.4381293"><ele>131.0</ele><time>2026-04-04T10:55:02.166Z</time></trkpt><trkpt lat="43.1044048" lon="11.438028"><ele>131.0</ele><time>2026-04-04T10:55:03.166Z</time></trkpt><trkpt lat="43.1043293" lon="11.4379371"><ele>131.0</ele><time>2026-04-04T10:55:04.165Z</time></trkpt><trkpt lat="43.1042554" lon="11.4378311"><ele>131.0</ele><time>2026-04-04T10:55:05.166Z</time></trkpt><trkpt lat="43.104183" lon="11.4377398"><ele>131.0</ele><time>2026-04-04T10:55:06.165Z</time></trkpt><trkpt lat="43.1041115" lon="11.437643"><ele>131.0</ele><time>2026-04-04T10:55:07.164Z</time></trkpt><trkpt lat="43.104046" lon="11.437555"><ele>131.0</ele><time>2026-04-04T10:55:08.165Z</time></trkpt><trkpt lat="43.1039737" lon="11.4374546"><ele>131.0</ele><time>2026-04-04T10:55:09.165Z</time></trkpt><trkpt lat="43.1038984" lon="11.4373637"><ele>131.2</ele><time>2026-04-04T10:55:10.164Z</time></trkpt><trkpt lat="43.1038345" lon="11.4372636"><ele>131.39999999999998</ele><time>2026-04-04T10:55:11.165Z</time></trkpt><trkpt lat="43.1037658" lon="11.4371617"><ele>131.6</ele><time>2026-04-04T10:55:12.164Z</time></trkpt><trkpt lat="43.1036957" lon="11.4370566"><ele>131.79999999999998</ele><time>2026-04-04T10:55:13.166Z</time></trkpt><trkpt lat="43.1036243" lon="11.4369438"><ele>132.0</ele><time>2026-04-04T10:55:14.165Z</time></trkpt><trkpt lat="43.1035621" lon="11.4368489"><ele>132.4</ele><time>2026-04-04T10:55:15.165Z</time></trkpt><trkpt lat="43.1034959" lon="11.4367569"><ele>132.79999999999998</ele><time>2026-04-04T10:55:16.165Z</time></trkpt><trkpt lat="43.1034308" lon="11.4366601"><ele>133.2</ele><time>2026-04-04T10:55:17.165Z</time></trkpt><trkpt lat="43.1033665" lon="11.4365591"><ele>133.6</ele><time>2026-04-04T10:55:18.166Z</time></trkpt><trkpt lat="43.103302" lon="11.4364733"><ele>134.0</ele><time>2026-04-04T10:55:19.166Z</time></trkpt><trkpt lat="43.1032417" lon="11.4363916"><ele>134.4</ele><time>2026-04-04T10:55:20.165Z</time></trkpt><trkpt lat="43.1031713" lon="11.4363032"><ele>134.8</ele><time>2026-04-04T10:55:21.164Z</time></trkpt><trkpt lat="43.1031033" lon="11.4362133"><ele>135.2</ele><time>2026-04-04T10:55:22.164Z</time></trkpt><trkpt lat="43.1030327" lon="11.4361195"><ele>135.6</ele><time>2026-04-04T10:55:23.165Z</time></trkpt><trkpt lat="43.1029685" lon="11.4360363"><ele>136.0</ele><time>2026-04-04T10:55:24.165Z</time></trkpt><trkpt lat="43.1029058" lon="11.4359402"><ele>136.0</ele><time>2026-04-04T10:55:25.164Z</time></trkpt><trkpt lat="43.1028347" lon="11.4358433"><ele>136.0</ele><time>2026-04-04T10:55:26.166Z</time></trkpt><trkpt lat="43.102777" lon="11.4357608"><ele>136.0</ele><time>2026-04-04T10:55:27.165Z</time></trkpt><trkpt lat="43.1027187" lon="11.4356828"><ele>136.0</ele><time>2026-04-04T10:55:28.165Z</time></trkpt><trkpt lat="43.1026555" lon="11.4355931"><ele>136.0</ele><time>2026-04-04T10:55:29.165Z</time></trkpt><trkpt lat="43.1025878" lon="11.4354984"><ele>136.0</ele><time>2026-04-04T10:55:30.164Z</time></trkpt><trkpt lat="43.1025176" lon="11.4353983"><ele>136.0</ele><time>2026-04-04T10:55:31.163Z</time></trkpt><trkpt lat="43.1024381" lon="11.4352956"><ele>136.0</ele><time>2026-04-04T10:55:32.165Z</time></trkpt><trkpt lat="43.1023639" lon="11.4351875"><ele>136.0</ele><time>2026-04-04T10:55:33.165Z</time></trkpt><trkpt lat="43.1023" lon="11.4350762"><ele>136.0</ele><time>2026-04-04T10:55:34.165Z</time></trkpt><trkpt lat="43.1022568" lon="11.4349684"><ele>136.6</ele><time>2026-04-04T10:55:35.165Z</time></trkpt><trkpt lat="43.1022356" lon="11.434847"><ele>137.2</ele><time>2026-04-04T10:55:36.164Z</time></trkpt><trkpt lat="43.1022192" lon="11.434724"><ele>137.8</ele><time>2026-04-04T10:55:37.166Z</time></trkpt><trkpt lat="43.1022267" lon="11.4345994"><ele>138.4</ele><time>2026-04-04T10:55:38.165Z</time></trkpt><trkpt lat="43.1022435" lon="11.4344697"><ele>139.0</ele><time>2026-04-04T10:55:39.164Z</time></trkpt><trkpt lat="43.1022631" lon="11.4343377"><ele>140.2</ele><time>2026-04-04T10:55:40.166Z</time></trkpt><trkpt lat="43.1022836" lon="11.4342125"><ele>141.4</ele><time>2026-04-04T10:55:41.166Z</time></trkpt><trkpt lat="43.1023059" lon="11.4340837"><ele>142.6</ele><time>2026-04-04T10:55:42.166Z</time></trkpt><trkpt lat="43.102328" lon="11.4339526"><ele>143.8</ele><time>2026-04-04T10:55:43.166Z</time></trkpt><trkpt lat="43.1023476" lon="11.4338296"><ele>145.0</ele><time>2026-04-04T10:55:44.166Z</time></trkpt><trkpt lat="43.1023575" lon="11.4337052"><ele>146.0</ele><time>2026-04-04T10:55:45.165Z</time></trkpt><trkpt lat="43.1023686" lon="11.4335827"><ele>147.0</ele><time>2026-04-04T10:55:46.165Z</time></trkpt><trkpt lat="43.1023656" lon="11.4334603"><ele>148.0</ele><time>2026-04-04T10:55:47.165Z</time></trkpt><trkpt lat="43.1023533" lon="11.4333419"><ele>149.0</ele><time>2026-04-04T10:55:48.165Z</time></trkpt><trkpt lat="43.1023358" lon="11.4332123"><ele>150.0</ele><time>2026-04-04T10:55:49.165Z</time></trkpt><trkpt lat="43.102313" lon="11.4330795"><ele>149.2</ele><time>2026-04-04T10:55:50.166Z</time></trkpt><trkpt lat="43.1022857" lon="11.4329477"><ele>148.4</ele><time>2026-04-04T10:55:51.165Z</time></trkpt><trkpt lat="43.1022457" lon="11.4328276"><ele>147.6</ele><time>2026-04-04T10:55:52.165Z</time></trkpt><trkpt lat="43.1022078" lon="11.4327384"><ele>146.8</ele><time>2026-04-04T10:55:53.165Z</time></trkpt><trkpt lat="43.1021649" lon="11.4326623"><ele>146.0</ele><time>2026-04-04T10:55:54.166Z</time></trkpt><trkpt lat="43.1020781" lon="11.4325656"><ele>146.0</ele><time>2026-04-04T10:55:56.165Z</time></trkpt><trkpt lat="43.1020076" lon="11.4325174"><ele>146.0</ele><time>2026-04-04T10:55:57.165Z</time></trkpt><trkpt lat="43.1019196" lon="11.4324709"><ele>146.0</ele><time>2026-04-04T10:55:58.166Z</time></trkpt><trkpt lat="43.1018064" lon="11.4324437"><ele>146.0</ele><time>2026-04-04T10:55:59.165Z</time></trkpt><trkpt lat="43.1016772" lon="11.4324291"><ele>146.0</ele><time>2026-04-04T10:56:00.165Z</time></trkpt><trkpt lat="43.1015461" lon="11.4324317"><ele>147.5</ele><time>2026-04-04T10:56:01.163Z</time></trkpt><trkpt lat="43.1014275" lon="11.4324209"><ele>149.0</ele><time>2026-04-04T10:56:02.165Z</time></trkpt><trkpt lat="43.1012846" lon="11.4324101"><ele>150.5</ele><time>2026-04-04T10:56:03.165Z</time></trkpt><trkpt lat="43.1011535" lon="11.4323954"><ele>152.0</ele><time>2026-04-04T10:56:04.165Z</time></trkpt><trkpt lat="43.1010065" lon="11.4323813"><ele>152.0</ele><time>2026-04-04T10:56:05.164Z</time></trkpt><trkpt lat="43.1008488" lon="11.4323683"><ele>152.0</ele><time>2026-04-04T10:56:06.166Z</time></trkpt><trkpt lat="43.1006982" lon="11.4323457"><ele>152.0</ele><time>2026-04-04T10:56:07.165Z</time></trkpt><trkpt lat="43.1005229" lon="11.4323252"><ele>154.0</ele><time>2026-04-04T10:56:08.164Z</time></trkpt><trkpt lat="43.1003342" lon="11.4323051"><ele>156.0</ele><time>2026-04-04T10:56:09.165Z</time></trkpt><trkpt lat="43.1001527" lon="11.4322857"><ele>158.0</ele><time>2026-04-04T10:56:10.165Z</time></trkpt><trkpt lat="43.0999882" lon="11.4322597"><ele>158.75</ele><time>2026-04-04T10:56:11.165Z</time></trkpt><trkpt lat="43.0998231" lon="11.4322374"><ele>159.5</ele><time>2026-04-04T10:56:12.164Z</time></trkpt><trkpt lat="43.0996623" lon="11.4322228"><ele>160.25</ele><time>2026-04-04T10:56:13.165Z</time></trkpt><trkpt lat="43.0995696" lon="11.432213"><ele>161.0</ele><time>2026-04-04T10:56:14.165Z</time></trkpt><trkpt lat="43.0994467" lon="11.4322019"><ele>161.0</ele><time>2026-04-04T10:56:15.165Z</time></trkpt><trkpt lat="43.0993487" lon="11.4322042"><ele>161.0</ele><time>2026-04-04T10:56:16.165Z</time></trkpt><trkpt lat="43.0992589" lon="11.43221"><ele>161.0</ele><time>2026-04-04T10:56:17.165Z</time></trkpt><trkpt lat="43.0991621" lon="11.4321974"><ele>161.0</ele><time>2026-04-04T10:56:18.164Z</time></trkpt><trkpt lat="43.0990694" lon="11.4322008"><ele>161.0</ele><time>2026-04-04T10:56:19.165Z</time></trkpt><trkpt lat="43.0989681" lon="11.4321835"><ele>160.20000000000002</ele><time>2026-04-04T10:56:20.165Z</time></trkpt><trkpt lat="43.0988679" lon="11.4321666"><ele>159.4</ele><time>2026-04-04T10:56:21.166Z</time></trkpt><trkpt lat="43.0987829" lon="11.4321445"><ele>158.6</ele><time>2026-04-04T10:56:22.163Z</time></trkpt><trkpt lat="43.0986878" lon="11.4321201"><ele>157.8</ele><time>2026-04-04T10:56:23.166Z</time></trkpt><trkpt lat="43.0985885" lon="11.4320695"><ele>157.0</ele><time>2026-04-04T10:56:24.163Z</time></trkpt><trkpt lat="43.0985023" lon="11.4320247"><ele>158.2</ele><time>2026-04-04T10:56:25.163Z</time></trkpt><trkpt lat="43.0984198" lon="11.4319666"><ele>159.39999999999998</ele><time>2026-04-04T10:56:26.166Z</time></trkpt><trkpt lat="43.0983546" lon="11.4319042"><ele>160.60000000000002</ele><time>2026-04-04T10:56:27.165Z</time></trkpt><trkpt lat="43.0982716" lon="11.4318349"><ele>161.8</ele><time>2026-04-04T10:56:28.164Z</time></trkpt><trkpt lat="43.0982033" lon="11.4317486"><ele>163.0</ele><time>2026-04-04T10:56:29.164Z</time></trkpt><trkpt lat="43.0981219" lon="11.4316829"><ele>163.0</ele><time>2026-04-04T10:56:30.164Z</time></trkpt><trkpt lat="43.098051" lon="11.4316092"><ele>163.0</ele><time>2026-04-04T10:56:31.166Z</time></trkpt><trkpt lat="43.0979781" lon="11.4315545"><ele>163.0</ele><time>2026-04-04T10:56:32.164Z</time></trkpt><trkpt lat="43.0979081" lon="11.4314949"><ele>163.0</ele><time>2026-04-04T10:56:33.165Z</time></trkpt><trkpt lat="43.0978131" lon="11.4314209"><ele>163.0</ele><time>2026-04-04T10:56:34.165Z</time></trkpt><trkpt lat="43.0977348" lon="11.4313425"><ele>163.8</ele><time>2026-04-04T10:56:35.163Z</time></trkpt><trkpt lat="43.0976487" lon="11.4312717"><ele>164.60000000000002</ele><time>2026-04-04T10:56:36.166Z</time></trkpt><trkpt lat="43.0975648" lon="11.4311935"><ele>165.39999999999998</ele><time>2026-04-04T10:56:37.164Z</time></trkpt><trkpt lat="43.0974807" lon="11.4310826"><ele>166.2</ele><time>2026-04-04T10:56:38.166Z</time></trkpt><trkpt lat="43.0973856" lon="11.4310069"><ele>167.0</ele><time>2026-04-04T10:56:39.165Z</time></trkpt><trkpt lat="43.097297" lon="11.4309424"><ele>167.0</ele><time>2026-04-04T10:56:40.166Z</time></trkpt><trkpt lat="43.0972111" lon="11.4308775"><ele>167.0</ele><time>2026-04-04T10:56:41.165Z</time></trkpt><trkpt lat="43.0971391" lon="11.430823"><ele>167.0</ele><time>2026-04-04T10:56:42.164Z</time></trkpt><trkpt lat="43.0970564" lon="11.4307346"><ele>167.0</ele><time>2026-04-04T10:56:43.164Z</time></trkpt><trkpt lat="43.09698" lon="11.4306419"><ele>167.0</ele><time>2026-04-04T10:56:44.164Z</time></trkpt><trkpt lat="43.0968866" lon="11.4305739"><ele>167.0</ele><time>2026-04-04T10:56:45.164Z</time></trkpt><trkpt lat="43.096801" lon="11.4304847"><ele>167.0</ele><time>2026-04-04T10:56:46.164Z</time></trkpt><trkpt lat="43.0967186" lon="11.4304036"><ele>167.0</ele><time>2026-04-04T10:56:47.166Z</time></trkpt><trkpt lat="43.0966389" lon="11.4303194"><ele>167.0</ele><time>2026-04-04T10:56:48.164Z</time></trkpt><trkpt lat="43.0965548" lon="11.4302556"><ele>167.0</ele><time>2026-04-04T10:56:49.165Z</time></trkpt><trkpt lat="43.0964603" lon="11.4301451"><ele>168.0</ele><time>2026-04-04T10:56:50.164Z</time></trkpt><trkpt lat="43.0963807" lon="11.4300464"><ele>169.0</ele><time>2026-04-04T10:56:51.163Z</time></trkpt><trkpt lat="43.0962868" lon="11.429951"><ele>170.0</ele><time>2026-04-04T10:56:52.166Z</time></trkpt><trkpt lat="43.0962003" lon="11.4298514"><ele>171.0</ele><time>2026-04-04T10:56:53.165Z</time></trkpt><trkpt lat="43.0961057" lon="11.4297389"><ele>172.0</ele><time>2026-04-04T10:56:54.164Z</time></trkpt><trkpt lat="43.0960112" lon="11.4296395"><ele>173.0</ele><time>2026-04-04T10:56:55.164Z</time></trkpt><trkpt lat="43.0959227" lon="11.42955"><ele>174.0</ele><time>2026-04-04T10:56:56.164Z</time></trkpt><trkpt lat="43.0958197" lon="11.4294693"><ele>175.0</ele><time>2026-04-04T10:56:57.165Z</time></trkpt><trkpt lat="43.0957178" lon="11.4293867"><ele>175.8</ele><time>2026-04-04T10:56:58.166Z</time></trkpt><trkpt lat="43.0956226" lon="11.4293115"><ele>176.6</ele><time>2026-04-04T10:56:59.164Z</time></trkpt><trkpt lat="43.0955383" lon="11.4292515"><ele>177.39999999999998</ele><time>2026-04-04T10:57:00.163Z</time></trkpt><trkpt lat="43.0954399" lon="11.42918"><ele>178.2</ele><time>2026-04-04T10:57:01.164Z</time></trkpt><trkpt lat="43.0953371" lon="11.4290974"><ele>179.0</ele><time>2026-04-04T10:57:02.166Z</time></trkpt><trkpt lat="43.0952279" lon="11.4290293"><ele>179.0</ele><time>2026-04-04T10:57:03.165Z</time></trkpt><trkpt lat="43.0951352" lon="11.428956"><ele>179.0</ele><time>2026-04-04T10:57:04.163Z</time></trkpt><trkpt lat="43.0950428" lon="11.4288938"><ele>179.0</ele><time>2026-04-04T10:57:05.165Z</time></trkpt><trkpt lat="43.0949528" lon="11.4288322"><ele>179.0</ele><time>2026-04-04T10:57:06.165Z</time></trkpt><trkpt lat="43.0948691" lon="11.4287805"><ele>179.0</ele><time>2026-04-04T10:57:07.165Z</time></trkpt><trkpt lat="43.0947818" lon="11.428714"><ele>180.39999999999998</ele><time>2026-04-04T10:57:08.164Z</time></trkpt><trkpt lat="43.0946971" lon="11.4286415"><ele>181.8</ele><time>2026-04-04T10:57:09.164Z</time></trkpt><trkpt lat="43.0946032" lon="11.4285789"><ele>183.2</ele><time>2026-04-04T10:57:10.164Z</time></trkpt><trkpt lat="43.0945119" lon="11.4285209"><ele>184.60000000000002</ele><time>2026-04-04T10:57:11.165Z</time></trkpt><trkpt lat="43.0944142" lon="11.428454"><ele>186.0</ele><time>2026-04-04T10:57:12.163Z</time></trkpt><trkpt lat="43.0943214" lon="11.4283849"><ele>186.0</ele><time>2026-04-04T10:57:13.166Z</time></trkpt><trkpt lat="43.0942189" lon="11.4283053"><ele>186.0</ele><time>2026-04-04T10:57:14.163Z</time></trkpt><trkpt lat="43.0941413" lon="11.4282272"><ele>186.0</ele><time>2026-04-04T10:57:15.165Z</time></trkpt><trkpt lat="43.0940428" lon="11.4281587"><ele>186.0</ele><time>2026-04-04T10:57:16.165Z</time></trkpt><trkpt lat="43.0939421" lon="11.428093"><ele>186.0</ele><time>2026-04-04T10:57:17.164Z</time></trkpt><trkpt lat="43.0938445" lon="11.428022"><ele>187.25</ele><time>2026-04-04T10:57:18.164Z</time></trkpt><trkpt lat="43.0937402" lon="11.4279494"><ele>188.5</ele><time>2026-04-04T10:57:19.164Z</time></trkpt><trkpt lat="43.0936361" lon="11.4278561"><ele>189.75</ele><time>2026-04-04T10:57:20.164Z</time></trkpt><trkpt lat="43.0935307" lon="11.4277801"><ele>191.0</ele><time>2026-04-04T10:57:21.164Z</time></trkpt><trkpt lat="43.0934268" lon="11.4277114"><ele>191.0</ele><time>2026-04-04T10:57:22.165Z</time></trkpt><trkpt lat="43.0933215" lon="11.4276335"><ele>191.0</ele><time>2026-04-04T10:57:23.164Z</time></trkpt><trkpt lat="43.0932262" lon="11.4275613"><ele>191.0</ele><time>2026-04-04T10:57:24.163Z</time></trkpt><trkpt lat="43.0931203" lon="11.4274828"><ele>191.0</ele><time>2026-04-04T10:57:25.163Z</time></trkpt><trkpt lat="43.0930249" lon="11.4274126"><ele>191.60000000000002</ele><time>2026-04-04T10:57:26.163Z</time></trkpt><trkpt lat="43.092924" lon="11.427339"><ele>192.2</ele><time>2026-04-04T10:57:27.165Z</time></trkpt><trkpt lat="43.0928328" lon="11.4272685"><ele>192.8</ele><time>2026-04-04T10:57:28.165Z</time></trkpt><trkpt lat="43.0927332" lon="11.4272064"><ele>193.39999999999998</ele><time>2026-04-04T10:57:29.166Z</time></trkpt><trkpt lat="43.0926355" lon="11.4271353"><ele>194.0</ele><time>2026-04-04T10:57:30.163Z</time></trkpt><trkpt lat="43.0925313" lon="11.4270627"><ele>194.75</ele><time>2026-04-04T10:57:31.166Z</time></trkpt><trkpt lat="43.0924237" lon="11.4269874"><ele>195.5</ele><time>2026-04-04T10:57:32.163Z</time></trkpt><trkpt lat="43.0923152" lon="11.4269082"><ele>196.25</ele><time>2026-04-04T10:57:33.164Z</time></trkpt><trkpt lat="43.0922159" lon="11.4268425"><ele>197.0</ele><time>2026-04-04T10:57:34.164Z</time></trkpt><trkpt lat="43.0921176" lon="11.42677"><ele>197.6</ele><time>2026-04-04T10:57:35.164Z</time></trkpt><trkpt lat="43.0920213" lon="11.4267069"><ele>198.2</ele><time>2026-04-04T10:57:36.165Z</time></trkpt><trkpt lat="43.0919262" lon="11.426647"><ele>198.8</ele><time>2026-04-04T10:57:37.164Z</time></trkpt><trkpt lat="43.0918318" lon="11.4265801"><ele>199.4</ele><time>2026-04-04T10:57:38.165Z</time></trkpt><trkpt lat="43.0917378" lon="11.4265161"><ele>200.0</ele><time>2026-04-04T10:57:39.165Z</time></trkpt><trkpt lat="43.0916582" lon="11.4264478"><ele>199.8</ele><time>2026-04-04T10:57:40.166Z</time></trkpt><trkpt lat="43.0915659" lon="11.4263835"><ele>199.6</ele><time>2026-04-04T10:57:41.166Z</time></trkpt><trkpt lat="43.0914786" lon="11.4263216"><ele>199.39999999999998</ele><time>2026-04-04T10:57:42.164Z</time></trkpt><trkpt lat="43.0913921" lon="11.426232"><ele>199.2</ele><time>2026-04-04T10:57:43.163Z</time></trkpt><trkpt lat="43.0913125" lon="11.4261635"><ele>199.0</ele><time>2026-04-04T10:57:44.164Z</time></trkpt><trkpt lat="43.0912336" lon="11.4261097"><ele>199.79999999999998</ele><time>2026-04-04T10:57:45.165Z</time></trkpt><trkpt lat="43.0911442" lon="11.4260719"><ele>200.6</ele><time>2026-04-04T10:57:46.164Z</time></trkpt><trkpt lat="43.0910446" lon="11.4260162"><ele>201.4</ele><time>2026-04-04T10:57:47.164Z</time></trkpt><trkpt lat="43.0909472" lon="11.4259643"><ele>202.2</ele><time>2026-04-04T10:57:48.165Z</time></trkpt><trkpt lat="43.0908462" lon="11.4259267"><ele>203.0</ele><time>2026-04-04T10:57:49.164Z</time></trkpt><trkpt lat="43.0907433" lon="11.4258974"><ele>204.2</ele><time>2026-04-04T10:57:50.165Z</time></trkpt><trkpt lat="43.0906418" lon="11.4258561"><ele>205.4</ele><time>2026-04-04T10:57:51.163Z</time></trkpt><trkpt lat="43.090541" lon="11.4258349"><ele>206.6</ele><time>2026-04-04T10:57:52.166Z</time></trkpt><trkpt lat="43.0904297" lon="11.4258172"><ele>207.79999999999998</ele><time>2026-04-04T10:57:53.164Z</time></trkpt><trkpt lat="43.0903142" lon="11.4257961"><ele>209.0</ele><time>2026-04-04T10:57:54.164Z</time></trkpt><trkpt lat="43.0902221" lon="11.4257874"><ele>209.0</ele><time>2026-04-04T10:57:55.165Z</time></trkpt><trkpt lat="43.0901092" lon="11.4257436"><ele>209.0</ele><time>2026-04-04T10:57:56.165Z</time></trkpt><trkpt lat="43.0899975" lon="11.425713"><ele>209.0</ele><time>2026-04-04T10:57:57.164Z</time></trkpt><trkpt lat="43.0898875" lon="11.4256841"><ele>209.0</ele><time>2026-04-04T10:57:58.163Z</time></trkpt><trkpt lat="43.0897804" lon="11.4256525"><ele>210.0</ele><time>2026-04-04T10:57:59.165Z</time></trkpt><trkpt lat="43.0897022" lon="11.4256304"><ele>211.0</ele><time>2026-04-04T10:58:00.164Z</time></trkpt><trkpt lat="43.0895904" lon="11.425602"><ele>211.99999999999997</ele><time>2026-04-04T10:58:01.164Z</time></trkpt><trkpt lat="43.0894667" lon="11.4255644"><ele>213.0</ele><time>2026-04-04T10:58:02.163Z</time></trkpt><trkpt lat="43.0893433" lon="11.4255294"><ele>214.0</ele><time>2026-04-04T10:58:03.164Z</time></trkpt><trkpt lat="43.0892289" lon="11.425496"><ele>215.79999999999998</ele><time>2026-04-04T10:58:04.164Z</time></trkpt><trkpt lat="43.089153" lon="11.4254518"><ele>217.59999999999997</ele><time>2026-04-04T10:58:05.164Z</time></trkpt><trkpt lat="43.0890635" lon="11.425408"><ele>219.4</ele><time>2026-04-04T10:58:06.164Z</time></trkpt><trkpt lat="43.0889813" lon="11.4252834"><ele>221.2</ele><time>2026-04-04T10:58:07.163Z</time></trkpt><trkpt lat="43.0889502" lon="11.4251439"><ele>223.0</ele><time>2026-04-04T10:58:08.164Z</time></trkpt><trkpt lat="43.0889374" lon="11.4250239"><ele>226.4</ele><time>2026-04-04T10:58:09.165Z</time></trkpt><trkpt lat="43.0889316" lon="11.4248916"><ele>229.8</ele><time>2026-04-04T10:58:10.164Z</time></trkpt><trkpt lat="43.0889293" lon="11.4247397"><ele>233.2</ele><time>2026-04-04T10:58:11.165Z</time></trkpt><trkpt lat="43.0889691" lon="11.4246111"><ele>236.6</ele><time>2026-04-04T10:58:12.164Z</time></trkpt><trkpt lat="43.0889949" lon="11.4244556"><ele>240.0</ele><time>2026-04-04T10:58:13.163Z</time></trkpt><trkpt lat="43.089016" lon="11.4243265"><ele>239.6</ele><time>2026-04-04T10:58:14.164Z</time></trkpt><trkpt lat="43.0890366" lon="11.4241755"><ele>239.2</ele><time>2026-04-04T10:58:15.165Z</time></trkpt><trkpt lat="43.0890664" lon="11.4240598"><ele>238.8</ele><time>2026-04-04T10:58:16.164Z</time></trkpt><trkpt lat="43.0890915" lon="11.4239364"><ele>238.4</ele><time>2026-04-04T10:58:17.163Z</time></trkpt><trkpt lat="43.0891093" lon="11.4238235"><ele>238.0</ele><time>2026-04-04T10:58:18.163Z</time></trkpt><trkpt lat="43.0891273" lon="11.423705"><ele>237.99999999999997</ele><time>2026-04-04T10:58:19.164Z</time></trkpt><trkpt lat="43.0891654" lon="11.4236036"><ele>238.0</ele><time>2026-04-04T10:58:20.163Z</time></trkpt><trkpt lat="43.0891676" lon="11.4235111"><ele>238.0</ele><time>2026-04-04T10:58:21.163Z</time></trkpt><trkpt lat="43.0891668" lon="11.423401"><ele>238.0</ele><time>2026-04-04T10:58:22.165Z</time></trkpt><trkpt lat="43.0891619" lon="11.4232812"><ele>237.99999999999997</ele><time>2026-04-04T10:58:23.164Z</time></trkpt><trkpt lat="43.089136" lon="11.4231602"><ele>238.0</ele><time>2026-04-04T10:58:24.164Z</time></trkpt><trkpt lat="43.0890916" lon="11.4230349"><ele>242.16666666666666</ele><time>2026-04-04T10:58:25.164Z</time></trkpt><trkpt lat="43.0890612" lon="11.4229146"><ele>246.33333333333331</ele><time>2026-04-04T10:58:26.164Z</time></trkpt><trkpt lat="43.0890237" lon="11.4228151"><ele>250.5</ele><time>2026-04-04T10:58:27.163Z</time></trkpt><trkpt lat="43.0889989" lon="11.4227175"><ele>254.66666666666669</ele><time>2026-04-04T10:58:28.164Z</time></trkpt><trkpt lat="43.0889559" lon="11.4226146"><ele>258.83333333333337</ele><time>2026-04-04T10:58:29.164Z</time></trkpt><trkpt lat="43.0889118" lon="11.4225189"><ele>263.0</ele><time>2026-04-04T10:58:30.163Z</time></trkpt><trkpt lat="43.0888433" lon="11.4223667"><ele>263.0</ele><time>2026-04-04T10:58:32.164Z</time></trkpt><trkpt lat="43.0887963" lon="11.4222021"><ele>263.0</ele><time>2026-04-04T10:58:34.165Z</time></trkpt><trkpt lat="43.0887681" lon="11.4221188"><ele>263.0</ele><time>2026-04-04T10:58:35.165Z</time></trkpt><trkpt lat="43.088743" lon="11.4220366"><ele>263.0</ele><time>2026-04-04T10:58:36.164Z</time></trkpt><trkpt lat="43.0887177" lon="11.421957"><ele>263.0</ele><time>2026-04-04T10:58:37.163Z</time></trkpt><trkpt lat="43.0886887" lon="11.4218657"><ele>263.0</ele><time>2026-04-04T10:58:38.164Z</time></trkpt><trkpt lat="43.0885884" lon="11.4217441"><ele>262.0</ele><time>2026-04-04T10:58:40.164Z</time></trkpt><trkpt lat="43.0885278" lon="11.4217036"><ele>261.0</ele><time>2026-04-04T10:58:41.164Z</time></trkpt><trkpt lat="43.0884541" lon="11.4216891"><ele>260.0</ele><time>2026-04-04T10:58:42.164Z</time></trkpt><trkpt lat="43.0883811" lon="11.4216871"><ele>259.0</ele><time>2026-04-04T10:58:43.165Z</time></trkpt><trkpt lat="43.0883175" lon="11.4216954"><ele>258.0</ele><time>2026-04-04T10:58:44.163Z</time></trkpt><trkpt lat="43.0882212" lon="11.4218177"><ele>257.0</ele><time>2026-04-04T10:58:46.164Z</time></trkpt><trkpt lat="43.0881828" lon="11.4218875"><ele>260.1428571428571</ele><time>2026-04-04T10:58:47.163Z</time></trkpt><trkpt lat="43.0881626" lon="11.421995"><ele>263.2857142857143</ele><time>2026-04-04T10:58:48.164Z</time></trkpt><trkpt lat="43.0881412" lon="11.4220879"><ele>266.42857142857144</ele><time>2026-04-04T10:58:49.164Z</time></trkpt><trkpt lat="43.0881162" lon="11.4221725"><ele>269.57142857142856</ele><time>2026-04-04T10:58:50.164Z</time></trkpt><trkpt lat="43.0880923" lon="11.4222529"><ele>272.7142857142857</ele><time>2026-04-04T10:58:51.163Z</time></trkpt><trkpt lat="43.0880736" lon="11.4223497"><ele>275.85714285714283</ele><time>2026-04-04T10:58:52.165Z</time></trkpt><trkpt lat="43.0880535" lon="11.422432"><ele>279.0</ele><time>2026-04-04T10:58:53.164Z</time></trkpt><trkpt lat="43.0880231" lon="11.4225139"><ele>279.5</ele><time>2026-04-04T10:58:54.165Z</time></trkpt><trkpt lat="43.0879831" lon="11.4226388"><ele>280.0</ele><time>2026-04-04T10:58:56.164Z</time></trkpt><trkpt lat="43.087961" lon="11.4227263"><ele>280.5</ele><time>2026-04-04T10:58:57.164Z</time></trkpt><trkpt lat="43.0879138" lon="11.4228815"><ele>281.0</ele><time>2026-04-04T10:58:59.164Z</time></trkpt><trkpt lat="43.0878906" lon="11.4229792"><ele>281.5</ele><time>2026-04-04T10:59:00.165Z</time></trkpt><trkpt lat="43.0878532" lon="11.4230742"><ele>282.0</ele><time>2026-04-04T10:59:01.164Z</time></trkpt><trkpt lat="43.0878187" lon="11.4231785"><ele>282.1666666666667</ele><time>2026-04-04T10:59:02.165Z</time></trkpt><trkpt lat="43.0877669" lon="11.4232625"><ele>282.3333333333333</ele><time>2026-04-04T10:59:03.164Z</time></trkpt><trkpt lat="43.0877186" lon="11.4233403"><ele>282.5</ele><time>2026-04-04T10:59:04.164Z</time></trkpt><trkpt lat="43.0876202" lon="11.4234039"><ele>282.66666666666663</ele><time>2026-04-04T10:59:06.164Z</time></trkpt><trkpt lat="43.0875629" lon="11.4233496"><ele>282.8333333333333</ele><time>2026-04-04T10:59:08.164Z</time></trkpt><trkpt lat="43.0875068" lon="11.423264"><ele>283.0</ele><time>2026-04-04T10:59:10.163Z</time></trkpt><trkpt lat="43.0874716" lon="11.4231206"><ele>283.0</ele><time>2026-04-04T10:59:12.165Z</time></trkpt><trkpt lat="43.0874559" lon="11.423014"><ele>283.0</ele><time>2026-04-04T10:59:13.164Z</time></trkpt><trkpt lat="43.087423" lon="11.4228413"><ele>283.0</ele><time>2026-04-04T10:59:15.165Z</time></trkpt><trkpt lat="43.0873912" lon="11.4227511"><ele>283.0</ele><time>2026-04-04T10:59:16.162Z</time></trkpt><trkpt lat="43.0873603" lon="11.4226721"><ele>283.0</ele><time>2026-04-04T10:59:17.165Z</time></trkpt><trkpt lat="43.0872888" lon="11.4225954"><ele>283.0</ele><time>2026-04-04T10:59:19.164Z</time></trkpt><trkpt lat="43.0872018" lon="11.4226314"><ele>288.4</ele><time>2026-04-04T10:59:21.163Z</time></trkpt><trkpt lat="43.0871547" lon="11.4227621"><ele>293.8</ele><time>2026-04-04T10:59:23.163Z</time></trkpt><trkpt lat="43.0871533" lon="11.4228837"><ele>299.2</ele><time>2026-04-04T10:59:25.163Z</time></trkpt><trkpt lat="43.0871314" lon="11.4230449"><ele>304.6</ele><time>2026-04-04T10:59:27.163Z</time></trkpt><trkpt lat="43.0871079" lon="11.4231379"><ele>310.0</ele><time>2026-04-04T10:59:28.163Z</time></trkpt><trkpt lat="43.0870862" lon="11.423226"><ele>310.0</ele><time>2026-04-04T10:59:29.164Z</time></trkpt><trkpt lat="43.0870652" lon="11.4233177"><ele>310.0</ele><time>2026-04-04T10:59:30.164Z</time></trkpt><trkpt lat="43.0870464" lon="11.4234186"><ele>310.0</ele><time>2026-04-04T10:59:31.164Z</time></trkpt><trkpt lat="43.0870107" lon="11.4235232"><ele>310.0</ele><time>2026-04-04T10:59:32.163Z</time></trkpt><trkpt lat="43.0869947" lon="11.4236134"><ele>310.0</ele><time>2026-04-04T10:59:33.163Z</time></trkpt><trkpt lat="43.0869488" lon="11.4237016"><ele>310.0</ele><time>2026-04-04T10:59:34.163Z</time></trkpt><trkpt lat="43.0868999" lon="11.4237754"><ele>311.3333333333333</ele><time>2026-04-04T10:59:35.163Z</time></trkpt><trkpt lat="43.0868417" lon="11.4238242"><ele>312.66666666666663</ele><time>2026-04-04T10:59:36.163Z</time></trkpt><trkpt lat="43.0867709" lon="11.4238478"><ele>314.0</ele><time>2026-04-04T10:59:37.165Z</time></trkpt><trkpt lat="43.0866446" lon="11.4238408"><ele>315.3333333333333</ele><time>2026-04-04T10:59:39.165Z</time></trkpt><trkpt lat="43.0865815" lon="11.4238157"><ele>316.6666666666667</ele><time>2026-04-04T10:59:40.164Z</time></trkpt><trkpt lat="43.0865223" lon="11.4237832"><ele>318.0</ele><time>2026-04-04T10:59:41.164Z</time></trkpt><trkpt lat="43.0864503" lon="11.4236949"><ele>320.2</ele><time>2026-04-04T10:59:43.164Z</time></trkpt><trkpt lat="43.0864117" lon="11.4235385"><ele>322.4</ele><time>2026-04-04T10:59:45.164Z</time></trkpt><trkpt lat="43.0864344" lon="11.423376"><ele>324.59999999999997</ele><time>2026-04-04T10:59:47.164Z</time></trkpt><trkpt lat="43.0864598" lon="11.4232729"><ele>326.8</ele><time>2026-04-04T10:59:48.163Z</time></trkpt><trkpt lat="43.0864905" lon="11.4231834"><ele>329.0</ele><time>2026-04-04T10:59:49.163Z</time></trkpt><trkpt lat="43.0865109" lon="11.4230905"><ele>329.0</ele><time>2026-04-04T10:59:50.163Z</time></trkpt><trkpt lat="43.0865301" lon="11.4229993"><ele>329.0</ele><time>2026-04-04T10:59:51.164Z</time></trkpt><trkpt lat="43.0865484" lon="11.4229091"><ele>329.0</ele><time>2026-04-04T10:59:52.163Z</time></trkpt><trkpt lat="43.086535" lon="11.4227938"><ele>329.0</ele><time>2026-04-04T10:59:53.162Z</time></trkpt><trkpt lat="43.086508" lon="11.4227115"><ele>329.0</ele><time>2026-04-04T10:59:54.164Z</time></trkpt><trkpt lat="43.0864784" lon="11.4226311"><ele>329.0</ele><time>2026-04-04T10:59:55.164Z</time></trkpt><trkpt lat="43.086423" lon="11.422579"><ele>329.0</ele><time>2026-04-04T10:59:56.163Z</time></trkpt><trkpt lat="43.0863486" lon="11.4225619"><ele>329.0</ele><time>2026-04-04T10:59:57.164Z</time></trkpt><trkpt lat="43.0862621" lon="11.4226378"><ele>329.0</ele><time>2026-04-04T10:59:59.166Z</time></trkpt><trkpt lat="43.0862123" lon="11.422711"><ele>329.0</ele><time>2026-04-04T11:00:00.164Z</time></trkpt><trkpt lat="43.0861654" lon="11.4227884"><ele>329.0</ele><time>2026-04-04T11:00:01.164Z</time></trkpt><trkpt lat="43.0861143" lon="11.4228779"><ele>329.0</ele><time>2026-04-04T11:00:02.163Z</time></trkpt><trkpt lat="43.0860514" lon="11.4229808"><ele>329.0</ele><time>2026-04-04T11:00:03.164Z</time></trkpt><trkpt lat="43.086009" lon="11.42307"><ele>329.0</ele><time>2026-04-04T11:00:04.164Z</time></trkpt><trkpt lat="43.0859495" lon="11.423194"><ele>329.0</ele><time>2026-04-04T11:00:06.163Z</time></trkpt><trkpt lat="43.0858948" lon="11.4232388"><ele>329.0</ele><time>2026-04-04T11:00:07.163Z</time></trkpt><trkpt lat="43.085828" lon="11.4232475"><ele>329.0</ele><time>2026-04-04T11:00:08.164Z</time></trkpt><trkpt lat="43.085764" lon="11.4232407"><ele>329.0</ele><time>2026-04-04T11:00:09.164Z</time></trkpt><trkpt lat="43.0856999" lon="11.423188"><ele>329.0</ele><time>2026-04-04T11:00:10.163Z</time></trkpt><trkpt lat="43.0856374" lon="11.4231396"><ele>331.6666666666667</ele><time>2026-04-04T11:00:11.164Z</time></trkpt><trkpt lat="43.0855868" lon="11.4230592"><ele>334.33333333333337</ele><time>2026-04-04T11:00:12.164Z</time></trkpt><trkpt lat="43.0855526" lon="11.4229652"><ele>337.0</ele><time>2026-04-04T11:00:13.164Z</time></trkpt><trkpt lat="43.0855159" lon="11.4228579"><ele>339.6666666666667</ele><time>2026-04-04T11:00:14.163Z</time></trkpt><trkpt lat="43.0854855" lon="11.422747"><ele>342.3333333333333</ele><time>2026-04-04T11:00:15.163Z</time></trkpt><trkpt lat="43.0854559" lon="11.4226342"><ele>345.0</ele><time>2026-04-04T11:00:16.164Z</time></trkpt><trkpt lat="43.0854355" lon="11.4225213"><ele>345.6666666666667</ele><time>2026-04-04T11:00:17.163Z</time></trkpt><trkpt lat="43.0854051" lon="11.422407"><ele>346.3333333333333</ele><time>2026-04-04T11:00:18.164Z</time></trkpt><trkpt lat="43.0853832" lon="11.4222974"><ele>347.0</ele><time>2026-04-04T11:00:19.164Z</time></trkpt><trkpt lat="43.0853475" lon="11.4221864"><ele>347.66666666666663</ele><time>2026-04-04T11:00:20.164Z</time></trkpt><trkpt lat="43.0853066" lon="11.4220726"><ele>348.3333333333333</ele><time>2026-04-04T11:00:21.165Z</time></trkpt><trkpt lat="43.0852679" lon="11.4219841"><ele>349.0</ele><time>2026-04-04T11:00:22.165Z</time></trkpt><trkpt lat="43.085213" lon="11.4219129"><ele>348.2</ele><time>2026-04-04T11:00:23.165Z</time></trkpt><trkpt lat="43.0851528" lon="11.4218507"><ele>347.4</ele><time>2026-04-04T11:00:24.165Z</time></trkpt><trkpt lat="43.0850691" lon="11.4217874"><ele>346.6</ele><time>2026-04-04T11:00:25.163Z</time></trkpt><trkpt lat="43.0849769" lon="11.4217298"><ele>345.8</ele><time>2026-04-04T11:00:26.163Z</time></trkpt><trkpt lat="43.0848862" lon="11.421688"><ele>345.0</ele><time>2026-04-04T11:00:27.163Z</time></trkpt><trkpt lat="43.0847854" lon="11.4216601"><ele>345.0</ele><time>2026-04-04T11:00:28.164Z</time></trkpt><trkpt lat="43.0846901" lon="11.42162"><ele>345.0</ele><time>2026-04-04T11:00:29.163Z</time></trkpt><trkpt lat="43.0845851" lon="11.4215722"><ele>345.0</ele><time>2026-04-04T11:00:30.164Z</time></trkpt><trkpt lat="43.0844879" lon="11.4215177"><ele>345.0</ele><time>2026-04-04T11:00:31.164Z</time></trkpt><trkpt lat="43.0844035" lon="11.421472"><ele>345.0</ele><time>2026-04-04T11:00:32.162Z</time></trkpt><trkpt lat="43.0843216" lon="11.4214202"><ele>345.0</ele><time>2026-04-04T11:00:33.164Z</time></trkpt><trkpt lat="43.0842432" lon="11.4213535"><ele>345.0</ele><time>2026-04-04T11:00:34.163Z</time></trkpt><trkpt lat="43.0841706" lon="11.4212913"><ele>345.0</ele><time>2026-04-04T11:00:35.163Z</time></trkpt><trkpt lat="43.0840881" lon="11.4212319"><ele>345.0</ele><time>2026-04-04T11:00:36.163Z</time></trkpt><trkpt lat="43.0840088" lon="11.4211703"><ele>345.0</ele><time>2026-04-04T11:00:37.164Z</time></trkpt><trkpt lat="43.0839259" lon="11.4211133"><ele>345.4</ele><time>2026-04-04T11:00:38.165Z</time></trkpt><trkpt lat="43.083841" lon="11.4210615"><ele>345.8</ele><time>2026-04-04T11:00:39.163Z</time></trkpt><trkpt lat="43.0837549" lon="11.4210001"><ele>346.20000000000005</ele><time>2026-04-04T11:00:40.163Z</time></trkpt><trkpt lat="43.0836606" lon="11.4209481"><ele>346.6</ele><time>2026-04-04T11:00:41.163Z</time></trkpt><trkpt lat="43.0835664" lon="11.4209139"><ele>347.0</ele><time>2026-04-04T11:00:42.163Z</time></trkpt><trkpt lat="43.0834677" lon="11.4208762"><ele>347.0</ele><time>2026-04-04T11:00:43.164Z</time></trkpt><trkpt lat="43.0833736" lon="11.4208555"><ele>347.0</ele><time>2026-04-04T11:00:44.162Z</time></trkpt><trkpt lat="43.0832842" lon="11.4208301"><ele>347.0</ele><time>2026-04-04T11:00:45.163Z</time></trkpt><trkpt lat="43.0831988" lon="11.4208014"><ele>347.0</ele><time>2026-04-04T11:00:46.164Z</time></trkpt><trkpt lat="43.0831212" lon="11.4207689"><ele>347.0</ele><time>2026-04-04T11:00:47.163Z</time></trkpt><trkpt lat="43.0830407" lon="11.4207366"><ele>347.0</ele><time>2026-04-04T11:00:48.163Z</time></trkpt><trkpt lat="43.0829605" lon="11.420714"><ele>348.33333333333337</ele><time>2026-04-04T11:00:49.163Z</time></trkpt><trkpt lat="43.0828787" lon="11.4206944"><ele>349.6666666666667</ele><time>2026-04-04T11:00:50.164Z</time></trkpt><trkpt lat="43.0827958" lon="11.4206646"><ele>351.0</ele><time>2026-04-04T11:00:51.163Z</time></trkpt><trkpt lat="43.0827105" lon="11.4206233"><ele>352.3333333333333</ele><time>2026-04-04T11:00:52.164Z</time></trkpt><trkpt lat="43.0826221" lon="11.4205949"><ele>353.66666666666663</ele><time>2026-04-04T11:00:53.163Z</time></trkpt><trkpt lat="43.082537" lon="11.4205707"><ele>355.0</ele><time>2026-04-04T11:00:54.164Z</time></trkpt><trkpt lat="43.0824562" lon="11.420552"><ele>354.8</ele><time>2026-04-04T11:00:55.164Z</time></trkpt><trkpt lat="43.0823698" lon="11.4205381"><ele>354.6</ele><time>2026-04-04T11:00:56.164Z</time></trkpt><trkpt lat="43.0822673" lon="11.4205256"><ele>354.4</ele><time>2026-04-04T11:00:57.163Z</time></trkpt><trkpt lat="43.0821719" lon="11.4205235"><ele>354.2</ele><time>2026-04-04T11:00:58.163Z</time></trkpt><trkpt lat="43.0820671" lon="11.4205231"><ele>354.0</ele><time>2026-04-04T11:00:59.163Z</time></trkpt><trkpt lat="43.0819767" lon="11.420506"><ele>355.0</ele><time>2026-04-04T11:01:00.164Z</time></trkpt><trkpt lat="43.0818757" lon="11.4204698"><ele>356.0</ele><time>2026-04-04T11:01:01.163Z</time></trkpt><trkpt lat="43.0817791" lon="11.4204202"><ele>357.0</ele><time>2026-04-04T11:01:02.164Z</time></trkpt><trkpt lat="43.0816794" lon="11.4203497"><ele>358.0</ele><time>2026-04-04T11:01:03.163Z</time></trkpt><trkpt lat="43.0815907" lon="11.4202581"><ele>359.0</ele><time>2026-04-04T11:01:04.162Z</time></trkpt><trkpt lat="43.0815048" lon="11.4201648"><ele>361.2</ele><time>2026-04-04T11:01:05.164Z</time></trkpt><trkpt lat="43.0814319" lon="11.4200578"><ele>363.4</ele><time>2026-04-04T11:01:06.165Z</time></trkpt><trkpt lat="43.0813717" lon="11.419963"><ele>365.6</ele><time>2026-04-04T11:01:07.164Z</time></trkpt><trkpt lat="43.0813152" lon="11.4198698"><ele>367.8</ele><time>2026-04-04T11:01:08.162Z</time></trkpt><trkpt lat="43.0812678" lon="11.4197736"><ele>370.0</ele><time>2026-04-04T11:01:09.164Z</time></trkpt><trkpt lat="43.081209" lon="11.4196743"><ele>369.2</ele><time>2026-04-04T11:01:10.163Z</time></trkpt><trkpt lat="43.0811399" lon="11.4196047"><ele>368.4</ele><time>2026-04-04T11:01:11.162Z</time></trkpt><trkpt lat="43.081071" lon="11.4195349"><ele>367.6</ele><time>2026-04-04T11:01:12.163Z</time></trkpt><trkpt lat="43.0809855" lon="11.4194786"><ele>366.8</ele><time>2026-04-04T11:01:13.163Z</time></trkpt><trkpt lat="43.0808955" lon="11.4194322"><ele>366.0</ele><time>2026-04-04T11:01:14.163Z</time></trkpt><trkpt lat="43.080803" lon="11.4193956"><ele>369.8</ele><time>2026-04-04T11:01:15.164Z</time></trkpt><trkpt lat="43.0807074" lon="11.4193793"><ele>373.6</ele><time>2026-04-04T11:01:16.165Z</time></trkpt><trkpt lat="43.0806127" lon="11.4193607"><ele>377.4</ele><time>2026-04-04T11:01:17.163Z</time></trkpt><trkpt lat="43.0805226" lon="11.4193291"><ele>381.2</ele><time>2026-04-04T11:01:18.162Z</time></trkpt><trkpt lat="43.0804405" lon="11.4192952"><ele>385.0</ele><time>2026-04-04T11:01:19.163Z</time></trkpt><trkpt lat="43.0803655" lon="11.4192487"><ele>385.00000000000006</ele><time>2026-04-04T11:01:20.163Z</time></trkpt><trkpt lat="43.0803029" lon="11.4191941"><ele>385.0</ele><time>2026-04-04T11:01:21.164Z</time></trkpt><trkpt lat="43.080256" lon="11.4191188"><ele>385.0</ele><time>2026-04-04T11:01:22.165Z</time></trkpt><trkpt lat="43.0802197" lon="11.4190269"><ele>385.0</ele><time>2026-04-04T11:01:23.163Z</time></trkpt><trkpt lat="43.0801919" lon="11.4189458"><ele>385.00000000000006</ele><time>2026-04-04T11:01:24.163Z</time></trkpt><trkpt lat="43.0801159" lon="11.4187861"><ele>385.0</ele><time>2026-04-04T11:01:26.163Z</time></trkpt><trkpt lat="43.0800493" lon="11.4187147"><ele>383.50000000000006</ele><time>2026-04-04T11:01:27.163Z</time></trkpt><trkpt lat="43.0799812" lon="11.4186462"><ele>382.0</ele><time>2026-04-04T11:01:28.163Z</time></trkpt><trkpt lat="43.0799057" lon="11.4186013"><ele>380.5</ele><time>2026-04-04T11:01:29.163Z</time></trkpt><trkpt lat="43.0798243" lon="11.4185651"><ele>379.0</ele><time>2026-04-04T11:01:30.162Z</time></trkpt><trkpt lat="43.0797382" lon="11.4185268"><ele>377.5</ele><time>2026-04-04T11:01:31.163Z</time></trkpt><trkpt lat="43.0796581" lon="11.4184818"><ele>376.0</ele><time>2026-04-04T11:01:32.163Z</time></trkpt><trkpt lat="43.07957" lon="11.4184456"><ele>379.5</ele><time>2026-04-04T11:01:33.164Z</time></trkpt><trkpt lat="43.079486" lon="11.4184136"><ele>383.0</ele><time>2026-04-04T11:01:34.163Z</time></trkpt><trkpt lat="43.0794025" lon="11.4183709"><ele>386.5</ele><time>2026-04-04T11:01:35.164Z</time></trkpt><trkpt lat="43.0793202" lon="11.4183285"><ele>390.0</ele><time>2026-04-04T11:01:36.163Z</time></trkpt><trkpt lat="43.0792345" lon="11.4182549"><ele>393.50000000000006</ele><time>2026-04-04T11:01:37.163Z</time></trkpt><trkpt lat="43.0791783" lon="11.418183"><ele>397.0</ele><time>2026-04-04T11:01:38.162Z</time></trkpt><trkpt lat="43.0791109" lon="11.4181144"><ele>396.6666666666667</ele><time>2026-04-04T11:01:39.163Z</time></trkpt><trkpt lat="43.0790524" lon="11.418049"><ele>396.33333333333337</ele><time>2026-04-04T11:01:40.163Z</time></trkpt><trkpt lat="43.07897" lon="11.4179972"><ele>396.0</ele><time>2026-04-04T11:01:41.164Z</time></trkpt><trkpt lat="43.0788928" lon="11.4179683"><ele>395.66666666666663</ele><time>2026-04-04T11:01:42.162Z</time></trkpt><trkpt lat="43.0788215" lon="11.4179459"><ele>395.3333333333333</ele><time>2026-04-04T11:01:43.163Z</time></trkpt><trkpt lat="43.0787375" lon="11.417919"><ele>395.0</ele><time>2026-04-04T11:01:44.164Z</time></trkpt><trkpt lat="43.0786646" lon="11.4178994"><ele>395.0</ele><time>2026-04-04T11:01:45.165Z</time></trkpt><trkpt lat="43.0785695" lon="11.4178678"><ele>395.0</ele><time>2026-04-04T11:01:46.163Z</time></trkpt><trkpt lat="43.0784597" lon="11.4178566"><ele>395.0</ele><time>2026-04-04T11:01:47.164Z</time></trkpt><trkpt lat="43.0783634" lon="11.4178496"><ele>395.0</ele><time>2026-04-04T11:01:48.164Z</time></trkpt><trkpt lat="43.0782778" lon="11.4178571"><ele>395.0</ele><time>2026-04-04T11:01:49.162Z</time></trkpt><trkpt lat="43.0781834" lon="11.4178285"><ele>397.3333333333333</ele><time>2026-04-04T11:01:50.163Z</time></trkpt><trkpt lat="43.0781092" lon="11.4178211"><ele>399.66666666666663</ele><time>2026-04-04T11:01:51.164Z</time></trkpt><trkpt lat="43.0780289" lon="11.4178187"><ele>402.0</ele><time>2026-04-04T11:01:52.162Z</time></trkpt><trkpt lat="43.0779293" lon="11.4178126"><ele>404.33333333333337</ele><time>2026-04-04T11:01:53.163Z</time></trkpt><trkpt lat="43.0778431" lon="11.4178312"><ele>406.6666666666667</ele><time>2026-04-04T11:01:54.164Z</time></trkpt><trkpt lat="43.0777578" lon="11.4178442"><ele>409.0</ele><time>2026-04-04T11:01:55.162Z</time></trkpt><trkpt lat="43.077665" lon="11.4178328"><ele>409.0</ele><time>2026-04-04T11:01:56.163Z</time></trkpt><trkpt lat="43.0775833" lon="11.4178224"><ele>409.0</ele><time>2026-04-04T11:01:57.163Z</time></trkpt><trkpt lat="43.077489" lon="11.4177888"><ele>409.0</ele><time>2026-04-04T11:01:58.164Z</time></trkpt><trkpt lat="43.0774037" lon="11.4177497"><ele>409.0</ele><time>2026-04-04T11:01:59.162Z</time></trkpt><trkpt lat="43.0772719" lon="11.4176835"><ele>409.0</ele><time>2026-04-04T11:02:00.163Z</time></trkpt><trkpt lat="43.0772071" lon="11.4176445"><ele>412.6</ele><time>2026-04-04T11:02:01.163Z</time></trkpt><trkpt lat="43.0771351" lon="11.4175648"><ele>416.2</ele><time>2026-04-04T11:02:02.163Z</time></trkpt><trkpt lat="43.0770457" lon="11.4174924"><ele>419.80000000000007</ele><time>2026-04-04T11:02:03.163Z</time></trkpt><trkpt lat="43.076976" lon="11.4174098"><ele>423.40000000000003</ele><time>2026-04-04T11:02:04.164Z</time></trkpt><trkpt lat="43.0769257" lon="11.4173251"><ele>427.0</ele><time>2026-04-04T11:02:05.163Z</time></trkpt><trkpt lat="43.0768796" lon="11.417227"><ele>427.50000000000006</ele><time>2026-04-04T11:02:06.163Z</time></trkpt><trkpt lat="43.0768449" lon="11.4171136"><ele>428.0</ele><time>2026-04-04T11:02:07.163Z</time></trkpt><trkpt lat="43.0767889" lon="11.4169736"><ele>428.5</ele><time>2026-04-04T11:02:09.163Z</time></trkpt><trkpt lat="43.0767321" lon="11.4169156"><ele>429.0</ele><time>2026-04-04T11:02:10.163Z</time></trkpt><trkpt lat="43.076671" lon="11.4168714"><ele>429.50000000000006</ele><time>2026-04-04T11:02:11.163Z</time></trkpt><trkpt lat="43.076602" lon="11.4168366"><ele>430.0</ele><time>2026-04-04T11:02:12.162Z</time></trkpt><trkpt lat="43.0765204" lon="11.4168174"><ele>430.0</ele><time>2026-04-04T11:02:13.162Z</time></trkpt><trkpt lat="43.076429" lon="11.4167906"><ele>430.0</ele><time>2026-04-04T11:02:14.164Z</time></trkpt><trkpt lat="43.0763502" lon="11.4167797"><ele>430.0</ele><time>2026-04-04T11:02:15.163Z</time></trkpt><trkpt lat="43.0762586" lon="11.4167448"><ele>430.0</ele><time>2026-04-04T11:02:16.164Z</time></trkpt><trkpt lat="43.0761078" lon="11.4166683"><ele>430.0</ele><time>2026-04-04T11:02:18.163Z</time></trkpt><trkpt lat="43.0760444" lon="11.4166279"><ele>430.00000000000006</ele><time>2026-04-04T11:02:19.164Z</time></trkpt><trkpt lat="43.0759746" lon="11.4165894"><ele>430.0</ele><time>2026-04-04T11:02:20.163Z</time></trkpt><trkpt lat="43.0758931" lon="11.4165374"><ele>430.0</ele><time>2026-04-04T11:02:21.164Z</time></trkpt><trkpt lat="43.0758473" lon="11.4164761"><ele>430.0</ele><time>2026-04-04T11:02:22.163Z</time></trkpt><trkpt lat="43.0757594" lon="11.4164264"><ele>430.00000000000006</ele><time>2026-04-04T11:02:23.161Z</time></trkpt><trkpt lat="43.0756985" lon="11.4163766"><ele>430.0</ele><time>2026-04-04T11:02:24.164Z</time></trkpt><trkpt lat="43.0756209" lon="11.4163183"><ele>430.83333333333337</ele><time>2026-04-04T11:02:25.162Z</time></trkpt><trkpt lat="43.07554" lon="11.4162596"><ele>431.6666666666667</ele><time>2026-04-04T11:02:26.163Z</time></trkpt><trkpt lat="43.0754785" lon="11.4161836"><ele>432.5</ele><time>2026-04-04T11:02:27.163Z</time></trkpt><trkpt lat="43.0753951" lon="11.4161189"><ele>433.33333333333337</ele><time>2026-04-04T11:02:28.162Z</time></trkpt><trkpt lat="43.0753234" lon="11.4160701"><ele>434.1666666666667</ele><time>2026-04-04T11:02:29.162Z</time></trkpt><trkpt lat="43.0752458" lon="11.4160346"><ele>435.0</ele><time>2026-04-04T11:02:30.162Z</time></trkpt><trkpt lat="43.0751895" lon="11.4159901"><ele>435.0</ele><time>2026-04-04T11:02:31.163Z</time></trkpt><trkpt lat="43.0751093" lon="11.4159455"><ele>435.0</ele><time>2026-04-04T11:02:32.163Z</time></trkpt><trkpt lat="43.075033" lon="11.4159046"><ele>435.0</ele><time>2026-04-04T11:02:33.163Z</time></trkpt><trkpt lat="43.0749583" lon="11.4158711"><ele>435.0</ele><time>2026-04-04T11:02:34.162Z</time></trkpt><trkpt lat="43.0748972" lon="11.4158188"><ele>435.0</ele><time>2026-04-04T11:02:35.163Z</time></trkpt><trkpt lat="43.0748144" lon="11.4157812"><ele>435.0</ele><time>2026-04-04T11:02:36.162Z</time></trkpt><trkpt lat="43.0747347" lon="11.4157616"><ele>436.0</ele><time>2026-04-04T11:02:37.163Z</time></trkpt><trkpt lat="43.0746491" lon="11.4157585"><ele>437.0</ele><time>2026-04-04T11:02:38.164Z</time></trkpt><trkpt lat="43.0745653" lon="11.4157272"><ele>438.0</ele><time>2026-04-04T11:02:39.163Z</time></trkpt><trkpt lat="43.0744923" lon="11.4156788"><ele>439.0</ele><time>2026-04-04T11:02:40.162Z</time></trkpt><trkpt lat="43.0744186" lon="11.4155523"><ele>440.0</ele><time>2026-04-04T11:02:42.163Z</time></trkpt><trkpt lat="43.0743942" lon="11.415397"><ele>442.0</ele><time>2026-04-04T11:02:44.164Z</time></trkpt><trkpt lat="43.0743735" lon="11.4152084"><ele>444.0</ele><time>2026-04-04T11:02:46.164Z</time></trkpt><trkpt lat="43.0743652" lon="11.4151131"><ele>446.0</ele><time>2026-04-04T11:02:47.162Z</time></trkpt><trkpt lat="43.0743746" lon="11.415012"><ele>448.0</ele><time>2026-04-04T11:02:48.162Z</time></trkpt><trkpt lat="43.0743512" lon="11.4149075"><ele>450.0</ele><time>2026-04-04T11:02:49.164Z</time></trkpt><trkpt lat="43.0743175" lon="11.4147877"><ele>450.0</ele><time>2026-04-04T11:02:50.162Z</time></trkpt><trkpt lat="43.0742921" lon="11.4146913"><ele>450.0</ele><time>2026-04-04T11:02:51.163Z</time></trkpt><trkpt lat="43.0742679" lon="11.4146096"><ele>450.0</ele><time>2026-04-04T11:02:52.164Z</time></trkpt><trkpt lat="43.0742319" lon="11.4145317"><ele>450.0</ele><time>2026-04-04T11:02:53.162Z</time></trkpt><trkpt lat="43.0741819" lon="11.4144643"><ele>450.0</ele><time>2026-04-04T11:02:54.162Z</time></trkpt><trkpt lat="43.0740662" lon="11.4144046"><ele>450.0</ele><time>2026-04-04T11:02:56.161Z</time></trkpt><trkpt lat="43.0739392" lon="11.4143752"><ele>452.57142857142867</ele><time>2026-04-04T11:02:58.163Z</time></trkpt><trkpt lat="43.0738635" lon="11.4143573"><ele>455.14285714285717</ele><time>2026-04-04T11:02:59.163Z</time></trkpt><trkpt lat="43.0737967" lon="11.4143643"><ele>457.7142857142858</ele><time>2026-04-04T11:03:00.163Z</time></trkpt><trkpt lat="43.073726" lon="11.4143541"><ele>460.28571428571433</ele><time>2026-04-04T11:03:01.164Z</time></trkpt><trkpt lat="43.0736542" lon="11.4143454"><ele>462.8571428571429</ele><time>2026-04-04T11:03:02.163Z</time></trkpt><trkpt lat="43.0735825" lon="11.4143406"><ele>465.42857142857144</ele><time>2026-04-04T11:03:03.164Z</time></trkpt><trkpt lat="43.0735183" lon="11.4143244"><ele>468.0</ele><time>2026-04-04T11:03:04.162Z</time></trkpt><trkpt lat="43.0734459" lon="11.4143039"><ele>468.0</ele><time>2026-04-04T11:03:05.162Z</time></trkpt><trkpt lat="43.0733579" lon="11.4142794"><ele>467.99999999999994</ele><time>2026-04-04T11:03:06.164Z</time></trkpt><trkpt lat="43.0732789" lon="11.4142512"><ele>467.99999999999994</ele><time>2026-04-04T11:03:07.163Z</time></trkpt><trkpt lat="43.0731867" lon="11.4142495"><ele>468.0</ele><time>2026-04-04T11:03:08.163Z</time></trkpt><trkpt lat="43.0730904" lon="11.4142434"><ele>468.0</ele><time>2026-04-04T11:03:09.162Z</time></trkpt><trkpt lat="43.0729866" lon="11.4142551"><ele>469.79999999999995</ele><time>2026-04-04T11:03:10.163Z</time></trkpt><trkpt lat="43.0728737" lon="11.4142581"><ele>471.59999999999997</ele><time>2026-04-04T11:03:11.161Z</time></trkpt><trkpt lat="43.0727735" lon="11.414246"><ele>473.40000000000003</ele><time>2026-04-04T11:03:12.163Z</time></trkpt><trkpt lat="43.0726917" lon="11.4142492"><ele>475.20000000000005</ele><time>2026-04-04T11:03:13.161Z</time></trkpt><trkpt lat="43.0726206" lon="11.4142186"><ele>477.0</ele><time>2026-04-04T11:03:14.163Z</time></trkpt><trkpt lat="43.0725354" lon="11.4141676"><ele>477.0</ele><time>2026-04-04T11:03:15.163Z</time></trkpt><trkpt lat="43.0724492" lon="11.4141332"><ele>477.0</ele><time>2026-04-04T11:03:16.163Z</time></trkpt><trkpt lat="43.0723707" lon="11.4140887"><ele>477.0</ele><time>2026-04-04T11:03:17.162Z</time></trkpt><trkpt lat="43.0722901" lon="11.4140373"><ele>477.0</ele><time>2026-04-04T11:03:18.161Z</time></trkpt><trkpt lat="43.0722079" lon="11.4139832"><ele>477.0</ele><time>2026-04-04T11:03:19.161Z</time></trkpt><trkpt lat="43.0721235" lon="11.4139291"><ele>477.0</ele><time>2026-04-04T11:03:20.163Z</time></trkpt><trkpt lat="43.0720548" lon="11.4138692"><ele>476.6</ele><time>2026-04-04T11:03:21.162Z</time></trkpt><trkpt lat="43.0719801" lon="11.4138273"><ele>476.20000000000005</ele><time>2026-04-04T11:03:22.161Z</time></trkpt><trkpt lat="43.0718841" lon="11.413782"><ele>475.8</ele><time>2026-04-04T11:03:23.164Z</time></trkpt><trkpt lat="43.0717568" lon="11.4136918"><ele>475.4</ele><time>2026-04-04T11:03:24.163Z</time></trkpt><trkpt lat="43.071658" lon="11.4136267"><ele>475.0</ele><time>2026-04-04T11:03:25.161Z</time></trkpt><trkpt lat="43.0715722" lon="11.4135746"><ele>476.83333333333337</ele><time>2026-04-04T11:03:26.162Z</time></trkpt><trkpt lat="43.0714879" lon="11.413545"><ele>478.6666666666667</ele><time>2026-04-04T11:03:27.163Z</time></trkpt><trkpt lat="43.0714219" lon="11.413523"><ele>480.5</ele><time>2026-04-04T11:03:28.161Z</time></trkpt><trkpt lat="43.0713378" lon="11.4135366"><ele>482.33333333333337</ele><time>2026-04-04T11:03:29.162Z</time></trkpt><trkpt lat="43.0712507" lon="11.4135592"><ele>484.1666666666667</ele><time>2026-04-04T11:03:30.161Z</time></trkpt><trkpt lat="43.0711714" lon="11.4135804"><ele>486.0</ele><time>2026-04-04T11:03:31.163Z</time></trkpt><trkpt lat="43.0710972" lon="11.4135729"><ele>486.0</ele><time>2026-04-04T11:03:32.163Z</time></trkpt><trkpt lat="43.0710244" lon="11.4135512"><ele>486.0</ele><time>2026-04-04T11:03:33.161Z</time></trkpt><trkpt lat="43.0709485" lon="11.4135048"><ele>486.0</ele><time>2026-04-04T11:03:34.163Z</time></trkpt><trkpt lat="43.0708669" lon="11.4134433"><ele>486.0</ele><time>2026-04-04T11:03:35.163Z</time></trkpt><trkpt lat="43.0707861" lon="11.4133455"><ele>486.0</ele><time>2026-04-04T11:03:36.163Z</time></trkpt><trkpt lat="43.0706929" lon="11.4132311"><ele>487.5</ele><time>2026-04-04T11:03:37.163Z</time></trkpt><trkpt lat="43.0706173" lon="11.4131386"><ele>489.0</ele><time>2026-04-04T11:03:38.164Z</time></trkpt><trkpt lat="43.0705484" lon="11.4130553"><ele>490.5</ele><time>2026-04-04T11:03:39.163Z</time></trkpt><trkpt lat="43.0704961" lon="11.413004"><ele>492.0</ele><time>2026-04-04T11:03:40.162Z</time></trkpt><trkpt lat="43.0704408" lon="11.4129489"><ele>493.5</ele><time>2026-04-04T11:03:41.164Z</time></trkpt><trkpt lat="43.0703301" lon="11.4128895"><ele>495.0</ele><time>2026-04-04T11:03:43.163Z</time></trkpt><trkpt lat="43.0702269" lon="11.4129137"><ele>494.99999999999994</ele><time>2026-04-04T11:03:45.164Z</time></trkpt><trkpt lat="43.0701817" lon="11.412975"><ele>495.0</ele><time>2026-04-04T11:03:46.163Z</time></trkpt><trkpt lat="43.0701331" lon="11.4130567"><ele>494.99999999999994</ele><time>2026-04-04T11:03:47.163Z</time></trkpt><trkpt lat="43.070093" lon="11.4131551"><ele>494.99999999999994</ele><time>2026-04-04T11:03:48.164Z</time></trkpt><trkpt lat="43.0700627" lon="11.413245"><ele>495.0</ele><time>2026-04-04T11:03:49.161Z</time></trkpt><trkpt lat="43.0700317" lon="11.4133415"><ele>494.99999999999994</ele><time>2026-04-04T11:03:50.163Z</time></trkpt><trkpt lat="43.0699933" lon="11.4134253"><ele>494.99999999999994</ele><time>2026-04-04T11:03:51.163Z</time></trkpt><trkpt lat="43.0699787" lon="11.4135188"><ele>494.99999999999994</ele><time>2026-04-04T11:03:52.163Z</time></trkpt><trkpt lat="43.0699793" lon="11.4136186"><ele>495.0</ele><time>2026-04-04T11:03:53.163Z</time></trkpt><trkpt lat="43.0699719" lon="11.4137391"><ele>494.99999999999994</ele><time>2026-04-04T11:03:54.164Z</time></trkpt><trkpt lat="43.0699742" lon="11.4138355"><ele>494.99999999999994</ele><time>2026-04-04T11:03:55.162Z</time></trkpt><trkpt lat="43.0699866" lon="11.4139251"><ele>495.0</ele><time>2026-04-04T11:03:56.162Z</time></trkpt><trkpt lat="43.0699969" lon="11.4140254"><ele>494.99999999999994</ele><time>2026-04-04T11:03:57.162Z</time></trkpt><trkpt lat="43.0700035" lon="11.4141133"><ele>494.99999999999994</ele><time>2026-04-04T11:03:58.161Z</time></trkpt><trkpt lat="43.0700146" lon="11.4142119"><ele>494.8333333333333</ele><time>2026-04-04T11:03:59.163Z</time></trkpt><trkpt lat="43.0700041" lon="11.4143174"><ele>494.66666666666663</ele><time>2026-04-04T11:04:00.162Z</time></trkpt><trkpt lat="43.0699909" lon="11.4144201"><ele>494.5</ele><time>2026-04-04T11:04:01.162Z</time></trkpt><trkpt lat="43.069971" lon="11.4145297"><ele>494.3333333333333</ele><time>2026-04-04T11:04:02.161Z</time></trkpt><trkpt lat="43.069933" lon="11.4146247"><ele>494.16666666666663</ele><time>2026-04-04T11:04:03.162Z</time></trkpt><trkpt lat="43.0698965" lon="11.4147205"><ele>494.0</ele><time>2026-04-04T11:04:04.162Z</time></trkpt><trkpt lat="43.0698617" lon="11.414801"><ele>494.8333333333333</ele><time>2026-04-04T11:04:05.161Z</time></trkpt><trkpt lat="43.0698048" lon="11.4148929"><ele>495.66666666666663</ele><time>2026-04-04T11:04:06.163Z</time></trkpt><trkpt lat="43.0697425" lon="11.4149658"><ele>496.5</ele><time>2026-04-04T11:04:07.161Z</time></trkpt><trkpt lat="43.0696689" lon="11.4150157"><ele>497.33333333333337</ele><time>2026-04-04T11:04:08.161Z</time></trkpt><trkpt lat="43.0696079" lon="11.4150636"><ele>498.1666666666667</ele><time>2026-04-04T11:04:09.163Z</time></trkpt><trkpt lat="43.0695338" lon="11.4151147"><ele>499.0</ele><time>2026-04-04T11:04:10.163Z</time></trkpt><trkpt lat="43.0694722" lon="11.415168"><ele>499.00000000000006</ele><time>2026-04-04T11:04:11.162Z</time></trkpt><trkpt lat="43.0694072" lon="11.415222"><ele>499.0</ele><time>2026-04-04T11:04:12.163Z</time></trkpt><trkpt lat="43.0693435" lon="11.4152951"><ele>499.0</ele><time>2026-04-04T11:04:13.162Z</time></trkpt><trkpt lat="43.0692925" lon="11.4153604"><ele>499.0</ele><time>2026-04-04T11:04:14.161Z</time></trkpt><trkpt lat="43.0692293" lon="11.4154078"><ele>499.00000000000006</ele><time>2026-04-04T11:04:15.163Z</time></trkpt><trkpt lat="43.0691568" lon="11.4154524"><ele>499.0</ele><time>2026-04-04T11:04:16.162Z</time></trkpt><trkpt lat="43.0690819" lon="11.4154955"><ele>496.79999999999995</ele><time>2026-04-04T11:04:17.163Z</time></trkpt><trkpt lat="43.0689965" lon="11.4155238"><ele>494.59999999999997</ele><time>2026-04-04T11:04:18.162Z</time></trkpt><trkpt lat="43.0689096" lon="11.4155516"><ele>492.4</ele><time>2026-04-04T11:04:19.162Z</time></trkpt><trkpt lat="43.0688163" lon="11.4155709"><ele>490.2</ele><time>2026-04-04T11:04:20.162Z</time></trkpt><trkpt lat="43.0687265" lon="11.4156068"><ele>488.0</ele><time>2026-04-04T11:04:21.162Z</time></trkpt><trkpt lat="43.0686397" lon="11.4156541"><ele>488.0</ele><time>2026-04-04T11:04:22.161Z</time></trkpt><trkpt lat="43.0685613" lon="11.415711"><ele>487.99999999999994</ele><time>2026-04-04T11:04:23.162Z</time></trkpt><trkpt lat="43.0684705" lon="11.4157934"><ele>487.99999999999994</ele><time>2026-04-04T11:04:24.161Z</time></trkpt><trkpt lat="43.0684002" lon="11.4158768"><ele>488.0</ele><time>2026-04-04T11:04:25.162Z</time></trkpt><trkpt lat="43.068328" lon="11.4159606"><ele>488.0</ele><time>2026-04-04T11:04:26.162Z</time></trkpt><trkpt lat="43.0682636" lon="11.41604"><ele>487.8333333333333</ele><time>2026-04-04T11:04:27.161Z</time></trkpt><trkpt lat="43.0681922" lon="11.4161238"><ele>487.66666666666663</ele><time>2026-04-04T11:04:28.162Z</time></trkpt><trkpt lat="43.068114" lon="11.4161918"><ele>487.5</ele><time>2026-04-04T11:04:29.164Z</time></trkpt><trkpt lat="43.0680546" lon="11.4162528"><ele>487.33333333333337</ele><time>2026-04-04T11:04:30.162Z</time></trkpt><trkpt lat="43.0679863" lon="11.4162949"><ele>487.1666666666667</ele><time>2026-04-04T11:04:31.161Z</time></trkpt><trkpt lat="43.0679137" lon="11.4163465"><ele>487.0</ele><time>2026-04-04T11:04:32.161Z</time></trkpt><trkpt lat="43.0678532" lon="11.4164047"><ele>488.6666666666667</ele><time>2026-04-04T11:04:33.162Z</time></trkpt><trkpt lat="43.0678017" lon="11.4164804"><ele>490.33333333333337</ele><time>2026-04-04T11:04:34.163Z</time></trkpt><trkpt lat="43.067764" lon="11.4165931"><ele>492.0</ele><time>2026-04-04T11:04:35.163Z</time></trkpt><trkpt lat="43.0677295" lon="11.4166984"><ele>493.66666666666663</ele><time>2026-04-04T11:04:36.163Z</time></trkpt><trkpt lat="43.0676983" lon="11.4168069"><ele>495.3333333333333</ele><time>2026-04-04T11:04:37.162Z</time></trkpt><trkpt lat="43.0676507" lon="11.4169113"><ele>497.0</ele><time>2026-04-04T11:04:38.161Z</time></trkpt><trkpt lat="43.06759" lon="11.4170201"><ele>497.0</ele><time>2026-04-04T11:04:39.163Z</time></trkpt><trkpt lat="43.06753" lon="11.4171263"><ele>497.00000000000006</ele><time>2026-04-04T11:04:40.162Z</time></trkpt><trkpt lat="43.067479" lon="11.4172363"><ele>497.00000000000006</ele><time>2026-04-04T11:04:41.163Z</time></trkpt><trkpt lat="43.0674198" lon="11.4173388"><ele>497.0</ele><time>2026-04-04T11:04:42.162Z</time></trkpt><trkpt lat="43.0673574" lon="11.4174168"><ele>497.0</ele><time>2026-04-04T11:04:43.161Z</time></trkpt><trkpt lat="43.0673003" lon="11.4174916"><ele>498.16666666666663</ele><time>2026-04-04T11:04:44.162Z</time></trkpt><trkpt lat="43.0672236" lon="11.4175387"><ele>499.3333333333333</ele><time>2026-04-04T11:04:45.161Z</time></trkpt><trkpt lat="43.0671519" lon="11.4175727"><ele>500.5</ele><time>2026-04-04T11:04:46.162Z</time></trkpt><trkpt lat="43.0670669" lon="11.4175975"><ele>501.66666666666663</ele><time>2026-04-04T11:04:47.162Z</time></trkpt><trkpt lat="43.0669813" lon="11.4176397"><ele>502.8333333333333</ele><time>2026-04-04T11:04:48.161Z</time></trkpt><trkpt lat="43.0669004" lon="11.4176809"><ele>504.0</ele><time>2026-04-04T11:04:49.161Z</time></trkpt><trkpt lat="43.066848" lon="11.4177525"><ele>504.0</ele><time>2026-04-04T11:04:50.162Z</time></trkpt><trkpt lat="43.0667957" lon="11.4178244"><ele>504.0</ele><time>2026-04-04T11:04:51.162Z</time></trkpt><trkpt lat="43.0667506" lon="11.4179267"><ele>504.0</ele><time>2026-04-04T11:04:52.162Z</time></trkpt><trkpt lat="43.0667111" lon="11.4180384"><ele>504.0</ele><time>2026-04-04T11:04:53.162Z</time></trkpt><trkpt lat="43.0666767" lon="11.4181524"><ele>504.0</ele><time>2026-04-04T11:04:54.163Z</time></trkpt><trkpt lat="43.066642" lon="11.4182803"><ele>504.0</ele><time>2026-04-04T11:04:55.163Z</time></trkpt><trkpt lat="43.0666083" lon="11.4184029"><ele>500.79999999999995</ele><time>2026-04-04T11:04:56.162Z</time></trkpt><trkpt lat="43.066593" lon="11.4185307"><ele>497.59999999999997</ele><time>2026-04-04T11:04:57.161Z</time></trkpt><trkpt lat="43.0665768" lon="11.4186564"><ele>494.4</ele><time>2026-04-04T11:04:58.163Z</time></trkpt><trkpt lat="43.0665655" lon="11.4187876"><ele>491.2</ele><time>2026-04-04T11:04:59.163Z</time></trkpt><trkpt lat="43.06657" lon="11.4189106"><ele>488.0</ele><time>2026-04-04T11:05:00.161Z</time></trkpt><trkpt lat="43.0665742" lon="11.4190373"><ele>487.49999999999994</ele><time>2026-04-04T11:05:01.163Z</time></trkpt><trkpt lat="43.0665841" lon="11.4191587"><ele>487.0</ele><time>2026-04-04T11:05:02.162Z</time></trkpt><trkpt lat="43.0665928" lon="11.419272"><ele>486.5</ele><time>2026-04-04T11:05:03.161Z</time></trkpt><trkpt lat="43.0665929" lon="11.4193901"><ele>486.0</ele><time>2026-04-04T11:05:04.163Z</time></trkpt><trkpt lat="43.0665951" lon="11.4195122"><ele>485.49999999999994</ele><time>2026-04-04T11:05:05.162Z</time></trkpt><trkpt lat="43.0665914" lon="11.4196286"><ele>485.0</ele><time>2026-04-04T11:05:06.161Z</time></trkpt><trkpt lat="43.0665919" lon="11.4197447"><ele>485.0</ele><time>2026-04-04T11:05:07.162Z</time></trkpt><trkpt lat="43.0665762" lon="11.4198676"><ele>485.0</ele><time>2026-04-04T11:05:08.163Z</time></trkpt><trkpt lat="43.0665476" lon="11.4199881"><ele>485.0</ele><time>2026-04-04T11:05:09.163Z</time></trkpt><trkpt lat="43.0664987" lon="11.4201048"><ele>485.0</ele><time>2026-04-04T11:05:10.162Z</time></trkpt><trkpt lat="43.0664325" lon="11.4202106"><ele>485.0</ele><time>2026-04-04T11:05:11.163Z</time></trkpt><trkpt lat="43.0663715" lon="11.420305"><ele>485.0</ele><time>2026-04-04T11:05:12.162Z</time></trkpt><trkpt lat="43.0663219" lon="11.420423"><ele>485.0</ele><time>2026-04-04T11:05:13.161Z</time></trkpt><trkpt lat="43.0662599" lon="11.4205225"><ele>485.0</ele><time>2026-04-04T11:05:14.162Z</time></trkpt><trkpt lat="43.0662067" lon="11.4206407"><ele>485.0</ele><time>2026-04-04T11:05:15.162Z</time></trkpt><trkpt lat="43.0661551" lon="11.4207647"><ele>485.0</ele><time>2026-04-04T11:05:16.162Z</time></trkpt><trkpt lat="43.0660816" lon="11.4208561"><ele>486.4</ele><time>2026-04-04T11:05:17.162Z</time></trkpt><trkpt lat="43.0660241" lon="11.4209719"><ele>487.8</ele><time>2026-04-04T11:05:18.163Z</time></trkpt><trkpt lat="43.0659579" lon="11.4210859"><ele>489.20000000000005</ele><time>2026-04-04T11:05:19.162Z</time></trkpt><trkpt lat="43.0658859" lon="11.4211878"><ele>490.6</ele><time>2026-04-04T11:05:20.161Z</time></trkpt><trkpt lat="43.0658349" lon="11.4212857"><ele>492.0</ele><time>2026-04-04T11:05:21.162Z</time></trkpt><trkpt lat="43.0657845" lon="11.4214015"><ele>490.8</ele><time>2026-04-04T11:05:22.163Z</time></trkpt><trkpt lat="43.0657247" lon="11.4215129"><ele>489.6</ele><time>2026-04-04T11:05:23.161Z</time></trkpt><trkpt lat="43.0656715" lon="11.4216215"><ele>488.40000000000003</ele><time>2026-04-04T11:05:24.163Z</time></trkpt><trkpt lat="43.0656121" lon="11.4217308"><ele>487.20000000000005</ele><time>2026-04-04T11:05:25.163Z</time></trkpt><trkpt lat="43.065535" lon="11.4217989"><ele>486.0</ele><time>2026-04-04T11:05:26.162Z</time></trkpt><trkpt lat="43.0654598" lon="11.4218806"><ele>486.0</ele><time>2026-04-04T11:05:27.162Z</time></trkpt><trkpt lat="43.0653873" lon="11.4219552"><ele>486.0</ele><time>2026-04-04T11:05:28.161Z</time></trkpt><trkpt lat="43.0653153" lon="11.4220291"><ele>486.0</ele><time>2026-04-04T11:05:29.161Z</time></trkpt><trkpt lat="43.0652462" lon="11.422102"><ele>486.0</ele><time>2026-04-04T11:05:30.162Z</time></trkpt><trkpt lat="43.0651564" lon="11.4221461"><ele>486.0</ele><time>2026-04-04T11:05:31.163Z</time></trkpt><trkpt lat="43.0650678" lon="11.4221821"><ele>486.0</ele><time>2026-04-04T11:05:32.162Z</time></trkpt><trkpt lat="43.0649749" lon="11.4221718"><ele>486.0</ele><time>2026-04-04T11:05:33.162Z</time></trkpt><trkpt lat="43.064882" lon="11.4221854"><ele>486.0</ele><time>2026-04-04T11:05:34.162Z</time></trkpt><trkpt lat="43.0647867" lon="11.4221956"><ele>486.0</ele><time>2026-04-04T11:05:35.162Z</time></trkpt><trkpt lat="43.0646854" lon="11.4221958"><ele>486.0</ele><time>2026-04-04T11:05:36.161Z</time></trkpt><trkpt lat="43.0645948" lon="11.4221852"><ele>486.0</ele><time>2026-04-04T11:05:37.162Z</time></trkpt><trkpt lat="43.064503" lon="11.4221567"><ele>486.0</ele><time>2026-04-04T11:05:38.161Z</time></trkpt><trkpt lat="43.0644034" lon="11.4221234"><ele>486.0</ele><time>2026-04-04T11:05:39.162Z</time></trkpt><trkpt lat="43.0643034" lon="11.4220808"><ele>486.0</ele><time>2026-04-04T11:05:40.162Z</time></trkpt><trkpt lat="43.0642075" lon="11.4220397"><ele>486.0</ele><time>2026-04-04T11:05:41.162Z</time></trkpt><trkpt lat="43.0641246" lon="11.4219961"><ele>483.6666666666667</ele><time>2026-04-04T11:05:42.163Z</time></trkpt><trkpt lat="43.0640465" lon="11.4219561"><ele>481.33333333333337</ele><time>2026-04-04T11:05:43.162Z</time></trkpt><trkpt lat="43.0639632" lon="11.4219482"><ele>479.0</ele><time>2026-04-04T11:05:44.163Z</time></trkpt><trkpt lat="43.0638837" lon="11.4219573"><ele>476.6666666666667</ele><time>2026-04-04T11:05:45.161Z</time></trkpt><trkpt lat="43.0638081" lon="11.421971"><ele>474.33333333333337</ele><time>2026-04-04T11:05:46.161Z</time></trkpt><trkpt lat="43.0637351" lon="11.4219697"><ele>472.0</ele><time>2026-04-04T11:05:47.162Z</time></trkpt><trkpt lat="43.0636688" lon="11.421992"><ele>472.00000000000006</ele><time>2026-04-04T11:05:48.161Z</time></trkpt><trkpt lat="43.063571" lon="11.4220611"><ele>472.0</ele><time>2026-04-04T11:05:50.162Z</time></trkpt><trkpt lat="43.0635289" lon="11.422131"><ele>472.0</ele><time>2026-04-04T11:05:51.163Z</time></trkpt><trkpt lat="43.0635049" lon="11.422222"><ele>472.0</ele><time>2026-04-04T11:05:52.161Z</time></trkpt><trkpt lat="43.0635093" lon="11.42232"><ele>472.00000000000006</ele><time>2026-04-04T11:05:53.162Z</time></trkpt><trkpt lat="43.0635236" lon="11.4224251"><ele>472.0</ele><time>2026-04-04T11:05:54.163Z</time></trkpt><trkpt lat="43.0635484" lon="11.422518"><ele>472.00000000000006</ele><time>2026-04-04T11:05:55.16Z</time></trkpt><trkpt lat="43.0635656" lon="11.4226245"><ele>472.0</ele><time>2026-04-04T11:05:56.162Z</time></trkpt><trkpt lat="43.0635886" lon="11.4227268"><ele>472.0</ele><time>2026-04-04T11:05:57.163Z</time></trkpt><trkpt lat="43.0635713" lon="11.4228361"><ele>472.0</ele><time>2026-04-04T11:05:58.163Z</time></trkpt><trkpt lat="43.063523" lon="11.422936"><ele>472.00000000000006</ele><time>2026-04-04T11:05:59.161Z</time></trkpt><trkpt lat="43.0634954" lon="11.4230331"><ele>472.0</ele><time>2026-04-04T11:06:00.162Z</time></trkpt><trkpt lat="43.0634605" lon="11.4231364"><ele>471.50000000000006</ele><time>2026-04-04T11:06:01.162Z</time></trkpt><trkpt lat="43.0634329" lon="11.4232146"><ele>471.0</ele><time>2026-04-04T11:06:02.162Z</time></trkpt><trkpt lat="43.0634077" lon="11.4233117"><ele>470.5</ele><time>2026-04-04T11:06:03.163Z</time></trkpt><trkpt lat="43.0633861" lon="11.423395"><ele>470.0</ele><time>2026-04-04T11:06:04.163Z</time></trkpt><trkpt lat="43.0633734" lon="11.4234851"><ele>469.50000000000006</ele><time>2026-04-04T11:06:05.162Z</time></trkpt><trkpt lat="43.0633771" lon="11.4236638"><ele>469.0</ele><time>2026-04-04T11:06:07.161Z</time></trkpt><trkpt lat="43.0633922" lon="11.4237623"><ele>468.42857142857144</ele><time>2026-04-04T11:06:08.162Z</time></trkpt><trkpt lat="43.0634127" lon="11.4238531"><ele>467.8571428571429</ele><time>2026-04-04T11:06:09.161Z</time></trkpt><trkpt lat="43.0634325" lon="11.4239402"><ele>467.2857142857143</ele><time>2026-04-04T11:06:10.162Z</time></trkpt><trkpt lat="43.0634342" lon="11.4240332"><ele>466.7142857142857</ele><time>2026-04-04T11:06:11.162Z</time></trkpt><trkpt lat="43.0634276" lon="11.42412"><ele>466.14285714285717</ele><time>2026-04-04T11:06:12.161Z</time></trkpt><trkpt lat="43.0634046" lon="11.4242095"><ele>465.57142857142856</ele><time>2026-04-04T11:06:13.161Z</time></trkpt><trkpt lat="43.0633788" lon="11.4243108"><ele>465.0</ele><time>2026-04-04T11:06:14.162Z</time></trkpt><trkpt lat="43.0633478" lon="11.424418"><ele>465.0</ele><time>2026-04-04T11:06:15.161Z</time></trkpt><trkpt lat="43.0633167" lon="11.4245202"><ele>465.0</ele><time>2026-04-04T11:06:16.161Z</time></trkpt><trkpt lat="43.0632998" lon="11.4246378"><ele>465.0</ele><time>2026-04-04T11:06:17.161Z</time></trkpt><trkpt lat="43.0632822" lon="11.4247375"><ele>465.0</ele><time>2026-04-04T11:06:18.162Z</time></trkpt><trkpt lat="43.063259" lon="11.4248433"><ele>465.0</ele><time>2026-04-04T11:06:19.161Z</time></trkpt><trkpt lat="43.0632361" lon="11.4249425"><ele>465.0</ele><time>2026-04-04T11:06:20.161Z</time></trkpt><trkpt lat="43.0632189" lon="11.4250454"><ele>465.1666666666667</ele><time>2026-04-04T11:06:21.161Z</time></trkpt><trkpt lat="43.063184" lon="11.4251452"><ele>465.33333333333337</ele><time>2026-04-04T11:06:22.161Z</time></trkpt><trkpt lat="43.063136" lon="11.425243"><ele>465.5</ele><time>2026-04-04T11:06:23.162Z</time></trkpt><trkpt lat="43.063082" lon="11.4253361"><ele>465.6666666666667</ele><time>2026-04-04T11:06:24.162Z</time></trkpt><trkpt lat="43.0630258" lon="11.4254231"><ele>465.83333333333337</ele><time>2026-04-04T11:06:25.162Z</time></trkpt><trkpt lat="43.0629587" lon="11.4255079"><ele>466.0</ele><time>2026-04-04T11:06:26.162Z</time></trkpt><trkpt lat="43.0629132" lon="11.4256032"><ele>466.00000000000006</ele><time>2026-04-04T11:06:27.162Z</time></trkpt><trkpt lat="43.0628781" lon="11.4256887"><ele>466.0</ele><time>2026-04-04T11:06:28.161Z</time></trkpt><trkpt lat="43.0628617" lon="11.4258033"><ele>466.0</ele><time>2026-04-04T11:06:29.162Z</time></trkpt><trkpt lat="43.0628549" lon="11.4259128"><ele>466.0</ele><time>2026-04-04T11:06:30.162Z</time></trkpt><trkpt lat="43.0628521" lon="11.4260201"><ele>466.00000000000006</ele><time>2026-04-04T11:06:31.162Z</time></trkpt><trkpt lat="43.0628473" lon="11.4261213"><ele>466.0</ele><time>2026-04-04T11:06:32.16Z</time></trkpt><trkpt lat="43.062844" lon="11.4262207"><ele>466.6666666666667</ele><time>2026-04-04T11:06:33.163Z</time></trkpt><trkpt lat="43.0628445" lon="11.4263195"><ele>467.33333333333337</ele><time>2026-04-04T11:06:34.162Z</time></trkpt><trkpt lat="43.0628472" lon="11.4264252"><ele>468.0</ele><time>2026-04-04T11:06:35.161Z</time></trkpt><trkpt lat="43.0628612" lon="11.426536"><ele>468.66666666666663</ele><time>2026-04-04T11:06:36.161Z</time></trkpt><trkpt lat="43.0628783" lon="11.4266609"><ele>469.3333333333333</ele><time>2026-04-04T11:06:37.162Z</time></trkpt><trkpt lat="43.0629009" lon="11.4267755"><ele>470.0</ele><time>2026-04-04T11:06:38.162Z</time></trkpt><trkpt lat="43.0629118" lon="11.4268945"><ele>469.99999999999994</ele><time>2026-04-04T11:06:39.162Z</time></trkpt><trkpt lat="43.0628959" lon="11.4270164"><ele>470.0</ele><time>2026-04-04T11:06:40.161Z</time></trkpt><trkpt lat="43.0628721" lon="11.4271217"><ele>470.0</ele><time>2026-04-04T11:06:41.162Z</time></trkpt><trkpt lat="43.0628297" lon="11.4272201"><ele>470.0</ele><time>2026-04-04T11:06:42.163Z</time></trkpt><trkpt lat="43.0627538" lon="11.4273032"><ele>469.99999999999994</ele><time>2026-04-04T11:06:43.162Z</time></trkpt><trkpt lat="43.0626889" lon="11.4273748"><ele>470.0</ele><time>2026-04-04T11:06:44.161Z</time></trkpt><trkpt lat="43.0625853" lon="11.4274353"><ele>470.0</ele><time>2026-04-04T11:06:45.161Z</time></trkpt><trkpt lat="43.0624773" lon="11.4275072"><ele>470.0</ele><time>2026-04-04T11:06:46.162Z</time></trkpt><trkpt lat="43.0623764" lon="11.4275597"><ele>470.0</ele><time>2026-04-04T11:06:47.16Z</time></trkpt><trkpt lat="43.0622765" lon="11.4275977"><ele>470.0</ele><time>2026-04-04T11:06:48.162Z</time></trkpt><trkpt lat="43.0621874" lon="11.4276244"><ele>470.0</ele><time>2026-04-04T11:06:49.161Z</time></trkpt><trkpt lat="43.0621159" lon="11.4276407"><ele>469.99999999999994</ele><time>2026-04-04T11:06:50.163Z</time></trkpt><trkpt lat="43.0620496" lon="11.427639"><ele>470.0</ele><time>2026-04-04T11:06:51.16Z</time></trkpt><trkpt lat="43.0619812" lon="11.4276118"><ele>470.0</ele><time>2026-04-04T11:06:53.16Z</time></trkpt><trkpt lat="43.0619082" lon="11.4275672"><ele>470.0</ele><time>2026-04-04T11:07:07.162Z</time></trkpt><trkpt lat="43.0618025" lon="11.4275328"><ele>469.99999999999994</ele><time>2026-04-04T11:07:09.162Z</time></trkpt><trkpt lat="43.0617359" lon="11.4274953"><ele>470.0</ele><time>2026-04-04T11:07:10.16Z</time></trkpt><trkpt lat="43.0616703" lon="11.4274423"><ele>470.2</ele><time>2026-04-04T11:07:11.162Z</time></trkpt><trkpt lat="43.0615905" lon="11.4273953"><ele>470.4</ele><time>2026-04-04T11:07:12.163Z</time></trkpt><trkpt lat="43.0615061" lon="11.4273594"><ele>470.6</ele><time>2026-04-04T11:07:13.161Z</time></trkpt><trkpt lat="43.0614163" lon="11.4273507"><ele>470.8</ele><time>2026-04-04T11:07:14.16Z</time></trkpt><trkpt lat="43.0613217" lon="11.4273722"><ele>471.0</ele><time>2026-04-04T11:07:15.162Z</time></trkpt><trkpt lat="43.0612268" lon="11.4273983"><ele>471.0</ele><time>2026-04-04T11:07:16.161Z</time></trkpt><trkpt lat="43.0611442" lon="11.4274083"><ele>471.0</ele><time>2026-04-04T11:07:17.163Z</time></trkpt><trkpt lat="43.0610643" lon="11.42743"><ele>471.0</ele><time>2026-04-04T11:07:18.161Z</time></trkpt><trkpt lat="43.0609993" lon="11.4274304"><ele>471.0</ele><time>2026-04-04T11:07:19.161Z</time></trkpt><trkpt lat="43.0609222" lon="11.4274221"><ele>471.0</ele><time>2026-04-04T11:07:20.162Z</time></trkpt><trkpt lat="43.0608462" lon="11.4273885"><ele>471.0</ele><time>2026-04-04T11:07:21.16Z</time></trkpt><trkpt lat="43.060762" lon="11.4273466"><ele>472.6</ele><time>2026-04-04T11:07:22.162Z</time></trkpt><trkpt lat="43.0606952" lon="11.4273007"><ele>474.20000000000005</ele><time>2026-04-04T11:07:23.163Z</time></trkpt><trkpt lat="43.0606281" lon="11.4272503"><ele>475.79999999999995</ele><time>2026-04-04T11:07:24.162Z</time></trkpt><trkpt lat="43.060516" lon="11.4271781"><ele>477.4</ele><time>2026-04-04T11:07:26.162Z</time></trkpt><trkpt lat="43.0604311" lon="11.4272078"><ele>479.0</ele><time>2026-04-04T11:07:28.161Z</time></trkpt><trkpt lat="43.0603658" lon="11.4273586"><ele>478.99999999999994</ele><time>2026-04-04T11:07:30.162Z</time></trkpt><trkpt lat="43.0603421" lon="11.4274443"><ele>479.0</ele><time>2026-04-04T11:07:31.162Z</time></trkpt><trkpt lat="43.0603154" lon="11.4275357"><ele>479.0</ele><time>2026-04-04T11:07:32.162Z</time></trkpt><trkpt lat="43.0602811" lon="11.4276378"><ele>479.0</ele><time>2026-04-04T11:07:33.162Z</time></trkpt><trkpt lat="43.0602196" lon="11.4276928"><ele>478.99999999999994</ele><time>2026-04-04T11:07:34.162Z</time></trkpt><trkpt lat="43.0601536" lon="11.427742"><ele>479.0</ele><time>2026-04-04T11:07:35.16Z</time></trkpt><trkpt lat="43.0600635" lon="11.4277893"><ele>479.0</ele><time>2026-04-04T11:07:37.162Z</time></trkpt><trkpt lat="43.0599618" lon="11.4278082"><ele>479.0</ele><time>2026-04-04T11:07:39.161Z</time></trkpt><trkpt lat="43.0598524" lon="11.4278015"><ele>479.0</ele><time>2026-04-04T11:07:41.162Z</time></trkpt><trkpt lat="43.0597619" lon="11.427754"><ele>479.0</ele><time>2026-04-04T11:07:43.161Z</time></trkpt><trkpt lat="43.0597129" lon="11.4276974"><ele>479.0</ele><time>2026-04-04T11:07:44.162Z</time></trkpt><trkpt lat="43.0596401" lon="11.4275995"><ele>479.8333333333333</ele><time>2026-04-04T11:07:46.162Z</time></trkpt><trkpt lat="43.0595962" lon="11.4275334"><ele>480.66666666666663</ele><time>2026-04-04T11:07:47.161Z</time></trkpt><trkpt lat="43.0595512" lon="11.4274713"><ele>481.5</ele><time>2026-04-04T11:07:48.16Z</time></trkpt><trkpt lat="43.0595043" lon="11.4274071"><ele>482.33333333333337</ele><time>2026-04-04T11:07:49.161Z</time></trkpt><trkpt lat="43.05941" lon="11.427291"><ele>483.1666666666667</ele><time>2026-04-04T11:07:51.162Z</time></trkpt><trkpt lat="43.0593553" lon="11.4272438"><ele>484.0</ele><time>2026-04-04T11:07:52.162Z</time></trkpt><trkpt lat="43.0592911" lon="11.4272072"><ele>484.00000000000006</ele><time>2026-04-04T11:07:53.161Z</time></trkpt><trkpt lat="43.059173" lon="11.4272048"><ele>484.0</ele><time>2026-04-04T11:07:55.162Z</time></trkpt><trkpt lat="43.059105" lon="11.4272877"><ele>484.0</ele><time>2026-04-04T11:07:56.162Z</time></trkpt><trkpt lat="43.0590643" lon="11.4273692"><ele>484.0</ele><time>2026-04-04T11:07:57.161Z</time></trkpt><trkpt lat="43.0590473" lon="11.4274561"><ele>484.00000000000006</ele><time>2026-04-04T11:07:58.162Z</time></trkpt><trkpt lat="43.0590535" lon="11.4275647"><ele>484.0</ele><time>2026-04-04T11:07:59.161Z</time></trkpt><trkpt lat="43.0590765" lon="11.4276517"><ele>484.00000000000006</ele><time>2026-04-04T11:08:00.16Z</time></trkpt><trkpt lat="43.0590965" lon="11.4277533"><ele>484.0</ele><time>2026-04-04T11:08:01.161Z</time></trkpt><trkpt lat="43.0591395" lon="11.4278551"><ele>484.0</ele><time>2026-04-04T11:08:02.161Z</time></trkpt><trkpt lat="43.0591707" lon="11.4279681"><ele>484.0</ele><time>2026-04-04T11:08:03.161Z</time></trkpt><trkpt lat="43.0591973" lon="11.4280593"><ele>484.00000000000006</ele><time>2026-04-04T11:08:04.161Z</time></trkpt><trkpt lat="43.0592088" lon="11.4281557"><ele>484.0</ele><time>2026-04-04T11:08:05.161Z</time></trkpt><trkpt lat="43.0591956" lon="11.4282444"><ele>483.1666666666667</ele><time>2026-04-04T11:08:06.16Z</time></trkpt><trkpt lat="43.0591615" lon="11.4283342"><ele>482.33333333333337</ele><time>2026-04-04T11:08:07.161Z</time></trkpt><trkpt lat="43.0590879" lon="11.4283525"><ele>481.5</ele><time>2026-04-04T11:08:08.16Z</time></trkpt><trkpt lat="43.0590144" lon="11.4283677"><ele>480.66666666666663</ele><time>2026-04-04T11:08:09.162Z</time></trkpt><trkpt lat="43.0589406" lon="11.4284095"><ele>479.8333333333333</ele><time>2026-04-04T11:08:10.161Z</time></trkpt><trkpt lat="43.0588666" lon="11.4284771"><ele>479.0</ele><time>2026-04-04T11:08:11.161Z</time></trkpt><trkpt lat="43.0588107" lon="11.4285498"><ele>480.4</ele><time>2026-04-04T11:08:12.161Z</time></trkpt><trkpt lat="43.0587498" lon="11.4286414"><ele>481.79999999999995</ele><time>2026-04-04T11:08:13.162Z</time></trkpt><trkpt lat="43.0586935" lon="11.4287374"><ele>483.20000000000005</ele><time>2026-04-04T11:08:14.162Z</time></trkpt><trkpt lat="43.0586458" lon="11.4288353"><ele>484.6</ele><time>2026-04-04T11:08:15.162Z</time></trkpt><trkpt lat="43.0586063" lon="11.4289546"><ele>486.0</ele><time>2026-04-04T11:08:16.161Z</time></trkpt><trkpt lat="43.0585551" lon="11.4290678"><ele>486.0</ele><time>2026-04-04T11:08:17.161Z</time></trkpt><trkpt lat="43.0585122" lon="11.429177"><ele>486.0</ele><time>2026-04-04T11:08:18.161Z</time></trkpt><trkpt lat="43.0584802" lon="11.429291"><ele>486.0</ele><time>2026-04-04T11:08:19.161Z</time></trkpt><trkpt lat="43.0584473" lon="11.4294099"><ele>486.0</ele><time>2026-04-04T11:08:20.162Z</time></trkpt><trkpt lat="43.0584139" lon="11.4295407"><ele>486.0</ele><time>2026-04-04T11:08:21.161Z</time></trkpt><trkpt lat="43.0583861" lon="11.4296631"><ele>486.0</ele><time>2026-04-04T11:08:22.16Z</time></trkpt><trkpt lat="43.0583551" lon="11.4297785"><ele>486.0</ele><time>2026-04-04T11:08:23.161Z</time></trkpt><trkpt lat="43.0583311" lon="11.4299037"><ele>486.0</ele><time>2026-04-04T11:08:24.161Z</time></trkpt><trkpt lat="43.0583006" lon="11.4300223"><ele>486.0</ele><time>2026-04-04T11:08:25.162Z</time></trkpt><trkpt lat="43.0583055" lon="11.4301352"><ele>486.0</ele><time>2026-04-04T11:08:26.161Z</time></trkpt><trkpt lat="43.0583044" lon="11.4302452"><ele>486.0</ele><time>2026-04-04T11:08:27.161Z</time></trkpt><trkpt lat="43.058302" lon="11.4303511"><ele>486.0</ele><time>2026-04-04T11:08:28.162Z</time></trkpt><trkpt lat="43.0583021" lon="11.4304569"><ele>486.0</ele><time>2026-04-04T11:08:29.162Z</time></trkpt><trkpt lat="43.058311" lon="11.4305637"><ele>486.0</ele><time>2026-04-04T11:08:30.162Z</time></trkpt><trkpt lat="43.0583058" lon="11.4306785"><ele>486.0</ele><time>2026-04-04T11:08:31.162Z</time></trkpt><trkpt lat="43.0582785" lon="11.4307883"><ele>486.0</ele><time>2026-04-04T11:08:32.16Z</time></trkpt><trkpt lat="43.0582263" lon="11.430885"><ele>486.0</ele><time>2026-04-04T11:08:33.159Z</time></trkpt><trkpt lat="43.0581456" lon="11.4309649"><ele>484.5</ele><time>2026-04-04T11:08:34.161Z</time></trkpt><trkpt lat="43.0580423" lon="11.4310499"><ele>483.0</ele><time>2026-04-04T11:08:35.162Z</time></trkpt><trkpt lat="43.0579165" lon="11.4311316"><ele>481.5</ele><time>2026-04-04T11:08:36.161Z</time></trkpt><trkpt lat="43.0578063" lon="11.4312099"><ele>480.0</ele><time>2026-04-04T11:08:37.161Z</time></trkpt><trkpt lat="43.0576926" lon="11.4312775"><ele>481.6</ele><time>2026-04-04T11:08:38.161Z</time></trkpt><trkpt lat="43.05761" lon="11.4313415"><ele>483.2</ele><time>2026-04-04T11:08:39.162Z</time></trkpt><trkpt lat="43.0575195" lon="11.4314523"><ele>484.79999999999995</ele><time>2026-04-04T11:08:40.161Z</time></trkpt><trkpt lat="43.0574397" lon="11.431554"><ele>486.4</ele><time>2026-04-04T11:08:41.161Z</time></trkpt><trkpt lat="43.0573651" lon="11.4316207"><ele>488.0</ele><time>2026-04-04T11:08:42.16Z</time></trkpt><trkpt lat="43.0573091" lon="11.4316844"><ele>489.0</ele><time>2026-04-04T11:08:43.16Z</time></trkpt><trkpt lat="43.0572292" lon="11.4317594"><ele>489.0</ele><time>2026-04-04T11:08:45.161Z</time></trkpt><trkpt lat="43.0571793" lon="11.431819"><ele>489.0</ele><time>2026-04-04T11:08:49.162Z</time></trkpt><trkpt lat="43.0571627" lon="11.4319038"><ele>489.0</ele><time>2026-04-04T11:09:00.162Z</time></trkpt><trkpt lat="43.0571352" lon="11.4319907"><ele>489.0</ele><time>2026-04-04T11:09:12.161Z</time></trkpt><trkpt lat="43.0570843" lon="11.4320764"><ele>489.0</ele><time>2026-04-04T11:09:15.16Z</time></trkpt></trkseg><trkseg><trkpt lat="43.0570182" lon="11.4321693"><ele>492.0</ele><time>2026-04-04T11:24:20.156Z</time></trkpt><trkpt lat="43.0569714" lon="11.4322951"><ele>492.00000000000006</ele><time>2026-04-04T11:24:22.155Z</time></trkpt><trkpt lat="43.0569094" lon="11.4324014"><ele>492.00000000000006</ele><time>2026-04-04T11:24:24.156Z</time></trkpt><trkpt lat="43.0568511" lon="11.4325166"><ele>492.0</ele><time>2026-04-04T11:24:26.156Z</time></trkpt><trkpt lat="43.0567778" lon="11.4326228"><ele>492.0</ele><time>2026-04-04T11:24:28.156Z</time></trkpt><trkpt lat="43.0567079" lon="11.4327136"><ele>492.0</ele><time>2026-04-04T11:24:30.156Z</time></trkpt><trkpt lat="43.0566389" lon="11.4328327"><ele>492.0</ele><time>2026-04-04T11:24:32.154Z</time></trkpt><trkpt lat="43.0565673" lon="11.432945"><ele>492.0</ele><time>2026-04-04T11:24:34.157Z</time></trkpt><trkpt lat="43.0564841" lon="11.4330456"><ele>492.0</ele><time>2026-04-04T11:24:36.157Z</time></trkpt><trkpt lat="43.0563858" lon="11.4331559"><ele>492.8333333333333</ele><time>2026-04-04T11:24:38.155Z</time></trkpt><trkpt lat="43.0563261" lon="11.4331967"><ele>493.66666666666663</ele><time>2026-04-04T11:24:39.156Z</time></trkpt><trkpt lat="43.0562601" lon="11.4332244"><ele>494.5</ele><time>2026-04-04T11:24:40.156Z</time></trkpt><trkpt lat="43.0561845" lon="11.4332555"><ele>495.3333333333333</ele><time>2026-04-04T11:24:41.157Z</time></trkpt><trkpt lat="43.0560572" lon="11.4333229"><ele>496.16666666666663</ele><time>2026-04-04T11:24:43.156Z</time></trkpt><trkpt lat="43.0559858" lon="11.4333541"><ele>497.0</ele><time>2026-04-04T11:24:44.156Z</time></trkpt><trkpt lat="43.0559113" lon="11.4333715"><ele>496.99999999999994</ele><time>2026-04-04T11:24:45.155Z</time></trkpt><trkpt lat="43.055841" lon="11.433385"><ele>497.0</ele><time>2026-04-04T11:24:46.155Z</time></trkpt><trkpt lat="43.0557688" lon="11.4334077"><ele>497.0</ele><time>2026-04-04T11:24:47.155Z</time></trkpt><trkpt lat="43.0557075" lon="11.4334481"><ele>497.0</ele><time>2026-04-04T11:24:48.155Z</time></trkpt><trkpt lat="43.0556489" lon="11.4334849"><ele>496.99999999999994</ele><time>2026-04-04T11:24:49.155Z</time></trkpt><trkpt lat="43.0555465" lon="11.4335505"><ele>497.0</ele><time>2026-04-04T11:24:51.155Z</time></trkpt><trkpt lat="43.0554828" lon="11.4335771"><ele>496.8333333333333</ele><time>2026-04-04T11:24:52.155Z</time></trkpt><trkpt lat="43.0554167" lon="11.4336066"><ele>496.66666666666663</ele><time>2026-04-04T11:24:53.155Z</time></trkpt><trkpt lat="43.0553483" lon="11.4336441"><ele>496.5</ele><time>2026-04-04T11:24:54.156Z</time></trkpt><trkpt lat="43.055284" lon="11.4336612"><ele>496.33333333333337</ele><time>2026-04-04T11:24:55.155Z</time></trkpt><trkpt lat="43.0552076" lon="11.4336847"><ele>496.1666666666667</ele><time>2026-04-04T11:24:56.155Z</time></trkpt><trkpt lat="43.0551215" lon="11.4337098"><ele>496.0</ele><time>2026-04-04T11:24:57.155Z</time></trkpt><trkpt lat="43.0550347" lon="11.4337407"><ele>496.00000000000006</ele><time>2026-04-04T11:24:58.154Z</time></trkpt><trkpt lat="43.0549537" lon="11.433789"><ele>496.0</ele><time>2026-04-04T11:24:59.157Z</time></trkpt><trkpt lat="43.0548758" lon="11.433845"><ele>496.0</ele><time>2026-04-04T11:25:00.156Z</time></trkpt><trkpt lat="43.0548029" lon="11.4339044"><ele>496.0</ele><time>2026-04-04T11:25:01.155Z</time></trkpt><trkpt lat="43.0547373" lon="11.4339554"><ele>496.00000000000006</ele><time>2026-04-04T11:25:02.155Z</time></trkpt><trkpt lat="43.0546605" lon="11.4339941"><ele>496.0</ele><time>2026-04-04T11:25:03.157Z</time></trkpt><trkpt lat="43.0545813" lon="11.4340403"><ele>494.0</ele><time>2026-04-04T11:25:04.156Z</time></trkpt><trkpt lat="43.0544994" lon="11.4340897"><ele>492.0</ele><time>2026-04-04T11:25:05.156Z</time></trkpt><trkpt lat="43.0544127" lon="11.4341247"><ele>490.0</ele><time>2026-04-04T11:25:06.156Z</time></trkpt><trkpt lat="43.0543279" lon="11.4341641"><ele>488.0</ele><time>2026-04-04T11:25:07.156Z</time></trkpt><trkpt lat="43.0542271" lon="11.4341739"><ele>486.0</ele><time>2026-04-04T11:25:08.155Z</time></trkpt><trkpt lat="43.0541378" lon="11.4342034"><ele>485.6666666666667</ele><time>2026-04-04T11:25:09.157Z</time></trkpt><trkpt lat="43.0540477" lon="11.4342333"><ele>485.33333333333337</ele><time>2026-04-04T11:25:10.156Z</time></trkpt><trkpt lat="43.0539682" lon="11.4342595"><ele>485.0</ele><time>2026-04-04T11:25:11.155Z</time></trkpt><trkpt lat="43.053883" lon="11.4342737"><ele>484.6666666666667</ele><time>2026-04-04T11:25:12.156Z</time></trkpt><trkpt lat="43.0537973" lon="11.4342958"><ele>484.33333333333337</ele><time>2026-04-04T11:25:13.155Z</time></trkpt><trkpt lat="43.0537255" lon="11.4343433"><ele>484.0</ele><time>2026-04-04T11:25:14.156Z</time></trkpt><trkpt lat="43.0536564" lon="11.4343981"><ele>484.00000000000006</ele><time>2026-04-04T11:25:15.156Z</time></trkpt><trkpt lat="43.0535937" lon="11.4344624"><ele>484.0</ele><time>2026-04-04T11:25:16.156Z</time></trkpt><trkpt lat="43.0535289" lon="11.4345395"><ele>484.0</ele><time>2026-04-04T11:25:17.156Z</time></trkpt><trkpt lat="43.0534651" lon="11.4346347"><ele>484.0</ele><time>2026-04-04T11:25:18.155Z</time></trkpt><trkpt lat="43.0534061" lon="11.4347259"><ele>484.00000000000006</ele><time>2026-04-04T11:25:19.156Z</time></trkpt><trkpt lat="43.0533464" lon="11.434823"><ele>484.0</ele><time>2026-04-04T11:25:20.154Z</time></trkpt><trkpt lat="43.0533051" lon="11.4349477"><ele>482.6</ele><time>2026-04-04T11:25:21.156Z</time></trkpt><trkpt lat="43.0532635" lon="11.4350654"><ele>481.2</ele><time>2026-04-04T11:25:22.156Z</time></trkpt><trkpt lat="43.05322" lon="11.4351733"><ele>479.80000000000007</ele><time>2026-04-04T11:25:23.157Z</time></trkpt><trkpt lat="43.0531816" lon="11.4352883"><ele>478.40000000000003</ele><time>2026-04-04T11:25:24.156Z</time></trkpt><trkpt lat="43.053142" lon="11.4354313"><ele>477.0</ele><time>2026-04-04T11:25:25.155Z</time></trkpt><trkpt lat="43.053122" lon="11.435569"><ele>474.6</ele><time>2026-04-04T11:25:26.156Z</time></trkpt><trkpt lat="43.0530993" lon="11.4357086"><ele>472.20000000000005</ele><time>2026-04-04T11:25:27.156Z</time></trkpt><trkpt lat="43.0530805" lon="11.4358457"><ele>469.8</ele><time>2026-04-04T11:25:28.155Z</time></trkpt><trkpt lat="43.0530554" lon="11.4359846"><ele>467.4</ele><time>2026-04-04T11:25:29.155Z</time></trkpt><trkpt lat="43.0530447" lon="11.4361099"><ele>465.0</ele><time>2026-04-04T11:25:30.155Z</time></trkpt><trkpt lat="43.0530111" lon="11.4362428"><ele>465.6</ele><time>2026-04-04T11:25:31.156Z</time></trkpt><trkpt lat="43.052997" lon="11.4363876"><ele>466.2</ele><time>2026-04-04T11:25:32.155Z</time></trkpt><trkpt lat="43.0529463" lon="11.4364971"><ele>466.79999999999995</ele><time>2026-04-04T11:25:33.155Z</time></trkpt><trkpt lat="43.0528768" lon="11.436593"><ele>467.4</ele><time>2026-04-04T11:25:34.156Z</time></trkpt><trkpt lat="43.0527905" lon="11.4366847"><ele>468.0</ele><time>2026-04-04T11:25:35.156Z</time></trkpt><trkpt lat="43.0527098" lon="11.4367412"><ele>468.0</ele><time>2026-04-04T11:25:36.155Z</time></trkpt><trkpt lat="43.0526223" lon="11.4367749"><ele>468.0</ele><time>2026-04-04T11:25:37.156Z</time></trkpt><trkpt lat="43.0525416" lon="11.4367824"><ele>468.0</ele><time>2026-04-04T11:25:38.156Z</time></trkpt><trkpt lat="43.0524534" lon="11.4367686"><ele>468.0</ele><time>2026-04-04T11:25:39.155Z</time></trkpt><trkpt lat="43.0523669" lon="11.43676"><ele>468.0</ele><time>2026-04-04T11:25:40.155Z</time></trkpt><trkpt lat="43.0522896" lon="11.4367431"><ele>468.0</ele><time>2026-04-04T11:25:41.156Z</time></trkpt><trkpt lat="43.0521913" lon="11.4367342"><ele>468.2</ele><time>2026-04-04T11:25:42.156Z</time></trkpt><trkpt lat="43.0520933" lon="11.4367561"><ele>468.4</ele><time>2026-04-04T11:25:43.157Z</time></trkpt><trkpt lat="43.0520001" lon="11.4367819"><ele>468.59999999999997</ele><time>2026-04-04T11:25:44.156Z</time></trkpt><trkpt lat="43.0519152" lon="11.4368034"><ele>468.79999999999995</ele><time>2026-04-04T11:25:45.157Z</time></trkpt><trkpt lat="43.0518489" lon="11.4368204"><ele>469.0</ele><time>2026-04-04T11:25:46.155Z</time></trkpt><trkpt lat="43.0517367" lon="11.4368485"><ele>469.00000000000006</ele><time>2026-04-04T11:25:48.156Z</time></trkpt><trkpt lat="43.0516286" lon="11.4368979"><ele>469.0</ele><time>2026-04-04T11:25:50.157Z</time></trkpt><trkpt lat="43.0515455" lon="11.4370015"><ele>469.0</ele><time>2026-04-04T11:25:52.156Z</time></trkpt><trkpt lat="43.0515042" lon="11.4370709"><ele>469.0</ele><time>2026-04-04T11:25:53.155Z</time></trkpt><trkpt lat="43.0514607" lon="11.4371489"><ele>469.00000000000006</ele><time>2026-04-04T11:25:54.156Z</time></trkpt><trkpt lat="43.0514193" lon="11.4372179"><ele>469.0</ele><time>2026-04-04T11:25:55.154Z</time></trkpt><trkpt lat="43.0513737" lon="11.4372966"><ele>469.1428571428571</ele><time>2026-04-04T11:25:56.156Z</time></trkpt><trkpt lat="43.0513195" lon="11.4373674"><ele>469.2857142857143</ele><time>2026-04-04T11:25:57.156Z</time></trkpt><trkpt lat="43.0512643" lon="11.4374223"><ele>469.42857142857144</ele><time>2026-04-04T11:25:58.154Z</time></trkpt><trkpt lat="43.0512159" lon="11.4374853"><ele>469.57142857142856</ele><time>2026-04-04T11:25:59.156Z</time></trkpt><trkpt lat="43.0511467" lon="11.4375276"><ele>469.71428571428567</ele><time>2026-04-04T11:26:00.155Z</time></trkpt><trkpt lat="43.0510838" lon="11.4375779"><ele>469.85714285714283</ele><time>2026-04-04T11:26:01.154Z</time></trkpt><trkpt lat="43.0510122" lon="11.437625"><ele>470.0</ele><time>2026-04-04T11:26:02.157Z</time></trkpt><trkpt lat="43.0509433" lon="11.4376674"><ele>470.0</ele><time>2026-04-04T11:26:03.156Z</time></trkpt><trkpt lat="43.0508877" lon="11.4377202"><ele>469.99999999999994</ele><time>2026-04-04T11:26:04.155Z</time></trkpt><trkpt lat="43.050822" lon="11.4377582"><ele>470.0</ele><time>2026-04-04T11:26:05.154Z</time></trkpt><trkpt lat="43.0507538" lon="11.4378044"><ele>470.0</ele><time>2026-04-04T11:26:06.154Z</time></trkpt><trkpt lat="43.0506963" lon="11.4378555"><ele>469.99999999999994</ele><time>2026-04-04T11:26:07.155Z</time></trkpt><trkpt lat="43.0506392" lon="11.4379158"><ele>470.0</ele><time>2026-04-04T11:26:08.155Z</time></trkpt><trkpt lat="43.0505958" lon="11.4379896"><ele>470.0</ele><time>2026-04-04T11:26:09.155Z</time></trkpt><trkpt lat="43.050548" lon="11.4380754"><ele>471.99999999999994</ele><time>2026-04-04T11:26:10.157Z</time></trkpt><trkpt lat="43.0505159" lon="11.4381806"><ele>474.0</ele><time>2026-04-04T11:26:11.154Z</time></trkpt><trkpt lat="43.0505006" lon="11.4382865"><ele>476.0</ele><time>2026-04-04T11:26:12.155Z</time></trkpt><trkpt lat="43.0504875" lon="11.4383831"><ele>478.0</ele><time>2026-04-04T11:26:13.155Z</time></trkpt><trkpt lat="43.0504581" lon="11.4384956"><ele>479.99999999999994</ele><time>2026-04-04T11:26:14.155Z</time></trkpt><trkpt lat="43.0504381" lon="11.438594"><ele>482.0</ele><time>2026-04-04T11:26:15.155Z</time></trkpt><trkpt lat="43.0504175" lon="11.4386975"><ele>482.8333333333333</ele><time>2026-04-04T11:26:16.155Z</time></trkpt><trkpt lat="43.050413" lon="11.4388041"><ele>483.66666666666663</ele><time>2026-04-04T11:26:17.156Z</time></trkpt><trkpt lat="43.0504369" lon="11.4389012"><ele>484.5</ele><time>2026-04-04T11:26:18.156Z</time></trkpt><trkpt lat="43.0504775" lon="11.4389961"><ele>485.33333333333337</ele><time>2026-04-04T11:26:19.156Z</time></trkpt><trkpt lat="43.0505253" lon="11.4390863"><ele>486.1666666666667</ele><time>2026-04-04T11:26:20.155Z</time></trkpt><trkpt lat="43.0505743" lon="11.4391751"><ele>487.0</ele><time>2026-04-04T11:26:21.155Z</time></trkpt><trkpt lat="43.0506194" lon="11.4392685"><ele>487.00000000000006</ele><time>2026-04-04T11:26:22.155Z</time></trkpt><trkpt lat="43.0506648" lon="11.4393619"><ele>487.0</ele><time>2026-04-04T11:26:23.155Z</time></trkpt><trkpt lat="43.0507027" lon="11.4394617"><ele>487.0</ele><time>2026-04-04T11:26:24.155Z</time></trkpt><trkpt lat="43.0507305" lon="11.4395922"><ele>487.0</ele><time>2026-04-04T11:26:25.156Z</time></trkpt><trkpt lat="43.0507444" lon="11.4397166"><ele>487.00000000000006</ele><time>2026-04-04T11:26:26.156Z</time></trkpt><trkpt lat="43.0507399" lon="11.4398415"><ele>487.0</ele><time>2026-04-04T11:26:27.156Z</time></trkpt><trkpt lat="43.0507334" lon="11.4399651"><ele>486.00000000000006</ele><time>2026-04-04T11:26:28.155Z</time></trkpt><trkpt lat="43.0507139" lon="11.4400858"><ele>485.0</ele><time>2026-04-04T11:26:29.154Z</time></trkpt><trkpt lat="43.050688" lon="11.4401828"><ele>484.0</ele><time>2026-04-04T11:26:30.156Z</time></trkpt><trkpt lat="43.050643" lon="11.4402872"><ele>483.0</ele><time>2026-04-04T11:26:31.156Z</time></trkpt><trkpt lat="43.0505898" lon="11.440381"><ele>482.00000000000006</ele><time>2026-04-04T11:26:32.155Z</time></trkpt><trkpt lat="43.0505187" lon="11.440463"><ele>481.0</ele><time>2026-04-04T11:26:33.156Z</time></trkpt><trkpt lat="43.0504421" lon="11.4405339"><ele>478.6666666666667</ele><time>2026-04-04T11:26:34.155Z</time></trkpt><trkpt lat="43.0503611" lon="11.4405953"><ele>476.33333333333337</ele><time>2026-04-04T11:26:35.155Z</time></trkpt><trkpt lat="43.0502906" lon="11.4406716"><ele>474.0</ele><time>2026-04-04T11:26:36.155Z</time></trkpt><trkpt lat="43.0502256" lon="11.4407467"><ele>471.66666666666663</ele><time>2026-04-04T11:26:37.155Z</time></trkpt><trkpt lat="43.0501732" lon="11.440838"><ele>469.3333333333333</ele><time>2026-04-04T11:26:38.155Z</time></trkpt><trkpt lat="43.0501276" lon="11.4409486"><ele>467.0</ele><time>2026-04-04T11:26:39.156Z</time></trkpt><trkpt lat="43.050103" lon="11.4410695"><ele>466.99999999999994</ele><time>2026-04-04T11:26:40.155Z</time></trkpt><trkpt lat="43.050087" lon="11.4411824"><ele>467.0</ele><time>2026-04-04T11:26:41.155Z</time></trkpt><trkpt lat="43.0500869" lon="11.4412953"><ele>467.0</ele><time>2026-04-04T11:26:42.155Z</time></trkpt><trkpt lat="43.050088" lon="11.4414106"><ele>467.0</ele><time>2026-04-04T11:26:43.156Z</time></trkpt><trkpt lat="43.0500916" lon="11.4415116"><ele>466.99999999999994</ele><time>2026-04-04T11:26:44.155Z</time></trkpt><trkpt lat="43.0500896" lon="11.4416203"><ele>467.0</ele><time>2026-04-04T11:26:45.156Z</time></trkpt><trkpt lat="43.0500889" lon="11.4417392"><ele>466.49999999999994</ele><time>2026-04-04T11:26:46.156Z</time></trkpt><trkpt lat="43.0500869" lon="11.4418454"><ele>466.0</ele><time>2026-04-04T11:26:47.157Z</time></trkpt><trkpt lat="43.0500936" lon="11.4419589"><ele>465.5</ele><time>2026-04-04T11:26:48.156Z</time></trkpt><trkpt lat="43.0500974" lon="11.4420725"><ele>465.0</ele><time>2026-04-04T11:26:49.156Z</time></trkpt><trkpt lat="43.0501006" lon="11.4421778"><ele>464.49999999999994</ele><time>2026-04-04T11:26:50.155Z</time></trkpt><trkpt lat="43.0501042" lon="11.442281"><ele>464.0</ele><time>2026-04-04T11:26:51.155Z</time></trkpt><trkpt lat="43.0501161" lon="11.4423812"><ele>464.00000000000006</ele><time>2026-04-04T11:26:52.156Z</time></trkpt><trkpt lat="43.050119" lon="11.4424758"><ele>464.0</ele><time>2026-04-04T11:26:53.155Z</time></trkpt><trkpt lat="43.0501269" lon="11.442566"><ele>464.00000000000006</ele><time>2026-04-04T11:26:54.155Z</time></trkpt><trkpt lat="43.0501293" lon="11.4426656"><ele>464.00000000000006</ele><time>2026-04-04T11:26:55.155Z</time></trkpt><trkpt lat="43.0501324" lon="11.4427633"><ele>464.0</ele><time>2026-04-04T11:26:56.155Z</time></trkpt><trkpt lat="43.0501371" lon="11.44286"><ele>464.00000000000006</ele><time>2026-04-04T11:26:57.156Z</time></trkpt><trkpt lat="43.0501445" lon="11.4429599"><ele>464.00000000000006</ele><time>2026-04-04T11:26:58.155Z</time></trkpt><trkpt lat="43.0501526" lon="11.4430755"><ele>465.16666666666663</ele><time>2026-04-04T11:26:59.154Z</time></trkpt><trkpt lat="43.0501608" lon="11.4431778"><ele>466.3333333333333</ele><time>2026-04-04T11:27:00.155Z</time></trkpt><trkpt lat="43.0501485" lon="11.4432771"><ele>467.5</ele><time>2026-04-04T11:27:01.156Z</time></trkpt><trkpt lat="43.0501348" lon="11.4433794"><ele>468.66666666666663</ele><time>2026-04-04T11:27:02.155Z</time></trkpt><trkpt lat="43.050117" lon="11.4434772"><ele>469.8333333333333</ele><time>2026-04-04T11:27:03.154Z</time></trkpt><trkpt lat="43.0500943" lon="11.4435829"><ele>471.0</ele><time>2026-04-04T11:27:04.156Z</time></trkpt><trkpt lat="43.0500783" lon="11.4436941"><ele>471.0</ele><time>2026-04-04T11:27:05.155Z</time></trkpt><trkpt lat="43.0500519" lon="11.4437914"><ele>471.0</ele><time>2026-04-04T11:27:06.155Z</time></trkpt><trkpt lat="43.0500259" lon="11.4438907"><ele>471.0</ele><time>2026-04-04T11:27:07.155Z</time></trkpt><trkpt lat="43.0499989" lon="11.4439873"><ele>471.0</ele><time>2026-04-04T11:27:08.156Z</time></trkpt><trkpt lat="43.049976" lon="11.4440996"><ele>471.0</ele><time>2026-04-04T11:27:09.155Z</time></trkpt><trkpt lat="43.0499531" lon="11.4442137"><ele>471.0</ele><time>2026-04-04T11:27:10.155Z</time></trkpt><trkpt lat="43.0499355" lon="11.4443328"><ele>470.8333333333333</ele><time>2026-04-04T11:27:11.155Z</time></trkpt><trkpt lat="43.0499307" lon="11.4444518"><ele>470.66666666666663</ele><time>2026-04-04T11:27:12.156Z</time></trkpt><trkpt lat="43.0499376" lon="11.4445869"><ele>470.5</ele><time>2026-04-04T11:27:13.154Z</time></trkpt><trkpt lat="43.0499402" lon="11.4446956"><ele>470.3333333333333</ele><time>2026-04-04T11:27:14.156Z</time></trkpt><trkpt lat="43.049942" lon="11.4448147"><ele>470.16666666666663</ele><time>2026-04-04T11:27:15.155Z</time></trkpt><trkpt lat="43.0499421" lon="11.4449392"><ele>470.0</ele><time>2026-04-04T11:27:16.156Z</time></trkpt><trkpt lat="43.049934" lon="11.4450644"><ele>468.49999999999994</ele><time>2026-04-04T11:27:17.154Z</time></trkpt><trkpt lat="43.0499115" lon="11.4451987"><ele>467.0</ele><time>2026-04-04T11:27:18.155Z</time></trkpt><trkpt lat="43.0498743" lon="11.4453115"><ele>465.5</ele><time>2026-04-04T11:27:19.154Z</time></trkpt><trkpt lat="43.0498361" lon="11.4454215"><ele>464.0</ele><time>2026-04-04T11:27:20.155Z</time></trkpt><trkpt lat="43.0497979" lon="11.4455218"><ele>462.49999999999994</ele><time>2026-04-04T11:27:21.155Z</time></trkpt><trkpt lat="43.0497684" lon="11.4456231"><ele>461.0</ele><time>2026-04-04T11:27:22.156Z</time></trkpt><trkpt lat="43.0497394" lon="11.4457145"><ele>461.0</ele><time>2026-04-04T11:27:23.155Z</time></trkpt><trkpt lat="43.0497169" lon="11.4458097"><ele>461.00000000000006</ele><time>2026-04-04T11:27:24.156Z</time></trkpt><trkpt lat="43.0496962" lon="11.4459046"><ele>461.0</ele><time>2026-04-04T11:27:25.156Z</time></trkpt><trkpt lat="43.0496879" lon="11.4459971"><ele>461.0</ele><time>2026-04-04T11:27:26.155Z</time></trkpt><trkpt lat="43.0496637" lon="11.4460912"><ele>461.00000000000006</ele><time>2026-04-04T11:27:27.155Z</time></trkpt><trkpt lat="43.0496467" lon="11.4461863"><ele>461.0</ele><time>2026-04-04T11:27:28.156Z</time></trkpt><trkpt lat="43.0496182" lon="11.4462822"><ele>461.0</ele><time>2026-04-04T11:27:29.154Z</time></trkpt><trkpt lat="43.0496232" lon="11.4463809"><ele>461.66666666666663</ele><time>2026-04-04T11:27:30.154Z</time></trkpt><trkpt lat="43.0496207" lon="11.4464878"><ele>462.3333333333333</ele><time>2026-04-04T11:27:31.154Z</time></trkpt><trkpt lat="43.0496449" lon="11.4466056"><ele>463.0</ele><time>2026-04-04T11:27:32.157Z</time></trkpt><trkpt lat="43.0496424" lon="11.4467231"><ele>463.66666666666663</ele><time>2026-04-04T11:27:33.155Z</time></trkpt><trkpt lat="43.0496361" lon="11.4468439"><ele>464.3333333333333</ele><time>2026-04-04T11:27:34.154Z</time></trkpt><trkpt lat="43.0496375" lon="11.4469838"><ele>465.0</ele><time>2026-04-04T11:27:35.155Z</time></trkpt><trkpt lat="43.0496291" lon="11.4471006"><ele>465.1666666666667</ele><time>2026-04-04T11:27:36.154Z</time></trkpt><trkpt lat="43.0496327" lon="11.4472008"><ele>465.33333333333337</ele><time>2026-04-04T11:27:37.156Z</time></trkpt><trkpt lat="43.0496289" lon="11.4473198"><ele>465.5</ele><time>2026-04-04T11:27:38.156Z</time></trkpt><trkpt lat="43.0496264" lon="11.4474394"><ele>465.6666666666667</ele><time>2026-04-04T11:27:39.155Z</time></trkpt><trkpt lat="43.0496188" lon="11.4475467"><ele>465.83333333333337</ele><time>2026-04-04T11:27:40.155Z</time></trkpt><trkpt lat="43.0496218" lon="11.4476528"><ele>466.0</ele><time>2026-04-04T11:27:41.155Z</time></trkpt><trkpt lat="43.0496453" lon="11.4477547"><ele>466.0</ele><time>2026-04-04T11:27:42.155Z</time></trkpt><trkpt lat="43.0496588" lon="11.4478562"><ele>466.0</ele><time>2026-04-04T11:27:43.153Z</time></trkpt><trkpt lat="43.0496834" lon="11.4479459"><ele>466.0</ele><time>2026-04-04T11:27:44.155Z</time></trkpt><trkpt lat="43.0497004" lon="11.4480472"><ele>466.0</ele><time>2026-04-04T11:27:45.155Z</time></trkpt><trkpt lat="43.0497177" lon="11.4481378"><ele>466.0</ele><time>2026-04-04T11:27:46.156Z</time></trkpt><trkpt lat="43.0497093" lon="11.4482302"><ele>466.0</ele><time>2026-04-04T11:27:47.155Z</time></trkpt><trkpt lat="43.0496887" lon="11.4483256"><ele>466.0</ele><time>2026-04-04T11:27:48.154Z</time></trkpt><trkpt lat="43.0496467" lon="11.4484096"><ele>466.42857142857144</ele><time>2026-04-04T11:27:49.156Z</time></trkpt><trkpt lat="43.0495976" lon="11.4484845"><ele>466.85714285714283</ele><time>2026-04-04T11:27:50.153Z</time></trkpt><trkpt lat="43.0495481" lon="11.4485636"><ele>467.2857142857143</ele><time>2026-04-04T11:27:51.155Z</time></trkpt><trkpt lat="43.049496" lon="11.448642"><ele>467.7142857142857</ele><time>2026-04-04T11:27:52.155Z</time></trkpt><trkpt lat="43.0494465" lon="11.448711"><ele>468.1428571428571</ele><time>2026-04-04T11:27:53.155Z</time></trkpt><trkpt lat="43.049401" lon="11.4487824"><ele>468.57142857142856</ele><time>2026-04-04T11:27:54.155Z</time></trkpt><trkpt lat="43.0493608" lon="11.4488537"><ele>469.0</ele><time>2026-04-04T11:27:55.153Z</time></trkpt><trkpt lat="43.0493152" lon="11.4489174"><ele>469.2857142857143</ele><time>2026-04-04T11:27:56.153Z</time></trkpt><trkpt lat="43.0492743" lon="11.4489884"><ele>469.57142857142856</ele><time>2026-04-04T11:27:57.154Z</time></trkpt><trkpt lat="43.0492264" lon="11.4490623"><ele>469.8571428571429</ele><time>2026-04-04T11:27:58.154Z</time></trkpt><trkpt lat="43.0491798" lon="11.4491234"><ele>470.14285714285717</ele><time>2026-04-04T11:27:59.156Z</time></trkpt><trkpt lat="43.0491335" lon="11.4492068"><ele>470.42857142857144</ele><time>2026-04-04T11:28:00.154Z</time></trkpt><trkpt lat="43.0490723" lon="11.4492815"><ele>470.7142857142858</ele><time>2026-04-04T11:28:01.154Z</time></trkpt><trkpt lat="43.04902" lon="11.4493556"><ele>471.00000000000006</ele><time>2026-04-04T11:28:02.155Z</time></trkpt><trkpt lat="43.048961" lon="11.4494283"><ele>471.0</ele><time>2026-04-04T11:28:03.154Z</time></trkpt><trkpt lat="43.0489065" lon="11.4495056"><ele>471.0</ele><time>2026-04-04T11:28:04.155Z</time></trkpt><trkpt lat="43.0488595" lon="11.4495639"><ele>471.0</ele><time>2026-04-04T11:28:05.155Z</time></trkpt><trkpt lat="43.0488105" lon="11.4496302"><ele>471.0</ele><time>2026-04-04T11:28:06.154Z</time></trkpt><trkpt lat="43.048722" lon="11.449754"><ele>471.0</ele><time>2026-04-04T11:28:08.154Z</time></trkpt><trkpt lat="43.0486403" lon="11.4498734"><ele>471.8</ele><time>2026-04-04T11:28:10.156Z</time></trkpt><trkpt lat="43.0485933" lon="11.449936"><ele>472.6</ele><time>2026-04-04T11:28:11.155Z</time></trkpt><trkpt lat="43.0485439" lon="11.4499969"><ele>473.4</ele><time>2026-04-04T11:28:12.153Z</time></trkpt><trkpt lat="43.0484381" lon="11.4501097"><ele>474.2</ele><time>2026-04-04T11:28:14.154Z</time></trkpt><trkpt lat="43.0483817" lon="11.4501603"><ele>475.0</ele><time>2026-04-04T11:28:15.153Z</time></trkpt><trkpt lat="43.0482919" lon="11.4502656"><ele>475.0</ele><time>2026-04-04T11:28:17.155Z</time></trkpt><trkpt lat="43.0482421" lon="11.4503642"><ele>475.0</ele><time>2026-04-04T11:28:19.154Z</time></trkpt><trkpt lat="43.0481771" lon="11.4504715"><ele>475.0</ele><time>2026-04-04T11:28:21.156Z</time></trkpt><trkpt lat="43.0481332" lon="11.4506013"><ele>475.0</ele><time>2026-04-04T11:28:23.155Z</time></trkpt><trkpt lat="43.0481009" lon="11.4507737"><ele>475.0</ele><time>2026-04-04T11:28:25.155Z</time></trkpt><trkpt lat="43.0480826" lon="11.4508571"><ele>475.8571428571429</ele><time>2026-04-04T11:28:26.155Z</time></trkpt><trkpt lat="43.0480805" lon="11.4509566"><ele>476.7142857142858</ele><time>2026-04-04T11:28:27.154Z</time></trkpt><trkpt lat="43.0480668" lon="11.4510483"><ele>477.57142857142856</ele><time>2026-04-04T11:28:28.155Z</time></trkpt><trkpt lat="43.048053" lon="11.4511329"><ele>478.42857142857144</ele><time>2026-04-04T11:28:29.155Z</time></trkpt><trkpt lat="43.0480389" lon="11.4512248"><ele>479.2857142857143</ele><time>2026-04-04T11:28:30.155Z</time></trkpt><trkpt lat="43.0480242" lon="11.4513153"><ele>480.1428571428571</ele><time>2026-04-04T11:28:31.155Z</time></trkpt><trkpt lat="43.047995" lon="11.4514018"><ele>480.99999999999994</ele><time>2026-04-04T11:28:32.154Z</time></trkpt><trkpt lat="43.0479609" lon="11.4514777"><ele>481.8</ele><time>2026-04-04T11:28:33.154Z</time></trkpt><trkpt lat="43.0479148" lon="11.4516336"><ele>482.6</ele><time>2026-04-04T11:28:35.154Z</time></trkpt><trkpt lat="43.0478652" lon="11.4517641"><ele>483.4</ele><time>2026-04-04T11:28:37.154Z</time></trkpt><trkpt lat="43.0478154" lon="11.4518935"><ele>484.2</ele><time>2026-04-04T11:28:39.154Z</time></trkpt><trkpt lat="43.0477714" lon="11.4520095"><ele>485.0</ele><time>2026-04-04T11:28:41.154Z</time></trkpt><trkpt lat="43.0477409" lon="11.4521217"><ele>486.0</ele><time>2026-04-04T11:28:43.156Z</time></trkpt><trkpt lat="43.0477174" lon="11.4522677"><ele>487.0</ele><time>2026-04-04T11:28:45.154Z</time></trkpt><trkpt lat="43.0476915" lon="11.4524304"><ele>488.0</ele><time>2026-04-04T11:28:47.153Z</time></trkpt><trkpt lat="43.0476621" lon="11.4525761"><ele>489.0</ele><time>2026-04-04T11:28:49.154Z</time></trkpt><trkpt lat="43.0476368" lon="11.4526578"><ele>490.0</ele><time>2026-04-04T11:28:50.154Z</time></trkpt><trkpt lat="43.0476189" lon="11.4527444"><ele>490.0</ele><time>2026-04-04T11:28:51.155Z</time></trkpt><trkpt lat="43.0476057" lon="11.4528332"><ele>490.0</ele><time>2026-04-04T11:28:52.154Z</time></trkpt><trkpt lat="43.0475864" lon="11.4529302"><ele>490.0</ele><time>2026-04-04T11:28:53.156Z</time></trkpt><trkpt lat="43.0475696" lon="11.4530309"><ele>490.0</ele><time>2026-04-04T11:28:54.153Z</time></trkpt><trkpt lat="43.0475552" lon="11.4531298"><ele>490.0</ele><time>2026-04-04T11:28:55.154Z</time></trkpt><trkpt lat="43.0475565" lon="11.4532292"><ele>490.0</ele><time>2026-04-04T11:28:56.155Z</time></trkpt><trkpt lat="43.0475504" lon="11.4533289"><ele>490.0</ele><time>2026-04-04T11:28:57.154Z</time></trkpt><trkpt lat="43.0475396" lon="11.4534141"><ele>490.6</ele><time>2026-04-04T11:28:58.154Z</time></trkpt><trkpt lat="43.0475282" lon="11.4535771"><ele>491.2</ele><time>2026-04-04T11:29:00.154Z</time></trkpt><trkpt lat="43.0474842" lon="11.4537264"><ele>491.79999999999995</ele><time>2026-04-04T11:29:02.155Z</time></trkpt><trkpt lat="43.0474362" lon="11.4537862"><ele>492.4</ele><time>2026-04-04T11:29:03.155Z</time></trkpt><trkpt lat="43.0473464" lon="11.4538759"><ele>493.0</ele><time>2026-04-04T11:29:05.155Z</time></trkpt><trkpt lat="43.0472493" lon="11.4539733"><ele>494.50000000000006</ele><time>2026-04-04T11:29:07.153Z</time></trkpt><trkpt lat="43.0471784" lon="11.4539987"><ele>496.0</ele><time>2026-04-04T11:29:08.154Z</time></trkpt><trkpt lat="43.0471046" lon="11.4540552"><ele>497.5</ele><time>2026-04-04T11:29:09.156Z</time></trkpt><trkpt lat="43.0470331" lon="11.4541102"><ele>499.0</ele><time>2026-04-04T11:29:10.155Z</time></trkpt><trkpt lat="43.046966" lon="11.4541564"><ele>500.50000000000006</ele><time>2026-04-04T11:29:11.153Z</time></trkpt><trkpt lat="43.0468968" lon="11.4541883"><ele>502.0</ele><time>2026-04-04T11:29:12.154Z</time></trkpt><trkpt lat="43.0468359" lon="11.4542224"><ele>502.00000000000006</ele><time>2026-04-04T11:29:13.156Z</time></trkpt><trkpt lat="43.0467377" lon="11.4542672"><ele>502.0</ele><time>2026-04-04T11:29:15.155Z</time></trkpt><trkpt lat="43.0466752" lon="11.4542801"><ele>502.0</ele><time>2026-04-04T11:29:23.155Z</time></trkpt><trkpt lat="43.0466078" lon="11.454327"><ele>502.0</ele><time>2026-04-04T11:29:34.154Z</time></trkpt><trkpt lat="43.0465508" lon="11.4543976"><ele>502.00000000000006</ele><time>2026-04-04T11:29:36.154Z</time></trkpt><trkpt lat="43.0464844" lon="11.4544912"><ele>502.0</ele><time>2026-04-04T11:29:38.154Z</time></trkpt><trkpt lat="43.0463833" lon="11.4545765"><ele>503.0</ele><time>2026-04-04T11:29:40.155Z</time></trkpt><trkpt lat="43.0463288" lon="11.4546226"><ele>504.00000000000006</ele><time>2026-04-04T11:29:41.154Z</time></trkpt><trkpt lat="43.0462271" lon="11.4547117"><ele>505.00000000000006</ele><time>2026-04-04T11:29:43.156Z</time></trkpt><trkpt lat="43.0461211" lon="11.4547841"><ele>506.0</ele><time>2026-04-04T11:29:45.156Z</time></trkpt><trkpt lat="43.0460087" lon="11.4548468"><ele>507.0</ele><time>2026-04-04T11:29:47.153Z</time></trkpt><trkpt lat="43.0459513" lon="11.4548832"><ele>507.0</ele><time>2026-04-04T11:29:48.154Z</time></trkpt><trkpt lat="43.0458306" lon="11.4549616"><ele>507.0</ele><time>2026-04-04T11:29:50.155Z</time></trkpt><trkpt lat="43.0457648" lon="11.4550019"><ele>507.0</ele><time>2026-04-04T11:29:51.154Z</time></trkpt><trkpt lat="43.0456921" lon="11.455047"><ele>507.0</ele><time>2026-04-04T11:29:52.154Z</time></trkpt><trkpt lat="43.0456165" lon="11.4550903"><ele>507.0</ele><time>2026-04-04T11:29:53.154Z</time></trkpt><trkpt lat="43.0455623" lon="11.4551602"><ele>507.0</ele><time>2026-04-04T11:29:54.154Z</time></trkpt><trkpt lat="43.0455126" lon="11.4552253"><ele>506.8</ele><time>2026-04-04T11:29:55.154Z</time></trkpt><trkpt lat="43.0454374" lon="11.4553922"><ele>506.6</ele><time>2026-04-04T11:29:57.153Z</time></trkpt><trkpt lat="43.0454059" lon="11.4555024"><ele>506.40000000000003</ele><time>2026-04-04T11:29:58.155Z</time></trkpt><trkpt lat="43.0453605" lon="11.4555857"><ele>506.20000000000005</ele><time>2026-04-04T11:29:59.153Z</time></trkpt><trkpt lat="43.0453123" lon="11.4556716"><ele>506.0</ele><time>2026-04-04T11:30:00.154Z</time></trkpt><trkpt lat="43.0452575" lon="11.4557676"><ele>505.6</ele><time>2026-04-04T11:30:01.155Z</time></trkpt><trkpt lat="43.045204" lon="11.4558621"><ele>505.20000000000005</ele><time>2026-04-04T11:30:02.154Z</time></trkpt><trkpt lat="43.0451545" lon="11.4559715"><ele>504.79999999999995</ele><time>2026-04-04T11:30:03.153Z</time></trkpt><trkpt lat="43.0450979" lon="11.4560837"><ele>504.4</ele><time>2026-04-04T11:30:04.153Z</time></trkpt><trkpt lat="43.0450396" lon="11.4561921"><ele>504.0</ele><time>2026-04-04T11:30:05.155Z</time></trkpt><trkpt lat="43.044989" lon="11.4562865"><ele>503.6666666666667</ele><time>2026-04-04T11:30:06.155Z</time></trkpt><trkpt lat="43.0449298" lon="11.4563916"><ele>503.33333333333337</ele><time>2026-04-04T11:30:07.154Z</time></trkpt><trkpt lat="43.0448785" lon="11.4564925"><ele>503.0</ele><time>2026-04-04T11:30:08.153Z</time></trkpt><trkpt lat="43.0448471" lon="11.456598"><ele>502.6666666666667</ele><time>2026-04-04T11:30:09.155Z</time></trkpt><trkpt lat="43.044823" lon="11.4567099"><ele>502.33333333333337</ele><time>2026-04-04T11:30:10.154Z</time></trkpt><trkpt lat="43.0448076" lon="11.4568305"><ele>502.0</ele><time>2026-04-04T11:30:11.154Z</time></trkpt><trkpt lat="43.0447962" lon="11.4569503"><ele>502.00000000000006</ele><time>2026-04-04T11:30:12.155Z</time></trkpt><trkpt lat="43.0447778" lon="11.4570619"><ele>502.0</ele><time>2026-04-04T11:30:13.154Z</time></trkpt><trkpt lat="43.0447397" lon="11.4571717"><ele>502.0</ele><time>2026-04-04T11:30:14.155Z</time></trkpt><trkpt lat="43.0447101" lon="11.457274"><ele>502.0</ele><time>2026-04-04T11:30:15.155Z</time></trkpt><trkpt lat="43.044675" lon="11.4573513"><ele>502.00000000000006</ele><time>2026-04-04T11:30:16.154Z</time></trkpt><trkpt lat="43.0446157" lon="11.4574201"><ele>502.0</ele><time>2026-04-04T11:30:17.155Z</time></trkpt><trkpt lat="43.0445428" lon="11.4574856"><ele>503.33333333333337</ele><time>2026-04-04T11:30:18.153Z</time></trkpt><trkpt lat="43.0444826" lon="11.4575445"><ele>504.6666666666667</ele><time>2026-04-04T11:30:19.155Z</time></trkpt><trkpt lat="43.044413" lon="11.4576015"><ele>506.0</ele><time>2026-04-04T11:30:20.154Z</time></trkpt><trkpt lat="43.0443418" lon="11.4576587"><ele>507.33333333333337</ele><time>2026-04-04T11:30:21.154Z</time></trkpt><trkpt lat="43.0442758" lon="11.4577188"><ele>508.6666666666667</ele><time>2026-04-04T11:30:22.154Z</time></trkpt><trkpt lat="43.0442182" lon="11.457795"><ele>510.0</ele><time>2026-04-04T11:30:23.154Z</time></trkpt><trkpt lat="43.0441553" lon="11.457872"><ele>509.4</ele><time>2026-04-04T11:30:24.153Z</time></trkpt><trkpt lat="43.0440952" lon="11.4579639"><ele>508.8</ele><time>2026-04-04T11:30:25.153Z</time></trkpt><trkpt lat="43.0440326" lon="11.4580614"><ele>508.20000000000005</ele><time>2026-04-04T11:30:26.154Z</time></trkpt><trkpt lat="43.0439805" lon="11.458171"><ele>507.6</ele><time>2026-04-04T11:30:27.155Z</time></trkpt><trkpt lat="43.0439112" lon="11.4582721"><ele>507.0</ele><time>2026-04-04T11:30:28.154Z</time></trkpt><trkpt lat="43.0438374" lon="11.458374"><ele>507.0</ele><time>2026-04-04T11:30:29.155Z</time></trkpt><trkpt lat="43.0437731" lon="11.4584754"><ele>507.00000000000006</ele><time>2026-04-04T11:30:30.154Z</time></trkpt><trkpt lat="43.0437159" lon="11.4585802"><ele>507.00000000000006</ele><time>2026-04-04T11:30:31.155Z</time></trkpt><trkpt lat="43.0436538" lon="11.458679"><ele>507.0</ele><time>2026-04-04T11:30:32.153Z</time></trkpt><trkpt lat="43.0435854" lon="11.4587764"><ele>507.0</ele><time>2026-04-04T11:30:33.154Z</time></trkpt><trkpt lat="43.0435204" lon="11.4588683"><ele>507.0</ele><time>2026-04-04T11:30:34.153Z</time></trkpt><trkpt lat="43.0434485" lon="11.458957"><ele>507.00000000000006</ele><time>2026-04-04T11:30:35.154Z</time></trkpt><trkpt lat="43.0433627" lon="11.4590255"><ele>507.00000000000006</ele><time>2026-04-04T11:30:36.154Z</time></trkpt><trkpt lat="43.0432894" lon="11.459082"><ele>507.0</ele><time>2026-04-04T11:30:37.154Z</time></trkpt><trkpt lat="43.0432094" lon="11.4591349"><ele>507.0</ele><time>2026-04-04T11:30:38.153Z</time></trkpt><trkpt lat="43.043138" lon="11.4592011"><ele>507.0</ele><time>2026-04-04T11:30:39.152Z</time></trkpt><trkpt lat="43.043067" lon="11.4592587"><ele>507.0</ele><time>2026-04-04T11:30:40.154Z</time></trkpt><trkpt lat="43.0430025" lon="11.4593137"><ele>507.0</ele><time>2026-04-04T11:30:41.155Z</time></trkpt><trkpt lat="43.0429466" lon="11.459393"><ele>507.0</ele><time>2026-04-04T11:30:42.154Z</time></trkpt><trkpt lat="43.0428934" lon="11.4594778"><ele>507.0</ele><time>2026-04-04T11:30:43.154Z</time></trkpt><trkpt lat="43.0428379" lon="11.4595721"><ele>507.0</ele><time>2026-04-04T11:30:44.153Z</time></trkpt><trkpt lat="43.0428009" lon="11.459687"><ele>507.6666666666667</ele><time>2026-04-04T11:30:45.155Z</time></trkpt><trkpt lat="43.0427716" lon="11.4598035"><ele>508.33333333333337</ele><time>2026-04-04T11:30:46.153Z</time></trkpt><trkpt lat="43.0427447" lon="11.4599286"><ele>509.0</ele><time>2026-04-04T11:30:47.153Z</time></trkpt><trkpt lat="43.0427281" lon="11.4600503"><ele>509.6666666666667</ele><time>2026-04-04T11:30:48.153Z</time></trkpt><trkpt lat="43.0427249" lon="11.4601579"><ele>510.33333333333337</ele><time>2026-04-04T11:30:49.153Z</time></trkpt><trkpt lat="43.0427455" lon="11.4602732"><ele>511.0</ele><time>2026-04-04T11:30:50.155Z</time></trkpt><trkpt lat="43.0427913" lon="11.4603959"><ele>510.8</ele><time>2026-04-04T11:30:51.155Z</time></trkpt><trkpt lat="43.0428367" lon="11.4605096"><ele>510.6</ele><time>2026-04-04T11:30:52.154Z</time></trkpt><trkpt lat="43.0428814" lon="11.4606109"><ele>510.4</ele><time>2026-04-04T11:30:53.154Z</time></trkpt><trkpt lat="43.0429359" lon="11.4607263"><ele>510.2</ele><time>2026-04-04T11:30:54.155Z</time></trkpt><trkpt lat="43.0429803" lon="11.4608292"><ele>510.0</ele><time>2026-04-04T11:30:55.153Z</time></trkpt><trkpt lat="43.0430223" lon="11.460933"><ele>510.0</ele><time>2026-04-04T11:30:56.154Z</time></trkpt><trkpt lat="43.0430632" lon="11.4610431"><ele>510.0</ele><time>2026-04-04T11:30:57.153Z</time></trkpt><trkpt lat="43.0431091" lon="11.4611556"><ele>510.0</ele><time>2026-04-04T11:30:58.153Z</time></trkpt><trkpt lat="43.0431551" lon="11.4612777"><ele>510.0</ele><time>2026-04-04T11:30:59.153Z</time></trkpt><trkpt lat="43.0432014" lon="11.4613858"><ele>510.0</ele><time>2026-04-04T11:31:00.154Z</time></trkpt><trkpt lat="43.0432574" lon="11.4614992"><ele>508.2</ele><time>2026-04-04T11:31:01.153Z</time></trkpt><trkpt lat="43.0433053" lon="11.4616196"><ele>506.4</ele><time>2026-04-04T11:31:02.155Z</time></trkpt><trkpt lat="43.0433655" lon="11.4617336"><ele>504.6</ele><time>2026-04-04T11:31:03.155Z</time></trkpt><trkpt lat="43.0434108" lon="11.4618621"><ele>502.8</ele><time>2026-04-04T11:31:04.152Z</time></trkpt><trkpt lat="43.043456" lon="11.4619762"><ele>501.0</ele><time>2026-04-04T11:31:05.154Z</time></trkpt><trkpt lat="43.0435139" lon="11.4621154"><ele>501.0</ele><time>2026-04-04T11:31:06.153Z</time></trkpt><trkpt lat="43.0435596" lon="11.462255"><ele>501.0</ele><time>2026-04-04T11:31:07.153Z</time></trkpt><trkpt lat="43.0436013" lon="11.462376"><ele>501.0</ele><time>2026-04-04T11:31:08.153Z</time></trkpt><trkpt lat="43.0436354" lon="11.4624807"><ele>501.0</ele><time>2026-04-04T11:31:09.155Z</time></trkpt><trkpt lat="43.0436423" lon="11.4625827"><ele>501.0</ele><time>2026-04-04T11:31:10.154Z</time></trkpt><trkpt lat="43.0436323" lon="11.4626799"><ele>501.0</ele><time>2026-04-04T11:31:11.154Z</time></trkpt><trkpt lat="43.0436036" lon="11.4627736"><ele>501.0</ele><time>2026-04-04T11:31:12.154Z</time></trkpt><trkpt lat="43.0435548" lon="11.4628603"><ele>501.0</ele><time>2026-04-04T11:31:13.153Z</time></trkpt><trkpt lat="43.0435129" lon="11.4629441"><ele>501.0</ele><time>2026-04-04T11:31:14.152Z</time></trkpt><trkpt lat="43.0434784" lon="11.4630274"><ele>501.0</ele><time>2026-04-04T11:31:15.153Z</time></trkpt><trkpt lat="43.0434307" lon="11.4630919"><ele>501.0</ele><time>2026-04-04T11:31:16.155Z</time></trkpt><trkpt lat="43.0433814" lon="11.4631598"><ele>501.0</ele><time>2026-04-04T11:31:17.154Z</time></trkpt><trkpt lat="43.0433317" lon="11.4632287"><ele>501.0</ele><time>2026-04-04T11:31:18.153Z</time></trkpt><trkpt lat="43.0432893" lon="11.4633144"><ele>500.7142857142857</ele><time>2026-04-04T11:31:19.153Z</time></trkpt><trkpt lat="43.0432486" lon="11.4633998"><ele>500.42857142857144</ele><time>2026-04-04T11:31:20.154Z</time></trkpt><trkpt lat="43.0432161" lon="11.463489"><ele>500.14285714285717</ele><time>2026-04-04T11:31:21.154Z</time></trkpt><trkpt lat="43.04319" lon="11.4635801"><ele>499.8571428571429</ele><time>2026-04-04T11:31:22.154Z</time></trkpt><trkpt lat="43.0431719" lon="11.4636707"><ele>499.57142857142856</ele><time>2026-04-04T11:31:23.153Z</time></trkpt><trkpt lat="43.0431629" lon="11.4637681"><ele>499.28571428571433</ele><time>2026-04-04T11:31:24.153Z</time></trkpt><trkpt lat="43.0431516" lon="11.463868"><ele>499.00000000000006</ele><time>2026-04-04T11:31:25.153Z</time></trkpt><trkpt lat="43.0431373" lon="11.4639739"><ele>499.00000000000006</ele><time>2026-04-04T11:31:26.153Z</time></trkpt><trkpt lat="43.0431236" lon="11.464081"><ele>499.0</ele><time>2026-04-04T11:31:27.152Z</time></trkpt><trkpt lat="43.0431098" lon="11.4641844"><ele>499.00000000000006</ele><time>2026-04-04T11:31:28.154Z</time></trkpt><trkpt lat="43.0430995" lon="11.4642779"><ele>499.00000000000006</ele><time>2026-04-04T11:31:29.153Z</time></trkpt><trkpt lat="43.0430784" lon="11.4643753"><ele>499.0</ele><time>2026-04-04T11:31:30.155Z</time></trkpt><trkpt lat="43.0430653" lon="11.4644702"><ele>499.00000000000006</ele><time>2026-04-04T11:31:31.154Z</time></trkpt><trkpt lat="43.0430459" lon="11.464559"><ele>499.00000000000006</ele><time>2026-04-04T11:31:32.154Z</time></trkpt><trkpt lat="43.0430167" lon="11.4647361"><ele>499.6666666666667</ele><time>2026-04-04T11:31:34.155Z</time></trkpt><trkpt lat="43.0429915" lon="11.464825"><ele>500.33333333333337</ele><time>2026-04-04T11:31:35.154Z</time></trkpt><trkpt lat="43.0429631" lon="11.4649256"><ele>501.0</ele><time>2026-04-04T11:31:36.154Z</time></trkpt><trkpt lat="43.0429009" lon="11.4650938"><ele>501.66666666666663</ele><time>2026-04-04T11:31:38.154Z</time></trkpt><trkpt lat="43.0428562" lon="11.4651711"><ele>502.3333333333333</ele><time>2026-04-04T11:31:39.154Z</time></trkpt><trkpt lat="43.0428125" lon="11.4652639"><ele>503.0</ele><time>2026-04-04T11:31:40.154Z</time></trkpt><trkpt lat="43.0427728" lon="11.465353"><ele>502.8333333333333</ele><time>2026-04-04T11:31:41.152Z</time></trkpt><trkpt lat="43.0427414" lon="11.4654516"><ele>502.66666666666663</ele><time>2026-04-04T11:31:42.155Z</time></trkpt><trkpt lat="43.0427179" lon="11.4655608"><ele>502.5</ele><time>2026-04-04T11:31:43.153Z</time></trkpt><trkpt lat="43.0426987" lon="11.4656661"><ele>502.33333333333337</ele><time>2026-04-04T11:31:44.154Z</time></trkpt><trkpt lat="43.0426852" lon="11.4657765"><ele>502.1666666666667</ele><time>2026-04-04T11:31:45.153Z</time></trkpt><trkpt lat="43.0426799" lon="11.4658941"><ele>502.0</ele><time>2026-04-04T11:31:46.153Z</time></trkpt><trkpt lat="43.0426735" lon="11.4660186"><ele>502.00000000000006</ele><time>2026-04-04T11:31:47.154Z</time></trkpt><trkpt lat="43.0426668" lon="11.4661393"><ele>502.0</ele><time>2026-04-04T11:31:48.153Z</time></trkpt><trkpt lat="43.0426623" lon="11.4662643"><ele>502.0</ele><time>2026-04-04T11:31:49.154Z</time></trkpt><trkpt lat="43.042654" lon="11.4663887"><ele>502.0</ele><time>2026-04-04T11:31:50.154Z</time></trkpt><trkpt lat="43.0426564" lon="11.4665121"><ele>502.00000000000006</ele><time>2026-04-04T11:31:51.154Z</time></trkpt><trkpt lat="43.0426503" lon="11.4666236"><ele>502.0</ele><time>2026-04-04T11:31:52.154Z</time></trkpt><trkpt lat="43.0426472" lon="11.4667309"><ele>501.8571428571428</ele><time>2026-04-04T11:31:53.153Z</time></trkpt><trkpt lat="43.0426351" lon="11.4668292"><ele>501.71428571428567</ele><time>2026-04-04T11:31:54.152Z</time></trkpt><trkpt lat="43.042632" lon="11.4669361"><ele>501.57142857142856</ele><time>2026-04-04T11:31:55.154Z</time></trkpt><trkpt lat="43.0426199" lon="11.4670305"><ele>501.4285714285714</ele><time>2026-04-04T11:31:56.154Z</time></trkpt><trkpt lat="43.0425981" lon="11.4671177"><ele>501.2857142857142</ele><time>2026-04-04T11:31:57.152Z</time></trkpt><trkpt lat="43.0425744" lon="11.4672007"><ele>501.14285714285717</ele><time>2026-04-04T11:31:58.154Z</time></trkpt><trkpt lat="43.0425492" lon="11.467282"><ele>501.0</ele><time>2026-04-04T11:31:59.154Z</time></trkpt><trkpt lat="43.0425154" lon="11.4673781"><ele>500.8333333333333</ele><time>2026-04-04T11:32:00.153Z</time></trkpt><trkpt lat="43.0424723" lon="11.467481"><ele>500.66666666666663</ele><time>2026-04-04T11:32:01.153Z</time></trkpt><trkpt lat="43.0424308" lon="11.4675843"><ele>500.5</ele><time>2026-04-04T11:32:02.154Z</time></trkpt><trkpt lat="43.0423895" lon="11.4676895"><ele>500.3333333333333</ele><time>2026-04-04T11:32:03.155Z</time></trkpt><trkpt lat="43.042352" lon="11.4677996"><ele>500.16666666666663</ele><time>2026-04-04T11:32:04.155Z</time></trkpt><trkpt lat="43.0423217" lon="11.4678995"><ele>500.0</ele><time>2026-04-04T11:32:05.153Z</time></trkpt><trkpt lat="43.0422914" lon="11.4679862"><ele>500.8333333333333</ele><time>2026-04-04T11:32:06.153Z</time></trkpt><trkpt lat="43.042268" lon="11.4680845"><ele>501.66666666666663</ele><time>2026-04-04T11:32:07.153Z</time></trkpt><trkpt lat="43.0422505" lon="11.4681814"><ele>502.5</ele><time>2026-04-04T11:32:08.152Z</time></trkpt><trkpt lat="43.0422351" lon="11.4682811"><ele>503.33333333333337</ele><time>2026-04-04T11:32:09.152Z</time></trkpt><trkpt lat="43.0422014" lon="11.4684313"><ele>504.1666666666667</ele><time>2026-04-04T11:32:11.153Z</time></trkpt><trkpt lat="43.0421817" lon="11.4685148"><ele>505.0</ele><time>2026-04-04T11:32:12.153Z</time></trkpt><trkpt lat="43.0421456" lon="11.4686741"><ele>505.0</ele><time>2026-04-04T11:32:14.153Z</time></trkpt><trkpt lat="43.0421304" lon="11.4687742"><ele>504.99999999999994</ele><time>2026-04-04T11:32:15.153Z</time></trkpt><trkpt lat="43.0421057" lon="11.4688671"><ele>505.0</ele><time>2026-04-04T11:32:16.154Z</time></trkpt><trkpt lat="43.0420702" lon="11.4689446"><ele>505.0</ele><time>2026-04-04T11:32:17.154Z</time></trkpt><trkpt lat="43.0420344" lon="11.4690223"><ele>504.99999999999994</ele><time>2026-04-04T11:32:18.153Z</time></trkpt><trkpt lat="43.0419982" lon="11.4691076"><ele>505.0</ele><time>2026-04-04T11:32:19.152Z</time></trkpt><trkpt lat="43.0419386" lon="11.4691793"><ele>505.0</ele><time>2026-04-04T11:32:20.153Z</time></trkpt><trkpt lat="43.0418745" lon="11.4692336"><ele>505.1428571428571</ele><time>2026-04-04T11:32:21.154Z</time></trkpt><trkpt lat="43.041803" lon="11.4692774"><ele>505.2857142857142</ele><time>2026-04-04T11:32:22.154Z</time></trkpt><trkpt lat="43.0417399" lon="11.4693106"><ele>505.42857142857144</ele><time>2026-04-04T11:32:23.154Z</time></trkpt><trkpt lat="43.041677" lon="11.4693403"><ele>505.57142857142856</ele><time>2026-04-04T11:32:24.153Z</time></trkpt><trkpt lat="43.0416141" lon="11.4693672"><ele>505.7142857142857</ele><time>2026-04-04T11:32:25.154Z</time></trkpt><trkpt lat="43.0415489" lon="11.4693982"><ele>505.8571428571429</ele><time>2026-04-04T11:32:26.153Z</time></trkpt><trkpt lat="43.0414887" lon="11.4694386"><ele>506.00000000000006</ele><time>2026-04-04T11:32:27.153Z</time></trkpt><trkpt lat="43.0414266" lon="11.46948"><ele>506.99999999999994</ele><time>2026-04-04T11:32:28.152Z</time></trkpt><trkpt lat="43.0413692" lon="11.4695231"><ele>508.0</ele><time>2026-04-04T11:32:29.154Z</time></trkpt><trkpt lat="43.041257" lon="11.4695865"><ele>509.0</ele><time>2026-04-04T11:32:31.153Z</time></trkpt><trkpt lat="43.0411934" lon="11.469633"><ele>510.0</ele><time>2026-04-04T11:32:32.152Z</time></trkpt><trkpt lat="43.0411342" lon="11.4696862"><ele>510.99999999999994</ele><time>2026-04-04T11:32:33.153Z</time></trkpt><trkpt lat="43.0410719" lon="11.4697429"><ele>512.0</ele><time>2026-04-04T11:32:34.153Z</time></trkpt><trkpt lat="43.0409536" lon="11.4698359"><ele>512.6666666666666</ele><time>2026-04-04T11:32:36.152Z</time></trkpt><trkpt lat="43.0408922" lon="11.4698888"><ele>513.3333333333333</ele><time>2026-04-04T11:32:37.154Z</time></trkpt><trkpt lat="43.0408379" lon="11.4699445"><ele>514.0</ele><time>2026-04-04T11:32:38.153Z</time></trkpt><trkpt lat="43.0407861" lon="11.4700239"><ele>514.6666666666666</ele><time>2026-04-04T11:32:39.154Z</time></trkpt><trkpt lat="43.0407372" lon="11.4700994"><ele>515.3333333333334</ele><time>2026-04-04T11:32:40.155Z</time></trkpt><trkpt lat="43.0406877" lon="11.4701859"><ele>516.0</ele><time>2026-04-04T11:32:41.153Z</time></trkpt><trkpt lat="43.0406332" lon="11.4702628"><ele>516.7142857142857</ele><time>2026-04-04T11:32:42.152Z</time></trkpt><trkpt lat="43.0405889" lon="11.4703491"><ele>517.4285714285714</ele><time>2026-04-04T11:32:43.153Z</time></trkpt><trkpt lat="43.0405365" lon="11.4703985"><ele>518.1428571428571</ele><time>2026-04-04T11:32:44.153Z</time></trkpt><trkpt lat="43.0404852" lon="11.4704733"><ele>518.8571428571429</ele><time>2026-04-04T11:32:45.153Z</time></trkpt><trkpt lat="43.0404311" lon="11.4705351"><ele>519.5714285714286</ele><time>2026-04-04T11:32:46.154Z</time></trkpt><trkpt lat="43.0403746" lon="11.4705885"><ele>520.2857142857142</ele><time>2026-04-04T11:32:47.152Z</time></trkpt><trkpt lat="43.0403089" lon="11.4706357"><ele>521.0</ele><time>2026-04-04T11:32:48.153Z</time></trkpt><trkpt lat="43.0402395" lon="11.4706674"><ele>522.1666666666666</ele><time>2026-04-04T11:32:49.154Z</time></trkpt><trkpt lat="43.0401664" lon="11.4706958"><ele>523.3333333333333</ele><time>2026-04-04T11:32:50.152Z</time></trkpt><trkpt lat="43.0400903" lon="11.4707237"><ele>524.5</ele><time>2026-04-04T11:32:51.154Z</time></trkpt><trkpt lat="43.0400177" lon="11.4707557"><ele>525.6666666666666</ele><time>2026-04-04T11:32:52.154Z</time></trkpt><trkpt lat="43.0399386" lon="11.4708226"><ele>526.8333333333334</ele><time>2026-04-04T11:32:53.152Z</time></trkpt><trkpt lat="43.0398542" lon="11.4708673"><ele>528.0</ele><time>2026-04-04T11:32:54.153Z</time></trkpt><trkpt lat="43.0397806" lon="11.4709314"><ele>528.6666666666666</ele><time>2026-04-04T11:32:55.153Z</time></trkpt><trkpt lat="43.0396976" lon="11.4709784"><ele>529.3333333333334</ele><time>2026-04-04T11:32:56.154Z</time></trkpt><trkpt lat="43.0396259" lon="11.471024"><ele>530.0</ele><time>2026-04-04T11:32:57.153Z</time></trkpt><trkpt lat="43.0395499" lon="11.4710679"><ele>530.6666666666667</ele><time>2026-04-04T11:32:58.152Z</time></trkpt><trkpt lat="43.0394659" lon="11.4711183"><ele>531.3333333333334</ele><time>2026-04-04T11:32:59.154Z</time></trkpt><trkpt lat="43.0393835" lon="11.471165"><ele>532.0</ele><time>2026-04-04T11:33:00.153Z</time></trkpt><trkpt lat="43.0392993" lon="11.4712103"><ele>532.0</ele><time>2026-04-04T11:33:01.152Z</time></trkpt><trkpt lat="43.0392218" lon="11.4712554"><ele>532.0</ele><time>2026-04-04T11:33:02.152Z</time></trkpt><trkpt lat="43.0391415" lon="11.471311"><ele>532.0</ele><time>2026-04-04T11:33:03.153Z</time></trkpt><trkpt lat="43.0390765" lon="11.4713759"><ele>532.0</ele><time>2026-04-04T11:33:04.153Z</time></trkpt><trkpt lat="43.039014" lon="11.4714484"><ele>532.0</ele><time>2026-04-04T11:33:05.152Z</time></trkpt><trkpt lat="43.0389577" lon="11.4715311"><ele>532.0</ele><time>2026-04-04T11:33:06.152Z</time></trkpt><trkpt lat="43.0389003" lon="11.4716161"><ele>532.1666666666667</ele><time>2026-04-04T11:33:07.151Z</time></trkpt><trkpt lat="43.0388385" lon="11.4716983"><ele>532.3333333333334</ele><time>2026-04-04T11:33:08.153Z</time></trkpt><trkpt lat="43.038799" lon="11.4717888"><ele>532.5</ele><time>2026-04-04T11:33:09.154Z</time></trkpt><trkpt lat="43.038758" lon="11.471891"><ele>532.6666666666666</ele><time>2026-04-04T11:33:10.154Z</time></trkpt><trkpt lat="43.0387296" lon="11.4720066"><ele>532.8333333333333</ele><time>2026-04-04T11:33:11.152Z</time></trkpt><trkpt lat="43.0387075" lon="11.47212"><ele>533.0</ele><time>2026-04-04T11:33:12.153Z</time></trkpt><trkpt lat="43.0386954" lon="11.4722286"><ele>535.5</ele><time>2026-04-04T11:33:13.152Z</time></trkpt><trkpt lat="43.0386913" lon="11.4723449"><ele>538.0</ele><time>2026-04-04T11:33:14.153Z</time></trkpt><trkpt lat="43.0386907" lon="11.4724598"><ele>540.5</ele><time>2026-04-04T11:33:15.154Z</time></trkpt><trkpt lat="43.0386995" lon="11.4725659"><ele>543.0</ele><time>2026-04-04T11:33:16.154Z</time></trkpt><trkpt lat="43.0387107" lon="11.472674"><ele>545.5</ele><time>2026-04-04T11:33:17.153Z</time></trkpt><trkpt lat="43.0387294" lon="11.472765"><ele>548.0</ele><time>2026-04-04T11:33:18.152Z</time></trkpt><trkpt lat="43.0387393" lon="11.4728684"><ele>550.0</ele><time>2026-04-04T11:33:19.154Z</time></trkpt><trkpt lat="43.0387432" lon="11.4729666"><ele>552.0</ele><time>2026-04-04T11:33:20.153Z</time></trkpt><trkpt lat="43.0387529" lon="11.4730681"><ele>554.0</ele><time>2026-04-04T11:33:21.153Z</time></trkpt><trkpt lat="43.0387587" lon="11.4731754"><ele>556.0</ele><time>2026-04-04T11:33:22.153Z</time></trkpt><trkpt lat="43.0387556" lon="11.4732826"><ele>558.0</ele><time>2026-04-04T11:33:23.153Z</time></trkpt><trkpt lat="43.0387393" lon="11.4733957"><ele>560.0</ele><time>2026-04-04T11:33:24.153Z</time></trkpt><trkpt lat="43.0387119" lon="11.4735049"><ele>560.0</ele><time>2026-04-04T11:33:25.154Z</time></trkpt><trkpt lat="43.0386665" lon="11.4736162"><ele>560.0</ele><time>2026-04-04T11:33:26.154Z</time></trkpt><trkpt lat="43.0386058" lon="11.4737083"><ele>560.0</ele><time>2026-04-04T11:33:27.151Z</time></trkpt><trkpt lat="43.038543" lon="11.4737837"><ele>560.0</ele><time>2026-04-04T11:33:28.152Z</time></trkpt><trkpt lat="43.0384638" lon="11.4738419"><ele>560.0</ele><time>2026-04-04T11:33:29.153Z</time></trkpt><trkpt lat="43.0383884" lon="11.4738829"><ele>560.0</ele><time>2026-04-04T11:33:30.153Z</time></trkpt><trkpt lat="43.0383024" lon="11.4739253"><ele>561.8</ele><time>2026-04-04T11:33:31.153Z</time></trkpt><trkpt lat="43.0382099" lon="11.4739803"><ele>563.6</ele><time>2026-04-04T11:33:32.152Z</time></trkpt><trkpt lat="43.038104" lon="11.4740466"><ele>565.4</ele><time>2026-04-04T11:33:33.154Z</time></trkpt><trkpt lat="43.0380017" lon="11.4741049"><ele>567.2</ele><time>2026-04-04T11:33:34.153Z</time></trkpt><trkpt lat="43.0378998" lon="11.4741645"><ele>569.0</ele><time>2026-04-04T11:33:35.153Z</time></trkpt><trkpt lat="43.0378219" lon="11.4742534"><ele>569.0</ele><time>2026-04-04T11:33:36.153Z</time></trkpt><trkpt lat="43.0377612" lon="11.4743599"><ele>569.0</ele><time>2026-04-04T11:33:37.152Z</time></trkpt><trkpt lat="43.0377255" lon="11.4744678"><ele>569.0</ele><time>2026-04-04T11:33:38.153Z</time></trkpt><trkpt lat="43.0377127" lon="11.4746036"><ele>569.0</ele><time>2026-04-04T11:33:39.152Z</time></trkpt><trkpt lat="43.0377125" lon="11.4747449"><ele>569.0</ele><time>2026-04-04T11:33:40.152Z</time></trkpt><trkpt lat="43.037719" lon="11.4748896"><ele>571.4</ele><time>2026-04-04T11:33:41.152Z</time></trkpt><trkpt lat="43.0377205" lon="11.4750153"><ele>573.8</ele><time>2026-04-04T11:33:42.152Z</time></trkpt><trkpt lat="43.0377306" lon="11.4751721"><ele>576.2</ele><time>2026-04-04T11:33:43.153Z</time></trkpt><trkpt lat="43.0377334" lon="11.4753214"><ele>578.6</ele><time>2026-04-04T11:33:44.153Z</time></trkpt><trkpt lat="43.0377425" lon="11.475483"><ele>581.0</ele><time>2026-04-04T11:33:45.152Z</time></trkpt><trkpt lat="43.037746" lon="11.4756488"><ele>583.0</ele><time>2026-04-04T11:33:46.153Z</time></trkpt><trkpt lat="43.0377499" lon="11.4758169"><ele>585.0</ele><time>2026-04-04T11:33:47.153Z</time></trkpt><trkpt lat="43.037754" lon="11.4760015"><ele>587.0</ele><time>2026-04-04T11:33:48.153Z</time></trkpt><trkpt lat="43.0377622" lon="11.4761886"><ele>589.0</ele><time>2026-04-04T11:33:49.153Z</time></trkpt><trkpt lat="43.0377768" lon="11.4763554"><ele>589.75</ele><time>2026-04-04T11:33:50.153Z</time></trkpt><trkpt lat="43.0377812" lon="11.4765351"><ele>590.5</ele><time>2026-04-04T11:33:51.153Z</time></trkpt><trkpt lat="43.0377822" lon="11.476728"><ele>591.25</ele><time>2026-04-04T11:33:52.153Z</time></trkpt><trkpt lat="43.0377921" lon="11.4769068"><ele>592.0</ele><time>2026-04-04T11:33:53.154Z</time></trkpt><trkpt lat="43.0377956" lon="11.4770856"><ele>593.5</ele><time>2026-04-04T11:33:54.152Z</time></trkpt><trkpt lat="43.0377848" lon="11.4772682"><ele>595.0</ele><time>2026-04-04T11:33:55.153Z</time></trkpt><trkpt lat="43.0377708" lon="11.4774563"><ele>596.5</ele><time>2026-04-04T11:33:56.152Z</time></trkpt><trkpt lat="43.0377563" lon="11.4776437"><ele>598.0</ele><time>2026-04-04T11:33:57.154Z</time></trkpt><trkpt lat="43.0377281" lon="11.477833"><ele>598.0</ele><time>2026-04-04T11:33:58.152Z</time></trkpt><trkpt lat="43.0376892" lon="11.478012"><ele>598.0</ele><time>2026-04-04T11:33:59.154Z</time></trkpt><trkpt lat="43.0376533" lon="11.478195"><ele>598.0</ele><time>2026-04-04T11:34:00.154Z</time></trkpt><trkpt lat="43.0376074" lon="11.4783636"><ele>598.0</ele><time>2026-04-04T11:34:01.152Z</time></trkpt><trkpt lat="43.0375401" lon="11.4785323"><ele>598.0</ele><time>2026-04-04T11:34:02.154Z</time></trkpt><trkpt lat="43.0374727" lon="11.4786733"><ele>598.0</ele><time>2026-04-04T11:34:03.153Z</time></trkpt><trkpt lat="43.0373906" lon="11.478804"><ele>598.0</ele><time>2026-04-04T11:34:04.152Z</time></trkpt><trkpt lat="43.0372987" lon="11.4789467"><ele>598.0</ele><time>2026-04-04T11:34:05.153Z</time></trkpt><trkpt lat="43.0372092" lon="11.4790805"><ele>598.1999999999999</ele><time>2026-04-04T11:34:06.154Z</time></trkpt><trkpt lat="43.0371303" lon="11.4791996"><ele>598.4</ele><time>2026-04-04T11:34:07.151Z</time></trkpt><trkpt lat="43.0370613" lon="11.4793045"><ele>598.5999999999999</ele><time>2026-04-04T11:34:08.153Z</time></trkpt><trkpt lat="43.037013" lon="11.4794062"><ele>598.8</ele><time>2026-04-04T11:34:09.152Z</time></trkpt><trkpt lat="43.0369645" lon="11.4794925"><ele>599.0</ele><time>2026-04-04T11:34:10.153Z</time></trkpt><trkpt lat="43.0368997" lon="11.4796043"><ele>599.4</ele><time>2026-04-04T11:34:12.154Z</time></trkpt><trkpt lat="43.0368633" lon="11.4796801"><ele>599.8</ele><time>2026-04-04T11:34:14.153Z</time></trkpt><trkpt lat="43.0368664" lon="11.479787"><ele>600.2</ele><time>2026-04-04T11:34:17.153Z</time></trkpt><trkpt lat="43.0369729" lon="11.47989"><ele>600.6</ele><time>2026-04-04T11:34:19.154Z</time></trkpt><trkpt lat="43.0370634" lon="11.4799557"><ele>601.0</ele><time>2026-04-04T11:34:20.152Z</time></trkpt><trkpt lat="43.0371547" lon="11.4800385"><ele>601.0</ele><time>2026-04-04T11:34:21.152Z</time></trkpt><trkpt lat="43.03726" lon="11.4801171"><ele>601.0</ele><time>2026-04-04T11:34:22.152Z</time></trkpt><trkpt lat="43.0373734" lon="11.4802086"><ele>601.0</ele><time>2026-04-04T11:34:23.154Z</time></trkpt><trkpt lat="43.0374849" lon="11.4803184"><ele>601.0</ele><time>2026-04-04T11:34:24.151Z</time></trkpt><trkpt lat="43.0375975" lon="11.4804248"><ele>598.75</ele><time>2026-04-04T11:34:25.153Z</time></trkpt><trkpt lat="43.0377144" lon="11.4805192"><ele>596.5</ele><time>2026-04-04T11:34:26.153Z</time></trkpt><trkpt lat="43.0378265" lon="11.4806176"><ele>594.25</ele><time>2026-04-04T11:34:27.152Z</time></trkpt><trkpt lat="43.037937" lon="11.4807126"><ele>592.0</ele><time>2026-04-04T11:34:28.153Z</time></trkpt><trkpt lat="43.0380466" lon="11.4808063"><ele>592.0</ele><time>2026-04-04T11:34:29.152Z</time></trkpt><trkpt lat="43.0381569" lon="11.4808889"><ele>592.0</ele><time>2026-04-04T11:34:30.152Z</time></trkpt><trkpt lat="43.0382626" lon="11.4809677"><ele>592.0</ele><time>2026-04-04T11:34:31.152Z</time></trkpt><trkpt lat="43.038355" lon="11.4810524"><ele>592.0</ele><time>2026-04-04T11:34:32.152Z</time></trkpt><trkpt lat="43.0384592" lon="11.4811446"><ele>591.5</ele><time>2026-04-04T11:34:33.152Z</time></trkpt><trkpt lat="43.0385646" lon="11.4812384"><ele>591.0</ele><time>2026-04-04T11:34:34.153Z</time></trkpt><trkpt lat="43.0386621" lon="11.4813242"><ele>590.5</ele><time>2026-04-04T11:34:35.153Z</time></trkpt><trkpt lat="43.0387639" lon="11.4814041"><ele>590.0</ele><time>2026-04-04T11:34:36.153Z</time></trkpt><trkpt lat="43.0388586" lon="11.4814948"><ele>589.75</ele><time>2026-04-04T11:34:37.152Z</time></trkpt><trkpt lat="43.038959" lon="11.4815845"><ele>589.5</ele><time>2026-04-04T11:34:38.151Z</time></trkpt><trkpt lat="43.039052" lon="11.4816764"><ele>589.25</ele><time>2026-04-04T11:34:39.152Z</time></trkpt><trkpt lat="43.0391419" lon="11.481764"><ele>589.0</ele><time>2026-04-04T11:34:40.151Z</time></trkpt><trkpt lat="43.0392345" lon="11.4818492"><ele>590.4</ele><time>2026-04-04T11:34:41.152Z</time></trkpt><trkpt lat="43.0393311" lon="11.4819304"><ele>591.8</ele><time>2026-04-04T11:34:42.154Z</time></trkpt><trkpt lat="43.0394142" lon="11.48202"><ele>593.2</ele><time>2026-04-04T11:34:43.152Z</time></trkpt><trkpt lat="43.0395044" lon="11.4820898"><ele>594.6</ele><time>2026-04-04T11:34:44.154Z</time></trkpt><trkpt lat="43.0396042" lon="11.482172"><ele>596.0</ele><time>2026-04-04T11:34:45.153Z</time></trkpt><trkpt lat="43.0397039" lon="11.4822465"><ele>598.25</ele><time>2026-04-04T11:34:46.154Z</time></trkpt><trkpt lat="43.0397975" lon="11.4823327"><ele>600.5</ele><time>2026-04-04T11:34:47.152Z</time></trkpt><trkpt lat="43.039896" lon="11.4824201"><ele>602.75</ele><time>2026-04-04T11:34:48.152Z</time></trkpt><trkpt lat="43.0399942" lon="11.4825111"><ele>605.0</ele><time>2026-04-04T11:34:49.152Z</time></trkpt><trkpt lat="43.0401027" lon="11.4825868"><ele>606.25</ele><time>2026-04-04T11:34:50.153Z</time></trkpt><trkpt lat="43.0402049" lon="11.4826723"><ele>607.5</ele><time>2026-04-04T11:34:51.152Z</time></trkpt><trkpt lat="43.0403196" lon="11.4827459"><ele>608.75</ele><time>2026-04-04T11:34:52.151Z</time></trkpt><trkpt lat="43.0404461" lon="11.4828174"><ele>610.0</ele><time>2026-04-04T11:34:53.153Z</time></trkpt><trkpt lat="43.0405708" lon="11.4828771"><ele>610.0</ele><time>2026-04-04T11:34:54.152Z</time></trkpt><trkpt lat="43.0407115" lon="11.4829024"><ele>610.0</ele><time>2026-04-04T11:34:55.153Z</time></trkpt><trkpt lat="43.0408482" lon="11.4829449"><ele>610.0</ele><time>2026-04-04T11:34:56.151Z</time></trkpt><trkpt lat="43.0409902" lon="11.4829952"><ele>610.0</ele><time>2026-04-04T11:34:57.152Z</time></trkpt><trkpt lat="43.0411385" lon="11.4830449"><ele>610.5</ele><time>2026-04-04T11:34:58.153Z</time></trkpt><trkpt lat="43.0412826" lon="11.4830585"><ele>611.0</ele><time>2026-04-04T11:34:59.153Z</time></trkpt><trkpt lat="43.0414271" lon="11.4831013"><ele>611.5</ele><time>2026-04-04T11:35:00.151Z</time></trkpt><trkpt lat="43.041579" lon="11.4831449"><ele>612.0</ele><time>2026-04-04T11:35:01.152Z</time></trkpt><trkpt lat="43.0417299" lon="11.4831951"><ele>612.0</ele><time>2026-04-04T11:35:02.152Z</time></trkpt><trkpt lat="43.0418885" lon="11.483248"><ele>612.0</ele><time>2026-04-04T11:35:03.151Z</time></trkpt><trkpt lat="43.0420522" lon="11.4833141"><ele>612.0</ele><time>2026-04-04T11:35:04.152Z</time></trkpt><trkpt lat="43.042213" lon="11.4833631"><ele>612.0</ele><time>2026-04-04T11:35:05.152Z</time></trkpt><trkpt lat="43.0423807" lon="11.483403"><ele>612.0</ele><time>2026-04-04T11:35:06.151Z</time></trkpt><trkpt lat="43.0425463" lon="11.4834523"><ele>612.0</ele><time>2026-04-04T11:35:07.153Z</time></trkpt><trkpt lat="43.0427119" lon="11.4835056"><ele>612.3333333333334</ele><time>2026-04-04T11:35:08.152Z</time></trkpt><trkpt lat="43.0428723" lon="11.4835477"><ele>612.6666666666667</ele><time>2026-04-04T11:35:09.153Z</time></trkpt><trkpt lat="43.0430224" lon="11.4835937"><ele>613.0</ele><time>2026-04-04T11:35:10.152Z</time></trkpt><trkpt lat="43.0431664" lon="11.4836384"><ele>613.6666666666667</ele><time>2026-04-04T11:35:11.153Z</time></trkpt><trkpt lat="43.0433018" lon="11.4836816"><ele>614.3333333333334</ele><time>2026-04-04T11:35:12.153Z</time></trkpt><trkpt lat="43.043451" lon="11.4837353"><ele>615.0</ele><time>2026-04-04T11:35:13.153Z</time></trkpt><trkpt lat="43.0435998" lon="11.4838036"><ele>613.6666666666666</ele><time>2026-04-04T11:35:14.152Z</time></trkpt><trkpt lat="43.0437409" lon="11.4838903"><ele>612.3333333333333</ele><time>2026-04-04T11:35:15.153Z</time></trkpt><trkpt lat="43.0438649" lon="11.4840127"><ele>611.0</ele><time>2026-04-04T11:35:16.153Z</time></trkpt><trkpt lat="43.0439899" lon="11.4841338"><ele>611.0</ele><time>2026-04-04T11:35:17.152Z</time></trkpt><trkpt lat="43.0441105" lon="11.4842543"><ele>611.0</ele><time>2026-04-04T11:35:18.153Z</time></trkpt><trkpt lat="43.0442242" lon="11.4843674"><ele>611.0</ele><time>2026-04-04T11:35:19.154Z</time></trkpt><trkpt lat="43.0443141" lon="11.4844836"><ele>611.0</ele><time>2026-04-04T11:35:20.152Z</time></trkpt><trkpt lat="43.0444018" lon="11.4845931"><ele>611.2</ele><time>2026-04-04T11:35:21.152Z</time></trkpt><trkpt lat="43.0444697" lon="11.4847107"><ele>611.4000000000001</ele><time>2026-04-04T11:35:22.152Z</time></trkpt><trkpt lat="43.0445252" lon="11.4848392"><ele>611.6</ele><time>2026-04-04T11:35:23.152Z</time></trkpt><trkpt lat="43.0445661" lon="11.4849683"><ele>611.8000000000001</ele><time>2026-04-04T11:35:24.152Z</time></trkpt><trkpt lat="43.0446058" lon="11.4851036"><ele>612.0</ele><time>2026-04-04T11:35:25.151Z</time></trkpt><trkpt lat="43.0446425" lon="11.4852395"><ele>612.0</ele><time>2026-04-04T11:35:26.152Z</time></trkpt><trkpt lat="43.0447008" lon="11.4853789"><ele>612.0</ele><time>2026-04-04T11:35:27.153Z</time></trkpt><trkpt lat="43.0447437" lon="11.4855281"><ele>612.0</ele><time>2026-04-04T11:35:28.152Z</time></trkpt><trkpt lat="43.0447898" lon="11.4856688"><ele>612.0</ele><time>2026-04-04T11:35:29.152Z</time></trkpt><trkpt lat="43.0448305" lon="11.4858249"><ele>612.5</ele><time>2026-04-04T11:35:30.151Z</time></trkpt><trkpt lat="43.0448797" lon="11.4859877"><ele>613.0</ele><time>2026-04-04T11:35:31.153Z</time></trkpt><trkpt lat="43.0449187" lon="11.4861491"><ele>613.5</ele><time>2026-04-04T11:35:32.152Z</time></trkpt><trkpt lat="43.044959" lon="11.4863043"><ele>614.0</ele><time>2026-04-04T11:35:33.152Z</time></trkpt><trkpt lat="43.0449992" lon="11.4864471"><ele>614.2</ele><time>2026-04-04T11:35:34.152Z</time></trkpt><trkpt lat="43.0450417" lon="11.486571"><ele>614.4</ele><time>2026-04-04T11:35:35.153Z</time></trkpt><trkpt lat="43.0450776" lon="11.4866938"><ele>614.6</ele><time>2026-04-04T11:35:36.153Z</time></trkpt><trkpt lat="43.0451313" lon="11.4867994"><ele>614.8</ele><time>2026-04-04T11:35:37.152Z</time></trkpt><trkpt lat="43.0452005" lon="11.4868963"><ele>615.0</ele><time>2026-04-04T11:35:38.151Z</time></trkpt><trkpt lat="43.0452822" lon="11.4869708"><ele>615.0</ele><time>2026-04-04T11:35:39.152Z</time></trkpt><trkpt lat="43.0453782" lon="11.4870181"><ele>615.0</ele><time>2026-04-04T11:35:40.152Z</time></trkpt><trkpt lat="43.0454838" lon="11.4870409"><ele>615.0</ele><time>2026-04-04T11:35:41.152Z</time></trkpt><trkpt lat="43.0455816" lon="11.4870555"><ele>615.0</ele><time>2026-04-04T11:35:42.152Z</time></trkpt><trkpt lat="43.0456841" lon="11.4870735"><ele>615.0</ele><time>2026-04-04T11:35:43.151Z</time></trkpt><trkpt lat="43.0457837" lon="11.4870939"><ele>614.6</ele><time>2026-04-04T11:35:44.151Z</time></trkpt><trkpt lat="43.0458785" lon="11.4871387"><ele>614.2</ele><time>2026-04-04T11:35:45.152Z</time></trkpt><trkpt lat="43.0459649" lon="11.4872175"><ele>613.8</ele><time>2026-04-04T11:35:46.152Z</time></trkpt><trkpt lat="43.0460313" lon="11.4873117"><ele>613.4</ele><time>2026-04-04T11:35:47.153Z</time></trkpt><trkpt lat="43.0461011" lon="11.4874177"><ele>613.0</ele><time>2026-04-04T11:35:48.152Z</time></trkpt><trkpt lat="43.0461583" lon="11.4875356"><ele>613.0</ele><time>2026-04-04T11:35:49.153Z</time></trkpt><trkpt lat="43.0462096" lon="11.4876649"><ele>613.0</ele><time>2026-04-04T11:35:50.152Z</time></trkpt><trkpt lat="43.0462464" lon="11.4877938"><ele>613.0</ele><time>2026-04-04T11:35:51.153Z</time></trkpt><trkpt lat="43.0462592" lon="11.487921"><ele>613.0</ele><time>2026-04-04T11:35:52.152Z</time></trkpt><trkpt lat="43.0462725" lon="11.488039"><ele>613.0</ele><time>2026-04-04T11:35:53.153Z</time></trkpt><trkpt lat="43.046288" lon="11.4881563"><ele>602.0</ele><time>2026-04-04T11:35:54.152Z</time></trkpt><trkpt lat="43.0463101" lon="11.4882701"><ele>602.0</ele><time>2026-04-04T11:35:55.151Z</time></trkpt><trkpt lat="43.0463528" lon="11.4884384"><ele>602.0</ele><time>2026-04-04T11:35:57.151Z</time></trkpt><trkpt lat="43.0463613" lon="11.4885708"><ele>602.0</ele><time>2026-04-04T11:35:59.152Z</time></trkpt></trkseg><trkseg><trkpt lat="43.0599206" lon="11.4867159"><ele>554.0</ele><time>2026-04-04T13:33:11.109Z</time></trkpt><trkpt lat="43.0600225" lon="11.4866574"><ele>554.0</ele><time>2026-04-04T13:37:10.106Z</time></trkpt><trkpt lat="43.0599893" lon="11.4865583"><ele>554.0</ele><time>2026-04-04T13:37:18.106Z</time></trkpt><trkpt lat="43.0599264" lon="11.4865165"><ele>554.0</ele><time>2026-04-04T13:37:21.105Z</time></trkpt><trkpt lat="43.0598558" lon="11.486454"><ele>554.0</ele><time>2026-04-04T13:37:23.106Z</time></trkpt><trkpt lat="43.0597386" lon="11.486385"><ele>554.0</ele><time>2026-04-04T13:37:25.107Z</time></trkpt><trkpt lat="43.0596564" lon="11.4863502"><ele>554.0</ele><time>2026-04-04T13:37:26.106Z</time></trkpt><trkpt lat="43.0595788" lon="11.4863215"><ele>554.0</ele><time>2026-04-04T13:37:27.106Z</time></trkpt><trkpt lat="43.0595001" lon="11.486284"><ele>554.0</ele><time>2026-04-04T13:37:28.107Z</time></trkpt><trkpt lat="43.059418" lon="11.4862483"><ele>554.0</ele><time>2026-04-04T13:37:29.106Z</time></trkpt><trkpt lat="43.0593461" lon="11.4862135"><ele>554.0</ele><time>2026-04-04T13:37:30.106Z</time></trkpt><trkpt lat="43.0592578" lon="11.4861832"><ele>551.3333333333333</ele><time>2026-04-04T13:37:31.106Z</time></trkpt><trkpt lat="43.0591753" lon="11.4861517"><ele>548.6666666666666</ele><time>2026-04-04T13:37:32.106Z</time></trkpt><trkpt lat="43.0590919" lon="11.4861256"><ele>546.0</ele><time>2026-04-04T13:37:33.105Z</time></trkpt><trkpt lat="43.0590079" lon="11.4860977"><ele>543.3333333333334</ele><time>2026-04-04T13:37:34.106Z</time></trkpt><trkpt lat="43.0589256" lon="11.4860961"><ele>540.6666666666667</ele><time>2026-04-04T13:37:35.108Z</time></trkpt><trkpt lat="43.0588447" lon="11.4860949"><ele>538.0</ele><time>2026-04-04T13:37:36.107Z</time></trkpt><trkpt lat="43.058761" lon="11.4861082"><ele>539.6666666666667</ele><time>2026-04-04T13:37:37.106Z</time></trkpt><trkpt lat="43.058679" lon="11.4861324"><ele>541.3333333333334</ele><time>2026-04-04T13:37:38.106Z</time></trkpt><trkpt lat="43.0585977" lon="11.486167"><ele>543.0</ele><time>2026-04-04T13:37:39.106Z</time></trkpt><trkpt lat="43.0585259" lon="11.4862416"><ele>544.6666666666666</ele><time>2026-04-04T13:37:40.108Z</time></trkpt><trkpt lat="43.0584525" lon="11.4863019"><ele>546.3333333333333</ele><time>2026-04-04T13:37:41.105Z</time></trkpt><trkpt lat="43.058381" lon="11.486375"><ele>548.0</ele><time>2026-04-04T13:37:42.107Z</time></trkpt><trkpt lat="43.0583" lon="11.4864603"><ele>543.1999999999999</ele><time>2026-04-04T13:37:43.106Z</time></trkpt><trkpt lat="43.0582187" lon="11.4865548"><ele>538.4</ele><time>2026-04-04T13:37:44.106Z</time></trkpt><trkpt lat="43.0581395" lon="11.4866402"><ele>533.5999999999999</ele><time>2026-04-04T13:37:45.105Z</time></trkpt><trkpt lat="43.0580574" lon="11.4867312"><ele>528.8</ele><time>2026-04-04T13:37:46.105Z</time></trkpt><trkpt lat="43.0579791" lon="11.4868378"><ele>524.0</ele><time>2026-04-04T13:37:47.106Z</time></trkpt><trkpt lat="43.0578974" lon="11.4869344"><ele>524.0</ele><time>2026-04-04T13:37:48.107Z</time></trkpt><trkpt lat="43.0578142" lon="11.4870282"><ele>524.0</ele><time>2026-04-04T13:37:49.106Z</time></trkpt><trkpt lat="43.057735" lon="11.4871321"><ele>524.0</ele><time>2026-04-04T13:37:50.106Z</time></trkpt><trkpt lat="43.0576553" lon="11.4872319"><ele>524.0</ele><time>2026-04-04T13:37:51.107Z</time></trkpt><trkpt lat="43.0575636" lon="11.4873151"><ele>524.0</ele><time>2026-04-04T13:37:52.107Z</time></trkpt><trkpt lat="43.0575023" lon="11.4874068"><ele>524.0</ele><time>2026-04-04T13:37:53.106Z</time></trkpt><trkpt lat="43.0574472" lon="11.487501"><ele>524.0</ele><time>2026-04-04T13:37:54.107Z</time></trkpt><trkpt lat="43.0573839" lon="11.4876098"><ele>524.0</ele><time>2026-04-04T13:37:55.107Z</time></trkpt><trkpt lat="43.0573238" lon="11.4877114"><ele>524.0</ele><time>2026-04-04T13:37:56.106Z</time></trkpt><trkpt lat="43.0572717" lon="11.4878149"><ele>524.0</ele><time>2026-04-04T13:37:57.106Z</time></trkpt><trkpt lat="43.0572041" lon="11.4879022"><ele>526.4</ele><time>2026-04-04T13:37:58.105Z</time></trkpt><trkpt lat="43.0571415" lon="11.4880192"><ele>528.8</ele><time>2026-04-04T13:37:59.105Z</time></trkpt><trkpt lat="43.0570754" lon="11.4881459"><ele>531.2</ele><time>2026-04-04T13:38:00.107Z</time></trkpt><trkpt lat="43.0570155" lon="11.4882636"><ele>533.6</ele><time>2026-04-04T13:38:01.107Z</time></trkpt><trkpt lat="43.0569428" lon="11.4883892"><ele>536.0</ele><time>2026-04-04T13:38:02.106Z</time></trkpt><trkpt lat="43.0568735" lon="11.4885332"><ele>536.0</ele><time>2026-04-04T13:38:04.106Z</time></trkpt><trkpt lat="43.056833" lon="11.4886094"><ele>536.0</ele><time>2026-04-04T13:38:05.105Z</time></trkpt><trkpt lat="43.0567809" lon="11.4886817"><ele>536.0</ele><time>2026-04-04T13:38:06.105Z</time></trkpt><trkpt lat="43.0567112" lon="11.4887614"><ele>536.0</ele><time>2026-04-04T13:38:07.106Z</time></trkpt><trkpt lat="43.056627" lon="11.4888199"><ele>536.0</ele><time>2026-04-04T13:38:08.105Z</time></trkpt><trkpt lat="43.0565363" lon="11.4888703"><ele>536.0</ele><time>2026-04-04T13:38:09.105Z</time></trkpt><trkpt lat="43.0564417" lon="11.488905"><ele>538.1666666666666</ele><time>2026-04-04T13:38:10.107Z</time></trkpt><trkpt lat="43.0563562" lon="11.4889387"><ele>540.3333333333333</ele><time>2026-04-04T13:38:11.106Z</time></trkpt><trkpt lat="43.0562719" lon="11.4889574"><ele>542.5</ele><time>2026-04-04T13:38:12.106Z</time></trkpt><trkpt lat="43.0562102" lon="11.4889819"><ele>544.6666666666666</ele><time>2026-04-04T13:38:13.106Z</time></trkpt><trkpt lat="43.0560952" lon="11.4890207"><ele>546.8333333333334</ele><time>2026-04-04T13:38:15.107Z</time></trkpt><trkpt lat="43.0560245" lon="11.4890179"><ele>549.0</ele><time>2026-04-04T13:38:16.107Z</time></trkpt><trkpt lat="43.0559451" lon="11.4890101"><ele>549.0</ele><time>2026-04-04T13:38:17.106Z</time></trkpt><trkpt lat="43.0558565" lon="11.4889819"><ele>549.0</ele><time>2026-04-04T13:38:18.106Z</time></trkpt><trkpt lat="43.0557826" lon="11.4889593"><ele>549.0</ele><time>2026-04-04T13:38:19.106Z</time></trkpt><trkpt lat="43.0556765" lon="11.4889532"><ele>549.0</ele><time>2026-04-04T13:38:21.106Z</time></trkpt><trkpt lat="43.0556071" lon="11.4889602"><ele>549.0</ele><time>2026-04-04T13:38:22.105Z</time></trkpt><trkpt lat="43.0555304" lon="11.48897"><ele>549.0</ele><time>2026-04-04T13:38:23.105Z</time></trkpt><trkpt lat="43.0554561" lon="11.4889867"><ele>549.8</ele><time>2026-04-04T13:38:24.105Z</time></trkpt><trkpt lat="43.0553869" lon="11.4890074"><ele>550.5999999999999</ele><time>2026-04-04T13:38:25.106Z</time></trkpt><trkpt lat="43.0552778" lon="11.4889897"><ele>551.4</ele><time>2026-04-04T13:38:27.105Z</time></trkpt><trkpt lat="43.055181" lon="11.4889811"><ele>552.1999999999999</ele><time>2026-04-04T13:38:29.106Z</time></trkpt><trkpt lat="43.0551041" lon="11.489037"><ele>553.0</ele><time>2026-04-04T13:38:31.106Z</time></trkpt><trkpt lat="43.0550332" lon="11.4891013"><ele>553.4</ele><time>2026-04-04T13:38:33.106Z</time></trkpt><trkpt lat="43.0549179" lon="11.4891178"><ele>553.8</ele><time>2026-04-04T13:38:35.105Z</time></trkpt><trkpt lat="43.0547965" lon="11.4891159"><ele>554.2</ele><time>2026-04-04T13:38:37.104Z</time></trkpt><trkpt lat="43.0547235" lon="11.4891273"><ele>554.6</ele><time>2026-04-04T13:38:38.105Z</time></trkpt><trkpt lat="43.0546406" lon="11.4891346"><ele>555.0</ele><time>2026-04-04T13:38:39.107Z</time></trkpt><trkpt lat="43.0545602" lon="11.4891416"><ele>555.0</ele><time>2026-04-04T13:38:40.107Z</time></trkpt><trkpt lat="43.0544701" lon="11.489151"><ele>555.0</ele><time>2026-04-04T13:38:41.105Z</time></trkpt><trkpt lat="43.0543784" lon="11.4891655"><ele>555.0</ele><time>2026-04-04T13:38:42.105Z</time></trkpt><trkpt lat="43.0542895" lon="11.4891658"><ele>555.0</ele><time>2026-04-04T13:38:43.105Z</time></trkpt><trkpt lat="43.0541931" lon="11.4891715"><ele>555.0</ele><time>2026-04-04T13:38:44.106Z</time></trkpt><trkpt lat="43.0540993" lon="11.489201"><ele>557.0</ele><time>2026-04-04T13:38:45.105Z</time></trkpt><trkpt lat="43.0540131" lon="11.4892456"><ele>559.0</ele><time>2026-04-04T13:38:46.104Z</time></trkpt><trkpt lat="43.0539301" lon="11.4893248"><ele>561.0</ele><time>2026-04-04T13:38:47.106Z</time></trkpt><trkpt lat="43.0538563" lon="11.489417"><ele>563.0</ele><time>2026-04-04T13:38:48.107Z</time></trkpt><trkpt lat="43.0538081" lon="11.489546"><ele>565.0</ele><time>2026-04-04T13:38:49.105Z</time></trkpt><trkpt lat="43.0537751" lon="11.4896885"><ele>565.0</ele><time>2026-04-04T13:38:50.106Z</time></trkpt><trkpt lat="43.0537587" lon="11.4898325"><ele>565.0</ele><time>2026-04-04T13:38:51.106Z</time></trkpt><trkpt lat="43.05376" lon="11.48997"><ele>565.0</ele><time>2026-04-04T13:38:52.108Z</time></trkpt><trkpt lat="43.0537553" lon="11.4901222"><ele>565.0</ele><time>2026-04-04T13:38:53.107Z</time></trkpt><trkpt lat="43.053756" lon="11.4902674"><ele>565.0</ele><time>2026-04-04T13:38:54.106Z</time></trkpt><trkpt lat="43.053753" lon="11.4904106"><ele>564.6</ele><time>2026-04-04T13:38:55.105Z</time></trkpt><trkpt lat="43.0537589" lon="11.4905404"><ele>564.2</ele><time>2026-04-04T13:38:56.107Z</time></trkpt><trkpt lat="43.0537563" lon="11.4906807"><ele>563.8</ele><time>2026-04-04T13:38:57.104Z</time></trkpt><trkpt lat="43.0537517" lon="11.4908214"><ele>563.4</ele><time>2026-04-04T13:38:58.105Z</time></trkpt><trkpt lat="43.0537506" lon="11.4909606"><ele>563.0</ele><time>2026-04-04T13:38:59.106Z</time></trkpt><trkpt lat="43.0537498" lon="11.4910922"><ele>563.0</ele><time>2026-04-04T13:39:00.105Z</time></trkpt><trkpt lat="43.0537458" lon="11.4912252"><ele>563.0</ele><time>2026-04-04T13:39:01.106Z</time></trkpt><trkpt lat="43.0537412" lon="11.4913505"><ele>563.0</ele><time>2026-04-04T13:39:02.105Z</time></trkpt><trkpt lat="43.0537404" lon="11.4914712"><ele>563.0</ele><time>2026-04-04T13:39:03.106Z</time></trkpt><trkpt lat="43.053743" lon="11.4915894"><ele>563.0</ele><time>2026-04-04T13:39:04.106Z</time></trkpt><trkpt lat="43.0537266" lon="11.4917141"><ele>560.4</ele><time>2026-04-04T13:39:05.105Z</time></trkpt><trkpt lat="43.0536845" lon="11.4918261"><ele>557.8</ele><time>2026-04-04T13:39:06.106Z</time></trkpt><trkpt lat="43.0536282" lon="11.4919109"><ele>555.2</ele><time>2026-04-04T13:39:07.106Z</time></trkpt><trkpt lat="43.0535405" lon="11.4919567"><ele>552.6</ele><time>2026-04-04T13:39:08.106Z</time></trkpt><trkpt lat="43.053446" lon="11.491965"><ele>550.0</ele><time>2026-04-04T13:39:09.105Z</time></trkpt><trkpt lat="43.0533451" lon="11.4919402"><ele>551.75</ele><time>2026-04-04T13:39:10.107Z</time></trkpt><trkpt lat="43.0532469" lon="11.4919039"><ele>553.5</ele><time>2026-04-04T13:39:11.106Z</time></trkpt><trkpt lat="43.0531405" lon="11.4918499"><ele>555.25</ele><time>2026-04-04T13:39:12.104Z</time></trkpt><trkpt lat="43.0530262" lon="11.491786"><ele>557.0</ele><time>2026-04-04T13:39:13.105Z</time></trkpt><trkpt lat="43.0529163" lon="11.4917317"><ele>557.0</ele><time>2026-04-04T13:39:14.106Z</time></trkpt><trkpt lat="43.0527975" lon="11.4917203"><ele>557.0</ele><time>2026-04-04T13:39:15.104Z</time></trkpt><trkpt lat="43.0526789" lon="11.4917436"><ele>557.0</ele><time>2026-04-04T13:39:16.106Z</time></trkpt><trkpt lat="43.052579" lon="11.4917968"><ele>557.0</ele><time>2026-04-04T13:39:17.106Z</time></trkpt><trkpt lat="43.0525049" lon="11.4918652"><ele>557.0</ele><time>2026-04-04T13:39:18.105Z</time></trkpt><trkpt lat="43.052437" lon="11.4919676"><ele>557.0</ele><time>2026-04-04T13:39:19.105Z</time></trkpt><trkpt lat="43.0523897" lon="11.4920797"><ele>557.0</ele><time>2026-04-04T13:39:20.105Z</time></trkpt><trkpt lat="43.0523462" lon="11.4921851"><ele>557.0</ele><time>2026-04-04T13:39:21.106Z</time></trkpt><trkpt lat="43.052306" lon="11.4922752"><ele>557.0</ele><time>2026-04-04T13:39:22.105Z</time></trkpt><trkpt lat="43.0522582" lon="11.4923544"><ele>557.0</ele><time>2026-04-04T13:39:23.106Z</time></trkpt><trkpt lat="43.0522041" lon="11.4924145"><ele>557.0</ele><time>2026-04-04T13:39:24.105Z</time></trkpt><trkpt lat="43.0521311" lon="11.4924351"><ele>557.0</ele><time>2026-04-04T13:39:25.105Z</time></trkpt><trkpt lat="43.052055" lon="11.4924177"><ele>557.0</ele><time>2026-04-04T13:39:26.106Z</time></trkpt><trkpt lat="43.0519785" lon="11.4923637"><ele>557.0</ele><time>2026-04-04T13:39:27.104Z</time></trkpt><trkpt lat="43.0518997" lon="11.492278"><ele>557.0</ele><time>2026-04-04T13:39:28.106Z</time></trkpt><trkpt lat="43.051832" lon="11.4921723"><ele>557.0</ele><time>2026-04-04T13:39:29.104Z</time></trkpt><trkpt lat="43.0517781" lon="11.4920484"><ele>557.0</ele><time>2026-04-04T13:39:30.106Z</time></trkpt><trkpt lat="43.051718" lon="11.4919175"><ele>557.0</ele><time>2026-04-04T13:39:31.105Z</time></trkpt><trkpt lat="43.0516666" lon="11.4918125"><ele>557.0</ele><time>2026-04-04T13:39:32.105Z</time></trkpt><trkpt lat="43.0516155" lon="11.4917339"><ele>557.0</ele><time>2026-04-04T13:39:33.104Z</time></trkpt><trkpt lat="43.0515684" lon="11.4916697"><ele>557.0</ele><time>2026-04-04T13:39:34.105Z</time></trkpt><trkpt lat="43.051506" lon="11.4915965"><ele>557.0</ele><time>2026-04-04T13:39:36.107Z</time></trkpt><trkpt lat="43.0514616" lon="11.4914885"><ele>557.0</ele><time>2026-04-04T13:39:39.104Z</time></trkpt><trkpt lat="43.0514671" lon="11.4915836"><ele>557.0</ele><time>2026-04-04T13:39:53.105Z</time></trkpt><trkpt lat="43.0514992" lon="11.4916601"><ele>557.0</ele><time>2026-04-04T13:40:38.105Z</time></trkpt><trkpt lat="43.0515516" lon="11.4917187"><ele>557.0</ele><time>2026-04-04T13:40:39.106Z</time></trkpt><trkpt lat="43.0515947" lon="11.4917888"><ele>557.0</ele><time>2026-04-04T13:40:40.104Z</time></trkpt><trkpt lat="43.0516418" lon="11.4918809"><ele>557.0</ele><time>2026-04-04T13:40:41.105Z</time></trkpt><trkpt lat="43.0516882" lon="11.4919842"><ele>557.0</ele><time>2026-04-04T13:40:42.105Z</time></trkpt><trkpt lat="43.0517282" lon="11.4921061"><ele>554.8000000000001</ele><time>2026-04-04T13:40:43.105Z</time></trkpt><trkpt lat="43.0517807" lon="11.4922119"><ele>552.6</ele><time>2026-04-04T13:40:44.105Z</time></trkpt><trkpt lat="43.0518394" lon="11.492319"><ele>550.4000000000001</ele><time>2026-04-04T13:40:45.103Z</time></trkpt><trkpt lat="43.0519274" lon="11.4924251"><ele>548.2</ele><time>2026-04-04T13:40:46.105Z</time></trkpt><trkpt lat="43.0520241" lon="11.4925036"><ele>546.0</ele><time>2026-04-04T13:40:47.104Z</time></trkpt><trkpt lat="43.0521214" lon="11.4925319"><ele>546.0</ele><time>2026-04-04T13:40:48.105Z</time></trkpt><trkpt lat="43.0521994" lon="11.4925117"><ele>546.0</ele><time>2026-04-04T13:40:49.105Z</time></trkpt><trkpt lat="43.0522678" lon="11.4924614"><ele>546.0</ele><time>2026-04-04T13:40:50.104Z</time></trkpt><trkpt lat="43.0523265" lon="11.4923707"><ele>546.0</ele><time>2026-04-04T13:40:51.104Z</time></trkpt><trkpt lat="43.0523822" lon="11.4922393"><ele>546.0</ele><time>2026-04-04T13:40:52.105Z</time></trkpt><trkpt lat="43.0524352" lon="11.4921098"><ele>548.2</ele><time>2026-04-04T13:40:53.106Z</time></trkpt><trkpt lat="43.0525019" lon="11.4919815"><ele>550.4000000000001</ele><time>2026-04-04T13:40:54.104Z</time></trkpt><trkpt lat="43.0525972" lon="11.4918878"><ele>552.6</ele><time>2026-04-04T13:40:55.105Z</time></trkpt><trkpt lat="43.0526943" lon="11.4918295"><ele>554.8000000000001</ele><time>2026-04-04T13:40:56.104Z</time></trkpt><trkpt lat="43.0527986" lon="11.4918223"><ele>557.0</ele><time>2026-04-04T13:40:57.106Z</time></trkpt><trkpt lat="43.0529012" lon="11.4918202"><ele>557.0</ele><time>2026-04-04T13:40:58.105Z</time></trkpt><trkpt lat="43.0530029" lon="11.4918632"><ele>557.0</ele><time>2026-04-04T13:40:59.106Z</time></trkpt><trkpt lat="43.0531196" lon="11.4919186"><ele>557.0</ele><time>2026-04-04T13:41:00.104Z</time></trkpt><trkpt lat="43.0532393" lon="11.4919768"><ele>557.0</ele><time>2026-04-04T13:41:01.104Z</time></trkpt><trkpt lat="43.0533627" lon="11.4920211"><ele>555.6</ele><time>2026-04-04T13:41:02.106Z</time></trkpt><trkpt lat="43.0534909" lon="11.4920167"><ele>554.2</ele><time>2026-04-04T13:41:03.105Z</time></trkpt><trkpt lat="43.053597" lon="11.491996"><ele>552.8</ele><time>2026-04-04T13:41:04.105Z</time></trkpt><trkpt lat="43.0536609" lon="11.4919258"><ele>551.4</ele><time>2026-04-04T13:41:05.104Z</time></trkpt><trkpt lat="43.053715" lon="11.4918229"><ele>550.0</ele><time>2026-04-04T13:41:06.105Z</time></trkpt><trkpt lat="43.0537503" lon="11.4916864"><ele>550.0</ele><time>2026-04-04T13:41:07.105Z</time></trkpt><trkpt lat="43.053744" lon="11.491522"><ele>550.0</ele><time>2026-04-04T13:41:08.104Z</time></trkpt><trkpt lat="43.0537461" lon="11.4913294"><ele>550.0</ele><time>2026-04-04T13:41:09.104Z</time></trkpt><trkpt lat="43.0537521" lon="11.4911157"><ele>550.0</ele><time>2026-04-04T13:41:10.105Z</time></trkpt><trkpt lat="43.0537574" lon="11.4909203"><ele>553.25</ele><time>2026-04-04T13:41:11.105Z</time></trkpt><trkpt lat="43.0537628" lon="11.4907054"><ele>556.5</ele><time>2026-04-04T13:41:12.104Z</time></trkpt><trkpt lat="43.0537706" lon="11.4905046"><ele>559.75</ele><time>2026-04-04T13:41:13.105Z</time></trkpt><trkpt lat="43.0537823" lon="11.4903112"><ele>563.0</ele><time>2026-04-04T13:41:14.103Z</time></trkpt><trkpt lat="43.053776" lon="11.4901322"><ele>563.4</ele><time>2026-04-04T13:41:15.103Z</time></trkpt><trkpt lat="43.0537777" lon="11.4899616"><ele>563.8</ele><time>2026-04-04T13:41:16.105Z</time></trkpt><trkpt lat="43.0537776" lon="11.4898175"><ele>564.2</ele><time>2026-04-04T13:41:17.104Z</time></trkpt><trkpt lat="43.0537819" lon="11.4896826"><ele>564.6</ele><time>2026-04-04T13:41:18.106Z</time></trkpt><trkpt lat="43.0537947" lon="11.4895657"><ele>565.0</ele><time>2026-04-04T13:41:19.104Z</time></trkpt><trkpt lat="43.0538331" lon="11.4894482"><ele>565.8</ele><time>2026-04-04T13:41:20.104Z</time></trkpt><trkpt lat="43.0538817" lon="11.4893376"><ele>566.6</ele><time>2026-04-04T13:41:21.105Z</time></trkpt><trkpt lat="43.0539795" lon="11.4892744"><ele>567.4</ele><time>2026-04-04T13:41:22.105Z</time></trkpt><trkpt lat="43.0540739" lon="11.489213"><ele>568.2</ele><time>2026-04-04T13:41:23.105Z</time></trkpt><trkpt lat="43.0541831" lon="11.4891956"><ele>569.0</ele><time>2026-04-04T13:41:24.105Z</time></trkpt><trkpt lat="43.0543152" lon="11.4891738"><ele>566.6666666666666</ele><time>2026-04-04T13:41:25.105Z</time></trkpt><trkpt lat="43.0544217" lon="11.4891708"><ele>564.3333333333333</ele><time>2026-04-04T13:41:26.104Z</time></trkpt><trkpt lat="43.0545149" lon="11.4891544"><ele>562.0</ele><time>2026-04-04T13:41:27.105Z</time></trkpt><trkpt lat="43.0546009" lon="11.4891476"><ele>559.6666666666666</ele><time>2026-04-04T13:41:28.104Z</time></trkpt><trkpt lat="43.0546726" lon="11.4891422"><ele>557.3333333333334</ele><time>2026-04-04T13:41:29.106Z</time></trkpt><trkpt lat="43.054745" lon="11.4891374"><ele>555.0</ele><time>2026-04-04T13:41:30.105Z</time></trkpt><trkpt lat="43.0548299" lon="11.4891272"><ele>555.0</ele><time>2026-04-04T13:41:31.104Z</time></trkpt><trkpt lat="43.0548984" lon="11.4891214"><ele>555.0</ele><time>2026-04-04T13:41:32.104Z</time></trkpt><trkpt lat="43.0549932" lon="11.489112"><ele>555.0</ele><time>2026-04-04T13:41:34.103Z</time></trkpt><trkpt lat="43.0550599" lon="11.4891293"><ele>555.0</ele><time>2026-04-04T13:41:40.105Z</time></trkpt><trkpt lat="43.0549913" lon="11.4891674"><ele>555.0</ele><time>2026-04-04T13:41:43.104Z</time></trkpt><trkpt lat="43.0549046" lon="11.4891676"><ele>555.0</ele><time>2026-04-04T13:41:45.106Z</time></trkpt><trkpt lat="43.0547969" lon="11.4891838"><ele>555.0</ele><time>2026-04-04T13:41:47.105Z</time></trkpt><trkpt lat="43.0546867" lon="11.4892196"><ele>555.0</ele><time>2026-04-04T13:41:49.105Z</time></trkpt><trkpt lat="43.0546021" lon="11.4892243"><ele>555.0</ele><time>2026-04-04T13:41:50.104Z</time></trkpt><trkpt lat="43.0545292" lon="11.4892378"><ele>555.0</ele><time>2026-04-04T13:41:51.105Z</time></trkpt><trkpt lat="43.0544284" lon="11.4892521"><ele>555.0</ele><time>2026-04-04T13:41:52.104Z</time></trkpt><trkpt lat="43.0543433" lon="11.4892859"><ele>555.0</ele><time>2026-04-04T13:41:53.104Z</time></trkpt><trkpt lat="43.0542662" lon="11.4893492"><ele>555.0</ele><time>2026-04-04T13:41:54.106Z</time></trkpt><trkpt lat="43.0542197" lon="11.4894568"><ele>555.0</ele><time>2026-04-04T13:41:55.105Z</time></trkpt><trkpt lat="43.0541863" lon="11.4895749"><ele>555.0</ele><time>2026-04-04T13:41:56.104Z</time></trkpt><trkpt lat="43.0541769" lon="11.4897016"><ele>555.0</ele><time>2026-04-04T13:41:57.104Z</time></trkpt><trkpt lat="43.0541883" lon="11.4898253"><ele>552.75</ele><time>2026-04-04T13:41:58.105Z</time></trkpt><trkpt lat="43.0542244" lon="11.4899524"><ele>550.5</ele><time>2026-04-04T13:41:59.105Z</time></trkpt><trkpt lat="43.0543056" lon="11.4900824"><ele>548.25</ele><time>2026-04-04T13:42:00.106Z</time></trkpt><trkpt lat="43.0543748" lon="11.4901759"><ele>546.0</ele><time>2026-04-04T13:42:01.103Z</time></trkpt><trkpt lat="43.0544947" lon="11.4903067"><ele>546.0</ele><time>2026-04-04T13:42:02.105Z</time></trkpt><trkpt lat="43.054584" lon="11.4903947"><ele>546.0</ele><time>2026-04-04T13:42:03.103Z</time></trkpt><trkpt lat="43.0546816" lon="11.4904972"><ele>546.0</ele><time>2026-04-04T13:42:04.105Z</time></trkpt><trkpt lat="43.0547766" lon="11.4906002"><ele>546.0</ele><time>2026-04-04T13:42:05.105Z</time></trkpt><trkpt lat="43.0548676" lon="11.4907266"><ele>544.4</ele><time>2026-04-04T13:42:06.103Z</time></trkpt><trkpt lat="43.0549416" lon="11.4908348"><ele>542.8</ele><time>2026-04-04T13:42:07.104Z</time></trkpt><trkpt lat="43.0550076" lon="11.4909498"><ele>541.1999999999999</ele><time>2026-04-04T13:42:08.104Z</time></trkpt><trkpt lat="43.0550521" lon="11.4910571"><ele>539.6</ele><time>2026-04-04T13:42:09.106Z</time></trkpt><trkpt lat="43.0550986" lon="11.4911696"><ele>538.0</ele><time>2026-04-04T13:42:10.105Z</time></trkpt><trkpt lat="43.0551384" lon="11.4912836"><ele>534.5</ele><time>2026-04-04T13:42:11.104Z</time></trkpt><trkpt lat="43.0551858" lon="11.4913824"><ele>531.0</ele><time>2026-04-04T13:42:12.103Z</time></trkpt><trkpt lat="43.055226" lon="11.4914776"><ele>527.5</ele><time>2026-04-04T13:42:13.103Z</time></trkpt><trkpt lat="43.0552699" lon="11.4915561"><ele>524.0</ele><time>2026-04-04T13:42:14.104Z</time></trkpt><trkpt lat="43.0553394" lon="11.4916407"><ele>520.5</ele><time>2026-04-04T13:42:16.103Z</time></trkpt><trkpt lat="43.0553943" lon="11.4917227"><ele>517.0</ele><time>2026-04-04T13:42:18.105Z</time></trkpt><trkpt lat="43.0554513" lon="11.4917763"><ele>517.0</ele><time>2026-04-04T13:42:20.105Z</time></trkpt><trkpt lat="43.0554618" lon="11.4918848"><ele>517.0</ele><time>2026-04-04T13:42:23.103Z</time></trkpt><trkpt lat="43.0553812" lon="11.4918397"><ele>517.0</ele><time>2026-04-04T13:42:26.104Z</time></trkpt><trkpt lat="43.0553356" lon="11.4917772"><ele>517.0</ele><time>2026-04-04T13:42:28.104Z</time></trkpt><trkpt lat="43.0552859" lon="11.4916987"><ele>517.0</ele><time>2026-04-04T13:42:30.104Z</time></trkpt><trkpt lat="43.0551958" lon="11.4915893"><ele>517.0</ele><time>2026-04-04T13:42:32.104Z</time></trkpt><trkpt lat="43.0551439" lon="11.4915326"><ele>517.0</ele><time>2026-04-04T13:42:33.103Z</time></trkpt><trkpt lat="43.0550907" lon="11.4914667"><ele>517.0</ele><time>2026-04-04T13:42:34.103Z</time></trkpt><trkpt lat="43.0550437" lon="11.4913927"><ele>517.0</ele><time>2026-04-04T13:42:35.104Z</time></trkpt><trkpt lat="43.0549938" lon="11.4913278"><ele>517.0</ele><time>2026-04-04T13:42:36.105Z</time></trkpt><trkpt lat="43.054946" lon="11.4912514"><ele>517.0</ele><time>2026-04-04T13:42:37.104Z</time></trkpt><trkpt lat="43.0548986" lon="11.4911757"><ele>517.0</ele><time>2026-04-04T13:42:38.105Z</time></trkpt><trkpt lat="43.0548492" lon="11.4911135"><ele>517.0</ele><time>2026-04-04T13:42:39.103Z</time></trkpt><trkpt lat="43.0547955" lon="11.4910574"><ele>521.2</ele><time>2026-04-04T13:42:40.103Z</time></trkpt><trkpt lat="43.0547039" lon="11.4909538"><ele>525.4000000000001</ele><time>2026-04-04T13:42:42.104Z</time></trkpt><trkpt lat="43.0546045" lon="11.4909384"><ele>529.5999999999999</ele><time>2026-04-04T13:42:44.103Z</time></trkpt><trkpt lat="43.0544873" lon="11.4909799"><ele>533.8</ele><time>2026-04-04T13:42:46.103Z</time></trkpt><trkpt lat="43.0544326" lon="11.4910277"><ele>538.0</ele><time>2026-04-04T13:42:47.104Z</time></trkpt><trkpt lat="43.0543565" lon="11.4911523"><ele>537.6666666666667</ele><time>2026-04-04T13:42:49.105Z</time></trkpt><trkpt lat="43.0543443" lon="11.4912997"><ele>537.3333333333334</ele><time>2026-04-04T13:42:51.103Z</time></trkpt><trkpt lat="43.0543464" lon="11.4913889"><ele>537.0</ele><time>2026-04-04T13:42:52.104Z</time></trkpt><trkpt lat="43.0543591" lon="11.4914801"><ele>536.6666666666666</ele><time>2026-04-04T13:42:53.104Z</time></trkpt><trkpt lat="43.0543693" lon="11.4915842"><ele>536.3333333333333</ele><time>2026-04-04T13:42:54.102Z</time></trkpt><trkpt lat="43.0543772" lon="11.4916846"><ele>536.0</ele><time>2026-04-04T13:42:55.104Z</time></trkpt><trkpt lat="43.054383" lon="11.4917985"><ele>536.0</ele><time>2026-04-04T13:42:56.103Z</time></trkpt><trkpt lat="43.0543872" lon="11.4919792"><ele>536.0</ele><time>2026-04-04T13:42:57.106Z</time></trkpt><trkpt lat="43.0544037" lon="11.4920973"><ele>536.0</ele><time>2026-04-04T13:42:58.104Z</time></trkpt><trkpt lat="43.0544091" lon="11.4922128"><ele>536.0</ele><time>2026-04-04T13:42:59.103Z</time></trkpt><trkpt lat="43.0544112" lon="11.4923327"><ele>536.0</ele><time>2026-04-04T13:43:00.103Z</time></trkpt><trkpt lat="43.0544141" lon="11.4924489"><ele>534.0</ele><time>2026-04-04T13:43:01.104Z</time></trkpt><trkpt lat="43.0544114" lon="11.4925602"><ele>532.0</ele><time>2026-04-04T13:43:02.104Z</time></trkpt><trkpt lat="43.0544016" lon="11.4926701"><ele>530.0</ele><time>2026-04-04T13:43:03.104Z</time></trkpt><trkpt lat="43.0543962" lon="11.4927626"><ele>528.0</ele><time>2026-04-04T13:43:04.104Z</time></trkpt><trkpt lat="43.0543708" lon="11.4928672"><ele>526.0</ele><time>2026-04-04T13:43:05.104Z</time></trkpt><trkpt lat="43.0543508" lon="11.4929626"><ele>524.0</ele><time>2026-04-04T13:43:06.105Z</time></trkpt><trkpt lat="43.0543225" lon="11.4930626"><ele>522.3333333333333</ele><time>2026-04-04T13:43:07.103Z</time></trkpt><trkpt lat="43.0542841" lon="11.4931534"><ele>520.6666666666666</ele><time>2026-04-04T13:43:08.104Z</time></trkpt><trkpt lat="43.054238" lon="11.4932515"><ele>519.0</ele><time>2026-04-04T13:43:09.103Z</time></trkpt><trkpt lat="43.0541752" lon="11.493334"><ele>517.3333333333334</ele><time>2026-04-04T13:43:10.103Z</time></trkpt><trkpt lat="43.0541123" lon="11.4934063"><ele>515.6666666666667</ele><time>2026-04-04T13:43:11.104Z</time></trkpt><trkpt lat="43.0540402" lon="11.4934711"><ele>514.0</ele><time>2026-04-04T13:43:12.103Z</time></trkpt><trkpt lat="43.0539607" lon="11.4935475"><ele>514.0</ele><time>2026-04-04T13:43:13.102Z</time></trkpt><trkpt lat="43.0538784" lon="11.4936238"><ele>514.0</ele><time>2026-04-04T13:43:14.104Z</time></trkpt><trkpt lat="43.0538097" lon="11.4937016"><ele>514.0</ele><time>2026-04-04T13:43:15.103Z</time></trkpt><trkpt lat="43.0537339" lon="11.493782"><ele>514.0</ele><time>2026-04-04T13:43:16.102Z</time></trkpt><trkpt lat="43.0536767" lon="11.4938796"><ele>514.0</ele><time>2026-04-04T13:43:17.105Z</time></trkpt><trkpt lat="43.0536344" lon="11.49399"><ele>512.8</ele><time>2026-04-04T13:43:18.104Z</time></trkpt><trkpt lat="43.05359" lon="11.4941178"><ele>511.59999999999997</ele><time>2026-04-04T13:43:19.104Z</time></trkpt><trkpt lat="43.0535573" lon="11.4942572"><ele>510.4</ele><time>2026-04-04T13:43:20.102Z</time></trkpt><trkpt lat="43.0535426" lon="11.4943905"><ele>509.2</ele><time>2026-04-04T13:43:21.105Z</time></trkpt><trkpt lat="43.0535272" lon="11.4945466"><ele>508.0</ele><time>2026-04-04T13:43:22.104Z</time></trkpt><trkpt lat="43.0535281" lon="11.4946975"><ele>507.4</ele><time>2026-04-04T13:43:23.105Z</time></trkpt><trkpt lat="43.0535432" lon="11.4948549"><ele>506.79999999999995</ele><time>2026-04-04T13:43:24.103Z</time></trkpt><trkpt lat="43.0535514" lon="11.4950054"><ele>506.2</ele><time>2026-04-04T13:43:25.104Z</time></trkpt><trkpt lat="43.0535585" lon="11.4951573"><ele>505.6</ele><time>2026-04-04T13:43:26.102Z</time></trkpt><trkpt lat="43.0535701" lon="11.4953083"><ele>505.0</ele><time>2026-04-04T13:43:27.104Z</time></trkpt><trkpt lat="43.0535836" lon="11.4954574"><ele>504.8</ele><time>2026-04-04T13:43:28.104Z</time></trkpt><trkpt lat="43.0535886" lon="11.4956142"><ele>504.6</ele><time>2026-04-04T13:43:29.105Z</time></trkpt><trkpt lat="43.0535846" lon="11.4957721"><ele>504.4</ele><time>2026-04-04T13:43:30.104Z</time></trkpt><trkpt lat="43.0535739" lon="11.4959132"><ele>504.2</ele><time>2026-04-04T13:43:31.104Z</time></trkpt><trkpt lat="43.0535584" lon="11.4960678"><ele>504.0</ele><time>2026-04-04T13:43:32.103Z</time></trkpt><trkpt lat="43.0535467" lon="11.4962074"><ele>503.0</ele><time>2026-04-04T13:43:33.103Z</time></trkpt><trkpt lat="43.0535385" lon="11.4963536"><ele>502.0</ele><time>2026-04-04T13:43:34.103Z</time></trkpt><trkpt lat="43.0535319" lon="11.4964953"><ele>501.0</ele><time>2026-04-04T13:43:35.102Z</time></trkpt><trkpt lat="43.0535134" lon="11.4966393"><ele>500.0</ele><time>2026-04-04T13:43:36.104Z</time></trkpt><trkpt lat="43.053488" lon="11.4967847"><ele>499.0</ele><time>2026-04-04T13:43:37.103Z</time></trkpt><trkpt lat="43.053469" lon="11.4969321"><ele>499.0</ele><time>2026-04-04T13:43:38.103Z</time></trkpt><trkpt lat="43.0534373" lon="11.4970556"><ele>499.0</ele><time>2026-04-04T13:43:39.104Z</time></trkpt><trkpt lat="43.0533995" lon="11.4971946"><ele>499.0</ele><time>2026-04-04T13:43:40.105Z</time></trkpt><trkpt lat="43.0533548" lon="11.4973329"><ele>499.0</ele><time>2026-04-04T13:43:41.102Z</time></trkpt><trkpt lat="43.05331" lon="11.4974687"><ele>499.0</ele><time>2026-04-04T13:43:42.104Z</time></trkpt><trkpt lat="43.0532488" lon="11.4976076"><ele>499.2</ele><time>2026-04-04T13:43:43.103Z</time></trkpt><trkpt lat="43.0531908" lon="11.4977322"><ele>499.4</ele><time>2026-04-04T13:43:44.103Z</time></trkpt><trkpt lat="43.0531289" lon="11.497865"><ele>499.6</ele><time>2026-04-04T13:43:45.103Z</time></trkpt><trkpt lat="43.0530728" lon="11.4979911"><ele>499.8</ele><time>2026-04-04T13:43:46.104Z</time></trkpt><trkpt lat="43.0530133" lon="11.4981208"><ele>500.0</ele><time>2026-04-04T13:43:47.103Z</time></trkpt><trkpt lat="43.0529468" lon="11.4982607"><ele>500.0</ele><time>2026-04-04T13:43:48.104Z</time></trkpt><trkpt lat="43.0528853" lon="11.4984087"><ele>500.0</ele><time>2026-04-04T13:43:49.104Z</time></trkpt><trkpt lat="43.0528227" lon="11.498553"><ele>500.0</ele><time>2026-04-04T13:43:50.104Z</time></trkpt><trkpt lat="43.0527642" lon="11.4987042"><ele>500.0</ele><time>2026-04-04T13:43:51.105Z</time></trkpt><trkpt lat="43.0527019" lon="11.4988554"><ele>497.5</ele><time>2026-04-04T13:43:52.105Z</time></trkpt><trkpt lat="43.05264" lon="11.4990114"><ele>495.0</ele><time>2026-04-04T13:43:53.102Z</time></trkpt><trkpt lat="43.052583" lon="11.4991582"><ele>492.5</ele><time>2026-04-04T13:43:54.105Z</time></trkpt><trkpt lat="43.0525272" lon="11.4993114"><ele>490.0</ele><time>2026-04-04T13:43:55.103Z</time></trkpt><trkpt lat="43.0524662" lon="11.4994645"><ele>487.25</ele><time>2026-04-04T13:43:56.104Z</time></trkpt><trkpt lat="43.0523974" lon="11.4996222"><ele>484.5</ele><time>2026-04-04T13:43:57.103Z</time></trkpt><trkpt lat="43.052337" lon="11.4997789"><ele>481.75</ele><time>2026-04-04T13:43:58.103Z</time></trkpt><trkpt lat="43.0522802" lon="11.4999309"><ele>479.0</ele><time>2026-04-04T13:43:59.104Z</time></trkpt><trkpt lat="43.0522171" lon="11.5000752"><ele>479.0</ele><time>2026-04-04T13:44:00.104Z</time></trkpt><trkpt lat="43.0521564" lon="11.5002176"><ele>479.0</ele><time>2026-04-04T13:44:01.103Z</time></trkpt><trkpt lat="43.0520964" lon="11.5003653"><ele>479.0</ele><time>2026-04-04T13:44:02.103Z</time></trkpt><trkpt lat="43.0520552" lon="11.5005082"><ele>479.0</ele><time>2026-04-04T13:44:03.103Z</time></trkpt><trkpt lat="43.0520236" lon="11.5006554"><ele>477.75</ele><time>2026-04-04T13:44:04.104Z</time></trkpt><trkpt lat="43.0519925" lon="11.5008143"><ele>476.5</ele><time>2026-04-04T13:44:05.102Z</time></trkpt><trkpt lat="43.0519763" lon="11.5009647"><ele>475.25</ele><time>2026-04-04T13:44:06.103Z</time></trkpt><trkpt lat="43.0519693" lon="11.5011244"><ele>474.0</ele><time>2026-04-04T13:44:07.103Z</time></trkpt><trkpt lat="43.0519599" lon="11.5013006"><ele>472.75</ele><time>2026-04-04T13:44:08.105Z</time></trkpt><trkpt lat="43.0519628" lon="11.5014459"><ele>471.5</ele><time>2026-04-04T13:44:09.104Z</time></trkpt><trkpt lat="43.0519648" lon="11.5016075"><ele>470.25</ele><time>2026-04-04T13:44:10.104Z</time></trkpt><trkpt lat="43.0519679" lon="11.5017728"><ele>469.0</ele><time>2026-04-04T13:44:11.103Z</time></trkpt><trkpt lat="43.0519561" lon="11.5019378"><ele>468.25</ele><time>2026-04-04T13:44:12.104Z</time></trkpt><trkpt lat="43.0519357" lon="11.5020964"><ele>467.5</ele><time>2026-04-04T13:44:13.102Z</time></trkpt><trkpt lat="43.051897" lon="11.5022599"><ele>466.75</ele><time>2026-04-04T13:44:14.102Z</time></trkpt><trkpt lat="43.0518547" lon="11.5024172"><ele>466.0</ele><time>2026-04-04T13:44:15.104Z</time></trkpt><trkpt lat="43.0518134" lon="11.5025654"><ele>466.0</ele><time>2026-04-04T13:44:16.102Z</time></trkpt><trkpt lat="43.0517716" lon="11.5027032"><ele>466.0</ele><time>2026-04-04T13:44:17.103Z</time></trkpt><trkpt lat="43.0517473" lon="11.5028337"><ele>466.0</ele><time>2026-04-04T13:44:18.104Z</time></trkpt><trkpt lat="43.0517422" lon="11.5029638"><ele>466.0</ele><time>2026-04-04T13:44:19.103Z</time></trkpt><trkpt lat="43.0517558" lon="11.5030908"><ele>466.0</ele><time>2026-04-04T13:44:20.104Z</time></trkpt><trkpt lat="43.0517776" lon="11.503209"><ele>465.6</ele><time>2026-04-04T13:44:21.104Z</time></trkpt><trkpt lat="43.0518071" lon="11.5033248"><ele>465.20000000000005</ele><time>2026-04-04T13:44:22.103Z</time></trkpt><trkpt lat="43.0518642" lon="11.5034623"><ele>464.79999999999995</ele><time>2026-04-04T13:44:23.103Z</time></trkpt><trkpt lat="43.0519224" lon="11.5035946"><ele>464.4</ele><time>2026-04-04T13:44:24.104Z</time></trkpt><trkpt lat="43.0519746" lon="11.503721"><ele>464.0</ele><time>2026-04-04T13:44:25.104Z</time></trkpt><trkpt lat="43.0520232" lon="11.5038588"><ele>462.66666666666663</ele><time>2026-04-04T13:44:26.105Z</time></trkpt><trkpt lat="43.0520748" lon="11.5039933"><ele>461.3333333333333</ele><time>2026-04-04T13:44:27.103Z</time></trkpt><trkpt lat="43.0521173" lon="11.5041033"><ele>460.0</ele><time>2026-04-04T13:44:28.104Z</time></trkpt><trkpt lat="43.0521409" lon="11.5042113"><ele>458.66666666666663</ele><time>2026-04-04T13:44:29.105Z</time></trkpt><trkpt lat="43.0521811" lon="11.5042918"><ele>457.3333333333333</ele><time>2026-04-04T13:44:30.104Z</time></trkpt><trkpt lat="43.0521987" lon="11.5043802"><ele>456.0</ele><time>2026-04-04T13:44:31.104Z</time></trkpt><trkpt lat="43.0522326" lon="11.5044997"><ele>454.4</ele><time>2026-04-04T13:44:33.102Z</time></trkpt><trkpt lat="43.0522682" lon="11.5046224"><ele>452.8</ele><time>2026-04-04T13:44:35.103Z</time></trkpt><trkpt lat="43.0522771" lon="11.5047672"><ele>451.19999999999993</ele><time>2026-04-04T13:44:37.103Z</time></trkpt><trkpt lat="43.0522644" lon="11.5049371"><ele>449.59999999999997</ele><time>2026-04-04T13:44:39.102Z</time></trkpt><trkpt lat="43.0522479" lon="11.5050416"><ele>448.0</ele><time>2026-04-04T13:44:40.102Z</time></trkpt><trkpt lat="43.0522357" lon="11.5051394"><ele>448.00000000000006</ele><time>2026-04-04T13:44:41.102Z</time></trkpt><trkpt lat="43.0522168" lon="11.5052425"><ele>448.0</ele><time>2026-04-04T13:44:42.102Z</time></trkpt><trkpt lat="43.0521904" lon="11.5053441"><ele>448.0</ele><time>2026-04-04T13:44:43.103Z</time></trkpt><trkpt lat="43.0521568" lon="11.505444"><ele>448.0</ele><time>2026-04-04T13:44:44.103Z</time></trkpt><trkpt lat="43.0521217" lon="11.5055483"><ele>448.00000000000006</ele><time>2026-04-04T13:44:45.103Z</time></trkpt><trkpt lat="43.0520868" lon="11.5056495"><ele>448.0</ele><time>2026-04-04T13:44:46.102Z</time></trkpt><trkpt lat="43.0520544" lon="11.505758"><ele>448.00000000000006</ele><time>2026-04-04T13:44:47.103Z</time></trkpt><trkpt lat="43.0520246" lon="11.5058672"><ele>448.0</ele><time>2026-04-04T13:44:48.102Z</time></trkpt><trkpt lat="43.0519851" lon="11.5059709"><ele>448.0</ele><time>2026-04-04T13:44:49.103Z</time></trkpt><trkpt lat="43.0519528" lon="11.5060777"><ele>448.0</ele><time>2026-04-04T13:44:50.101Z</time></trkpt><trkpt lat="43.0519215" lon="11.5061856"><ele>448.00000000000006</ele><time>2026-04-04T13:44:51.104Z</time></trkpt><trkpt lat="43.0518691" lon="11.5062888"><ele>448.0</ele><time>2026-04-04T13:44:52.103Z</time></trkpt><trkpt lat="43.0518388" lon="11.5063846"><ele>448.83333333333337</ele><time>2026-04-04T13:44:53.101Z</time></trkpt><trkpt lat="43.0518121" lon="11.5064714"><ele>449.6666666666667</ele><time>2026-04-04T13:44:54.102Z</time></trkpt><trkpt lat="43.0517884" lon="11.5065886"><ele>450.5</ele><time>2026-04-04T13:44:56.101Z</time></trkpt><trkpt lat="43.0518037" lon="11.5067162"><ele>451.33333333333337</ele><time>2026-04-04T13:45:39.101Z</time></trkpt><trkpt lat="43.0518512" lon="11.5068704"><ele>452.1666666666667</ele><time>2026-04-04T13:45:41.101Z</time></trkpt><trkpt lat="43.0518539" lon="11.5069703"><ele>453.0</ele><time>2026-04-04T13:45:42.101Z</time></trkpt><trkpt lat="43.05186" lon="11.5070998"><ele>453.4</ele><time>2026-04-04T13:45:43.101Z</time></trkpt><trkpt lat="43.0518653" lon="11.5072394"><ele>453.79999999999995</ele><time>2026-04-04T13:45:44.104Z</time></trkpt><trkpt lat="43.0518637" lon="11.5073842"><ele>454.2</ele><time>2026-04-04T13:45:45.101Z</time></trkpt><trkpt lat="43.0518642" lon="11.5075431"><ele>454.6</ele><time>2026-04-04T13:45:46.103Z</time></trkpt><trkpt lat="43.0518572" lon="11.5077003"><ele>455.0</ele><time>2026-04-04T13:45:47.102Z</time></trkpt><trkpt lat="43.0518273" lon="11.507854"><ele>454.5</ele><time>2026-04-04T13:45:48.103Z</time></trkpt><trkpt lat="43.0517883" lon="11.5079902"><ele>454.0</ele><time>2026-04-04T13:45:49.103Z</time></trkpt><trkpt lat="43.0517082" lon="11.5081194"><ele>453.5</ele><time>2026-04-04T13:45:50.104Z</time></trkpt><trkpt lat="43.0516231" lon="11.5082447"><ele>453.0</ele><time>2026-04-04T13:45:51.102Z</time></trkpt><trkpt lat="43.0515427" lon="11.5083723"><ele>453.0</ele><time>2026-04-04T13:45:52.102Z</time></trkpt><trkpt lat="43.0514606" lon="11.5084958"><ele>453.0</ele><time>2026-04-04T13:45:53.101Z</time></trkpt><trkpt lat="43.051371" lon="11.5086272"><ele>453.0</ele><time>2026-04-04T13:45:54.102Z</time></trkpt><trkpt lat="43.0512657" lon="11.5087521"><ele>453.0</ele><time>2026-04-04T13:45:55.103Z</time></trkpt><trkpt lat="43.0511771" lon="11.5088864"><ele>449.75</ele><time>2026-04-04T13:45:56.102Z</time></trkpt><trkpt lat="43.0510783" lon="11.5090114"><ele>446.5</ele><time>2026-04-04T13:45:57.101Z</time></trkpt><trkpt lat="43.0509705" lon="11.5091321"><ele>443.25</ele><time>2026-04-04T13:45:58.103Z</time></trkpt><trkpt lat="43.0508617" lon="11.5092509"><ele>440.0</ele><time>2026-04-04T13:45:59.104Z</time></trkpt><trkpt lat="43.0507437" lon="11.5093783"><ele>440.0</ele><time>2026-04-04T13:46:00.101Z</time></trkpt><trkpt lat="43.0506373" lon="11.5095013"><ele>440.0</ele><time>2026-04-04T13:46:01.103Z</time></trkpt><trkpt lat="43.050533" lon="11.5096286"><ele>440.0</ele><time>2026-04-04T13:46:02.102Z</time></trkpt><trkpt lat="43.0504227" lon="11.5097515"><ele>440.0</ele><time>2026-04-04T13:46:03.102Z</time></trkpt><trkpt lat="43.0503141" lon="11.5098702"><ele>437.5</ele><time>2026-04-04T13:46:04.103Z</time></trkpt><trkpt lat="43.0502091" lon="11.5099839"><ele>435.0</ele><time>2026-04-04T13:46:05.104Z</time></trkpt><trkpt lat="43.0500888" lon="11.5101176"><ele>432.5</ele><time>2026-04-04T13:46:06.102Z</time></trkpt><trkpt lat="43.0499717" lon="11.5102349"><ele>430.0</ele><time>2026-04-04T13:46:07.102Z</time></trkpt><trkpt lat="43.049856" lon="11.5103515"><ele>426.5</ele><time>2026-04-04T13:46:08.103Z</time></trkpt><trkpt lat="43.0497287" lon="11.5104828"><ele>423.0</ele><time>2026-04-04T13:46:09.103Z</time></trkpt><trkpt lat="43.0496286" lon="11.5106238"><ele>419.5</ele><time>2026-04-04T13:46:10.103Z</time></trkpt><trkpt lat="43.0495321" lon="11.5107697"><ele>416.0</ele><time>2026-04-04T13:46:11.103Z</time></trkpt><trkpt lat="43.0494428" lon="11.5109123"><ele>416.0</ele><time>2026-04-04T13:46:12.103Z</time></trkpt><trkpt lat="43.0493533" lon="11.511062"><ele>416.0</ele><time>2026-04-04T13:46:13.103Z</time></trkpt><trkpt lat="43.0492811" lon="11.511203"><ele>416.0</ele><time>2026-04-04T13:46:14.102Z</time></trkpt><trkpt lat="43.0492262" lon="11.5113594"><ele>416.0</ele><time>2026-04-04T13:46:15.103Z</time></trkpt><trkpt lat="43.0491836" lon="11.5115151"><ele>415.25</ele><time>2026-04-04T13:46:16.103Z</time></trkpt><trkpt lat="43.0491417" lon="11.5116883"><ele>414.5</ele><time>2026-04-04T13:46:17.101Z</time></trkpt><trkpt lat="43.0490937" lon="11.5118603"><ele>413.75</ele><time>2026-04-04T13:46:18.103Z</time></trkpt><trkpt lat="43.0490375" lon="11.5120357"><ele>413.0</ele><time>2026-04-04T13:46:19.103Z</time></trkpt><trkpt lat="43.0489859" lon="11.5122019"><ele>411.5</ele><time>2026-04-04T13:46:20.101Z</time></trkpt><trkpt lat="43.0489319" lon="11.5123641"><ele>410.0</ele><time>2026-04-04T13:46:21.101Z</time></trkpt><trkpt lat="43.0488685" lon="11.5125038"><ele>408.5</ele><time>2026-04-04T13:46:22.103Z</time></trkpt><trkpt lat="43.0488154" lon="11.5126342"><ele>407.0</ele><time>2026-04-04T13:46:23.102Z</time></trkpt><trkpt lat="43.0487763" lon="11.5127469"><ele>407.0</ele><time>2026-04-04T13:46:24.102Z</time></trkpt><trkpt lat="43.0487463" lon="11.5128765"><ele>407.0</ele><time>2026-04-04T13:46:25.101Z</time></trkpt><trkpt lat="43.0487246" lon="11.5130309"><ele>407.0</ele><time>2026-04-04T13:46:26.102Z</time></trkpt><trkpt lat="43.0487697" lon="11.5131691"><ele>407.0</ele><time>2026-04-04T13:46:27.102Z</time></trkpt><trkpt lat="43.0488089" lon="11.5133175"><ele>407.0</ele><time>2026-04-04T13:46:28.103Z</time></trkpt><trkpt lat="43.0488602" lon="11.5134696"><ele>407.0</ele><time>2026-04-04T13:46:29.102Z</time></trkpt><trkpt lat="43.0488953" lon="11.5136281"><ele>407.0</ele><time>2026-04-04T13:46:30.101Z</time></trkpt><trkpt lat="43.048897" lon="11.5137953"><ele>407.0</ele><time>2026-04-04T13:46:31.102Z</time></trkpt><trkpt lat="43.0488804" lon="11.5139762"><ele>407.0</ele><time>2026-04-04T13:46:32.102Z</time></trkpt><trkpt lat="43.0488425" lon="11.514153"><ele>406.40000000000003</ele><time>2026-04-04T13:46:33.103Z</time></trkpt><trkpt lat="43.0488177" lon="11.5143177"><ele>405.8</ele><time>2026-04-04T13:46:34.102Z</time></trkpt><trkpt lat="43.0487878" lon="11.5144676"><ele>405.2</ele><time>2026-04-04T13:46:35.102Z</time></trkpt><trkpt lat="43.048767" lon="11.5146161"><ele>404.6</ele><time>2026-04-04T13:46:36.101Z</time></trkpt><trkpt lat="43.0487691" lon="11.5147414"><ele>404.0</ele><time>2026-04-04T13:46:37.102Z</time></trkpt><trkpt lat="43.0487767" lon="11.5148723"><ele>403.0</ele><time>2026-04-04T13:46:38.101Z</time></trkpt><trkpt lat="43.0488138" lon="11.5149936"><ele>402.0</ele><time>2026-04-04T13:46:39.103Z</time></trkpt><trkpt lat="43.0488716" lon="11.5150887"><ele>401.0</ele><time>2026-04-04T13:46:40.103Z</time></trkpt><trkpt lat="43.0489594" lon="11.5151652"><ele>400.0</ele><time>2026-04-04T13:46:41.102Z</time></trkpt><trkpt lat="43.0490656" lon="11.5152122"><ele>399.0</ele><time>2026-04-04T13:46:42.103Z</time></trkpt><trkpt lat="43.0491761" lon="11.5152547"><ele>399.0</ele><time>2026-04-04T13:46:43.102Z</time></trkpt><trkpt lat="43.0492907" lon="11.5152912"><ele>399.0</ele><time>2026-04-04T13:46:44.103Z</time></trkpt><trkpt lat="43.049407" lon="11.5153238"><ele>399.0</ele><time>2026-04-04T13:46:45.102Z</time></trkpt><trkpt lat="43.0495096" lon="11.5153716"><ele>399.0</ele><time>2026-04-04T13:46:46.102Z</time></trkpt><trkpt lat="43.0496069" lon="11.5154314"><ele>397.6</ele><time>2026-04-04T13:46:47.102Z</time></trkpt><trkpt lat="43.049682" lon="11.5155171"><ele>396.2</ele><time>2026-04-04T13:46:48.102Z</time></trkpt><trkpt lat="43.0497503" lon="11.5156245"><ele>394.8</ele><time>2026-04-04T13:46:49.103Z</time></trkpt><trkpt lat="43.0498012" lon="11.5157537"><ele>393.40000000000003</ele><time>2026-04-04T13:46:50.102Z</time></trkpt><trkpt lat="43.0498342" lon="11.5158937"><ele>392.0</ele><time>2026-04-04T13:46:51.103Z</time></trkpt><trkpt lat="43.0498463" lon="11.5160647"><ele>392.0</ele><time>2026-04-04T13:46:52.103Z</time></trkpt><trkpt lat="43.04985" lon="11.516228"><ele>392.0</ele><time>2026-04-04T13:46:53.102Z</time></trkpt><trkpt lat="43.0498442" lon="11.5163981"><ele>392.0</ele><time>2026-04-04T13:46:54.101Z</time></trkpt><trkpt lat="43.0498275" lon="11.5165613"><ele>392.0</ele><time>2026-04-04T13:46:55.102Z</time></trkpt><trkpt lat="43.0498184" lon="11.5167288"><ele>390.0</ele><time>2026-04-04T13:46:56.103Z</time></trkpt><trkpt lat="43.0498086" lon="11.516904"><ele>388.0</ele><time>2026-04-04T13:46:57.102Z</time></trkpt><trkpt lat="43.0498005" lon="11.5170857"><ele>386.0</ele><time>2026-04-04T13:46:58.102Z</time></trkpt><trkpt lat="43.0497946" lon="11.5172684"><ele>384.0</ele><time>2026-04-04T13:46:59.102Z</time></trkpt><trkpt lat="43.0498061" lon="11.5174502"><ele>382.0</ele><time>2026-04-04T13:47:00.1Z</time></trkpt><trkpt lat="43.0498342" lon="11.5176455"><ele>380.0</ele><time>2026-04-04T13:47:01.102Z</time></trkpt><trkpt lat="43.0498598" lon="11.5178449"><ele>378.0</ele><time>2026-04-04T13:47:02.102Z</time></trkpt><trkpt lat="43.0498974" lon="11.5180571"><ele>377.0</ele><time>2026-04-04T13:47:03.102Z</time></trkpt><trkpt lat="43.0499448" lon="11.5182496"><ele>376.0</ele><time>2026-04-04T13:47:04.102Z</time></trkpt><trkpt lat="43.0499791" lon="11.5184282"><ele>375.0</ele><time>2026-04-04T13:47:05.102Z</time></trkpt><trkpt lat="43.0500203" lon="11.5185994"><ele>374.0</ele><time>2026-04-04T13:47:06.102Z</time></trkpt><trkpt lat="43.0500694" lon="11.5187554"><ele>372.0</ele><time>2026-04-04T13:47:07.103Z</time></trkpt><trkpt lat="43.0501345" lon="11.5189113"><ele>370.0</ele><time>2026-04-04T13:47:08.101Z</time></trkpt><trkpt lat="43.0502166" lon="11.5190457"><ele>368.0</ele><time>2026-04-04T13:47:09.102Z</time></trkpt><trkpt lat="43.0503092" lon="11.5191537"><ele>366.0</ele><time>2026-04-04T13:47:10.102Z</time></trkpt><trkpt lat="43.0504278" lon="11.519235"><ele>366.0</ele><time>2026-04-04T13:47:11.103Z</time></trkpt><trkpt lat="43.0505472" lon="11.5193211"><ele>366.0</ele><time>2026-04-04T13:47:12.101Z</time></trkpt><trkpt lat="43.0506669" lon="11.5194061"><ele>366.0</ele><time>2026-04-04T13:47:13.102Z</time></trkpt><trkpt lat="43.0507982" lon="11.5194898"><ele>366.0</ele><time>2026-04-04T13:47:14.101Z</time></trkpt><trkpt lat="43.0509244" lon="11.5195736"><ele>364.0</ele><time>2026-04-04T13:47:15.102Z</time></trkpt><trkpt lat="43.0510577" lon="11.5196577"><ele>362.0</ele><time>2026-04-04T13:47:16.1Z</time></trkpt><trkpt lat="43.0511975" lon="11.5197497"><ele>360.0</ele><time>2026-04-04T13:47:17.102Z</time></trkpt><trkpt lat="43.0513366" lon="11.5198306"><ele>360.0</ele><time>2026-04-04T13:47:18.102Z</time></trkpt><trkpt lat="43.0514784" lon="11.5199029"><ele>360.0</ele><time>2026-04-04T13:47:19.103Z</time></trkpt><trkpt lat="43.051622" lon="11.5199575"><ele>360.0</ele><time>2026-04-04T13:47:20.102Z</time></trkpt><trkpt lat="43.0517675" lon="11.5200093"><ele>358.0</ele><time>2026-04-04T13:47:21.1Z</time></trkpt><trkpt lat="43.0519234" lon="11.5200587"><ele>356.0</ele><time>2026-04-04T13:47:22.101Z</time></trkpt><trkpt lat="43.0520929" lon="11.5201304"><ele>354.0</ele><time>2026-04-04T13:47:23.101Z</time></trkpt><trkpt lat="43.0522696" lon="11.5201917"><ele>354.0</ele><time>2026-04-04T13:47:24.103Z</time></trkpt><trkpt lat="43.0524454" lon="11.5202383"><ele>354.0</ele><time>2026-04-04T13:47:25.103Z</time></trkpt><trkpt lat="43.0526235" lon="11.5202917"><ele>354.0</ele><time>2026-04-04T13:47:26.101Z</time></trkpt><trkpt lat="43.052791" lon="11.5203453"><ele>353.3333333333333</ele><time>2026-04-04T13:47:27.102Z</time></trkpt><trkpt lat="43.0529597" lon="11.5203966"><ele>352.66666666666663</ele><time>2026-04-04T13:47:28.103Z</time></trkpt><trkpt lat="43.0531257" lon="11.5204489"><ele>352.0</ele><time>2026-04-04T13:47:29.102Z</time></trkpt><trkpt lat="43.0532898" lon="11.5205012"><ele>347.3333333333333</ele><time>2026-04-04T13:47:30.101Z</time></trkpt><trkpt lat="43.0534454" lon="11.5205461"><ele>342.6666666666667</ele><time>2026-04-04T13:47:31.102Z</time></trkpt><trkpt lat="43.0535968" lon="11.5205909"><ele>338.0</ele><time>2026-04-04T13:47:32.102Z</time></trkpt><trkpt lat="43.0537377" lon="11.5206412"><ele>338.0</ele><time>2026-04-04T13:47:33.101Z</time></trkpt><trkpt lat="43.0538687" lon="11.5206907"><ele>338.0</ele><time>2026-04-04T13:47:34.101Z</time></trkpt><trkpt lat="43.0539867" lon="11.5207339"><ele>338.0</ele><time>2026-04-04T13:47:35.103Z</time></trkpt><trkpt lat="43.0541181" lon="11.5207845"><ele>338.0</ele><time>2026-04-04T13:47:36.102Z</time></trkpt><trkpt lat="43.0542334" lon="11.5208067"><ele>337.0</ele><time>2026-04-04T13:47:37.1Z</time></trkpt><trkpt lat="43.0543402" lon="11.5208069"><ele>336.0</ele><time>2026-04-04T13:47:38.101Z</time></trkpt><trkpt lat="43.0544467" lon="11.5207739"><ele>335.0</ele><time>2026-04-04T13:47:39.102Z</time></trkpt><trkpt lat="43.0545566" lon="11.5207248"><ele>334.0</ele><time>2026-04-04T13:47:40.102Z</time></trkpt><trkpt lat="43.0546807" lon="11.520666"><ele>334.0</ele><time>2026-04-04T13:47:41.1Z</time></trkpt><trkpt lat="43.0547997" lon="11.5206021"><ele>334.0</ele><time>2026-04-04T13:47:42.102Z</time></trkpt><trkpt lat="43.0549265" lon="11.520544"><ele>334.0</ele><time>2026-04-04T13:47:43.102Z</time></trkpt><trkpt lat="43.0550559" lon="11.5205043"><ele>334.0</ele><time>2026-04-04T13:47:44.102Z</time></trkpt><trkpt lat="43.0551879" lon="11.5204718"><ele>332.25</ele><time>2026-04-04T13:47:45.101Z</time></trkpt><trkpt lat="43.0553285" lon="11.5204577"><ele>330.5</ele><time>2026-04-04T13:47:46.102Z</time></trkpt><trkpt lat="43.0554702" lon="11.5204579"><ele>328.75</ele><time>2026-04-04T13:47:47.1Z</time></trkpt><trkpt lat="43.0556117" lon="11.5204651"><ele>327.0</ele><time>2026-04-04T13:47:48.102Z</time></trkpt><trkpt lat="43.0557618" lon="11.5204723"><ele>325.3333333333333</ele><time>2026-04-04T13:47:49.103Z</time></trkpt><trkpt lat="43.0559123" lon="11.5204738"><ele>323.66666666666663</ele><time>2026-04-04T13:47:50.101Z</time></trkpt><trkpt lat="43.0560636" lon="11.5204804"><ele>322.0</ele><time>2026-04-04T13:47:51.101Z</time></trkpt><trkpt lat="43.0562106" lon="11.5205001"><ele>322.0</ele><time>2026-04-04T13:47:52.103Z</time></trkpt><trkpt lat="43.0563525" lon="11.5205201"><ele>322.0</ele><time>2026-04-04T13:47:53.101Z</time></trkpt><trkpt lat="43.056487" lon="11.5205581"><ele>322.0</ele><time>2026-04-04T13:47:54.102Z</time></trkpt><trkpt lat="43.0566134" lon="11.5206471"><ele>322.0</ele><time>2026-04-04T13:47:55.1Z</time></trkpt><trkpt lat="43.0567213" lon="11.5207422"><ele>321.5</ele><time>2026-04-04T13:47:56.101Z</time></trkpt><trkpt lat="43.056821" lon="11.5208655"><ele>321.0</ele><time>2026-04-04T13:47:57.102Z</time></trkpt><trkpt lat="43.056892" lon="11.5210115"><ele>320.5</ele><time>2026-04-04T13:47:58.1Z</time></trkpt><trkpt lat="43.0569448" lon="11.5211821"><ele>320.0</ele><time>2026-04-04T13:47:59.103Z</time></trkpt><trkpt lat="43.0569825" lon="11.5213631"><ele>319.0</ele><time>2026-04-04T13:48:00.103Z</time></trkpt><trkpt lat="43.0570186" lon="11.5215471"><ele>318.0</ele><time>2026-04-04T13:48:01.102Z</time></trkpt><trkpt lat="43.0570661" lon="11.5217265"><ele>317.0</ele><time>2026-04-04T13:48:02.101Z</time></trkpt><trkpt lat="43.0571005" lon="11.5219113"><ele>316.0</ele><time>2026-04-04T13:48:03.102Z</time></trkpt><trkpt lat="43.0571395" lon="11.5221005"><ele>315.25</ele><time>2026-04-04T13:48:04.101Z</time></trkpt><trkpt lat="43.0571805" lon="11.5222878"><ele>314.5</ele><time>2026-04-04T13:48:05.101Z</time></trkpt><trkpt lat="43.0572186" lon="11.5224647"><ele>313.75</ele><time>2026-04-04T13:48:06.103Z</time></trkpt><trkpt lat="43.0572522" lon="11.5226264"><ele>313.0</ele><time>2026-04-04T13:48:07.102Z</time></trkpt><trkpt lat="43.0572886" lon="11.5227771"><ele>312.75</ele><time>2026-04-04T13:48:08.102Z</time></trkpt><trkpt lat="43.0573319" lon="11.5229278"><ele>312.5</ele><time>2026-04-04T13:48:09.101Z</time></trkpt><trkpt lat="43.0573984" lon="11.5230594"><ele>312.25</ele><time>2026-04-04T13:48:10.102Z</time></trkpt><trkpt lat="43.0574734" lon="11.5231518"><ele>312.0</ele><time>2026-04-04T13:48:11.1Z</time></trkpt><trkpt lat="43.0575864" lon="11.5232319"><ele>312.0</ele><time>2026-04-04T13:48:12.103Z</time></trkpt><trkpt lat="43.0577004" lon="11.523264"><ele>312.0</ele><time>2026-04-04T13:48:13.101Z</time></trkpt><trkpt lat="43.0578118" lon="11.5232611"><ele>312.0</ele><time>2026-04-04T13:48:14.101Z</time></trkpt><trkpt lat="43.0579203" lon="11.5232109"><ele>312.0</ele><time>2026-04-04T13:48:15.103Z</time></trkpt><trkpt lat="43.0580132" lon="11.5231259"><ele>312.0</ele><time>2026-04-04T13:48:16.101Z</time></trkpt><trkpt lat="43.0580995" lon="11.5230105"><ele>312.0</ele><time>2026-04-04T13:48:17.101Z</time></trkpt><trkpt lat="43.0581837" lon="11.5228814"><ele>312.0</ele><time>2026-04-04T13:48:18.102Z</time></trkpt><trkpt lat="43.0582621" lon="11.5227363"><ele>312.0</ele><time>2026-04-04T13:48:19.102Z</time></trkpt><trkpt lat="43.0583451" lon="11.52259"><ele>311.75</ele><time>2026-04-04T13:48:20.102Z</time></trkpt><trkpt lat="43.0584235" lon="11.5224446"><ele>311.5</ele><time>2026-04-04T13:48:21.102Z</time></trkpt><trkpt lat="43.0585122" lon="11.5223015"><ele>311.25</ele><time>2026-04-04T13:48:22.103Z</time></trkpt><trkpt lat="43.0585958" lon="11.5221599"><ele>311.0</ele><time>2026-04-04T13:48:23.103Z</time></trkpt><trkpt lat="43.0586748" lon="11.5220064"><ele>311.0</ele><time>2026-04-04T13:48:24.103Z</time></trkpt><trkpt lat="43.0587502" lon="11.5218645"><ele>311.0</ele><time>2026-04-04T13:48:25.101Z</time></trkpt><trkpt lat="43.0588232" lon="11.5217422"><ele>311.0</ele><time>2026-04-04T13:48:26.1Z</time></trkpt><trkpt lat="43.0588953" lon="11.5216146"><ele>311.0</ele><time>2026-04-04T13:48:27.1Z</time></trkpt><trkpt lat="43.0589857" lon="11.521504"><ele>311.0</ele><time>2026-04-04T13:48:28.102Z</time></trkpt><trkpt lat="43.0590643" lon="11.5214119"><ele>311.0</ele><time>2026-04-04T13:48:29.103Z</time></trkpt><trkpt lat="43.0591536" lon="11.5213468"><ele>311.0</ele><time>2026-04-04T13:48:30.101Z</time></trkpt><trkpt lat="43.0592579" lon="11.521295"><ele>311.0</ele><time>2026-04-04T13:48:31.103Z</time></trkpt><trkpt lat="43.0593663" lon="11.5212904"><ele>311.0</ele><time>2026-04-04T13:48:32.103Z</time></trkpt><trkpt lat="43.0594848" lon="11.5213164"><ele>307.75</ele><time>2026-04-04T13:48:33.101Z</time></trkpt><trkpt lat="43.0595978" lon="11.5213813"><ele>304.5</ele><time>2026-04-04T13:48:34.102Z</time></trkpt><trkpt lat="43.0597149" lon="11.5214784"><ele>301.25</ele><time>2026-04-04T13:48:35.103Z</time></trkpt><trkpt lat="43.0598249" lon="11.5215842"><ele>298.0</ele><time>2026-04-04T13:48:36.102Z</time></trkpt><trkpt lat="43.059937" lon="11.5216921"><ele>296.5</ele><time>2026-04-04T13:48:37.1Z</time></trkpt><trkpt lat="43.0600574" lon="11.5218027"><ele>295.0</ele><time>2026-04-04T13:48:38.101Z</time></trkpt><trkpt lat="43.0601784" lon="11.5219075"><ele>293.5</ele><time>2026-04-04T13:48:39.102Z</time></trkpt><trkpt lat="43.0602923" lon="11.5220145"><ele>292.0</ele><time>2026-04-04T13:48:40.101Z</time></trkpt><trkpt lat="43.0604111" lon="11.5221192"><ele>291.0</ele><time>2026-04-04T13:48:41.101Z</time></trkpt><trkpt lat="43.0605298" lon="11.5222285"><ele>290.0</ele><time>2026-04-04T13:48:42.1Z</time></trkpt><trkpt lat="43.0606523" lon="11.5223364"><ele>289.0</ele><time>2026-04-04T13:48:43.101Z</time></trkpt><trkpt lat="43.0607762" lon="11.522442"><ele>288.0</ele><time>2026-04-04T13:48:44.101Z</time></trkpt><trkpt lat="43.0608966" lon="11.5225499"><ele>288.0</ele><time>2026-04-04T13:48:45.102Z</time></trkpt><trkpt lat="43.0610056" lon="11.5226624"><ele>288.0</ele><time>2026-04-04T13:48:46.102Z</time></trkpt><trkpt lat="43.0611043" lon="11.5227858"><ele>288.0</ele><time>2026-04-04T13:48:47.101Z</time></trkpt><trkpt lat="43.0611976" lon="11.5229278"><ele>288.0</ele><time>2026-04-04T13:48:48.102Z</time></trkpt><trkpt lat="43.0612766" lon="11.523083"><ele>286.5</ele><time>2026-04-04T13:48:49.102Z</time></trkpt><trkpt lat="43.0613549" lon="11.5232231"><ele>285.0</ele><time>2026-04-04T13:48:50.101Z</time></trkpt><trkpt lat="43.0614233" lon="11.5233672"><ele>283.5</ele><time>2026-04-04T13:48:51.102Z</time></trkpt><trkpt lat="43.0614963" lon="11.5235124"><ele>282.0</ele><time>2026-04-04T13:48:52.101Z</time></trkpt><trkpt lat="43.0615652" lon="11.5236684"><ele>282.25</ele><time>2026-04-04T13:48:53.101Z</time></trkpt><trkpt lat="43.0616316" lon="11.5238276"><ele>282.5</ele><time>2026-04-04T13:48:54.101Z</time></trkpt><trkpt lat="43.061704" lon="11.5239731"><ele>282.75</ele><time>2026-04-04T13:48:55.102Z</time></trkpt><trkpt lat="43.0617875" lon="11.5241187"><ele>283.0</ele><time>2026-04-04T13:48:56.102Z</time></trkpt><trkpt lat="43.0618703" lon="11.524263"><ele>283.0</ele><time>2026-04-04T13:48:57.1Z</time></trkpt><trkpt lat="43.0619562" lon="11.5244002"><ele>283.0</ele><time>2026-04-04T13:48:58.101Z</time></trkpt><trkpt lat="43.0620306" lon="11.524533"><ele>283.0</ele><time>2026-04-04T13:48:59.101Z</time></trkpt><trkpt lat="43.0620967" lon="11.5246756"><ele>283.0</ele><time>2026-04-04T13:49:00.102Z</time></trkpt><trkpt lat="43.0621476" lon="11.5248404"><ele>281.0</ele><time>2026-04-04T13:49:01.102Z</time></trkpt><trkpt lat="43.06219" lon="11.5250074"><ele>279.0</ele><time>2026-04-04T13:49:02.102Z</time></trkpt><trkpt lat="43.0622175" lon="11.5251814"><ele>277.0</ele><time>2026-04-04T13:49:03.1Z</time></trkpt><trkpt lat="43.0622506" lon="11.5253481"><ele>275.0</ele><time>2026-04-04T13:49:04.102Z</time></trkpt><trkpt lat="43.0622792" lon="11.5255061"><ele>274.0</ele><time>2026-04-04T13:49:05.1Z</time></trkpt><trkpt lat="43.0623085" lon="11.5256613"><ele>273.0</ele><time>2026-04-04T13:49:06.1Z</time></trkpt><trkpt lat="43.0623364" lon="11.5258213"><ele>272.0</ele><time>2026-04-04T13:49:07.1Z</time></trkpt><trkpt lat="43.06237" lon="11.5259875"><ele>271.0</ele><time>2026-04-04T13:49:08.101Z</time></trkpt><trkpt lat="43.0624024" lon="11.5261432"><ele>272.75</ele><time>2026-04-04T13:49:09.1Z</time></trkpt><trkpt lat="43.0624513" lon="11.5263009"><ele>274.5</ele><time>2026-04-04T13:49:10.1Z</time></trkpt><trkpt lat="43.0625254" lon="11.5264479"><ele>276.25</ele><time>2026-04-04T13:49:11.102Z</time></trkpt><trkpt lat="43.062602" lon="11.5265912"><ele>278.0</ele><time>2026-04-04T13:49:12.1Z</time></trkpt><trkpt lat="43.0626863" lon="11.52674"><ele>278.0</ele><time>2026-04-04T13:49:13.101Z</time></trkpt><trkpt lat="43.0627681" lon="11.5268771"><ele>278.0</ele><time>2026-04-04T13:49:14.101Z</time></trkpt><trkpt lat="43.0628526" lon="11.527026"><ele>278.0</ele><time>2026-04-04T13:49:15.101Z</time></trkpt><trkpt lat="43.0629294" lon="11.5271611"><ele>278.0</ele><time>2026-04-04T13:49:16.102Z</time></trkpt><trkpt lat="43.0630135" lon="11.5272991"><ele>277.75</ele><time>2026-04-04T13:49:17.102Z</time></trkpt><trkpt lat="43.0631021" lon="11.5274312"><ele>277.5</ele><time>2026-04-04T13:49:18.1Z</time></trkpt><trkpt lat="43.0631965" lon="11.527563"><ele>277.25</ele><time>2026-04-04T13:49:19.101Z</time></trkpt><trkpt lat="43.0632798" lon="11.5277129"><ele>277.0</ele><time>2026-04-04T13:49:20.102Z</time></trkpt><trkpt lat="43.0633605" lon="11.5278419"><ele>275.5</ele><time>2026-04-04T13:49:21.101Z</time></trkpt><trkpt lat="43.063434" lon="11.52799"><ele>274.0</ele><time>2026-04-04T13:49:22.101Z</time></trkpt><trkpt lat="43.063509" lon="11.5281483"><ele>272.5</ele><time>2026-04-04T13:49:23.101Z</time></trkpt><trkpt lat="43.0635674" lon="11.5283187"><ele>271.0</ele><time>2026-04-04T13:49:24.102Z</time></trkpt><trkpt lat="43.0636001" lon="11.5284995"><ele>271.0</ele><time>2026-04-04T13:49:25.101Z</time></trkpt><trkpt lat="43.0636213" lon="11.5286852"><ele>271.0</ele><time>2026-04-04T13:49:26.101Z</time></trkpt><trkpt lat="43.0636385" lon="11.5288705"><ele>271.0</ele><time>2026-04-04T13:49:27.102Z</time></trkpt><trkpt lat="43.0636568" lon="11.5290565"><ele>271.0</ele><time>2026-04-04T13:49:28.101Z</time></trkpt><trkpt lat="43.0636812" lon="11.5292338"><ele>270.25</ele><time>2026-04-04T13:49:29.101Z</time></trkpt><trkpt lat="43.0637013" lon="11.52941"><ele>269.5</ele><time>2026-04-04T13:49:30.101Z</time></trkpt><trkpt lat="43.0637497" lon="11.5295893"><ele>268.75</ele><time>2026-04-04T13:49:31.1Z</time></trkpt><trkpt lat="43.0638084" lon="11.5297509"><ele>268.0</ele><time>2026-04-04T13:49:32.101Z</time></trkpt><trkpt lat="43.0638726" lon="11.5299172"><ele>267.0</ele><time>2026-04-04T13:49:33.102Z</time></trkpt><trkpt lat="43.0639348" lon="11.5300692"><ele>266.0</ele><time>2026-04-04T13:49:34.102Z</time></trkpt><trkpt lat="43.0640074" lon="11.5302092"><ele>265.0</ele><time>2026-04-04T13:49:35.1Z</time></trkpt><trkpt lat="43.0640691" lon="11.5303679"><ele>264.0</ele><time>2026-04-04T13:49:36.1Z</time></trkpt><trkpt lat="43.064147" lon="11.530511"><ele>264.0</ele><time>2026-04-04T13:49:37.101Z</time></trkpt><trkpt lat="43.0642363" lon="11.5306552"><ele>264.0</ele><time>2026-04-04T13:49:38.1Z</time></trkpt><trkpt lat="43.0643424" lon="11.530788"><ele>264.0</ele><time>2026-04-04T13:49:39.101Z</time></trkpt><trkpt lat="43.0644512" lon="11.5308855"><ele>264.0</ele><time>2026-04-04T13:49:40.102Z</time></trkpt><trkpt lat="43.0645746" lon="11.5309711"><ele>264.0</ele><time>2026-04-04T13:49:41.101Z</time></trkpt><trkpt lat="43.0646872" lon="11.5310652"><ele>264.0</ele><time>2026-04-04T13:49:42.102Z</time></trkpt><trkpt lat="43.0648054" lon="11.531153"><ele>264.0</ele><time>2026-04-04T13:49:43.1Z</time></trkpt><trkpt lat="43.0649164" lon="11.5312281"><ele>264.0</ele><time>2026-04-04T13:49:44.102Z</time></trkpt><trkpt lat="43.0650052" lon="11.5313196"><ele>263.2</ele><time>2026-04-04T13:49:45.1Z</time></trkpt><trkpt lat="43.0650795" lon="11.5314238"><ele>262.4</ele><time>2026-04-04T13:49:46.102Z</time></trkpt><trkpt lat="43.0651337" lon="11.5315417"><ele>261.6</ele><time>2026-04-04T13:49:47.1Z</time></trkpt><trkpt lat="43.0651732" lon="11.5316729"><ele>260.8</ele><time>2026-04-04T13:49:48.101Z</time></trkpt><trkpt lat="43.0651901" lon="11.5318015"><ele>260.0</ele><time>2026-04-04T13:49:49.102Z</time></trkpt><trkpt lat="43.0652008" lon="11.5319501"><ele>259.0</ele><time>2026-04-04T13:49:50.1Z</time></trkpt><trkpt lat="43.0652093" lon="11.5320947"><ele>258.0</ele><time>2026-04-04T13:49:51.101Z</time></trkpt><trkpt lat="43.0651831" lon="11.532261"><ele>257.0</ele><time>2026-04-04T13:49:52.1Z</time></trkpt><trkpt lat="43.0651595" lon="11.5324171"><ele>256.0</ele><time>2026-04-04T13:49:53.101Z</time></trkpt><trkpt lat="43.0651324" lon="11.5325774"><ele>256.0</ele><time>2026-04-04T13:49:54.101Z</time></trkpt><trkpt lat="43.0651181" lon="11.5327269"><ele>256.0</ele><time>2026-04-04T13:49:55.1Z</time></trkpt><trkpt lat="43.065114" lon="11.5328864"><ele>256.0</ele><time>2026-04-04T13:49:56.101Z</time></trkpt><trkpt lat="43.0651263" lon="11.5330599"><ele>256.0</ele><time>2026-04-04T13:49:57.1Z</time></trkpt><trkpt lat="43.0651502" lon="11.533232"><ele>255.5</ele><time>2026-04-04T13:49:58.1Z</time></trkpt><trkpt lat="43.0651846" lon="11.5333911"><ele>255.0</ele><time>2026-04-04T13:49:59.101Z</time></trkpt><trkpt lat="43.0652348" lon="11.5335646"><ele>254.5</ele><time>2026-04-04T13:50:00.102Z</time></trkpt><trkpt lat="43.0652792" lon="11.5337385"><ele>254.0</ele><time>2026-04-04T13:50:01.101Z</time></trkpt><trkpt lat="43.0653395" lon="11.533911"><ele>253.0</ele><time>2026-04-04T13:50:02.102Z</time></trkpt><trkpt lat="43.0653909" lon="11.5340878"><ele>252.0</ele><time>2026-04-04T13:50:03.101Z</time></trkpt><trkpt lat="43.0654386" lon="11.534267"><ele>251.0</ele><time>2026-04-04T13:50:04.101Z</time></trkpt><trkpt lat="43.0654914" lon="11.5344459"><ele>250.0</ele><time>2026-04-04T13:50:05.102Z</time></trkpt><trkpt lat="43.0655393" lon="11.5346272"><ele>249.0</ele><time>2026-04-04T13:50:06.101Z</time></trkpt><trkpt lat="43.0655887" lon="11.5348156"><ele>248.0</ele><time>2026-04-04T13:50:07.101Z</time></trkpt><trkpt lat="43.0656535" lon="11.5349813"><ele>247.0</ele><time>2026-04-04T13:50:08.101Z</time></trkpt><trkpt lat="43.0657057" lon="11.535168"><ele>246.0</ele><time>2026-04-04T13:50:09.099Z</time></trkpt><trkpt lat="43.0657576" lon="11.5353537"><ele>246.5</ele><time>2026-04-04T13:50:10.1Z</time></trkpt><trkpt lat="43.0658052" lon="11.5355372"><ele>247.0</ele><time>2026-04-04T13:50:11.1Z</time></trkpt><trkpt lat="43.0658517" lon="11.5357117"><ele>247.5</ele><time>2026-04-04T13:50:12.102Z</time></trkpt><trkpt lat="43.0659004" lon="11.5358872"><ele>248.0</ele><time>2026-04-04T13:50:13.101Z</time></trkpt><trkpt lat="43.0659515" lon="11.5360677"><ele>247.0</ele><time>2026-04-04T13:50:14.102Z</time></trkpt><trkpt lat="43.0659986" lon="11.5362564"><ele>246.0</ele><time>2026-04-04T13:50:15.101Z</time></trkpt><trkpt lat="43.0660465" lon="11.5364418"><ele>245.0</ele><time>2026-04-04T13:50:16.101Z</time></trkpt><trkpt lat="43.0660971" lon="11.5366281"><ele>244.0</ele><time>2026-04-04T13:50:17.1Z</time></trkpt><trkpt lat="43.0661511" lon="11.5368265"><ele>244.0</ele><time>2026-04-04T13:50:18.101Z</time></trkpt><trkpt lat="43.0662103" lon="11.5370188"><ele>244.0</ele><time>2026-04-04T13:50:19.1Z</time></trkpt><trkpt lat="43.066266" lon="11.537223"><ele>244.0</ele><time>2026-04-04T13:50:20.101Z</time></trkpt><trkpt lat="43.0663234" lon="11.5374153"><ele>243.75</ele><time>2026-04-04T13:50:21.101Z</time></trkpt><trkpt lat="43.0663852" lon="11.5376079"><ele>243.5</ele><time>2026-04-04T13:50:22.102Z</time></trkpt><trkpt lat="43.0664302" lon="11.5377991"><ele>243.25</ele><time>2026-04-04T13:50:23.101Z</time></trkpt><trkpt lat="43.0664837" lon="11.5379813"><ele>243.0</ele><time>2026-04-04T13:50:24.101Z</time></trkpt><trkpt lat="43.0665341" lon="11.5381589"><ele>243.0</ele><time>2026-04-04T13:50:25.101Z</time></trkpt><trkpt lat="43.0665817" lon="11.5383408"><ele>243.0</ele><time>2026-04-04T13:50:26.102Z</time></trkpt><trkpt lat="43.0666324" lon="11.5385243"><ele>243.0</ele><time>2026-04-04T13:50:27.101Z</time></trkpt><trkpt lat="43.0666824" lon="11.538707"><ele>243.0</ele><time>2026-04-04T13:50:28.101Z</time></trkpt><trkpt lat="43.0667306" lon="11.5388897"><ele>242.33333333333331</ele><time>2026-04-04T13:50:29.101Z</time></trkpt><trkpt lat="43.0667887" lon="11.5390776"><ele>241.66666666666666</ele><time>2026-04-04T13:50:30.101Z</time></trkpt><trkpt lat="43.0668366" lon="11.5392703"><ele>241.0</ele><time>2026-04-04T13:50:31.101Z</time></trkpt><trkpt lat="43.0668666" lon="11.5394774"><ele>241.33333333333331</ele><time>2026-04-04T13:50:32.102Z</time></trkpt><trkpt lat="43.066875" lon="11.5396866"><ele>241.66666666666669</ele><time>2026-04-04T13:50:33.101Z</time></trkpt><trkpt lat="43.0668693" lon="11.5399051"><ele>242.0</ele><time>2026-04-04T13:50:34.1Z</time></trkpt><trkpt lat="43.0668363" lon="11.5401272"><ele>242.0</ele><time>2026-04-04T13:50:35.1Z</time></trkpt><trkpt lat="43.0667895" lon="11.5403303"><ele>242.0</ele><time>2026-04-04T13:50:36.099Z</time></trkpt><trkpt lat="43.0667341" lon="11.5405458"><ele>242.0</ele><time>2026-04-04T13:50:37.101Z</time></trkpt><trkpt lat="43.066664" lon="11.5407512"><ele>241.33333333333334</ele><time>2026-04-04T13:50:38.099Z</time></trkpt><trkpt lat="43.0666081" lon="11.5409519"><ele>240.66666666666669</ele><time>2026-04-04T13:50:39.101Z</time></trkpt><trkpt lat="43.0665552" lon="11.5411568"><ele>240.0</ele><time>2026-04-04T13:50:40.101Z</time></trkpt><trkpt lat="43.0665084" lon="11.5413605"><ele>239.66666666666669</ele><time>2026-04-04T13:50:41.1Z</time></trkpt><trkpt lat="43.0664532" lon="11.5415748"><ele>239.33333333333334</ele><time>2026-04-04T13:50:42.1Z</time></trkpt><trkpt lat="43.0663973" lon="11.5417795"><ele>239.0</ele><time>2026-04-04T13:50:43.099Z</time></trkpt><trkpt lat="43.066341" lon="11.5419905"><ele>239.0</ele><time>2026-04-04T13:50:44.101Z</time></trkpt><trkpt lat="43.0662846" lon="11.5422006"><ele>239.0</ele><time>2026-04-04T13:50:45.102Z</time></trkpt><trkpt lat="43.0662321" lon="11.5424045"><ele>239.0</ele><time>2026-04-04T13:50:46.1Z</time></trkpt><trkpt lat="43.066183" lon="11.5426024"><ele>239.0</ele><time>2026-04-04T13:50:47.1Z</time></trkpt><trkpt lat="43.0661296" lon="11.5427955"><ele>239.0</ele><time>2026-04-04T13:50:48.1Z</time></trkpt><trkpt lat="43.0660748" lon="11.5429909"><ele>239.0</ele><time>2026-04-04T13:50:49.099Z</time></trkpt><trkpt lat="43.0660232" lon="11.5431858"><ele>239.0</ele><time>2026-04-04T13:50:50.101Z</time></trkpt><trkpt lat="43.0659833" lon="11.543374"><ele>239.0</ele><time>2026-04-04T13:50:51.102Z</time></trkpt><trkpt lat="43.0659408" lon="11.543579"><ele>239.0</ele><time>2026-04-04T13:50:52.101Z</time></trkpt><trkpt lat="43.065917" lon="11.5437781"><ele>239.0</ele><time>2026-04-04T13:50:53.101Z</time></trkpt><trkpt lat="43.065902" lon="11.5439787"><ele>239.33333333333334</ele><time>2026-04-04T13:50:54.1Z</time></trkpt><trkpt lat="43.0659068" lon="11.544183"><ele>239.66666666666669</ele><time>2026-04-04T13:50:55.101Z</time></trkpt><trkpt lat="43.0659245" lon="11.5443859"><ele>240.0</ele><time>2026-04-04T13:50:56.101Z</time></trkpt><trkpt lat="43.0659527" lon="11.5445907"><ele>240.33333333333331</ele><time>2026-04-04T13:50:57.1Z</time></trkpt><trkpt lat="43.0659731" lon="11.5448008"><ele>240.66666666666666</ele><time>2026-04-04T13:50:58.101Z</time></trkpt><trkpt lat="43.0659878" lon="11.5450101"><ele>241.0</ele><time>2026-04-04T13:50:59.1Z</time></trkpt><trkpt lat="43.0660055" lon="11.5452199"><ele>241.0</ele><time>2026-04-04T13:51:00.101Z</time></trkpt><trkpt lat="43.0660274" lon="11.5454226"><ele>241.0</ele><time>2026-04-04T13:51:01.1Z</time></trkpt><trkpt lat="43.0660528" lon="11.5456355"><ele>241.0</ele><time>2026-04-04T13:51:02.1Z</time></trkpt><trkpt lat="43.0660746" lon="11.5458412"><ele>241.0</ele><time>2026-04-04T13:51:03.101Z</time></trkpt><trkpt lat="43.066094" lon="11.5460476"><ele>241.0</ele><time>2026-04-04T13:51:04.1Z</time></trkpt><trkpt lat="43.0661147" lon="11.546245"><ele>241.0</ele><time>2026-04-04T13:51:05.1Z</time></trkpt><trkpt lat="43.0661274" lon="11.5464288"><ele>241.0</ele><time>2026-04-04T13:51:06.1Z</time></trkpt><trkpt lat="43.0661446" lon="11.5465968"><ele>240.8</ele><time>2026-04-04T13:51:07.1Z</time></trkpt><trkpt lat="43.0661613" lon="11.5467716"><ele>240.60000000000002</ele><time>2026-04-04T13:51:08.1Z</time></trkpt><trkpt lat="43.066171" lon="11.5469273"><ele>240.4</ele><time>2026-04-04T13:51:09.1Z</time></trkpt><trkpt lat="43.066189" lon="11.5470646"><ele>240.2</ele><time>2026-04-04T13:51:10.101Z</time></trkpt><trkpt lat="43.0662076" lon="11.5471895"><ele>240.0</ele><time>2026-04-04T13:51:11.1Z</time></trkpt><trkpt lat="43.0662335" lon="11.5473019"><ele>239.75</ele><time>2026-04-04T13:51:12.1Z</time></trkpt><trkpt lat="43.0662639" lon="11.5474356"><ele>239.5</ele><time>2026-04-04T13:51:13.1Z</time></trkpt><trkpt lat="43.0663166" lon="11.5475699"><ele>239.25</ele><time>2026-04-04T13:51:14.1Z</time></trkpt><trkpt lat="43.0663619" lon="11.5477059"><ele>239.0</ele><time>2026-04-04T13:51:15.101Z</time></trkpt><trkpt lat="43.066438" lon="11.547846"><ele>238.5</ele><time>2026-04-04T13:51:16.101Z</time></trkpt><trkpt lat="43.0665318" lon="11.5479689"><ele>238.0</ele><time>2026-04-04T13:51:17.099Z</time></trkpt><trkpt lat="43.0666384" lon="11.5480742"><ele>237.5</ele><time>2026-04-04T13:51:18.1Z</time></trkpt><trkpt lat="43.0667532" lon="11.5481667"><ele>237.0</ele><time>2026-04-04T13:51:19.1Z</time></trkpt><trkpt lat="43.0668811" lon="11.5482168"><ele>237.25</ele><time>2026-04-04T13:51:20.1Z</time></trkpt><trkpt lat="43.06702" lon="11.548242"><ele>237.5</ele><time>2026-04-04T13:51:21.101Z</time></trkpt><trkpt lat="43.0671638" lon="11.548244"><ele>237.75</ele><time>2026-04-04T13:51:22.1Z</time></trkpt><trkpt lat="43.0673243" lon="11.5482197"><ele>238.0</ele><time>2026-04-04T13:51:23.1Z</time></trkpt><trkpt lat="43.0674883" lon="11.5481802"><ele>238.0</ele><time>2026-04-04T13:51:24.099Z</time></trkpt><trkpt lat="43.0676629" lon="11.5481402"><ele>238.0</ele><time>2026-04-04T13:51:25.101Z</time></trkpt><trkpt lat="43.0678474" lon="11.5481052"><ele>238.0</ele><time>2026-04-04T13:51:26.099Z</time></trkpt><trkpt lat="43.0680322" lon="11.5480698"><ele>238.0</ele><time>2026-04-04T13:51:27.1Z</time></trkpt><trkpt lat="43.0682454" lon="11.5480322"><ele>238.0</ele><time>2026-04-04T13:51:28.101Z</time></trkpt><trkpt lat="43.0684232" lon="11.5479952"><ele>238.0</ele><time>2026-04-04T13:51:29.101Z</time></trkpt><trkpt lat="43.0685841" lon="11.5479738"><ele>238.25</ele><time>2026-04-04T13:51:30.101Z</time></trkpt><trkpt lat="43.068724" lon="11.5479026"><ele>238.5</ele><time>2026-04-04T13:51:31.1Z</time></trkpt><trkpt lat="43.0688462" lon="11.5478142"><ele>238.75</ele><time>2026-04-04T13:51:32.1Z</time></trkpt><trkpt lat="43.0689495" lon="11.5477017"><ele>239.0</ele><time>2026-04-04T13:51:33.099Z</time></trkpt><trkpt lat="43.0690479" lon="11.5475657"><ele>239.75</ele><time>2026-04-04T13:51:34.099Z</time></trkpt><trkpt lat="43.0691459" lon="11.5474197"><ele>240.5</ele><time>2026-04-04T13:51:35.101Z</time></trkpt><trkpt lat="43.0692529" lon="11.5472904"><ele>241.25</ele><time>2026-04-04T13:51:36.1Z</time></trkpt><trkpt lat="43.0693645" lon="11.5471608"><ele>242.0</ele><time>2026-04-04T13:51:37.1Z</time></trkpt><trkpt lat="43.0694913" lon="11.5470455"><ele>242.33333333333334</ele><time>2026-04-04T13:51:38.099Z</time></trkpt><trkpt lat="43.0696514" lon="11.5469756"><ele>242.66666666666669</ele><time>2026-04-04T13:51:39.1Z</time></trkpt><trkpt lat="43.0698002" lon="11.5469347"><ele>243.0</ele><time>2026-04-04T13:51:40.099Z</time></trkpt><trkpt lat="43.0699631" lon="11.5469195"><ele>243.0</ele><time>2026-04-04T13:51:41.1Z</time></trkpt><trkpt lat="43.0701196" lon="11.5469055"><ele>243.0</ele><time>2026-04-04T13:51:42.101Z</time></trkpt><trkpt lat="43.0702586" lon="11.5469013"><ele>243.0</ele><time>2026-04-04T13:51:43.101Z</time></trkpt><trkpt lat="43.0704038" lon="11.5469015"><ele>243.0</ele><time>2026-04-04T13:51:44.098Z</time></trkpt><trkpt lat="43.0705412" lon="11.5469089"><ele>243.0</ele><time>2026-04-04T13:51:45.1Z</time></trkpt><trkpt lat="43.0706772" lon="11.546925"><ele>243.0</ele><time>2026-04-04T13:51:46.099Z</time></trkpt><trkpt lat="43.0708188" lon="11.5469546"><ele>243.0</ele><time>2026-04-04T13:51:47.1Z</time></trkpt><trkpt lat="43.0709556" lon="11.54698"><ele>243.0</ele><time>2026-04-04T13:51:48.099Z</time></trkpt><trkpt lat="43.0711063" lon="11.5470303"><ele>242.66666666666669</ele><time>2026-04-04T13:51:49.098Z</time></trkpt><trkpt lat="43.0712611" lon="11.5470848"><ele>242.33333333333334</ele><time>2026-04-04T13:51:50.101Z</time></trkpt><trkpt lat="43.0714191" lon="11.5471305"><ele>242.0</ele><time>2026-04-04T13:51:51.1Z</time></trkpt><trkpt lat="43.0715807" lon="11.5471831"><ele>241.66666666666669</ele><time>2026-04-04T13:51:52.1Z</time></trkpt><trkpt lat="43.0717396" lon="11.5472355"><ele>241.33333333333331</ele><time>2026-04-04T13:51:53.101Z</time></trkpt><trkpt lat="43.0719037" lon="11.5472865"><ele>241.0</ele><time>2026-04-04T13:51:54.1Z</time></trkpt><trkpt lat="43.0720791" lon="11.5473349"><ele>241.0</ele><time>2026-04-04T13:51:55.1Z</time></trkpt><trkpt lat="43.0722468" lon="11.5473785"><ele>241.0</ele><time>2026-04-04T13:51:56.101Z</time></trkpt><trkpt lat="43.0724218" lon="11.5474267"><ele>241.0</ele><time>2026-04-04T13:51:57.099Z</time></trkpt><trkpt lat="43.0725981" lon="11.5474593"><ele>242.0</ele><time>2026-04-04T13:51:58.1Z</time></trkpt><trkpt lat="43.0727787" lon="11.5474861"><ele>243.0</ele><time>2026-04-04T13:51:59.1Z</time></trkpt><trkpt lat="43.0729649" lon="11.5475046"><ele>244.0</ele><time>2026-04-04T13:52:00.1Z</time></trkpt><trkpt lat="43.0731436" lon="11.5475118"><ele>245.33333333333331</ele><time>2026-04-04T13:52:01.1Z</time></trkpt><trkpt lat="43.0733344" lon="11.5475155"><ele>246.66666666666669</ele><time>2026-04-04T13:52:02.098Z</time></trkpt><trkpt lat="43.0735258" lon="11.5475087"><ele>248.0</ele><time>2026-04-04T13:52:03.099Z</time></trkpt><trkpt lat="43.0737167" lon="11.5474896"><ele>248.0</ele><time>2026-04-04T13:52:04.1Z</time></trkpt><trkpt lat="43.0739086" lon="11.5474664"><ele>248.0</ele><time>2026-04-04T13:52:05.099Z</time></trkpt><trkpt lat="43.0740966" lon="11.5474331"><ele>248.0</ele><time>2026-04-04T13:52:06.1Z</time></trkpt><trkpt lat="43.0742823" lon="11.5473885"><ele>248.33333333333334</ele><time>2026-04-04T13:52:07.101Z</time></trkpt><trkpt lat="43.0744651" lon="11.5473401"><ele>248.66666666666669</ele><time>2026-04-04T13:52:08.099Z</time></trkpt><trkpt lat="43.074645" lon="11.5472949"><ele>249.0</ele><time>2026-04-04T13:52:09.099Z</time></trkpt><trkpt lat="43.0748212" lon="11.5472515"><ele>248.33333333333331</ele><time>2026-04-04T13:52:10.099Z</time></trkpt><trkpt lat="43.0750032" lon="11.5472133"><ele>247.66666666666666</ele><time>2026-04-04T13:52:11.1Z</time></trkpt><trkpt lat="43.0751839" lon="11.5471722"><ele>247.0</ele><time>2026-04-04T13:52:12.1Z</time></trkpt><trkpt lat="43.0753567" lon="11.5471208"><ele>247.0</ele><time>2026-04-04T13:52:13.1Z</time></trkpt><trkpt lat="43.0755353" lon="11.54708"><ele>247.0</ele><time>2026-04-04T13:52:14.101Z</time></trkpt><trkpt lat="43.0757061" lon="11.547036"><ele>247.0</ele><time>2026-04-04T13:52:15.099Z</time></trkpt><trkpt lat="43.0758807" lon="11.54699"><ele>248.0</ele><time>2026-04-04T13:52:16.099Z</time></trkpt><trkpt lat="43.0760495" lon="11.5469435"><ele>249.0</ele><time>2026-04-04T13:52:17.099Z</time></trkpt><trkpt lat="43.0762217" lon="11.5469033"><ele>250.0</ele><time>2026-04-04T13:52:18.099Z</time></trkpt><trkpt lat="43.0763912" lon="11.5468633"><ele>250.0</ele><time>2026-04-04T13:52:19.099Z</time></trkpt><trkpt lat="43.0765585" lon="11.5468248"><ele>250.0</ele><time>2026-04-04T13:52:20.098Z</time></trkpt><trkpt lat="43.076728" lon="11.5467927"><ele>250.0</ele><time>2026-04-04T13:52:21.099Z</time></trkpt><trkpt lat="43.0768883" lon="11.546755"><ele>248.66666666666666</ele><time>2026-04-04T13:52:22.099Z</time></trkpt><trkpt lat="43.0770505" lon="11.546721"><ele>247.33333333333331</ele><time>2026-04-04T13:52:23.099Z</time></trkpt><trkpt lat="43.0772172" lon="11.5466836"><ele>246.0</ele><time>2026-04-04T13:52:24.1Z</time></trkpt><trkpt lat="43.0773842" lon="11.5466502"><ele>245.0</ele><time>2026-04-04T13:52:25.1Z</time></trkpt><trkpt lat="43.0775588" lon="11.5466117"><ele>244.0</ele><time>2026-04-04T13:52:26.1Z</time></trkpt><trkpt lat="43.0777293" lon="11.546593"><ele>243.0</ele><time>2026-04-04T13:52:27.101Z</time></trkpt><trkpt lat="43.0778881" lon="11.5465871"><ele>243.0</ele><time>2026-04-04T13:52:28.099Z</time></trkpt><trkpt lat="43.0780483" lon="11.5465889"><ele>243.0</ele><time>2026-04-04T13:52:29.1Z</time></trkpt><trkpt lat="43.078214" lon="11.5465911"><ele>243.0</ele><time>2026-04-04T13:52:30.101Z</time></trkpt><trkpt lat="43.0783818" lon="11.5465999"><ele>243.0</ele><time>2026-04-04T13:52:31.099Z</time></trkpt><trkpt lat="43.0785522" lon="11.546614"><ele>243.0</ele><time>2026-04-04T13:52:32.099Z</time></trkpt><trkpt lat="43.0787227" lon="11.5466439"><ele>243.0</ele><time>2026-04-04T13:52:33.099Z</time></trkpt><trkpt lat="43.0788945" lon="11.5466873"><ele>243.0</ele><time>2026-04-04T13:52:34.1Z</time></trkpt><trkpt lat="43.0790668" lon="11.5467396"><ele>243.0</ele><time>2026-04-04T13:52:35.101Z</time></trkpt><trkpt lat="43.0792473" lon="11.5467938"><ele>243.0</ele><time>2026-04-04T13:52:36.098Z</time></trkpt><trkpt lat="43.0794309" lon="11.546863"><ele>243.33333333333331</ele><time>2026-04-04T13:52:37.098Z</time></trkpt><trkpt lat="43.0796195" lon="11.5469316"><ele>243.66666666666666</ele><time>2026-04-04T13:52:38.099Z</time></trkpt><trkpt lat="43.079802" lon="11.5469892"><ele>244.0</ele><time>2026-04-04T13:52:39.099Z</time></trkpt><trkpt lat="43.0799887" lon="11.547052"><ele>244.0</ele><time>2026-04-04T13:52:40.101Z</time></trkpt><trkpt lat="43.08018" lon="11.5471166"><ele>244.0</ele><time>2026-04-04T13:52:41.1Z</time></trkpt><trkpt lat="43.0803809" lon="11.5471832"><ele>244.0</ele><time>2026-04-04T13:52:42.101Z</time></trkpt><trkpt lat="43.0805793" lon="11.5472283"><ele>245.66666666666666</ele><time>2026-04-04T13:52:43.099Z</time></trkpt><trkpt lat="43.0807715" lon="11.5472637"><ele>247.33333333333331</ele><time>2026-04-04T13:52:44.101Z</time></trkpt><trkpt lat="43.0809644" lon="11.5472933"><ele>249.0</ele><time>2026-04-04T13:52:45.1Z</time></trkpt><trkpt lat="43.0811521" lon="11.5473024"><ele>249.0</ele><time>2026-04-04T13:52:46.099Z</time></trkpt><trkpt lat="43.0813483" lon="11.5473018"><ele>249.0</ele><time>2026-04-04T13:52:47.099Z</time></trkpt><trkpt lat="43.0815332" lon="11.5472893"><ele>249.0</ele><time>2026-04-04T13:52:48.1Z</time></trkpt><trkpt lat="43.0817042" lon="11.5472749"><ele>249.66666666666669</ele><time>2026-04-04T13:52:49.099Z</time></trkpt><trkpt lat="43.0818574" lon="11.5472646"><ele>250.33333333333334</ele><time>2026-04-04T13:52:50.098Z</time></trkpt><trkpt lat="43.0820072" lon="11.5472356"><ele>251.0</ele><time>2026-04-04T13:52:51.101Z</time></trkpt><trkpt lat="43.082157" lon="11.5472123"><ele>251.0</ele><time>2026-04-04T13:52:52.098Z</time></trkpt><trkpt lat="43.082301" lon="11.5471814"><ele>251.0</ele><time>2026-04-04T13:52:53.1Z</time></trkpt><trkpt lat="43.0824444" lon="11.5471275"><ele>251.0</ele><time>2026-04-04T13:52:54.1Z</time></trkpt><trkpt lat="43.0825791" lon="11.5470673"><ele>251.0</ele><time>2026-04-04T13:52:55.1Z</time></trkpt><trkpt lat="43.0827162" lon="11.5470017"><ele>256.0</ele><time>2026-04-04T13:52:56.1Z</time></trkpt><trkpt lat="43.0828551" lon="11.5469235"><ele>261.0</ele><time>2026-04-04T13:52:57.099Z</time></trkpt><trkpt lat="43.0829918" lon="11.5468392"><ele>266.0</ele><time>2026-04-04T13:52:58.1Z</time></trkpt><trkpt lat="43.0831279" lon="11.5467544"><ele>266.0</ele><time>2026-04-04T13:52:59.099Z</time></trkpt><trkpt lat="43.0832614" lon="11.5466608"><ele>266.0</ele><time>2026-04-04T13:53:00.101Z</time></trkpt><trkpt lat="43.0833954" lon="11.5465639"><ele>266.0</ele><time>2026-04-04T13:53:01.1Z</time></trkpt><trkpt lat="43.0835265" lon="11.5464538"><ele>266.5</ele><time>2026-04-04T13:53:02.1Z</time></trkpt><trkpt lat="43.0836552" lon="11.5463414"><ele>267.0</ele><time>2026-04-04T13:53:03.098Z</time></trkpt><trkpt lat="43.0837772" lon="11.5462211"><ele>267.5</ele><time>2026-04-04T13:53:04.101Z</time></trkpt><trkpt lat="43.0838944" lon="11.5461014"><ele>268.0</ele><time>2026-04-04T13:53:05.098Z</time></trkpt><trkpt lat="43.0839987" lon="11.5459869"><ele>268.0</ele><time>2026-04-04T13:53:06.099Z</time></trkpt><trkpt lat="43.0840926" lon="11.5458793"><ele>268.0</ele><time>2026-04-04T13:53:07.1Z</time></trkpt><trkpt lat="43.0841729" lon="11.5457869"><ele>268.0</ele><time>2026-04-04T13:53:08.1Z</time></trkpt><trkpt lat="43.0842407" lon="11.5457003"><ele>268.0</ele><time>2026-04-04T13:53:09.101Z</time></trkpt><trkpt lat="43.084293" lon="11.5456395"><ele>268.0</ele><time>2026-04-04T13:53:10.1Z</time></trkpt><trkpt lat="43.0843555" lon="11.5455597"><ele>268.0</ele><time>2026-04-04T13:53:12.099Z</time></trkpt><trkpt lat="43.0843165" lon="11.5454895"><ele>268.0</ele><time>2026-04-04T13:53:27.1Z</time></trkpt><trkpt lat="43.0842352" lon="11.5455749"><ele>268.0</ele><time>2026-04-04T13:53:29.098Z</time></trkpt><trkpt lat="43.0841403" lon="11.5457029"><ele>268.0</ele><time>2026-04-04T13:53:31.101Z</time></trkpt><trkpt lat="43.0840815" lon="11.5457766"><ele>268.0</ele><time>2026-04-04T13:53:32.099Z</time></trkpt><trkpt lat="43.0840157" lon="11.5458562"><ele>268.0</ele><time>2026-04-04T13:53:33.099Z</time></trkpt><trkpt lat="43.0839532" lon="11.5459442"><ele>268.0</ele><time>2026-04-04T13:53:34.099Z</time></trkpt><trkpt lat="43.083883" lon="11.5460186"><ele>268.0</ele><time>2026-04-04T13:53:35.1Z</time></trkpt><trkpt lat="43.0838126" lon="11.546092"><ele>268.0</ele><time>2026-04-04T13:53:36.1Z</time></trkpt><trkpt lat="43.0837379" lon="11.5461631"><ele>268.0</ele><time>2026-04-04T13:53:37.099Z</time></trkpt><trkpt lat="43.0836724" lon="11.5462302"><ele>268.0</ele><time>2026-04-04T13:53:38.1Z</time></trkpt><trkpt lat="43.0836053" lon="11.5463047"><ele>267.6</ele><time>2026-04-04T13:53:39.1Z</time></trkpt><trkpt lat="43.0835189" lon="11.546366"><ele>267.20000000000005</ele><time>2026-04-04T13:53:40.099Z</time></trkpt><trkpt lat="43.0834357" lon="11.5464233"><ele>266.8</ele><time>2026-04-04T13:53:41.099Z</time></trkpt><trkpt lat="43.0833486" lon="11.5464919"><ele>266.40000000000003</ele><time>2026-04-04T13:53:42.098Z</time></trkpt><trkpt lat="43.0832592" lon="11.5465647"><ele>266.0</ele><time>2026-04-04T13:53:43.099Z</time></trkpt><trkpt lat="43.0831737" lon="11.5466341"><ele>266.0</ele><time>2026-04-04T13:53:44.099Z</time></trkpt><trkpt lat="43.0830737" lon="11.5467085"><ele>266.0</ele><time>2026-04-04T13:53:45.099Z</time></trkpt><trkpt lat="43.0829604" lon="11.5467638"><ele>266.0</ele><time>2026-04-04T13:53:46.1Z</time></trkpt><trkpt lat="43.0828441" lon="11.5468144"><ele>266.0</ele><time>2026-04-04T13:53:47.099Z</time></trkpt><trkpt lat="43.0827551" lon="11.5468815"><ele>266.0</ele><time>2026-04-04T13:53:48.1Z</time></trkpt><trkpt lat="43.0826374" lon="11.5469409"><ele>266.0</ele><time>2026-04-04T13:53:49.099Z</time></trkpt><trkpt lat="43.082524" lon="11.5469946"><ele>266.0</ele><time>2026-04-04T13:53:50.1Z</time></trkpt><trkpt lat="43.082399" lon="11.5470403"><ele>266.0</ele><time>2026-04-04T13:53:51.099Z</time></trkpt><trkpt lat="43.0822737" lon="11.547079"><ele>262.25</ele><time>2026-04-04T13:53:52.099Z</time></trkpt><trkpt lat="43.0821442" lon="11.5471181"><ele>258.5</ele><time>2026-04-04T13:53:53.098Z</time></trkpt><trkpt lat="43.0820072" lon="11.5471486"><ele>254.75</ele><time>2026-04-04T13:53:54.1Z</time></trkpt><trkpt lat="43.0818977" lon="11.5471874"><ele>251.0</ele><time>2026-04-04T13:53:55.099Z</time></trkpt><trkpt lat="43.0817643" lon="11.5472172"><ele>251.0</ele><time>2026-04-04T13:53:56.099Z</time></trkpt><trkpt lat="43.0816359" lon="11.5472435"><ele>251.0</ele><time>2026-04-04T13:53:57.099Z</time></trkpt><trkpt lat="43.0815075" lon="11.5472464"><ele>251.0</ele><time>2026-04-04T13:53:58.098Z</time></trkpt><trkpt lat="43.0813652" lon="11.5472561"><ele>251.0</ele><time>2026-04-04T13:53:59.099Z</time></trkpt><trkpt lat="43.0812346" lon="11.5472585"><ele>250.5</ele><time>2026-04-04T13:54:00.1Z</time></trkpt><trkpt lat="43.0811087" lon="11.5472454"><ele>250.0</ele><time>2026-04-04T13:54:01.1Z</time></trkpt><trkpt lat="43.0809769" lon="11.5472433"><ele>249.5</ele><time>2026-04-04T13:54:02.1Z</time></trkpt><trkpt lat="43.0808457" lon="11.5472236"><ele>249.0</ele><time>2026-04-04T13:54:03.098Z</time></trkpt><trkpt lat="43.0807089" lon="11.5471955"><ele>249.0</ele><time>2026-04-04T13:54:04.099Z</time></trkpt><trkpt lat="43.0805839" lon="11.5471547"><ele>249.0</ele><time>2026-04-04T13:54:05.099Z</time></trkpt><trkpt lat="43.0804377" lon="11.5471225"><ele>249.0</ele><time>2026-04-04T13:54:06.099Z</time></trkpt><trkpt lat="43.0802831" lon="11.5470848"><ele>249.0</ele><time>2026-04-04T13:54:07.099Z</time></trkpt><trkpt lat="43.0801218" lon="11.5470311"><ele>249.0</ele><time>2026-04-04T13:54:08.098Z</time></trkpt><trkpt lat="43.0799631" lon="11.5469762"><ele>249.0</ele><time>2026-04-04T13:54:09.1Z</time></trkpt><trkpt lat="43.0798164" lon="11.5469341"><ele>249.0</ele><time>2026-04-04T13:54:10.098Z</time></trkpt><trkpt lat="43.0796493" lon="11.5468764"><ele>247.33333333333331</ele><time>2026-04-04T13:54:11.099Z</time></trkpt><trkpt lat="43.079492" lon="11.5468287"><ele>245.66666666666666</ele><time>2026-04-04T13:54:12.098Z</time></trkpt><trkpt lat="43.0793451" lon="11.5467778"><ele>244.0</ele><time>2026-04-04T13:54:13.1Z</time></trkpt><trkpt lat="43.0792005" lon="11.5467279"><ele>243.75</ele><time>2026-04-04T13:54:14.098Z</time></trkpt><trkpt lat="43.0790696" lon="11.5466791"><ele>243.5</ele><time>2026-04-04T13:54:15.099Z</time></trkpt><trkpt lat="43.0789374" lon="11.5466437"><ele>243.25</ele><time>2026-04-04T13:54:16.099Z</time></trkpt><trkpt lat="43.078812" lon="11.5466121"><ele>243.0</ele><time>2026-04-04T13:54:17.099Z</time></trkpt><trkpt lat="43.0787137" lon="11.5465869"><ele>243.0</ele><time>2026-04-04T13:54:18.099Z</time></trkpt><trkpt lat="43.0785961" lon="11.5465611"><ele>243.0</ele><time>2026-04-04T13:54:19.1Z</time></trkpt><trkpt lat="43.0784724" lon="11.5465354"><ele>243.0</ele><time>2026-04-04T13:54:20.098Z</time></trkpt><trkpt lat="43.0783317" lon="11.5465155"><ele>243.0</ele><time>2026-04-04T13:54:21.1Z</time></trkpt><trkpt lat="43.0781826" lon="11.5465084"><ele>243.0</ele><time>2026-04-04T13:54:22.099Z</time></trkpt><trkpt lat="43.0780356" lon="11.546507"><ele>243.0</ele><time>2026-04-04T13:54:23.099Z</time></trkpt><trkpt lat="43.0778924" lon="11.5464992"><ele>243.0</ele><time>2026-04-04T13:54:24.099Z</time></trkpt><trkpt lat="43.0777477" lon="11.5465075"><ele>243.0</ele><time>2026-04-04T13:54:25.099Z</time></trkpt><trkpt lat="43.0776044" lon="11.5465227"><ele>243.0</ele><time>2026-04-04T13:54:26.098Z</time></trkpt><trkpt lat="43.077468" lon="11.5465378"><ele>243.0</ele><time>2026-04-04T13:54:27.099Z</time></trkpt><trkpt lat="43.0773453" lon="11.5465667"><ele>243.0</ele><time>2026-04-04T13:54:28.098Z</time></trkpt><trkpt lat="43.0772293" lon="11.5465847"><ele>243.0</ele><time>2026-04-04T13:54:29.098Z</time></trkpt><trkpt lat="43.0771399" lon="11.5465802"><ele>243.5</ele><time>2026-04-04T13:54:30.097Z</time></trkpt><trkpt lat="43.0770481" lon="11.5465617"><ele>244.0</ele><time>2026-04-04T13:54:31.097Z</time></trkpt><trkpt lat="43.0769756" lon="11.5465607"><ele>244.5</ele><time>2026-04-04T13:54:32.098Z</time></trkpt><trkpt lat="43.076863" lon="11.5465556"><ele>245.0</ele><time>2026-04-04T13:54:34.099Z</time></trkpt><trkpt lat="43.0767975" lon="11.5465934"><ele>245.5</ele><time>2026-04-04T13:55:19.099Z</time></trkpt><trkpt lat="43.076723" lon="11.5466154"><ele>246.0</ele><time>2026-04-04T13:55:21.098Z</time></trkpt><trkpt lat="43.0766637" lon="11.5466685"><ele>246.0</ele><time>2026-04-04T13:55:24.097Z</time></trkpt><trkpt lat="43.076735" lon="11.546723"><ele>246.0</ele><time>2026-04-04T13:55:47.098Z</time></trkpt><trkpt lat="43.0768012" lon="11.5467206"><ele>246.0</ele><time>2026-04-04T13:55:48.098Z</time></trkpt><trkpt lat="43.0768799" lon="11.546707"><ele>246.0</ele><time>2026-04-04T13:55:49.097Z</time></trkpt><trkpt lat="43.076973" lon="11.5466862"><ele>246.0</ele><time>2026-04-04T13:55:50.098Z</time></trkpt><trkpt lat="43.0770796" lon="11.5466666"><ele>246.0</ele><time>2026-04-04T13:55:51.099Z</time></trkpt><trkpt lat="43.0772053" lon="11.5466535"><ele>246.0</ele><time>2026-04-04T13:55:52.099Z</time></trkpt><trkpt lat="43.0773401" lon="11.5466266"><ele>246.0</ele><time>2026-04-04T13:55:53.098Z</time></trkpt><trkpt lat="43.0774851" lon="11.546598"><ele>246.0</ele><time>2026-04-04T13:55:54.098Z</time></trkpt><trkpt lat="43.0776305" lon="11.5465789"><ele>246.0</ele><time>2026-04-04T13:55:55.097Z</time></trkpt><trkpt lat="43.0777935" lon="11.5465721"><ele>245.0</ele><time>2026-04-04T13:55:56.097Z</time></trkpt><trkpt lat="43.0779625" lon="11.5465876"><ele>244.0</ele><time>2026-04-04T13:55:57.098Z</time></trkpt><trkpt lat="43.0781282" lon="11.5466099"><ele>243.0</ele><time>2026-04-04T13:55:58.098Z</time></trkpt><trkpt lat="43.0782925" lon="11.5466328"><ele>243.0</ele><time>2026-04-04T13:55:59.097Z</time></trkpt><trkpt lat="43.0784489" lon="11.546648"><ele>243.0</ele><time>2026-04-04T13:56:00.097Z</time></trkpt><trkpt lat="43.0786088" lon="11.5466833"><ele>243.0</ele><time>2026-04-04T13:56:01.099Z</time></trkpt><trkpt lat="43.0787611" lon="11.5467267"><ele>243.0</ele><time>2026-04-04T13:56:02.098Z</time></trkpt><trkpt lat="43.0789168" lon="11.5467546"><ele>243.0</ele><time>2026-04-04T13:56:03.097Z</time></trkpt><trkpt lat="43.0790665" lon="11.5468014"><ele>243.0</ele><time>2026-04-04T13:56:04.098Z</time></trkpt><trkpt lat="43.0792154" lon="11.5468545"><ele>243.33333333333331</ele><time>2026-04-04T13:56:05.099Z</time></trkpt><trkpt lat="43.0793631" lon="11.5469048"><ele>243.66666666666666</ele><time>2026-04-04T13:56:06.099Z</time></trkpt><trkpt lat="43.0795123" lon="11.5469614"><ele>244.0</ele><time>2026-04-04T13:56:07.098Z</time></trkpt><trkpt lat="43.0796542" lon="11.5470088"><ele>244.0</ele><time>2026-04-04T13:56:08.097Z</time></trkpt><trkpt lat="43.079786" lon="11.5470644"><ele>244.0</ele><time>2026-04-04T13:56:09.097Z</time></trkpt><trkpt lat="43.0799089" lon="11.5471357"><ele>244.0</ele><time>2026-04-04T13:56:10.098Z</time></trkpt><trkpt lat="43.08002" lon="11.5472195"><ele>244.0</ele><time>2026-04-04T13:56:11.098Z</time></trkpt><trkpt lat="43.0801336" lon="11.5473312"><ele>244.0</ele><time>2026-04-04T13:56:12.098Z</time></trkpt><trkpt lat="43.0802287" lon="11.5474491"><ele>244.0</ele><time>2026-04-04T13:56:13.098Z</time></trkpt><trkpt lat="43.0803244" lon="11.5475526"><ele>244.0</ele><time>2026-04-04T13:56:14.099Z</time></trkpt><trkpt lat="43.0804286" lon="11.5476525"><ele>244.0</ele><time>2026-04-04T13:56:15.098Z</time></trkpt><trkpt lat="43.0805405" lon="11.5477439"><ele>244.0</ele><time>2026-04-04T13:56:16.098Z</time></trkpt><trkpt lat="43.0806634" lon="11.5478187"><ele>244.0</ele><time>2026-04-04T13:56:17.099Z</time></trkpt><trkpt lat="43.0807881" lon="11.5479"><ele>244.0</ele><time>2026-04-04T13:56:18.098Z</time></trkpt><trkpt lat="43.0809196" lon="11.5479622"><ele>244.0</ele><time>2026-04-04T13:56:19.098Z</time></trkpt><trkpt lat="43.0810406" lon="11.5480356"><ele>243.75</ele><time>2026-04-04T13:56:20.097Z</time></trkpt><trkpt lat="43.0811671" lon="11.5480933"><ele>243.5</ele><time>2026-04-04T13:56:21.098Z</time></trkpt><trkpt lat="43.0813011" lon="11.5481427"><ele>243.25</ele><time>2026-04-04T13:56:22.099Z</time></trkpt><trkpt lat="43.0814336" lon="11.5481788"><ele>243.0</ele><time>2026-04-04T13:56:23.098Z</time></trkpt><trkpt lat="43.0815754" lon="11.5482076"><ele>244.0</ele><time>2026-04-04T13:56:24.098Z</time></trkpt><trkpt lat="43.081711" lon="11.5482297"><ele>245.0</ele><time>2026-04-04T13:56:25.099Z</time></trkpt><trkpt lat="43.0818286" lon="11.5482554"><ele>246.0</ele><time>2026-04-04T13:56:26.097Z</time></trkpt><trkpt lat="43.0819484" lon="11.54828"><ele>247.0</ele><time>2026-04-04T13:56:27.098Z</time></trkpt><trkpt lat="43.0820557" lon="11.5483033"><ele>246.99999999999997</ele><time>2026-04-04T13:56:28.098Z</time></trkpt><trkpt lat="43.0821438" lon="11.548323"><ele>247.0</ele><time>2026-04-04T13:56:29.097Z</time></trkpt><trkpt lat="43.0822332" lon="11.5483503"><ele>247.0</ele><time>2026-04-04T13:56:31.098Z</time></trkpt><trkpt lat="43.0823072" lon="11.5483398"><ele>247.0</ele><time>2026-04-04T13:56:38.098Z</time></trkpt><trkpt lat="43.0823687" lon="11.548361"><ele>246.99999999999997</ele><time>2026-04-04T13:56:39.097Z</time></trkpt><trkpt lat="43.0824402" lon="11.5483754"><ele>247.0</ele><time>2026-04-04T13:56:40.098Z</time></trkpt><trkpt lat="43.0825145" lon="11.5483823"><ele>247.49999999999997</ele><time>2026-04-04T13:56:41.099Z</time></trkpt><trkpt lat="43.0825988" lon="11.5483799"><ele>248.0</ele><time>2026-04-04T13:56:42.098Z</time></trkpt><trkpt lat="43.0826867" lon="11.5483778"><ele>248.5</ele><time>2026-04-04T13:56:43.099Z</time></trkpt><trkpt lat="43.0827797" lon="11.5483629"><ele>249.0</ele><time>2026-04-04T13:56:44.099Z</time></trkpt><trkpt lat="43.0828663" lon="11.5483627"><ele>249.49999999999997</ele><time>2026-04-04T13:56:45.099Z</time></trkpt><trkpt lat="43.0829607" lon="11.5483609"><ele>250.0</ele><time>2026-04-04T13:56:46.098Z</time></trkpt><trkpt lat="43.0830484" lon="11.5483586"><ele>249.99999999999997</ele><time>2026-04-04T13:56:47.098Z</time></trkpt><trkpt lat="43.0831407" lon="11.5483622"><ele>250.0</ele><time>2026-04-04T13:56:48.098Z</time></trkpt><trkpt lat="43.0832307" lon="11.5483628"><ele>250.0</ele><time>2026-04-04T13:56:49.098Z</time></trkpt><trkpt lat="43.0833155" lon="11.5483586"><ele>250.0</ele><time>2026-04-04T13:56:50.097Z</time></trkpt><trkpt lat="43.0834008" lon="11.5483555"><ele>249.99999999999997</ele><time>2026-04-04T13:56:51.098Z</time></trkpt><trkpt lat="43.0834915" lon="11.5483538"><ele>250.0</ele><time>2026-04-04T13:56:52.097Z</time></trkpt><trkpt lat="43.0835847" lon="11.5483494"><ele>249.6</ele><time>2026-04-04T13:56:53.098Z</time></trkpt><trkpt lat="43.0836786" lon="11.5483393"><ele>249.2</ele><time>2026-04-04T13:56:54.098Z</time></trkpt><trkpt lat="43.0837685" lon="11.5483372"><ele>248.8</ele><time>2026-04-04T13:56:55.097Z</time></trkpt><trkpt lat="43.0838614" lon="11.5483337"><ele>248.4</ele><time>2026-04-04T13:56:56.099Z</time></trkpt><trkpt lat="43.083956" lon="11.5483262"><ele>248.0</ele><time>2026-04-04T13:56:57.098Z</time></trkpt><trkpt lat="43.0840445" lon="11.5483233"><ele>248.2</ele><time>2026-04-04T13:56:58.098Z</time></trkpt><trkpt lat="43.0841418" lon="11.5483205"><ele>248.4</ele><time>2026-04-04T13:56:59.098Z</time></trkpt><trkpt lat="43.084239" lon="11.5483228"><ele>248.59999999999997</ele><time>2026-04-04T13:57:00.097Z</time></trkpt><trkpt lat="43.0843326" lon="11.5483247"><ele>248.79999999999998</ele><time>2026-04-04T13:57:01.099Z</time></trkpt><trkpt lat="43.0844295" lon="11.548332"><ele>249.0</ele><time>2026-04-04T13:57:02.099Z</time></trkpt><trkpt lat="43.0845235" lon="11.548339"><ele>249.0</ele><time>2026-04-04T13:57:03.097Z</time></trkpt><trkpt lat="43.0846066" lon="11.5483547"><ele>248.99999999999997</ele><time>2026-04-04T13:57:04.097Z</time></trkpt><trkpt lat="43.0847388" lon="11.5483869"><ele>248.99999999999997</ele><time>2026-04-04T13:57:05.097Z</time></trkpt><trkpt lat="43.0848264" lon="11.5484308"><ele>249.0</ele><time>2026-04-04T13:57:06.097Z</time></trkpt><trkpt lat="43.0849118" lon="11.5484768"><ele>249.0</ele><time>2026-04-04T13:57:07.098Z</time></trkpt><trkpt lat="43.0849907" lon="11.5485483"><ele>249.39999999999998</ele><time>2026-04-04T13:57:08.097Z</time></trkpt><trkpt lat="43.085058" lon="11.5486317"><ele>249.79999999999998</ele><time>2026-04-04T13:57:09.098Z</time></trkpt><trkpt lat="43.0851457" lon="11.5487135"><ele>250.20000000000002</ele><time>2026-04-04T13:57:10.097Z</time></trkpt><trkpt lat="43.0852228" lon="11.5487899"><ele>250.60000000000002</ele><time>2026-04-04T13:57:11.098Z</time></trkpt><trkpt lat="43.0853052" lon="11.5488754"><ele>251.0</ele><time>2026-04-04T13:57:12.097Z</time></trkpt><trkpt lat="43.0854045" lon="11.5489508"><ele>251.0</ele><time>2026-04-04T13:57:13.096Z</time></trkpt><trkpt lat="43.0854927" lon="11.5490305"><ele>251.00000000000003</ele><time>2026-04-04T13:57:14.097Z</time></trkpt><trkpt lat="43.0855715" lon="11.5491077"><ele>251.00000000000003</ele><time>2026-04-04T13:57:15.097Z</time></trkpt><trkpt lat="43.0856479" lon="11.5491784"><ele>251.0</ele><time>2026-04-04T13:57:16.097Z</time></trkpt><trkpt lat="43.0857347" lon="11.5492405"><ele>251.0</ele><time>2026-04-04T13:57:17.097Z</time></trkpt><trkpt lat="43.0858061" lon="11.5492866"><ele>251.60000000000002</ele><time>2026-04-04T13:57:18.098Z</time></trkpt><trkpt lat="43.085879" lon="11.5493256"><ele>252.20000000000002</ele><time>2026-04-04T13:57:19.097Z</time></trkpt><trkpt lat="43.0859844" lon="11.5493812"><ele>252.79999999999998</ele><time>2026-04-04T13:57:21.099Z</time></trkpt><trkpt lat="43.0860153" lon="11.5494594"><ele>253.39999999999998</ele><time>2026-04-04T13:57:24.097Z</time></trkpt><trkpt lat="43.0859628" lon="11.5495596"><ele>254.0</ele><time>2026-04-04T13:57:26.096Z</time></trkpt><trkpt lat="43.0858842" lon="11.5496746"><ele>254.00000000000003</ele><time>2026-04-04T13:57:28.097Z</time></trkpt><trkpt lat="43.0858256" lon="11.5497356"><ele>254.0</ele><time>2026-04-04T13:57:29.097Z</time></trkpt><trkpt lat="43.0857917" lon="11.549821"><ele>254.0</ele><time>2026-04-04T13:57:30.096Z</time></trkpt><trkpt lat="43.0857152" lon="11.5499039"><ele>254.0</ele><time>2026-04-04T13:57:31.097Z</time></trkpt><trkpt lat="43.0856473" lon="11.5499994"><ele>254.00000000000003</ele><time>2026-04-04T13:57:32.097Z</time></trkpt><trkpt lat="43.0855835" lon="11.5500989"><ele>254.0</ele><time>2026-04-04T13:57:33.098Z</time></trkpt><trkpt lat="43.0855078" lon="11.5502058"><ele>253.2</ele><time>2026-04-04T13:57:34.099Z</time></trkpt><trkpt lat="43.0854451" lon="11.5503171"><ele>252.39999999999998</ele><time>2026-04-04T13:57:35.097Z</time></trkpt><trkpt lat="43.0853739" lon="11.5504091"><ele>251.6</ele><time>2026-04-04T13:57:36.097Z</time></trkpt><trkpt lat="43.0853098" lon="11.5505055"><ele>250.8</ele><time>2026-04-04T13:57:37.097Z</time></trkpt><trkpt lat="43.0852463" lon="11.5506132"><ele>250.0</ele><time>2026-04-04T13:57:38.098Z</time></trkpt><trkpt lat="43.0851748" lon="11.5507183"><ele>249.6</ele><time>2026-04-04T13:57:39.097Z</time></trkpt><trkpt lat="43.0850819" lon="11.5508144"><ele>249.2</ele><time>2026-04-04T13:57:40.097Z</time></trkpt><trkpt lat="43.0850092" lon="11.5509175"><ele>248.8</ele><time>2026-04-04T13:57:41.097Z</time></trkpt><trkpt lat="43.0849388" lon="11.5510153"><ele>248.4</ele><time>2026-04-04T13:57:42.097Z</time></trkpt><trkpt lat="43.0848671" lon="11.5511252"><ele>248.0</ele><time>2026-04-04T13:57:43.098Z</time></trkpt><trkpt lat="43.084795" lon="11.5512269"><ele>247.60000000000002</ele><time>2026-04-04T13:57:44.098Z</time></trkpt><trkpt lat="43.0847242" lon="11.5513287"><ele>247.20000000000002</ele><time>2026-04-04T13:57:45.096Z</time></trkpt><trkpt lat="43.0846454" lon="11.5514474"><ele>246.8</ele><time>2026-04-04T13:57:46.098Z</time></trkpt><trkpt lat="43.0845795" lon="11.5515502"><ele>246.4</ele><time>2026-04-04T13:57:47.099Z</time></trkpt><trkpt lat="43.0844867" lon="11.5516726"><ele>246.0</ele><time>2026-04-04T13:57:48.096Z</time></trkpt><trkpt lat="43.0844058" lon="11.5517941"><ele>246.0</ele><time>2026-04-04T13:57:49.097Z</time></trkpt><trkpt lat="43.0843321" lon="11.5519147"><ele>246.0</ele><time>2026-04-04T13:57:50.098Z</time></trkpt><trkpt lat="43.0842613" lon="11.5520396"><ele>246.0</ele><time>2026-04-04T13:57:51.099Z</time></trkpt><trkpt lat="43.0841862" lon="11.552174"><ele>246.0</ele><time>2026-04-04T13:57:52.099Z</time></trkpt><trkpt lat="43.0841227" lon="11.5523162"><ele>245.25</ele><time>2026-04-04T13:57:53.098Z</time></trkpt><trkpt lat="43.0840655" lon="11.5524536"><ele>244.5</ele><time>2026-04-04T13:57:54.097Z</time></trkpt><trkpt lat="43.084006" lon="11.5526089"><ele>243.75</ele><time>2026-04-04T13:57:55.096Z</time></trkpt><trkpt lat="43.08395" lon="11.5527742"><ele>243.0</ele><time>2026-04-04T13:57:56.098Z</time></trkpt><trkpt lat="43.0839055" lon="11.5529435"><ele>243.0</ele><time>2026-04-04T13:57:57.098Z</time></trkpt><trkpt lat="43.0838734" lon="11.553117"><ele>243.0</ele><time>2026-04-04T13:57:58.097Z</time></trkpt><trkpt lat="43.0838356" lon="11.5533097"><ele>243.0</ele><time>2026-04-04T13:57:59.097Z</time></trkpt><trkpt lat="43.0838037" lon="11.5535166"><ele>243.0</ele><time>2026-04-04T13:58:00.098Z</time></trkpt><trkpt lat="43.0837711" lon="11.5537293"><ele>244.0</ele><time>2026-04-04T13:58:01.098Z</time></trkpt><trkpt lat="43.0837292" lon="11.5539503"><ele>245.0</ele><time>2026-04-04T13:58:02.097Z</time></trkpt><trkpt lat="43.0836953" lon="11.5541798"><ele>246.0</ele><time>2026-04-04T13:58:03.098Z</time></trkpt><trkpt lat="43.083661" lon="11.5543975"><ele>247.66666666666669</ele><time>2026-04-04T13:58:04.098Z</time></trkpt><trkpt lat="43.0836274" lon="11.5546169"><ele>249.33333333333334</ele><time>2026-04-04T13:58:05.098Z</time></trkpt><trkpt lat="43.083599" lon="11.554789"><ele>251.0</ele><time>2026-04-04T13:58:06.097Z</time></trkpt><trkpt lat="43.0835469" lon="11.5549944"><ele>251.0</ele><time>2026-04-04T13:58:07.097Z</time></trkpt><trkpt lat="43.0835268" lon="11.5551465"><ele>251.0</ele><time>2026-04-04T13:58:08.098Z</time></trkpt><trkpt lat="43.0835004" lon="11.5553282"><ele>251.0</ele><time>2026-04-04T13:58:09.097Z</time></trkpt><trkpt lat="43.083483" lon="11.5555081"><ele>251.0</ele><time>2026-04-04T13:58:10.097Z</time></trkpt><trkpt lat="43.0834762" lon="11.5556587"><ele>251.8</ele><time>2026-04-04T13:58:11.097Z</time></trkpt><trkpt lat="43.0835072" lon="11.5557874"><ele>252.60000000000002</ele><time>2026-04-04T13:58:12.096Z</time></trkpt><trkpt lat="43.0835242" lon="11.5559346"><ele>253.4</ele><time>2026-04-04T13:58:13.097Z</time></trkpt><trkpt lat="43.083581" lon="11.5560506"><ele>254.2</ele><time>2026-04-04T13:58:14.098Z</time></trkpt><trkpt lat="43.0836834" lon="11.5561343"><ele>255.0</ele><time>2026-04-04T13:58:15.097Z</time></trkpt><trkpt lat="43.0837946" lon="11.5561947"><ele>255.0</ele><time>2026-04-04T13:58:16.098Z</time></trkpt><trkpt lat="43.0839195" lon="11.5562487"><ele>255.0</ele><time>2026-04-04T13:58:17.097Z</time></trkpt><trkpt lat="43.0840494" lon="11.5563093"><ele>255.0</ele><time>2026-04-04T13:58:18.097Z</time></trkpt><trkpt lat="43.084179" lon="11.5564515"><ele>255.0</ele><time>2026-04-04T13:58:19.097Z</time></trkpt><trkpt lat="43.0843151" lon="11.5565736"><ele>257.5</ele><time>2026-04-04T13:58:20.096Z</time></trkpt><trkpt lat="43.0844179" lon="11.556695"><ele>260.0</ele><time>2026-04-04T13:58:21.098Z</time></trkpt><trkpt lat="43.0845138" lon="11.5568513"><ele>262.5</ele><time>2026-04-04T13:58:22.096Z</time></trkpt><trkpt lat="43.0845016" lon="11.5570442"><ele>265.0</ele><time>2026-04-04T13:58:23.097Z</time></trkpt><trkpt lat="43.0845344" lon="11.5572291"><ele>267.0</ele><time>2026-04-04T13:58:24.098Z</time></trkpt><trkpt lat="43.0845608" lon="11.5574121"><ele>269.0</ele><time>2026-04-04T13:58:25.096Z</time></trkpt><trkpt lat="43.0845593" lon="11.55759"><ele>271.0</ele><time>2026-04-04T13:58:26.098Z</time></trkpt><trkpt lat="43.0845482" lon="11.5577466"><ele>273.0</ele><time>2026-04-04T13:58:27.096Z</time></trkpt><trkpt lat="43.0845172" lon="11.5579176"><ele>274.25</ele><time>2026-04-04T13:58:28.097Z</time></trkpt><trkpt lat="43.0844677" lon="11.5580815"><ele>275.5</ele><time>2026-04-04T13:58:29.096Z</time></trkpt><trkpt lat="43.0844184" lon="11.5582338"><ele>276.75</ele><time>2026-04-04T13:58:30.097Z</time></trkpt><trkpt lat="43.0843812" lon="11.5583881"><ele>278.0</ele><time>2026-04-04T13:58:31.096Z</time></trkpt><trkpt lat="43.0843228" lon="11.5585436"><ele>278.75</ele><time>2026-04-04T13:58:32.096Z</time></trkpt><trkpt lat="43.084343" lon="11.5587053"><ele>279.5</ele><time>2026-04-04T13:58:33.096Z</time></trkpt><trkpt lat="43.0843529" lon="11.5588669"><ele>280.25</ele><time>2026-04-04T13:58:34.097Z</time></trkpt><trkpt lat="43.0843854" lon="11.5590112"><ele>281.0</ele><time>2026-04-04T13:58:35.097Z</time></trkpt><trkpt lat="43.0844489" lon="11.5591374"><ele>281.0</ele><time>2026-04-04T13:58:36.097Z</time></trkpt><trkpt lat="43.0845381" lon="11.5591925"><ele>281.0</ele><time>2026-04-04T13:58:37.098Z</time></trkpt><trkpt lat="43.084616" lon="11.5592332"><ele>281.0</ele><time>2026-04-04T13:58:38.098Z</time></trkpt><trkpt lat="43.0846974" lon="11.5592602"><ele>281.0</ele><time>2026-04-04T13:58:39.097Z</time></trkpt><trkpt lat="43.0847623" lon="11.5593113"><ele>281.0</ele><time>2026-04-04T13:58:40.097Z</time></trkpt><trkpt lat="43.0848106" lon="11.5593927"><ele>281.0</ele><time>2026-04-04T13:58:41.097Z</time></trkpt><trkpt lat="43.0848191" lon="11.5594893"><ele>281.0</ele><time>2026-04-04T13:58:42.096Z</time></trkpt><trkpt lat="43.0848167" lon="11.5596058"><ele>281.0</ele><time>2026-04-04T13:58:43.097Z</time></trkpt><trkpt lat="43.0847984" lon="11.5597315"><ele>281.0</ele><time>2026-04-04T13:58:44.098Z</time></trkpt><trkpt lat="43.0847901" lon="11.5598502"><ele>281.0</ele><time>2026-04-04T13:58:45.097Z</time></trkpt><trkpt lat="43.0847975" lon="11.559971"><ele>281.0</ele><time>2026-04-04T13:58:46.097Z</time></trkpt><trkpt lat="43.0848642" lon="11.5600547"><ele>281.0</ele><time>2026-04-04T13:58:47.097Z</time></trkpt><trkpt lat="43.0849376" lon="11.5601556"><ele>281.0</ele><time>2026-04-04T13:58:48.095Z</time></trkpt><trkpt lat="43.0850156" lon="11.5602572"><ele>281.0</ele><time>2026-04-04T13:58:49.096Z</time></trkpt><trkpt lat="43.0850896" lon="11.5603656"><ele>281.0</ele><time>2026-04-04T13:58:50.096Z</time></trkpt><trkpt lat="43.0851373" lon="11.5604795"><ele>281.0</ele><time>2026-04-04T13:58:51.096Z</time></trkpt><trkpt lat="43.0851276" lon="11.5605892"><ele>281.0</ele><time>2026-04-04T13:58:52.097Z</time></trkpt><trkpt lat="43.0850615" lon="11.560711"><ele>283.0</ele><time>2026-04-04T13:58:53.096Z</time></trkpt><trkpt lat="43.0850115" lon="11.5608207"><ele>285.0</ele><time>2026-04-04T13:58:54.097Z</time></trkpt><trkpt lat="43.0849204" lon="11.5609055"><ele>287.0</ele><time>2026-04-04T13:58:55.096Z</time></trkpt><trkpt lat="43.0848625" lon="11.5610087"><ele>289.0</ele><time>2026-04-04T13:58:56.097Z</time></trkpt><trkpt lat="43.0848239" lon="11.5611291"><ele>291.0</ele><time>2026-04-04T13:58:57.097Z</time></trkpt><trkpt lat="43.0848289" lon="11.5613228"><ele>292.40000000000003</ele><time>2026-04-04T13:58:59.098Z</time></trkpt><trkpt lat="43.0848707" lon="11.5614303"><ele>293.8</ele><time>2026-04-04T13:59:00.096Z</time></trkpt><trkpt lat="43.0849155" lon="11.5615538"><ele>295.20000000000005</ele><time>2026-04-04T13:59:01.096Z</time></trkpt><trkpt lat="43.0849656" lon="11.5616832"><ele>296.6</ele><time>2026-04-04T13:59:02.097Z</time></trkpt><trkpt lat="43.0850097" lon="11.5618211"><ele>298.0</ele><time>2026-04-04T13:59:03.097Z</time></trkpt><trkpt lat="43.0850571" lon="11.5619644"><ele>298.6</ele><time>2026-04-04T13:59:04.096Z</time></trkpt><trkpt lat="43.0850919" lon="11.5621161"><ele>299.20000000000005</ele><time>2026-04-04T13:59:05.097Z</time></trkpt><trkpt lat="43.0851112" lon="11.5622687"><ele>299.8</ele><time>2026-04-04T13:59:06.098Z</time></trkpt><trkpt lat="43.08511" lon="11.5624127"><ele>300.40000000000003</ele><time>2026-04-04T13:59:07.096Z</time></trkpt><trkpt lat="43.0850977" lon="11.5625563"><ele>301.0</ele><time>2026-04-04T13:59:08.095Z</time></trkpt><trkpt lat="43.0850003" lon="11.5626713"><ele>301.8</ele><time>2026-04-04T13:59:09.097Z</time></trkpt><trkpt lat="43.0849274" lon="11.5627486"><ele>302.6</ele><time>2026-04-04T13:59:10.097Z</time></trkpt><trkpt lat="43.0848296" lon="11.5628012"><ele>303.4</ele><time>2026-04-04T13:59:11.097Z</time></trkpt><trkpt lat="43.0847238" lon="11.562825"><ele>304.2</ele><time>2026-04-04T13:59:12.097Z</time></trkpt><trkpt lat="43.0846172" lon="11.5628364"><ele>305.0</ele><time>2026-04-04T13:59:13.096Z</time></trkpt><trkpt lat="43.0845026" lon="11.5628356"><ele>305.0</ele><time>2026-04-04T13:59:14.097Z</time></trkpt><trkpt lat="43.0843915" lon="11.5628324"><ele>305.0</ele><time>2026-04-04T13:59:15.097Z</time></trkpt><trkpt lat="43.0842832" lon="11.5628373"><ele>305.0</ele><time>2026-04-04T13:59:16.097Z</time></trkpt><trkpt lat="43.0841602" lon="11.5628612"><ele>305.0</ele><time>2026-04-04T13:59:17.097Z</time></trkpt><trkpt lat="43.0840485" lon="11.5628964"><ele>304.0</ele><time>2026-04-04T13:59:18.098Z</time></trkpt><trkpt lat="43.0839412" lon="11.5629441"><ele>303.0</ele><time>2026-04-04T13:59:19.096Z</time></trkpt><trkpt lat="43.0838284" lon="11.563002"><ele>302.0</ele><time>2026-04-04T13:59:20.096Z</time></trkpt><trkpt lat="43.083734" lon="11.5630891"><ele>301.0</ele><time>2026-04-04T13:59:21.098Z</time></trkpt><trkpt lat="43.0836373" lon="11.5631992"><ele>301.0</ele><time>2026-04-04T13:59:22.097Z</time></trkpt><trkpt lat="43.0835431" lon="11.563336"><ele>301.0</ele><time>2026-04-04T13:59:23.097Z</time></trkpt><trkpt lat="43.0834539" lon="11.5634804"><ele>301.0</ele><time>2026-04-04T13:59:24.098Z</time></trkpt><trkpt lat="43.0833662" lon="11.5636313"><ele>301.0</ele><time>2026-04-04T13:59:25.097Z</time></trkpt><trkpt lat="43.0832838" lon="11.5637963"><ele>301.0</ele><time>2026-04-04T13:59:26.097Z</time></trkpt><trkpt lat="43.0832081" lon="11.5639593"><ele>301.0</ele><time>2026-04-04T13:59:27.098Z</time></trkpt><trkpt lat="43.0831336" lon="11.5641341"><ele>301.0</ele><time>2026-04-04T13:59:28.098Z</time></trkpt><trkpt lat="43.0830659" lon="11.5643084"><ele>301.0</ele><time>2026-04-04T13:59:29.098Z</time></trkpt><trkpt lat="43.0829939" lon="11.5644791"><ele>302.5</ele><time>2026-04-04T13:59:30.096Z</time></trkpt><trkpt lat="43.082934" lon="11.5646498"><ele>304.0</ele><time>2026-04-04T13:59:31.097Z</time></trkpt><trkpt lat="43.082865" lon="11.5648126"><ele>305.5</ele><time>2026-04-04T13:59:32.097Z</time></trkpt><trkpt lat="43.0828117" lon="11.564981"><ele>307.0</ele><time>2026-04-04T13:59:33.097Z</time></trkpt><trkpt lat="43.0827381" lon="11.5651376"><ele>307.0</ele><time>2026-04-04T13:59:34.097Z</time></trkpt><trkpt lat="43.0826613" lon="11.5652908"><ele>307.0</ele><time>2026-04-04T13:59:35.095Z</time></trkpt><trkpt lat="43.0825802" lon="11.5654396"><ele>307.0</ele><time>2026-04-04T13:59:36.097Z</time></trkpt><trkpt lat="43.082493" lon="11.5655828"><ele>307.0</ele><time>2026-04-04T13:59:37.096Z</time></trkpt><trkpt lat="43.0823933" lon="11.5657305"><ele>307.3333333333333</ele><time>2026-04-04T13:59:38.095Z</time></trkpt><trkpt lat="43.0822918" lon="11.5658838"><ele>307.6666666666667</ele><time>2026-04-04T13:59:39.096Z</time></trkpt><trkpt lat="43.082184" lon="11.5660547"><ele>308.0</ele><time>2026-04-04T13:59:40.097Z</time></trkpt><trkpt lat="43.0820904" lon="11.5662179"><ele>310.75</ele><time>2026-04-04T13:59:41.097Z</time></trkpt><trkpt lat="43.0819955" lon="11.5663784"><ele>313.5</ele><time>2026-04-04T13:59:42.098Z</time></trkpt><trkpt lat="43.0819069" lon="11.5665303"><ele>316.25</ele><time>2026-04-04T13:59:43.098Z</time></trkpt><trkpt lat="43.0818354" lon="11.5666848"><ele>319.0</ele><time>2026-04-04T13:59:44.097Z</time></trkpt><trkpt lat="43.0817617" lon="11.5668482"><ele>319.0</ele><time>2026-04-04T13:59:45.097Z</time></trkpt><trkpt lat="43.0817029" lon="11.5670081"><ele>319.0</ele><time>2026-04-04T13:59:46.096Z</time></trkpt><trkpt lat="43.081653" lon="11.5671956"><ele>319.0</ele><time>2026-04-04T13:59:47.096Z</time></trkpt><trkpt lat="43.0816199" lon="11.567379"><ele>319.0</ele><time>2026-04-04T13:59:48.096Z</time></trkpt><trkpt lat="43.0815986" lon="11.5675621"><ele>316.75</ele><time>2026-04-04T13:59:49.096Z</time></trkpt><trkpt lat="43.0815796" lon="11.5677519"><ele>314.5</ele><time>2026-04-04T13:59:50.096Z</time></trkpt><trkpt lat="43.0815664" lon="11.5679509"><ele>312.25</ele><time>2026-04-04T13:59:51.097Z</time></trkpt><trkpt lat="43.0815534" lon="11.5681509"><ele>310.0</ele><time>2026-04-04T13:59:52.097Z</time></trkpt><trkpt lat="43.0815342" lon="11.568349"><ele>310.0</ele><time>2026-04-04T13:59:53.096Z</time></trkpt><trkpt lat="43.0814994" lon="11.5685629"><ele>310.0</ele><time>2026-04-04T13:59:54.098Z</time></trkpt><trkpt lat="43.0814535" lon="11.5687544"><ele>310.0</ele><time>2026-04-04T13:59:55.096Z</time></trkpt><trkpt lat="43.0814002" lon="11.5689422"><ele>312.75</ele><time>2026-04-04T13:59:56.097Z</time></trkpt><trkpt lat="43.0813401" lon="11.5691259"><ele>315.5</ele><time>2026-04-04T13:59:57.096Z</time></trkpt><trkpt lat="43.0812723" lon="11.569303"><ele>318.25</ele><time>2026-04-04T13:59:58.095Z</time></trkpt><trkpt lat="43.0812086" lon="11.5694885"><ele>321.0</ele><time>2026-04-04T13:59:59.097Z</time></trkpt><trkpt lat="43.0811379" lon="11.5696586"><ele>323.75</ele><time>2026-04-04T14:00:00.097Z</time></trkpt><trkpt lat="43.0810786" lon="11.5698272"><ele>326.5</ele><time>2026-04-04T14:00:01.098Z</time></trkpt><trkpt lat="43.0809906" lon="11.5699767"><ele>329.25</ele><time>2026-04-04T14:00:02.097Z</time></trkpt><trkpt lat="43.0808966" lon="11.5701001"><ele>332.0</ele><time>2026-04-04T14:00:03.097Z</time></trkpt><trkpt lat="43.0807949" lon="11.5701951"><ele>331.20000000000005</ele><time>2026-04-04T14:00:04.095Z</time></trkpt><trkpt lat="43.0806807" lon="11.5702597"><ele>330.4</ele><time>2026-04-04T14:00:05.096Z</time></trkpt><trkpt lat="43.0805716" lon="11.5703053"><ele>329.6</ele><time>2026-04-04T14:00:06.096Z</time></trkpt><trkpt lat="43.0804867" lon="11.570364"><ele>328.79999999999995</ele><time>2026-04-04T14:00:07.095Z</time></trkpt><trkpt lat="43.0804078" lon="11.5704057"><ele>328.0</ele><time>2026-04-04T14:00:08.097Z</time></trkpt><trkpt lat="43.0803287" lon="11.5704449"><ele>329.8333333333333</ele><time>2026-04-04T14:00:09.095Z</time></trkpt><trkpt lat="43.0802457" lon="11.5704864"><ele>331.66666666666663</ele><time>2026-04-04T14:00:10.096Z</time></trkpt><trkpt lat="43.0801656" lon="11.5705084"><ele>333.5</ele><time>2026-04-04T14:00:11.096Z</time></trkpt><trkpt lat="43.0800693" lon="11.5705381"><ele>335.3333333333333</ele><time>2026-04-04T14:00:12.095Z</time></trkpt><trkpt lat="43.0799748" lon="11.5705677"><ele>337.1666666666667</ele><time>2026-04-04T14:00:13.096Z</time></trkpt><trkpt lat="43.0798939" lon="11.5705916"><ele>339.0</ele><time>2026-04-04T14:00:14.097Z</time></trkpt><trkpt lat="43.0798261" lon="11.5706047"><ele>339.0</ele><time>2026-04-04T14:00:15.097Z</time></trkpt><trkpt lat="43.0797442" lon="11.5707016"><ele>339.0</ele><time>2026-04-04T14:00:17.096Z</time></trkpt><trkpt lat="43.0797725" lon="11.5708281"><ele>339.0</ele><time>2026-04-04T14:00:19.097Z</time></trkpt><trkpt lat="43.0798764" lon="11.570858"><ele>339.0</ele><time>2026-04-04T14:00:21.095Z</time></trkpt><trkpt lat="43.079947" lon="11.5708596"><ele>339.0</ele><time>2026-04-04T14:00:22.097Z</time></trkpt><trkpt lat="43.0800128" lon="11.5708646"><ele>339.0</ele><time>2026-04-04T14:00:23.097Z</time></trkpt><trkpt lat="43.0800893" lon="11.57088"><ele>339.5</ele><time>2026-04-04T14:00:24.096Z</time></trkpt><trkpt lat="43.0801557" lon="11.5708985"><ele>340.0</ele><time>2026-04-04T14:00:25.096Z</time></trkpt><trkpt lat="43.0802278" lon="11.5709247"><ele>340.5</ele><time>2026-04-04T14:00:26.096Z</time></trkpt><trkpt lat="43.0803035" lon="11.570961"><ele>341.0</ele><time>2026-04-04T14:00:27.097Z</time></trkpt><trkpt lat="43.0803788" lon="11.5710076"><ele>341.5</ele><time>2026-04-04T14:00:28.095Z</time></trkpt><trkpt lat="43.0804628" lon="11.5710588"><ele>342.0</ele><time>2026-04-04T14:00:29.096Z</time></trkpt><trkpt lat="43.0805481" lon="11.5711166"><ele>342.0</ele><time>2026-04-04T14:00:30.097Z</time></trkpt><trkpt lat="43.0806333" lon="11.5711751"><ele>342.0</ele><time>2026-04-04T14:00:31.097Z</time></trkpt><trkpt lat="43.0807189" lon="11.5712367"><ele>342.0</ele><time>2026-04-04T14:00:32.097Z</time></trkpt><trkpt lat="43.0807987" lon="11.5712884"><ele>342.0</ele><time>2026-04-04T14:00:33.097Z</time></trkpt><trkpt lat="43.080881" lon="11.571357"><ele>342.0</ele><time>2026-04-04T14:00:34.096Z</time></trkpt><trkpt lat="43.0809469" lon="11.5714295"><ele>342.5</ele><time>2026-04-04T14:00:35.097Z</time></trkpt><trkpt lat="43.0810172" lon="11.5714823"><ele>343.0</ele><time>2026-04-04T14:00:36.097Z</time></trkpt><trkpt lat="43.0810893" lon="11.5715499"><ele>343.5</ele><time>2026-04-04T14:00:37.097Z</time></trkpt><trkpt lat="43.0811604" lon="11.5716137"><ele>344.0</ele><time>2026-04-04T14:00:38.097Z</time></trkpt><trkpt lat="43.0812383" lon="11.5716739"><ele>344.5</ele><time>2026-04-04T14:00:39.096Z</time></trkpt><trkpt lat="43.0813131" lon="11.571733"><ele>345.0</ele><time>2026-04-04T14:00:40.096Z</time></trkpt><trkpt lat="43.081382" lon="11.5717927"><ele>345.0</ele><time>2026-04-04T14:00:41.096Z</time></trkpt><trkpt lat="43.0814637" lon="11.57184"><ele>345.0</ele><time>2026-04-04T14:00:42.097Z</time></trkpt><trkpt lat="43.081547" lon="11.5718831"><ele>345.0</ele><time>2026-04-04T14:00:43.096Z</time></trkpt><trkpt lat="43.0816248" lon="11.5719328"><ele>345.0</ele><time>2026-04-04T14:00:44.096Z</time></trkpt><trkpt lat="43.0816866" lon="11.5720036"><ele>345.0</ele><time>2026-04-04T14:00:45.096Z</time></trkpt><trkpt lat="43.0817533" lon="11.5720783"><ele>345.0</ele><time>2026-04-04T14:00:46.095Z</time></trkpt><trkpt lat="43.0818169" lon="11.5721635"><ele>345.8</ele><time>2026-04-04T14:00:47.097Z</time></trkpt><trkpt lat="43.0818731" lon="11.57227"><ele>346.6</ele><time>2026-04-04T14:00:48.096Z</time></trkpt><trkpt lat="43.0819214" lon="11.5723857"><ele>347.4</ele><time>2026-04-04T14:00:49.096Z</time></trkpt><trkpt lat="43.0819739" lon="11.5724985"><ele>348.2</ele><time>2026-04-04T14:00:50.095Z</time></trkpt><trkpt lat="43.0820224" lon="11.572612"><ele>349.0</ele><time>2026-04-04T14:00:51.095Z</time></trkpt><trkpt lat="43.082078" lon="11.572726"><ele>349.0</ele><time>2026-04-04T14:00:52.096Z</time></trkpt><trkpt lat="43.0821261" lon="11.5728465"><ele>349.0</ele><time>2026-04-04T14:00:53.097Z</time></trkpt><trkpt lat="43.0821754" lon="11.5729623"><ele>349.0</ele><time>2026-04-04T14:00:54.096Z</time></trkpt><trkpt lat="43.0822211" lon="11.5730797"><ele>349.0</ele><time>2026-04-04T14:00:55.095Z</time></trkpt><trkpt lat="43.082271" lon="11.5731956"><ele>349.0</ele><time>2026-04-04T14:00:56.096Z</time></trkpt><trkpt lat="43.082318" lon="11.5733075"><ele>349.6</ele><time>2026-04-04T14:00:57.097Z</time></trkpt><trkpt lat="43.082365" lon="11.5734263"><ele>350.2</ele><time>2026-04-04T14:00:58.097Z</time></trkpt><trkpt lat="43.08242" lon="11.57356"><ele>350.8</ele><time>2026-04-04T14:00:59.095Z</time></trkpt><trkpt lat="43.0824687" lon="11.573692"><ele>351.40000000000003</ele><time>2026-04-04T14:01:00.096Z</time></trkpt><trkpt lat="43.0825193" lon="11.5738138"><ele>352.0</ele><time>2026-04-04T14:01:01.096Z</time></trkpt><trkpt lat="43.0825712" lon="11.573942"><ele>352.0</ele><time>2026-04-04T14:01:02.097Z</time></trkpt><trkpt lat="43.0826338" lon="11.5740738"><ele>352.0</ele><time>2026-04-04T14:01:03.096Z</time></trkpt><trkpt lat="43.0826895" lon="11.5742152"><ele>352.0</ele><time>2026-04-04T14:01:04.096Z</time></trkpt><trkpt lat="43.0827416" lon="11.5743407"><ele>352.0</ele><time>2026-04-04T14:01:05.095Z</time></trkpt><trkpt lat="43.0827911" lon="11.5744671"><ele>352.0</ele><time>2026-04-04T14:01:06.096Z</time></trkpt><trkpt lat="43.0828421" lon="11.5746009"><ele>351.0</ele><time>2026-04-04T14:01:07.095Z</time></trkpt><trkpt lat="43.0828946" lon="11.5747393"><ele>350.0</ele><time>2026-04-04T14:01:08.096Z</time></trkpt><trkpt lat="43.0829485" lon="11.5748747"><ele>349.0</ele><time>2026-04-04T14:01:09.096Z</time></trkpt><trkpt lat="43.0829947" lon="11.5750043"><ele>348.0</ele><time>2026-04-04T14:01:10.097Z</time></trkpt><trkpt lat="43.0830444" lon="11.5751363"><ele>347.0</ele><time>2026-04-04T14:01:11.097Z</time></trkpt><trkpt lat="43.0830924" lon="11.5752566"><ele>348.40000000000003</ele><time>2026-04-04T14:01:12.095Z</time></trkpt><trkpt lat="43.0831432" lon="11.5753871"><ele>349.8</ele><time>2026-04-04T14:01:13.095Z</time></trkpt><trkpt lat="43.0831984" lon="11.5755155"><ele>351.2</ele><time>2026-04-04T14:01:14.097Z</time></trkpt><trkpt lat="43.08325" lon="11.575646"><ele>352.6</ele><time>2026-04-04T14:01:15.097Z</time></trkpt><trkpt lat="43.083304" lon="11.5757669"><ele>354.0</ele><time>2026-04-04T14:01:16.096Z</time></trkpt><trkpt lat="43.0833665" lon="11.575885"><ele>354.0</ele><time>2026-04-04T14:01:17.095Z</time></trkpt><trkpt lat="43.0834126" lon="11.5759959"><ele>354.0</ele><time>2026-04-04T14:01:18.097Z</time></trkpt><trkpt lat="43.0834624" lon="11.5761254"><ele>354.0</ele><time>2026-04-04T14:01:19.096Z</time></trkpt><trkpt lat="43.0835211" lon="11.5762482"><ele>354.0</ele><time>2026-04-04T14:01:20.094Z</time></trkpt><trkpt lat="43.0835721" lon="11.5763762"><ele>354.0</ele><time>2026-04-04T14:01:21.096Z</time></trkpt><trkpt lat="43.0836164" lon="11.5765107"><ele>353.0</ele><time>2026-04-04T14:01:22.096Z</time></trkpt><trkpt lat="43.0836599" lon="11.5766544"><ele>352.0</ele><time>2026-04-04T14:01:23.096Z</time></trkpt><trkpt lat="43.0837017" lon="11.576798"><ele>351.0</ele><time>2026-04-04T14:01:24.097Z</time></trkpt><trkpt lat="43.083739" lon="11.5769439"><ele>350.0</ele><time>2026-04-04T14:01:25.096Z</time></trkpt><trkpt lat="43.0837748" lon="11.5770868"><ele>350.0</ele><time>2026-04-04T14:01:26.097Z</time></trkpt><trkpt lat="43.0838132" lon="11.577227"><ele>350.0</ele><time>2026-04-04T14:01:27.097Z</time></trkpt><trkpt lat="43.0838458" lon="11.577373"><ele>350.0</ele><time>2026-04-04T14:01:28.096Z</time></trkpt><trkpt lat="43.0838816" lon="11.5775128"><ele>350.0</ele><time>2026-04-04T14:01:29.096Z</time></trkpt><trkpt lat="43.0839179" lon="11.5776559"><ele>350.0</ele><time>2026-04-04T14:01:30.096Z</time></trkpt><trkpt lat="43.0839498" lon="11.5777981"><ele>350.0</ele><time>2026-04-04T14:01:31.095Z</time></trkpt><trkpt lat="43.0839928" lon="11.5779243"><ele>350.0</ele><time>2026-04-04T14:01:32.097Z</time></trkpt><trkpt lat="43.0840232" lon="11.5780695"><ele>350.0</ele><time>2026-04-04T14:01:33.095Z</time></trkpt><trkpt lat="43.0840554" lon="11.5782042"><ele>350.0</ele><time>2026-04-04T14:01:34.096Z</time></trkpt><trkpt lat="43.0840821" lon="11.5783388"><ele>350.0</ele><time>2026-04-04T14:01:35.096Z</time></trkpt><trkpt lat="43.0841145" lon="11.5784865"><ele>351.4</ele><time>2026-04-04T14:01:36.095Z</time></trkpt><trkpt lat="43.0841409" lon="11.5786231"><ele>352.8</ele><time>2026-04-04T14:01:37.096Z</time></trkpt><trkpt lat="43.0841726" lon="11.5787584"><ele>354.20000000000005</ele><time>2026-04-04T14:01:38.095Z</time></trkpt><trkpt lat="43.0842071" lon="11.5788855"><ele>355.6</ele><time>2026-04-04T14:01:39.096Z</time></trkpt><trkpt lat="43.0842469" lon="11.5790129"><ele>357.0</ele><time>2026-04-04T14:01:40.096Z</time></trkpt><trkpt lat="43.0842914" lon="11.5791384"><ele>358.0</ele><time>2026-04-04T14:01:41.095Z</time></trkpt><trkpt lat="43.0843486" lon="11.5792448"><ele>359.0</ele><time>2026-04-04T14:01:42.096Z</time></trkpt><trkpt lat="43.0844257" lon="11.5793408"><ele>360.0</ele><time>2026-04-04T14:01:43.096Z</time></trkpt><trkpt lat="43.0844896" lon="11.5794499"><ele>361.0</ele><time>2026-04-04T14:01:44.095Z</time></trkpt><trkpt lat="43.0845569" lon="11.579566"><ele>362.0</ele><time>2026-04-04T14:01:45.095Z</time></trkpt><trkpt lat="43.0846138" lon="11.5796688"><ele>363.6</ele><time>2026-04-04T14:01:46.097Z</time></trkpt><trkpt lat="43.0846795" lon="11.57978"><ele>365.20000000000005</ele><time>2026-04-04T14:01:47.097Z</time></trkpt><trkpt lat="43.0847376" lon="11.5798977"><ele>366.8</ele><time>2026-04-04T14:01:48.096Z</time></trkpt><trkpt lat="43.0847974" lon="11.5800106"><ele>368.4</ele><time>2026-04-04T14:01:49.095Z</time></trkpt><trkpt lat="43.0848504" lon="11.580129"><ele>370.0</ele><time>2026-04-04T14:01:50.095Z</time></trkpt><trkpt lat="43.0848995" lon="11.5802404"><ele>370.16666666666663</ele><time>2026-04-04T14:01:51.096Z</time></trkpt><trkpt lat="43.0849423" lon="11.5803425"><ele>370.3333333333333</ele><time>2026-04-04T14:01:52.094Z</time></trkpt><trkpt lat="43.0849704" lon="11.5804404"><ele>370.5</ele><time>2026-04-04T14:01:53.095Z</time></trkpt><trkpt lat="43.0849989" lon="11.5805415"><ele>370.6666666666667</ele><time>2026-04-04T14:01:54.095Z</time></trkpt><trkpt lat="43.0850301" lon="11.5806597"><ele>370.83333333333337</ele><time>2026-04-04T14:01:55.097Z</time></trkpt><trkpt lat="43.085063" lon="11.5807709"><ele>371.0</ele><time>2026-04-04T14:01:56.095Z</time></trkpt><trkpt lat="43.0850945" lon="11.5808819"><ele>371.0</ele><time>2026-04-04T14:01:57.095Z</time></trkpt><trkpt lat="43.0851281" lon="11.5810013"><ele>371.0</ele><time>2026-04-04T14:01:58.095Z</time></trkpt><trkpt lat="43.0851481" lon="11.5811414"><ele>371.0</ele><time>2026-04-04T14:01:59.098Z</time></trkpt><trkpt lat="43.0851832" lon="11.5812695"><ele>371.0</ele><time>2026-04-04T14:02:00.095Z</time></trkpt><trkpt lat="43.0852548" lon="11.5813843"><ele>371.0</ele><time>2026-04-04T14:02:01.097Z</time></trkpt><trkpt lat="43.0853042" lon="11.5815096"><ele>371.0</ele><time>2026-04-04T14:02:02.096Z</time></trkpt><trkpt lat="43.0853484" lon="11.5816334"><ele>371.0</ele><time>2026-04-04T14:02:03.097Z</time></trkpt><trkpt lat="43.0854027" lon="11.5817531"><ele>371.0</ele><time>2026-04-04T14:02:04.095Z</time></trkpt><trkpt lat="43.0854535" lon="11.5818584"><ele>371.0</ele><time>2026-04-04T14:02:05.095Z</time></trkpt><trkpt lat="43.0855213" lon="11.5819551"><ele>371.0</ele><time>2026-04-04T14:02:06.097Z</time></trkpt><trkpt lat="43.0855695" lon="11.5820545"><ele>371.8</ele><time>2026-04-04T14:02:07.096Z</time></trkpt><trkpt lat="43.0856318" lon="11.5821521"><ele>372.6</ele><time>2026-04-04T14:02:08.095Z</time></trkpt><trkpt lat="43.0856818" lon="11.5822686"><ele>373.4</ele><time>2026-04-04T14:02:09.096Z</time></trkpt><trkpt lat="43.0857357" lon="11.5823736"><ele>374.2</ele><time>2026-04-04T14:02:10.097Z</time></trkpt><trkpt lat="43.0857833" lon="11.5824875"><ele>375.0</ele><time>2026-04-04T14:02:11.096Z</time></trkpt><trkpt lat="43.0858534" lon="11.582549"><ele>375.0</ele><time>2026-04-04T14:02:12.094Z</time></trkpt><trkpt lat="43.0859101" lon="11.5826179"><ele>375.0</ele><time>2026-04-04T14:02:13.094Z</time></trkpt><trkpt lat="43.0859745" lon="11.5826788"><ele>375.0</ele><time>2026-04-04T14:02:14.095Z</time></trkpt><trkpt lat="43.0860472" lon="11.5827467"><ele>375.0</ele><time>2026-04-04T14:02:15.096Z</time></trkpt><trkpt lat="43.0861311" lon="11.5828099"><ele>375.0</ele><time>2026-04-04T14:02:16.095Z</time></trkpt><trkpt lat="43.086199" lon="11.5828761"><ele>375.0</ele><time>2026-04-04T14:02:17.095Z</time></trkpt><trkpt lat="43.0862684" lon="11.582965"><ele>373.8</ele><time>2026-04-04T14:02:18.095Z</time></trkpt><trkpt lat="43.0863435" lon="11.5830479"><ele>372.6</ele><time>2026-04-04T14:02:19.095Z</time></trkpt><trkpt lat="43.086426" lon="11.5831225"><ele>371.4</ele><time>2026-04-04T14:02:20.096Z</time></trkpt><trkpt lat="43.0865031" lon="11.5831984"><ele>370.2</ele><time>2026-04-04T14:02:21.095Z</time></trkpt><trkpt lat="43.0865839" lon="11.5832456"><ele>369.0</ele><time>2026-04-04T14:02:22.096Z</time></trkpt><trkpt lat="43.0866638" lon="11.5833387"><ele>369.0</ele><time>2026-04-04T14:02:23.094Z</time></trkpt><trkpt lat="43.0867472" lon="11.5834098"><ele>369.0</ele><time>2026-04-04T14:02:24.096Z</time></trkpt><trkpt lat="43.0868312" lon="11.5834803"><ele>369.0</ele><time>2026-04-04T14:02:25.096Z</time></trkpt><trkpt lat="43.0869119" lon="11.5835545"><ele>369.0</ele><time>2026-04-04T14:02:26.095Z</time></trkpt><trkpt lat="43.0869981" lon="11.5836262"><ele>369.0</ele><time>2026-04-04T14:02:27.096Z</time></trkpt><trkpt lat="43.0870922" lon="11.5836836"><ele>366.2</ele><time>2026-04-04T14:02:28.094Z</time></trkpt><trkpt lat="43.0871797" lon="11.5837511"><ele>363.4</ele><time>2026-04-04T14:02:29.095Z</time></trkpt><trkpt lat="43.0872682" lon="11.5837897"><ele>360.6</ele><time>2026-04-04T14:02:30.095Z</time></trkpt><trkpt lat="43.087347" lon="11.5838708"><ele>357.8</ele><time>2026-04-04T14:02:31.095Z</time></trkpt><trkpt lat="43.0874315" lon="11.5839435"><ele>355.0</ele><time>2026-04-04T14:02:32.095Z</time></trkpt><trkpt lat="43.0875137" lon="11.5840208"><ele>355.0</ele><time>2026-04-04T14:02:33.095Z</time></trkpt><trkpt lat="43.0875992" lon="11.5841001"><ele>355.0</ele><time>2026-04-04T14:02:34.094Z</time></trkpt><trkpt lat="43.0876967" lon="11.5841749"><ele>355.0</ele><time>2026-04-04T14:02:35.096Z</time></trkpt><trkpt lat="43.0877834" lon="11.5842473"><ele>355.0</ele><time>2026-04-04T14:02:36.096Z</time></trkpt><trkpt lat="43.0878729" lon="11.5843062"><ele>355.0</ele><time>2026-04-04T14:02:37.096Z</time></trkpt><trkpt lat="43.0879572" lon="11.5843817"><ele>355.0</ele><time>2026-04-04T14:02:38.097Z</time></trkpt><trkpt lat="43.08804" lon="11.584457"><ele>355.0</ele><time>2026-04-04T14:02:39.095Z</time></trkpt><trkpt lat="43.0881218" lon="11.5845247"><ele>355.0</ele><time>2026-04-04T14:02:40.095Z</time></trkpt><trkpt lat="43.0882069" lon="11.5845838"><ele>355.0</ele><time>2026-04-04T14:02:41.094Z</time></trkpt><trkpt lat="43.0883001" lon="11.5846408"><ele>355.0</ele><time>2026-04-04T14:02:42.095Z</time></trkpt><trkpt lat="43.0884044" lon="11.5846957"><ele>356.0</ele><time>2026-04-04T14:02:43.095Z</time></trkpt><trkpt lat="43.0885077" lon="11.5847284"><ele>357.0</ele><time>2026-04-04T14:02:44.095Z</time></trkpt><trkpt lat="43.0885986" lon="11.5847975"><ele>358.0</ele><time>2026-04-04T14:02:45.096Z</time></trkpt><trkpt lat="43.0886861" lon="11.5848688"><ele>359.0</ele><time>2026-04-04T14:02:46.094Z</time></trkpt><trkpt lat="43.0887799" lon="11.5849409"><ele>360.0</ele><time>2026-04-04T14:02:47.094Z</time></trkpt><trkpt lat="43.0888779" lon="11.5850244"><ele>360.0</ele><time>2026-04-04T14:02:48.097Z</time></trkpt><trkpt lat="43.0889756" lon="11.585111"><ele>360.0</ele><time>2026-04-04T14:02:49.096Z</time></trkpt><trkpt lat="43.089071" lon="11.5851873"><ele>360.0</ele><time>2026-04-04T14:02:50.094Z</time></trkpt><trkpt lat="43.089163" lon="11.5852599"><ele>360.0</ele><time>2026-04-04T14:02:51.095Z</time></trkpt><trkpt lat="43.0892495" lon="11.5853408"><ele>360.0</ele><time>2026-04-04T14:02:52.095Z</time></trkpt><trkpt lat="43.0893428" lon="11.5854314"><ele>362.0</ele><time>2026-04-04T14:02:53.096Z</time></trkpt><trkpt lat="43.0894414" lon="11.5855326"><ele>364.0</ele><time>2026-04-04T14:02:54.096Z</time></trkpt><trkpt lat="43.0895336" lon="11.5856167"><ele>366.0</ele><time>2026-04-04T14:02:55.094Z</time></trkpt><trkpt lat="43.0896346" lon="11.5856791"><ele>368.0</ele><time>2026-04-04T14:02:56.095Z</time></trkpt><trkpt lat="43.0897156" lon="11.5857366"><ele>370.0</ele><time>2026-04-04T14:02:57.096Z</time></trkpt><trkpt lat="43.0897865" lon="11.5858053"><ele>370.0</ele><time>2026-04-04T14:02:58.096Z</time></trkpt><trkpt lat="43.0898498" lon="11.5858549"><ele>370.0</ele><time>2026-04-04T14:02:59.095Z</time></trkpt><trkpt lat="43.0899122" lon="11.5859256"><ele>370.0</ele><time>2026-04-04T14:03:00.095Z</time></trkpt><trkpt lat="43.0899708" lon="11.5859798"><ele>370.0</ele><time>2026-04-04T14:03:01.095Z</time></trkpt><trkpt lat="43.090074" lon="11.5861032"><ele>370.0</ele><time>2026-04-04T14:03:03.094Z</time></trkpt><trkpt lat="43.0901424" lon="11.5861745"><ele>370.0</ele><time>2026-04-04T14:03:04.095Z</time></trkpt><trkpt lat="43.0902025" lon="11.5862504"><ele>371.6</ele><time>2026-04-04T14:03:05.095Z</time></trkpt><trkpt lat="43.0902749" lon="11.5863606"><ele>373.2</ele><time>2026-04-04T14:03:06.095Z</time></trkpt><trkpt lat="43.0903311" lon="11.5864629"><ele>374.79999999999995</ele><time>2026-04-04T14:03:07.095Z</time></trkpt><trkpt lat="43.0903829" lon="11.5865886"><ele>376.4</ele><time>2026-04-04T14:03:08.097Z</time></trkpt><trkpt lat="43.0904443" lon="11.5867043"><ele>378.0</ele><time>2026-04-04T14:03:09.095Z</time></trkpt><trkpt lat="43.0905068" lon="11.5868251"><ele>378.0</ele><time>2026-04-04T14:03:10.094Z</time></trkpt><trkpt lat="43.0905529" lon="11.5869389"><ele>378.0</ele><time>2026-04-04T14:03:11.096Z</time></trkpt><trkpt lat="43.090614" lon="11.5870385"><ele>378.0</ele><time>2026-04-04T14:03:12.094Z</time></trkpt><trkpt lat="43.0906594" lon="11.5871485"><ele>378.0</ele><time>2026-04-04T14:03:13.096Z</time></trkpt><trkpt lat="43.0907102" lon="11.5872448"><ele>378.0</ele><time>2026-04-04T14:03:14.095Z</time></trkpt><trkpt lat="43.0907483" lon="11.5873408"><ele>378.0</ele><time>2026-04-04T14:03:15.094Z</time></trkpt><trkpt lat="43.0907859" lon="11.5874558"><ele>376.6666666666667</ele><time>2026-04-04T14:03:16.095Z</time></trkpt><trkpt lat="43.090834" lon="11.5875386"><ele>375.3333333333333</ele><time>2026-04-04T14:03:17.096Z</time></trkpt><trkpt lat="43.0908856" lon="11.587628"><ele>374.0</ele><time>2026-04-04T14:03:18.096Z</time></trkpt><trkpt lat="43.0909244" lon="11.587711"><ele>372.66666666666663</ele><time>2026-04-04T14:03:19.096Z</time></trkpt><trkpt lat="43.0910138" lon="11.5877553"><ele>371.3333333333333</ele><time>2026-04-04T14:03:20.096Z</time></trkpt><trkpt lat="43.091103" lon="11.5878014"><ele>370.0</ele><time>2026-04-04T14:03:21.094Z</time></trkpt><trkpt lat="43.0911835" lon="11.5878526"><ele>370.0</ele><time>2026-04-04T14:03:22.094Z</time></trkpt><trkpt lat="43.0912596" lon="11.5878948"><ele>370.0</ele><time>2026-04-04T14:03:23.094Z</time></trkpt><trkpt lat="43.0913457" lon="11.5879484"><ele>370.0</ele><time>2026-04-04T14:03:24.096Z</time></trkpt><trkpt lat="43.0914404" lon="11.5879943"><ele>370.0</ele><time>2026-04-04T14:03:25.095Z</time></trkpt><trkpt lat="43.0915436" lon="11.5880403"><ele>370.0</ele><time>2026-04-04T14:03:26.094Z</time></trkpt><trkpt lat="43.091639" lon="11.5881157"><ele>369.2</ele><time>2026-04-04T14:03:27.095Z</time></trkpt><trkpt lat="43.0917209" lon="11.5881784"><ele>368.4</ele><time>2026-04-04T14:03:28.094Z</time></trkpt><trkpt lat="43.0918012" lon="11.588246"><ele>367.6</ele><time>2026-04-04T14:03:29.094Z</time></trkpt><trkpt lat="43.0918887" lon="11.5882981"><ele>366.8</ele><time>2026-04-04T14:03:30.094Z</time></trkpt><trkpt lat="43.0919627" lon="11.5883487"><ele>366.0</ele><time>2026-04-04T14:03:31.095Z</time></trkpt><trkpt lat="43.0920426" lon="11.588405"><ele>366.0</ele><time>2026-04-04T14:03:32.095Z</time></trkpt><trkpt lat="43.0921111" lon="11.5884471"><ele>366.0</ele><time>2026-04-04T14:03:33.095Z</time></trkpt><trkpt lat="43.0921848" lon="11.5884928"><ele>366.0</ele><time>2026-04-04T14:03:34.094Z</time></trkpt><trkpt lat="43.0922633" lon="11.5885357"><ele>366.0</ele><time>2026-04-04T14:03:35.095Z</time></trkpt><trkpt lat="43.0923428" lon="11.5885849"><ele>366.0</ele><time>2026-04-04T14:03:36.094Z</time></trkpt><trkpt lat="43.092433" lon="11.5886317"><ele>366.0</ele><time>2026-04-04T14:03:37.095Z</time></trkpt><trkpt lat="43.0925202" lon="11.5886812"><ele>364.4</ele><time>2026-04-04T14:03:38.095Z</time></trkpt><trkpt lat="43.0926029" lon="11.5887427"><ele>362.8</ele><time>2026-04-04T14:03:39.094Z</time></trkpt><trkpt lat="43.0926851" lon="11.5888047"><ele>361.2</ele><time>2026-04-04T14:03:40.095Z</time></trkpt><trkpt lat="43.0927611" lon="11.5888788"><ele>359.59999999999997</ele><time>2026-04-04T14:03:41.094Z</time></trkpt><trkpt lat="43.0928489" lon="11.5889626"><ele>358.0</ele><time>2026-04-04T14:03:42.095Z</time></trkpt><trkpt lat="43.0929232" lon="11.5890533"><ele>358.0</ele><time>2026-04-04T14:03:43.093Z</time></trkpt><trkpt lat="43.0929945" lon="11.5891391"><ele>358.0</ele><time>2026-04-04T14:03:44.094Z</time></trkpt><trkpt lat="43.093071" lon="11.5892142"><ele>358.0</ele><time>2026-04-04T14:03:45.095Z</time></trkpt><trkpt lat="43.0931336" lon="11.5893162"><ele>358.0</ele><time>2026-04-04T14:03:46.095Z</time></trkpt><trkpt lat="43.0931923" lon="11.5894134"><ele>358.0</ele><time>2026-04-04T14:03:47.094Z</time></trkpt><trkpt lat="43.0932464" lon="11.5895159"><ele>356.3333333333333</ele><time>2026-04-04T14:03:48.095Z</time></trkpt><trkpt lat="43.093295" lon="11.5896144"><ele>354.66666666666663</ele><time>2026-04-04T14:03:49.095Z</time></trkpt><trkpt lat="43.0933223" lon="11.5897221"><ele>353.0</ele><time>2026-04-04T14:03:50.096Z</time></trkpt><trkpt lat="43.0933591" lon="11.589835"><ele>351.3333333333333</ele><time>2026-04-04T14:03:51.095Z</time></trkpt><trkpt lat="43.093402" lon="11.5899301"><ele>349.6666666666667</ele><time>2026-04-04T14:03:52.096Z</time></trkpt><trkpt lat="43.0934476" lon="11.5900228"><ele>348.0</ele><time>2026-04-04T14:03:53.094Z</time></trkpt><trkpt lat="43.0934973" lon="11.590125"><ele>348.0</ele><time>2026-04-04T14:03:54.095Z</time></trkpt><trkpt lat="43.0935525" lon="11.5902153"><ele>348.0</ele><time>2026-04-04T14:03:55.094Z</time></trkpt><trkpt lat="43.0936219" lon="11.5903019"><ele>348.0</ele><time>2026-04-04T14:03:56.095Z</time></trkpt><trkpt lat="43.0936893" lon="11.590377"><ele>348.0</ele><time>2026-04-04T14:03:57.094Z</time></trkpt><trkpt lat="43.0937618" lon="11.5904566"><ele>348.0</ele><time>2026-04-04T14:03:58.094Z</time></trkpt><trkpt lat="43.0938332" lon="11.5905232"><ele>348.0</ele><time>2026-04-04T14:03:59.093Z</time></trkpt><trkpt lat="43.0939028" lon="11.5905938"><ele>348.5</ele><time>2026-04-04T14:04:00.094Z</time></trkpt><trkpt lat="43.093974" lon="11.590659"><ele>349.0</ele><time>2026-04-04T14:04:01.095Z</time></trkpt><trkpt lat="43.0940392" lon="11.5907334"><ele>349.5</ele><time>2026-04-04T14:04:02.093Z</time></trkpt><trkpt lat="43.0941103" lon="11.5907967"><ele>350.0</ele><time>2026-04-04T14:04:03.095Z</time></trkpt><trkpt lat="43.0941781" lon="11.5908496"><ele>350.5</ele><time>2026-04-04T14:04:04.095Z</time></trkpt><trkpt lat="43.0942504" lon="11.5909334"><ele>351.0</ele><time>2026-04-04T14:04:05.095Z</time></trkpt><trkpt lat="43.0943169" lon="11.5910121"><ele>351.0</ele><time>2026-04-04T14:04:06.095Z</time></trkpt><trkpt lat="43.0943795" lon="11.5911034"><ele>351.0</ele><time>2026-04-04T14:04:07.095Z</time></trkpt><trkpt lat="43.0944391" lon="11.5912067"><ele>351.0</ele><time>2026-04-04T14:04:08.096Z</time></trkpt><trkpt lat="43.0944758" lon="11.5913162"><ele>351.0</ele><time>2026-04-04T14:04:09.096Z</time></trkpt><trkpt lat="43.0945052" lon="11.5914248"><ele>351.0</ele><time>2026-04-04T14:04:10.096Z</time></trkpt><trkpt lat="43.0945389" lon="11.5915353"><ele>351.0</ele><time>2026-04-04T14:04:11.094Z</time></trkpt><trkpt lat="43.0945693" lon="11.5916402"><ele>348.20000000000005</ele><time>2026-04-04T14:04:12.095Z</time></trkpt><trkpt lat="43.0946083" lon="11.5917531"><ele>345.40000000000003</ele><time>2026-04-04T14:04:13.094Z</time></trkpt><trkpt lat="43.0946525" lon="11.5918758"><ele>342.6</ele><time>2026-04-04T14:04:14.096Z</time></trkpt><trkpt lat="43.0947038" lon="11.5919961"><ele>339.8</ele><time>2026-04-04T14:04:15.095Z</time></trkpt><trkpt lat="43.094751" lon="11.5921202"><ele>337.0</ele><time>2026-04-04T14:04:16.094Z</time></trkpt><trkpt lat="43.0948033" lon="11.5922445"><ele>335.8</ele><time>2026-04-04T14:04:17.095Z</time></trkpt><trkpt lat="43.0948545" lon="11.5923725"><ele>334.6</ele><time>2026-04-04T14:04:18.095Z</time></trkpt><trkpt lat="43.0949076" lon="11.5925044"><ele>333.40000000000003</ele><time>2026-04-04T14:04:19.095Z</time></trkpt><trkpt lat="43.0949619" lon="11.5926383"><ele>332.20000000000005</ele><time>2026-04-04T14:04:20.094Z</time></trkpt><trkpt lat="43.0950183" lon="11.5927636"><ele>331.0</ele><time>2026-04-04T14:04:21.094Z</time></trkpt><trkpt lat="43.0950751" lon="11.5928891"><ele>333.4</ele><time>2026-04-04T14:04:22.095Z</time></trkpt><trkpt lat="43.0951292" lon="11.5930286"><ele>335.8</ele><time>2026-04-04T14:04:23.094Z</time></trkpt><trkpt lat="43.0951695" lon="11.5931553"><ele>338.2</ele><time>2026-04-04T14:04:24.095Z</time></trkpt><trkpt lat="43.0952176" lon="11.5932855"><ele>340.59999999999997</ele><time>2026-04-04T14:04:25.093Z</time></trkpt><trkpt lat="43.0952769" lon="11.5934046"><ele>343.0</ele><time>2026-04-04T14:04:26.094Z</time></trkpt><trkpt lat="43.0953288" lon="11.5935267"><ele>343.0</ele><time>2026-04-04T14:04:27.095Z</time></trkpt><trkpt lat="43.0953765" lon="11.5936448"><ele>343.0</ele><time>2026-04-04T14:04:28.095Z</time></trkpt><trkpt lat="43.0954245" lon="11.5937666"><ele>343.0</ele><time>2026-04-04T14:04:29.093Z</time></trkpt><trkpt lat="43.0954678" lon="11.5938816"><ele>343.0</ele><time>2026-04-04T14:04:30.095Z</time></trkpt><trkpt lat="43.0955158" lon="11.5940076"><ele>343.0</ele><time>2026-04-04T14:04:31.095Z</time></trkpt><trkpt lat="43.0955722" lon="11.5941291"><ele>343.79999999999995</ele><time>2026-04-04T14:04:32.094Z</time></trkpt><trkpt lat="43.0956268" lon="11.594256"><ele>344.6</ele><time>2026-04-04T14:04:33.096Z</time></trkpt><trkpt lat="43.0956849" lon="11.5943706"><ele>345.4</ele><time>2026-04-04T14:04:34.094Z</time></trkpt><trkpt lat="43.0957298" lon="11.5944812"><ele>346.20000000000005</ele><time>2026-04-04T14:04:35.094Z</time></trkpt><trkpt lat="43.095771" lon="11.5945779"><ele>347.0</ele><time>2026-04-04T14:04:36.095Z</time></trkpt><trkpt lat="43.0958333" lon="11.5946805"><ele>347.0</ele><time>2026-04-04T14:04:37.095Z</time></trkpt><trkpt lat="43.0958817" lon="11.5947633"><ele>347.0</ele><time>2026-04-04T14:04:38.095Z</time></trkpt><trkpt lat="43.0959444" lon="11.594835"><ele>347.0</ele><time>2026-04-04T14:04:39.096Z</time></trkpt><trkpt lat="43.0960126" lon="11.5949036"><ele>347.0</ele><time>2026-04-04T14:04:40.094Z</time></trkpt><trkpt lat="43.0960947" lon="11.5949473"><ele>347.0</ele><time>2026-04-04T14:04:41.095Z</time></trkpt><trkpt lat="43.0961601" lon="11.595006"><ele>347.0</ele><time>2026-04-04T14:04:42.094Z</time></trkpt><trkpt lat="43.0962179" lon="11.5950587"><ele>347.0</ele><time>2026-04-04T14:04:43.094Z</time></trkpt><trkpt lat="43.0962829" lon="11.5951295"><ele>347.0</ele><time>2026-04-04T14:04:44.095Z</time></trkpt><trkpt lat="43.0963359" lon="11.5952057"><ele>347.0</ele><time>2026-04-04T14:04:45.095Z</time></trkpt><trkpt lat="43.0963824" lon="11.5952977"><ele>347.0</ele><time>2026-04-04T14:04:46.095Z</time></trkpt><trkpt lat="43.0964157" lon="11.5953835"><ele>347.0</ele><time>2026-04-04T14:04:47.095Z</time></trkpt><trkpt lat="43.096452" lon="11.5955284"><ele>347.0</ele><time>2026-04-04T14:04:48.095Z</time></trkpt><trkpt lat="43.0964846" lon="11.5956407"><ele>346.8</ele><time>2026-04-04T14:04:49.095Z</time></trkpt><trkpt lat="43.0965263" lon="11.5957505"><ele>346.6</ele><time>2026-04-04T14:04:50.093Z</time></trkpt><trkpt lat="43.0965668" lon="11.5958959"><ele>346.40000000000003</ele><time>2026-04-04T14:04:51.095Z</time></trkpt><trkpt lat="43.0966054" lon="11.5960388"><ele>346.20000000000005</ele><time>2026-04-04T14:04:52.093Z</time></trkpt><trkpt lat="43.0966363" lon="11.5961749"><ele>346.0</ele><time>2026-04-04T14:04:53.093Z</time></trkpt><trkpt lat="43.0966649" lon="11.596298"><ele>348.20000000000005</ele><time>2026-04-04T14:04:54.094Z</time></trkpt><trkpt lat="43.0966967" lon="11.5964077"><ele>350.40000000000003</ele><time>2026-04-04T14:04:55.094Z</time></trkpt><trkpt lat="43.0967224" lon="11.5965307"><ele>352.6</ele><time>2026-04-04T14:04:56.094Z</time></trkpt><trkpt lat="43.0967532" lon="11.5966533"><ele>354.8</ele><time>2026-04-04T14:04:57.094Z</time></trkpt><trkpt lat="43.0967771" lon="11.5967657"><ele>357.0</ele><time>2026-04-04T14:04:58.096Z</time></trkpt><trkpt lat="43.0968379" lon="11.596872"><ele>357.0</ele><time>2026-04-04T14:04:59.094Z</time></trkpt><trkpt lat="43.096865" lon="11.5969814"><ele>357.0</ele><time>2026-04-04T14:05:00.095Z</time></trkpt><trkpt lat="43.0968902" lon="11.5970682"><ele>357.0</ele><time>2026-04-04T14:05:01.094Z</time></trkpt><trkpt lat="43.0969239" lon="11.5971532"><ele>357.0</ele><time>2026-04-04T14:05:02.094Z</time></trkpt><trkpt lat="43.0969669" lon="11.5972165"><ele>357.0</ele><time>2026-04-04T14:05:03.094Z</time></trkpt><trkpt lat="43.0970325" lon="11.5972619"><ele>357.0</ele><time>2026-04-04T14:05:04.094Z</time></trkpt><trkpt lat="43.0970962" lon="11.5972992"><ele>357.0</ele><time>2026-04-04T14:05:05.093Z</time></trkpt><trkpt lat="43.0971823" lon="11.5973406"><ele>357.3333333333333</ele><time>2026-04-04T14:05:06.093Z</time></trkpt><trkpt lat="43.0972442" lon="11.5973793"><ele>357.6666666666667</ele><time>2026-04-04T14:05:07.095Z</time></trkpt><trkpt lat="43.0973078" lon="11.5974412"><ele>358.0</ele><time>2026-04-04T14:05:08.095Z</time></trkpt><trkpt lat="43.0973584" lon="11.597506"><ele>358.33333333333337</ele><time>2026-04-04T14:05:09.094Z</time></trkpt><trkpt lat="43.0974099" lon="11.5975851"><ele>358.6666666666667</ele><time>2026-04-04T14:05:10.093Z</time></trkpt><trkpt lat="43.0974652" lon="11.5976581"><ele>359.0</ele><time>2026-04-04T14:05:11.094Z</time></trkpt><trkpt lat="43.0975264" lon="11.5977337"><ele>359.0</ele><time>2026-04-04T14:05:12.094Z</time></trkpt><trkpt lat="43.0975797" lon="11.597808"><ele>359.0</ele><time>2026-04-04T14:05:13.094Z</time></trkpt><trkpt lat="43.0976304" lon="11.5978963"><ele>359.0</ele><time>2026-04-04T14:05:14.094Z</time></trkpt><trkpt lat="43.097677" lon="11.5979842"><ele>359.0</ele><time>2026-04-04T14:05:15.094Z</time></trkpt><trkpt lat="43.0977344" lon="11.5980684"><ele>359.0</ele><time>2026-04-04T14:05:16.095Z</time></trkpt><trkpt lat="43.0977961" lon="11.5981526"><ele>359.0</ele><time>2026-04-04T14:05:17.095Z</time></trkpt><trkpt lat="43.0978433" lon="11.59823"><ele>360.6666666666667</ele><time>2026-04-04T14:05:18.094Z</time></trkpt><trkpt lat="43.0978943" lon="11.5983218"><ele>362.33333333333337</ele><time>2026-04-04T14:05:19.095Z</time></trkpt><trkpt lat="43.0979515" lon="11.5984056"><ele>364.0</ele><time>2026-04-04T14:05:20.094Z</time></trkpt><trkpt lat="43.0979992" lon="11.5984725"><ele>365.6666666666667</ele><time>2026-04-04T14:05:21.094Z</time></trkpt><trkpt lat="43.0980846" lon="11.5985696"><ele>367.3333333333333</ele><time>2026-04-04T14:05:23.094Z</time></trkpt><trkpt lat="43.0981562" lon="11.5985801"><ele>369.0</ele><time>2026-04-04T14:05:24.095Z</time></trkpt><trkpt lat="43.0982186" lon="11.5985677"><ele>368.6666666666667</ele><time>2026-04-04T14:05:25.094Z</time></trkpt><trkpt lat="43.0983013" lon="11.5985342"><ele>368.3333333333333</ele><time>2026-04-04T14:05:26.094Z</time></trkpt><trkpt lat="43.0983835" lon="11.5984861"><ele>368.0</ele><time>2026-04-04T14:05:27.093Z</time></trkpt><trkpt lat="43.0984446" lon="11.5984369"><ele>367.66666666666663</ele><time>2026-04-04T14:05:28.093Z</time></trkpt><trkpt lat="43.0984916" lon="11.598362"><ele>367.3333333333333</ele><time>2026-04-04T14:05:29.093Z</time></trkpt><trkpt lat="43.0985225" lon="11.5982573"><ele>367.0</ele><time>2026-04-04T14:05:30.094Z</time></trkpt><trkpt lat="43.098545" lon="11.5981484"><ele>367.0</ele><time>2026-04-04T14:05:31.093Z</time></trkpt><trkpt lat="43.0985866" lon="11.598038"><ele>367.0</ele><time>2026-04-04T14:05:32.094Z</time></trkpt><trkpt lat="43.0986069" lon="11.5979417"><ele>367.0</ele><time>2026-04-04T14:05:33.094Z</time></trkpt><trkpt lat="43.0986249" lon="11.5978334"><ele>367.0</ele><time>2026-04-04T14:05:34.093Z</time></trkpt><trkpt lat="43.0986537" lon="11.5977366"><ele>367.0</ele><time>2026-04-04T14:05:35.095Z</time></trkpt><trkpt lat="43.0986853" lon="11.5976289"><ele>367.0</ele><time>2026-04-04T14:05:36.094Z</time></trkpt><trkpt lat="43.0987193" lon="11.5975358"><ele>366.0</ele><time>2026-04-04T14:05:37.095Z</time></trkpt><trkpt lat="43.0987751" lon="11.5974611"><ele>365.0</ele><time>2026-04-04T14:05:38.094Z</time></trkpt><trkpt lat="43.0988302" lon="11.5973814"><ele>364.0</ele><time>2026-04-04T14:05:39.095Z</time></trkpt><trkpt lat="43.0988819" lon="11.5973298"><ele>363.0</ele><time>2026-04-04T14:05:40.094Z</time></trkpt><trkpt lat="43.0990238" lon="11.5974082"><ele>362.0</ele><time>2026-04-04T14:05:42.093Z</time></trkpt><trkpt lat="43.0991067" lon="11.5974546"><ele>361.33333333333337</ele><time>2026-04-04T14:05:43.094Z</time></trkpt><trkpt lat="43.0991822" lon="11.5975096"><ele>360.6666666666667</ele><time>2026-04-04T14:05:44.095Z</time></trkpt><trkpt lat="43.0992465" lon="11.597597"><ele>360.0</ele><time>2026-04-04T14:05:45.096Z</time></trkpt><trkpt lat="43.0993147" lon="11.5976629"><ele>359.3333333333333</ele><time>2026-04-04T14:05:46.094Z</time></trkpt><trkpt lat="43.0993668" lon="11.5977519"><ele>358.66666666666663</ele><time>2026-04-04T14:05:47.095Z</time></trkpt><trkpt lat="43.0994241" lon="11.5978405"><ele>358.0</ele><time>2026-04-04T14:05:48.094Z</time></trkpt><trkpt lat="43.0994822" lon="11.5979323"><ele>359.3333333333333</ele><time>2026-04-04T14:05:49.093Z</time></trkpt><trkpt lat="43.0995442" lon="11.5980286"><ele>360.66666666666663</ele><time>2026-04-04T14:05:50.095Z</time></trkpt><trkpt lat="43.0996035" lon="11.5981113"><ele>362.0</ele><time>2026-04-04T14:05:51.093Z</time></trkpt><trkpt lat="43.0996682" lon="11.5982081"><ele>363.3333333333333</ele><time>2026-04-04T14:05:52.093Z</time></trkpt><trkpt lat="43.0997199" lon="11.5982939"><ele>364.6666666666667</ele><time>2026-04-04T14:05:53.095Z</time></trkpt><trkpt lat="43.0997815" lon="11.5983789"><ele>366.0</ele><time>2026-04-04T14:05:54.093Z</time></trkpt><trkpt lat="43.0998342" lon="11.598466"><ele>366.0</ele><time>2026-04-04T14:05:55.093Z</time></trkpt><trkpt lat="43.0998606" lon="11.5985858"><ele>366.0</ele><time>2026-04-04T14:05:56.094Z</time></trkpt><trkpt lat="43.0998998" lon="11.5986875"><ele>366.0</ele><time>2026-04-04T14:05:57.092Z</time></trkpt><trkpt lat="43.0999462" lon="11.5987683"><ele>366.0</ele><time>2026-04-04T14:05:58.095Z</time></trkpt><trkpt lat="43.1000047" lon="11.5988391"><ele>366.0</ele><time>2026-04-04T14:05:59.094Z</time></trkpt><trkpt lat="43.1000642" lon="11.5989018"><ele>366.0</ele><time>2026-04-04T14:06:00.094Z</time></trkpt><trkpt lat="43.1001243" lon="11.5989815"><ele>364.0</ele><time>2026-04-04T14:06:01.093Z</time></trkpt><trkpt lat="43.100192" lon="11.5990488"><ele>362.0</ele><time>2026-04-04T14:06:02.094Z</time></trkpt><trkpt lat="43.1002545" lon="11.5991153"><ele>360.0</ele><time>2026-04-04T14:06:03.093Z</time></trkpt><trkpt lat="43.1003478" lon="11.5991546"><ele>358.0</ele><time>2026-04-04T14:06:04.096Z</time></trkpt><trkpt lat="43.1004198" lon="11.5991869"><ele>356.0</ele><time>2026-04-04T14:06:05.093Z</time></trkpt><trkpt lat="43.1005006" lon="11.5992056"><ele>354.0</ele><time>2026-04-04T14:06:06.094Z</time></trkpt><trkpt lat="43.1005913" lon="11.5992106"><ele>354.0</ele><time>2026-04-04T14:06:07.093Z</time></trkpt><trkpt lat="43.1006818" lon="11.5992116"><ele>354.0</ele><time>2026-04-04T14:06:08.094Z</time></trkpt><trkpt lat="43.1007674" lon="11.5992025"><ele>354.0</ele><time>2026-04-04T14:06:09.093Z</time></trkpt><trkpt lat="43.1008549" lon="11.5991962"><ele>354.0</ele><time>2026-04-04T14:06:10.094Z</time></trkpt><trkpt lat="43.1009479" lon="11.5991921"><ele>354.0</ele><time>2026-04-04T14:06:11.094Z</time></trkpt><trkpt lat="43.1010488" lon="11.5991918"><ele>353.1666666666667</ele><time>2026-04-04T14:06:12.093Z</time></trkpt><trkpt lat="43.1011284" lon="11.599179"><ele>352.3333333333333</ele><time>2026-04-04T14:06:13.095Z</time></trkpt><trkpt lat="43.1012198" lon="11.5991748"><ele>351.5</ele><time>2026-04-04T14:06:14.093Z</time></trkpt><trkpt lat="43.1013045" lon="11.5991793"><ele>350.66666666666663</ele><time>2026-04-04T14:06:15.092Z</time></trkpt><trkpt lat="43.1013838" lon="11.5992057"><ele>349.8333333333333</ele><time>2026-04-04T14:06:16.092Z</time></trkpt><trkpt lat="43.1014672" lon="11.5992376"><ele>349.0</ele><time>2026-04-04T14:06:17.095Z</time></trkpt><trkpt lat="43.1015315" lon="11.5992808"><ele>349.5</ele><time>2026-04-04T14:06:18.093Z</time></trkpt><trkpt lat="43.1016061" lon="11.5993391"><ele>350.0</ele><time>2026-04-04T14:06:19.094Z</time></trkpt><trkpt lat="43.1016797" lon="11.5994029"><ele>350.5</ele><time>2026-04-04T14:06:20.093Z</time></trkpt><trkpt lat="43.1017475" lon="11.5994718"><ele>351.0</ele><time>2026-04-04T14:06:21.093Z</time></trkpt><trkpt lat="43.1018105" lon="11.5995429"><ele>351.5</ele><time>2026-04-04T14:06:22.093Z</time></trkpt><trkpt lat="43.1018712" lon="11.5996297"><ele>352.0</ele><time>2026-04-04T14:06:23.094Z</time></trkpt><trkpt lat="43.1019188" lon="11.5997221"><ele>352.0</ele><time>2026-04-04T14:06:24.094Z</time></trkpt><trkpt lat="43.1019601" lon="11.5998159"><ele>352.0</ele><time>2026-04-04T14:06:25.094Z</time></trkpt><trkpt lat="43.1020078" lon="11.5999095"><ele>352.0</ele><time>2026-04-04T14:06:26.094Z</time></trkpt><trkpt lat="43.1020527" lon="11.6000126"><ele>352.0</ele><time>2026-04-04T14:06:27.095Z</time></trkpt><trkpt lat="43.1020967" lon="11.6001215"><ele>352.0</ele><time>2026-04-04T14:06:28.094Z</time></trkpt><trkpt lat="43.1021453" lon="11.6002255"><ele>352.0</ele><time>2026-04-04T14:06:29.094Z</time></trkpt><trkpt lat="43.102187" lon="11.6003389"><ele>350.5</ele><time>2026-04-04T14:06:30.094Z</time></trkpt><trkpt lat="43.1022385" lon="11.6004444"><ele>349.0</ele><time>2026-04-04T14:06:31.093Z</time></trkpt><trkpt lat="43.1022883" lon="11.6005539"><ele>347.5</ele><time>2026-04-04T14:06:32.093Z</time></trkpt><trkpt lat="43.1023349" lon="11.6006686"><ele>346.0</ele><time>2026-04-04T14:06:33.095Z</time></trkpt><trkpt lat="43.1023698" lon="11.6007618"><ele>344.5</ele><time>2026-04-04T14:06:34.095Z</time></trkpt><trkpt lat="43.1024124" lon="11.6008463"><ele>343.0</ele><time>2026-04-04T14:06:35.093Z</time></trkpt><trkpt lat="43.1024712" lon="11.6009324"><ele>346.16666666666663</ele><time>2026-04-04T14:06:36.093Z</time></trkpt><trkpt lat="43.1025334" lon="11.6010013"><ele>349.3333333333333</ele><time>2026-04-04T14:06:37.092Z</time></trkpt><trkpt lat="43.1025905" lon="11.6010496"><ele>352.5</ele><time>2026-04-04T14:06:38.094Z</time></trkpt><trkpt lat="43.1026666" lon="11.6010743"><ele>355.6666666666667</ele><time>2026-04-04T14:06:39.094Z</time></trkpt><trkpt lat="43.102788" lon="11.601064"><ele>358.83333333333337</ele><time>2026-04-04T14:06:41.095Z</time></trkpt><trkpt lat="43.1028458" lon="11.6010208"><ele>362.0</ele><time>2026-04-04T14:06:42.094Z</time></trkpt><trkpt lat="43.1029586" lon="11.6009104"><ele>362.0</ele><time>2026-04-04T14:06:44.094Z</time></trkpt><trkpt lat="43.1030179" lon="11.6008367"><ele>362.0</ele><time>2026-04-04T14:06:45.092Z</time></trkpt><trkpt lat="43.1030763" lon="11.6007566"><ele>362.0</ele><time>2026-04-04T14:06:46.095Z</time></trkpt><trkpt lat="43.1031429" lon="11.6006757"><ele>362.0</ele><time>2026-04-04T14:06:47.093Z</time></trkpt><trkpt lat="43.1032075" lon="11.6005962"><ele>362.0</ele><time>2026-04-04T14:06:48.094Z</time></trkpt><trkpt lat="43.1032737" lon="11.6005333"><ele>362.0</ele><time>2026-04-04T14:06:49.094Z</time></trkpt><trkpt lat="43.1033434" lon="11.6005006"><ele>362.1666666666667</ele><time>2026-04-04T14:06:50.092Z</time></trkpt><trkpt lat="43.1034209" lon="11.600483"><ele>362.33333333333337</ele><time>2026-04-04T14:06:51.093Z</time></trkpt><trkpt lat="43.1034981" lon="11.6004723"><ele>362.5</ele><time>2026-04-04T14:06:52.092Z</time></trkpt><trkpt lat="43.1035839" lon="11.6004877"><ele>362.6666666666667</ele><time>2026-04-04T14:06:53.094Z</time></trkpt><trkpt lat="43.1036739" lon="11.6004977"><ele>362.8333333333333</ele><time>2026-04-04T14:06:54.095Z</time></trkpt><trkpt lat="43.1037646" lon="11.6004911"><ele>363.0</ele><time>2026-04-04T14:06:55.093Z</time></trkpt><trkpt lat="43.1038531" lon="11.6005042"><ele>363.0</ele><time>2026-04-04T14:06:56.094Z</time></trkpt><trkpt lat="43.1039276" lon="11.6005174"><ele>363.0</ele><time>2026-04-04T14:06:57.093Z</time></trkpt><trkpt lat="43.1040063" lon="11.6005205"><ele>363.0</ele><time>2026-04-04T14:06:58.095Z</time></trkpt><trkpt lat="43.1040868" lon="11.6005367"><ele>363.0</ele><time>2026-04-04T14:06:59.093Z</time></trkpt><trkpt lat="43.1041602" lon="11.6005576"><ele>363.0</ele><time>2026-04-04T14:07:00.093Z</time></trkpt><trkpt lat="43.1042392" lon="11.6005675"><ele>363.0</ele><time>2026-04-04T14:07:01.094Z</time></trkpt><trkpt lat="43.1043262" lon="11.6005738"><ele>363.3333333333333</ele><time>2026-04-04T14:07:02.093Z</time></trkpt><trkpt lat="43.1044106" lon="11.6005681"><ele>363.6666666666667</ele><time>2026-04-04T14:07:03.092Z</time></trkpt><trkpt lat="43.1044942" lon="11.6005976"><ele>364.0</ele><time>2026-04-04T14:07:04.094Z</time></trkpt><trkpt lat="43.104565" lon="11.6005954"><ele>364.33333333333337</ele><time>2026-04-04T14:07:05.094Z</time></trkpt><trkpt lat="43.104652" lon="11.6006058"><ele>364.6666666666667</ele><time>2026-04-04T14:07:06.092Z</time></trkpt><trkpt lat="43.1047343" lon="11.6006159"><ele>365.0</ele><time>2026-04-04T14:07:07.093Z</time></trkpt><trkpt lat="43.1048222" lon="11.6006292"><ele>365.0</ele><time>2026-04-04T14:07:08.092Z</time></trkpt><trkpt lat="43.1049045" lon="11.6006308"><ele>365.0</ele><time>2026-04-04T14:07:09.093Z</time></trkpt><trkpt lat="43.1049908" lon="11.6006382"><ele>365.0</ele><time>2026-04-04T14:07:10.093Z</time></trkpt><trkpt lat="43.1050864" lon="11.6006384"><ele>365.0</ele><time>2026-04-04T14:07:11.093Z</time></trkpt><trkpt lat="43.1051794" lon="11.6006519"><ele>365.0</ele><time>2026-04-04T14:07:12.093Z</time></trkpt><trkpt lat="43.1052716" lon="11.6006677"><ele>365.33333333333337</ele><time>2026-04-04T14:07:13.092Z</time></trkpt><trkpt lat="43.1053592" lon="11.6006592"><ele>365.6666666666667</ele><time>2026-04-04T14:07:14.094Z</time></trkpt><trkpt lat="43.1054491" lon="11.6006532"><ele>366.0</ele><time>2026-04-04T14:07:15.094Z</time></trkpt><trkpt lat="43.1055364" lon="11.6006352"><ele>366.3333333333333</ele><time>2026-04-04T14:07:16.092Z</time></trkpt><trkpt lat="43.1056213" lon="11.6006368"><ele>366.66666666666663</ele><time>2026-04-04T14:07:17.094Z</time></trkpt><trkpt lat="43.1056903" lon="11.6005972"><ele>367.0</ele><time>2026-04-04T14:07:18.094Z</time></trkpt><trkpt lat="43.1057569" lon="11.6005431"><ele>367.16666666666663</ele><time>2026-04-04T14:07:19.093Z</time></trkpt><trkpt lat="43.1058413" lon="11.6004979"><ele>367.3333333333333</ele><time>2026-04-04T14:07:20.093Z</time></trkpt><trkpt lat="43.1059217" lon="11.6004479"><ele>367.5</ele><time>2026-04-04T14:07:21.094Z</time></trkpt><trkpt lat="43.1059985" lon="11.6004041"><ele>367.6666666666667</ele><time>2026-04-04T14:07:22.094Z</time></trkpt><trkpt lat="43.1060796" lon="11.6003536"><ele>367.83333333333337</ele><time>2026-04-04T14:07:23.092Z</time></trkpt><trkpt lat="43.1061513" lon="11.6003195"><ele>368.0</ele><time>2026-04-04T14:07:24.093Z</time></trkpt><trkpt lat="43.1062392" lon="11.6002915"><ele>368.0</ele><time>2026-04-04T14:07:25.092Z</time></trkpt><trkpt lat="43.1063087" lon="11.6002873"><ele>368.0</ele><time>2026-04-04T14:07:26.094Z</time></trkpt><trkpt lat="43.1063776" lon="11.6002959"><ele>368.0</ele><time>2026-04-04T14:07:27.094Z</time></trkpt><trkpt lat="43.1064497" lon="11.6003257"><ele>368.0</ele><time>2026-04-04T14:07:28.092Z</time></trkpt><trkpt lat="43.1065265" lon="11.600361"><ele>368.0</ele><time>2026-04-04T14:07:29.094Z</time></trkpt><trkpt lat="43.1066079" lon="11.6004038"><ele>368.0</ele><time>2026-04-04T14:07:30.093Z</time></trkpt><trkpt lat="43.1066899" lon="11.6004448"><ele>371.2</ele><time>2026-04-04T14:07:31.094Z</time></trkpt><trkpt lat="43.1067738" lon="11.6005008"><ele>374.4</ele><time>2026-04-04T14:07:32.093Z</time></trkpt><trkpt lat="43.1068598" lon="11.6005606"><ele>377.59999999999997</ele><time>2026-04-04T14:07:33.092Z</time></trkpt><trkpt lat="43.1069493" lon="11.6006122"><ele>380.79999999999995</ele><time>2026-04-04T14:07:34.093Z</time></trkpt><trkpt lat="43.1070341" lon="11.6006828"><ele>384.0</ele><time>2026-04-04T14:07:35.093Z</time></trkpt><trkpt lat="43.1071127" lon="11.6007397"><ele>384.0</ele><time>2026-04-04T14:07:36.092Z</time></trkpt><trkpt lat="43.1071968" lon="11.6008079"><ele>384.0</ele><time>2026-04-04T14:07:37.094Z</time></trkpt><trkpt lat="43.1072917" lon="11.600879"><ele>384.0</ele><time>2026-04-04T14:07:38.093Z</time></trkpt><trkpt lat="43.1073729" lon="11.6009419"><ele>384.0</ele><time>2026-04-04T14:07:39.093Z</time></trkpt><trkpt lat="43.1074466" lon="11.6010041"><ele>384.0</ele><time>2026-04-04T14:07:40.093Z</time></trkpt><trkpt lat="43.1075296" lon="11.6010632"><ele>383.8333333333333</ele><time>2026-04-04T14:07:41.092Z</time></trkpt><trkpt lat="43.1075929" lon="11.6011126"><ele>383.6666666666667</ele><time>2026-04-04T14:07:42.093Z</time></trkpt><trkpt lat="43.1076482" lon="11.6011574"><ele>383.5</ele><time>2026-04-04T14:07:43.093Z</time></trkpt><trkpt lat="43.1077431" lon="11.6012457"><ele>383.33333333333337</ele><time>2026-04-04T14:07:45.092Z</time></trkpt><trkpt lat="43.1078348" lon="11.6013193"><ele>383.1666666666667</ele><time>2026-04-04T14:07:47.093Z</time></trkpt><trkpt lat="43.1079075" lon="11.6013901"><ele>383.0</ele><time>2026-04-04T14:07:49.093Z</time></trkpt><trkpt lat="43.1079937" lon="11.6015048"><ele>384.0</ele><time>2026-04-04T14:07:51.092Z</time></trkpt><trkpt lat="43.1080299" lon="11.6015773"><ele>385.0</ele><time>2026-04-04T14:07:52.092Z</time></trkpt><trkpt lat="43.1080707" lon="11.6016498"><ele>386.0</ele><time>2026-04-04T14:07:53.092Z</time></trkpt><trkpt lat="43.1081175" lon="11.6018378"><ele>387.0</ele><time>2026-04-04T14:07:55.094Z</time></trkpt><trkpt lat="43.1081269" lon="11.6019651"><ele>387.99999999999994</ele><time>2026-04-04T14:07:56.092Z</time></trkpt><trkpt lat="43.1081223" lon="11.6020654"><ele>389.0</ele><time>2026-04-04T14:07:57.093Z</time></trkpt><trkpt lat="43.1080944" lon="11.6021867"><ele>388.99999999999994</ele><time>2026-04-04T14:07:58.092Z</time></trkpt><trkpt lat="43.1080952" lon="11.6022775"><ele>389.0</ele><time>2026-04-04T14:07:59.093Z</time></trkpt><trkpt lat="43.1080842" lon="11.6023673"><ele>389.0</ele><time>2026-04-04T14:08:00.093Z</time></trkpt><trkpt lat="43.1080621" lon="11.6024586"><ele>389.0</ele><time>2026-04-04T14:08:01.093Z</time></trkpt><trkpt lat="43.1080375" lon="11.602589"><ele>388.99999999999994</ele><time>2026-04-04T14:08:02.094Z</time></trkpt><trkpt lat="43.1080011" lon="11.6026888"><ele>389.0</ele><time>2026-04-04T14:08:03.094Z</time></trkpt><trkpt lat="43.1079776" lon="11.6028002"><ele>387.16666666666663</ele><time>2026-04-04T14:08:04.094Z</time></trkpt><trkpt lat="43.1079379" lon="11.6029134"><ele>385.3333333333333</ele><time>2026-04-04T14:08:05.094Z</time></trkpt><trkpt lat="43.1079052" lon="11.6030183"><ele>383.5</ele><time>2026-04-04T14:08:06.092Z</time></trkpt><trkpt lat="43.1078967" lon="11.6031178"><ele>381.66666666666663</ele><time>2026-04-04T14:08:07.093Z</time></trkpt><trkpt lat="43.107888" lon="11.6032291"><ele>379.8333333333333</ele><time>2026-04-04T14:08:08.093Z</time></trkpt><trkpt lat="43.1078908" lon="11.6033539"><ele>378.0</ele><time>2026-04-04T14:08:09.093Z</time></trkpt><trkpt lat="43.1079036" lon="11.603487"><ele>378.0</ele><time>2026-04-04T14:08:10.094Z</time></trkpt><trkpt lat="43.1079366" lon="11.6036234"><ele>378.0</ele><time>2026-04-04T14:08:11.092Z</time></trkpt><trkpt lat="43.1079754" lon="11.6037559"><ele>378.0</ele><time>2026-04-04T14:08:12.092Z</time></trkpt><trkpt lat="43.1080132" lon="11.6038908"><ele>378.0</ele><time>2026-04-04T14:08:13.094Z</time></trkpt><trkpt lat="43.1080501" lon="11.6040226"><ele>378.0</ele><time>2026-04-04T14:08:14.092Z</time></trkpt><trkpt lat="43.1080953" lon="11.6041455"><ele>377.59999999999997</ele><time>2026-04-04T14:08:15.092Z</time></trkpt><trkpt lat="43.1081267" lon="11.6042597"><ele>377.2</ele><time>2026-04-04T14:08:16.092Z</time></trkpt><trkpt lat="43.1081767" lon="11.6043622"><ele>376.8</ele><time>2026-04-04T14:08:17.091Z</time></trkpt><trkpt lat="43.1082369" lon="11.6044608"><ele>376.4</ele><time>2026-04-04T14:08:18.092Z</time></trkpt><trkpt lat="43.1083092" lon="11.6045518"><ele>376.0</ele><time>2026-04-04T14:08:19.093Z</time></trkpt><trkpt lat="43.1083856" lon="11.6046229"><ele>376.0</ele><time>2026-04-04T14:08:20.091Z</time></trkpt><trkpt lat="43.1084552" lon="11.6046983"><ele>376.0</ele><time>2026-04-04T14:08:21.093Z</time></trkpt><trkpt lat="43.1085254" lon="11.6047641"><ele>376.0</ele><time>2026-04-04T14:08:22.092Z</time></trkpt><trkpt lat="43.1085981" lon="11.6048362"><ele>376.0</ele><time>2026-04-04T14:08:23.091Z</time></trkpt><trkpt lat="43.1086762" lon="11.6049044"><ele>376.0</ele><time>2026-04-04T14:08:24.094Z</time></trkpt><trkpt lat="43.10875" lon="11.6049639"><ele>376.0</ele><time>2026-04-04T14:08:25.092Z</time></trkpt><trkpt lat="43.1088412" lon="11.6050284"><ele>376.0</ele><time>2026-04-04T14:08:26.092Z</time></trkpt><trkpt lat="43.1089286" lon="11.6051057"><ele>376.0</ele><time>2026-04-04T14:08:27.092Z</time></trkpt><trkpt lat="43.1090159" lon="11.6051828"><ele>376.0</ele><time>2026-04-04T14:08:28.093Z</time></trkpt><trkpt lat="43.1091054" lon="11.6052707"><ele>376.0</ele><time>2026-04-04T14:08:29.093Z</time></trkpt><trkpt lat="43.1091966" lon="11.6053551"><ele>376.0</ele><time>2026-04-04T14:08:30.092Z</time></trkpt><trkpt lat="43.1092978" lon="11.6054493"><ele>375.8</ele><time>2026-04-04T14:08:31.093Z</time></trkpt><trkpt lat="43.1093864" lon="11.6055329"><ele>375.6</ele><time>2026-04-04T14:08:32.092Z</time></trkpt><trkpt lat="43.1094766" lon="11.6056155"><ele>375.4</ele><time>2026-04-04T14:08:33.093Z</time></trkpt><trkpt lat="43.1095712" lon="11.6056984"><ele>375.2</ele><time>2026-04-04T14:08:34.092Z</time></trkpt><trkpt lat="43.1096522" lon="11.605784"><ele>375.0</ele><time>2026-04-04T14:08:35.094Z</time></trkpt><trkpt lat="43.1097375" lon="11.6058694"><ele>375.0</ele><time>2026-04-04T14:08:36.092Z</time></trkpt><trkpt lat="43.1098374" lon="11.6059605"><ele>375.0</ele><time>2026-04-04T14:08:37.092Z</time></trkpt><trkpt lat="43.1099263" lon="11.6060503"><ele>375.0</ele><time>2026-04-04T14:08:38.092Z</time></trkpt><trkpt lat="43.1100205" lon="11.6061446"><ele>375.0</ele><time>2026-04-04T14:08:39.093Z</time></trkpt><trkpt lat="43.1100971" lon="11.6062293"><ele>375.0</ele><time>2026-04-04T14:08:40.093Z</time></trkpt><trkpt lat="43.1101788" lon="11.6063166"><ele>374.4</ele><time>2026-04-04T14:08:41.092Z</time></trkpt><trkpt lat="43.1102701" lon="11.6063946"><ele>373.8</ele><time>2026-04-04T14:08:42.093Z</time></trkpt><trkpt lat="43.1103584" lon="11.6064709"><ele>373.20000000000005</ele><time>2026-04-04T14:08:43.092Z</time></trkpt><trkpt lat="43.1104354" lon="11.6065516"><ele>372.6</ele><time>2026-04-04T14:08:44.093Z</time></trkpt><trkpt lat="43.1105132" lon="11.6066261"><ele>372.0</ele><time>2026-04-04T14:08:45.092Z</time></trkpt><trkpt lat="43.1105977" lon="11.6066926"><ele>372.0</ele><time>2026-04-04T14:08:46.093Z</time></trkpt><trkpt lat="43.1106882" lon="11.6067425"><ele>372.0</ele><time>2026-04-04T14:08:47.092Z</time></trkpt><trkpt lat="43.1107816" lon="11.6067869"><ele>372.0</ele><time>2026-04-04T14:08:48.094Z</time></trkpt><trkpt lat="43.1108715" lon="11.6068304"><ele>372.0</ele><time>2026-04-04T14:08:49.094Z</time></trkpt><trkpt lat="43.1109616" lon="11.6068751"><ele>372.0</ele><time>2026-04-04T14:08:50.092Z</time></trkpt><trkpt lat="43.1110509" lon="11.6069375"><ele>370.6</ele><time>2026-04-04T14:08:51.092Z</time></trkpt><trkpt lat="43.1111333" lon="11.6070051"><ele>369.20000000000005</ele><time>2026-04-04T14:08:52.091Z</time></trkpt><trkpt lat="43.1112086" lon="11.6070727"><ele>367.8</ele><time>2026-04-04T14:08:53.093Z</time></trkpt><trkpt lat="43.1112919" lon="11.6071418"><ele>366.4</ele><time>2026-04-04T14:08:54.092Z</time></trkpt><trkpt lat="43.1113777" lon="11.6072076"><ele>365.0</ele><time>2026-04-04T14:08:55.092Z</time></trkpt><trkpt lat="43.1114585" lon="11.607276"><ele>365.0</ele><time>2026-04-04T14:08:56.094Z</time></trkpt><trkpt lat="43.1115328" lon="11.6073493"><ele>365.0</ele><time>2026-04-04T14:08:57.094Z</time></trkpt><trkpt lat="43.1116051" lon="11.6074172"><ele>365.0</ele><time>2026-04-04T14:08:58.092Z</time></trkpt><trkpt lat="43.11168" lon="11.6074916"><ele>365.0</ele><time>2026-04-04T14:08:59.092Z</time></trkpt><trkpt lat="43.1117539" lon="11.6075637"><ele>365.0</ele><time>2026-04-04T14:09:00.093Z</time></trkpt><trkpt lat="43.1118367" lon="11.6076338"><ele>365.0</ele><time>2026-04-04T14:09:01.094Z</time></trkpt><trkpt lat="43.1119201" lon="11.607702"><ele>365.0</ele><time>2026-04-04T14:09:02.093Z</time></trkpt><trkpt lat="43.112012" lon="11.6077787"><ele>365.0</ele><time>2026-04-04T14:09:03.091Z</time></trkpt><trkpt lat="43.1120926" lon="11.6078575"><ele>365.0</ele><time>2026-04-04T14:09:04.094Z</time></trkpt><trkpt lat="43.1121894" lon="11.60794"><ele>365.0</ele><time>2026-04-04T14:09:05.093Z</time></trkpt><trkpt lat="43.1122817" lon="11.6080394"><ele>365.0</ele><time>2026-04-04T14:09:06.093Z</time></trkpt><trkpt lat="43.1123702" lon="11.6081335"><ele>365.0</ele><time>2026-04-04T14:09:07.093Z</time></trkpt><trkpt lat="43.1124639" lon="11.6082283"><ele>365.0</ele><time>2026-04-04T14:09:08.091Z</time></trkpt><trkpt lat="43.112559" lon="11.6083061"><ele>365.0</ele><time>2026-04-04T14:09:09.092Z</time></trkpt><trkpt lat="43.1126493" lon="11.6084062"><ele>365.0</ele><time>2026-04-04T14:09:10.092Z</time></trkpt><trkpt lat="43.112733" lon="11.6084955"><ele>365.0</ele><time>2026-04-04T14:09:11.092Z</time></trkpt><trkpt lat="43.1128201" lon="11.6086019"><ele>365.0</ele><time>2026-04-04T14:09:12.092Z</time></trkpt><trkpt lat="43.1128961" lon="11.6087114"><ele>365.0</ele><time>2026-04-04T14:09:13.092Z</time></trkpt><trkpt lat="43.1129658" lon="11.608828"><ele>365.0</ele><time>2026-04-04T14:09:14.092Z</time></trkpt><trkpt lat="43.1130297" lon="11.6089415"><ele>365.8</ele><time>2026-04-04T14:09:15.092Z</time></trkpt><trkpt lat="43.1130849" lon="11.609059"><ele>366.6</ele><time>2026-04-04T14:09:16.093Z</time></trkpt><trkpt lat="43.1131445" lon="11.6091849"><ele>367.4</ele><time>2026-04-04T14:09:17.093Z</time></trkpt><trkpt lat="43.1131888" lon="11.6093142"><ele>368.2</ele><time>2026-04-04T14:09:18.093Z</time></trkpt><trkpt lat="43.1132431" lon="11.6094482"><ele>369.0</ele><time>2026-04-04T14:09:19.093Z</time></trkpt><trkpt lat="43.1132863" lon="11.6095772"><ele>369.0</ele><time>2026-04-04T14:09:20.093Z</time></trkpt><trkpt lat="43.1133226" lon="11.6096985"><ele>369.0</ele><time>2026-04-04T14:09:21.092Z</time></trkpt><trkpt lat="43.1133712" lon="11.6098075"><ele>369.0</ele><time>2026-04-04T14:09:22.091Z</time></trkpt><trkpt lat="43.1134127" lon="11.6099225"><ele>369.0</ele><time>2026-04-04T14:09:23.092Z</time></trkpt><trkpt lat="43.1134654" lon="11.6100413"><ele>369.0</ele><time>2026-04-04T14:09:24.092Z</time></trkpt><trkpt lat="43.1135162" lon="11.6101649"><ele>369.0</ele><time>2026-04-04T14:09:25.093Z</time></trkpt><trkpt lat="43.1135782" lon="11.6102815"><ele>369.0</ele><time>2026-04-04T14:09:26.092Z</time></trkpt><trkpt lat="43.1136337" lon="11.6103969"><ele>369.0</ele><time>2026-04-04T14:09:27.092Z</time></trkpt><trkpt lat="43.1136839" lon="11.6105161"><ele>369.0</ele><time>2026-04-04T14:09:28.093Z</time></trkpt><trkpt lat="43.1137445" lon="11.610633"><ele>369.0</ele><time>2026-04-04T14:09:29.092Z</time></trkpt><trkpt lat="43.1138077" lon="11.6107501"><ele>368.79999999999995</ele><time>2026-04-04T14:09:30.091Z</time></trkpt><trkpt lat="43.1138689" lon="11.610859"><ele>368.59999999999997</ele><time>2026-04-04T14:09:31.093Z</time></trkpt><trkpt lat="43.1139376" lon="11.6109638"><ele>368.4</ele><time>2026-04-04T14:09:32.093Z</time></trkpt><trkpt lat="43.1140054" lon="11.6110619"><ele>368.2</ele><time>2026-04-04T14:09:33.093Z</time></trkpt><trkpt lat="43.1140647" lon="11.6111546"><ele>368.0</ele><time>2026-04-04T14:09:34.091Z</time></trkpt><trkpt lat="43.1141302" lon="11.6112405"><ele>368.0</ele><time>2026-04-04T14:09:35.093Z</time></trkpt><trkpt lat="43.1142089" lon="11.6113044"><ele>368.0</ele><time>2026-04-04T14:09:36.092Z</time></trkpt><trkpt lat="43.1142715" lon="11.6113814"><ele>368.0</ele><time>2026-04-04T14:09:37.092Z</time></trkpt><trkpt lat="43.114336" lon="11.611463"><ele>368.0</ele><time>2026-04-04T14:09:38.091Z</time></trkpt><trkpt lat="43.1143963" lon="11.6115471"><ele>368.0</ele><time>2026-04-04T14:09:39.092Z</time></trkpt><trkpt lat="43.1144566" lon="11.6116359"><ele>368.0</ele><time>2026-04-04T14:09:40.092Z</time></trkpt><trkpt lat="43.1145093" lon="11.611734"><ele>368.0</ele><time>2026-04-04T14:09:41.093Z</time></trkpt><trkpt lat="43.1145593" lon="11.6118376"><ele>368.0</ele><time>2026-04-04T14:09:42.092Z</time></trkpt><trkpt lat="43.1146035" lon="11.6119495"><ele>368.0</ele><time>2026-04-04T14:09:43.092Z</time></trkpt><trkpt lat="43.1146481" lon="11.6120704"><ele>368.0</ele><time>2026-04-04T14:09:44.092Z</time></trkpt><trkpt lat="43.1146817" lon="11.6121959"><ele>368.0</ele><time>2026-04-04T14:09:45.092Z</time></trkpt><trkpt lat="43.1147025" lon="11.6123095"><ele>368.33333333333337</ele><time>2026-04-04T14:09:46.091Z</time></trkpt><trkpt lat="43.1147256" lon="11.6124191"><ele>368.6666666666667</ele><time>2026-04-04T14:09:47.092Z</time></trkpt><trkpt lat="43.1147526" lon="11.6125237"><ele>369.0</ele><time>2026-04-04T14:09:48.092Z</time></trkpt><trkpt lat="43.114784" lon="11.6126287"><ele>369.3333333333333</ele><time>2026-04-04T14:09:49.092Z</time></trkpt><trkpt lat="43.1148158" lon="11.6127204"><ele>369.66666666666663</ele><time>2026-04-04T14:09:50.092Z</time></trkpt><trkpt lat="43.1148547" lon="11.6128075"><ele>370.0</ele><time>2026-04-04T14:09:51.093Z</time></trkpt><trkpt lat="43.1149048" lon="11.6128933"><ele>370.0</ele><time>2026-04-04T14:09:52.092Z</time></trkpt><trkpt lat="43.1149553" lon="11.6129772"><ele>370.0</ele><time>2026-04-04T14:09:53.091Z</time></trkpt><trkpt lat="43.1150107" lon="11.6130557"><ele>370.0</ele><time>2026-04-04T14:09:54.092Z</time></trkpt><trkpt lat="43.1150621" lon="11.6131248"><ele>370.0</ele><time>2026-04-04T14:09:55.091Z</time></trkpt><trkpt lat="43.115115" lon="11.6132065"><ele>370.0</ele><time>2026-04-04T14:09:56.093Z</time></trkpt><trkpt lat="43.1151562" lon="11.6132961"><ele>370.0</ele><time>2026-04-04T14:09:57.093Z</time></trkpt><trkpt lat="43.1152136" lon="11.6133854"><ele>369.99999999999994</ele><time>2026-04-04T14:09:58.092Z</time></trkpt><trkpt lat="43.115273" lon="11.613475"><ele>370.0</ele><time>2026-04-04T14:09:59.092Z</time></trkpt><trkpt lat="43.1153245" lon="11.6135633"><ele>370.0</ele><time>2026-04-04T14:10:00.093Z</time></trkpt><trkpt lat="43.1153745" lon="11.6136326"><ele>370.0</ele><time>2026-04-04T14:10:01.091Z</time></trkpt><trkpt lat="43.1154161" lon="11.6136982"><ele>370.0</ele><time>2026-04-04T14:10:02.092Z</time></trkpt><trkpt lat="43.1154703" lon="11.6137548"><ele>369.99999999999994</ele><time>2026-04-04T14:10:03.092Z</time></trkpt><trkpt lat="43.1155175" lon="11.6138225"><ele>370.0</ele><time>2026-04-04T14:10:04.09Z</time></trkpt><trkpt lat="43.1156258" lon="11.6139278"><ele>369.16666666666663</ele><time>2026-04-04T14:10:06.092Z</time></trkpt><trkpt lat="43.1156893" lon="11.6139812"><ele>368.3333333333333</ele><time>2026-04-04T14:10:07.093Z</time></trkpt><trkpt lat="43.1157597" lon="11.614034"><ele>367.5</ele><time>2026-04-04T14:10:08.092Z</time></trkpt><trkpt lat="43.1158256" lon="11.614089"><ele>366.6666666666667</ele><time>2026-04-04T14:10:09.092Z</time></trkpt><trkpt lat="43.1158905" lon="11.6141574"><ele>365.83333333333337</ele><time>2026-04-04T14:10:10.092Z</time></trkpt><trkpt lat="43.1159529" lon="11.6142466"><ele>365.0</ele><time>2026-04-04T14:10:11.091Z</time></trkpt><trkpt lat="43.1160055" lon="11.6143443"><ele>366.83333333333337</ele><time>2026-04-04T14:10:12.092Z</time></trkpt><trkpt lat="43.1160346" lon="11.6144422"><ele>368.6666666666667</ele><time>2026-04-04T14:10:13.091Z</time></trkpt><trkpt lat="43.1160699" lon="11.6145515"><ele>370.5</ele><time>2026-04-04T14:10:14.092Z</time></trkpt><trkpt lat="43.1161" lon="11.6146554"><ele>372.3333333333333</ele><time>2026-04-04T14:10:15.091Z</time></trkpt><trkpt lat="43.11611" lon="11.6147653"><ele>374.16666666666663</ele><time>2026-04-04T14:10:16.091Z</time></trkpt><trkpt lat="43.1161238" lon="11.6148797"><ele>376.0</ele><time>2026-04-04T14:10:17.091Z</time></trkpt><trkpt lat="43.1161288" lon="11.6149917"><ele>376.16666666666663</ele><time>2026-04-04T14:10:18.091Z</time></trkpt><trkpt lat="43.1161268" lon="11.615097"><ele>376.3333333333333</ele><time>2026-04-04T14:10:19.091Z</time></trkpt><trkpt lat="43.1161238" lon="11.6152115"><ele>376.5</ele><time>2026-04-04T14:10:20.092Z</time></trkpt><trkpt lat="43.1161179" lon="11.6153232"><ele>376.6666666666667</ele><time>2026-04-04T14:10:21.092Z</time></trkpt><trkpt lat="43.1161102" lon="11.6154426"><ele>376.83333333333337</ele><time>2026-04-04T14:10:22.091Z</time></trkpt><trkpt lat="43.1161055" lon="11.615559"><ele>377.0</ele><time>2026-04-04T14:10:23.092Z</time></trkpt><trkpt lat="43.1160896" lon="11.6156777"><ele>377.33333333333337</ele><time>2026-04-04T14:10:24.091Z</time></trkpt><trkpt lat="43.116076" lon="11.615789"><ele>377.6666666666667</ele><time>2026-04-04T14:10:25.092Z</time></trkpt><trkpt lat="43.1160658" lon="11.6159093"><ele>378.0</ele><time>2026-04-04T14:10:26.092Z</time></trkpt><trkpt lat="43.116045" lon="11.6160207"><ele>378.3333333333333</ele><time>2026-04-04T14:10:27.092Z</time></trkpt><trkpt lat="43.1160211" lon="11.6161301"><ele>378.66666666666663</ele><time>2026-04-04T14:10:28.09Z</time></trkpt><trkpt lat="43.1159864" lon="11.6162323"><ele>379.0</ele><time>2026-04-04T14:10:29.093Z</time></trkpt><trkpt lat="43.1159511" lon="11.6163301"><ele>379.3333333333333</ele><time>2026-04-04T14:10:30.093Z</time></trkpt><trkpt lat="43.1159044" lon="11.6164347"><ele>379.66666666666663</ele><time>2026-04-04T14:10:31.093Z</time></trkpt><trkpt lat="43.1158644" lon="11.6165405"><ele>380.0</ele><time>2026-04-04T14:10:32.093Z</time></trkpt><trkpt lat="43.1158211" lon="11.6166485"><ele>380.3333333333333</ele><time>2026-04-04T14:10:33.091Z</time></trkpt><trkpt lat="43.1157791" lon="11.6167576"><ele>380.6666666666667</ele><time>2026-04-04T14:10:34.092Z</time></trkpt><trkpt lat="43.1157373" lon="11.616865"><ele>381.0</ele><time>2026-04-04T14:10:35.091Z</time></trkpt><trkpt lat="43.1156919" lon="11.616972"><ele>381.1666666666667</ele><time>2026-04-04T14:10:36.093Z</time></trkpt><trkpt lat="43.1156437" lon="11.617079"><ele>381.3333333333333</ele><time>2026-04-04T14:10:37.091Z</time></trkpt><trkpt lat="43.1155992" lon="11.6171806"><ele>381.5</ele><time>2026-04-04T14:10:38.09Z</time></trkpt><trkpt lat="43.1155541" lon="11.6172797"><ele>381.66666666666663</ele><time>2026-04-04T14:10:39.091Z</time></trkpt><trkpt lat="43.1155121" lon="11.617383"><ele>381.8333333333333</ele><time>2026-04-04T14:10:40.093Z</time></trkpt><trkpt lat="43.1154639" lon="11.6174872"><ele>382.0</ele><time>2026-04-04T14:10:41.091Z</time></trkpt><trkpt lat="43.115424" lon="11.6175786"><ele>382.0</ele><time>2026-04-04T14:10:42.093Z</time></trkpt><trkpt lat="43.1153852" lon="11.6176821"><ele>382.0</ele><time>2026-04-04T14:10:43.092Z</time></trkpt><trkpt lat="43.1153522" lon="11.6177777"><ele>382.0</ele><time>2026-04-04T14:10:44.091Z</time></trkpt><trkpt lat="43.1153099" lon="11.6178746"><ele>382.0</ele><time>2026-04-04T14:10:45.09Z</time></trkpt><trkpt lat="43.1152825" lon="11.6179666"><ele>382.0</ele><time>2026-04-04T14:10:46.092Z</time></trkpt><trkpt lat="43.1152545" lon="11.6180604"><ele>382.0</ele><time>2026-04-04T14:10:47.091Z</time></trkpt><trkpt lat="43.1152306" lon="11.6181427"><ele>383.16666666666663</ele><time>2026-04-04T14:10:48.092Z</time></trkpt><trkpt lat="43.1152016" lon="11.6182756"><ele>384.3333333333333</ele><time>2026-04-04T14:10:50.091Z</time></trkpt><trkpt lat="43.1151912" lon="11.6183644"><ele>385.5</ele><time>2026-04-04T14:10:52.09Z</time></trkpt><trkpt lat="43.1152399" lon="11.6184352"><ele>386.66666666666663</ele><time>2026-04-04T14:10:55.091Z</time></trkpt><trkpt lat="43.1152961" lon="11.6184874"><ele>387.8333333333333</ele><time>2026-04-04T14:10:58.09Z</time></trkpt><trkpt lat="43.1153754" lon="11.6185271"><ele>389.0</ele><time>2026-04-04T14:11:00.091Z</time></trkpt><trkpt lat="43.1154934" lon="11.6185611"><ele>389.0</ele><time>2026-04-04T14:11:02.091Z</time></trkpt><trkpt lat="43.115559" lon="11.6185839"><ele>389.0</ele><time>2026-04-04T14:11:03.092Z</time></trkpt><trkpt lat="43.1156311" lon="11.6185946"><ele>389.0</ele><time>2026-04-04T14:11:04.091Z</time></trkpt><trkpt lat="43.1157051" lon="11.6186067"><ele>389.0</ele><time>2026-04-04T14:11:05.091Z</time></trkpt><trkpt lat="43.1157837" lon="11.6186162"><ele>389.0</ele><time>2026-04-04T14:11:06.092Z</time></trkpt><trkpt lat="43.1158557" lon="11.618623"><ele>389.0</ele><time>2026-04-04T14:11:07.092Z</time></trkpt><trkpt lat="43.11593" lon="11.6186306"><ele>389.0</ele><time>2026-04-04T14:11:08.092Z</time></trkpt><trkpt lat="43.1160006" lon="11.6186327"><ele>388.5714285714286</ele><time>2026-04-04T14:11:09.091Z</time></trkpt><trkpt lat="43.1160707" lon="11.6186278"><ele>388.1428571428571</ele><time>2026-04-04T14:11:10.093Z</time></trkpt><trkpt lat="43.1161345" lon="11.6186094"><ele>387.7142857142857</ele><time>2026-04-04T14:11:11.091Z</time></trkpt><trkpt lat="43.1162044" lon="11.6185921"><ele>387.28571428571433</ele><time>2026-04-04T14:11:12.092Z</time></trkpt><trkpt lat="43.1162734" lon="11.61856"><ele>386.8571428571429</ele><time>2026-04-04T14:11:13.091Z</time></trkpt><trkpt lat="43.1163499" lon="11.6185285"><ele>386.42857142857144</ele><time>2026-04-04T14:11:14.09Z</time></trkpt><trkpt lat="43.1164241" lon="11.618498"><ele>386.0</ele><time>2026-04-04T14:11:15.091Z</time></trkpt><trkpt lat="43.116503" lon="11.6184788"><ele>384.66666666666663</ele><time>2026-04-04T14:11:16.092Z</time></trkpt><trkpt lat="43.1165758" lon="11.6184647"><ele>383.3333333333333</ele><time>2026-04-04T14:11:17.091Z</time></trkpt><trkpt lat="43.116658" lon="11.6184557"><ele>382.0</ele><time>2026-04-04T14:11:18.092Z</time></trkpt><trkpt lat="43.1167477" lon="11.6184557"><ele>380.66666666666663</ele><time>2026-04-04T14:11:19.093Z</time></trkpt><trkpt lat="43.1168324" lon="11.6184589"><ele>379.3333333333333</ele><time>2026-04-04T14:11:20.09Z</time></trkpt><trkpt lat="43.1169176" lon="11.6184506"><ele>378.0</ele><time>2026-04-04T14:11:21.091Z</time></trkpt><trkpt lat="43.1170041" lon="11.6184484"><ele>378.0</ele><time>2026-04-04T14:11:22.092Z</time></trkpt><trkpt lat="43.1170926" lon="11.6184567"><ele>378.0</ele><time>2026-04-04T14:11:23.091Z</time></trkpt><trkpt lat="43.1171807" lon="11.6184702"><ele>378.0</ele><time>2026-04-04T14:11:24.091Z</time></trkpt><trkpt lat="43.1172726" lon="11.6184833"><ele>378.0</ele><time>2026-04-04T14:11:25.091Z</time></trkpt><trkpt lat="43.117353" lon="11.6184979"><ele>378.0</ele><time>2026-04-04T14:11:26.09Z</time></trkpt><trkpt lat="43.1174466" lon="11.6185103"><ele>378.0</ele><time>2026-04-04T14:11:27.09Z</time></trkpt><trkpt lat="43.1175435" lon="11.6185168"><ele>377.0</ele><time>2026-04-04T14:11:28.091Z</time></trkpt><trkpt lat="43.1176379" lon="11.6185071"><ele>376.0</ele><time>2026-04-04T14:11:29.091Z</time></trkpt><trkpt lat="43.1177363" lon="11.6185023"><ele>375.0</ele><time>2026-04-04T14:11:30.092Z</time></trkpt><trkpt lat="43.1178392" lon="11.6185045"><ele>374.0</ele><time>2026-04-04T14:11:31.092Z</time></trkpt><trkpt lat="43.1179461" lon="11.6185085"><ele>373.0</ele><time>2026-04-04T14:11:32.091Z</time></trkpt><trkpt lat="43.1180587" lon="11.6185063"><ele>373.0</ele><time>2026-04-04T14:11:33.091Z</time></trkpt><trkpt lat="43.1181707" lon="11.6185168"><ele>373.0</ele><time>2026-04-04T14:11:34.092Z</time></trkpt><trkpt lat="43.118274" lon="11.6185245"><ele>373.0</ele><time>2026-04-04T14:11:35.091Z</time></trkpt><trkpt lat="43.1183828" lon="11.6185151"><ele>373.0</ele><time>2026-04-04T14:11:36.091Z</time></trkpt><trkpt lat="43.1184874" lon="11.6185127"><ele>373.0</ele><time>2026-04-04T14:11:37.092Z</time></trkpt><trkpt lat="43.1185912" lon="11.618515"><ele>372.59999999999997</ele><time>2026-04-04T14:11:38.092Z</time></trkpt><trkpt lat="43.1186927" lon="11.6185084"><ele>372.2</ele><time>2026-04-04T14:11:39.092Z</time></trkpt><trkpt lat="43.1187968" lon="11.6185142"><ele>371.8</ele><time>2026-04-04T14:11:40.091Z</time></trkpt><trkpt lat="43.1188992" lon="11.6185336"><ele>371.4</ele><time>2026-04-04T14:11:41.091Z</time></trkpt><trkpt lat="43.1190009" lon="11.6185465"><ele>371.0</ele><time>2026-04-04T14:11:42.09Z</time></trkpt><trkpt lat="43.119106" lon="11.6185581"><ele>370.6</ele><time>2026-04-04T14:11:43.091Z</time></trkpt><trkpt lat="43.1192109" lon="11.6185738"><ele>370.20000000000005</ele><time>2026-04-04T14:11:44.092Z</time></trkpt><trkpt lat="43.119316" lon="11.6185927"><ele>369.79999999999995</ele><time>2026-04-04T14:11:45.092Z</time></trkpt><trkpt lat="43.1194276" lon="11.6186164"><ele>369.4</ele><time>2026-04-04T14:11:46.091Z</time></trkpt><trkpt lat="43.1195377" lon="11.6186447"><ele>369.0</ele><time>2026-04-04T14:11:47.092Z</time></trkpt><trkpt lat="43.1196465" lon="11.6186555"><ele>369.0</ele><time>2026-04-04T14:11:48.091Z</time></trkpt><trkpt lat="43.1197734" lon="11.6186563"><ele>369.0</ele><time>2026-04-04T14:11:49.091Z</time></trkpt><trkpt lat="43.1199173" lon="11.6186611"><ele>369.0</ele><time>2026-04-04T14:11:50.09Z</time></trkpt><trkpt lat="43.1200608" lon="11.6186739"><ele>369.0</ele><time>2026-04-04T14:11:51.092Z</time></trkpt><trkpt lat="43.120187" lon="11.6186893"><ele>370.2</ele><time>2026-04-04T14:11:52.09Z</time></trkpt><trkpt lat="43.1202908" lon="11.6187015"><ele>371.4</ele><time>2026-04-04T14:11:53.091Z</time></trkpt><trkpt lat="43.1203842" lon="11.6187175"><ele>372.6</ele><time>2026-04-04T14:11:54.091Z</time></trkpt><trkpt lat="43.1204568" lon="11.6187221"><ele>373.8</ele><time>2026-04-04T14:11:55.091Z</time></trkpt><trkpt lat="43.1205692" lon="11.6187278"><ele>375.0</ele><time>2026-04-04T14:11:57.091Z</time></trkpt><trkpt lat="43.1206814" lon="11.6187215"><ele>376.0</ele><time>2026-04-04T14:11:59.09Z</time></trkpt><trkpt lat="43.1207959" lon="11.6186732"><ele>377.0</ele><time>2026-04-04T14:12:01.091Z</time></trkpt><trkpt lat="43.1208566" lon="11.6186419"><ele>378.0</ele><time>2026-04-04T14:12:02.092Z</time></trkpt><trkpt lat="43.1209676" lon="11.6185589"><ele>379.0</ele><time>2026-04-04T14:12:04.09Z</time></trkpt><trkpt lat="43.1210247" lon="11.6184958"><ele>380.0</ele><time>2026-04-04T14:12:05.09Z</time></trkpt><trkpt lat="43.1210775" lon="11.6184371"><ele>380.0</ele><time>2026-04-04T14:12:06.092Z</time></trkpt><trkpt lat="43.1211399" lon="11.6183672"><ele>380.0</ele><time>2026-04-04T14:12:07.092Z</time></trkpt><trkpt lat="43.1211952" lon="11.6182916"><ele>380.0</ele><time>2026-04-04T14:12:08.09Z</time></trkpt><trkpt lat="43.1212624" lon="11.6182206"><ele>380.0</ele><time>2026-04-04T14:12:09.091Z</time></trkpt><trkpt lat="43.1213297" lon="11.6181443"><ele>380.0</ele><time>2026-04-04T14:12:10.092Z</time></trkpt><trkpt lat="43.121404" lon="11.6180668"><ele>380.0</ele><time>2026-04-04T14:12:11.091Z</time></trkpt><trkpt lat="43.1214786" lon="11.6179964"><ele>380.0</ele><time>2026-04-04T14:12:12.091Z</time></trkpt><trkpt lat="43.1215438" lon="11.6179308"><ele>380.0</ele><time>2026-04-04T14:12:13.089Z</time></trkpt><trkpt lat="43.1215986" lon="11.6178733"><ele>380.0</ele><time>2026-04-04T14:12:14.092Z</time></trkpt><trkpt lat="43.1216573" lon="11.6178154"><ele>380.0</ele><time>2026-04-04T14:12:15.092Z</time></trkpt><trkpt lat="43.1217139" lon="11.6177552"><ele>380.0</ele><time>2026-04-04T14:12:16.09Z</time></trkpt><trkpt lat="43.1217747" lon="11.6176999"><ele>380.0</ele><time>2026-04-04T14:12:17.089Z</time></trkpt><trkpt lat="43.1218242" lon="11.6176367"><ele>380.0</ele><time>2026-04-04T14:12:18.091Z</time></trkpt><trkpt lat="43.1218883" lon="11.6175677"><ele>380.5</ele><time>2026-04-04T14:12:19.091Z</time></trkpt><trkpt lat="43.121958" lon="11.6175001"><ele>381.0</ele><time>2026-04-04T14:12:20.091Z</time></trkpt><trkpt lat="43.1220278" lon="11.6174265"><ele>381.5</ele><time>2026-04-04T14:12:21.091Z</time></trkpt><trkpt lat="43.1220997" lon="11.6173567"><ele>382.0</ele><time>2026-04-04T14:12:22.091Z</time></trkpt><trkpt lat="43.1221632" lon="11.6172983"><ele>382.5</ele><time>2026-04-04T14:12:23.091Z</time></trkpt><trkpt lat="43.1222358" lon="11.6172224"><ele>383.0</ele><time>2026-04-04T14:12:24.092Z</time></trkpt><trkpt lat="43.1223054" lon="11.6171483"><ele>383.0</ele><time>2026-04-04T14:12:25.092Z</time></trkpt><trkpt lat="43.1223766" lon="11.6170676"><ele>383.0</ele><time>2026-04-04T14:12:26.091Z</time></trkpt><trkpt lat="43.1224515" lon="11.6169723"><ele>383.0</ele><time>2026-04-04T14:12:27.091Z</time></trkpt><trkpt lat="43.1225213" lon="11.6168848"><ele>383.0</ele><time>2026-04-04T14:12:28.091Z</time></trkpt><trkpt lat="43.1225943" lon="11.6167931"><ele>383.0</ele><time>2026-04-04T14:12:29.092Z</time></trkpt><trkpt lat="43.1226639" lon="11.6166999"><ele>380.75</ele><time>2026-04-04T14:12:30.092Z</time></trkpt><trkpt lat="43.1227417" lon="11.6165722"><ele>378.5</ele><time>2026-04-04T14:12:31.09Z</time></trkpt><trkpt lat="43.1228049" lon="11.6164485"><ele>376.25</ele><time>2026-04-04T14:12:32.09Z</time></trkpt><trkpt lat="43.122868" lon="11.6163282"><ele>374.0</ele><time>2026-04-04T14:12:33.09Z</time></trkpt><trkpt lat="43.1229312" lon="11.6161915"><ele>373.4</ele><time>2026-04-04T14:12:34.091Z</time></trkpt><trkpt lat="43.1229808" lon="11.6160674"><ele>372.79999999999995</ele><time>2026-04-04T14:12:35.091Z</time></trkpt><trkpt lat="43.1230351" lon="11.6159461"><ele>372.20000000000005</ele><time>2026-04-04T14:12:36.092Z</time></trkpt><trkpt lat="43.1230969" lon="11.6158145"><ele>371.6</ele><time>2026-04-04T14:12:37.092Z</time></trkpt><trkpt lat="43.1231501" lon="11.6157034"><ele>371.0</ele><time>2026-04-04T14:12:38.091Z</time></trkpt><trkpt lat="43.1231971" lon="11.6155917"><ele>371.8</ele><time>2026-04-04T14:12:39.091Z</time></trkpt><trkpt lat="43.1232455" lon="11.6154883"><ele>372.6</ele><time>2026-04-04T14:12:40.09Z</time></trkpt><trkpt lat="43.1232993" lon="11.6153883"><ele>373.4</ele><time>2026-04-04T14:12:41.091Z</time></trkpt><trkpt lat="43.1233539" lon="11.6152879"><ele>374.2</ele><time>2026-04-04T14:12:42.091Z</time></trkpt><trkpt lat="43.1234268" lon="11.6152005"><ele>375.0</ele><time>2026-04-04T14:12:43.09Z</time></trkpt><trkpt lat="43.1234825" lon="11.6151049"><ele>376.1666666666667</ele><time>2026-04-04T14:12:44.091Z</time></trkpt><trkpt lat="43.1235288" lon="11.6150247"><ele>377.3333333333333</ele><time>2026-04-04T14:12:45.09Z</time></trkpt><trkpt lat="43.1235771" lon="11.6149415"><ele>378.5</ele><time>2026-04-04T14:12:46.091Z</time></trkpt><trkpt lat="43.1236482" lon="11.614839"><ele>379.66666666666663</ele><time>2026-04-04T14:12:47.09Z</time></trkpt><trkpt lat="43.1237037" lon="11.614753"><ele>380.8333333333333</ele><time>2026-04-04T14:12:48.09Z</time></trkpt><trkpt lat="43.1237523" lon="11.6146878"><ele>382.0</ele><time>2026-04-04T14:12:49.09Z</time></trkpt><trkpt lat="43.1238116" lon="11.6146211"><ele>382.0</ele><time>2026-04-04T14:12:50.091Z</time></trkpt><trkpt lat="43.1238769" lon="11.6145569"><ele>382.0</ele><time>2026-04-04T14:12:51.091Z</time></trkpt><trkpt lat="43.1239375" lon="11.6145097"><ele>382.0</ele><time>2026-04-04T14:12:52.092Z</time></trkpt><trkpt lat="43.1240066" lon="11.6144539"><ele>382.0</ele><time>2026-04-04T14:12:53.091Z</time></trkpt><trkpt lat="43.1240679" lon="11.6144061"><ele>382.0</ele><time>2026-04-04T14:12:54.09Z</time></trkpt><trkpt lat="43.1241283" lon="11.6143693"><ele>382.0</ele><time>2026-04-04T14:12:55.091Z</time></trkpt><trkpt lat="43.1241993" lon="11.6143439"><ele>382.0</ele><time>2026-04-04T14:12:56.092Z</time></trkpt><trkpt lat="43.1242734" lon="11.6143179"><ele>383.16666666666663</ele><time>2026-04-04T14:12:57.09Z</time></trkpt><trkpt lat="43.1243501" lon="11.6143011"><ele>384.3333333333333</ele><time>2026-04-04T14:12:58.09Z</time></trkpt><trkpt lat="43.1244308" lon="11.6142792"><ele>385.5</ele><time>2026-04-04T14:12:59.092Z</time></trkpt><trkpt lat="43.1245144" lon="11.6142621"><ele>386.66666666666663</ele><time>2026-04-04T14:13:00.091Z</time></trkpt><trkpt lat="43.1245938" lon="11.6142442"><ele>387.8333333333333</ele><time>2026-04-04T14:13:01.091Z</time></trkpt><trkpt lat="43.1246768" lon="11.6142194"><ele>389.0</ele><time>2026-04-04T14:13:02.09Z</time></trkpt><trkpt lat="43.1247635" lon="11.6142096"><ele>389.0</ele><time>2026-04-04T14:13:03.09Z</time></trkpt><trkpt lat="43.1248656" lon="11.6141996"><ele>389.0</ele><time>2026-04-04T14:13:04.092Z</time></trkpt><trkpt lat="43.1249697" lon="11.6142033"><ele>389.0</ele><time>2026-04-04T14:13:05.091Z</time></trkpt><trkpt lat="43.1250586" lon="11.6142391"><ele>389.0</ele><time>2026-04-04T14:13:06.091Z</time></trkpt><trkpt lat="43.1251675" lon="11.6142771"><ele>389.0</ele><time>2026-04-04T14:13:07.091Z</time></trkpt><trkpt lat="43.1252886" lon="11.6143402"><ele>387.6</ele><time>2026-04-04T14:13:08.09Z</time></trkpt><trkpt lat="43.1254044" lon="11.6143884"><ele>386.2</ele><time>2026-04-04T14:13:09.09Z</time></trkpt><trkpt lat="43.1255073" lon="11.6144391"><ele>384.8</ele><time>2026-04-04T14:13:10.091Z</time></trkpt><trkpt lat="43.1256059" lon="11.6144712"><ele>383.40000000000003</ele><time>2026-04-04T14:13:11.092Z</time></trkpt><trkpt lat="43.1256851" lon="11.6144894"><ele>382.0</ele><time>2026-04-04T14:13:12.092Z</time></trkpt><trkpt lat="43.1257632" lon="11.614512"><ele>381.40000000000003</ele><time>2026-04-04T14:13:13.092Z</time></trkpt><trkpt lat="43.1258457" lon="11.6145187"><ele>380.8</ele><time>2026-04-04T14:13:14.091Z</time></trkpt><trkpt lat="43.1259397" lon="11.6145165"><ele>380.2</ele><time>2026-04-04T14:13:15.09Z</time></trkpt><trkpt lat="43.1260456" lon="11.614485"><ele>379.6</ele><time>2026-04-04T14:13:16.091Z</time></trkpt><trkpt lat="43.1261365" lon="11.6144652"><ele>379.0</ele><time>2026-04-04T14:13:17.091Z</time></trkpt><trkpt lat="43.1262282" lon="11.614453"><ele>379.0</ele><time>2026-04-04T14:13:18.091Z</time></trkpt><trkpt lat="43.1263237" lon="11.6144428"><ele>379.0</ele><time>2026-04-04T14:13:19.091Z</time></trkpt><trkpt lat="43.1264503" lon="11.6144247"><ele>379.0</ele><time>2026-04-04T14:13:20.091Z</time></trkpt><trkpt lat="43.1265687" lon="11.6144124"><ele>379.0</ele><time>2026-04-04T14:13:21.092Z</time></trkpt><trkpt lat="43.1266797" lon="11.6143918"><ele>378.8333333333333</ele><time>2026-04-04T14:13:22.091Z</time></trkpt><trkpt lat="43.1267829" lon="11.6143938"><ele>378.66666666666663</ele><time>2026-04-04T14:13:23.091Z</time></trkpt><trkpt lat="43.1268771" lon="11.6143917"><ele>378.5</ele><time>2026-04-04T14:13:24.091Z</time></trkpt><trkpt lat="43.1269639" lon="11.6143872"><ele>378.3333333333333</ele><time>2026-04-04T14:13:25.09Z</time></trkpt><trkpt lat="43.1270459" lon="11.6143764"><ele>378.1666666666667</ele><time>2026-04-04T14:13:26.09Z</time></trkpt><trkpt lat="43.1271189" lon="11.6143703"><ele>378.0</ele><time>2026-04-04T14:13:27.09Z</time></trkpt><trkpt lat="43.1271823" lon="11.6143648"><ele>378.0</ele><time>2026-04-04T14:13:28.091Z</time></trkpt><trkpt lat="43.1272934" lon="11.6143129"><ele>378.0</ele><time>2026-04-04T14:13:30.091Z</time></trkpt><trkpt lat="43.1273574" lon="11.6142753"><ele>378.0</ele><time>2026-04-04T14:13:31.09Z</time></trkpt><trkpt lat="43.1274204" lon="11.6142248"><ele>378.0</ele><time>2026-04-04T14:13:32.089Z</time></trkpt><trkpt lat="43.1274824" lon="11.6141627"><ele>378.0</ele><time>2026-04-04T14:13:33.09Z</time></trkpt><trkpt lat="43.12754" lon="11.6140967"><ele>378.0</ele><time>2026-04-04T14:13:34.089Z</time></trkpt><trkpt lat="43.1275896" lon="11.6140245"><ele>377.57142857142856</ele><time>2026-04-04T14:13:35.091Z</time></trkpt><trkpt lat="43.1276414" lon="11.6139487"><ele>377.1428571428571</ele><time>2026-04-04T14:13:36.09Z</time></trkpt><trkpt lat="43.1276937" lon="11.6138808"><ele>376.7142857142857</ele><time>2026-04-04T14:13:37.091Z</time></trkpt><trkpt lat="43.1277473" lon="11.6138096"><ele>376.2857142857143</ele><time>2026-04-04T14:13:38.09Z</time></trkpt><trkpt lat="43.1277959" lon="11.6137365"><ele>375.85714285714283</ele><time>2026-04-04T14:13:39.091Z</time></trkpt><trkpt lat="43.1278469" lon="11.6136704"><ele>375.42857142857144</ele><time>2026-04-04T14:13:40.091Z</time></trkpt><trkpt lat="43.1278895" lon="11.6135983"><ele>375.0</ele><time>2026-04-04T14:13:41.09Z</time></trkpt><trkpt lat="43.1279444" lon="11.6135309"><ele>374.1666666666667</ele><time>2026-04-04T14:13:42.091Z</time></trkpt><trkpt lat="43.1280033" lon="11.6134759"><ele>373.3333333333333</ele><time>2026-04-04T14:13:43.09Z</time></trkpt><trkpt lat="43.1280805" lon="11.613417"><ele>372.5</ele><time>2026-04-04T14:13:44.089Z</time></trkpt><trkpt lat="43.1281564" lon="11.6133608"><ele>371.66666666666663</ele><time>2026-04-04T14:13:45.092Z</time></trkpt><trkpt lat="43.1282303" lon="11.6133104"><ele>370.8333333333333</ele><time>2026-04-04T14:13:46.09Z</time></trkpt><trkpt lat="43.1283037" lon="11.6132575"><ele>370.0</ele><time>2026-04-04T14:13:47.091Z</time></trkpt><trkpt lat="43.1283852" lon="11.6131969"><ele>369.66666666666663</ele><time>2026-04-04T14:13:48.09Z</time></trkpt><trkpt lat="43.1284618" lon="11.6131468"><ele>369.3333333333333</ele><time>2026-04-04T14:13:49.091Z</time></trkpt><trkpt lat="43.1285325" lon="11.6130952"><ele>369.0</ele><time>2026-04-04T14:13:50.091Z</time></trkpt><trkpt lat="43.1286065" lon="11.6130463"><ele>368.6666666666667</ele><time>2026-04-04T14:13:51.091Z</time></trkpt><trkpt lat="43.1286732" lon="11.6130005"><ele>368.33333333333337</ele><time>2026-04-04T14:13:52.091Z</time></trkpt><trkpt lat="43.1287336" lon="11.6129551"><ele>368.0</ele><time>2026-04-04T14:13:53.091Z</time></trkpt><trkpt lat="43.1288154" lon="11.6128371"><ele>366.83333333333337</ele><time>2026-04-04T14:13:55.092Z</time></trkpt><trkpt lat="43.1288399" lon="11.6127334"><ele>365.6666666666667</ele><time>2026-04-04T14:13:56.091Z</time></trkpt><trkpt lat="43.1288607" lon="11.6126362"><ele>364.5</ele><time>2026-04-04T14:13:57.089Z</time></trkpt><trkpt lat="43.1288644" lon="11.6125361"><ele>363.3333333333333</ele><time>2026-04-04T14:13:58.09Z</time></trkpt><trkpt lat="43.128867" lon="11.6124257"><ele>362.16666666666663</ele><time>2026-04-04T14:13:59.091Z</time></trkpt><trkpt lat="43.1288696" lon="11.6122877"><ele>361.0</ele><time>2026-04-04T14:14:00.089Z</time></trkpt><trkpt lat="43.1288773" lon="11.6121019"><ele>359.25</ele><time>2026-04-04T14:14:01.09Z</time></trkpt><trkpt lat="43.1288854" lon="11.6119056"><ele>357.5</ele><time>2026-04-04T14:14:02.09Z</time></trkpt><trkpt lat="43.1288892" lon="11.611739"><ele>355.75</ele><time>2026-04-04T14:14:03.09Z</time></trkpt><trkpt lat="43.1288914" lon="11.611588"><ele>354.0</ele><time>2026-04-04T14:14:04.089Z</time></trkpt><trkpt lat="43.1288949" lon="11.611453"><ele>354.0</ele><time>2026-04-04T14:14:05.09Z</time></trkpt><trkpt lat="43.1289031" lon="11.6113264"><ele>354.0</ele><time>2026-04-04T14:14:06.09Z</time></trkpt><trkpt lat="43.1289066" lon="11.6112041"><ele>354.0</ele><time>2026-04-04T14:14:07.09Z</time></trkpt><trkpt lat="43.1289227" lon="11.6110663"><ele>354.0</ele><time>2026-04-04T14:14:08.091Z</time></trkpt><trkpt lat="43.1289295" lon="11.6109383"><ele>354.0</ele><time>2026-04-04T14:14:09.089Z</time></trkpt><trkpt lat="43.128932" lon="11.6108152"><ele>353.6</ele><time>2026-04-04T14:14:10.09Z</time></trkpt><trkpt lat="43.1289347" lon="11.6106851"><ele>353.2</ele><time>2026-04-04T14:14:11.09Z</time></trkpt><trkpt lat="43.1289281" lon="11.6105446"><ele>352.8</ele><time>2026-04-04T14:14:12.091Z</time></trkpt><trkpt lat="43.1289278" lon="11.6104086"><ele>352.40000000000003</ele><time>2026-04-04T14:14:13.09Z</time></trkpt><trkpt lat="43.1289025" lon="11.6102696"><ele>352.0</ele><time>2026-04-04T14:14:14.09Z</time></trkpt><trkpt lat="43.1288756" lon="11.6101368"><ele>353.40000000000003</ele><time>2026-04-04T14:14:15.09Z</time></trkpt><trkpt lat="43.1288459" lon="11.6100133"><ele>354.8</ele><time>2026-04-04T14:14:16.09Z</time></trkpt><trkpt lat="43.1288173" lon="11.6098786"><ele>356.2</ele><time>2026-04-04T14:14:17.091Z</time></trkpt><trkpt lat="43.1287722" lon="11.6097505"><ele>357.6</ele><time>2026-04-04T14:14:18.09Z</time></trkpt><trkpt lat="43.1287026" lon="11.6095883"><ele>359.0</ele><time>2026-04-04T14:14:19.09Z</time></trkpt><trkpt lat="43.1286322" lon="11.6094363"><ele>361.0</ele><time>2026-04-04T14:14:20.09Z</time></trkpt><trkpt lat="43.1285663" lon="11.609297"><ele>363.0</ele><time>2026-04-04T14:14:21.09Z</time></trkpt><trkpt lat="43.1285065" lon="11.6091546"><ele>365.0</ele><time>2026-04-04T14:14:22.089Z</time></trkpt><trkpt lat="43.128461" lon="11.6090362"><ele>367.0</ele><time>2026-04-04T14:14:23.089Z</time></trkpt><trkpt lat="43.1284218" lon="11.6089264"><ele>369.0</ele><time>2026-04-04T14:14:24.09Z</time></trkpt><trkpt lat="43.1283814" lon="11.6088171"><ele>369.0</ele><time>2026-04-04T14:14:25.091Z</time></trkpt><trkpt lat="43.1283437" lon="11.6087047"><ele>369.0</ele><time>2026-04-04T14:14:26.091Z</time></trkpt><trkpt lat="43.1282993" lon="11.608597"><ele>369.0</ele><time>2026-04-04T14:14:27.091Z</time></trkpt><trkpt lat="43.1282517" lon="11.6084828"><ele>369.0</ele><time>2026-04-04T14:14:28.09Z</time></trkpt><trkpt lat="43.1281996" lon="11.6083833"><ele>369.0</ele><time>2026-04-04T14:14:29.09Z</time></trkpt><trkpt lat="43.1281477" lon="11.6082766"><ele>369.1666666666667</ele><time>2026-04-04T14:14:30.09Z</time></trkpt><trkpt lat="43.1280896" lon="11.6081781"><ele>369.3333333333333</ele><time>2026-04-04T14:14:31.09Z</time></trkpt><trkpt lat="43.1280335" lon="11.6080893"><ele>369.5</ele><time>2026-04-04T14:14:32.089Z</time></trkpt><trkpt lat="43.1279794" lon="11.6080012"><ele>369.66666666666663</ele><time>2026-04-04T14:14:33.09Z</time></trkpt><trkpt lat="43.1279271" lon="11.6079056"><ele>369.8333333333333</ele><time>2026-04-04T14:14:34.09Z</time></trkpt><trkpt lat="43.1278733" lon="11.6078149"><ele>370.0</ele><time>2026-04-04T14:14:35.089Z</time></trkpt><trkpt lat="43.1278204" lon="11.607722"><ele>370.0</ele><time>2026-04-04T14:14:36.09Z</time></trkpt><trkpt lat="43.1277743" lon="11.6076123"><ele>370.0</ele><time>2026-04-04T14:14:37.09Z</time></trkpt><trkpt lat="43.1277259" lon="11.6075076"><ele>370.0</ele><time>2026-04-04T14:14:38.089Z</time></trkpt><trkpt lat="43.12769" lon="11.6073953"><ele>370.0</ele><time>2026-04-04T14:14:39.09Z</time></trkpt><trkpt lat="43.1276519" lon="11.6072891"><ele>370.0</ele><time>2026-04-04T14:14:40.089Z</time></trkpt><trkpt lat="43.127615" lon="11.6071897"><ele>370.0</ele><time>2026-04-04T14:14:41.089Z</time></trkpt><trkpt lat="43.1275815" lon="11.6070898"><ele>370.3333333333333</ele><time>2026-04-04T14:14:42.09Z</time></trkpt><trkpt lat="43.1275484" lon="11.6069903"><ele>370.66666666666663</ele><time>2026-04-04T14:14:43.09Z</time></trkpt><trkpt lat="43.1275236" lon="11.6068662"><ele>371.0</ele><time>2026-04-04T14:14:44.089Z</time></trkpt><trkpt lat="43.1274931" lon="11.6067654"><ele>371.3333333333333</ele><time>2026-04-04T14:14:45.088Z</time></trkpt><trkpt lat="43.1274666" lon="11.6066689"><ele>371.6666666666667</ele><time>2026-04-04T14:14:46.09Z</time></trkpt><trkpt lat="43.1274491" lon="11.6065788"><ele>372.0</ele><time>2026-04-04T14:14:47.089Z</time></trkpt><trkpt lat="43.1274306" lon="11.6064773"><ele>372.0</ele><time>2026-04-04T14:14:48.09Z</time></trkpt><trkpt lat="43.1274227" lon="11.6063632"><ele>372.0</ele><time>2026-04-04T14:14:49.089Z</time></trkpt><trkpt lat="43.1274037" lon="11.6062702"><ele>372.0</ele><time>2026-04-04T14:14:50.091Z</time></trkpt><trkpt lat="43.1273777" lon="11.6061839"><ele>372.0</ele><time>2026-04-04T14:14:51.089Z</time></trkpt><trkpt lat="43.1273528" lon="11.6060849"><ele>372.0</ele><time>2026-04-04T14:14:52.091Z</time></trkpt><trkpt lat="43.1273176" lon="11.6059857"><ele>372.0</ele><time>2026-04-04T14:14:53.088Z</time></trkpt><trkpt lat="43.1272756" lon="11.6058747"><ele>369.5</ele><time>2026-04-04T14:14:54.09Z</time></trkpt><trkpt lat="43.1272186" lon="11.6057661"><ele>367.0</ele><time>2026-04-04T14:14:55.089Z</time></trkpt><trkpt lat="43.1271443" lon="11.6056447"><ele>364.5</ele><time>2026-04-04T14:14:56.09Z</time></trkpt><trkpt lat="43.1270556" lon="11.6055287"><ele>362.0</ele><time>2026-04-04T14:14:57.09Z</time></trkpt><trkpt lat="43.1269494" lon="11.6054151"><ele>362.25</ele><time>2026-04-04T14:14:58.091Z</time></trkpt><trkpt lat="43.1268351" lon="11.6053124"><ele>362.5</ele><time>2026-04-04T14:14:59.091Z</time></trkpt><trkpt lat="43.1267336" lon="11.6052072"><ele>362.75</ele><time>2026-04-04T14:15:00.091Z</time></trkpt><trkpt lat="43.1266422" lon="11.6050976"><ele>363.0</ele><time>2026-04-04T14:15:01.089Z</time></trkpt><trkpt lat="43.1265541" lon="11.6049995"><ele>362.5</ele><time>2026-04-04T14:15:02.09Z</time></trkpt><trkpt lat="43.1264746" lon="11.6048849"><ele>362.0</ele><time>2026-04-04T14:15:03.09Z</time></trkpt><trkpt lat="43.1263972" lon="11.604743"><ele>361.5</ele><time>2026-04-04T14:15:04.091Z</time></trkpt><trkpt lat="43.1263163" lon="11.6045784"><ele>361.0</ele><time>2026-04-04T14:15:05.09Z</time></trkpt><trkpt lat="43.1262355" lon="11.6043932"><ele>362.66666666666663</ele><time>2026-04-04T14:15:06.09Z</time></trkpt><trkpt lat="43.1261589" lon="11.6041851"><ele>364.3333333333333</ele><time>2026-04-04T14:15:07.091Z</time></trkpt><trkpt lat="43.1260746" lon="11.603978"><ele>366.0</ele><time>2026-04-04T14:15:08.089Z</time></trkpt><trkpt lat="43.1259784" lon="11.6037692"><ele>365.6666666666667</ele><time>2026-04-04T14:15:09.09Z</time></trkpt><trkpt lat="43.125876" lon="11.6035448"><ele>365.33333333333337</ele><time>2026-04-04T14:15:10.091Z</time></trkpt><trkpt lat="43.1257742" lon="11.6033162"><ele>365.0</ele><time>2026-04-04T14:15:11.09Z</time></trkpt><trkpt lat="43.1256915" lon="11.6030982"><ele>364.0</ele><time>2026-04-04T14:15:12.09Z</time></trkpt><trkpt lat="43.1256125" lon="11.6028901"><ele>363.0</ele><time>2026-04-04T14:15:13.089Z</time></trkpt><trkpt lat="43.125536" lon="11.6027137"><ele>362.0</ele><time>2026-04-04T14:15:14.09Z</time></trkpt><trkpt lat="43.1254671" lon="11.6025471"><ele>362.0</ele><time>2026-04-04T14:15:15.091Z</time></trkpt><trkpt lat="43.1254045" lon="11.6023971"><ele>362.0</ele><time>2026-04-04T14:15:16.089Z</time></trkpt><trkpt lat="43.1253492" lon="11.6022611"><ele>362.0</ele><time>2026-04-04T14:15:17.089Z</time></trkpt><trkpt lat="43.1252973" lon="11.6021355"><ele>362.0</ele><time>2026-04-04T14:15:18.089Z</time></trkpt><trkpt lat="43.1252491" lon="11.6020235"><ele>362.0</ele><time>2026-04-04T14:15:19.09Z</time></trkpt><trkpt lat="43.125203" lon="11.6019325"><ele>363.0</ele><time>2026-04-04T14:15:20.091Z</time></trkpt><trkpt lat="43.1251659" lon="11.6018482"><ele>364.0</ele><time>2026-04-04T14:15:21.09Z</time></trkpt><trkpt lat="43.1251102" lon="11.6017053"><ele>365.0</ele><time>2026-04-04T14:15:23.09Z</time></trkpt><trkpt lat="43.1250558" lon="11.6015716"><ele>366.0</ele><time>2026-04-04T14:15:25.088Z</time></trkpt><trkpt lat="43.1250034" lon="11.6014176"><ele>367.0</ele><time>2026-04-04T14:15:27.088Z</time></trkpt><trkpt lat="43.124974" lon="11.6013323"><ele>367.0</ele><time>2026-04-04T14:15:28.09Z</time></trkpt><trkpt lat="43.1249428" lon="11.6012446"><ele>367.0</ele><time>2026-04-04T14:15:29.089Z</time></trkpt><trkpt lat="43.1249145" lon="11.6011543"><ele>367.0</ele><time>2026-04-04T14:15:30.09Z</time></trkpt><trkpt lat="43.1248805" lon="11.60106"><ele>367.0</ele><time>2026-04-04T14:15:31.09Z</time></trkpt><trkpt lat="43.1248565" lon="11.6009744"><ele>367.0</ele><time>2026-04-04T14:15:32.089Z</time></trkpt><trkpt lat="43.1248244" lon="11.6008844"><ele>367.0</ele><time>2026-04-04T14:15:33.089Z</time></trkpt><trkpt lat="43.1247941" lon="11.6007982"><ele>367.0</ele><time>2026-04-04T14:15:34.089Z</time></trkpt><trkpt lat="43.1247614" lon="11.6007149"><ele>366.3333333333333</ele><time>2026-04-04T14:15:35.09Z</time></trkpt><trkpt lat="43.1247259" lon="11.6006189"><ele>365.66666666666663</ele><time>2026-04-04T14:15:36.09Z</time></trkpt><trkpt lat="43.1246926" lon="11.6005253"><ele>365.0</ele><time>2026-04-04T14:15:37.09Z</time></trkpt><trkpt lat="43.1246528" lon="11.6004403"><ele>364.3333333333333</ele><time>2026-04-04T14:15:38.089Z</time></trkpt><trkpt lat="43.1246102" lon="11.6003486"><ele>363.6666666666667</ele><time>2026-04-04T14:15:39.09Z</time></trkpt><trkpt lat="43.1245671" lon="11.6002702"><ele>363.0</ele><time>2026-04-04T14:15:40.088Z</time></trkpt><trkpt lat="43.1245258" lon="11.6001794"><ele>364.3333333333333</ele><time>2026-04-04T14:15:41.089Z</time></trkpt><trkpt lat="43.1244841" lon="11.6000857"><ele>365.6666666666667</ele><time>2026-04-04T14:15:42.091Z</time></trkpt><trkpt lat="43.1244358" lon="11.6000053"><ele>367.0</ele><time>2026-04-04T14:15:43.089Z</time></trkpt><trkpt lat="43.124397" lon="11.5999297"><ele>368.33333333333337</ele><time>2026-04-04T14:15:44.088Z</time></trkpt><trkpt lat="43.124335" lon="11.5998141"><ele>369.6666666666667</ele><time>2026-04-04T14:15:46.088Z</time></trkpt><trkpt lat="43.1242737" lon="11.5996985"><ele>371.0</ele><time>2026-04-04T14:15:48.088Z</time></trkpt><trkpt lat="43.1242053" lon="11.5995652"><ele>371.42857142857144</ele><time>2026-04-04T14:15:50.091Z</time></trkpt><trkpt lat="43.1241739" lon="11.5994853"><ele>371.8571428571429</ele><time>2026-04-04T14:15:51.089Z</time></trkpt><trkpt lat="43.1241389" lon="11.599411"><ele>372.2857142857143</ele><time>2026-04-04T14:15:52.09Z</time></trkpt><trkpt lat="43.1241092" lon="11.5993229"><ele>372.7142857142857</ele><time>2026-04-04T14:15:53.088Z</time></trkpt><trkpt lat="43.1240828" lon="11.5992367"><ele>373.14285714285717</ele><time>2026-04-04T14:15:54.091Z</time></trkpt><trkpt lat="43.1240761" lon="11.5991352"><ele>373.57142857142856</ele><time>2026-04-04T14:15:55.09Z</time></trkpt><trkpt lat="43.124074" lon="11.5990376"><ele>374.0</ele><time>2026-04-04T14:15:56.091Z</time></trkpt><trkpt lat="43.1240885" lon="11.5989422"><ele>374.0</ele><time>2026-04-04T14:15:57.089Z</time></trkpt><trkpt lat="43.1241149" lon="11.5988485"><ele>374.0</ele><time>2026-04-04T14:15:58.089Z</time></trkpt><trkpt lat="43.1241489" lon="11.5987484"><ele>374.0</ele><time>2026-04-04T14:15:59.09Z</time></trkpt><trkpt lat="43.1241895" lon="11.5986628"><ele>374.0</ele><time>2026-04-04T14:16:00.09Z</time></trkpt><trkpt lat="43.1242264" lon="11.5985613"><ele>374.0</ele><time>2026-04-04T14:16:01.091Z</time></trkpt><trkpt lat="43.1242642" lon="11.5984379"><ele>374.0</ele><time>2026-04-04T14:16:02.09Z</time></trkpt><trkpt lat="43.1243036" lon="11.5983239"><ele>373.0</ele><time>2026-04-04T14:16:03.09Z</time></trkpt><trkpt lat="43.1243314" lon="11.5982085"><ele>372.0</ele><time>2026-04-04T14:16:04.09Z</time></trkpt><trkpt lat="43.1243585" lon="11.5980932"><ele>371.0</ele><time>2026-04-04T14:16:05.089Z</time></trkpt><trkpt lat="43.1243727" lon="11.5979747"><ele>370.0</ele><time>2026-04-04T14:16:06.09Z</time></trkpt><trkpt lat="43.1243735" lon="11.5978596"><ele>369.0</ele><time>2026-04-04T14:16:07.089Z</time></trkpt><trkpt lat="43.1243735" lon="11.5977459"><ele>368.0</ele><time>2026-04-04T14:16:08.089Z</time></trkpt><trkpt lat="43.1243779" lon="11.5976219"><ele>367.59999999999997</ele><time>2026-04-04T14:16:09.089Z</time></trkpt><trkpt lat="43.124385" lon="11.5974929"><ele>367.2</ele><time>2026-04-04T14:16:10.089Z</time></trkpt><trkpt lat="43.1243892" lon="11.5973726"><ele>366.8</ele><time>2026-04-04T14:16:11.089Z</time></trkpt><trkpt lat="43.124394" lon="11.5972448"><ele>366.4</ele><time>2026-04-04T14:16:12.089Z</time></trkpt><trkpt lat="43.1244043" lon="11.5971283"><ele>366.0</ele><time>2026-04-04T14:16:13.089Z</time></trkpt><trkpt lat="43.1244121" lon="11.5970036"><ele>364.8333333333333</ele><time>2026-04-04T14:16:14.09Z</time></trkpt><trkpt lat="43.1244229" lon="11.5968785"><ele>363.6666666666667</ele><time>2026-04-04T14:16:15.09Z</time></trkpt><trkpt lat="43.1244295" lon="11.5967519"><ele>362.5</ele><time>2026-04-04T14:16:16.089Z</time></trkpt><trkpt lat="43.1244378" lon="11.5966486"><ele>361.33333333333337</ele><time>2026-04-04T14:16:17.09Z</time></trkpt><trkpt lat="43.1244405" lon="11.5965388"><ele>360.1666666666667</ele><time>2026-04-04T14:16:18.089Z</time></trkpt><trkpt lat="43.1244453" lon="11.5964316"><ele>359.0</ele><time>2026-04-04T14:16:19.088Z</time></trkpt><trkpt lat="43.1244568" lon="11.5963275"><ele>359.0</ele><time>2026-04-04T14:16:20.088Z</time></trkpt><trkpt lat="43.12447" lon="11.5962282"><ele>359.0</ele><time>2026-04-04T14:16:21.089Z</time></trkpt><trkpt lat="43.1244817" lon="11.596126"><ele>359.0</ele><time>2026-04-04T14:16:22.091Z</time></trkpt><trkpt lat="43.1244929" lon="11.5960231"><ele>359.0</ele><time>2026-04-04T14:16:23.091Z</time></trkpt><trkpt lat="43.1245029" lon="11.5959206"><ele>359.0</ele><time>2026-04-04T14:16:24.09Z</time></trkpt><trkpt lat="43.1245129" lon="11.5958207"><ele>359.0</ele><time>2026-04-04T14:16:25.088Z</time></trkpt><trkpt lat="43.1245113" lon="11.5957104"><ele>359.0</ele><time>2026-04-04T14:16:26.09Z</time></trkpt><trkpt lat="43.1245083" lon="11.5956001"><ele>359.0</ele><time>2026-04-04T14:16:27.09Z</time></trkpt><trkpt lat="43.1244914" lon="11.5954937"><ele>359.0</ele><time>2026-04-04T14:16:28.089Z</time></trkpt><trkpt lat="43.1244716" lon="11.5953799"><ele>359.0</ele><time>2026-04-04T14:16:29.09Z</time></trkpt><trkpt lat="43.1244379" lon="11.5952687"><ele>359.0</ele><time>2026-04-04T14:16:30.089Z</time></trkpt><trkpt lat="43.1244053" lon="11.5951548"><ele>359.0</ele><time>2026-04-04T14:16:31.088Z</time></trkpt><trkpt lat="43.1243659" lon="11.5950301"><ele>359.83333333333337</ele><time>2026-04-04T14:16:32.09Z</time></trkpt><trkpt lat="43.124333" lon="11.5948997"><ele>360.6666666666667</ele><time>2026-04-04T14:16:33.089Z</time></trkpt><trkpt lat="43.124299" lon="11.5947752"><ele>361.5</ele><time>2026-04-04T14:16:34.09Z</time></trkpt><trkpt lat="43.1242594" lon="11.5946651"><ele>362.3333333333333</ele><time>2026-04-04T14:16:35.09Z</time></trkpt><trkpt lat="43.1242238" lon="11.5945646"><ele>363.16666666666663</ele><time>2026-04-04T14:16:36.089Z</time></trkpt><trkpt lat="43.1241946" lon="11.5944815"><ele>364.0</ele><time>2026-04-04T14:16:37.09Z</time></trkpt><trkpt lat="43.1241557" lon="11.5943267"><ele>364.3333333333333</ele><time>2026-04-04T14:16:39.09Z</time></trkpt><trkpt lat="43.1241286" lon="11.5942433"><ele>364.66666666666663</ele><time>2026-04-04T14:16:40.089Z</time></trkpt><trkpt lat="43.1241085" lon="11.5941539"><ele>365.0</ele><time>2026-04-04T14:16:41.088Z</time></trkpt><trkpt lat="43.1241056" lon="11.5940241"><ele>365.3333333333333</ele><time>2026-04-04T14:16:43.089Z</time></trkpt><trkpt lat="43.1241109" lon="11.5939079"><ele>365.6666666666667</ele><time>2026-04-04T14:16:45.089Z</time></trkpt><trkpt lat="43.1241412" lon="11.5937736"><ele>366.0</ele><time>2026-04-04T14:16:47.089Z</time></trkpt><trkpt lat="43.1241535" lon="11.5936373"><ele>366.5</ele><time>2026-04-04T14:16:49.09Z</time></trkpt><trkpt lat="43.124151" lon="11.5935508"><ele>367.0</ele><time>2026-04-04T14:16:50.089Z</time></trkpt><trkpt lat="43.1241606" lon="11.5934574"><ele>367.5</ele><time>2026-04-04T14:16:51.088Z</time></trkpt><trkpt lat="43.1241732" lon="11.5933313"><ele>368.0</ele><time>2026-04-04T14:16:53.088Z</time></trkpt><trkpt lat="43.1242344" lon="11.5932387"><ele>368.5</ele><time>2026-04-04T14:16:55.089Z</time></trkpt><trkpt lat="43.1243287" lon="11.5931995"><ele>369.0</ele><time>2026-04-04T14:16:57.089Z</time></trkpt><trkpt lat="43.1244009" lon="11.5931861"><ele>369.0</ele><time>2026-04-04T14:16:58.088Z</time></trkpt><trkpt lat="43.1244704" lon="11.5931655"><ele>369.0</ele><time>2026-04-04T14:16:59.089Z</time></trkpt><trkpt lat="43.1245433" lon="11.5931294"><ele>369.0</ele><time>2026-04-04T14:17:00.089Z</time></trkpt><trkpt lat="43.1246098" lon="11.5930801"><ele>369.0</ele><time>2026-04-04T14:17:01.089Z</time></trkpt><trkpt lat="43.1246863" lon="11.5930331"><ele>369.0</ele><time>2026-04-04T14:17:02.088Z</time></trkpt><trkpt lat="43.124748" lon="11.5929788"><ele>369.0</ele><time>2026-04-04T14:17:03.09Z</time></trkpt><trkpt lat="43.1248238" lon="11.5929296"><ele>369.8333333333333</ele><time>2026-04-04T14:17:04.089Z</time></trkpt><trkpt lat="43.1249008" lon="11.5928882"><ele>370.6666666666667</ele><time>2026-04-04T14:17:05.09Z</time></trkpt><trkpt lat="43.1249779" lon="11.5928286"><ele>371.5</ele><time>2026-04-04T14:17:06.09Z</time></trkpt><trkpt lat="43.1250527" lon="11.5927754"><ele>372.33333333333337</ele><time>2026-04-04T14:17:07.089Z</time></trkpt><trkpt lat="43.125142" lon="11.5927266"><ele>373.1666666666667</ele><time>2026-04-04T14:17:08.089Z</time></trkpt><trkpt lat="43.1252281" lon="11.5926803"><ele>374.0</ele><time>2026-04-04T14:17:09.088Z</time></trkpt><trkpt lat="43.1252954" lon="11.592653"><ele>374.0</ele><time>2026-04-04T14:17:10.09Z</time></trkpt><trkpt lat="43.1253833" lon="11.5926182"><ele>374.0</ele><time>2026-04-04T14:17:11.089Z</time></trkpt><trkpt lat="43.1254847" lon="11.5925822"><ele>374.0</ele><time>2026-04-04T14:17:12.09Z</time></trkpt><trkpt lat="43.125602" lon="11.5925257"><ele>374.0</ele><time>2026-04-04T14:17:13.089Z</time></trkpt><trkpt lat="43.1256844" lon="11.5925034"><ele>374.0</ele><time>2026-04-04T14:17:14.088Z</time></trkpt><trkpt lat="43.1257712" lon="11.5924837"><ele>371.5</ele><time>2026-04-04T14:17:15.089Z</time></trkpt><trkpt lat="43.1258481" lon="11.5924615"><ele>369.0</ele><time>2026-04-04T14:17:16.089Z</time></trkpt><trkpt lat="43.1259269" lon="11.5924271"><ele>366.5</ele><time>2026-04-04T14:17:17.087Z</time></trkpt><trkpt lat="43.1260027" lon="11.5923676"><ele>364.0</ele><time>2026-04-04T14:17:18.09Z</time></trkpt><trkpt lat="43.1260626" lon="11.5923099"><ele>361.5</ele><time>2026-04-04T14:17:19.09Z</time></trkpt><trkpt lat="43.1261252" lon="11.5922301"><ele>359.0</ele><time>2026-04-04T14:17:20.09Z</time></trkpt><trkpt lat="43.12617" lon="11.5921464"><ele>359.0</ele><time>2026-04-04T14:17:21.089Z</time></trkpt><trkpt lat="43.1262156" lon="11.5920656"><ele>359.0</ele><time>2026-04-04T14:17:22.089Z</time></trkpt><trkpt lat="43.1262705" lon="11.5919679"><ele>359.0</ele><time>2026-04-04T14:17:23.088Z</time></trkpt><trkpt lat="43.1263062" lon="11.5918705"><ele>359.0</ele><time>2026-04-04T14:17:24.087Z</time></trkpt><trkpt lat="43.1263384" lon="11.5917717"><ele>359.0</ele><time>2026-04-04T14:17:25.089Z</time></trkpt><trkpt lat="43.126378" lon="11.5916578"><ele>359.0</ele><time>2026-04-04T14:17:26.089Z</time></trkpt><trkpt lat="43.1264099" lon="11.5915613"><ele>359.75</ele><time>2026-04-04T14:17:27.089Z</time></trkpt><trkpt lat="43.1264468" lon="11.5913795"><ele>360.5</ele><time>2026-04-04T14:17:29.088Z</time></trkpt><trkpt lat="43.1264653" lon="11.5912172"><ele>361.25</ele><time>2026-04-04T14:17:31.089Z</time></trkpt><trkpt lat="43.1264526" lon="11.5910759"><ele>362.0</ele><time>2026-04-04T14:17:32.091Z</time></trkpt><trkpt lat="43.1264212" lon="11.5909598"><ele>360.1666666666667</ele><time>2026-04-04T14:17:33.088Z</time></trkpt><trkpt lat="43.1263893" lon="11.5908668"><ele>358.33333333333337</ele><time>2026-04-04T14:17:34.09Z</time></trkpt><trkpt lat="43.1263621" lon="11.5907288"><ele>356.5</ele><time>2026-04-04T14:17:36.089Z</time></trkpt><trkpt lat="43.1263375" lon="11.5906425"><ele>354.6666666666667</ele><time>2026-04-04T14:17:37.089Z</time></trkpt><trkpt lat="43.1263367" lon="11.5904886"><ele>352.8333333333333</ele><time>2026-04-04T14:17:39.089Z</time></trkpt><trkpt lat="43.1263589" lon="11.5903913"><ele>351.0</ele><time>2026-04-04T14:17:40.088Z</time></trkpt><trkpt lat="43.1263747" lon="11.5903026"><ele>349.8</ele><time>2026-04-04T14:17:41.089Z</time></trkpt><trkpt lat="43.1263951" lon="11.5902169"><ele>348.6</ele><time>2026-04-04T14:17:42.088Z</time></trkpt><trkpt lat="43.1264458" lon="11.5900466"><ele>347.4</ele><time>2026-04-04T14:17:44.09Z</time></trkpt><trkpt lat="43.126481" lon="11.5899543"><ele>346.2</ele><time>2026-04-04T14:17:45.09Z</time></trkpt><trkpt lat="43.1265389" lon="11.5898457"><ele>345.0</ele><time>2026-04-04T14:17:46.09Z</time></trkpt><trkpt lat="43.1265918" lon="11.5897598"><ele>345.0</ele><time>2026-04-04T14:17:47.09Z</time></trkpt><trkpt lat="43.1266361" lon="11.5896806"><ele>345.0</ele><time>2026-04-04T14:17:48.09Z</time></trkpt><trkpt lat="43.1267247" lon="11.5895731"><ele>345.0</ele><time>2026-04-04T14:17:49.09Z</time></trkpt><trkpt lat="43.1268137" lon="11.5894547"><ele>345.0</ele><time>2026-04-04T14:17:50.089Z</time></trkpt><trkpt lat="43.1268836" lon="11.5893374"><ele>345.0</ele><time>2026-04-04T14:17:51.089Z</time></trkpt><trkpt lat="43.1269535" lon="11.5892143"><ele>343.6</ele><time>2026-04-04T14:17:52.088Z</time></trkpt><trkpt lat="43.1270298" lon="11.5891125"><ele>342.2</ele><time>2026-04-04T14:17:53.087Z</time></trkpt><trkpt lat="43.1270915" lon="11.5890239"><ele>340.79999999999995</ele><time>2026-04-04T14:17:54.088Z</time></trkpt><trkpt lat="43.1271537" lon="11.5889362"><ele>339.4</ele><time>2026-04-04T14:17:55.088Z</time></trkpt><trkpt lat="43.127231" lon="11.5888463"><ele>338.0</ele><time>2026-04-04T14:17:56.088Z</time></trkpt><trkpt lat="43.127305" lon="11.5887523"><ele>337.59999999999997</ele><time>2026-04-04T14:17:57.088Z</time></trkpt><trkpt lat="43.1273734" lon="11.5886554"><ele>337.2</ele><time>2026-04-04T14:17:58.089Z</time></trkpt><trkpt lat="43.1274332" lon="11.5885643"><ele>336.8</ele><time>2026-04-04T14:17:59.09Z</time></trkpt><trkpt lat="43.1275043" lon="11.5884615"><ele>336.4</ele><time>2026-04-04T14:18:00.088Z</time></trkpt><trkpt lat="43.1275675" lon="11.5883677"><ele>336.0</ele><time>2026-04-04T14:18:01.088Z</time></trkpt><trkpt lat="43.1276313" lon="11.5882831"><ele>336.0</ele><time>2026-04-04T14:18:02.09Z</time></trkpt><trkpt lat="43.1276924" lon="11.5882003"><ele>336.0</ele><time>2026-04-04T14:18:03.089Z</time></trkpt><trkpt lat="43.12775" lon="11.5881124"><ele>336.0</ele><time>2026-04-04T14:18:04.088Z</time></trkpt><trkpt lat="43.1277947" lon="11.5880317"><ele>336.0</ele><time>2026-04-04T14:18:05.089Z</time></trkpt><trkpt lat="43.1278311" lon="11.5879331"><ele>336.0</ele><time>2026-04-04T14:18:06.088Z</time></trkpt><trkpt lat="43.1278655" lon="11.587833"><ele>336.0</ele><time>2026-04-04T14:18:07.089Z</time></trkpt><trkpt lat="43.1278927" lon="11.5877245"><ele>335.6</ele><time>2026-04-04T14:18:08.089Z</time></trkpt><trkpt lat="43.1279252" lon="11.5875987"><ele>335.20000000000005</ele><time>2026-04-04T14:18:09.087Z</time></trkpt><trkpt lat="43.1279573" lon="11.5874783"><ele>334.79999999999995</ele><time>2026-04-04T14:18:10.087Z</time></trkpt><trkpt lat="43.1279842" lon="11.5873584"><ele>334.4</ele><time>2026-04-04T14:18:11.089Z</time></trkpt><trkpt lat="43.1279994" lon="11.5872295"><ele>334.0</ele><time>2026-04-04T14:18:12.089Z</time></trkpt><trkpt lat="43.1280172" lon="11.5871072"><ele>333.4</ele><time>2026-04-04T14:18:13.088Z</time></trkpt><trkpt lat="43.1280354" lon="11.5869726"><ele>332.79999999999995</ele><time>2026-04-04T14:18:14.089Z</time></trkpt><trkpt lat="43.1280561" lon="11.5868472"><ele>332.20000000000005</ele><time>2026-04-04T14:18:15.089Z</time></trkpt><trkpt lat="43.1280729" lon="11.5867132"><ele>331.6</ele><time>2026-04-04T14:18:16.09Z</time></trkpt><trkpt lat="43.1280948" lon="11.5865968"><ele>331.0</ele><time>2026-04-04T14:18:17.088Z</time></trkpt><trkpt lat="43.1281122" lon="11.586478"><ele>331.0</ele><time>2026-04-04T14:18:18.087Z</time></trkpt><trkpt lat="43.128136" lon="11.5863772"><ele>331.0</ele><time>2026-04-04T14:18:19.089Z</time></trkpt><trkpt lat="43.1281724" lon="11.5863005"><ele>331.0</ele><time>2026-04-04T14:18:20.087Z</time></trkpt><trkpt lat="43.1281927" lon="11.5862104"><ele>331.0</ele><time>2026-04-04T14:18:21.087Z</time></trkpt><trkpt lat="43.1282003" lon="11.5861233"><ele>331.0</ele><time>2026-04-04T14:18:22.088Z</time></trkpt><trkpt lat="43.1282185" lon="11.5859446"><ele>331.0</ele><time>2026-04-04T14:18:24.088Z</time></trkpt><trkpt lat="43.1282271" lon="11.58585"><ele>329.8333333333333</ele><time>2026-04-04T14:18:25.087Z</time></trkpt><trkpt lat="43.1282359" lon="11.5857391"><ele>328.66666666666663</ele><time>2026-04-04T14:18:26.088Z</time></trkpt><trkpt lat="43.1282519" lon="11.5856247"><ele>327.5</ele><time>2026-04-04T14:18:27.088Z</time></trkpt><trkpt lat="43.1282661" lon="11.5855021"><ele>326.3333333333333</ele><time>2026-04-04T14:18:28.09Z</time></trkpt><trkpt lat="43.1282746" lon="11.5853961"><ele>325.1666666666667</ele><time>2026-04-04T14:18:29.088Z</time></trkpt><trkpt lat="43.1282806" lon="11.5852805"><ele>324.0</ele><time>2026-04-04T14:18:30.09Z</time></trkpt><trkpt lat="43.1282875" lon="11.58516"><ele>323.3333333333333</ele><time>2026-04-04T14:18:31.087Z</time></trkpt><trkpt lat="43.1282939" lon="11.5850552"><ele>322.6666666666667</ele><time>2026-04-04T14:18:32.09Z</time></trkpt><trkpt lat="43.1283046" lon="11.5849387"><ele>322.0</ele><time>2026-04-04T14:18:33.088Z</time></trkpt><trkpt lat="43.1283184" lon="11.584787"><ele>321.33333333333337</ele><time>2026-04-04T14:18:34.089Z</time></trkpt><trkpt lat="43.1283279" lon="11.5846871"><ele>320.6666666666667</ele><time>2026-04-04T14:18:35.088Z</time></trkpt><trkpt lat="43.128322" lon="11.5845626"><ele>320.0</ele><time>2026-04-04T14:18:36.089Z</time></trkpt><trkpt lat="43.1283441" lon="11.5844538"><ele>318.6666666666667</ele><time>2026-04-04T14:18:37.088Z</time></trkpt><trkpt lat="43.1283809" lon="11.5843258"><ele>317.33333333333337</ele><time>2026-04-04T14:18:38.09Z</time></trkpt><trkpt lat="43.1284289" lon="11.5842194"><ele>316.0</ele><time>2026-04-04T14:18:39.089Z</time></trkpt><trkpt lat="43.128474" lon="11.5841244"><ele>314.6666666666667</ele><time>2026-04-04T14:18:40.089Z</time></trkpt><trkpt lat="43.1285287" lon="11.5840293"><ele>313.3333333333333</ele><time>2026-04-04T14:18:41.088Z</time></trkpt><trkpt lat="43.1285834" lon="11.5839371"><ele>312.0</ele><time>2026-04-04T14:18:42.09Z</time></trkpt><trkpt lat="43.1286454" lon="11.5838543"><ele>312.0</ele><time>2026-04-04T14:18:43.088Z</time></trkpt><trkpt lat="43.1287379" lon="11.5837993"><ele>312.0</ele><time>2026-04-04T14:18:44.088Z</time></trkpt><trkpt lat="43.1288117" lon="11.5837502"><ele>312.0</ele><time>2026-04-04T14:18:45.089Z</time></trkpt><trkpt lat="43.1289004" lon="11.5836998"><ele>312.0</ele><time>2026-04-04T14:18:46.089Z</time></trkpt><trkpt lat="43.1289681" lon="11.5836536"><ele>312.0</ele><time>2026-04-04T14:18:47.088Z</time></trkpt><trkpt lat="43.1290439" lon="11.5835864"><ele>312.0</ele><time>2026-04-04T14:18:48.088Z</time></trkpt><trkpt lat="43.129105" lon="11.5834831"><ele>308.4</ele><time>2026-04-04T14:18:49.089Z</time></trkpt><trkpt lat="43.1291627" lon="11.5833775"><ele>304.79999999999995</ele><time>2026-04-04T14:18:50.089Z</time></trkpt><trkpt lat="43.1291869" lon="11.5832668"><ele>301.2</ele><time>2026-04-04T14:18:51.088Z</time></trkpt><trkpt lat="43.1292217" lon="11.5831395"><ele>297.59999999999997</ele><time>2026-04-04T14:18:52.088Z</time></trkpt><trkpt lat="43.1292646" lon="11.5830184"><ele>294.0</ele><time>2026-04-04T14:18:53.087Z</time></trkpt><trkpt lat="43.1292946" lon="11.5829193"><ele>291.8</ele><time>2026-04-04T14:18:54.089Z</time></trkpt><trkpt lat="43.1293224" lon="11.5828055"><ele>289.59999999999997</ele><time>2026-04-04T14:18:55.088Z</time></trkpt><trkpt lat="43.1293551" lon="11.5826779"><ele>287.4</ele><time>2026-04-04T14:18:56.088Z</time></trkpt><trkpt lat="43.1293611" lon="11.582581"><ele>285.2</ele><time>2026-04-04T14:18:57.089Z</time></trkpt><trkpt lat="43.1293776" lon="11.5824121"><ele>283.0</ele><time>2026-04-04T14:18:59.089Z</time></trkpt><trkpt lat="43.1293837" lon="11.5823131"><ele>283.0</ele><time>2026-04-04T14:19:00.089Z</time></trkpt><trkpt lat="43.1293809" lon="11.5821877"><ele>283.0</ele><time>2026-04-04T14:19:01.088Z</time></trkpt><trkpt lat="43.1293926" lon="11.5820845"><ele>283.0</ele><time>2026-04-04T14:19:02.087Z</time></trkpt><trkpt lat="43.1294069" lon="11.5819735"><ele>283.0</ele><time>2026-04-04T14:19:03.088Z</time></trkpt><trkpt lat="43.1294224" lon="11.5818569"><ele>283.0</ele><time>2026-04-04T14:19:04.087Z</time></trkpt><trkpt lat="43.1294416" lon="11.5817433"><ele>283.0</ele><time>2026-04-04T14:19:05.088Z</time></trkpt><trkpt lat="43.1294556" lon="11.5816194"><ele>281.0</ele><time>2026-04-04T14:19:06.088Z</time></trkpt><trkpt lat="43.1294722" lon="11.5814991"><ele>279.0</ele><time>2026-04-04T14:19:07.089Z</time></trkpt><trkpt lat="43.1294848" lon="11.5813904"><ele>277.0</ele><time>2026-04-04T14:19:08.087Z</time></trkpt><trkpt lat="43.1295026" lon="11.5812774"><ele>275.0</ele><time>2026-04-04T14:19:09.088Z</time></trkpt><trkpt lat="43.1295199" lon="11.5811662"><ele>273.0</ele><time>2026-04-04T14:19:10.088Z</time></trkpt><trkpt lat="43.1295426" lon="11.581063"><ele>271.0</ele><time>2026-04-04T14:19:11.088Z</time></trkpt><trkpt lat="43.1295608" lon="11.5809454"><ele>269.6</ele><time>2026-04-04T14:19:12.088Z</time></trkpt><trkpt lat="43.1295811" lon="11.5808342"><ele>268.20000000000005</ele><time>2026-04-04T14:19:13.089Z</time></trkpt><trkpt lat="43.1295985" lon="11.5807218"><ele>266.79999999999995</ele><time>2026-04-04T14:19:14.088Z</time></trkpt><trkpt lat="43.1296167" lon="11.5805962"><ele>265.4</ele><time>2026-04-04T14:19:15.088Z</time></trkpt><trkpt lat="43.1296327" lon="11.5804739"><ele>264.0</ele><time>2026-04-04T14:19:16.087Z</time></trkpt><trkpt lat="43.1296511" lon="11.5803417"><ele>263.59999999999997</ele><time>2026-04-04T14:19:17.088Z</time></trkpt><trkpt lat="43.1296744" lon="11.5802257"><ele>263.2</ele><time>2026-04-04T14:19:18.089Z</time></trkpt><trkpt lat="43.1296896" lon="11.5801051"><ele>262.79999999999995</ele><time>2026-04-04T14:19:19.087Z</time></trkpt><trkpt lat="43.1297084" lon="11.5799878"><ele>262.4</ele><time>2026-04-04T14:19:20.088Z</time></trkpt><trkpt lat="43.1297545" lon="11.5798489"><ele>262.0</ele><time>2026-04-04T14:19:21.088Z</time></trkpt><trkpt lat="43.1298198" lon="11.5796926"><ele>262.0</ele><time>2026-04-04T14:19:22.089Z</time></trkpt><trkpt lat="43.1298851" lon="11.5795335"><ele>262.0</ele><time>2026-04-04T14:19:23.087Z</time></trkpt><trkpt lat="43.129955" lon="11.5793964"><ele>262.0</ele><time>2026-04-04T14:19:24.088Z</time></trkpt><trkpt lat="43.1300123" lon="11.5792666"><ele>262.0</ele><time>2026-04-04T14:19:25.088Z</time></trkpt><trkpt lat="43.1300721" lon="11.579171"><ele>262.0</ele><time>2026-04-04T14:19:26.087Z</time></trkpt><trkpt lat="43.1301213" lon="11.5790701"><ele>262.0</ele><time>2026-04-04T14:19:27.088Z</time></trkpt><trkpt lat="43.1301561" lon="11.5789829"><ele>262.0</ele><time>2026-04-04T14:19:28.089Z</time></trkpt><trkpt lat="43.1302201" lon="11.5788413"><ele>262.0</ele><time>2026-04-04T14:19:30.089Z</time></trkpt><trkpt lat="43.1302614" lon="11.5787079"><ele>262.0</ele><time>2026-04-04T14:19:32.088Z</time></trkpt><trkpt lat="43.1302796" lon="11.5786071"><ele>261.66666666666663</ele><time>2026-04-04T14:19:34.088Z</time></trkpt><trkpt lat="43.1303052" lon="11.5785143"><ele>261.3333333333333</ele><time>2026-04-04T14:19:36.088Z</time></trkpt><trkpt lat="43.1303003" lon="11.5784077"><ele>261.0</ele><time>2026-04-04T14:19:38.088Z</time></trkpt><trkpt lat="43.1302749" lon="11.5782792"><ele>260.6666666666667</ele><time>2026-04-04T14:19:40.087Z</time></trkpt><trkpt lat="43.1302714" lon="11.578138"><ele>260.33333333333337</ele><time>2026-04-04T14:19:42.089Z</time></trkpt><trkpt lat="43.1302497" lon="11.5780467"><ele>260.0</ele><time>2026-04-04T14:19:43.089Z</time></trkpt><trkpt lat="43.130214" lon="11.5779536"><ele>259.1666666666667</ele><time>2026-04-04T14:19:44.089Z</time></trkpt><trkpt lat="43.130184" lon="11.5778425"><ele>258.33333333333337</ele><time>2026-04-04T14:19:45.088Z</time></trkpt><trkpt lat="43.1301302" lon="11.577746"><ele>257.5</ele><time>2026-04-04T14:19:46.089Z</time></trkpt><trkpt lat="43.1300772" lon="11.5776476"><ele>256.6666666666667</ele><time>2026-04-04T14:19:47.088Z</time></trkpt><trkpt lat="43.1300218" lon="11.5775568"><ele>255.83333333333334</ele><time>2026-04-04T14:19:48.088Z</time></trkpt><trkpt lat="43.1299673" lon="11.5774712"><ele>255.0</ele><time>2026-04-04T14:19:49.089Z</time></trkpt><trkpt lat="43.1299032" lon="11.5774123"><ele>254.66666666666666</ele><time>2026-04-04T14:19:50.087Z</time></trkpt><trkpt lat="43.1298472" lon="11.5773664"><ele>254.33333333333331</ele><time>2026-04-04T14:19:51.089Z</time></trkpt><trkpt lat="43.1297322" lon="11.5773136"><ele>254.0</ele><time>2026-04-04T14:19:53.087Z</time></trkpt><trkpt lat="43.1296529" lon="11.5773094"><ele>253.66666666666666</ele><time>2026-04-04T14:19:54.089Z</time></trkpt><trkpt lat="43.1295689" lon="11.5773063"><ele>253.33333333333331</ele><time>2026-04-04T14:19:55.088Z</time></trkpt><trkpt lat="43.1294798" lon="11.5772975"><ele>253.0</ele><time>2026-04-04T14:19:56.087Z</time></trkpt><trkpt lat="43.1293924" lon="11.5772576"><ele>252.99999999999997</ele><time>2026-04-04T14:19:57.088Z</time></trkpt><trkpt lat="43.1293021" lon="11.577218"><ele>253.0</ele><time>2026-04-04T14:19:58.089Z</time></trkpt><trkpt lat="43.1292318" lon="11.5771654"><ele>253.0</ele><time>2026-04-04T14:19:59.087Z</time></trkpt><trkpt lat="43.1291829" lon="11.5770687"><ele>253.0</ele><time>2026-04-04T14:20:00.087Z</time></trkpt><trkpt lat="43.1291495" lon="11.5769507"><ele>252.99999999999997</ele><time>2026-04-04T14:20:01.087Z</time></trkpt><trkpt lat="43.1291288" lon="11.5768407"><ele>253.0</ele><time>2026-04-04T14:20:02.088Z</time></trkpt><trkpt lat="43.1291238" lon="11.576736"><ele>253.33333333333331</ele><time>2026-04-04T14:20:03.088Z</time></trkpt><trkpt lat="43.1291287" lon="11.5766078"><ele>253.66666666666666</ele><time>2026-04-04T14:20:04.088Z</time></trkpt><trkpt lat="43.1291294" lon="11.5764923"><ele>254.0</ele><time>2026-04-04T14:20:05.088Z</time></trkpt><trkpt lat="43.1291299" lon="11.5763676"><ele>254.33333333333331</ele><time>2026-04-04T14:20:06.089Z</time></trkpt><trkpt lat="43.1291353" lon="11.5762464"><ele>254.66666666666666</ele><time>2026-04-04T14:20:07.087Z</time></trkpt><trkpt lat="43.1291386" lon="11.5761233"><ele>255.0</ele><time>2026-04-04T14:20:08.086Z</time></trkpt><trkpt lat="43.1291546" lon="11.5760106"><ele>255.42857142857144</ele><time>2026-04-04T14:20:09.088Z</time></trkpt><trkpt lat="43.1291656" lon="11.5758984"><ele>255.8571428571429</ele><time>2026-04-04T14:20:10.087Z</time></trkpt><trkpt lat="43.1291752" lon="11.5757964"><ele>256.2857142857143</ele><time>2026-04-04T14:20:11.087Z</time></trkpt><trkpt lat="43.1291878" lon="11.5757009"><ele>256.7142857142857</ele><time>2026-04-04T14:20:12.089Z</time></trkpt><trkpt lat="43.1291924" lon="11.5756018"><ele>257.1428571428571</ele><time>2026-04-04T14:20:13.087Z</time></trkpt><trkpt lat="43.1292025" lon="11.5755093"><ele>257.57142857142856</ele><time>2026-04-04T14:20:14.088Z</time></trkpt><trkpt lat="43.1292056" lon="11.5754213"><ele>258.0</ele><time>2026-04-04T14:20:15.087Z</time></trkpt><trkpt lat="43.1292156" lon="11.5752954"><ele>258.3333333333333</ele><time>2026-04-04T14:20:17.09Z</time></trkpt><trkpt lat="43.1292251" lon="11.5751764"><ele>258.6666666666667</ele><time>2026-04-04T14:20:19.088Z</time></trkpt><trkpt lat="43.1292692" lon="11.5750717"><ele>259.0</ele><time>2026-04-04T14:20:21.086Z</time></trkpt><trkpt lat="43.1293221" lon="11.5750008"><ele>259.33333333333337</ele><time>2026-04-04T14:20:22.086Z</time></trkpt><trkpt lat="43.1293808" lon="11.5749464"><ele>259.6666666666667</ele><time>2026-04-04T14:20:23.087Z</time></trkpt><trkpt lat="43.1294483" lon="11.574906"><ele>260.0</ele><time>2026-04-04T14:20:24.088Z</time></trkpt><trkpt lat="43.1295098" lon="11.5748862"><ele>260.0</ele><time>2026-04-04T14:20:25.089Z</time></trkpt><trkpt lat="43.1296143" lon="11.5748434"><ele>260.0</ele><time>2026-04-04T14:20:27.088Z</time></trkpt><trkpt lat="43.1296829" lon="11.574832"><ele>260.0</ele><time>2026-04-04T14:20:28.088Z</time></trkpt><trkpt lat="43.1297509" lon="11.574832"><ele>260.0</ele><time>2026-04-04T14:20:29.087Z</time></trkpt><trkpt lat="43.1298256" lon="11.5748468"><ele>260.0</ele><time>2026-04-04T14:20:30.088Z</time></trkpt><trkpt lat="43.1299124" lon="11.5748663"><ele>260.0</ele><time>2026-04-04T14:20:31.086Z</time></trkpt><trkpt lat="43.1300076" lon="11.5748897"><ele>260.0</ele><time>2026-04-04T14:20:32.087Z</time></trkpt><trkpt lat="43.130115" lon="11.574914"><ele>260.0</ele><time>2026-04-04T14:20:33.088Z</time></trkpt><trkpt lat="43.1302276" lon="11.5749502"><ele>260.0</ele><time>2026-04-04T14:20:34.087Z</time></trkpt><trkpt lat="43.1303563" lon="11.5749801"><ele>260.0</ele><time>2026-04-04T14:20:35.089Z</time></trkpt><trkpt lat="43.1304958" lon="11.575009"><ele>260.0</ele><time>2026-04-04T14:20:36.088Z</time></trkpt><trkpt lat="43.1306421" lon="11.5750483"><ele>260.0</ele><time>2026-04-04T14:20:37.087Z</time></trkpt><trkpt lat="43.1308" lon="11.5750891"><ele>260.0</ele><time>2026-04-04T14:20:38.087Z</time></trkpt><trkpt lat="43.1309755" lon="11.5751283"><ele>260.33333333333337</ele><time>2026-04-04T14:20:39.086Z</time></trkpt><trkpt lat="43.1311611" lon="11.5751775"><ele>260.6666666666667</ele><time>2026-04-04T14:20:40.088Z</time></trkpt><trkpt lat="43.1313587" lon="11.575232"><ele>261.0</ele><time>2026-04-04T14:20:41.087Z</time></trkpt><trkpt lat="43.1315666" lon="11.5752942"><ele>262.0</ele><time>2026-04-04T14:20:42.088Z</time></trkpt><trkpt lat="43.1317892" lon="11.5753551"><ele>263.0</ele><time>2026-04-04T14:20:43.086Z</time></trkpt><trkpt lat="43.132018" lon="11.5754102"><ele>263.0</ele><time>2026-04-04T14:20:44.087Z</time></trkpt><trkpt lat="43.1322619" lon="11.5754789"><ele>263.0</ele><time>2026-04-04T14:20:45.086Z</time></trkpt><trkpt lat="43.1325165" lon="11.5755531"><ele>264.0</ele><time>2026-04-04T14:20:46.088Z</time></trkpt><trkpt lat="43.1327789" lon="11.5756428"><ele>265.0</ele><time>2026-04-04T14:20:47.088Z</time></trkpt><trkpt lat="43.1330314" lon="11.5757239"><ele>265.0</ele><time>2026-04-04T14:20:48.087Z</time></trkpt><trkpt lat="43.1332685" lon="11.5757977"><ele>265.0</ele><time>2026-04-04T14:20:49.086Z</time></trkpt><trkpt lat="43.1334912" lon="11.5758735"><ele>265.0</ele><time>2026-04-04T14:20:50.088Z</time></trkpt><trkpt lat="43.1337022" lon="11.5759496"><ele>265.0</ele><time>2026-04-04T14:20:51.089Z</time></trkpt><trkpt lat="43.1339047" lon="11.5760166"><ele>265.0</ele><time>2026-04-04T14:20:52.088Z</time></trkpt><trkpt lat="43.1340854" lon="11.576082"><ele>265.3333333333333</ele><time>2026-04-04T14:20:53.086Z</time></trkpt><trkpt lat="43.1342606" lon="11.5761361"><ele>265.6666666666667</ele><time>2026-04-04T14:20:54.086Z</time></trkpt><trkpt lat="43.1344238" lon="11.576193"><ele>266.0</ele><time>2026-04-04T14:20:55.087Z</time></trkpt><trkpt lat="43.1345792" lon="11.5762422"><ele>265.0</ele><time>2026-04-04T14:20:56.089Z</time></trkpt><trkpt lat="43.1347393" lon="11.5763013"><ele>264.0</ele><time>2026-04-04T14:20:57.087Z</time></trkpt><trkpt lat="43.1348965" lon="11.576369"><ele>263.0</ele><time>2026-04-04T14:20:58.086Z</time></trkpt><trkpt lat="43.135038" lon="11.5764582"><ele>263.0</ele><time>2026-04-04T14:20:59.087Z</time></trkpt><trkpt lat="43.1352106" lon="11.5765845"><ele>263.0</ele><time>2026-04-04T14:21:00.088Z</time></trkpt><trkpt lat="43.1353794" lon="11.5767264"><ele>263.0</ele><time>2026-04-04T14:21:01.087Z</time></trkpt><trkpt lat="43.1355425" lon="11.5768803"><ele>262.6666666666667</ele><time>2026-04-04T14:21:02.087Z</time></trkpt><trkpt lat="43.1357022" lon="11.5770289"><ele>262.3333333333333</ele><time>2026-04-04T14:21:03.087Z</time></trkpt><trkpt lat="43.1358667" lon="11.5771786"><ele>262.0</ele><time>2026-04-04T14:21:04.089Z</time></trkpt><trkpt lat="43.1360288" lon="11.5773158"><ele>262.0</ele><time>2026-04-04T14:21:05.088Z</time></trkpt><trkpt lat="43.1361794" lon="11.5774522"><ele>262.0</ele><time>2026-04-04T14:21:06.086Z</time></trkpt><trkpt lat="43.1363195" lon="11.5775792"><ele>262.0</ele><time>2026-04-04T14:21:07.088Z</time></trkpt><trkpt lat="43.1364568" lon="11.5776994"><ele>262.5</ele><time>2026-04-04T14:21:08.087Z</time></trkpt><trkpt lat="43.1365796" lon="11.5778158"><ele>263.0</ele><time>2026-04-04T14:21:09.086Z</time></trkpt><trkpt lat="43.1367002" lon="11.5779235"><ele>263.5</ele><time>2026-04-04T14:21:10.087Z</time></trkpt><trkpt lat="43.1368201" lon="11.5780339"><ele>264.0</ele><time>2026-04-04T14:21:11.088Z</time></trkpt><trkpt lat="43.1369418" lon="11.5781338"><ele>264.0</ele><time>2026-04-04T14:21:12.086Z</time></trkpt><trkpt lat="43.1370507" lon="11.5782273"><ele>264.0</ele><time>2026-04-04T14:21:13.086Z</time></trkpt><trkpt lat="43.1371626" lon="11.578309"><ele>264.0</ele><time>2026-04-04T14:21:14.087Z</time></trkpt><trkpt lat="43.1372638" lon="11.5783959"><ele>264.0</ele><time>2026-04-04T14:21:15.088Z</time></trkpt><trkpt lat="43.137368" lon="11.57848"><ele>264.8</ele><time>2026-04-04T14:21:16.088Z</time></trkpt><trkpt lat="43.1374575" lon="11.5785651"><ele>265.59999999999997</ele><time>2026-04-04T14:21:17.086Z</time></trkpt><trkpt lat="43.137542" lon="11.5786363"><ele>266.4</ele><time>2026-04-04T14:21:18.087Z</time></trkpt><trkpt lat="43.1376101" lon="11.5786815"><ele>267.2</ele><time>2026-04-04T14:21:19.088Z</time></trkpt><trkpt lat="43.1377321" lon="11.5786628"><ele>268.0</ele><time>2026-04-04T14:21:21.087Z</time></trkpt><trkpt lat="43.1378243" lon="11.5785501"><ele>268.0</ele><time>2026-04-04T14:21:23.087Z</time></trkpt><trkpt lat="43.1378665" lon="11.5784729"><ele>268.0</ele><time>2026-04-04T14:21:24.086Z</time></trkpt><trkpt lat="43.1379088" lon="11.5783894"><ele>268.0</ele><time>2026-04-04T14:21:25.087Z</time></trkpt><trkpt lat="43.1379532" lon="11.5782972"><ele>268.0</ele><time>2026-04-04T14:21:26.088Z</time></trkpt><trkpt lat="43.1380054" lon="11.5782072"><ele>268.0</ele><time>2026-04-04T14:21:27.086Z</time></trkpt><trkpt lat="43.1380583" lon="11.5781134"><ele>268.0</ele><time>2026-04-04T14:21:28.088Z</time></trkpt><trkpt lat="43.1381102" lon="11.5780106"><ele>268.0</ele><time>2026-04-04T14:21:29.086Z</time></trkpt><trkpt lat="43.1381639" lon="11.5779078"><ele>268.0</ele><time>2026-04-04T14:21:30.088Z</time></trkpt><trkpt lat="43.1382188" lon="11.577809"><ele>268.0</ele><time>2026-04-04T14:21:31.087Z</time></trkpt><trkpt lat="43.1382712" lon="11.577709"><ele>268.0</ele><time>2026-04-04T14:21:32.088Z</time></trkpt><trkpt lat="43.1383261" lon="11.5776065"><ele>268.0</ele><time>2026-04-04T14:21:33.088Z</time></trkpt><trkpt lat="43.1383805" lon="11.5775131"><ele>269.4</ele><time>2026-04-04T14:21:34.086Z</time></trkpt><trkpt lat="43.1384354" lon="11.5774142"><ele>270.8</ele><time>2026-04-04T14:21:35.087Z</time></trkpt><trkpt lat="43.1384994" lon="11.5773095"><ele>272.2</ele><time>2026-04-04T14:21:36.086Z</time></trkpt><trkpt lat="43.1385618" lon="11.5772088"><ele>273.6</ele><time>2026-04-04T14:21:37.088Z</time></trkpt><trkpt lat="43.1386267" lon="11.5771137"><ele>275.0</ele><time>2026-04-04T14:21:38.087Z</time></trkpt><trkpt lat="43.1386831" lon="11.5770181"><ele>275.5</ele><time>2026-04-04T14:21:39.087Z</time></trkpt><trkpt lat="43.138729" lon="11.5769341"><ele>276.0</ele><time>2026-04-04T14:21:40.086Z</time></trkpt><trkpt lat="43.1387676" lon="11.5768337"><ele>276.5</ele><time>2026-04-04T14:21:41.088Z</time></trkpt><trkpt lat="43.1388053" lon="11.5767308"><ele>277.0</ele><time>2026-04-04T14:21:42.086Z</time></trkpt><trkpt lat="43.1388337" lon="11.5766106"><ele>277.5</ele><time>2026-04-04T14:21:43.087Z</time></trkpt><trkpt lat="43.1388456" lon="11.5764955"><ele>278.0</ele><time>2026-04-04T14:21:44.087Z</time></trkpt><trkpt lat="43.1388329" lon="11.5763746"><ele>278.0</ele><time>2026-04-04T14:21:45.088Z</time></trkpt><trkpt lat="43.138834" lon="11.5762506"><ele>278.0</ele><time>2026-04-04T14:21:46.087Z</time></trkpt><trkpt lat="43.1388321" lon="11.5761234"><ele>278.0</ele><time>2026-04-04T14:21:47.087Z</time></trkpt><trkpt lat="43.1388291" lon="11.5760033"><ele>278.0</ele><time>2026-04-04T14:21:48.088Z</time></trkpt><trkpt lat="43.1388269" lon="11.5758922"><ele>278.0</ele><time>2026-04-04T14:21:49.087Z</time></trkpt><trkpt lat="43.1388201" lon="11.5757757"><ele>278.0</ele><time>2026-04-04T14:21:50.088Z</time></trkpt><trkpt lat="43.1388131" lon="11.5756409"><ele>279.4</ele><time>2026-04-04T14:21:51.088Z</time></trkpt><trkpt lat="43.1387951" lon="11.5755264"><ele>280.8</ele><time>2026-04-04T14:21:52.088Z</time></trkpt><trkpt lat="43.1387574" lon="11.5754191"><ele>282.2</ele><time>2026-04-04T14:21:53.087Z</time></trkpt><trkpt lat="43.1387077" lon="11.5753261"><ele>283.6</ele><time>2026-04-04T14:21:54.087Z</time></trkpt><trkpt lat="43.1386285" lon="11.5752283"><ele>285.0</ele><time>2026-04-04T14:21:55.087Z</time></trkpt><trkpt lat="43.1385417" lon="11.5751102"><ele>288.25</ele><time>2026-04-04T14:21:56.087Z</time></trkpt><trkpt lat="43.1384375" lon="11.5749938"><ele>291.5</ele><time>2026-04-04T14:21:57.087Z</time></trkpt><trkpt lat="43.1383394" lon="11.5748907"><ele>294.75</ele><time>2026-04-04T14:21:58.087Z</time></trkpt><trkpt lat="43.1382674" lon="11.5747916"><ele>298.0</ele><time>2026-04-04T14:21:59.087Z</time></trkpt><trkpt lat="43.138198" lon="11.5747089"><ele>298.5</ele><time>2026-04-04T14:22:00.086Z</time></trkpt><trkpt lat="43.1381423" lon="11.5746185"><ele>299.0</ele><time>2026-04-04T14:22:01.088Z</time></trkpt><trkpt lat="43.1380984" lon="11.5745241"><ele>299.5</ele><time>2026-04-04T14:22:02.087Z</time></trkpt><trkpt lat="43.1380688" lon="11.5744142"><ele>300.0</ele><time>2026-04-04T14:22:03.088Z</time></trkpt><trkpt lat="43.1380482" lon="11.5742958"><ele>300.5</ele><time>2026-04-04T14:22:04.088Z</time></trkpt><trkpt lat="43.1380308" lon="11.5741842"><ele>301.0</ele><time>2026-04-04T14:22:05.086Z</time></trkpt><trkpt lat="43.1380187" lon="11.5740558"><ele>301.0</ele><time>2026-04-04T14:22:06.087Z</time></trkpt><trkpt lat="43.1380165" lon="11.5739235"><ele>301.0</ele><time>2026-04-04T14:22:07.087Z</time></trkpt><trkpt lat="43.1380082" lon="11.5737622"><ele>301.0</ele><time>2026-04-04T14:22:08.087Z</time></trkpt><trkpt lat="43.138008" lon="11.5736018"><ele>301.0</ele><time>2026-04-04T14:22:09.087Z</time></trkpt><trkpt lat="43.1380072" lon="11.5734544"><ele>301.0</ele><time>2026-04-04T14:22:10.087Z</time></trkpt><trkpt lat="43.1380003" lon="11.5733279"><ele>300.5</ele><time>2026-04-04T14:22:11.086Z</time></trkpt><trkpt lat="43.1379957" lon="11.5732228"><ele>300.0</ele><time>2026-04-04T14:22:12.088Z</time></trkpt><trkpt lat="43.1379915" lon="11.573121"><ele>299.5</ele><time>2026-04-04T14:22:13.087Z</time></trkpt><trkpt lat="43.1379962" lon="11.5730335"><ele>299.0</ele><time>2026-04-04T14:22:14.087Z</time></trkpt><trkpt lat="43.1379761" lon="11.5728962"><ele>298.5</ele><time>2026-04-04T14:22:16.086Z</time></trkpt><trkpt lat="43.1379753" lon="11.5727598"><ele>298.0</ele><time>2026-04-04T14:22:18.088Z</time></trkpt><trkpt lat="43.1379742" lon="11.5726099"><ele>297.3333333333333</ele><time>2026-04-04T14:22:20.087Z</time></trkpt><trkpt lat="43.1379562" lon="11.572454"><ele>296.66666666666663</ele><time>2026-04-04T14:22:22.086Z</time></trkpt><trkpt lat="43.1379761" lon="11.5722866"><ele>296.0</ele><time>2026-04-04T14:22:24.087Z</time></trkpt><trkpt lat="43.1379895" lon="11.5721983"><ele>295.3333333333333</ele><time>2026-04-04T14:22:25.088Z</time></trkpt><trkpt lat="43.1380165" lon="11.5721126"><ele>294.6666666666667</ele><time>2026-04-04T14:22:26.086Z</time></trkpt><trkpt lat="43.1380648" lon="11.5720365"><ele>294.0</ele><time>2026-04-04T14:22:27.087Z</time></trkpt><trkpt lat="43.138115" lon="11.5719844"><ele>292.85714285714283</ele><time>2026-04-04T14:22:28.086Z</time></trkpt><trkpt lat="43.138173" lon="11.5719397"><ele>291.7142857142857</ele><time>2026-04-04T14:22:29.087Z</time></trkpt><trkpt lat="43.1382354" lon="11.5718996"><ele>290.57142857142856</ele><time>2026-04-04T14:22:30.087Z</time></trkpt><trkpt lat="43.138294" lon="11.5718609"><ele>289.42857142857144</ele><time>2026-04-04T14:22:31.088Z</time></trkpt><trkpt lat="43.1383581" lon="11.5718252"><ele>288.2857142857143</ele><time>2026-04-04T14:22:32.088Z</time></trkpt><trkpt lat="43.1384207" lon="11.5717873"><ele>287.1428571428571</ele><time>2026-04-04T14:22:33.086Z</time></trkpt><trkpt lat="43.138483" lon="11.5717543"><ele>286.0</ele><time>2026-04-04T14:22:34.085Z</time></trkpt><trkpt lat="43.1385468" lon="11.5716899"><ele>288.3333333333333</ele><time>2026-04-04T14:22:35.086Z</time></trkpt><trkpt lat="43.1386195" lon="11.5716225"><ele>290.66666666666663</ele><time>2026-04-04T14:22:36.086Z</time></trkpt><trkpt lat="43.1386652" lon="11.5715492"><ele>293.0</ele><time>2026-04-04T14:22:37.088Z</time></trkpt><trkpt lat="43.1387123" lon="11.5714605"><ele>295.3333333333333</ele><time>2026-04-04T14:22:38.087Z</time></trkpt><trkpt lat="43.138749" lon="11.5713603"><ele>297.6666666666667</ele><time>2026-04-04T14:22:39.086Z</time></trkpt><trkpt lat="43.1387705" lon="11.5712449"><ele>300.0</ele><time>2026-04-04T14:22:40.087Z</time></trkpt><trkpt lat="43.1387797" lon="11.5711249"><ele>300.0</ele><time>2026-04-04T14:22:41.086Z</time></trkpt><trkpt lat="43.13876" lon="11.5709982"><ele>300.0</ele><time>2026-04-04T14:22:42.085Z</time></trkpt><trkpt lat="43.1387222" lon="11.5708763"><ele>300.0</ele><time>2026-04-04T14:22:43.086Z</time></trkpt><trkpt lat="43.1386633" lon="11.570775"><ele>300.0</ele><time>2026-04-04T14:22:44.086Z</time></trkpt><trkpt lat="43.1386046" lon="11.5706781"><ele>300.0</ele><time>2026-04-04T14:22:45.086Z</time></trkpt><trkpt lat="43.1385603" lon="11.5705831"><ele>300.0</ele><time>2026-04-04T14:22:46.086Z</time></trkpt><trkpt lat="43.1385224" lon="11.5704848"><ele>300.0</ele><time>2026-04-04T14:22:47.087Z</time></trkpt><trkpt lat="43.1385075" lon="11.5703621"><ele>300.0</ele><time>2026-04-04T14:22:48.087Z</time></trkpt><trkpt lat="43.1385044" lon="11.5702619"><ele>300.0</ele><time>2026-04-04T14:22:49.088Z</time></trkpt><trkpt lat="43.138518" lon="11.5701307"><ele>300.0</ele><time>2026-04-04T14:22:50.086Z</time></trkpt><trkpt lat="43.1385398" lon="11.5700072"><ele>300.0</ele><time>2026-04-04T14:22:51.086Z</time></trkpt><trkpt lat="43.138567" lon="11.5698857"><ele>301.0</ele><time>2026-04-04T14:22:52.087Z</time></trkpt><trkpt lat="43.1385774" lon="11.569747"><ele>302.0</ele><time>2026-04-04T14:22:53.087Z</time></trkpt><trkpt lat="43.1385762" lon="11.5696131"><ele>303.0</ele><time>2026-04-04T14:22:54.086Z</time></trkpt><trkpt lat="43.1385708" lon="11.5694711"><ele>304.0</ele><time>2026-04-04T14:22:55.086Z</time></trkpt><trkpt lat="43.13856" lon="11.5693351"><ele>305.0</ele><time>2026-04-04T14:22:56.087Z</time></trkpt><trkpt lat="43.1385352" lon="11.5691966"><ele>305.2</ele><time>2026-04-04T14:22:57.087Z</time></trkpt><trkpt lat="43.1385187" lon="11.5690683"><ele>305.4</ele><time>2026-04-04T14:22:58.086Z</time></trkpt><trkpt lat="43.1384802" lon="11.5689204"><ele>305.6</ele><time>2026-04-04T14:22:59.088Z</time></trkpt><trkpt lat="43.1384475" lon="11.5688034"><ele>305.8</ele><time>2026-04-04T14:23:00.086Z</time></trkpt><trkpt lat="43.138404" lon="11.5686983"><ele>306.0</ele><time>2026-04-04T14:23:01.086Z</time></trkpt><trkpt lat="43.1383437" lon="11.5685895"><ele>306.2</ele><time>2026-04-04T14:23:02.087Z</time></trkpt><trkpt lat="43.1382932" lon="11.5684853"><ele>306.40000000000003</ele><time>2026-04-04T14:23:03.086Z</time></trkpt><trkpt lat="43.1382243" lon="11.5683893"><ele>306.6</ele><time>2026-04-04T14:23:04.085Z</time></trkpt><trkpt lat="43.1381546" lon="11.5683057"><ele>306.8</ele><time>2026-04-04T14:23:05.087Z</time></trkpt><trkpt lat="43.1380932" lon="11.568224"><ele>307.0</ele><time>2026-04-04T14:23:06.085Z</time></trkpt><trkpt lat="43.1380342" lon="11.5681347"><ele>304.0</ele><time>2026-04-04T14:23:07.087Z</time></trkpt><trkpt lat="43.137985" lon="11.5680473"><ele>301.0</ele><time>2026-04-04T14:23:08.087Z</time></trkpt><trkpt lat="43.1379445" lon="11.5679552"><ele>298.0</ele><time>2026-04-04T14:23:09.087Z</time></trkpt><trkpt lat="43.1379199" lon="11.567859"><ele>295.0</ele><time>2026-04-04T14:23:10.086Z</time></trkpt><trkpt lat="43.1379157" lon="11.5677622"><ele>292.0</ele><time>2026-04-04T14:23:11.086Z</time></trkpt><trkpt lat="43.1379143" lon="11.5676533"><ele>289.0</ele><time>2026-04-04T14:23:12.087Z</time></trkpt><trkpt lat="43.1379264" lon="11.5675267"><ele>289.0</ele><time>2026-04-04T14:23:13.087Z</time></trkpt><trkpt lat="43.1379382" lon="11.5674146"><ele>289.0</ele><time>2026-04-04T14:23:14.088Z</time></trkpt><trkpt lat="43.1379685" lon="11.5672703"><ele>289.0</ele><time>2026-04-04T14:23:15.088Z</time></trkpt><trkpt lat="43.1379841" lon="11.567142"><ele>289.0</ele><time>2026-04-04T14:23:16.086Z</time></trkpt><trkpt lat="43.1379919" lon="11.5670116"><ele>289.0</ele><time>2026-04-04T14:23:17.087Z</time></trkpt><trkpt lat="43.1379912" lon="11.5668857"><ele>288.8</ele><time>2026-04-04T14:23:18.086Z</time></trkpt><trkpt lat="43.1379837" lon="11.5667563"><ele>288.59999999999997</ele><time>2026-04-04T14:23:19.086Z</time></trkpt><trkpt lat="43.1379748" lon="11.5666236"><ele>288.4</ele><time>2026-04-04T14:23:20.087Z</time></trkpt><trkpt lat="43.1379767" lon="11.5664938"><ele>288.2</ele><time>2026-04-04T14:23:21.087Z</time></trkpt><trkpt lat="43.137966" lon="11.566356"><ele>288.0</ele><time>2026-04-04T14:23:22.088Z</time></trkpt><trkpt lat="43.137969" lon="11.566217"><ele>287.2</ele><time>2026-04-04T14:23:23.086Z</time></trkpt><trkpt lat="43.1379573" lon="11.5660808"><ele>286.4</ele><time>2026-04-04T14:23:24.086Z</time></trkpt><trkpt lat="43.1379426" lon="11.5659494"><ele>285.59999999999997</ele><time>2026-04-04T14:23:25.087Z</time></trkpt><trkpt lat="43.1379361" lon="11.5658273"><ele>284.8</ele><time>2026-04-04T14:23:26.085Z</time></trkpt><trkpt lat="43.1379261" lon="11.5657064"><ele>284.0</ele><time>2026-04-04T14:23:27.087Z</time></trkpt><trkpt lat="43.1379132" lon="11.5655905"><ele>284.0</ele><time>2026-04-04T14:23:28.087Z</time></trkpt><trkpt lat="43.1379077" lon="11.5654832"><ele>284.0</ele><time>2026-04-04T14:23:29.086Z</time></trkpt><trkpt lat="43.1379038" lon="11.5653817"><ele>284.0</ele><time>2026-04-04T14:23:30.087Z</time></trkpt><trkpt lat="43.1378871" lon="11.5652281"><ele>284.0</ele><time>2026-04-04T14:23:32.086Z</time></trkpt><trkpt lat="43.1378349" lon="11.5650694"><ele>284.0</ele><time>2026-04-04T14:23:34.087Z</time></trkpt><trkpt lat="43.1377963" lon="11.5649815"><ele>284.6666666666667</ele><time>2026-04-04T14:23:35.087Z</time></trkpt><trkpt lat="43.1377558" lon="11.5648961"><ele>285.33333333333337</ele><time>2026-04-04T14:23:36.086Z</time></trkpt><trkpt lat="43.1377168" lon="11.5648069"><ele>286.0</ele><time>2026-04-04T14:23:37.087Z</time></trkpt><trkpt lat="43.1376777" lon="11.5647175"><ele>286.6666666666667</ele><time>2026-04-04T14:23:38.086Z</time></trkpt><trkpt lat="43.1376338" lon="11.5646405"><ele>287.3333333333333</ele><time>2026-04-04T14:23:39.088Z</time></trkpt><trkpt lat="43.1375957" lon="11.5645667"><ele>288.0</ele><time>2026-04-04T14:23:40.086Z</time></trkpt><trkpt lat="43.1375277" lon="11.5644617"><ele>288.6666666666667</ele><time>2026-04-04T14:23:42.086Z</time></trkpt><trkpt lat="43.1374309" lon="11.5643671"><ele>289.3333333333333</ele><time>2026-04-04T14:23:44.087Z</time></trkpt><trkpt lat="43.1373456" lon="11.5643536"><ele>290.0</ele><time>2026-04-04T14:23:45.086Z</time></trkpt><trkpt lat="43.137264" lon="11.5643664"><ele>290.66666666666663</ele><time>2026-04-04T14:23:46.087Z</time></trkpt><trkpt lat="43.1371902" lon="11.5644014"><ele>291.3333333333333</ele><time>2026-04-04T14:23:47.087Z</time></trkpt><trkpt lat="43.1371213" lon="11.5644542"><ele>292.0</ele><time>2026-04-04T14:23:48.087Z</time></trkpt><trkpt lat="43.137068" lon="11.5645174"><ele>288.16666666666663</ele><time>2026-04-04T14:23:49.087Z</time></trkpt><trkpt lat="43.1370064" lon="11.5646711"><ele>284.3333333333333</ele><time>2026-04-04T14:23:51.086Z</time></trkpt><trkpt lat="43.1369972" lon="11.5647727"><ele>280.5</ele><time>2026-04-04T14:23:52.085Z</time></trkpt><trkpt lat="43.1370021" lon="11.5648722"><ele>276.6666666666667</ele><time>2026-04-04T14:23:53.085Z</time></trkpt><trkpt lat="43.1370286" lon="11.564974"><ele>272.83333333333337</ele><time>2026-04-04T14:23:54.086Z</time></trkpt><trkpt lat="43.1370625" lon="11.5650643"><ele>269.0</ele><time>2026-04-04T14:23:55.086Z</time></trkpt><trkpt lat="43.1370969" lon="11.5651559"><ele>269.0</ele><time>2026-04-04T14:23:56.087Z</time></trkpt><trkpt lat="43.1371437" lon="11.5652394"><ele>269.0</ele><time>2026-04-04T14:23:57.086Z</time></trkpt><trkpt lat="43.1371949" lon="11.5653106"><ele>269.0</ele><time>2026-04-04T14:23:58.087Z</time></trkpt><trkpt lat="43.1372331" lon="11.5654051"><ele>269.0</ele><time>2026-04-04T14:23:59.087Z</time></trkpt><trkpt lat="43.137269" lon="11.565491"><ele>269.0</ele><time>2026-04-04T14:24:00.085Z</time></trkpt><trkpt lat="43.1372809" lon="11.5655851"><ele>269.0</ele><time>2026-04-04T14:24:01.087Z</time></trkpt><trkpt lat="43.1372883" lon="11.5656746"><ele>269.0</ele><time>2026-04-04T14:24:02.086Z</time></trkpt><trkpt lat="43.1372874" lon="11.5657629"><ele>268.6666666666667</ele><time>2026-04-04T14:24:03.086Z</time></trkpt><trkpt lat="43.1372805" lon="11.5658494"><ele>268.33333333333337</ele><time>2026-04-04T14:24:04.086Z</time></trkpt><trkpt lat="43.1372561" lon="11.5659408"><ele>268.0</ele><time>2026-04-04T14:24:05.087Z</time></trkpt><trkpt lat="43.1372123" lon="11.5660301"><ele>267.6666666666667</ele><time>2026-04-04T14:24:06.086Z</time></trkpt><trkpt lat="43.1371714" lon="11.5661123"><ele>267.3333333333333</ele><time>2026-04-04T14:24:07.086Z</time></trkpt><trkpt lat="43.1371133" lon="11.5662015"><ele>267.0</ele><time>2026-04-04T14:24:08.087Z</time></trkpt><trkpt lat="43.1370461" lon="11.5662676"><ele>267.6666666666667</ele><time>2026-04-04T14:24:09.087Z</time></trkpt><trkpt lat="43.1369724" lon="11.5663213"><ele>268.3333333333333</ele><time>2026-04-04T14:24:10.085Z</time></trkpt><trkpt lat="43.1368993" lon="11.5663664"><ele>269.0</ele><time>2026-04-04T14:24:11.086Z</time></trkpt><trkpt lat="43.1368065" lon="11.5663885"><ele>269.66666666666663</ele><time>2026-04-04T14:24:12.087Z</time></trkpt><trkpt lat="43.1367203" lon="11.5664237"><ele>270.3333333333333</ele><time>2026-04-04T14:24:13.086Z</time></trkpt><trkpt lat="43.1366359" lon="11.5664543"><ele>271.0</ele><time>2026-04-04T14:24:14.087Z</time></trkpt><trkpt lat="43.1365519" lon="11.5664928"><ele>267.16666666666663</ele><time>2026-04-04T14:24:15.086Z</time></trkpt><trkpt lat="43.1364902" lon="11.5665332"><ele>263.3333333333333</ele><time>2026-04-04T14:24:16.086Z</time></trkpt><trkpt lat="43.1364282" lon="11.5665661"><ele>259.5</ele><time>2026-04-04T14:24:17.087Z</time></trkpt><trkpt lat="43.136316" lon="11.5665867"><ele>255.66666666666669</ele><time>2026-04-04T14:24:19.086Z</time></trkpt><trkpt lat="43.1362231" lon="11.5665058"><ele>251.83333333333334</ele><time>2026-04-04T14:24:21.085Z</time></trkpt><trkpt lat="43.1361784" lon="11.5664344"><ele>248.0</ele><time>2026-04-04T14:24:22.087Z</time></trkpt><trkpt lat="43.1361787" lon="11.5662702"><ele>248.0</ele><time>2026-04-04T14:24:24.087Z</time></trkpt><trkpt lat="43.1361929" lon="11.5661795"><ele>248.00000000000003</ele><time>2026-04-04T14:24:25.085Z</time></trkpt><trkpt lat="43.136238" lon="11.5661065"><ele>248.0</ele><time>2026-04-04T14:24:26.086Z</time></trkpt><trkpt lat="43.1362825" lon="11.5660379"><ele>248.0</ele><time>2026-04-04T14:24:27.086Z</time></trkpt><trkpt lat="43.1363315" lon="11.5659588"><ele>248.00000000000003</ele><time>2026-04-04T14:24:28.086Z</time></trkpt><trkpt lat="43.1363714" lon="11.5658845"><ele>248.0</ele><time>2026-04-04T14:24:29.086Z</time></trkpt><trkpt lat="43.1364128" lon="11.5658055"><ele>248.0</ele><time>2026-04-04T14:24:30.085Z</time></trkpt><trkpt lat="43.1364223" lon="11.5657026"><ele>248.00000000000003</ele><time>2026-04-04T14:24:31.086Z</time></trkpt><trkpt lat="43.1364144" lon="11.5655969"><ele>248.0</ele><time>2026-04-04T14:24:32.085Z</time></trkpt><trkpt lat="43.136388" lon="11.5655008"><ele>248.0</ele><time>2026-04-04T14:24:33.085Z</time></trkpt><trkpt lat="43.1363406" lon="11.5654159"><ele>248.0</ele><time>2026-04-04T14:24:34.086Z</time></trkpt><trkpt lat="43.1362798" lon="11.5653375"><ele>248.00000000000003</ele><time>2026-04-04T14:24:35.085Z</time></trkpt><trkpt lat="43.1362117" lon="11.5652555"><ele>248.0</ele><time>2026-04-04T14:24:36.086Z</time></trkpt><trkpt lat="43.1361521" lon="11.5651735"><ele>247.50000000000003</ele><time>2026-04-04T14:24:37.085Z</time></trkpt><trkpt lat="43.1361189" lon="11.5650849"><ele>247.0</ele><time>2026-04-04T14:24:38.085Z</time></trkpt><trkpt lat="43.1360952" lon="11.5649926"><ele>246.5</ele><time>2026-04-04T14:24:39.087Z</time></trkpt><trkpt lat="43.1360915" lon="11.5649059"><ele>246.0</ele><time>2026-04-04T14:24:40.087Z</time></trkpt><trkpt lat="43.1361017" lon="11.5647501"><ele>245.50000000000003</ele><time>2026-04-04T14:24:42.085Z</time></trkpt><trkpt lat="43.1361187" lon="11.5646604"><ele>245.0</ele><time>2026-04-04T14:24:43.086Z</time></trkpt><trkpt lat="43.1361457" lon="11.5645666"><ele>244.28571428571428</ele><time>2026-04-04T14:24:44.086Z</time></trkpt><trkpt lat="43.1361806" lon="11.5644766"><ele>243.57142857142856</ele><time>2026-04-04T14:24:45.086Z</time></trkpt><trkpt lat="43.1362158" lon="11.5643912"><ele>242.85714285714286</ele><time>2026-04-04T14:24:46.087Z</time></trkpt><trkpt lat="43.1362611" lon="11.5643009"><ele>242.14285714285714</ele><time>2026-04-04T14:24:47.086Z</time></trkpt><trkpt lat="43.1363016" lon="11.5642291"><ele>241.42857142857142</ele><time>2026-04-04T14:24:48.084Z</time></trkpt><trkpt lat="43.1363378" lon="11.5641508"><ele>240.71428571428572</ele><time>2026-04-04T14:24:49.084Z</time></trkpt><trkpt lat="43.136372" lon="11.5640733"><ele>240.0</ele><time>2026-04-04T14:24:50.085Z</time></trkpt><trkpt lat="43.1364002" lon="11.563991"><ele>240.0</ele><time>2026-04-04T14:24:51.087Z</time></trkpt><trkpt lat="43.1364118" lon="11.5638941"><ele>240.0</ele><time>2026-04-04T14:24:52.086Z</time></trkpt><trkpt lat="43.1364223" lon="11.5637514"><ele>240.0</ele><time>2026-04-04T14:24:54.085Z</time></trkpt><trkpt lat="43.1364194" lon="11.5636318"><ele>240.0</ele><time>2026-04-04T14:24:56.085Z</time></trkpt><trkpt lat="43.1363974" lon="11.5635466"><ele>240.0</ele><time>2026-04-04T14:25:08.087Z</time></trkpt><trkpt lat="43.1363686" lon="11.5634536"><ele>240.0</ele><time>2026-04-04T14:25:10.087Z</time></trkpt><trkpt lat="43.1363232" lon="11.5633195"><ele>240.16666666666666</ele><time>2026-04-04T14:25:12.085Z</time></trkpt><trkpt lat="43.1362663" lon="11.5632537"><ele>240.33333333333331</ele><time>2026-04-04T14:25:13.085Z</time></trkpt><trkpt lat="43.1362198" lon="11.5631862"><ele>240.5</ele><time>2026-04-04T14:25:14.084Z</time></trkpt><trkpt lat="43.1361644" lon="11.5631162"><ele>240.66666666666666</ele><time>2026-04-04T14:25:15.087Z</time></trkpt><trkpt lat="43.136103" lon="11.5630507"><ele>240.83333333333331</ele><time>2026-04-04T14:25:16.086Z</time></trkpt><trkpt lat="43.1360489" lon="11.5629833"><ele>241.0</ele><time>2026-04-04T14:25:17.084Z</time></trkpt><trkpt lat="43.1359894" lon="11.5629058"><ele>242.33333333333331</ele><time>2026-04-04T14:25:18.086Z</time></trkpt><trkpt lat="43.1359244" lon="11.5628299"><ele>243.66666666666666</ele><time>2026-04-04T14:25:19.085Z</time></trkpt><trkpt lat="43.1358678" lon="11.5627479"><ele>245.0</ele><time>2026-04-04T14:25:20.086Z</time></trkpt><trkpt lat="43.1358088" lon="11.5626667"><ele>246.33333333333331</ele><time>2026-04-04T14:25:21.087Z</time></trkpt><trkpt lat="43.1357375" lon="11.562581"><ele>247.66666666666666</ele><time>2026-04-04T14:25:22.084Z</time></trkpt><trkpt lat="43.1356612" lon="11.5624867"><ele>249.0</ele><time>2026-04-04T14:25:23.085Z</time></trkpt><trkpt lat="43.1355875" lon="11.5623901"><ele>245.79999999999998</ele><time>2026-04-04T14:25:24.086Z</time></trkpt><trkpt lat="43.1355147" lon="11.5622807"><ele>242.59999999999997</ele><time>2026-04-04T14:25:25.087Z</time></trkpt><trkpt lat="43.135447" lon="11.5621833"><ele>239.4</ele><time>2026-04-04T14:25:26.087Z</time></trkpt><trkpt lat="43.1353824" lon="11.5620787"><ele>236.2</ele><time>2026-04-04T14:25:27.086Z</time></trkpt><trkpt lat="43.1353243" lon="11.5619709"><ele>233.0</ele><time>2026-04-04T14:25:28.086Z</time></trkpt><trkpt lat="43.1352704" lon="11.5618568"><ele>233.0</ele><time>2026-04-04T14:25:29.084Z</time></trkpt><trkpt lat="43.1352165" lon="11.5617357"><ele>233.0</ele><time>2026-04-04T14:25:30.086Z</time></trkpt><trkpt lat="43.1351551" lon="11.5616294"><ele>233.0</ele><time>2026-04-04T14:25:31.087Z</time></trkpt><trkpt lat="43.1350987" lon="11.5615161"><ele>233.0</ele><time>2026-04-04T14:25:32.085Z</time></trkpt><trkpt lat="43.1350386" lon="11.5614059"><ele>233.0</ele><time>2026-04-04T14:25:33.085Z</time></trkpt><trkpt lat="43.1349779" lon="11.5612969"><ele>233.0</ele><time>2026-04-04T14:25:34.084Z</time></trkpt><trkpt lat="43.134915" lon="11.5611854"><ele>233.0</ele><time>2026-04-04T14:25:35.084Z</time></trkpt><trkpt lat="43.1348517" lon="11.5610704"><ele>233.0</ele><time>2026-04-04T14:25:36.086Z</time></trkpt><trkpt lat="43.1347902" lon="11.5609534"><ele>233.0</ele><time>2026-04-04T14:25:37.086Z</time></trkpt><trkpt lat="43.134728" lon="11.5608382"><ele>233.0</ele><time>2026-04-04T14:25:38.085Z</time></trkpt><trkpt lat="43.1346709" lon="11.5607129"><ele>229.60000000000002</ele><time>2026-04-04T14:25:39.085Z</time></trkpt><trkpt lat="43.1346131" lon="11.5605943"><ele>226.20000000000002</ele><time>2026-04-04T14:25:40.086Z</time></trkpt><trkpt lat="43.1345565" lon="11.560479"><ele>222.8</ele><time>2026-04-04T14:25:41.085Z</time></trkpt><trkpt lat="43.1345018" lon="11.5603745"><ele>219.4</ele><time>2026-04-04T14:25:42.085Z</time></trkpt><trkpt lat="43.1344457" lon="11.5602711"><ele>216.0</ele><time>2026-04-04T14:25:43.086Z</time></trkpt><trkpt lat="43.1343881" lon="11.5601821"><ele>216.0</ele><time>2026-04-04T14:25:44.087Z</time></trkpt><trkpt lat="43.1343335" lon="11.5600804"><ele>216.0</ele><time>2026-04-04T14:25:45.086Z</time></trkpt><trkpt lat="43.1342845" lon="11.5599914"><ele>216.0</ele><time>2026-04-04T14:25:46.086Z</time></trkpt><trkpt lat="43.1342371" lon="11.5599014"><ele>216.0</ele><time>2026-04-04T14:25:47.086Z</time></trkpt><trkpt lat="43.1341929" lon="11.5598095"><ele>216.0</ele><time>2026-04-04T14:25:48.086Z</time></trkpt><trkpt lat="43.1341458" lon="11.5597186"><ele>216.0</ele><time>2026-04-04T14:25:49.087Z</time></trkpt><trkpt lat="43.1341053" lon="11.5596283"><ele>216.20000000000002</ele><time>2026-04-04T14:25:50.085Z</time></trkpt><trkpt lat="43.1340693" lon="11.559514"><ele>216.40000000000003</ele><time>2026-04-04T14:25:51.085Z</time></trkpt><trkpt lat="43.1340438" lon="11.5593944"><ele>216.6</ele><time>2026-04-04T14:25:52.085Z</time></trkpt><trkpt lat="43.1340271" lon="11.559262"><ele>216.8</ele><time>2026-04-04T14:25:53.086Z</time></trkpt><trkpt lat="43.134017" lon="11.5591266"><ele>217.0</ele><time>2026-04-04T14:25:54.087Z</time></trkpt><trkpt lat="43.1340143" lon="11.5589928"><ele>213.6</ele><time>2026-04-04T14:25:55.085Z</time></trkpt><trkpt lat="43.1340139" lon="11.5588544"><ele>210.2</ele><time>2026-04-04T14:25:56.085Z</time></trkpt><trkpt lat="43.1340153" lon="11.5587091"><ele>206.8</ele><time>2026-04-04T14:25:57.086Z</time></trkpt><trkpt lat="43.1340213" lon="11.558553"><ele>203.4</ele><time>2026-04-04T14:25:58.085Z</time></trkpt><trkpt lat="43.1340229" lon="11.5583982"><ele>200.0</ele><time>2026-04-04T14:25:59.086Z</time></trkpt><trkpt lat="43.1340212" lon="11.5582596"><ele>200.0</ele><time>2026-04-04T14:26:00.086Z</time></trkpt><trkpt lat="43.1340255" lon="11.5581045"><ele>200.0</ele><time>2026-04-04T14:26:01.084Z</time></trkpt><trkpt lat="43.1340214" lon="11.5579599"><ele>200.0</ele><time>2026-04-04T14:26:02.086Z</time></trkpt><trkpt lat="43.1340083" lon="11.5578225"><ele>200.0</ele><time>2026-04-04T14:26:03.085Z</time></trkpt><trkpt lat="43.1339902" lon="11.5576811"><ele>200.0</ele><time>2026-04-04T14:26:04.086Z</time></trkpt><trkpt lat="43.1339751" lon="11.557548"><ele>200.0</ele><time>2026-04-04T14:26:05.085Z</time></trkpt><trkpt lat="43.1339587" lon="11.5574244"><ele>200.0</ele><time>2026-04-04T14:26:06.086Z</time></trkpt><trkpt lat="43.1339422" lon="11.5572971"><ele>200.0</ele><time>2026-04-04T14:26:07.085Z</time></trkpt><trkpt lat="43.1339231" lon="11.5571857"><ele>200.0</ele><time>2026-04-04T14:26:08.085Z</time></trkpt><trkpt lat="43.1339117" lon="11.5570681"><ele>200.0</ele><time>2026-04-04T14:26:09.085Z</time></trkpt><trkpt lat="43.1338887" lon="11.5569322"><ele>201.0</ele><time>2026-04-04T14:26:10.085Z</time></trkpt><trkpt lat="43.1338649" lon="11.5568078"><ele>202.0</ele><time>2026-04-04T14:26:11.085Z</time></trkpt><trkpt lat="43.1338379" lon="11.5566789"><ele>203.0</ele><time>2026-04-04T14:26:12.084Z</time></trkpt><trkpt lat="43.1338151" lon="11.55656"><ele>204.0</ele><time>2026-04-04T14:26:13.086Z</time></trkpt><trkpt lat="43.1337921" lon="11.5564438"><ele>205.0</ele><time>2026-04-04T14:26:14.085Z</time></trkpt><trkpt lat="43.1337653" lon="11.5563357"><ele>205.0</ele><time>2026-04-04T14:26:15.086Z</time></trkpt><trkpt lat="43.1337411" lon="11.5562429"><ele>205.0</ele><time>2026-04-04T14:26:16.086Z</time></trkpt><trkpt lat="43.1337237" lon="11.5561334"><ele>205.0</ele><time>2026-04-04T14:26:17.084Z</time></trkpt><trkpt lat="43.1336769" lon="11.5560541"><ele>205.0</ele><time>2026-04-04T14:26:18.086Z</time></trkpt><trkpt lat="43.1336277" lon="11.5559974"><ele>205.0</ele><time>2026-04-04T14:26:19.084Z</time></trkpt><trkpt lat="43.1335665" lon="11.5559256"><ele>205.0</ele><time>2026-04-04T14:26:20.085Z</time></trkpt><trkpt lat="43.1335026" lon="11.5558818"><ele>205.0</ele><time>2026-04-04T14:26:21.084Z</time></trkpt><trkpt lat="43.1334241" lon="11.5558513"><ele>206.66666666666666</ele><time>2026-04-04T14:26:22.085Z</time></trkpt><trkpt lat="43.1333445" lon="11.5558399"><ele>208.33333333333331</ele><time>2026-04-04T14:26:23.086Z</time></trkpt><trkpt lat="43.1332703" lon="11.5558392"><ele>210.0</ele><time>2026-04-04T14:26:24.084Z</time></trkpt><trkpt lat="43.1331864" lon="11.5558611"><ele>211.66666666666669</ele><time>2026-04-04T14:26:25.084Z</time></trkpt><trkpt lat="43.1331212" lon="11.555875"><ele>213.33333333333334</ele><time>2026-04-04T14:26:26.086Z</time></trkpt><trkpt lat="43.133052" lon="11.5559566"><ele>215.0</ele><time>2026-04-04T14:26:27.086Z</time></trkpt><trkpt lat="43.1329822" lon="11.5560256"><ele>215.50000000000003</ele><time>2026-04-04T14:26:28.086Z</time></trkpt><trkpt lat="43.1329114" lon="11.556113"><ele>216.0</ele><time>2026-04-04T14:26:29.085Z</time></trkpt><trkpt lat="43.1328542" lon="11.5561934"><ele>216.5</ele><time>2026-04-04T14:26:30.086Z</time></trkpt><trkpt lat="43.1327949" lon="11.5562736"><ele>217.0</ele><time>2026-04-04T14:26:31.085Z</time></trkpt><trkpt lat="43.1327403" lon="11.5563641"><ele>217.50000000000003</ele><time>2026-04-04T14:26:32.084Z</time></trkpt><trkpt lat="43.1326697" lon="11.5564462"><ele>218.0</ele><time>2026-04-04T14:26:33.085Z</time></trkpt><trkpt lat="43.132604" lon="11.5565494"><ele>218.0</ele><time>2026-04-04T14:26:34.085Z</time></trkpt><trkpt lat="43.1325361" lon="11.5566437"><ele>218.0</ele><time>2026-04-04T14:26:35.085Z</time></trkpt><trkpt lat="43.1324725" lon="11.5567225"><ele>218.0</ele><time>2026-04-04T14:26:36.085Z</time></trkpt><trkpt lat="43.132405" lon="11.5568123"><ele>218.0</ele><time>2026-04-04T14:26:37.084Z</time></trkpt><trkpt lat="43.1323325" lon="11.5568879"><ele>218.0</ele><time>2026-04-04T14:26:38.085Z</time></trkpt><trkpt lat="43.1322605" lon="11.5569599"><ele>217.2</ele><time>2026-04-04T14:26:39.085Z</time></trkpt><trkpt lat="43.1321754" lon="11.5570085"><ele>216.4</ele><time>2026-04-04T14:26:40.087Z</time></trkpt><trkpt lat="43.1320843" lon="11.5570619"><ele>215.59999999999997</ele><time>2026-04-04T14:26:41.084Z</time></trkpt><trkpt lat="43.1319943" lon="11.5571223"><ele>214.79999999999998</ele><time>2026-04-04T14:26:42.086Z</time></trkpt><trkpt lat="43.1319138" lon="11.5571866"><ele>214.0</ele><time>2026-04-04T14:26:43.084Z</time></trkpt><trkpt lat="43.1318085" lon="11.5572239"><ele>214.0</ele><time>2026-04-04T14:26:44.086Z</time></trkpt><trkpt lat="43.1317137" lon="11.5572634"><ele>213.99999999999997</ele><time>2026-04-04T14:26:45.084Z</time></trkpt><trkpt lat="43.1316244" lon="11.5573041"><ele>213.99999999999997</ele><time>2026-04-04T14:26:46.086Z</time></trkpt><trkpt lat="43.1315331" lon="11.557335"><ele>214.0</ele><time>2026-04-04T14:26:47.085Z</time></trkpt><trkpt lat="43.1314479" lon="11.5573505"><ele>214.0</ele><time>2026-04-04T14:26:48.083Z</time></trkpt><trkpt lat="43.1313669" lon="11.5573501"><ele>213.66666666666666</ele><time>2026-04-04T14:26:49.085Z</time></trkpt><trkpt lat="43.1312964" lon="11.5573252"><ele>213.33333333333331</ele><time>2026-04-04T14:26:50.085Z</time></trkpt><trkpt lat="43.1312305" lon="11.5572667"><ele>213.0</ele><time>2026-04-04T14:26:51.085Z</time></trkpt><trkpt lat="43.1311613" lon="11.5572149"><ele>212.66666666666669</ele><time>2026-04-04T14:26:52.084Z</time></trkpt><trkpt lat="43.1311059" lon="11.5570966"><ele>212.33333333333334</ele><time>2026-04-04T14:26:54.085Z</time></trkpt><trkpt lat="43.1310864" lon="11.5570071"><ele>212.0</ele><time>2026-04-04T14:26:55.085Z</time></trkpt><trkpt lat="43.131072" lon="11.5569154"><ele>215.00000000000003</ele><time>2026-04-04T14:26:56.085Z</time></trkpt><trkpt lat="43.1310845" lon="11.5568185"><ele>218.0</ele><time>2026-04-04T14:26:57.086Z</time></trkpt><trkpt lat="43.1311612" lon="11.5566636"><ele>221.0</ele><time>2026-04-04T14:26:59.085Z</time></trkpt><trkpt lat="43.1312078" lon="11.5566029"><ele>224.0</ele><time>2026-04-04T14:27:00.083Z</time></trkpt><trkpt lat="43.1312612" lon="11.5565463"><ele>227.00000000000003</ele><time>2026-04-04T14:27:01.085Z</time></trkpt><trkpt lat="43.1313142" lon="11.5564794"><ele>230.0</ele><time>2026-04-04T14:27:02.084Z</time></trkpt><trkpt lat="43.1313847" lon="11.5564298"><ele>230.0</ele><time>2026-04-04T14:27:03.086Z</time></trkpt><trkpt lat="43.1314552" lon="11.5563739"><ele>230.0</ele><time>2026-04-04T14:27:04.086Z</time></trkpt><trkpt lat="43.1315356" lon="11.5563093"><ele>230.0</ele><time>2026-04-04T14:27:05.084Z</time></trkpt><trkpt lat="43.1316146" lon="11.5562559"><ele>230.0</ele><time>2026-04-04T14:27:06.086Z</time></trkpt><trkpt lat="43.1317005" lon="11.5561887"><ele>230.0</ele><time>2026-04-04T14:27:07.086Z</time></trkpt><trkpt lat="43.1317919" lon="11.55615"><ele>232.6</ele><time>2026-04-04T14:27:08.084Z</time></trkpt><trkpt lat="43.1318709" lon="11.5560884"><ele>235.2</ele><time>2026-04-04T14:27:09.085Z</time></trkpt><trkpt lat="43.1319578" lon="11.556015"><ele>237.8</ele><time>2026-04-04T14:27:10.085Z</time></trkpt><trkpt lat="43.1320441" lon="11.555934"><ele>240.4</ele><time>2026-04-04T14:27:11.084Z</time></trkpt><trkpt lat="43.1321292" lon="11.5558539"><ele>243.0</ele><time>2026-04-04T14:27:12.086Z</time></trkpt><trkpt lat="43.1321975" lon="11.5557596"><ele>243.0</ele><time>2026-04-04T14:27:13.086Z</time></trkpt><trkpt lat="43.132269" lon="11.5556873"><ele>243.0</ele><time>2026-04-04T14:27:14.085Z</time></trkpt><trkpt lat="43.1323401" lon="11.5556114"><ele>243.0</ele><time>2026-04-04T14:27:15.085Z</time></trkpt><trkpt lat="43.1324152" lon="11.5555404"><ele>243.0</ele><time>2026-04-04T14:27:16.084Z</time></trkpt><trkpt lat="43.1324855" lon="11.5554558"><ele>243.0</ele><time>2026-04-04T14:27:17.086Z</time></trkpt><trkpt lat="43.132549" lon="11.5553871"><ele>243.0</ele><time>2026-04-04T14:27:18.083Z</time></trkpt><trkpt lat="43.1326122" lon="11.555322"><ele>243.5</ele><time>2026-04-04T14:27:19.085Z</time></trkpt><trkpt lat="43.1326806" lon="11.5552523"><ele>244.0</ele><time>2026-04-04T14:27:20.085Z</time></trkpt><trkpt lat="43.1327458" lon="11.5551847"><ele>244.5</ele><time>2026-04-04T14:27:21.083Z</time></trkpt><trkpt lat="43.1327963" lon="11.5551077"><ele>245.0</ele><time>2026-04-04T14:27:22.085Z</time></trkpt><trkpt lat="43.1328493" lon="11.5550335"><ele>245.5</ele><time>2026-04-04T14:27:23.085Z</time></trkpt><trkpt lat="43.132892" lon="11.5549411"><ele>246.0</ele><time>2026-04-04T14:27:24.085Z</time></trkpt><trkpt lat="43.1329019" lon="11.5548546"><ele>246.0</ele><time>2026-04-04T14:27:25.084Z</time></trkpt><trkpt lat="43.1329082" lon="11.5547433"><ele>246.0</ele><time>2026-04-04T14:27:26.084Z</time></trkpt><trkpt lat="43.1329038" lon="11.554643"><ele>246.0</ele><time>2026-04-04T14:27:27.085Z</time></trkpt><trkpt lat="43.1328795" lon="11.5545425"><ele>246.0</ele><time>2026-04-04T14:27:28.086Z</time></trkpt><trkpt lat="43.1328368" lon="11.5544579"><ele>246.0</ele><time>2026-04-04T14:27:29.085Z</time></trkpt><trkpt lat="43.1327895" lon="11.5543524"><ele>246.0</ele><time>2026-04-04T14:27:30.085Z</time></trkpt><trkpt lat="43.132739" lon="11.5542699"><ele>246.66666666666666</ele><time>2026-04-04T14:27:31.086Z</time></trkpt><trkpt lat="43.1326719" lon="11.5541992"><ele>247.33333333333331</ele><time>2026-04-04T14:27:32.086Z</time></trkpt><trkpt lat="43.1326039" lon="11.5541278"><ele>248.0</ele><time>2026-04-04T14:27:33.084Z</time></trkpt><trkpt lat="43.1325507" lon="11.5540642"><ele>248.66666666666666</ele><time>2026-04-04T14:27:34.086Z</time></trkpt><trkpt lat="43.1324865" lon="11.5540388"><ele>249.33333333333331</ele><time>2026-04-04T14:27:35.086Z</time></trkpt><trkpt lat="43.1324165" lon="11.5540424"><ele>250.0</ele><time>2026-04-04T14:27:36.085Z</time></trkpt><trkpt lat="43.1323368" lon="11.5540539"><ele>252.66666666666666</ele><time>2026-04-04T14:27:37.085Z</time></trkpt><trkpt lat="43.1322585" lon="11.5540921"><ele>255.33333333333331</ele><time>2026-04-04T14:27:38.085Z</time></trkpt><trkpt lat="43.1321818" lon="11.5541503"><ele>258.0</ele><time>2026-04-04T14:27:39.085Z</time></trkpt><trkpt lat="43.1321153" lon="11.5542279"><ele>260.6666666666667</ele><time>2026-04-04T14:27:40.084Z</time></trkpt><trkpt lat="43.1320546" lon="11.5543237"><ele>263.33333333333337</ele><time>2026-04-04T14:27:41.085Z</time></trkpt><trkpt lat="43.1319841" lon="11.5543971"><ele>266.0</ele><time>2026-04-04T14:27:42.084Z</time></trkpt><trkpt lat="43.1319205" lon="11.5544849"><ele>265.33333333333337</ele><time>2026-04-04T14:27:43.084Z</time></trkpt><trkpt lat="43.1318589" lon="11.5545706"><ele>264.6666666666667</ele><time>2026-04-04T14:27:44.084Z</time></trkpt><trkpt lat="43.1317933" lon="11.5546681"><ele>264.0</ele><time>2026-04-04T14:27:45.084Z</time></trkpt><trkpt lat="43.131733" lon="11.5547656"><ele>263.3333333333333</ele><time>2026-04-04T14:27:46.084Z</time></trkpt><trkpt lat="43.1316718" lon="11.5548411"><ele>262.66666666666663</ele><time>2026-04-04T14:27:47.084Z</time></trkpt><trkpt lat="43.1316101" lon="11.5549222"><ele>262.0</ele><time>2026-04-04T14:27:48.084Z</time></trkpt><trkpt lat="43.1315404" lon="11.5549972"><ele>262.0</ele><time>2026-04-04T14:27:49.085Z</time></trkpt><trkpt lat="43.1314685" lon="11.555048"><ele>262.0</ele><time>2026-04-04T14:27:50.084Z</time></trkpt><trkpt lat="43.1313925" lon="11.5550927"><ele>262.0</ele><time>2026-04-04T14:27:51.086Z</time></trkpt><trkpt lat="43.1313174" lon="11.5551108"><ele>262.0</ele><time>2026-04-04T14:27:52.085Z</time></trkpt><trkpt lat="43.1312523" lon="11.5551183"><ele>262.0</ele><time>2026-04-04T14:27:53.084Z</time></trkpt><trkpt lat="43.1311736" lon="11.5551104"><ele>262.0</ele><time>2026-04-04T14:27:54.085Z</time></trkpt><trkpt lat="43.1310985" lon="11.5550795"><ele>262.0</ele><time>2026-04-04T14:27:55.084Z</time></trkpt><trkpt lat="43.1310249" lon="11.5550304"><ele>262.0</ele><time>2026-04-04T14:27:56.084Z</time></trkpt><trkpt lat="43.1309576" lon="11.554966"><ele>262.0</ele><time>2026-04-04T14:27:57.084Z</time></trkpt><trkpt lat="43.1308944" lon="11.5548891"><ele>262.0</ele><time>2026-04-04T14:27:58.084Z</time></trkpt><trkpt lat="43.1308398" lon="11.5548041"><ele>262.0</ele><time>2026-04-04T14:27:59.085Z</time></trkpt><trkpt lat="43.1307846" lon="11.5547165"><ele>262.0</ele><time>2026-04-04T14:28:00.083Z</time></trkpt><trkpt lat="43.1307395" lon="11.5546437"><ele>262.66666666666663</ele><time>2026-04-04T14:28:01.084Z</time></trkpt><trkpt lat="43.1306793" lon="11.5545782"><ele>263.3333333333333</ele><time>2026-04-04T14:28:02.086Z</time></trkpt><trkpt lat="43.1306139" lon="11.5545139"><ele>264.0</ele><time>2026-04-04T14:28:03.083Z</time></trkpt><trkpt lat="43.1305465" lon="11.5544516"><ele>264.6666666666667</ele><time>2026-04-04T14:28:04.085Z</time></trkpt><trkpt lat="43.1304691" lon="11.5543974"><ele>265.33333333333337</ele><time>2026-04-04T14:28:05.086Z</time></trkpt><trkpt lat="43.1303948" lon="11.5543282"><ele>266.0</ele><time>2026-04-04T14:28:06.085Z</time></trkpt><trkpt lat="43.1303253" lon="11.5542755"><ele>266.0</ele><time>2026-04-04T14:28:07.084Z</time></trkpt><trkpt lat="43.1302545" lon="11.5541936"><ele>266.0</ele><time>2026-04-04T14:28:08.084Z</time></trkpt><trkpt lat="43.1301805" lon="11.5541053"><ele>266.0</ele><time>2026-04-04T14:28:09.084Z</time></trkpt><trkpt lat="43.1301169" lon="11.5540088"><ele>266.0</ele><time>2026-04-04T14:28:10.086Z</time></trkpt><trkpt lat="43.1300498" lon="11.5539311"><ele>266.0</ele><time>2026-04-04T14:28:11.084Z</time></trkpt><trkpt lat="43.1299628" lon="11.5538769"><ele>266.1666666666667</ele><time>2026-04-04T14:28:12.085Z</time></trkpt><trkpt lat="43.129872" lon="11.5538395"><ele>266.33333333333337</ele><time>2026-04-04T14:28:13.085Z</time></trkpt><trkpt lat="43.12978" lon="11.5538127"><ele>266.5</ele><time>2026-04-04T14:28:14.085Z</time></trkpt><trkpt lat="43.1296847" lon="11.5537944"><ele>266.6666666666667</ele><time>2026-04-04T14:28:15.084Z</time></trkpt><trkpt lat="43.1296015" lon="11.5537804"><ele>266.8333333333333</ele><time>2026-04-04T14:28:16.084Z</time></trkpt><trkpt lat="43.1295326" lon="11.5537637"><ele>267.0</ele><time>2026-04-04T14:28:17.085Z</time></trkpt><trkpt lat="43.1294411" lon="11.5536989"><ele>269.2</ele><time>2026-04-04T14:28:19.085Z</time></trkpt><trkpt lat="43.1293757" lon="11.5535994"><ele>271.4</ele><time>2026-04-04T14:28:21.083Z</time></trkpt><trkpt lat="43.1293562" lon="11.5534583"><ele>273.6</ele><time>2026-04-04T14:28:23.084Z</time></trkpt><trkpt lat="43.1293906" lon="11.5533052"><ele>275.8</ele><time>2026-04-04T14:28:25.084Z</time></trkpt><trkpt lat="43.1294309" lon="11.5532253"><ele>278.0</ele><time>2026-04-04T14:28:26.086Z</time></trkpt><trkpt lat="43.1294856" lon="11.5531619"><ele>278.0</ele><time>2026-04-04T14:28:27.083Z</time></trkpt><trkpt lat="43.1295466" lon="11.5531262"><ele>278.0</ele><time>2026-04-04T14:28:28.083Z</time></trkpt><trkpt lat="43.1296194" lon="11.5531081"><ele>278.0</ele><time>2026-04-04T14:28:29.084Z</time></trkpt><trkpt lat="43.1296884" lon="11.5531101"><ele>278.0</ele><time>2026-04-04T14:28:30.084Z</time></trkpt><trkpt lat="43.1297646" lon="11.5531232"><ele>278.0</ele><time>2026-04-04T14:28:31.083Z</time></trkpt><trkpt lat="43.1298526" lon="11.5531408"><ele>278.0</ele><time>2026-04-04T14:28:32.085Z</time></trkpt><trkpt lat="43.1299428" lon="11.5531708"><ele>278.0</ele><time>2026-04-04T14:28:33.085Z</time></trkpt><trkpt lat="43.1300393" lon="11.5532033"><ele>278.0</ele><time>2026-04-04T14:28:34.084Z</time></trkpt><trkpt lat="43.1301408" lon="11.5532317"><ele>278.0</ele><time>2026-04-04T14:28:35.083Z</time></trkpt><trkpt lat="43.1302472" lon="11.553272"><ele>278.0</ele><time>2026-04-04T14:28:36.084Z</time></trkpt><trkpt lat="43.1303517" lon="11.5533208"><ele>278.0</ele><time>2026-04-04T14:28:37.085Z</time></trkpt><trkpt lat="43.1304461" lon="11.5533613"><ele>278.0</ele><time>2026-04-04T14:28:38.084Z</time></trkpt><trkpt lat="43.1305216" lon="11.5533892"><ele>278.0</ele><time>2026-04-04T14:28:39.085Z</time></trkpt><trkpt lat="43.1305978" lon="11.5534002"><ele>278.0</ele><time>2026-04-04T14:28:40.084Z</time></trkpt><trkpt lat="43.1306707" lon="11.5534142"><ele>278.0</ele><time>2026-04-04T14:28:41.084Z</time></trkpt><trkpt lat="43.1307405" lon="11.553419"><ele>278.0</ele><time>2026-04-04T14:28:42.084Z</time></trkpt><trkpt lat="43.1308099" lon="11.5533958"><ele>278.0</ele><time>2026-04-04T14:28:43.085Z</time></trkpt><trkpt lat="43.1308792" lon="11.5533589"><ele>278.0</ele><time>2026-04-04T14:28:44.084Z</time></trkpt><trkpt lat="43.1309507" lon="11.5533165"><ele>278.83333333333337</ele><time>2026-04-04T14:28:45.084Z</time></trkpt><trkpt lat="43.1310104" lon="11.553257"><ele>279.6666666666667</ele><time>2026-04-04T14:28:46.084Z</time></trkpt><trkpt lat="43.1310689" lon="11.5531721"><ele>280.5</ele><time>2026-04-04T14:28:47.084Z</time></trkpt><trkpt lat="43.1311093" lon="11.5530845"><ele>281.3333333333333</ele><time>2026-04-04T14:28:48.085Z</time></trkpt><trkpt lat="43.1311605" lon="11.5529984"><ele>282.16666666666663</ele><time>2026-04-04T14:28:49.084Z</time></trkpt><trkpt lat="43.1311751" lon="11.552897"><ele>283.0</ele><time>2026-04-04T14:28:50.083Z</time></trkpt><trkpt lat="43.1311805" lon="11.5527865"><ele>284.5</ele><time>2026-04-04T14:28:51.084Z</time></trkpt><trkpt lat="43.1311792" lon="11.5526767"><ele>286.0</ele><time>2026-04-04T14:28:52.085Z</time></trkpt><trkpt lat="43.1311639" lon="11.5525746"><ele>287.5</ele><time>2026-04-04T14:28:53.085Z</time></trkpt><trkpt lat="43.1311536" lon="11.5524677"><ele>289.0</ele><time>2026-04-04T14:28:54.085Z</time></trkpt><trkpt lat="43.1311393" lon="11.5523701"><ele>290.5</ele><time>2026-04-04T14:28:55.084Z</time></trkpt><trkpt lat="43.1311372" lon="11.5522672"><ele>292.0</ele><time>2026-04-04T14:28:56.084Z</time></trkpt><trkpt lat="43.1311282" lon="11.5521701"><ele>292.0</ele><time>2026-04-04T14:28:57.085Z</time></trkpt><trkpt lat="43.1311298" lon="11.5520734"><ele>292.0</ele><time>2026-04-04T14:28:58.085Z</time></trkpt><trkpt lat="43.1311418" lon="11.5519752"><ele>292.0</ele><time>2026-04-04T14:28:59.085Z</time></trkpt><trkpt lat="43.1311625" lon="11.5518829"><ele>292.0</ele><time>2026-04-04T14:29:00.085Z</time></trkpt><trkpt lat="43.131189" lon="11.5517935"><ele>292.0</ele><time>2026-04-04T14:29:01.084Z</time></trkpt><trkpt lat="43.131222" lon="11.5517016"><ele>292.0</ele><time>2026-04-04T14:29:02.084Z</time></trkpt><trkpt lat="43.1312659" lon="11.5515839"><ele>293.2</ele><time>2026-04-04T14:29:03.083Z</time></trkpt><trkpt lat="43.1313252" lon="11.5514718"><ele>294.4</ele><time>2026-04-04T14:29:04.083Z</time></trkpt><trkpt lat="43.1313953" lon="11.5513608"><ele>295.6</ele><time>2026-04-04T14:29:05.084Z</time></trkpt><trkpt lat="43.1314481" lon="11.5512565"><ele>296.8</ele><time>2026-04-04T14:29:06.083Z</time></trkpt><trkpt lat="43.1315077" lon="11.5511535"><ele>298.0</ele><time>2026-04-04T14:29:07.085Z</time></trkpt><trkpt lat="43.1315685" lon="11.5510429"><ele>298.0</ele><time>2026-04-04T14:29:08.084Z</time></trkpt><trkpt lat="43.1316279" lon="11.5509274"><ele>298.0</ele><time>2026-04-04T14:29:09.084Z</time></trkpt><trkpt lat="43.1316962" lon="11.5508042"><ele>298.0</ele><time>2026-04-04T14:29:10.085Z</time></trkpt><trkpt lat="43.1317555" lon="11.5506937"><ele>298.0</ele><time>2026-04-04T14:29:11.084Z</time></trkpt><trkpt lat="43.1318231" lon="11.550567"><ele>298.0</ele><time>2026-04-04T14:29:12.083Z</time></trkpt><trkpt lat="43.1318842" lon="11.5504516"><ele>299.8</ele><time>2026-04-04T14:29:13.084Z</time></trkpt><trkpt lat="43.1319467" lon="11.5503216"><ele>301.6</ele><time>2026-04-04T14:29:14.085Z</time></trkpt><trkpt lat="43.1320076" lon="11.5502073"><ele>303.4</ele><time>2026-04-04T14:29:15.083Z</time></trkpt><trkpt lat="43.1320696" lon="11.5500986"><ele>305.2</ele><time>2026-04-04T14:29:16.083Z</time></trkpt><trkpt lat="43.1321288" lon="11.5499913"><ele>307.0</ele><time>2026-04-04T14:29:17.085Z</time></trkpt><trkpt lat="43.132184" lon="11.549879"><ele>307.0</ele><time>2026-04-04T14:29:18.084Z</time></trkpt><trkpt lat="43.1322388" lon="11.5497704"><ele>307.0</ele><time>2026-04-04T14:29:19.085Z</time></trkpt><trkpt lat="43.1322905" lon="11.5496599"><ele>307.0</ele><time>2026-04-04T14:29:20.084Z</time></trkpt><trkpt lat="43.1323355" lon="11.5495736"><ele>307.0</ele><time>2026-04-04T14:29:21.084Z</time></trkpt><trkpt lat="43.1323857" lon="11.5494852"><ele>307.0</ele><time>2026-04-04T14:29:22.085Z</time></trkpt><trkpt lat="43.1324326" lon="11.5493944"><ele>307.0</ele><time>2026-04-04T14:29:23.085Z</time></trkpt><trkpt lat="43.1324785" lon="11.5493282"><ele>307.3333333333333</ele><time>2026-04-04T14:29:24.084Z</time></trkpt><trkpt lat="43.1325686" lon="11.5492375"><ele>307.66666666666663</ele><time>2026-04-04T14:29:26.085Z</time></trkpt><trkpt lat="43.1326291" lon="11.549197"><ele>308.0</ele><time>2026-04-04T14:29:27.084Z</time></trkpt><trkpt lat="43.1327002" lon="11.5491357"><ele>308.3333333333333</ele><time>2026-04-04T14:29:28.084Z</time></trkpt><trkpt lat="43.1327802" lon="11.5490775"><ele>308.6666666666667</ele><time>2026-04-04T14:29:29.083Z</time></trkpt><trkpt lat="43.1328583" lon="11.5490156"><ele>309.0</ele><time>2026-04-04T14:29:30.085Z</time></trkpt><trkpt lat="43.1329404" lon="11.5489628"><ele>309.0</ele><time>2026-04-04T14:29:31.085Z</time></trkpt><trkpt lat="43.1330211" lon="11.5489178"><ele>309.0</ele><time>2026-04-04T14:29:32.083Z</time></trkpt><trkpt lat="43.1331083" lon="11.5488651"><ele>309.0</ele><time>2026-04-04T14:29:33.083Z</time></trkpt><trkpt lat="43.1331849" lon="11.5487981"><ele>309.0</ele><time>2026-04-04T14:29:34.084Z</time></trkpt><trkpt lat="43.133247" lon="11.5487292"><ele>309.0</ele><time>2026-04-04T14:29:35.083Z</time></trkpt><trkpt lat="43.1333101" lon="11.5486687"><ele>309.0</ele><time>2026-04-04T14:29:36.084Z</time></trkpt><trkpt lat="43.1333691" lon="11.5485791"><ele>309.3333333333333</ele><time>2026-04-04T14:29:37.084Z</time></trkpt><trkpt lat="43.13342" lon="11.5484754"><ele>309.6666666666667</ele><time>2026-04-04T14:29:38.084Z</time></trkpt><trkpt lat="43.1334681" lon="11.5483536"><ele>310.0</ele><time>2026-04-04T14:29:39.084Z</time></trkpt><trkpt lat="43.1334963" lon="11.5482447"><ele>310.33333333333337</ele><time>2026-04-04T14:29:40.083Z</time></trkpt><trkpt lat="43.1335158" lon="11.5481291"><ele>310.6666666666667</ele><time>2026-04-04T14:29:41.084Z</time></trkpt><trkpt lat="43.1335161" lon="11.5480173"><ele>311.0</ele><time>2026-04-04T14:29:42.083Z</time></trkpt><trkpt lat="43.1335029" lon="11.547899"><ele>311.0</ele><time>2026-04-04T14:29:43.084Z</time></trkpt><trkpt lat="43.1334811" lon="11.5477723"><ele>311.0</ele><time>2026-04-04T14:29:44.084Z</time></trkpt><trkpt lat="43.133443" lon="11.5476556"><ele>311.0</ele><time>2026-04-04T14:29:45.084Z</time></trkpt><trkpt lat="43.1334082" lon="11.5475255"><ele>311.0</ele><time>2026-04-04T14:29:46.083Z</time></trkpt><trkpt lat="43.1333685" lon="11.5473431"><ele>311.0</ele><time>2026-04-04T14:29:47.085Z</time></trkpt><trkpt lat="43.1333171" lon="11.5471606"><ele>310.6666666666667</ele><time>2026-04-04T14:29:48.083Z</time></trkpt><trkpt lat="43.1332603" lon="11.5469396"><ele>310.3333333333333</ele><time>2026-04-04T14:29:49.084Z</time></trkpt><trkpt lat="43.1331974" lon="11.5467006"><ele>310.0</ele><time>2026-04-04T14:29:50.084Z</time></trkpt><trkpt lat="43.1331436" lon="11.5464614"><ele>305.0</ele><time>2026-04-04T14:29:51.083Z</time></trkpt><trkpt lat="43.1330949" lon="11.5462454"><ele>300.0</ele><time>2026-04-04T14:29:52.084Z</time></trkpt><trkpt lat="43.1330401" lon="11.5460512"><ele>295.0</ele><time>2026-04-04T14:29:53.083Z</time></trkpt><trkpt lat="43.1329963" lon="11.5458776"><ele>295.0</ele><time>2026-04-04T14:29:54.084Z</time></trkpt><trkpt lat="43.1329582" lon="11.5457159"><ele>295.0</ele><time>2026-04-04T14:29:55.084Z</time></trkpt><trkpt lat="43.1329202" lon="11.5455676"><ele>295.0</ele><time>2026-04-04T14:29:56.083Z</time></trkpt><trkpt lat="43.1328904" lon="11.5454264"><ele>295.0</ele><time>2026-04-04T14:29:57.085Z</time></trkpt><trkpt lat="43.1328624" lon="11.5452866"><ele>295.6</ele><time>2026-04-04T14:29:58.084Z</time></trkpt><trkpt lat="43.1328278" lon="11.5451515"><ele>296.2</ele><time>2026-04-04T14:29:59.085Z</time></trkpt><trkpt lat="43.1328025" lon="11.5450159"><ele>296.8</ele><time>2026-04-04T14:30:00.084Z</time></trkpt><trkpt lat="43.1327717" lon="11.5448917"><ele>297.4</ele><time>2026-04-04T14:30:01.085Z</time></trkpt><trkpt lat="43.1327502" lon="11.5447657"><ele>298.0</ele><time>2026-04-04T14:30:02.084Z</time></trkpt><trkpt lat="43.1327231" lon="11.5446382"><ele>298.8</ele><time>2026-04-04T14:30:03.084Z</time></trkpt><trkpt lat="43.132692" lon="11.5445144"><ele>299.6</ele><time>2026-04-04T14:30:04.084Z</time></trkpt><trkpt lat="43.1326657" lon="11.5443764"><ele>300.4</ele><time>2026-04-04T14:30:05.084Z</time></trkpt><trkpt lat="43.1326285" lon="11.5442529"><ele>301.2</ele><time>2026-04-04T14:30:06.084Z</time></trkpt><trkpt lat="43.1326037" lon="11.5441456"><ele>302.0</ele><time>2026-04-04T14:30:07.084Z</time></trkpt><trkpt lat="43.1325698" lon="11.544027"><ele>302.0</ele><time>2026-04-04T14:30:08.083Z</time></trkpt><trkpt lat="43.1325322" lon="11.5439143"><ele>302.0</ele><time>2026-04-04T14:30:09.084Z</time></trkpt><trkpt lat="43.1324959" lon="11.5438003"><ele>302.0</ele><time>2026-04-04T14:30:10.084Z</time></trkpt><trkpt lat="43.1324612" lon="11.5436739"><ele>302.0</ele><time>2026-04-04T14:30:11.084Z</time></trkpt><trkpt lat="43.1324121" lon="11.5435506"><ele>302.0</ele><time>2026-04-04T14:30:12.084Z</time></trkpt><trkpt lat="43.1323609" lon="11.5434258"><ele>302.0</ele><time>2026-04-04T14:30:13.082Z</time></trkpt><trkpt lat="43.1323185" lon="11.5432993"><ele>302.0</ele><time>2026-04-04T14:30:14.083Z</time></trkpt><trkpt lat="43.1322734" lon="11.5431817"><ele>302.0</ele><time>2026-04-04T14:30:15.083Z</time></trkpt><trkpt lat="43.1322229" lon="11.5430658"><ele>302.0</ele><time>2026-04-04T14:30:16.084Z</time></trkpt><trkpt lat="43.1321761" lon="11.542945"><ele>302.0</ele><time>2026-04-04T14:30:17.084Z</time></trkpt><trkpt lat="43.1321318" lon="11.542833"><ele>302.33333333333337</ele><time>2026-04-04T14:30:18.084Z</time></trkpt><trkpt lat="43.1320889" lon="11.5427076"><ele>302.6666666666667</ele><time>2026-04-04T14:30:19.083Z</time></trkpt><trkpt lat="43.1320396" lon="11.5425978"><ele>303.0</ele><time>2026-04-04T14:30:20.083Z</time></trkpt><trkpt lat="43.1320002" lon="11.5424962"><ele>303.3333333333333</ele><time>2026-04-04T14:30:21.083Z</time></trkpt><trkpt lat="43.1319564" lon="11.5424004"><ele>303.66666666666663</ele><time>2026-04-04T14:30:22.084Z</time></trkpt><trkpt lat="43.1319157" lon="11.5423107"><ele>304.0</ele><time>2026-04-04T14:30:23.084Z</time></trkpt><trkpt lat="43.1318857" lon="11.5422201"><ele>304.2</ele><time>2026-04-04T14:30:24.083Z</time></trkpt><trkpt lat="43.1318612" lon="11.5420306"><ele>304.4</ele><time>2026-04-04T14:30:26.084Z</time></trkpt><trkpt lat="43.1318564" lon="11.5419099"><ele>304.6</ele><time>2026-04-04T14:30:27.084Z</time></trkpt><trkpt lat="43.1318732" lon="11.5417739"><ele>304.8</ele><time>2026-04-04T14:30:28.085Z</time></trkpt><trkpt lat="43.1318953" lon="11.5416427"><ele>305.0</ele><time>2026-04-04T14:30:29.084Z</time></trkpt><trkpt lat="43.1319217" lon="11.5414906"><ele>305.0</ele><time>2026-04-04T14:30:30.083Z</time></trkpt><trkpt lat="43.1319464" lon="11.541354"><ele>305.0</ele><time>2026-04-04T14:30:31.083Z</time></trkpt><trkpt lat="43.1319612" lon="11.5412147"><ele>305.0</ele><time>2026-04-04T14:30:32.082Z</time></trkpt><trkpt lat="43.1319717" lon="11.5410711"><ele>305.0</ele><time>2026-04-04T14:30:33.082Z</time></trkpt><trkpt lat="43.1319838" lon="11.5409311"><ele>305.0</ele><time>2026-04-04T14:30:34.083Z</time></trkpt><trkpt lat="43.1319977" lon="11.5407835"><ele>305.2</ele><time>2026-04-04T14:30:35.084Z</time></trkpt><trkpt lat="43.1320199" lon="11.5406398"><ele>305.4</ele><time>2026-04-04T14:30:36.083Z</time></trkpt><trkpt lat="43.1320472" lon="11.5404964"><ele>305.6</ele><time>2026-04-04T14:30:37.084Z</time></trkpt><trkpt lat="43.1320812" lon="11.5403503"><ele>305.8</ele><time>2026-04-04T14:30:38.085Z</time></trkpt><trkpt lat="43.1321112" lon="11.5402393"><ele>306.0</ele><time>2026-04-04T14:30:39.083Z</time></trkpt><trkpt lat="43.1321437" lon="11.5401103"><ele>306.0</ele><time>2026-04-04T14:30:40.084Z</time></trkpt><trkpt lat="43.1321745" lon="11.5399857"><ele>306.0</ele><time>2026-04-04T14:30:41.084Z</time></trkpt><trkpt lat="43.1321995" lon="11.5398445"><ele>306.0</ele><time>2026-04-04T14:30:42.083Z</time></trkpt><trkpt lat="43.1322073" lon="11.5397028"><ele>306.0</ele><time>2026-04-04T14:30:43.084Z</time></trkpt><trkpt lat="43.1322045" lon="11.5395569"><ele>306.0</ele><time>2026-04-04T14:30:44.083Z</time></trkpt><trkpt lat="43.1322023" lon="11.5394088"><ele>305.0</ele><time>2026-04-04T14:30:45.082Z</time></trkpt><trkpt lat="43.1321985" lon="11.5392643"><ele>304.0</ele><time>2026-04-04T14:30:46.084Z</time></trkpt><trkpt lat="43.1321926" lon="11.5391294"><ele>303.0</ele><time>2026-04-04T14:30:47.084Z</time></trkpt><trkpt lat="43.1322025" lon="11.5389921"><ele>302.0</ele><time>2026-04-04T14:30:48.084Z</time></trkpt><trkpt lat="43.1322151" lon="11.5388632"><ele>301.0</ele><time>2026-04-04T14:30:49.084Z</time></trkpt><trkpt lat="43.132233" lon="11.5387246"><ele>299.40000000000003</ele><time>2026-04-04T14:30:50.083Z</time></trkpt><trkpt lat="43.1322513" lon="11.5385859"><ele>297.8</ele><time>2026-04-04T14:30:51.083Z</time></trkpt><trkpt lat="43.1322693" lon="11.5384453"><ele>296.20000000000005</ele><time>2026-04-04T14:30:52.084Z</time></trkpt><trkpt lat="43.1322956" lon="11.5383076"><ele>294.6</ele><time>2026-04-04T14:30:53.084Z</time></trkpt><trkpt lat="43.1323296" lon="11.5381713"><ele>293.0</ele><time>2026-04-04T14:30:54.084Z</time></trkpt><trkpt lat="43.1323598" lon="11.5380435"><ele>291.4</ele><time>2026-04-04T14:30:55.083Z</time></trkpt><trkpt lat="43.1323964" lon="11.5379195"><ele>289.8</ele><time>2026-04-04T14:30:56.082Z</time></trkpt><trkpt lat="43.1324373" lon="11.5377989"><ele>288.2</ele><time>2026-04-04T14:30:57.084Z</time></trkpt><trkpt lat="43.1324725" lon="11.5376829"><ele>286.6</ele><time>2026-04-04T14:30:58.083Z</time></trkpt><trkpt lat="43.1325115" lon="11.5375615"><ele>285.0</ele><time>2026-04-04T14:30:59.084Z</time></trkpt><trkpt lat="43.1325504" lon="11.5374604"><ele>284.6</ele><time>2026-04-04T14:31:00.084Z</time></trkpt><trkpt lat="43.1325949" lon="11.5373446"><ele>284.2</ele><time>2026-04-04T14:31:01.083Z</time></trkpt><trkpt lat="43.1326426" lon="11.5372378"><ele>283.8</ele><time>2026-04-04T14:31:02.083Z</time></trkpt><trkpt lat="43.1326892" lon="11.5371301"><ele>283.4</ele><time>2026-04-04T14:31:03.083Z</time></trkpt><trkpt lat="43.1327437" lon="11.5370308"><ele>283.0</ele><time>2026-04-04T14:31:04.083Z</time></trkpt><trkpt lat="43.1328042" lon="11.5369264"><ele>281.4</ele><time>2026-04-04T14:31:05.083Z</time></trkpt><trkpt lat="43.1328738" lon="11.5368358"><ele>279.8</ele><time>2026-04-04T14:31:06.085Z</time></trkpt><trkpt lat="43.1329456" lon="11.5367395"><ele>278.2</ele><time>2026-04-04T14:31:07.084Z</time></trkpt><trkpt lat="43.1330278" lon="11.5366336"><ele>276.6</ele><time>2026-04-04T14:31:08.083Z</time></trkpt><trkpt lat="43.1331081" lon="11.536535"><ele>275.0</ele><time>2026-04-04T14:31:09.085Z</time></trkpt><trkpt lat="43.1331894" lon="11.5364288"><ele>275.2</ele><time>2026-04-04T14:31:10.083Z</time></trkpt><trkpt lat="43.1332639" lon="11.5363296"><ele>275.4</ele><time>2026-04-04T14:31:11.084Z</time></trkpt><trkpt lat="43.1333375" lon="11.5362263"><ele>275.6</ele><time>2026-04-04T14:31:12.083Z</time></trkpt><trkpt lat="43.1334109" lon="11.536126"><ele>275.8</ele><time>2026-04-04T14:31:13.083Z</time></trkpt><trkpt lat="43.1334831" lon="11.5360119"><ele>276.0</ele><time>2026-04-04T14:31:14.082Z</time></trkpt><trkpt lat="43.1335592" lon="11.5358973"><ele>275.40000000000003</ele><time>2026-04-04T14:31:15.083Z</time></trkpt><trkpt lat="43.1336258" lon="11.5357669"><ele>274.8</ele><time>2026-04-04T14:31:16.083Z</time></trkpt><trkpt lat="43.1336848" lon="11.5356403"><ele>274.20000000000005</ele><time>2026-04-04T14:31:17.083Z</time></trkpt><trkpt lat="43.1337449" lon="11.5355004"><ele>273.6</ele><time>2026-04-04T14:31:18.083Z</time></trkpt><trkpt lat="43.1338014" lon="11.535381"><ele>273.0</ele><time>2026-04-04T14:31:19.083Z</time></trkpt><trkpt lat="43.133853" lon="11.5352536"><ele>272.0</ele><time>2026-04-04T14:31:20.084Z</time></trkpt><trkpt lat="43.1339121" lon="11.5351328"><ele>271.0</ele><time>2026-04-04T14:31:21.082Z</time></trkpt><trkpt lat="43.1339621" lon="11.5350072"><ele>270.0</ele><time>2026-04-04T14:31:22.082Z</time></trkpt><trkpt lat="43.1340162" lon="11.5348849"><ele>269.0</ele><time>2026-04-04T14:31:23.082Z</time></trkpt><trkpt lat="43.1340653" lon="11.5347557"><ele>268.0</ele><time>2026-04-04T14:31:24.083Z</time></trkpt><trkpt lat="43.1341182" lon="11.5346199"><ele>268.0</ele><time>2026-04-04T14:31:25.084Z</time></trkpt><trkpt lat="43.1341749" lon="11.5344818"><ele>268.0</ele><time>2026-04-04T14:31:26.084Z</time></trkpt><trkpt lat="43.134228" lon="11.5343632"><ele>268.0</ele><time>2026-04-04T14:31:27.083Z</time></trkpt><trkpt lat="43.1342783" lon="11.5342449"><ele>268.0</ele><time>2026-04-04T14:31:28.084Z</time></trkpt><trkpt lat="43.1343271" lon="11.534124"><ele>268.0</ele><time>2026-04-04T14:31:29.084Z</time></trkpt><trkpt lat="43.1343783" lon="11.5339935"><ele>268.0</ele><time>2026-04-04T14:31:30.083Z</time></trkpt><trkpt lat="43.1344309" lon="11.5338638"><ele>268.0</ele><time>2026-04-04T14:31:31.083Z</time></trkpt><trkpt lat="43.1344745" lon="11.5337333"><ele>268.0</ele><time>2026-04-04T14:31:32.083Z</time></trkpt><trkpt lat="43.1345271" lon="11.5335993"><ele>268.0</ele><time>2026-04-04T14:31:33.083Z</time></trkpt><trkpt lat="43.1345709" lon="11.5334545"><ele>268.0</ele><time>2026-04-04T14:31:34.082Z</time></trkpt><trkpt lat="43.1346142" lon="11.5333226"><ele>267.2</ele><time>2026-04-04T14:31:35.083Z</time></trkpt><trkpt lat="43.134654" lon="11.5331823"><ele>266.4</ele><time>2026-04-04T14:31:36.083Z</time></trkpt><trkpt lat="43.1346935" lon="11.533046"><ele>265.59999999999997</ele><time>2026-04-04T14:31:37.082Z</time></trkpt><trkpt lat="43.1347311" lon="11.5329122"><ele>264.8</ele><time>2026-04-04T14:31:38.084Z</time></trkpt><trkpt lat="43.1347719" lon="11.5327836"><ele>264.0</ele><time>2026-04-04T14:31:39.083Z</time></trkpt><trkpt lat="43.1348003" lon="11.5326376"><ele>263.8</ele><time>2026-04-04T14:31:40.084Z</time></trkpt><trkpt lat="43.1348338" lon="11.5325045"><ele>263.59999999999997</ele><time>2026-04-04T14:31:41.084Z</time></trkpt><trkpt lat="43.1348621" lon="11.5323682"><ele>263.4</ele><time>2026-04-04T14:31:42.084Z</time></trkpt><trkpt lat="43.134892" lon="11.5322359"><ele>263.2</ele><time>2026-04-04T14:31:43.082Z</time></trkpt><trkpt lat="43.1349223" lon="11.5320883"><ele>263.0</ele><time>2026-04-04T14:31:44.083Z</time></trkpt><trkpt lat="43.1349505" lon="11.5319526"><ele>264.6</ele><time>2026-04-04T14:31:45.082Z</time></trkpt><trkpt lat="43.1349758" lon="11.5318128"><ele>266.20000000000005</ele><time>2026-04-04T14:31:46.083Z</time></trkpt><trkpt lat="43.1349992" lon="11.5316769"><ele>267.8</ele><time>2026-04-04T14:31:47.082Z</time></trkpt><trkpt lat="43.1350189" lon="11.5315283"><ele>269.40000000000003</ele><time>2026-04-04T14:31:48.084Z</time></trkpt><trkpt lat="43.1350351" lon="11.5313792"><ele>271.0</ele><time>2026-04-04T14:31:49.083Z</time></trkpt><trkpt lat="43.1350521" lon="11.5312286"><ele>272.0</ele><time>2026-04-04T14:31:50.084Z</time></trkpt><trkpt lat="43.1350676" lon="11.5310642"><ele>273.0</ele><time>2026-04-04T14:31:51.082Z</time></trkpt><trkpt lat="43.1350817" lon="11.5309035"><ele>274.0</ele><time>2026-04-04T14:31:52.083Z</time></trkpt><trkpt lat="43.1350856" lon="11.5307565"><ele>275.0</ele><time>2026-04-04T14:31:53.084Z</time></trkpt><trkpt lat="43.1350648" lon="11.5306099"><ele>275.0</ele><time>2026-04-04T14:31:54.083Z</time></trkpt><trkpt lat="43.1350313" lon="11.5304592"><ele>275.0</ele><time>2026-04-04T14:31:55.082Z</time></trkpt><trkpt lat="43.1349856" lon="11.5303269"><ele>275.0</ele><time>2026-04-04T14:31:56.083Z</time></trkpt><trkpt lat="43.1349369" lon="11.5301877"><ele>275.0</ele><time>2026-04-04T14:31:57.083Z</time></trkpt><trkpt lat="43.1348838" lon="11.5300364"><ele>271.75</ele><time>2026-04-04T14:31:58.084Z</time></trkpt><trkpt lat="43.1348322" lon="11.5298825"><ele>268.5</ele><time>2026-04-04T14:31:59.083Z</time></trkpt><trkpt lat="43.1347795" lon="11.5297298"><ele>265.25</ele><time>2026-04-04T14:32:00.082Z</time></trkpt><trkpt lat="43.1347266" lon="11.5295767"><ele>262.0</ele><time>2026-04-04T14:32:01.082Z</time></trkpt><trkpt lat="43.1346709" lon="11.5294233"><ele>262.0</ele><time>2026-04-04T14:32:02.083Z</time></trkpt><trkpt lat="43.134624" lon="11.5292571"><ele>262.0</ele><time>2026-04-04T14:32:03.084Z</time></trkpt><trkpt lat="43.1345719" lon="11.529093"><ele>262.0</ele><time>2026-04-04T14:32:04.084Z</time></trkpt><trkpt lat="43.1345205" lon="11.5289353"><ele>262.0</ele><time>2026-04-04T14:32:05.081Z</time></trkpt><trkpt lat="43.1344763" lon="11.5287843"><ele>262.25</ele><time>2026-04-04T14:32:06.083Z</time></trkpt><trkpt lat="43.13444" lon="11.5286386"><ele>262.5</ele><time>2026-04-04T14:32:07.083Z</time></trkpt><trkpt lat="43.1344169" lon="11.5284879"><ele>262.75</ele><time>2026-04-04T14:32:08.083Z</time></trkpt><trkpt lat="43.1344093" lon="11.5283338"><ele>263.0</ele><time>2026-04-04T14:32:09.083Z</time></trkpt><trkpt lat="43.1344101" lon="11.5281766"><ele>263.0</ele><time>2026-04-04T14:32:10.083Z</time></trkpt><trkpt lat="43.1344158" lon="11.5280274"><ele>263.0</ele><time>2026-04-04T14:32:11.083Z</time></trkpt><trkpt lat="43.1344204" lon="11.5278754"><ele>263.0</ele><time>2026-04-04T14:32:12.083Z</time></trkpt><trkpt lat="43.1344314" lon="11.5277178"><ele>263.0</ele><time>2026-04-04T14:32:13.084Z</time></trkpt><trkpt lat="43.134448" lon="11.5275419"><ele>262.25</ele><time>2026-04-04T14:32:14.084Z</time></trkpt><trkpt lat="43.1344624" lon="11.5273857"><ele>261.5</ele><time>2026-04-04T14:32:15.083Z</time></trkpt><trkpt lat="43.1344715" lon="11.5272272"><ele>260.75</ele><time>2026-04-04T14:32:16.083Z</time></trkpt><trkpt lat="43.1344917" lon="11.5270549"><ele>260.0</ele><time>2026-04-04T14:32:17.084Z</time></trkpt><trkpt lat="43.1345058" lon="11.5269042"><ele>258.5</ele><time>2026-04-04T14:32:18.083Z</time></trkpt><trkpt lat="43.1345114" lon="11.5267379"><ele>257.0</ele><time>2026-04-04T14:32:19.083Z</time></trkpt><trkpt lat="43.1345193" lon="11.5265746"><ele>255.5</ele><time>2026-04-04T14:32:20.083Z</time></trkpt><trkpt lat="43.1345327" lon="11.5264037"><ele>254.0</ele><time>2026-04-04T14:32:21.082Z</time></trkpt><trkpt lat="43.1345501" lon="11.5262456"><ele>253.2</ele><time>2026-04-04T14:32:22.084Z</time></trkpt><trkpt lat="43.1345689" lon="11.5260896"><ele>252.39999999999998</ele><time>2026-04-04T14:32:23.083Z</time></trkpt><trkpt lat="43.1346039" lon="11.5259299"><ele>251.6</ele><time>2026-04-04T14:32:24.083Z</time></trkpt><trkpt lat="43.1346433" lon="11.5258017"><ele>250.8</ele><time>2026-04-04T14:32:25.083Z</time></trkpt><trkpt lat="43.1346872" lon="11.5256784"><ele>250.0</ele><time>2026-04-04T14:32:26.082Z</time></trkpt><trkpt lat="43.1347372" lon="11.5255537"><ele>250.0</ele><time>2026-04-04T14:32:27.083Z</time></trkpt><trkpt lat="43.1348008" lon="11.5254204"><ele>250.0</ele><time>2026-04-04T14:32:28.082Z</time></trkpt><trkpt lat="43.1348474" lon="11.5253014"><ele>250.0</ele><time>2026-04-04T14:32:29.082Z</time></trkpt><trkpt lat="43.1348913" lon="11.5251813"><ele>250.0</ele><time>2026-04-04T14:32:30.082Z</time></trkpt><trkpt lat="43.1349375" lon="11.5250614"><ele>250.0</ele><time>2026-04-04T14:32:31.082Z</time></trkpt><trkpt lat="43.1349707" lon="11.5249396"><ele>250.33333333333331</ele><time>2026-04-04T14:32:32.081Z</time></trkpt><trkpt lat="43.1350086" lon="11.5248192"><ele>250.66666666666666</ele><time>2026-04-04T14:32:33.082Z</time></trkpt><trkpt lat="43.1350427" lon="11.5247013"><ele>251.0</ele><time>2026-04-04T14:32:34.082Z</time></trkpt><trkpt lat="43.1350691" lon="11.5245846"><ele>251.33333333333331</ele><time>2026-04-04T14:32:35.083Z</time></trkpt><trkpt lat="43.1350888" lon="11.5244693"><ele>251.66666666666666</ele><time>2026-04-04T14:32:36.083Z</time></trkpt><trkpt lat="43.1351034" lon="11.5243608"><ele>252.0</ele><time>2026-04-04T14:32:37.084Z</time></trkpt><trkpt lat="43.1351125" lon="11.5242521"><ele>252.0</ele><time>2026-04-04T14:32:38.083Z</time></trkpt><trkpt lat="43.1351023" lon="11.5241537"><ele>252.0</ele><time>2026-04-04T14:32:39.084Z</time></trkpt><trkpt lat="43.1350982" lon="11.5240339"><ele>252.0</ele><time>2026-04-04T14:32:40.083Z</time></trkpt><trkpt lat="43.1350921" lon="11.5238922"><ele>252.0</ele><time>2026-04-04T14:32:41.082Z</time></trkpt><trkpt lat="43.1350814" lon="11.5237602"><ele>252.0</ele><time>2026-04-04T14:32:42.082Z</time></trkpt><trkpt lat="43.1350757" lon="11.5236217"><ele>250.75</ele><time>2026-04-04T14:32:43.084Z</time></trkpt><trkpt lat="43.1350677" lon="11.5234735"><ele>249.5</ele><time>2026-04-04T14:32:44.084Z</time></trkpt><trkpt lat="43.1350592" lon="11.5233175"><ele>248.25</ele><time>2026-04-04T14:32:45.082Z</time></trkpt><trkpt lat="43.1350516" lon="11.5231532"><ele>247.0</ele><time>2026-04-04T14:32:46.082Z</time></trkpt><trkpt lat="43.1350373" lon="11.5229854"><ele>245.5</ele><time>2026-04-04T14:32:47.081Z</time></trkpt><trkpt lat="43.1350268" lon="11.522818"><ele>244.0</ele><time>2026-04-04T14:32:48.082Z</time></trkpt><trkpt lat="43.1350168" lon="11.5226603"><ele>242.5</ele><time>2026-04-04T14:32:49.084Z</time></trkpt><trkpt lat="43.1350118" lon="11.5225008"><ele>241.0</ele><time>2026-04-04T14:32:50.082Z</time></trkpt><trkpt lat="43.1350114" lon="11.5223425"><ele>241.0</ele><time>2026-04-04T14:32:51.082Z</time></trkpt><trkpt lat="43.1350157" lon="11.5221879"><ele>241.00000000000003</ele><time>2026-04-04T14:32:52.083Z</time></trkpt><trkpt lat="43.1350205" lon="11.522046"><ele>241.00000000000003</ele><time>2026-04-04T14:32:53.082Z</time></trkpt><trkpt lat="43.1350349" lon="11.5218932"><ele>241.0</ele><time>2026-04-04T14:32:54.084Z</time></trkpt><trkpt lat="43.1350403" lon="11.521755"><ele>241.0</ele><time>2026-04-04T14:32:55.083Z</time></trkpt><trkpt lat="43.135043" lon="11.5216197"><ele>240.20000000000002</ele><time>2026-04-04T14:32:56.082Z</time></trkpt><trkpt lat="43.1350465" lon="11.5214943"><ele>239.40000000000003</ele><time>2026-04-04T14:32:57.083Z</time></trkpt><trkpt lat="43.1350535" lon="11.5213677"><ele>238.6</ele><time>2026-04-04T14:32:58.082Z</time></trkpt><trkpt lat="43.1350542" lon="11.5212391"><ele>237.8</ele><time>2026-04-04T14:32:59.084Z</time></trkpt><trkpt lat="43.1350667" lon="11.5210837"><ele>237.0</ele><time>2026-04-04T14:33:00.084Z</time></trkpt><trkpt lat="43.1350607" lon="11.5209314"><ele>236.75</ele><time>2026-04-04T14:33:01.084Z</time></trkpt><trkpt lat="43.1350486" lon="11.5207656"><ele>236.5</ele><time>2026-04-04T14:33:02.083Z</time></trkpt><trkpt lat="43.1350314" lon="11.5206104"><ele>236.25</ele><time>2026-04-04T14:33:03.083Z</time></trkpt><trkpt lat="43.1350075" lon="11.5204618"><ele>236.0</ele><time>2026-04-04T14:33:04.083Z</time></trkpt><trkpt lat="43.1349721" lon="11.5203163"><ele>237.20000000000002</ele><time>2026-04-04T14:33:05.084Z</time></trkpt><trkpt lat="43.1349419" lon="11.5201728"><ele>238.40000000000003</ele><time>2026-04-04T14:33:06.081Z</time></trkpt><trkpt lat="43.1349119" lon="11.520026"><ele>239.6</ele><time>2026-04-04T14:33:07.082Z</time></trkpt><trkpt lat="43.1348742" lon="11.5198833"><ele>240.8</ele><time>2026-04-04T14:33:08.083Z</time></trkpt><trkpt lat="43.1348311" lon="11.5197481"><ele>242.0</ele><time>2026-04-04T14:33:09.081Z</time></trkpt><trkpt lat="43.1347915" lon="11.5196043"><ele>239.0</ele><time>2026-04-04T14:33:10.083Z</time></trkpt><trkpt lat="43.1347525" lon="11.5194596"><ele>236.0</ele><time>2026-04-04T14:33:11.083Z</time></trkpt><trkpt lat="43.1347207" lon="11.5193084"><ele>233.0</ele><time>2026-04-04T14:33:12.081Z</time></trkpt><trkpt lat="43.1346939" lon="11.5191615"><ele>230.0</ele><time>2026-04-04T14:33:13.081Z</time></trkpt><trkpt lat="43.1346784" lon="11.5189968"><ele>230.0</ele><time>2026-04-04T14:33:14.083Z</time></trkpt><trkpt lat="43.1346644" lon="11.5188376"><ele>230.0</ele><time>2026-04-04T14:33:15.083Z</time></trkpt><trkpt lat="43.1346602" lon="11.5186784"><ele>230.0</ele><time>2026-04-04T14:33:16.082Z</time></trkpt><trkpt lat="43.1346595" lon="11.5185205"><ele>230.0</ele><time>2026-04-04T14:33:17.081Z</time></trkpt><trkpt lat="43.13466" lon="11.5183709"><ele>232.6</ele><time>2026-04-04T14:33:18.082Z</time></trkpt><trkpt lat="43.1346721" lon="11.5182163"><ele>235.2</ele><time>2026-04-04T14:33:19.083Z</time></trkpt><trkpt lat="43.134685" lon="11.5180934"><ele>237.8</ele><time>2026-04-04T14:33:20.082Z</time></trkpt><trkpt lat="43.1347109" lon="11.5179739"><ele>240.4</ele><time>2026-04-04T14:33:21.083Z</time></trkpt><trkpt lat="43.1347418" lon="11.5178639"><ele>243.0</ele><time>2026-04-04T14:33:22.081Z</time></trkpt><trkpt lat="43.1347785" lon="11.5177576"><ele>243.83333333333334</ele><time>2026-04-04T14:33:23.083Z</time></trkpt><trkpt lat="43.1348198" lon="11.5176683"><ele>244.66666666666669</ele><time>2026-04-04T14:33:24.081Z</time></trkpt><trkpt lat="43.1348748" lon="11.5175817"><ele>245.5</ele><time>2026-04-04T14:33:25.083Z</time></trkpt><trkpt lat="43.134931" lon="11.51749"><ele>246.33333333333334</ele><time>2026-04-04T14:33:26.082Z</time></trkpt><trkpt lat="43.1349951" lon="11.5173919"><ele>247.16666666666669</ele><time>2026-04-04T14:33:27.084Z</time></trkpt><trkpt lat="43.1350585" lon="11.5172939"><ele>248.0</ele><time>2026-04-04T14:33:28.082Z</time></trkpt><trkpt lat="43.1351233" lon="11.517196"><ele>246.4</ele><time>2026-04-04T14:33:29.083Z</time></trkpt><trkpt lat="43.1351809" lon="11.5170854"><ele>244.8</ele><time>2026-04-04T14:33:30.081Z</time></trkpt><trkpt lat="43.1352395" lon="11.5169728"><ele>243.2</ele><time>2026-04-04T14:33:31.081Z</time></trkpt><trkpt lat="43.1352984" lon="11.5168688"><ele>241.6</ele><time>2026-04-04T14:33:32.081Z</time></trkpt><trkpt lat="43.1353595" lon="11.516766"><ele>240.0</ele><time>2026-04-04T14:33:33.083Z</time></trkpt><trkpt lat="43.135419" lon="11.5166524"><ele>240.0</ele><time>2026-04-04T14:33:34.081Z</time></trkpt><trkpt lat="43.1354828" lon="11.5165433"><ele>240.0</ele><time>2026-04-04T14:33:35.082Z</time></trkpt><trkpt lat="43.1355415" lon="11.5164354"><ele>240.0</ele><time>2026-04-04T14:33:36.082Z</time></trkpt><trkpt lat="43.1356026" lon="11.5163332"><ele>240.0</ele><time>2026-04-04T14:33:37.082Z</time></trkpt><trkpt lat="43.1356545" lon="11.516228"><ele>240.0</ele><time>2026-04-04T14:33:38.084Z</time></trkpt><trkpt lat="43.1357151" lon="11.5161303"><ele>238.16666666666666</ele><time>2026-04-04T14:33:39.083Z</time></trkpt><trkpt lat="43.1357797" lon="11.5160345"><ele>236.33333333333331</ele><time>2026-04-04T14:33:40.082Z</time></trkpt><trkpt lat="43.1358525" lon="11.5159527"><ele>234.5</ele><time>2026-04-04T14:33:41.082Z</time></trkpt><trkpt lat="43.1359189" lon="11.5158756"><ele>232.66666666666666</ele><time>2026-04-04T14:33:42.082Z</time></trkpt><trkpt lat="43.1359836" lon="11.5158215"><ele>230.83333333333331</ele><time>2026-04-04T14:33:43.081Z</time></trkpt><trkpt lat="43.1360452" lon="11.5157797"><ele>229.0</ele><time>2026-04-04T14:33:44.082Z</time></trkpt><trkpt lat="43.1361218" lon="11.515717"><ele>228.99999999999997</ele><time>2026-04-04T14:33:45.082Z</time></trkpt><trkpt lat="43.1361755" lon="11.5156392"><ele>229.0</ele><time>2026-04-04T14:33:46.082Z</time></trkpt><trkpt lat="43.1362415" lon="11.5155459"><ele>229.0</ele><time>2026-04-04T14:33:47.083Z</time></trkpt><trkpt lat="43.1362798" lon="11.5154465"><ele>229.0</ele><time>2026-04-04T14:33:48.082Z</time></trkpt><trkpt lat="43.1363095" lon="11.515353"><ele>228.99999999999997</ele><time>2026-04-04T14:33:49.084Z</time></trkpt><trkpt lat="43.1363288" lon="11.5152547"><ele>229.0</ele><time>2026-04-04T14:33:50.081Z</time></trkpt><trkpt lat="43.1363488" lon="11.5151449"><ele>228.99999999999997</ele><time>2026-04-04T14:33:51.081Z</time></trkpt><trkpt lat="43.1363588" lon="11.5150399"><ele>229.0</ele><time>2026-04-04T14:33:52.082Z</time></trkpt><trkpt lat="43.1363547" lon="11.5149182"><ele>229.0</ele><time>2026-04-04T14:33:53.083Z</time></trkpt><trkpt lat="43.136351" lon="11.5148082"><ele>229.0</ele><time>2026-04-04T14:33:54.083Z</time></trkpt><trkpt lat="43.1363389" lon="11.5146824"><ele>228.99999999999997</ele><time>2026-04-04T14:33:55.081Z</time></trkpt><trkpt lat="43.1363147" lon="11.5145714"><ele>229.0</ele><time>2026-04-04T14:33:56.082Z</time></trkpt><trkpt lat="43.1362831" lon="11.5144588"><ele>228.99999999999997</ele><time>2026-04-04T14:33:57.082Z</time></trkpt><trkpt lat="43.1362439" lon="11.514348"><ele>229.0</ele><time>2026-04-04T14:33:58.081Z</time></trkpt><trkpt lat="43.136196" lon="11.5142384"><ele>229.0</ele><time>2026-04-04T14:33:59.083Z</time></trkpt><trkpt lat="43.1361441" lon="11.5141451"><ele>229.0</ele><time>2026-04-04T14:34:00.084Z</time></trkpt><trkpt lat="43.1360949" lon="11.5140633"><ele>228.99999999999997</ele><time>2026-04-04T14:34:01.082Z</time></trkpt><trkpt lat="43.1360631" lon="11.5139788"><ele>229.0</ele><time>2026-04-04T14:34:02.082Z</time></trkpt><trkpt lat="43.1360217" lon="11.513912"><ele>228.99999999999997</ele><time>2026-04-04T14:34:03.081Z</time></trkpt><trkpt lat="43.1359404" lon="11.5137831"><ele>229.0</ele><time>2026-04-04T14:34:05.081Z</time></trkpt><trkpt lat="43.1359017" lon="11.5137081"><ele>229.0</ele><time>2026-04-04T14:34:06.083Z</time></trkpt><trkpt lat="43.1358637" lon="11.5136176"><ele>229.0</ele><time>2026-04-04T14:34:07.083Z</time></trkpt><trkpt lat="43.1358252" lon="11.5135313"><ele>228.99999999999997</ele><time>2026-04-04T14:34:08.082Z</time></trkpt><trkpt lat="43.1357795" lon="11.5134359"><ele>229.0</ele><time>2026-04-04T14:34:09.082Z</time></trkpt><trkpt lat="43.1357375" lon="11.5133319"><ele>228.66666666666666</ele><time>2026-04-04T14:34:10.083Z</time></trkpt><trkpt lat="43.1356962" lon="11.5132297"><ele>228.33333333333331</ele><time>2026-04-04T14:34:11.082Z</time></trkpt><trkpt lat="43.1356517" lon="11.5131273"><ele>228.0</ele><time>2026-04-04T14:34:12.082Z</time></trkpt><trkpt lat="43.1356047" lon="11.5130172"><ele>227.66666666666669</ele><time>2026-04-04T14:34:13.083Z</time></trkpt><trkpt lat="43.1355702" lon="11.512902"><ele>227.33333333333334</ele><time>2026-04-04T14:34:14.081Z</time></trkpt><trkpt lat="43.1355371" lon="11.5127832"><ele>227.0</ele><time>2026-04-04T14:34:15.082Z</time></trkpt><trkpt lat="43.1354919" lon="11.5126657"><ele>227.00000000000003</ele><time>2026-04-04T14:34:16.082Z</time></trkpt><trkpt lat="43.1354581" lon="11.5125499"><ele>227.0</ele><time>2026-04-04T14:34:17.081Z</time></trkpt><trkpt lat="43.1354214" lon="11.5124447"><ele>227.0</ele><time>2026-04-04T14:34:18.082Z</time></trkpt><trkpt lat="43.1353882" lon="11.5123439"><ele>227.0</ele><time>2026-04-04T14:34:19.083Z</time></trkpt><trkpt lat="43.1353396" lon="11.512244"><ele>227.00000000000003</ele><time>2026-04-04T14:34:20.082Z</time></trkpt><trkpt lat="43.1352924" lon="11.5121621"><ele>227.0</ele><time>2026-04-04T14:34:21.082Z</time></trkpt><trkpt lat="43.1352372" lon="11.5120738"><ele>228.66666666666669</ele><time>2026-04-04T14:34:22.082Z</time></trkpt><trkpt lat="43.135188" lon="11.5119859"><ele>230.33333333333334</ele><time>2026-04-04T14:34:23.083Z</time></trkpt><trkpt lat="43.1351405" lon="11.5118807"><ele>232.0</ele><time>2026-04-04T14:34:24.081Z</time></trkpt><trkpt lat="43.1350825" lon="11.511785"><ele>233.66666666666669</ele><time>2026-04-04T14:34:25.082Z</time></trkpt><trkpt lat="43.1350277" lon="11.5116825"><ele>235.33333333333334</ele><time>2026-04-04T14:34:26.083Z</time></trkpt><trkpt lat="43.1349773" lon="11.5115963"><ele>237.0</ele><time>2026-04-04T14:34:27.082Z</time></trkpt><trkpt lat="43.1349235" lon="11.511492"><ele>237.39999999999998</ele><time>2026-04-04T14:34:28.082Z</time></trkpt><trkpt lat="43.1348689" lon="11.511382"><ele>237.79999999999998</ele><time>2026-04-04T14:34:29.082Z</time></trkpt><trkpt lat="43.1348185" lon="11.5112713"><ele>238.2</ele><time>2026-04-04T14:34:30.081Z</time></trkpt><trkpt lat="43.1347725" lon="11.5111615"><ele>238.6</ele><time>2026-04-04T14:34:31.082Z</time></trkpt><trkpt lat="43.1347271" lon="11.5110479"><ele>239.0</ele><time>2026-04-04T14:34:32.081Z</time></trkpt><trkpt lat="43.1346768" lon="11.5109424"><ele>239.0</ele><time>2026-04-04T14:34:33.082Z</time></trkpt><trkpt lat="43.1346268" lon="11.5108334"><ele>238.99999999999997</ele><time>2026-04-04T14:34:34.081Z</time></trkpt><trkpt lat="43.1345712" lon="11.5107194"><ele>238.99999999999997</ele><time>2026-04-04T14:34:35.083Z</time></trkpt><trkpt lat="43.1345147" lon="11.5106003"><ele>239.0</ele><time>2026-04-04T14:34:36.081Z</time></trkpt><trkpt lat="43.1344598" lon="11.5104966"><ele>239.0</ele><time>2026-04-04T14:34:37.083Z</time></trkpt><trkpt lat="43.1344092" lon="11.5103906"><ele>237.79999999999998</ele><time>2026-04-04T14:34:38.082Z</time></trkpt><trkpt lat="43.1343559" lon="11.5102824"><ele>236.59999999999997</ele><time>2026-04-04T14:34:39.082Z</time></trkpt><trkpt lat="43.1343001" lon="11.5101739"><ele>235.4</ele><time>2026-04-04T14:34:40.082Z</time></trkpt><trkpt lat="43.1342483" lon="11.5100436"><ele>234.2</ele><time>2026-04-04T14:34:41.083Z</time></trkpt><trkpt lat="43.1341953" lon="11.5099182"><ele>233.0</ele><time>2026-04-04T14:34:42.081Z</time></trkpt><trkpt lat="43.1341372" lon="11.5097924"><ele>233.0</ele><time>2026-04-04T14:34:43.083Z</time></trkpt><trkpt lat="43.1340714" lon="11.5096594"><ele>233.0</ele><time>2026-04-04T14:34:44.081Z</time></trkpt><trkpt lat="43.1340133" lon="11.509528"><ele>233.0</ele><time>2026-04-04T14:34:45.082Z</time></trkpt><trkpt lat="43.1339495" lon="11.509394"><ele>233.0</ele><time>2026-04-04T14:34:46.082Z</time></trkpt><trkpt lat="43.1338926" lon="11.5092411"><ele>231.25</ele><time>2026-04-04T14:34:47.082Z</time></trkpt><trkpt lat="43.1338415" lon="11.5090847"><ele>229.5</ele><time>2026-04-04T14:34:48.081Z</time></trkpt><trkpt lat="43.1337928" lon="11.5089169"><ele>227.75</ele><time>2026-04-04T14:34:49.081Z</time></trkpt><trkpt lat="43.1337493" lon="11.5087602"><ele>226.0</ele><time>2026-04-04T14:34:50.081Z</time></trkpt><trkpt lat="43.1337125" lon="11.5085904"><ele>224.8</ele><time>2026-04-04T14:34:51.08Z</time></trkpt><trkpt lat="43.1336752" lon="11.5084262"><ele>223.60000000000002</ele><time>2026-04-04T14:34:52.082Z</time></trkpt><trkpt lat="43.1336538" lon="11.508291"><ele>222.4</ele><time>2026-04-04T14:34:53.081Z</time></trkpt><trkpt lat="43.1336248" lon="11.5081633"><ele>221.2</ele><time>2026-04-04T14:34:54.082Z</time></trkpt><trkpt lat="43.1336001" lon="11.5080223"><ele>220.0</ele><time>2026-04-04T14:34:55.083Z</time></trkpt><trkpt lat="43.1335951" lon="11.5078774"><ele>218.5</ele><time>2026-04-04T14:34:56.081Z</time></trkpt><trkpt lat="43.1335874" lon="11.5077181"><ele>217.0</ele><time>2026-04-04T14:34:57.082Z</time></trkpt><trkpt lat="43.1335877" lon="11.5075538"><ele>215.5</ele><time>2026-04-04T14:34:58.081Z</time></trkpt><trkpt lat="43.1335966" lon="11.5073862"><ele>214.0</ele><time>2026-04-04T14:34:59.082Z</time></trkpt><trkpt lat="43.1336115" lon="11.5072045"><ele>213.5</ele><time>2026-04-04T14:35:00.083Z</time></trkpt><trkpt lat="43.1336342" lon="11.5070279"><ele>213.0</ele><time>2026-04-04T14:35:01.081Z</time></trkpt><trkpt lat="43.1336612" lon="11.5068466"><ele>212.5</ele><time>2026-04-04T14:35:02.083Z</time></trkpt><trkpt lat="43.133683" lon="11.5066474"><ele>212.0</ele><time>2026-04-04T14:35:03.081Z</time></trkpt><trkpt lat="43.1337009" lon="11.506453"><ele>212.0</ele><time>2026-04-04T14:35:04.082Z</time></trkpt><trkpt lat="43.1337212" lon="11.5062642"><ele>212.0</ele><time>2026-04-04T14:35:05.081Z</time></trkpt><trkpt lat="43.133747" lon="11.5060726"><ele>212.0</ele><time>2026-04-04T14:35:06.082Z</time></trkpt><trkpt lat="43.1337747" lon="11.5058725"><ele>212.0</ele><time>2026-04-04T14:35:07.083Z</time></trkpt><trkpt lat="43.1337987" lon="11.505683"><ele>211.75</ele><time>2026-04-04T14:35:08.082Z</time></trkpt><trkpt lat="43.1338184" lon="11.5055079"><ele>211.5</ele><time>2026-04-04T14:35:09.083Z</time></trkpt><trkpt lat="43.1338385" lon="11.5053478"><ele>211.25</ele><time>2026-04-04T14:35:10.081Z</time></trkpt><trkpt lat="43.1338611" lon="11.505198"><ele>211.0</ele><time>2026-04-04T14:35:11.082Z</time></trkpt><trkpt lat="43.1338838" lon="11.5050202"><ele>211.0</ele><time>2026-04-04T14:35:12.081Z</time></trkpt><trkpt lat="43.133903" lon="11.5048668"><ele>211.0</ele><time>2026-04-04T14:35:13.081Z</time></trkpt><trkpt lat="43.133923" lon="11.5046939"><ele>211.0</ele><time>2026-04-04T14:35:14.083Z</time></trkpt><trkpt lat="43.1339383" lon="11.5045316"><ele>211.0</ele><time>2026-04-04T14:35:15.081Z</time></trkpt><trkpt lat="43.1339659" lon="11.5043585"><ele>211.5</ele><time>2026-04-04T14:35:16.082Z</time></trkpt><trkpt lat="43.1339935" lon="11.5041642"><ele>212.0</ele><time>2026-04-04T14:35:17.083Z</time></trkpt><trkpt lat="43.1340239" lon="11.5039868"><ele>212.5</ele><time>2026-04-04T14:35:18.082Z</time></trkpt><trkpt lat="43.1340503" lon="11.5038244"><ele>213.0</ele><time>2026-04-04T14:35:19.082Z</time></trkpt><trkpt lat="43.1340747" lon="11.5036757"><ele>212.0</ele><time>2026-04-04T14:35:20.082Z</time></trkpt><trkpt lat="43.1341032" lon="11.5035232"><ele>211.0</ele><time>2026-04-04T14:35:21.083Z</time></trkpt><trkpt lat="43.1341338" lon="11.5033575"><ele>210.0</ele><time>2026-04-04T14:35:22.082Z</time></trkpt><trkpt lat="43.1341613" lon="11.5031784"><ele>209.0</ele><time>2026-04-04T14:35:23.083Z</time></trkpt><trkpt lat="43.134202" lon="11.5029972"><ele>207.25</ele><time>2026-04-04T14:35:24.082Z</time></trkpt><trkpt lat="43.134246" lon="11.5028065"><ele>205.5</ele><time>2026-04-04T14:35:25.081Z</time></trkpt><trkpt lat="43.1342786" lon="11.5026221"><ele>203.75</ele><time>2026-04-04T14:35:26.082Z</time></trkpt><trkpt lat="43.134316" lon="11.5024277"><ele>202.0</ele><time>2026-04-04T14:35:27.082Z</time></trkpt><trkpt lat="43.1343487" lon="11.5022474"><ele>200.0</ele><time>2026-04-04T14:35:28.08Z</time></trkpt><trkpt lat="43.1343905" lon="11.5020503"><ele>198.0</ele><time>2026-04-04T14:35:29.082Z</time></trkpt><trkpt lat="43.1344285" lon="11.5018604"><ele>196.0</ele><time>2026-04-04T14:35:30.083Z</time></trkpt><trkpt lat="43.1344625" lon="11.5016752"><ele>194.0</ele><time>2026-04-04T14:35:31.083Z</time></trkpt><trkpt lat="43.1345007" lon="11.5014927"><ele>194.0</ele><time>2026-04-04T14:35:32.082Z</time></trkpt><trkpt lat="43.1345371" lon="11.5013159"><ele>194.0</ele><time>2026-04-04T14:35:33.082Z</time></trkpt><trkpt lat="43.1345715" lon="11.501135"><ele>194.0</ele><time>2026-04-04T14:35:34.082Z</time></trkpt><trkpt lat="43.1346034" lon="11.5009585"><ele>194.0</ele><time>2026-04-04T14:35:35.081Z</time></trkpt><trkpt lat="43.134636" lon="11.5007787"><ele>191.75</ele><time>2026-04-04T14:35:36.083Z</time></trkpt><trkpt lat="43.1346713" lon="11.5005957"><ele>189.5</ele><time>2026-04-04T14:35:37.082Z</time></trkpt><trkpt lat="43.1347115" lon="11.5004044"><ele>187.25</ele><time>2026-04-04T14:35:38.081Z</time></trkpt><trkpt lat="43.1347505" lon="11.5002268"><ele>185.0</ele><time>2026-04-04T14:35:39.08Z</time></trkpt><trkpt lat="43.134794" lon="11.5000339"><ele>183.5</ele><time>2026-04-04T14:35:40.081Z</time></trkpt><trkpt lat="43.134839" lon="11.4998479"><ele>182.0</ele><time>2026-04-04T14:35:41.081Z</time></trkpt><trkpt lat="43.1348967" lon="11.4996538"><ele>180.5</ele><time>2026-04-04T14:35:42.082Z</time></trkpt><trkpt lat="43.1349493" lon="11.4994604"><ele>179.0</ele><time>2026-04-04T14:35:43.082Z</time></trkpt><trkpt lat="43.1350059" lon="11.4992469"><ele>175.66666666666666</ele><time>2026-04-04T14:35:44.081Z</time></trkpt><trkpt lat="43.1350712" lon="11.4990079"><ele>172.33333333333334</ele><time>2026-04-04T14:35:45.081Z</time></trkpt><trkpt lat="43.1351491" lon="11.4987447"><ele>169.0</ele><time>2026-04-04T14:35:46.083Z</time></trkpt><trkpt lat="43.1352235" lon="11.4984981"><ele>166.66666666666669</ele><time>2026-04-04T14:35:47.081Z</time></trkpt><trkpt lat="43.1353007" lon="11.4982446"><ele>164.33333333333334</ele><time>2026-04-04T14:35:48.082Z</time></trkpt><trkpt lat="43.1353706" lon="11.498016"><ele>162.0</ele><time>2026-04-04T14:35:49.083Z</time></trkpt><trkpt lat="43.1354396" lon="11.4977943"><ele>161.66666666666666</ele><time>2026-04-04T14:35:50.082Z</time></trkpt><trkpt lat="43.1355106" lon="11.4975882"><ele>161.33333333333331</ele><time>2026-04-04T14:35:51.08Z</time></trkpt><trkpt lat="43.1355898" lon="11.4973866"><ele>161.0</ele><time>2026-04-04T14:35:52.08Z</time></trkpt><trkpt lat="43.1356752" lon="11.4971936"><ele>161.33333333333331</ele><time>2026-04-04T14:35:53.082Z</time></trkpt><trkpt lat="43.1357671" lon="11.4970093"><ele>161.66666666666666</ele><time>2026-04-04T14:35:54.083Z</time></trkpt><trkpt lat="43.1358756" lon="11.4968231"><ele>162.0</ele><time>2026-04-04T14:35:55.081Z</time></trkpt><trkpt lat="43.1359824" lon="11.496651"><ele>162.0</ele><time>2026-04-04T14:35:56.083Z</time></trkpt><trkpt lat="43.1360839" lon="11.4964758"><ele>162.0</ele><time>2026-04-04T14:35:57.081Z</time></trkpt><trkpt lat="43.1361851" lon="11.4963028"><ele>162.0</ele><time>2026-04-04T14:35:58.081Z</time></trkpt><trkpt lat="43.1362987" lon="11.4961151"><ele>162.33333333333334</ele><time>2026-04-04T14:35:59.081Z</time></trkpt><trkpt lat="43.1364114" lon="11.4959245"><ele>162.66666666666669</ele><time>2026-04-04T14:36:00.083Z</time></trkpt><trkpt lat="43.1365199" lon="11.4957267"><ele>163.0</ele><time>2026-04-04T14:36:01.082Z</time></trkpt><trkpt lat="43.1366215" lon="11.495558"><ele>164.0</ele><time>2026-04-04T14:36:02.081Z</time></trkpt><trkpt lat="43.1367117" lon="11.4954007"><ele>165.0</ele><time>2026-04-04T14:36:03.083Z</time></trkpt><trkpt lat="43.1368065" lon="11.4952401"><ele>166.0</ele><time>2026-04-04T14:36:04.082Z</time></trkpt><trkpt lat="43.1368911" lon="11.4950977"><ele>167.0</ele><time>2026-04-04T14:36:05.083Z</time></trkpt><trkpt lat="43.1369736" lon="11.4949622"><ele>167.0</ele><time>2026-04-04T14:36:06.083Z</time></trkpt><trkpt lat="43.1370532" lon="11.4948327"><ele>167.0</ele><time>2026-04-04T14:36:07.082Z</time></trkpt><trkpt lat="43.1371246" lon="11.4947033"><ele>167.0</ele><time>2026-04-04T14:36:08.081Z</time></trkpt><trkpt lat="43.1371906" lon="11.4945819"><ele>167.0</ele><time>2026-04-04T14:36:09.082Z</time></trkpt><trkpt lat="43.1372631" lon="11.4944559"><ele>166.6</ele><time>2026-04-04T14:36:10.082Z</time></trkpt><trkpt lat="43.137321" lon="11.4943421"><ele>166.2</ele><time>2026-04-04T14:36:11.083Z</time></trkpt><trkpt lat="43.1373837" lon="11.4942019"><ele>165.8</ele><time>2026-04-04T14:36:12.081Z</time></trkpt><trkpt lat="43.137429" lon="11.4940711"><ele>165.4</ele><time>2026-04-04T14:36:13.081Z</time></trkpt><trkpt lat="43.1374683" lon="11.4939335"><ele>165.0</ele><time>2026-04-04T14:36:14.081Z</time></trkpt><trkpt lat="43.1375003" lon="11.4937872"><ele>165.8</ele><time>2026-04-04T14:36:15.082Z</time></trkpt><trkpt lat="43.1375113" lon="11.4936382"><ele>166.6</ele><time>2026-04-04T14:36:16.081Z</time></trkpt><trkpt lat="43.1375291" lon="11.4934863"><ele>167.39999999999998</ele><time>2026-04-04T14:36:17.082Z</time></trkpt><trkpt lat="43.1375428" lon="11.493327"><ele>168.2</ele><time>2026-04-04T14:36:18.082Z</time></trkpt><trkpt lat="43.1375549" lon="11.4931926"><ele>169.0</ele><time>2026-04-04T14:36:19.081Z</time></trkpt><trkpt lat="43.1375685" lon="11.4930489"><ele>169.39999999999998</ele><time>2026-04-04T14:36:20.082Z</time></trkpt><trkpt lat="43.1375859" lon="11.492892"><ele>169.8</ele><time>2026-04-04T14:36:21.081Z</time></trkpt><trkpt lat="43.1375993" lon="11.4927456"><ele>170.2</ele><time>2026-04-04T14:36:22.082Z</time></trkpt><trkpt lat="43.137619" lon="11.4925956"><ele>170.60000000000002</ele><time>2026-04-04T14:36:23.081Z</time></trkpt><trkpt lat="43.1376326" lon="11.4924429"><ele>171.0</ele><time>2026-04-04T14:36:24.081Z</time></trkpt><trkpt lat="43.1376511" lon="11.4923"><ele>171.0</ele><time>2026-04-04T14:36:25.082Z</time></trkpt><trkpt lat="43.1376718" lon="11.4921463"><ele>171.0</ele><time>2026-04-04T14:36:26.081Z</time></trkpt><trkpt lat="43.137691" lon="11.4920072"><ele>171.0</ele><time>2026-04-04T14:36:27.082Z</time></trkpt><trkpt lat="43.1377074" lon="11.4918754"><ele>171.0</ele><time>2026-04-04T14:36:28.082Z</time></trkpt><trkpt lat="43.1377263" lon="11.4917304"><ele>171.0</ele><time>2026-04-04T14:36:29.081Z</time></trkpt><trkpt lat="43.1377477" lon="11.491588"><ele>172.4</ele><time>2026-04-04T14:36:30.082Z</time></trkpt><trkpt lat="43.1377645" lon="11.4914437"><ele>173.8</ele><time>2026-04-04T14:36:31.082Z</time></trkpt><trkpt lat="43.1377781" lon="11.4913053"><ele>175.20000000000002</ele><time>2026-04-04T14:36:32.081Z</time></trkpt><trkpt lat="43.1377971" lon="11.4911507"><ele>176.60000000000002</ele><time>2026-04-04T14:36:33.08Z</time></trkpt><trkpt lat="43.1378104" lon="11.4910136"><ele>178.0</ele><time>2026-04-04T14:36:34.083Z</time></trkpt><trkpt lat="43.1378241" lon="11.4908641"><ele>177.8</ele><time>2026-04-04T14:36:35.081Z</time></trkpt><trkpt lat="43.1378283" lon="11.4907302"><ele>177.60000000000002</ele><time>2026-04-04T14:36:36.081Z</time></trkpt><trkpt lat="43.1378241" lon="11.4905967"><ele>177.39999999999998</ele><time>2026-04-04T14:36:37.081Z</time></trkpt><trkpt lat="43.1378123" lon="11.4904635"><ele>177.2</ele><time>2026-04-04T14:36:38.082Z</time></trkpt><trkpt lat="43.1378002" lon="11.4903316"><ele>177.0</ele><time>2026-04-04T14:36:39.082Z</time></trkpt><trkpt lat="43.1377896" lon="11.4901832"><ele>177.0</ele><time>2026-04-04T14:36:40.081Z</time></trkpt><trkpt lat="43.1377816" lon="11.4900373"><ele>177.0</ele><time>2026-04-04T14:36:41.082Z</time></trkpt><trkpt lat="43.1377701" lon="11.4898784"><ele>177.0</ele><time>2026-04-04T14:36:42.082Z</time></trkpt><trkpt lat="43.1377606" lon="11.489718"><ele>177.0</ele><time>2026-04-04T14:36:43.081Z</time></trkpt><trkpt lat="43.1377522" lon="11.4895543"><ele>174.6</ele><time>2026-04-04T14:36:44.081Z</time></trkpt><trkpt lat="43.1377457" lon="11.4894118"><ele>172.2</ele><time>2026-04-04T14:36:45.083Z</time></trkpt><trkpt lat="43.1377401" lon="11.4892616"><ele>169.8</ele><time>2026-04-04T14:36:46.081Z</time></trkpt><trkpt lat="43.1377375" lon="11.4890927"><ele>167.4</ele><time>2026-04-04T14:36:47.08Z</time></trkpt><trkpt lat="43.1377308" lon="11.4889535"><ele>165.0</ele><time>2026-04-04T14:36:48.081Z</time></trkpt><trkpt lat="43.1377257" lon="11.4888098"><ele>163.0</ele><time>2026-04-04T14:36:49.082Z</time></trkpt><trkpt lat="43.1377269" lon="11.4886745"><ele>161.0</ele><time>2026-04-04T14:36:50.081Z</time></trkpt><trkpt lat="43.1377283" lon="11.4885438"><ele>159.0</ele><time>2026-04-04T14:36:51.081Z</time></trkpt><trkpt lat="43.1377278" lon="11.4884163"><ele>157.0</ele><time>2026-04-04T14:36:52.083Z</time></trkpt><trkpt lat="43.1377243" lon="11.4882914"><ele>155.0</ele><time>2026-04-04T14:36:53.081Z</time></trkpt><trkpt lat="43.1377237" lon="11.4881695"><ele>155.0</ele><time>2026-04-04T14:36:54.08Z</time></trkpt><trkpt lat="43.1377261" lon="11.4880512"><ele>155.0</ele><time>2026-04-04T14:36:55.081Z</time></trkpt><trkpt lat="43.1377248" lon="11.4879304"><ele>155.0</ele><time>2026-04-04T14:36:56.081Z</time></trkpt><trkpt lat="43.1377267" lon="11.4878033"><ele>155.0</ele><time>2026-04-04T14:36:57.081Z</time></trkpt><trkpt lat="43.1377261" lon="11.4876872"><ele>155.0</ele><time>2026-04-04T14:36:58.08Z</time></trkpt><trkpt lat="43.1377254" lon="11.4875786"><ele>155.0</ele><time>2026-04-04T14:36:59.082Z</time></trkpt><trkpt lat="43.1377282" lon="11.4874626"><ele>154.42857142857144</ele><time>2026-04-04T14:37:00.081Z</time></trkpt><trkpt lat="43.1377313" lon="11.487369"><ele>153.85714285714286</ele><time>2026-04-04T14:37:01.08Z</time></trkpt><trkpt lat="43.1377325" lon="11.4872706"><ele>153.28571428571428</ele><time>2026-04-04T14:37:02.081Z</time></trkpt><trkpt lat="43.1377345" lon="11.487173"><ele>152.71428571428572</ele><time>2026-04-04T14:37:03.081Z</time></trkpt><trkpt lat="43.1377291" lon="11.4870743"><ele>152.14285714285714</ele><time>2026-04-04T14:37:04.081Z</time></trkpt><trkpt lat="43.1377203" lon="11.4869732"><ele>151.57142857142858</ele><time>2026-04-04T14:37:05.082Z</time></trkpt><trkpt lat="43.1377143" lon="11.4868626"><ele>151.0</ele><time>2026-04-04T14:37:06.081Z</time></trkpt><trkpt lat="43.1377141" lon="11.4867578"><ele>150.4</ele><time>2026-04-04T14:37:07.081Z</time></trkpt><trkpt lat="43.1377097" lon="11.4866061"><ele>149.8</ele><time>2026-04-04T14:37:09.082Z</time></trkpt><trkpt lat="43.1377555" lon="11.4865087"><ele>149.20000000000002</ele><time>2026-04-04T14:37:11.081Z</time></trkpt><trkpt lat="43.1378574" lon="11.4864619"><ele>148.6</ele><time>2026-04-04T14:37:13.08Z</time></trkpt><trkpt lat="43.1379773" lon="11.4864851"><ele>148.0</ele><time>2026-04-04T14:37:15.082Z</time></trkpt><trkpt lat="43.1380419" lon="11.4865008"><ele>148.0</ele><time>2026-04-04T14:37:16.08Z</time></trkpt><trkpt lat="43.1381131" lon="11.486515"><ele>148.0</ele><time>2026-04-04T14:37:17.082Z</time></trkpt><trkpt lat="43.1381794" lon="11.4865211"><ele>148.0</ele><time>2026-04-04T14:37:18.08Z</time></trkpt><trkpt lat="43.1382524" lon="11.4864713"><ele>148.0</ele><time>2026-04-04T14:37:20.081Z</time></trkpt><trkpt lat="43.1382698" lon="11.4863684"><ele>148.0</ele><time>2026-04-04T14:37:22.081Z</time></trkpt><trkpt lat="43.1382746" lon="11.4862349"><ele>148.0</ele><time>2026-04-04T14:37:23.08Z</time></trkpt><trkpt lat="43.1382697" lon="11.4861394"><ele>147.66666666666669</ele><time>2026-04-04T14:37:24.081Z</time></trkpt><trkpt lat="43.1382672" lon="11.4860506"><ele>147.33333333333334</ele><time>2026-04-04T14:37:25.082Z</time></trkpt><trkpt lat="43.1382593" lon="11.4859586"><ele>147.0</ele><time>2026-04-04T14:37:26.08Z</time></trkpt><trkpt lat="43.1382488" lon="11.48587"><ele>146.66666666666666</ele><time>2026-04-04T14:37:27.082Z</time></trkpt><trkpt lat="43.1382349" lon="11.4857554"><ele>146.33333333333331</ele><time>2026-04-04T14:37:29.08Z</time></trkpt><trkpt lat="43.1382394" lon="11.4856144"><ele>146.0</ele><time>2026-04-04T14:37:32.081Z</time></trkpt><trkpt lat="43.1382331" lon="11.4854338"><ele>146.0</ele><time>2026-04-04T14:37:34.081Z</time></trkpt><trkpt lat="43.1382261" lon="11.4853334"><ele>146.0</ele><time>2026-04-04T14:37:35.08Z</time></trkpt><trkpt lat="43.1382293" lon="11.4852349"><ele>146.0</ele><time>2026-04-04T14:37:36.082Z</time></trkpt><trkpt lat="43.1382285" lon="11.4851418"><ele>146.0</ele><time>2026-04-04T14:37:37.08Z</time></trkpt><trkpt lat="43.1382317" lon="11.485052"><ele>146.0</ele><time>2026-04-04T14:37:39.081Z</time></trkpt><trkpt lat="43.138292" lon="11.4849919"><ele>146.0</ele><time>2026-04-04T14:37:50.083Z</time></trkpt><trkpt lat="43.1384185" lon="11.4849792"><ele>146.0</ele><time>2026-04-04T14:37:52.082Z</time></trkpt><trkpt lat="43.1384879" lon="11.4849925"><ele>146.0</ele><time>2026-04-04T14:37:53.081Z</time></trkpt><trkpt lat="43.1385588" lon="11.4849987"><ele>146.0</ele><time>2026-04-04T14:37:54.082Z</time></trkpt><trkpt lat="43.1386429" lon="11.4850033"><ele>146.0</ele><time>2026-04-04T14:37:55.081Z</time></trkpt><trkpt lat="43.1387096" lon="11.484996"><ele>146.0</ele><time>2026-04-04T14:37:56.08Z</time></trkpt><trkpt lat="43.1387756" lon="11.4849965"><ele>146.0</ele><time>2026-04-04T14:37:57.08Z</time></trkpt><trkpt lat="43.1388694" lon="11.4850468"><ele>146.0</ele><time>2026-04-04T14:37:59.082Z</time></trkpt><trkpt lat="43.1388905" lon="11.4851737"><ele>146.0</ele><time>2026-04-04T14:38:01.08Z</time></trkpt><trkpt lat="43.1389179" lon="11.4852979"><ele>146.0</ele><time>2026-04-04T14:38:03.08Z</time></trkpt><trkpt lat="43.1390252" lon="11.4853223"><ele>146.0</ele><time>2026-04-04T14:38:06.08Z</time></trkpt><trkpt lat="43.1390922" lon="11.4853013"><ele>146.0</ele><time>2026-04-04T14:38:07.081Z</time></trkpt><trkpt lat="43.1392286" lon="11.485247"><ele>145.8</ele><time>2026-04-04T14:38:09.08Z</time></trkpt><trkpt lat="43.1393793" lon="11.4852165"><ele>145.6</ele><time>2026-04-04T14:38:11.081Z</time></trkpt><trkpt lat="43.1394612" lon="11.4851739"><ele>145.4</ele><time>2026-04-04T14:38:12.08Z</time></trkpt><trkpt lat="43.1395381" lon="11.4851403"><ele>145.2</ele><time>2026-04-04T14:38:13.082Z</time></trkpt><trkpt lat="43.1396055" lon="11.4851106"><ele>145.0</ele><time>2026-04-04T14:38:14.079Z</time></trkpt><trkpt lat="43.1396971" lon="11.4850887"><ele>145.0</ele><time>2026-04-04T14:38:16.081Z</time></trkpt><trkpt lat="43.1397441" lon="11.4850239"><ele>145.0</ele><time>2026-04-04T14:38:20.08Z</time></trkpt><trkpt lat="43.1397665" lon="11.4848989"><ele>145.0</ele><time>2026-04-04T14:38:22.079Z</time></trkpt><trkpt lat="43.1397395" lon="11.484817"><ele>145.0</ele><time>2026-04-04T14:38:23.081Z</time></trkpt><trkpt lat="43.1397116" lon="11.4847378"><ele>145.0</ele><time>2026-04-04T14:38:24.081Z</time></trkpt><trkpt lat="43.1396913" lon="11.4846344"><ele>145.0</ele><time>2026-04-04T14:38:25.082Z</time></trkpt><trkpt lat="43.139675" lon="11.4845211"><ele>144.83333333333334</ele><time>2026-04-04T14:38:26.081Z</time></trkpt><trkpt lat="43.1396457" lon="11.4844073"><ele>144.66666666666669</ele><time>2026-04-04T14:38:27.081Z</time></trkpt><trkpt lat="43.1396082" lon="11.4842916"><ele>144.5</ele><time>2026-04-04T14:38:28.082Z</time></trkpt><trkpt lat="43.1395744" lon="11.4841829"><ele>144.33333333333334</ele><time>2026-04-04T14:38:29.082Z</time></trkpt><trkpt lat="43.1395603" lon="11.4840803"><ele>144.16666666666666</ele><time>2026-04-04T14:38:30.081Z</time></trkpt><trkpt lat="43.1395371" lon="11.4839952"><ele>144.0</ele><time>2026-04-04T14:38:31.081Z</time></trkpt><trkpt lat="43.1395156" lon="11.4839013"><ele>144.16666666666666</ele><time>2026-04-04T14:38:32.08Z</time></trkpt><trkpt lat="43.1394662" lon="11.4837296"><ele>144.33333333333334</ele><time>2026-04-04T14:38:34.081Z</time></trkpt><trkpt lat="43.1394415" lon="11.4836381"><ele>144.5</ele><time>2026-04-04T14:38:35.082Z</time></trkpt><trkpt lat="43.1394038" lon="11.4835479"><ele>144.66666666666669</ele><time>2026-04-04T14:38:36.082Z</time></trkpt><trkpt lat="43.1393759" lon="11.4834461"><ele>144.83333333333334</ele><time>2026-04-04T14:38:37.081Z</time></trkpt><trkpt lat="43.1393496" lon="11.4833558"><ele>145.0</ele><time>2026-04-04T14:38:38.08Z</time></trkpt><trkpt lat="43.1393241" lon="11.4832565"><ele>145.0</ele><time>2026-04-04T14:38:39.081Z</time></trkpt><trkpt lat="43.1392982" lon="11.4831777"><ele>145.0</ele><time>2026-04-04T14:38:40.081Z</time></trkpt><trkpt lat="43.1392712" lon="11.4830537"><ele>145.0</ele><time>2026-04-04T14:38:42.08Z</time></trkpt><trkpt lat="43.1392872" lon="11.4829629"><ele>145.0</ele><time>2026-04-04T14:38:44.08Z</time></trkpt><trkpt lat="43.1393562" lon="11.4829054"><ele>145.0</ele><time>2026-04-04T14:38:46.081Z</time></trkpt><trkpt lat="43.1394172" lon="11.4828624"><ele>145.0</ele><time>2026-04-04T14:38:47.081Z</time></trkpt><trkpt lat="43.139482" lon="11.4828193"><ele>145.0</ele><time>2026-04-04T14:38:48.08Z</time></trkpt><trkpt lat="43.1395543" lon="11.4827583"><ele>145.4</ele><time>2026-04-04T14:38:49.081Z</time></trkpt><trkpt lat="43.1396389" lon="11.4826956"><ele>145.8</ele><time>2026-04-04T14:38:50.08Z</time></trkpt><trkpt lat="43.1397253" lon="11.4826302"><ele>146.2</ele><time>2026-04-04T14:38:51.08Z</time></trkpt><trkpt lat="43.1398152" lon="11.4825616"><ele>146.6</ele><time>2026-04-04T14:38:52.082Z</time></trkpt><trkpt lat="43.139913" lon="11.4824913"><ele>147.0</ele><time>2026-04-04T14:38:53.081Z</time></trkpt><trkpt lat="43.140012" lon="11.48242"><ele>146.0</ele><time>2026-04-04T14:38:54.082Z</time></trkpt><trkpt lat="43.1401165" lon="11.4823521"><ele>145.0</ele><time>2026-04-04T14:38:55.082Z</time></trkpt><trkpt lat="43.1402279" lon="11.4822808"><ele>144.0</ele><time>2026-04-04T14:38:56.08Z</time></trkpt><trkpt lat="43.1403421" lon="11.4822035"><ele>143.0</ele><time>2026-04-04T14:38:57.079Z</time></trkpt><trkpt lat="43.1404566" lon="11.4821236"><ele>142.75</ele><time>2026-04-04T14:38:58.081Z</time></trkpt><trkpt lat="43.1405762" lon="11.4820402"><ele>142.5</ele><time>2026-04-04T14:38:59.081Z</time></trkpt><trkpt lat="43.1406874" lon="11.4819646"><ele>142.25</ele><time>2026-04-04T14:39:00.08Z</time></trkpt><trkpt lat="43.1407964" lon="11.4818894"><ele>142.0</ele><time>2026-04-04T14:39:01.08Z</time></trkpt><trkpt lat="43.1408925" lon="11.4818226"><ele>141.79999999999998</ele><time>2026-04-04T14:39:02.082Z</time></trkpt><trkpt lat="43.1409797" lon="11.4817581"><ele>141.6</ele><time>2026-04-04T14:39:03.08Z</time></trkpt><trkpt lat="43.1410567" lon="11.4817008"><ele>141.39999999999998</ele><time>2026-04-04T14:39:04.08Z</time></trkpt><trkpt lat="43.1411403" lon="11.4816435"><ele>141.2</ele><time>2026-04-04T14:39:05.079Z</time></trkpt><trkpt lat="43.1412347" lon="11.4815872"><ele>141.0</ele><time>2026-04-04T14:39:06.081Z</time></trkpt><trkpt lat="43.1413329" lon="11.4815118"><ele>141.0</ele><time>2026-04-04T14:39:07.081Z</time></trkpt><trkpt lat="43.1414414" lon="11.4814359"><ele>141.0</ele><time>2026-04-04T14:39:08.08Z</time></trkpt><trkpt lat="43.1415713" lon="11.4813527"><ele>141.0</ele><time>2026-04-04T14:39:09.081Z</time></trkpt><trkpt lat="43.1416923" lon="11.4812446"><ele>141.0</ele><time>2026-04-04T14:39:10.08Z</time></trkpt><trkpt lat="43.1418017" lon="11.4811153"><ele>141.25</ele><time>2026-04-04T14:39:11.081Z</time></trkpt><trkpt lat="43.1419098" lon="11.4809792"><ele>141.5</ele><time>2026-04-04T14:39:12.08Z</time></trkpt><trkpt lat="43.1420219" lon="11.4808387"><ele>141.75</ele><time>2026-04-04T14:39:13.08Z</time></trkpt><trkpt lat="43.1421228" lon="11.4806955"><ele>142.0</ele><time>2026-04-04T14:39:14.081Z</time></trkpt><trkpt lat="43.1422263" lon="11.4805544"><ele>141.75</ele><time>2026-04-04T14:39:15.081Z</time></trkpt><trkpt lat="43.1423341" lon="11.4804152"><ele>141.5</ele><time>2026-04-04T14:39:16.081Z</time></trkpt><trkpt lat="43.1424393" lon="11.4802783"><ele>141.25</ele><time>2026-04-04T14:39:17.08Z</time></trkpt><trkpt lat="43.1425447" lon="11.4801475"><ele>141.0</ele><time>2026-04-04T14:39:18.081Z</time></trkpt><trkpt lat="43.1426405" lon="11.4799982"><ele>141.5</ele><time>2026-04-04T14:39:19.08Z</time></trkpt><trkpt lat="43.1427233" lon="11.4798454"><ele>142.0</ele><time>2026-04-04T14:39:20.079Z</time></trkpt><trkpt lat="43.1427822" lon="11.4796802"><ele>142.5</ele><time>2026-04-04T14:39:21.08Z</time></trkpt><trkpt lat="43.1428226" lon="11.4794931"><ele>143.0</ele><time>2026-04-04T14:39:22.079Z</time></trkpt><trkpt lat="43.1428648" lon="11.4792927"><ele>143.0</ele><time>2026-04-04T14:39:23.08Z</time></trkpt><trkpt lat="43.1428947" lon="11.4791006"><ele>143.0</ele><time>2026-04-04T14:39:24.081Z</time></trkpt><trkpt lat="43.1429243" lon="11.4789032"><ele>143.0</ele><time>2026-04-04T14:39:25.082Z</time></trkpt><trkpt lat="43.1429655" lon="11.4786972"><ele>143.0</ele><time>2026-04-04T14:39:26.08Z</time></trkpt><trkpt lat="43.1429982" lon="11.478508"><ele>143.0</ele><time>2026-04-04T14:39:27.081Z</time></trkpt><trkpt lat="43.1430306" lon="11.4783203"><ele>143.0</ele><time>2026-04-04T14:39:28.08Z</time></trkpt><trkpt lat="43.1430643" lon="11.4781442"><ele>143.0</ele><time>2026-04-04T14:39:29.082Z</time></trkpt><trkpt lat="43.1431003" lon="11.4779608"><ele>143.0</ele><time>2026-04-04T14:39:30.081Z</time></trkpt><trkpt lat="43.1431494" lon="11.4777885"><ele>143.0</ele><time>2026-04-04T14:39:31.081Z</time></trkpt><trkpt lat="43.1431941" lon="11.4776249"><ele>143.0</ele><time>2026-04-04T14:39:32.079Z</time></trkpt><trkpt lat="43.1432598" lon="11.4774634"><ele>143.0</ele><time>2026-04-04T14:39:33.08Z</time></trkpt><trkpt lat="43.1433419" lon="11.4773014"><ele>143.0</ele><time>2026-04-04T14:39:34.081Z</time></trkpt><trkpt lat="43.1434286" lon="11.4771564"><ele>143.0</ele><time>2026-04-04T14:39:35.081Z</time></trkpt><trkpt lat="43.1435209" lon="11.4770341"><ele>143.0</ele><time>2026-04-04T14:39:36.081Z</time></trkpt><trkpt lat="43.1436203" lon="11.4769187"><ele>143.0</ele><time>2026-04-04T14:39:37.081Z</time></trkpt><trkpt lat="43.1437469" lon="11.4767939"><ele>143.0</ele><time>2026-04-04T14:39:38.08Z</time></trkpt><trkpt lat="43.1438627" lon="11.4766722"><ele>143.0</ele><time>2026-04-04T14:39:39.082Z</time></trkpt><trkpt lat="43.1439745" lon="11.4765554"><ele>143.0</ele><time>2026-04-04T14:39:40.081Z</time></trkpt><trkpt lat="43.1440861" lon="11.4764418"><ele>143.0</ele><time>2026-04-04T14:39:41.081Z</time></trkpt><trkpt lat="43.1441978" lon="11.4763441"><ele>143.0</ele><time>2026-04-04T14:39:42.081Z</time></trkpt><trkpt lat="43.1443366" lon="11.4762549"><ele>142.75</ele><time>2026-04-04T14:39:43.08Z</time></trkpt><trkpt lat="43.144467" lon="11.4762213"><ele>142.5</ele><time>2026-04-04T14:39:44.079Z</time></trkpt><trkpt lat="43.1446153" lon="11.4762037"><ele>142.25</ele><time>2026-04-04T14:39:45.081Z</time></trkpt><trkpt lat="43.1447593" lon="11.4762191"><ele>142.0</ele><time>2026-04-04T14:39:46.081Z</time></trkpt><trkpt lat="43.1449101" lon="11.476253"><ele>142.0</ele><time>2026-04-04T14:39:47.081Z</time></trkpt><trkpt lat="43.1450625" lon="11.4762693"><ele>142.0</ele><time>2026-04-04T14:39:48.081Z</time></trkpt><trkpt lat="43.1452132" lon="11.4762669"><ele>142.0</ele><time>2026-04-04T14:39:49.081Z</time></trkpt><trkpt lat="43.1453772" lon="11.4762398"><ele>142.0</ele><time>2026-04-04T14:39:50.08Z</time></trkpt><trkpt lat="43.1455373" lon="11.4762106"><ele>142.0</ele><time>2026-04-04T14:39:51.081Z</time></trkpt><trkpt lat="43.1456834" lon="11.476172"><ele>142.0</ele><time>2026-04-04T14:39:52.08Z</time></trkpt><trkpt lat="43.1458427" lon="11.476119"><ele>143.0</ele><time>2026-04-04T14:39:53.08Z</time></trkpt><trkpt lat="43.1459941" lon="11.4760592"><ele>144.0</ele><time>2026-04-04T14:39:54.08Z</time></trkpt><trkpt lat="43.1461593" lon="11.4759944"><ele>145.0</ele><time>2026-04-04T14:39:55.079Z</time></trkpt><trkpt lat="43.1463171" lon="11.4759368"><ele>145.0</ele><time>2026-04-04T14:39:56.081Z</time></trkpt><trkpt lat="43.1464747" lon="11.4758807"><ele>145.0</ele><time>2026-04-04T14:39:57.079Z</time></trkpt><trkpt lat="43.1466252" lon="11.4758212"><ele>145.0</ele><time>2026-04-04T14:39:58.08Z</time></trkpt><trkpt lat="43.1467774" lon="11.4757629"><ele>146.0</ele><time>2026-04-04T14:39:59.08Z</time></trkpt><trkpt lat="43.1469298" lon="11.475704"><ele>147.0</ele><time>2026-04-04T14:40:00.081Z</time></trkpt><trkpt lat="43.1470809" lon="11.4756429"><ele>148.0</ele><time>2026-04-04T14:40:01.079Z</time></trkpt><trkpt lat="43.1472334" lon="11.4755844"><ele>148.66666666666669</ele><time>2026-04-04T14:40:02.079Z</time></trkpt><trkpt lat="43.1473877" lon="11.4755198"><ele>149.33333333333334</ele><time>2026-04-04T14:40:03.081Z</time></trkpt><trkpt lat="43.147541" lon="11.4754577"><ele>150.0</ele><time>2026-04-04T14:40:04.081Z</time></trkpt><trkpt lat="43.1476979" lon="11.4754026"><ele>148.0</ele><time>2026-04-04T14:40:05.079Z</time></trkpt><trkpt lat="43.1478558" lon="11.4753447"><ele>146.0</ele><time>2026-04-04T14:40:06.081Z</time></trkpt><trkpt lat="43.148012" lon="11.4752887"><ele>144.0</ele><time>2026-04-04T14:40:07.08Z</time></trkpt><trkpt lat="43.1481735" lon="11.4752353"><ele>144.66666666666666</ele><time>2026-04-04T14:40:08.08Z</time></trkpt><trkpt lat="43.1483323" lon="11.4751767"><ele>145.33333333333331</ele><time>2026-04-04T14:40:09.08Z</time></trkpt><trkpt lat="43.1484998" lon="11.4751191"><ele>146.0</ele><time>2026-04-04T14:40:10.079Z</time></trkpt><trkpt lat="43.1486652" lon="11.4750578"><ele>146.0</ele><time>2026-04-04T14:40:11.079Z</time></trkpt><trkpt lat="43.1488357" lon="11.4749945"><ele>146.0</ele><time>2026-04-04T14:40:12.08Z</time></trkpt><trkpt lat="43.1490001" lon="11.4749407"><ele>146.0</ele><time>2026-04-04T14:40:13.081Z</time></trkpt><trkpt lat="43.1491641" lon="11.4748769"><ele>146.66666666666666</ele><time>2026-04-04T14:40:14.081Z</time></trkpt><trkpt lat="43.1493259" lon="11.4747994"><ele>147.33333333333334</ele><time>2026-04-04T14:40:15.08Z</time></trkpt><trkpt lat="43.1494907" lon="11.4747104"><ele>148.0</ele><time>2026-04-04T14:40:16.08Z</time></trkpt><trkpt lat="43.1496513" lon="11.4746064"><ele>147.66666666666669</ele><time>2026-04-04T14:40:17.081Z</time></trkpt><trkpt lat="43.1498185" lon="11.4745006"><ele>147.33333333333334</ele><time>2026-04-04T14:40:18.08Z</time></trkpt><trkpt lat="43.1499911" lon="11.4743986"><ele>147.0</ele><time>2026-04-04T14:40:19.08Z</time></trkpt><trkpt lat="43.1501582" lon="11.4742934"><ele>147.0</ele><time>2026-04-04T14:40:20.081Z</time></trkpt><trkpt lat="43.1503132" lon="11.4741843"><ele>147.0</ele><time>2026-04-04T14:40:21.081Z</time></trkpt><trkpt lat="43.150478" lon="11.4740679"><ele>147.0</ele><time>2026-04-04T14:40:22.079Z</time></trkpt><trkpt lat="43.1506286" lon="11.4739324"><ele>147.33333333333334</ele><time>2026-04-04T14:40:23.08Z</time></trkpt><trkpt lat="43.150775" lon="11.4737895"><ele>147.66666666666669</ele><time>2026-04-04T14:40:24.08Z</time></trkpt><trkpt lat="43.1509239" lon="11.4736536"><ele>148.0</ele><time>2026-04-04T14:40:25.081Z</time></trkpt><trkpt lat="43.1510737" lon="11.473505"><ele>148.0</ele><time>2026-04-04T14:40:26.081Z</time></trkpt><trkpt lat="43.1512146" lon="11.4733534"><ele>148.0</ele><time>2026-04-04T14:40:27.081Z</time></trkpt><trkpt lat="43.151357" lon="11.4732117"><ele>148.0</ele><time>2026-04-04T14:40:28.081Z</time></trkpt><trkpt lat="43.1514956" lon="11.473089"><ele>148.33333333333334</ele><time>2026-04-04T14:40:29.081Z</time></trkpt><trkpt lat="43.151639" lon="11.4729784"><ele>148.66666666666666</ele><time>2026-04-04T14:40:30.081Z</time></trkpt><trkpt lat="43.1517835" lon="11.4728783"><ele>149.0</ele><time>2026-04-04T14:40:31.081Z</time></trkpt><trkpt lat="43.1519385" lon="11.472779"><ele>147.0</ele><time>2026-04-04T14:40:32.081Z</time></trkpt><trkpt lat="43.1521002" lon="11.4726887"><ele>145.0</ele><time>2026-04-04T14:40:33.08Z</time></trkpt><trkpt lat="43.1522604" lon="11.472612"><ele>143.0</ele><time>2026-04-04T14:40:34.079Z</time></trkpt><trkpt lat="43.1524288" lon="11.4725558"><ele>143.0</ele><time>2026-04-04T14:40:35.08Z</time></trkpt><trkpt lat="43.1525971" lon="11.472504"><ele>143.0</ele><time>2026-04-04T14:40:36.08Z</time></trkpt><trkpt lat="43.1527738" lon="11.4724584"><ele>143.0</ele><time>2026-04-04T14:40:37.08Z</time></trkpt><trkpt lat="43.1529457" lon="11.4724214"><ele>143.0</ele><time>2026-04-04T14:40:38.079Z</time></trkpt><trkpt lat="43.1531133" lon="11.4723766"><ele>143.0</ele><time>2026-04-04T14:40:39.081Z</time></trkpt><trkpt lat="43.1532864" lon="11.4723219"><ele>143.0</ele><time>2026-04-04T14:40:40.081Z</time></trkpt><trkpt lat="43.1534648" lon="11.4722825"><ele>143.0</ele><time>2026-04-04T14:40:41.08Z</time></trkpt><trkpt lat="43.1536402" lon="11.4722459"><ele>143.0</ele><time>2026-04-04T14:40:42.079Z</time></trkpt><trkpt lat="43.1538156" lon="11.472205"><ele>143.0</ele><time>2026-04-04T14:40:43.08Z</time></trkpt><trkpt lat="43.1539994" lon="11.4721566"><ele>143.33333333333331</ele><time>2026-04-04T14:40:44.08Z</time></trkpt><trkpt lat="43.1541869" lon="11.4721145"><ele>143.66666666666666</ele><time>2026-04-04T14:40:45.08Z</time></trkpt><trkpt lat="43.1543668" lon="11.472075"><ele>144.0</ele><time>2026-04-04T14:40:46.079Z</time></trkpt><trkpt lat="43.1545472" lon="11.4720288"><ele>144.0</ele><time>2026-04-04T14:40:47.08Z</time></trkpt><trkpt lat="43.1547354" lon="11.4719791"><ele>144.0</ele><time>2026-04-04T14:40:48.081Z</time></trkpt><trkpt lat="43.1549228" lon="11.4719468"><ele>144.0</ele><time>2026-04-04T14:40:49.081Z</time></trkpt><trkpt lat="43.1551095" lon="11.4719021"><ele>144.33333333333334</ele><time>2026-04-04T14:40:50.081Z</time></trkpt><trkpt lat="43.1552896" lon="11.4718628"><ele>144.66666666666669</ele><time>2026-04-04T14:40:51.081Z</time></trkpt><trkpt lat="43.1554782" lon="11.4718152"><ele>145.0</ele><time>2026-04-04T14:40:52.079Z</time></trkpt><trkpt lat="43.1556582" lon="11.4717785"><ele>146.0</ele><time>2026-04-04T14:40:53.079Z</time></trkpt><trkpt lat="43.155839" lon="11.4717353"><ele>147.0</ele><time>2026-04-04T14:40:54.081Z</time></trkpt><trkpt lat="43.1560146" lon="11.4716966"><ele>148.0</ele><time>2026-04-04T14:40:55.079Z</time></trkpt><trkpt lat="43.1561969" lon="11.4716505"><ele>148.0</ele><time>2026-04-04T14:40:56.08Z</time></trkpt><trkpt lat="43.1563819" lon="11.471604"><ele>148.0</ele><time>2026-04-04T14:40:57.081Z</time></trkpt><trkpt lat="43.1565656" lon="11.4715658"><ele>148.0</ele><time>2026-04-04T14:40:58.08Z</time></trkpt><trkpt lat="43.1567463" lon="11.4715257"><ele>148.33333333333334</ele><time>2026-04-04T14:40:59.081Z</time></trkpt><trkpt lat="43.1569321" lon="11.4714846"><ele>148.66666666666666</ele><time>2026-04-04T14:41:00.081Z</time></trkpt><trkpt lat="43.1571201" lon="11.4714359"><ele>149.0</ele><time>2026-04-04T14:41:01.08Z</time></trkpt><trkpt lat="43.1573059" lon="11.4713935"><ele>149.0</ele><time>2026-04-04T14:41:02.078Z</time></trkpt><trkpt lat="43.1574868" lon="11.4713538"><ele>149.0</ele><time>2026-04-04T14:41:03.08Z</time></trkpt><trkpt lat="43.1576638" lon="11.4713028"><ele>149.0</ele><time>2026-04-04T14:41:04.08Z</time></trkpt><trkpt lat="43.1578463" lon="11.4712302"><ele>148.33333333333331</ele><time>2026-04-04T14:41:05.081Z</time></trkpt><trkpt lat="43.1580219" lon="11.4711309"><ele>147.66666666666666</ele><time>2026-04-04T14:41:06.079Z</time></trkpt><trkpt lat="43.1581931" lon="11.4710178"><ele>147.0</ele><time>2026-04-04T14:41:07.08Z</time></trkpt><trkpt lat="43.1583595" lon="11.4708981"><ele>147.0</ele><time>2026-04-04T14:41:08.078Z</time></trkpt><trkpt lat="43.1585168" lon="11.4707683"><ele>147.0</ele><time>2026-04-04T14:41:09.08Z</time></trkpt><trkpt lat="43.1586814" lon="11.4706497"><ele>147.0</ele><time>2026-04-04T14:41:10.08Z</time></trkpt><trkpt lat="43.1588466" lon="11.4705255"><ele>147.0</ele><time>2026-04-04T14:41:11.079Z</time></trkpt><trkpt lat="43.159012" lon="11.4703879"><ele>147.0</ele><time>2026-04-04T14:41:12.078Z</time></trkpt><trkpt lat="43.1591704" lon="11.4702462"><ele>147.0</ele><time>2026-04-04T14:41:13.079Z</time></trkpt><trkpt lat="43.1593308" lon="11.4700992"><ele>147.0</ele><time>2026-04-04T14:41:14.08Z</time></trkpt><trkpt lat="43.1594942" lon="11.4699603"><ele>147.0</ele><time>2026-04-04T14:41:15.079Z</time></trkpt><trkpt lat="43.1596493" lon="11.469811"><ele>147.0</ele><time>2026-04-04T14:41:16.081Z</time></trkpt><trkpt lat="43.1598064" lon="11.4696642"><ele>146.66666666666666</ele><time>2026-04-04T14:41:17.081Z</time></trkpt><trkpt lat="43.1599621" lon="11.4695214"><ele>146.33333333333331</ele><time>2026-04-04T14:41:18.08Z</time></trkpt><trkpt lat="43.1601124" lon="11.4693845"><ele>146.0</ele><time>2026-04-04T14:41:19.08Z</time></trkpt><trkpt lat="43.1602616" lon="11.469247"><ele>146.0</ele><time>2026-04-04T14:41:20.081Z</time></trkpt><trkpt lat="43.1604064" lon="11.4691089"><ele>146.0</ele><time>2026-04-04T14:41:21.08Z</time></trkpt><trkpt lat="43.1605485" lon="11.4689833"><ele>146.0</ele><time>2026-04-04T14:41:22.08Z</time></trkpt><trkpt lat="43.1606888" lon="11.4688745"><ele>147.0</ele><time>2026-04-04T14:41:23.079Z</time></trkpt><trkpt lat="43.1608217" lon="11.4687969"><ele>148.0</ele><time>2026-04-04T14:41:24.079Z</time></trkpt><trkpt lat="43.1609635" lon="11.4687271"><ele>149.0</ele><time>2026-04-04T14:41:25.08Z</time></trkpt><trkpt lat="43.1611157" lon="11.4686777"><ele>149.0</ele><time>2026-04-04T14:41:26.079Z</time></trkpt><trkpt lat="43.1612684" lon="11.4686389"><ele>149.0</ele><time>2026-04-04T14:41:27.079Z</time></trkpt><trkpt lat="43.1614153" lon="11.4686207"><ele>149.0</ele><time>2026-04-04T14:41:28.079Z</time></trkpt><trkpt lat="43.1615738" lon="11.4685929"><ele>149.66666666666666</ele><time>2026-04-04T14:41:29.081Z</time></trkpt><trkpt lat="43.1617361" lon="11.4685621"><ele>150.33333333333334</ele><time>2026-04-04T14:41:30.08Z</time></trkpt><trkpt lat="43.1619042" lon="11.4685298"><ele>151.0</ele><time>2026-04-04T14:41:31.079Z</time></trkpt><trkpt lat="43.162068" lon="11.4685025"><ele>151.0</ele><time>2026-04-04T14:41:32.08Z</time></trkpt><trkpt lat="43.1622424" lon="11.4684726"><ele>151.0</ele><time>2026-04-04T14:41:33.08Z</time></trkpt><trkpt lat="43.1624191" lon="11.468446"><ele>151.0</ele><time>2026-04-04T14:41:34.078Z</time></trkpt><trkpt lat="43.1625973" lon="11.4684219"><ele>150.0</ele><time>2026-04-04T14:41:35.081Z</time></trkpt><trkpt lat="43.1627647" lon="11.4683752"><ele>149.0</ele><time>2026-04-04T14:41:36.08Z</time></trkpt><trkpt lat="43.1629352" lon="11.4683034"><ele>148.0</ele><time>2026-04-04T14:41:37.078Z</time></trkpt><trkpt lat="43.1631052" lon="11.4682213"><ele>147.33333333333334</ele><time>2026-04-04T14:41:38.081Z</time></trkpt><trkpt lat="43.1632675" lon="11.4681131"><ele>146.66666666666666</ele><time>2026-04-04T14:41:39.08Z</time></trkpt><trkpt lat="43.1634234" lon="11.468009"><ele>146.0</ele><time>2026-04-04T14:41:40.081Z</time></trkpt><trkpt lat="43.1635785" lon="11.4678927"><ele>146.0</ele><time>2026-04-04T14:41:41.081Z</time></trkpt><trkpt lat="43.1637415" lon="11.4677797"><ele>146.0</ele><time>2026-04-04T14:41:42.079Z</time></trkpt><trkpt lat="43.1639038" lon="11.4676636"><ele>146.0</ele><time>2026-04-04T14:41:43.08Z</time></trkpt><trkpt lat="43.1640603" lon="11.467561"><ele>146.0</ele><time>2026-04-04T14:41:44.08Z</time></trkpt><trkpt lat="43.164209" lon="11.467454"><ele>146.0</ele><time>2026-04-04T14:41:45.08Z</time></trkpt><trkpt lat="43.1643504" lon="11.4673522"><ele>146.0</ele><time>2026-04-04T14:41:46.08Z</time></trkpt><trkpt lat="43.1644885" lon="11.4672561"><ele>146.0</ele><time>2026-04-04T14:41:47.079Z</time></trkpt><trkpt lat="43.1646138" lon="11.4671674"><ele>146.0</ele><time>2026-04-04T14:41:48.079Z</time></trkpt><trkpt lat="43.1647377" lon="11.4670803"><ele>146.0</ele><time>2026-04-04T14:41:49.08Z</time></trkpt><trkpt lat="43.1648627" lon="11.466987"><ele>146.0</ele><time>2026-04-04T14:41:50.08Z</time></trkpt><trkpt lat="43.164981" lon="11.4669084"><ele>146.5</ele><time>2026-04-04T14:41:51.079Z</time></trkpt><trkpt lat="43.1650956" lon="11.4668222"><ele>147.0</ele><time>2026-04-04T14:41:52.078Z</time></trkpt><trkpt lat="43.1652039" lon="11.4667447"><ele>147.5</ele><time>2026-04-04T14:41:53.078Z</time></trkpt><trkpt lat="43.1653126" lon="11.4666702"><ele>148.0</ele><time>2026-04-04T14:41:54.079Z</time></trkpt><trkpt lat="43.1654323" lon="11.4666013"><ele>148.0</ele><time>2026-04-04T14:41:55.078Z</time></trkpt><trkpt lat="43.1655494" lon="11.4665423"><ele>148.0</ele><time>2026-04-04T14:41:56.08Z</time></trkpt><trkpt lat="43.1656673" lon="11.4664867"><ele>148.0</ele><time>2026-04-04T14:41:57.08Z</time></trkpt><trkpt lat="43.1657769" lon="11.4664183"><ele>148.0</ele><time>2026-04-04T14:41:58.081Z</time></trkpt><trkpt lat="43.1658615" lon="11.4663363"><ele>147.0</ele><time>2026-04-04T14:41:59.08Z</time></trkpt><trkpt lat="43.1659435" lon="11.4662212"><ele>146.0</ele><time>2026-04-04T14:42:00.08Z</time></trkpt><trkpt lat="43.1660157" lon="11.4661136"><ele>145.0</ele><time>2026-04-04T14:42:01.08Z</time></trkpt><trkpt lat="43.1660945" lon="11.4660017"><ele>144.0</ele><time>2026-04-04T14:42:02.081Z</time></trkpt><trkpt lat="43.1661725" lon="11.4658839"><ele>144.0</ele><time>2026-04-04T14:42:03.078Z</time></trkpt><trkpt lat="43.1662587" lon="11.4657725"><ele>144.0</ele><time>2026-04-04T14:42:04.079Z</time></trkpt><trkpt lat="43.1663453" lon="11.4656539"><ele>144.0</ele><time>2026-04-04T14:42:05.078Z</time></trkpt><trkpt lat="43.1664365" lon="11.4655398"><ele>144.0</ele><time>2026-04-04T14:42:06.081Z</time></trkpt><trkpt lat="43.1665334" lon="11.4654402"><ele>144.8</ele><time>2026-04-04T14:42:07.079Z</time></trkpt><trkpt lat="43.166636" lon="11.465344"><ele>145.60000000000002</ele><time>2026-04-04T14:42:08.08Z</time></trkpt><trkpt lat="43.1667338" lon="11.4652627"><ele>146.4</ele><time>2026-04-04T14:42:09.08Z</time></trkpt><trkpt lat="43.1668225" lon="11.4651989"><ele>147.20000000000002</ele><time>2026-04-04T14:42:10.08Z</time></trkpt><trkpt lat="43.1669041" lon="11.4651482"><ele>148.0</ele><time>2026-04-04T14:42:11.078Z</time></trkpt><trkpt lat="43.1669807" lon="11.4651074"><ele>148.0</ele><time>2026-04-04T14:42:12.08Z</time></trkpt><trkpt lat="43.1670505" lon="11.4650788"><ele>148.0</ele><time>2026-04-04T14:42:13.079Z</time></trkpt><trkpt lat="43.1671294" lon="11.465054"><ele>148.0</ele><time>2026-04-04T14:42:14.078Z</time></trkpt><trkpt lat="43.1672251" lon="11.4650362"><ele>148.0</ele><time>2026-04-04T14:42:15.079Z</time></trkpt><trkpt lat="43.1673303" lon="11.4650322"><ele>148.0</ele><time>2026-04-04T14:42:16.081Z</time></trkpt><trkpt lat="43.1674429" lon="11.4650466"><ele>148.25</ele><time>2026-04-04T14:42:17.079Z</time></trkpt><trkpt lat="43.1675685" lon="11.4650461"><ele>148.5</ele><time>2026-04-04T14:42:18.079Z</time></trkpt><trkpt lat="43.1676849" lon="11.4650895"><ele>148.75</ele><time>2026-04-04T14:42:19.079Z</time></trkpt><trkpt lat="43.1678145" lon="11.4651504"><ele>149.0</ele><time>2026-04-04T14:42:20.081Z</time></trkpt><trkpt lat="43.1679405" lon="11.4652193"><ele>149.0</ele><time>2026-04-04T14:42:21.079Z</time></trkpt><trkpt lat="43.1680648" lon="11.4652947"><ele>149.0</ele><time>2026-04-04T14:42:22.08Z</time></trkpt><trkpt lat="43.1681951" lon="11.4653717"><ele>149.0</ele><time>2026-04-04T14:42:23.079Z</time></trkpt><trkpt lat="43.1683391" lon="11.4654408"><ele>149.0</ele><time>2026-04-04T14:42:24.078Z</time></trkpt><trkpt lat="43.1684811" lon="11.465518"><ele>149.0</ele><time>2026-04-04T14:42:25.079Z</time></trkpt><trkpt lat="43.1686154" lon="11.4655789"><ele>149.0</ele><time>2026-04-04T14:42:26.079Z</time></trkpt><trkpt lat="43.1687583" lon="11.4656365"><ele>149.0</ele><time>2026-04-04T14:42:27.08Z</time></trkpt><trkpt lat="43.1689011" lon="11.4656816"><ele>149.0</ele><time>2026-04-04T14:42:28.079Z</time></trkpt><trkpt lat="43.1690466" lon="11.4657053"><ele>149.25</ele><time>2026-04-04T14:42:29.08Z</time></trkpt><trkpt lat="43.1691806" lon="11.4657237"><ele>149.5</ele><time>2026-04-04T14:42:30.079Z</time></trkpt><trkpt lat="43.1693075" lon="11.4657367"><ele>149.75</ele><time>2026-04-04T14:42:31.079Z</time></trkpt><trkpt lat="43.1694304" lon="11.4657391"><ele>150.0</ele><time>2026-04-04T14:42:32.08Z</time></trkpt><trkpt lat="43.169541" lon="11.4657426"><ele>150.0</ele><time>2026-04-04T14:42:33.079Z</time></trkpt><trkpt lat="43.1696493" lon="11.4657217"><ele>150.0</ele><time>2026-04-04T14:42:34.078Z</time></trkpt><trkpt lat="43.1697604" lon="11.4657058"><ele>150.0</ele><time>2026-04-04T14:42:35.079Z</time></trkpt><trkpt lat="43.1698595" lon="11.4656748"><ele>150.0</ele><time>2026-04-04T14:42:36.079Z</time></trkpt><trkpt lat="43.1699583" lon="11.4656427"><ele>150.0</ele><time>2026-04-04T14:42:37.079Z</time></trkpt><trkpt lat="43.1700579" lon="11.4656055"><ele>149.75</ele><time>2026-04-04T14:42:38.08Z</time></trkpt><trkpt lat="43.1701601" lon="11.4655688"><ele>149.5</ele><time>2026-04-04T14:42:39.08Z</time></trkpt><trkpt lat="43.170269" lon="11.4655247"><ele>149.25</ele><time>2026-04-04T14:42:40.08Z</time></trkpt><trkpt lat="43.1703784" lon="11.4654837"><ele>149.0</ele><time>2026-04-04T14:42:41.078Z</time></trkpt><trkpt lat="43.1704914" lon="11.4654335"><ele>149.0</ele><time>2026-04-04T14:42:42.08Z</time></trkpt><trkpt lat="43.1706032" lon="11.4653952"><ele>149.0</ele><time>2026-04-04T14:42:43.081Z</time></trkpt><trkpt lat="43.1707063" lon="11.4653572"><ele>149.0</ele><time>2026-04-04T14:42:44.079Z</time></trkpt><trkpt lat="43.1708143" lon="11.4653225"><ele>149.0</ele><time>2026-04-04T14:42:45.079Z</time></trkpt><trkpt lat="43.1709231" lon="11.4652811"><ele>149.0</ele><time>2026-04-04T14:42:46.08Z</time></trkpt><trkpt lat="43.1710387" lon="11.4652292"><ele>149.0</ele><time>2026-04-04T14:42:47.078Z</time></trkpt><trkpt lat="43.1711567" lon="11.4651755"><ele>149.0</ele><time>2026-04-04T14:42:48.079Z</time></trkpt><trkpt lat="43.1712698" lon="11.4651219"><ele>149.0</ele><time>2026-04-04T14:42:49.079Z</time></trkpt><trkpt lat="43.1713869" lon="11.465069"><ele>149.0</ele><time>2026-04-04T14:42:50.08Z</time></trkpt><trkpt lat="43.1715127" lon="11.4650179"><ele>148.75</ele><time>2026-04-04T14:42:51.08Z</time></trkpt><trkpt lat="43.1716365" lon="11.4649722"><ele>148.5</ele><time>2026-04-04T14:42:52.079Z</time></trkpt><trkpt lat="43.1717606" lon="11.4649262"><ele>148.25</ele><time>2026-04-04T14:42:53.079Z</time></trkpt><trkpt lat="43.171893" lon="11.4648762"><ele>148.0</ele><time>2026-04-04T14:42:54.08Z</time></trkpt><trkpt lat="43.172035" lon="11.4648054"><ele>148.0</ele><time>2026-04-04T14:42:55.079Z</time></trkpt><trkpt lat="43.1721733" lon="11.4647511"><ele>148.0</ele><time>2026-04-04T14:42:56.079Z</time></trkpt><trkpt lat="43.1723168" lon="11.464673"><ele>148.0</ele><time>2026-04-04T14:42:57.079Z</time></trkpt><trkpt lat="43.172473" lon="11.4646307"><ele>148.66666666666669</ele><time>2026-04-04T14:42:58.079Z</time></trkpt><trkpt lat="43.1726265" lon="11.4645677"><ele>149.33333333333334</ele><time>2026-04-04T14:42:59.079Z</time></trkpt><trkpt lat="43.1727793" lon="11.4645052"><ele>150.0</ele><time>2026-04-04T14:43:00.079Z</time></trkpt><trkpt lat="43.1729413" lon="11.4644381"><ele>150.0</ele><time>2026-04-04T14:43:01.079Z</time></trkpt><trkpt lat="43.173098" lon="11.4643775"><ele>150.0</ele><time>2026-04-04T14:43:02.08Z</time></trkpt><trkpt lat="43.1732684" lon="11.4643141"><ele>150.0</ele><time>2026-04-04T14:43:03.078Z</time></trkpt><trkpt lat="43.1734341" lon="11.4642464"><ele>150.0</ele><time>2026-04-04T14:43:04.08Z</time></trkpt><trkpt lat="43.1736021" lon="11.4641888"><ele>150.0</ele><time>2026-04-04T14:43:05.08Z</time></trkpt><trkpt lat="43.1737717" lon="11.4641217"><ele>150.0</ele><time>2026-04-04T14:43:06.08Z</time></trkpt><trkpt lat="43.1739467" lon="11.464056"><ele>149.33333333333334</ele><time>2026-04-04T14:43:07.08Z</time></trkpt><trkpt lat="43.1741205" lon="11.4639861"><ele>148.66666666666669</ele><time>2026-04-04T14:43:08.079Z</time></trkpt><trkpt lat="43.1742959" lon="11.4639131"><ele>148.0</ele><time>2026-04-04T14:43:09.078Z</time></trkpt><trkpt lat="43.1744815" lon="11.4638379"><ele>148.33333333333334</ele><time>2026-04-04T14:43:10.079Z</time></trkpt><trkpt lat="43.1746673" lon="11.4637607"><ele>148.66666666666666</ele><time>2026-04-04T14:43:11.078Z</time></trkpt><trkpt lat="43.1748559" lon="11.4636929"><ele>149.0</ele><time>2026-04-04T14:43:12.079Z</time></trkpt><trkpt lat="43.1750498" lon="11.4636168"><ele>149.33333333333331</ele><time>2026-04-04T14:43:13.078Z</time></trkpt><trkpt lat="43.1752364" lon="11.4635404"><ele>149.66666666666666</ele><time>2026-04-04T14:43:14.078Z</time></trkpt><trkpt lat="43.1754235" lon="11.4634697"><ele>150.0</ele><time>2026-04-04T14:43:15.08Z</time></trkpt><trkpt lat="43.1756112" lon="11.4633914"><ele>150.66666666666666</ele><time>2026-04-04T14:43:16.08Z</time></trkpt><trkpt lat="43.1758026" lon="11.4633091"><ele>151.33333333333331</ele><time>2026-04-04T14:43:17.08Z</time></trkpt><trkpt lat="43.1759935" lon="11.4632383"><ele>152.0</ele><time>2026-04-04T14:43:18.078Z</time></trkpt><trkpt lat="43.1761836" lon="11.4631625"><ele>152.0</ele><time>2026-04-04T14:43:19.08Z</time></trkpt><trkpt lat="43.1763728" lon="11.4630917"><ele>152.0</ele><time>2026-04-04T14:43:20.08Z</time></trkpt><trkpt lat="43.1765624" lon="11.4630194"><ele>152.0</ele><time>2026-04-04T14:43:21.079Z</time></trkpt><trkpt lat="43.1767485" lon="11.4629444"><ele>152.33333333333331</ele><time>2026-04-04T14:43:22.079Z</time></trkpt><trkpt lat="43.1769377" lon="11.4628681"><ele>152.66666666666666</ele><time>2026-04-04T14:43:23.078Z</time></trkpt><trkpt lat="43.1771338" lon="11.4627933"><ele>153.0</ele><time>2026-04-04T14:43:24.079Z</time></trkpt><trkpt lat="43.1773194" lon="11.4627135"><ele>153.33333333333334</ele><time>2026-04-04T14:43:25.079Z</time></trkpt><trkpt lat="43.1775057" lon="11.4626313"><ele>153.66666666666669</ele><time>2026-04-04T14:43:26.078Z</time></trkpt><trkpt lat="43.1776847" lon="11.4625643"><ele>154.0</ele><time>2026-04-04T14:43:27.08Z</time></trkpt><trkpt lat="43.1778541" lon="11.4624989"><ele>154.0</ele><time>2026-04-04T14:43:28.079Z</time></trkpt><trkpt lat="43.1780192" lon="11.4624363"><ele>154.0</ele><time>2026-04-04T14:43:29.08Z</time></trkpt><trkpt lat="43.1781817" lon="11.4624172"><ele>154.0</ele><time>2026-04-04T14:43:30.079Z</time></trkpt><trkpt lat="43.1783468" lon="11.4624088"><ele>153.66666666666669</ele><time>2026-04-04T14:43:31.079Z</time></trkpt><trkpt lat="43.1785129" lon="11.4624559"><ele>153.33333333333334</ele><time>2026-04-04T14:43:32.079Z</time></trkpt><trkpt lat="43.178688" lon="11.4625159"><ele>153.0</ele><time>2026-04-04T14:43:33.08Z</time></trkpt><trkpt lat="43.1788471" lon="11.4625735"><ele>153.0</ele><time>2026-04-04T14:43:34.08Z</time></trkpt><trkpt lat="43.1789982" lon="11.4626355"><ele>153.0</ele><time>2026-04-04T14:43:35.078Z</time></trkpt><trkpt lat="43.1791485" lon="11.4626827"><ele>153.0</ele><time>2026-04-04T14:43:36.08Z</time></trkpt><trkpt lat="43.1792996" lon="11.4627312"><ele>154.33333333333334</ele><time>2026-04-04T14:43:37.079Z</time></trkpt><trkpt lat="43.1794555" lon="11.4627456"><ele>155.66666666666669</ele><time>2026-04-04T14:43:38.079Z</time></trkpt><trkpt lat="43.1796068" lon="11.4627468"><ele>157.0</ele><time>2026-04-04T14:43:39.078Z</time></trkpt><trkpt lat="43.1797501" lon="11.4627099"><ele>157.25</ele><time>2026-04-04T14:43:40.079Z</time></trkpt><trkpt lat="43.1798864" lon="11.4626375"><ele>157.5</ele><time>2026-04-04T14:43:41.079Z</time></trkpt><trkpt lat="43.1800051" lon="11.4625401"><ele>157.75</ele><time>2026-04-04T14:43:42.08Z</time></trkpt><trkpt lat="43.180112" lon="11.4623911"><ele>158.0</ele><time>2026-04-04T14:43:43.078Z</time></trkpt><trkpt lat="43.1802054" lon="11.4622343"><ele>161.0</ele><time>2026-04-04T14:43:44.079Z</time></trkpt><trkpt lat="43.1802896" lon="11.462058"><ele>164.0</ele><time>2026-04-04T14:43:45.078Z</time></trkpt><trkpt lat="43.1803696" lon="11.4618711"><ele>167.0</ele><time>2026-04-04T14:43:46.079Z</time></trkpt><trkpt lat="43.1804452" lon="11.4616847"><ele>167.0</ele><time>2026-04-04T14:43:47.079Z</time></trkpt><trkpt lat="43.1805269" lon="11.4614943"><ele>167.0</ele><time>2026-04-04T14:43:48.079Z</time></trkpt><trkpt lat="43.1806266" lon="11.4613082"><ele>167.0</ele><time>2026-04-04T14:43:49.078Z</time></trkpt><trkpt lat="43.1807363" lon="11.4611438"><ele>165.33333333333331</ele><time>2026-04-04T14:43:50.079Z</time></trkpt><trkpt lat="43.1808552" lon="11.4609931"><ele>163.66666666666666</ele><time>2026-04-04T14:43:51.079Z</time></trkpt><trkpt lat="43.180983" lon="11.460849"><ele>162.0</ele><time>2026-04-04T14:43:52.079Z</time></trkpt><trkpt lat="43.1811161" lon="11.4607034"><ele>162.0</ele><time>2026-04-04T14:43:53.079Z</time></trkpt><trkpt lat="43.1812616" lon="11.4605552"><ele>162.0</ele><time>2026-04-04T14:43:54.079Z</time></trkpt><trkpt lat="43.1814085" lon="11.4604119"><ele>162.0</ele><time>2026-04-04T14:43:55.078Z</time></trkpt><trkpt lat="43.1815573" lon="11.4602583"><ele>161.33333333333334</ele><time>2026-04-04T14:43:56.078Z</time></trkpt><trkpt lat="43.1817082" lon="11.4601034"><ele>160.66666666666669</ele><time>2026-04-04T14:43:57.08Z</time></trkpt><trkpt lat="43.181864" lon="11.4599527"><ele>160.0</ele><time>2026-04-04T14:43:58.079Z</time></trkpt><trkpt lat="43.1820088" lon="11.4597872"><ele>160.0</ele><time>2026-04-04T14:43:59.079Z</time></trkpt><trkpt lat="43.1821639" lon="11.459634"><ele>160.0</ele><time>2026-04-04T14:44:00.078Z</time></trkpt><trkpt lat="43.1823206" lon="11.4594856"><ele>160.0</ele><time>2026-04-04T14:44:01.08Z</time></trkpt><trkpt lat="43.182478" lon="11.4593307"><ele>160.0</ele><time>2026-04-04T14:44:02.079Z</time></trkpt><trkpt lat="43.182631" lon="11.4591774"><ele>160.0</ele><time>2026-04-04T14:44:03.079Z</time></trkpt><trkpt lat="43.1827799" lon="11.4590358"><ele>160.0</ele><time>2026-04-04T14:44:04.078Z</time></trkpt><trkpt lat="43.1829254" lon="11.4588942"><ele>160.66666666666669</ele><time>2026-04-04T14:44:05.078Z</time></trkpt><trkpt lat="43.1830587" lon="11.4587592"><ele>161.33333333333334</ele><time>2026-04-04T14:44:06.079Z</time></trkpt><trkpt lat="43.1831929" lon="11.458628"><ele>162.0</ele><time>2026-04-04T14:44:07.079Z</time></trkpt><trkpt lat="43.1833197" lon="11.4585027"><ele>162.0</ele><time>2026-04-04T14:44:08.079Z</time></trkpt><trkpt lat="43.1834411" lon="11.4583783"><ele>162.0</ele><time>2026-04-04T14:44:09.079Z</time></trkpt><trkpt lat="43.1835675" lon="11.4582503"><ele>162.0</ele><time>2026-04-04T14:44:10.078Z</time></trkpt><trkpt lat="43.1836904" lon="11.4581312"><ele>162.0</ele><time>2026-04-04T14:44:11.08Z</time></trkpt><trkpt lat="43.1838031" lon="11.4580051"><ele>162.0</ele><time>2026-04-04T14:44:12.079Z</time></trkpt><trkpt lat="43.1839081" lon="11.4578801"><ele>162.0</ele><time>2026-04-04T14:44:13.08Z</time></trkpt><trkpt lat="43.1840259" lon="11.4577529"><ele>162.0</ele><time>2026-04-04T14:44:14.078Z</time></trkpt><trkpt lat="43.1841459" lon="11.4576172"><ele>162.33333333333334</ele><time>2026-04-04T14:44:15.078Z</time></trkpt><trkpt lat="43.1842713" lon="11.4574649"><ele>162.66666666666669</ele><time>2026-04-04T14:44:16.079Z</time></trkpt><trkpt lat="43.184396" lon="11.4573319"><ele>163.0</ele><time>2026-04-04T14:44:17.08Z</time></trkpt><trkpt lat="43.1845167" lon="11.4571867"><ele>163.0</ele><time>2026-04-04T14:44:18.079Z</time></trkpt><trkpt lat="43.1846388" lon="11.4570292"><ele>163.0</ele><time>2026-04-04T14:44:19.079Z</time></trkpt><trkpt lat="43.1847667" lon="11.4568715"><ele>163.0</ele><time>2026-04-04T14:44:20.079Z</time></trkpt><trkpt lat="43.1848987" lon="11.4566979"><ele>163.0</ele><time>2026-04-04T14:44:21.078Z</time></trkpt><trkpt lat="43.1850296" lon="11.4565243"><ele>163.0</ele><time>2026-04-04T14:44:22.078Z</time></trkpt><trkpt lat="43.1851657" lon="11.4563399"><ele>163.0</ele><time>2026-04-04T14:44:23.078Z</time></trkpt><trkpt lat="43.1853116" lon="11.4561574"><ele>163.66666666666669</ele><time>2026-04-04T14:44:24.08Z</time></trkpt><trkpt lat="43.1854516" lon="11.4559807"><ele>164.33333333333334</ele><time>2026-04-04T14:44:25.078Z</time></trkpt><trkpt lat="43.185596" lon="11.4558044"><ele>165.0</ele><time>2026-04-04T14:44:26.078Z</time></trkpt><trkpt lat="43.1857371" lon="11.4556448"><ele>165.0</ele><time>2026-04-04T14:44:27.08Z</time></trkpt><trkpt lat="43.18587" lon="11.4554925"><ele>165.0</ele><time>2026-04-04T14:44:28.079Z</time></trkpt><trkpt lat="43.1860054" lon="11.4553525"><ele>165.0</ele><time>2026-04-04T14:44:29.078Z</time></trkpt><trkpt lat="43.1861503" lon="11.4552321"><ele>166.33333333333334</ele><time>2026-04-04T14:44:30.079Z</time></trkpt><trkpt lat="43.1862959" lon="11.4551218"><ele>167.66666666666669</ele><time>2026-04-04T14:44:31.079Z</time></trkpt><trkpt lat="43.186438" lon="11.4550239"><ele>169.0</ele><time>2026-04-04T14:44:32.078Z</time></trkpt><trkpt lat="43.186589" lon="11.4549369"><ele>169.33333333333334</ele><time>2026-04-04T14:44:33.078Z</time></trkpt><trkpt lat="43.1867339" lon="11.4548437"><ele>169.66666666666666</ele><time>2026-04-04T14:44:34.078Z</time></trkpt><trkpt lat="43.1868781" lon="11.4547469"><ele>170.0</ele><time>2026-04-04T14:44:35.077Z</time></trkpt><trkpt lat="43.1870216" lon="11.454664"><ele>171.25</ele><time>2026-04-04T14:44:36.079Z</time></trkpt><trkpt lat="43.1871544" lon="11.4545865"><ele>172.5</ele><time>2026-04-04T14:44:37.079Z</time></trkpt><trkpt lat="43.1872876" lon="11.4545048"><ele>173.75</ele><time>2026-04-04T14:44:38.079Z</time></trkpt><trkpt lat="43.1874197" lon="11.4544281"><ele>175.0</ele><time>2026-04-04T14:44:39.078Z</time></trkpt><trkpt lat="43.1875515" lon="11.4543563"><ele>176.0</ele><time>2026-04-04T14:44:40.079Z</time></trkpt><trkpt lat="43.187685" lon="11.454278"><ele>177.0</ele><time>2026-04-04T14:44:41.079Z</time></trkpt><trkpt lat="43.1878195" lon="11.4542099"><ele>178.0</ele><time>2026-04-04T14:44:42.077Z</time></trkpt><trkpt lat="43.1879488" lon="11.4541442"><ele>179.0</ele><time>2026-04-04T14:44:43.079Z</time></trkpt><trkpt lat="43.1880827" lon="11.4540922"><ele>179.5</ele><time>2026-04-04T14:44:44.079Z</time></trkpt><trkpt lat="43.188217" lon="11.4540465"><ele>180.0</ele><time>2026-04-04T14:44:45.08Z</time></trkpt><trkpt lat="43.1883474" lon="11.4540256"><ele>180.5</ele><time>2026-04-04T14:44:46.079Z</time></trkpt><trkpt lat="43.1884786" lon="11.4540129"><ele>181.0</ele><time>2026-04-04T14:44:47.08Z</time></trkpt><trkpt lat="43.1886116" lon="11.4540135"><ele>181.0</ele><time>2026-04-04T14:44:48.078Z</time></trkpt><trkpt lat="43.1887583" lon="11.454002"><ele>181.0</ele><time>2026-04-04T14:44:49.078Z</time></trkpt><trkpt lat="43.1889043" lon="11.4540047"><ele>181.0</ele><time>2026-04-04T14:44:50.078Z</time></trkpt><trkpt lat="43.1890533" lon="11.4540044"><ele>181.0</ele><time>2026-04-04T14:44:51.079Z</time></trkpt><trkpt lat="43.1891951" lon="11.4540133"><ele>180.0</ele><time>2026-04-04T14:44:52.078Z</time></trkpt><trkpt lat="43.1893343" lon="11.4540207"><ele>179.0</ele><time>2026-04-04T14:44:53.08Z</time></trkpt><trkpt lat="43.1894583" lon="11.4540245"><ele>178.0</ele><time>2026-04-04T14:44:54.079Z</time></trkpt><trkpt lat="43.1895826" lon="11.4540256"><ele>177.0</ele><time>2026-04-04T14:44:55.079Z</time></trkpt><trkpt lat="43.189707" lon="11.4540007"><ele>177.0</ele><time>2026-04-04T14:44:56.078Z</time></trkpt><trkpt lat="43.1898296" lon="11.4539493"><ele>177.0</ele><time>2026-04-04T14:44:57.08Z</time></trkpt><trkpt lat="43.1899663" lon="11.453876"><ele>177.0</ele><time>2026-04-04T14:44:58.077Z</time></trkpt><trkpt lat="43.1901006" lon="11.4537963"><ele>177.0</ele><time>2026-04-04T14:44:59.078Z</time></trkpt><trkpt lat="43.1902331" lon="11.4537151"><ele>177.0</ele><time>2026-04-04T14:45:00.078Z</time></trkpt><trkpt lat="43.1903553" lon="11.4536459"><ele>177.0</ele><time>2026-04-04T14:45:01.078Z</time></trkpt><trkpt lat="43.1904789" lon="11.4535719"><ele>177.0</ele><time>2026-04-04T14:45:02.078Z</time></trkpt><trkpt lat="43.190604" lon="11.4535058"><ele>177.0</ele><time>2026-04-04T14:45:03.079Z</time></trkpt><trkpt lat="43.1907377" lon="11.4534494"><ele>175.5</ele><time>2026-04-04T14:45:04.079Z</time></trkpt><trkpt lat="43.1908795" lon="11.4534019"><ele>174.0</ele><time>2026-04-04T14:45:05.079Z</time></trkpt><trkpt lat="43.1910203" lon="11.4533709"><ele>172.5</ele><time>2026-04-04T14:45:06.078Z</time></trkpt><trkpt lat="43.1911564" lon="11.4533535"><ele>171.0</ele><time>2026-04-04T14:45:07.079Z</time></trkpt><trkpt lat="43.1912826" lon="11.4533596"><ele>171.0</ele><time>2026-04-04T14:45:08.079Z</time></trkpt><trkpt lat="43.1913968" lon="11.4533987"><ele>171.0</ele><time>2026-04-04T14:45:09.079Z</time></trkpt><trkpt lat="43.1915021" lon="11.4534598"><ele>171.0</ele><time>2026-04-04T14:45:10.079Z</time></trkpt><trkpt lat="43.1915825" lon="11.4535841"><ele>171.0</ele><time>2026-04-04T14:45:11.078Z</time></trkpt><trkpt lat="43.191664" lon="11.4537259"><ele>169.75</ele><time>2026-04-04T14:45:12.079Z</time></trkpt><trkpt lat="43.1917294" lon="11.4538736"><ele>168.5</ele><time>2026-04-04T14:45:13.079Z</time></trkpt><trkpt lat="43.1917938" lon="11.4540354"><ele>167.25</ele><time>2026-04-04T14:45:14.079Z</time></trkpt><trkpt lat="43.1918575" lon="11.454204"><ele>166.0</ele><time>2026-04-04T14:45:15.079Z</time></trkpt><trkpt lat="43.1919201" lon="11.4543606"><ele>166.0</ele><time>2026-04-04T14:45:16.079Z</time></trkpt><trkpt lat="43.1919812" lon="11.4545063"><ele>166.0</ele><time>2026-04-04T14:45:17.078Z</time></trkpt><trkpt lat="43.192048" lon="11.4546219"><ele>166.0</ele><time>2026-04-04T14:45:18.079Z</time></trkpt><trkpt lat="43.1921218" lon="11.4547248"><ele>166.0</ele><time>2026-04-04T14:45:19.079Z</time></trkpt><trkpt lat="43.1922116" lon="11.4548023"><ele>166.0</ele><time>2026-04-04T14:45:20.079Z</time></trkpt><trkpt lat="43.1923139" lon="11.4548757"><ele>166.0</ele><time>2026-04-04T14:45:21.079Z</time></trkpt><trkpt lat="43.192427" lon="11.4549262"><ele>166.0</ele><time>2026-04-04T14:45:22.08Z</time></trkpt><trkpt lat="43.1925471" lon="11.4549779"><ele>166.0</ele><time>2026-04-04T14:45:23.079Z</time></trkpt><trkpt lat="43.1926636" lon="11.4550011"><ele>166.0</ele><time>2026-04-04T14:45:24.08Z</time></trkpt><trkpt lat="43.1927833" lon="11.4549933"><ele>166.0</ele><time>2026-04-04T14:45:25.078Z</time></trkpt><trkpt lat="43.1928895" lon="11.4549481"><ele>166.0</ele><time>2026-04-04T14:45:26.079Z</time></trkpt><trkpt lat="43.1929845" lon="11.4548836"><ele>166.0</ele><time>2026-04-04T14:45:27.079Z</time></trkpt><trkpt lat="43.1930648" lon="11.4548108"><ele>166.0</ele><time>2026-04-04T14:45:28.077Z</time></trkpt><trkpt lat="43.1931277" lon="11.4547195"><ele>166.0</ele><time>2026-04-04T14:45:29.079Z</time></trkpt><trkpt lat="43.1931723" lon="11.4546216"><ele>166.4</ele><time>2026-04-04T14:45:30.079Z</time></trkpt><trkpt lat="43.1931827" lon="11.4544975"><ele>166.8</ele><time>2026-04-04T14:45:31.079Z</time></trkpt><trkpt lat="43.1931793" lon="11.4543595"><ele>167.20000000000002</ele><time>2026-04-04T14:45:32.077Z</time></trkpt><trkpt lat="43.1931607" lon="11.4542088"><ele>167.60000000000002</ele><time>2026-04-04T14:45:33.078Z</time></trkpt><trkpt lat="43.1931379" lon="11.4540646"><ele>168.0</ele><time>2026-04-04T14:45:34.079Z</time></trkpt><trkpt lat="43.1931052" lon="11.4539128"><ele>167.75</ele><time>2026-04-04T14:45:35.079Z</time></trkpt><trkpt lat="43.1930622" lon="11.4537548"><ele>167.5</ele><time>2026-04-04T14:45:36.077Z</time></trkpt><trkpt lat="43.1930077" lon="11.4535988"><ele>167.25</ele><time>2026-04-04T14:45:37.079Z</time></trkpt><trkpt lat="43.1929487" lon="11.4534666"><ele>167.0</ele><time>2026-04-04T14:45:38.078Z</time></trkpt><trkpt lat="43.1928863" lon="11.4533425"><ele>167.0</ele><time>2026-04-04T14:45:39.079Z</time></trkpt><trkpt lat="43.1928225" lon="11.4532298"><ele>167.0</ele><time>2026-04-04T14:45:40.079Z</time></trkpt><trkpt lat="43.1927669" lon="11.4531239"><ele>167.0</ele><time>2026-04-04T14:45:41.079Z</time></trkpt><trkpt lat="43.192741" lon="11.4529938"><ele>167.0</ele><time>2026-04-04T14:45:42.078Z</time></trkpt><trkpt lat="43.1927404" lon="11.4528457"><ele>167.0</ele><time>2026-04-04T14:45:43.078Z</time></trkpt><trkpt lat="43.1927739" lon="11.4527105"><ele>166.5</ele><time>2026-04-04T14:45:44.079Z</time></trkpt><trkpt lat="43.1928226" lon="11.4525765"><ele>166.0</ele><time>2026-04-04T14:45:45.077Z</time></trkpt><trkpt lat="43.1928898" lon="11.4524443"><ele>165.5</ele><time>2026-04-04T14:45:46.078Z</time></trkpt><trkpt lat="43.1929609" lon="11.4523183"><ele>165.0</ele><time>2026-04-04T14:45:47.077Z</time></trkpt><trkpt lat="43.1930288" lon="11.4521955"><ele>164.5</ele><time>2026-04-04T14:45:48.077Z</time></trkpt><trkpt lat="43.1930999" lon="11.4520691"><ele>164.0</ele><time>2026-04-04T14:45:49.079Z</time></trkpt><trkpt lat="43.1931683" lon="11.4519408"><ele>163.5</ele><time>2026-04-04T14:45:50.077Z</time></trkpt><trkpt lat="43.1932413" lon="11.4518199"><ele>163.0</ele><time>2026-04-04T14:45:51.077Z</time></trkpt><trkpt lat="43.1933177" lon="11.4516985"><ele>161.75</ele><time>2026-04-04T14:45:52.077Z</time></trkpt><trkpt lat="43.1933972" lon="11.4515655"><ele>160.5</ele><time>2026-04-04T14:45:53.077Z</time></trkpt><trkpt lat="43.1934813" lon="11.4514211"><ele>159.25</ele><time>2026-04-04T14:45:54.079Z</time></trkpt><trkpt lat="43.1935664" lon="11.4512723"><ele>158.0</ele><time>2026-04-04T14:45:55.079Z</time></trkpt><trkpt lat="43.193657" lon="11.4511226"><ele>158.0</ele><time>2026-04-04T14:45:56.078Z</time></trkpt><trkpt lat="43.1937435" lon="11.4509727"><ele>158.0</ele><time>2026-04-04T14:45:57.078Z</time></trkpt><trkpt lat="43.1938394" lon="11.450815"><ele>158.0</ele><time>2026-04-04T14:45:58.077Z</time></trkpt><trkpt lat="43.193942" lon="11.4506665"><ele>158.0</ele><time>2026-04-04T14:45:59.078Z</time></trkpt><trkpt lat="43.1940385" lon="11.4505022"><ele>158.5</ele><time>2026-04-04T14:46:00.077Z</time></trkpt><trkpt lat="43.1941338" lon="11.45035"><ele>159.0</ele><time>2026-04-04T14:46:01.078Z</time></trkpt><trkpt lat="43.1942224" lon="11.4501897"><ele>159.5</ele><time>2026-04-04T14:46:02.077Z</time></trkpt><trkpt lat="43.19431" lon="11.4500399"><ele>160.0</ele><time>2026-04-04T14:46:03.078Z</time></trkpt><trkpt lat="43.1943937" lon="11.4498861"><ele>160.0</ele><time>2026-04-04T14:46:04.078Z</time></trkpt><trkpt lat="43.1944802" lon="11.4497363"><ele>160.0</ele><time>2026-04-04T14:46:05.078Z</time></trkpt><trkpt lat="43.1945719" lon="11.449583"><ele>160.0</ele><time>2026-04-04T14:46:06.078Z</time></trkpt><trkpt lat="43.1946583" lon="11.4494373"><ele>160.0</ele><time>2026-04-04T14:46:07.077Z</time></trkpt><trkpt lat="43.194739" lon="11.4492918"><ele>160.25</ele><time>2026-04-04T14:46:08.078Z</time></trkpt><trkpt lat="43.1948204" lon="11.4491537"><ele>160.5</ele><time>2026-04-04T14:46:09.079Z</time></trkpt><trkpt lat="43.1949031" lon="11.4490151"><ele>160.75</ele><time>2026-04-04T14:46:10.079Z</time></trkpt><trkpt lat="43.1949877" lon="11.4488745"><ele>161.0</ele><time>2026-04-04T14:46:11.077Z</time></trkpt><trkpt lat="43.1950672" lon="11.4487288"><ele>161.0</ele><time>2026-04-04T14:46:12.078Z</time></trkpt><trkpt lat="43.1951303" lon="11.4485636"><ele>161.0</ele><time>2026-04-04T14:46:13.078Z</time></trkpt><trkpt lat="43.1951907" lon="11.4484002"><ele>161.0</ele><time>2026-04-04T14:46:14.078Z</time></trkpt><trkpt lat="43.1952505" lon="11.4482292"><ele>161.0</ele><time>2026-04-04T14:46:15.077Z</time></trkpt><trkpt lat="43.1953102" lon="11.4480452"><ele>162.25</ele><time>2026-04-04T14:46:16.078Z</time></trkpt><trkpt lat="43.1953581" lon="11.4478637"><ele>163.5</ele><time>2026-04-04T14:46:17.077Z</time></trkpt><trkpt lat="43.1954017" lon="11.4476806"><ele>164.75</ele><time>2026-04-04T14:46:18.078Z</time></trkpt><trkpt lat="43.1954442" lon="11.4474953"><ele>166.0</ele><time>2026-04-04T14:46:19.077Z</time></trkpt><trkpt lat="43.1954838" lon="11.4473109"><ele>166.75</ele><time>2026-04-04T14:46:20.078Z</time></trkpt><trkpt lat="43.1955236" lon="11.4471258"><ele>167.5</ele><time>2026-04-04T14:46:21.079Z</time></trkpt><trkpt lat="43.1955628" lon="11.4469384"><ele>168.25</ele><time>2026-04-04T14:46:22.079Z</time></trkpt><trkpt lat="43.1955994" lon="11.4467469"><ele>169.0</ele><time>2026-04-04T14:46:23.078Z</time></trkpt><trkpt lat="43.1956399" lon="11.4465665"><ele>166.75</ele><time>2026-04-04T14:46:24.079Z</time></trkpt><trkpt lat="43.1956783" lon="11.4463731"><ele>164.5</ele><time>2026-04-04T14:46:25.078Z</time></trkpt><trkpt lat="43.1957188" lon="11.4461897"><ele>162.25</ele><time>2026-04-04T14:46:26.078Z</time></trkpt><trkpt lat="43.1957587" lon="11.4460007"><ele>160.0</ele><time>2026-04-04T14:46:27.078Z</time></trkpt><trkpt lat="43.1957985" lon="11.4458126"><ele>159.75</ele><time>2026-04-04T14:46:28.078Z</time></trkpt><trkpt lat="43.1958424" lon="11.4456136"><ele>159.5</ele><time>2026-04-04T14:46:29.078Z</time></trkpt><trkpt lat="43.195895" lon="11.4454237"><ele>159.25</ele><time>2026-04-04T14:46:30.078Z</time></trkpt><trkpt lat="43.1959557" lon="11.4452481"><ele>159.0</ele><time>2026-04-04T14:46:31.079Z</time></trkpt><trkpt lat="43.1960373" lon="11.4450875"><ele>159.5</ele><time>2026-04-04T14:46:32.078Z</time></trkpt><trkpt lat="43.1961158" lon="11.4449318"><ele>160.0</ele><time>2026-04-04T14:46:33.077Z</time></trkpt><trkpt lat="43.1962036" lon="11.4447817"><ele>160.5</ele><time>2026-04-04T14:46:34.077Z</time></trkpt><trkpt lat="43.1963043" lon="11.4446336"><ele>161.0</ele><time>2026-04-04T14:46:35.078Z</time></trkpt><trkpt lat="43.1964163" lon="11.4445032"><ele>160.25</ele><time>2026-04-04T14:46:36.078Z</time></trkpt><trkpt lat="43.1965291" lon="11.4443938"><ele>159.5</ele><time>2026-04-04T14:46:37.078Z</time></trkpt><trkpt lat="43.1966526" lon="11.4443039"><ele>158.75</ele><time>2026-04-04T14:46:38.079Z</time></trkpt><trkpt lat="43.1967834" lon="11.4442189"><ele>158.0</ele><time>2026-04-04T14:46:39.079Z</time></trkpt><trkpt lat="43.1969158" lon="11.4441439"><ele>158.0</ele><time>2026-04-04T14:46:40.079Z</time></trkpt><trkpt lat="43.1970447" lon="11.4440704"><ele>158.0</ele><time>2026-04-04T14:46:41.078Z</time></trkpt><trkpt lat="43.1971767" lon="11.4439951"><ele>158.0</ele><time>2026-04-04T14:46:42.077Z</time></trkpt><trkpt lat="43.1973092" lon="11.4439307"><ele>158.0</ele><time>2026-04-04T14:46:43.077Z</time></trkpt><trkpt lat="43.1974464" lon="11.443861"><ele>158.25</ele><time>2026-04-04T14:46:44.078Z</time></trkpt><trkpt lat="43.1975784" lon="11.4437927"><ele>158.5</ele><time>2026-04-04T14:46:45.076Z</time></trkpt><trkpt lat="43.1977052" lon="11.4437378"><ele>158.75</ele><time>2026-04-04T14:46:46.079Z</time></trkpt><trkpt lat="43.1978437" lon="11.4436703"><ele>159.0</ele><time>2026-04-04T14:46:47.078Z</time></trkpt><trkpt lat="43.1979721" lon="11.4435994"><ele>159.0</ele><time>2026-04-04T14:46:48.078Z</time></trkpt><trkpt lat="43.1980957" lon="11.4435345"><ele>159.0</ele><time>2026-04-04T14:46:49.078Z</time></trkpt><trkpt lat="43.1982141" lon="11.4434835"><ele>159.0</ele><time>2026-04-04T14:46:50.078Z</time></trkpt><trkpt lat="43.1983155" lon="11.4434322"><ele>159.0</ele><time>2026-04-04T14:46:51.079Z</time></trkpt><trkpt lat="43.1984016" lon="11.4433895"><ele>158.83333333333334</ele><time>2026-04-04T14:46:52.079Z</time></trkpt><trkpt lat="43.1984719" lon="11.4433665"><ele>158.66666666666666</ele><time>2026-04-04T14:46:53.078Z</time></trkpt><trkpt lat="43.1985568" lon="11.443402"><ele>158.5</ele><time>2026-04-04T14:46:55.078Z</time></trkpt><trkpt lat="43.1985884" lon="11.4435126"><ele>158.33333333333331</ele><time>2026-04-04T14:46:57.079Z</time></trkpt><trkpt lat="43.1986314" lon="11.4436676"><ele>158.16666666666666</ele><time>2026-04-04T14:46:59.077Z</time></trkpt><trkpt lat="43.1986558" lon="11.4437612"><ele>158.0</ele><time>2026-04-04T14:47:00.078Z</time></trkpt><trkpt lat="43.1986824" lon="11.4438625"><ele>157.8</ele><time>2026-04-04T14:47:01.077Z</time></trkpt><trkpt lat="43.1987113" lon="11.4439871"><ele>157.60000000000002</ele><time>2026-04-04T14:47:02.078Z</time></trkpt><trkpt lat="43.1987366" lon="11.4441072"><ele>157.39999999999998</ele><time>2026-04-04T14:47:03.078Z</time></trkpt><trkpt lat="43.1987621" lon="11.4442351"><ele>157.2</ele><time>2026-04-04T14:47:04.076Z</time></trkpt><trkpt lat="43.1987919" lon="11.4443679"><ele>157.0</ele><time>2026-04-04T14:47:05.077Z</time></trkpt><trkpt lat="43.1988274" lon="11.4444983"><ele>156.79999999999998</ele><time>2026-04-04T14:47:06.078Z</time></trkpt><trkpt lat="43.1988482" lon="11.4446344"><ele>156.6</ele><time>2026-04-04T14:47:07.076Z</time></trkpt><trkpt lat="43.1988771" lon="11.4447682"><ele>156.39999999999998</ele><time>2026-04-04T14:47:08.078Z</time></trkpt><trkpt lat="43.1989069" lon="11.4448986"><ele>156.2</ele><time>2026-04-04T14:47:09.077Z</time></trkpt><trkpt lat="43.1989393" lon="11.4450349"><ele>156.0</ele><time>2026-04-04T14:47:10.078Z</time></trkpt><trkpt lat="43.1989752" lon="11.4451704"><ele>156.0</ele><time>2026-04-04T14:47:11.078Z</time></trkpt><trkpt lat="43.1990165" lon="11.4453236"><ele>156.0</ele><time>2026-04-04T14:47:12.076Z</time></trkpt><trkpt lat="43.1990509" lon="11.4454763"><ele>156.0</ele><time>2026-04-04T14:47:13.078Z</time></trkpt><trkpt lat="43.1990886" lon="11.4456117"><ele>156.0</ele><time>2026-04-04T14:47:14.078Z</time></trkpt><trkpt lat="43.1991222" lon="11.4457523"><ele>156.0</ele><time>2026-04-04T14:47:15.078Z</time></trkpt><trkpt lat="43.1991582" lon="11.4458938"><ele>156.0</ele><time>2026-04-04T14:47:16.078Z</time></trkpt><trkpt lat="43.1991943" lon="11.44604"><ele>156.0</ele><time>2026-04-04T14:47:17.078Z</time></trkpt><trkpt lat="43.1992262" lon="11.4461876"><ele>156.0</ele><time>2026-04-04T14:47:18.077Z</time></trkpt><trkpt lat="43.1992608" lon="11.4463289"><ele>156.0</ele><time>2026-04-04T14:47:19.077Z</time></trkpt><trkpt lat="43.1992971" lon="11.4464882"><ele>155.75</ele><time>2026-04-04T14:47:20.079Z</time></trkpt><trkpt lat="43.1993335" lon="11.4466435"><ele>155.5</ele><time>2026-04-04T14:47:21.077Z</time></trkpt><trkpt lat="43.1993746" lon="11.4468"><ele>155.25</ele><time>2026-04-04T14:47:22.078Z</time></trkpt><trkpt lat="43.1994153" lon="11.4469661"><ele>155.0</ele><time>2026-04-04T14:47:23.079Z</time></trkpt><trkpt lat="43.1994536" lon="11.4471285"><ele>155.0</ele><time>2026-04-04T14:47:24.079Z</time></trkpt><trkpt lat="43.1994956" lon="11.4473032"><ele>155.0</ele><time>2026-04-04T14:47:25.078Z</time></trkpt><trkpt lat="43.1995427" lon="11.4474744"><ele>155.0</ele><time>2026-04-04T14:47:26.077Z</time></trkpt><trkpt lat="43.1995841" lon="11.4476472"><ele>155.0</ele><time>2026-04-04T14:47:27.077Z</time></trkpt><trkpt lat="43.1996233" lon="11.4478361"><ele>155.0</ele><time>2026-04-04T14:47:28.077Z</time></trkpt><trkpt lat="43.1996659" lon="11.4480152"><ele>155.0</ele><time>2026-04-04T14:47:29.077Z</time></trkpt><trkpt lat="43.1997079" lon="11.4482006"><ele>155.0</ele><time>2026-04-04T14:47:30.078Z</time></trkpt><trkpt lat="43.1997566" lon="11.4483823"><ele>155.0</ele><time>2026-04-04T14:47:31.077Z</time></trkpt><trkpt lat="43.1997999" lon="11.4485565"><ele>155.0</ele><time>2026-04-04T14:47:32.077Z</time></trkpt><trkpt lat="43.199842" lon="11.4487258"><ele>155.0</ele><time>2026-04-04T14:47:33.076Z</time></trkpt><trkpt lat="43.1998868" lon="11.448897"><ele>155.0</ele><time>2026-04-04T14:47:34.077Z</time></trkpt><trkpt lat="43.1999335" lon="11.4490569"><ele>155.0</ele><time>2026-04-04T14:47:35.077Z</time></trkpt><trkpt lat="43.199966" lon="11.4492195"><ele>155.25</ele><time>2026-04-04T14:47:36.076Z</time></trkpt><trkpt lat="43.1999976" lon="11.4493857"><ele>155.5</ele><time>2026-04-04T14:47:37.078Z</time></trkpt><trkpt lat="43.2000328" lon="11.4495555"><ele>155.75</ele><time>2026-04-04T14:47:38.078Z</time></trkpt><trkpt lat="43.2000709" lon="11.4497201"><ele>156.0</ele><time>2026-04-04T14:47:39.077Z</time></trkpt><trkpt lat="43.2001095" lon="11.4498821"><ele>156.0</ele><time>2026-04-04T14:47:40.078Z</time></trkpt><trkpt lat="43.2001462" lon="11.4500385"><ele>156.0</ele><time>2026-04-04T14:47:41.079Z</time></trkpt><trkpt lat="43.2001833" lon="11.4502006"><ele>156.0</ele><time>2026-04-04T14:47:42.078Z</time></trkpt><trkpt lat="43.2002245" lon="11.4503589"><ele>156.0</ele><time>2026-04-04T14:47:43.079Z</time></trkpt><trkpt lat="43.2002581" lon="11.4505099"><ele>156.0</ele><time>2026-04-04T14:47:44.077Z</time></trkpt><trkpt lat="43.2002993" lon="11.450669"><ele>156.0</ele><time>2026-04-04T14:47:45.077Z</time></trkpt><trkpt lat="43.2003299" lon="11.4508291"><ele>156.0</ele><time>2026-04-04T14:47:46.077Z</time></trkpt><trkpt lat="43.2003679" lon="11.4509785"><ele>156.0</ele><time>2026-04-04T14:47:47.077Z</time></trkpt><trkpt lat="43.2004057" lon="11.4511223"><ele>156.0</ele><time>2026-04-04T14:47:48.077Z</time></trkpt><trkpt lat="43.2004393" lon="11.4512771"><ele>156.0</ele><time>2026-04-04T14:47:49.077Z</time></trkpt><trkpt lat="43.2004694" lon="11.4514266"><ele>156.0</ele><time>2026-04-04T14:47:50.077Z</time></trkpt><trkpt lat="43.2005028" lon="11.4515795"><ele>156.0</ele><time>2026-04-04T14:47:51.079Z</time></trkpt><trkpt lat="43.2005311" lon="11.4517203"><ele>155.6</ele><time>2026-04-04T14:47:52.077Z</time></trkpt><trkpt lat="43.2005555" lon="11.451859"><ele>155.2</ele><time>2026-04-04T14:47:53.077Z</time></trkpt><trkpt lat="43.2005893" lon="11.4519823"><ele>154.8</ele><time>2026-04-04T14:47:54.077Z</time></trkpt><trkpt lat="43.2006158" lon="11.4521136"><ele>154.4</ele><time>2026-04-04T14:47:55.077Z</time></trkpt><trkpt lat="43.2006374" lon="11.452228"><ele>154.0</ele><time>2026-04-04T14:47:56.077Z</time></trkpt><trkpt lat="43.2006608" lon="11.4523275"><ele>153.33333333333334</ele><time>2026-04-04T14:47:57.077Z</time></trkpt><trkpt lat="43.2007079" lon="11.4524493"><ele>152.66666666666669</ele><time>2026-04-04T14:47:59.077Z</time></trkpt><trkpt lat="43.2007386" lon="11.4525481"><ele>152.0</ele><time>2026-04-04T14:48:01.079Z</time></trkpt><trkpt lat="43.2007923" lon="11.4526623"><ele>151.33333333333334</ele><time>2026-04-04T14:48:03.079Z</time></trkpt><trkpt lat="43.2008233" lon="11.4527399"><ele>150.66666666666666</ele><time>2026-04-04T14:48:04.078Z</time></trkpt><trkpt lat="43.2008596" lon="11.4528384"><ele>150.0</ele><time>2026-04-04T14:48:05.078Z</time></trkpt><trkpt lat="43.2008945" lon="11.4529193"><ele>150.33333333333334</ele><time>2026-04-04T14:48:06.077Z</time></trkpt><trkpt lat="43.2009052" lon="11.4530423"><ele>150.66666666666666</ele><time>2026-04-04T14:48:07.079Z</time></trkpt><trkpt lat="43.2009152" lon="11.4531464"><ele>151.0</ele><time>2026-04-04T14:48:08.077Z</time></trkpt><trkpt lat="43.2009183" lon="11.4532656"><ele>151.33333333333331</ele><time>2026-04-04T14:48:09.078Z</time></trkpt><trkpt lat="43.2009181" lon="11.45339"><ele>151.66666666666666</ele><time>2026-04-04T14:48:10.078Z</time></trkpt><trkpt lat="43.200914" lon="11.4535201"><ele>152.0</ele><time>2026-04-04T14:48:11.079Z</time></trkpt><trkpt lat="43.2009207" lon="11.4536496"><ele>153.16666666666666</ele><time>2026-04-04T14:48:12.078Z</time></trkpt><trkpt lat="43.2009166" lon="11.4537889"><ele>154.33333333333331</ele><time>2026-04-04T14:48:13.079Z</time></trkpt><trkpt lat="43.2009174" lon="11.4539086"><ele>155.5</ele><time>2026-04-04T14:48:14.077Z</time></trkpt><trkpt lat="43.2009266" lon="11.4540401"><ele>156.66666666666666</ele><time>2026-04-04T14:48:15.078Z</time></trkpt><trkpt lat="43.2009487" lon="11.4541445"><ele>157.83333333333334</ele><time>2026-04-04T14:48:16.077Z</time></trkpt><trkpt lat="43.2009729" lon="11.4542559"><ele>159.0</ele><time>2026-04-04T14:48:17.078Z</time></trkpt><trkpt lat="43.2009916" lon="11.4543726"><ele>159.0</ele><time>2026-04-04T14:48:18.078Z</time></trkpt><trkpt lat="43.2009891" lon="11.454503"><ele>159.0</ele><time>2026-04-04T14:48:19.079Z</time></trkpt><trkpt lat="43.2009971" lon="11.454613"><ele>159.0</ele><time>2026-04-04T14:48:20.078Z</time></trkpt><trkpt lat="43.2010017" lon="11.4547319"><ele>159.0</ele><time>2026-04-04T14:48:21.077Z</time></trkpt><trkpt lat="43.2010041" lon="11.4548264"><ele>159.0</ele><time>2026-04-04T14:48:22.077Z</time></trkpt><trkpt lat="43.2010058" lon="11.4549444"><ele>159.0</ele><time>2026-04-04T14:48:23.076Z</time></trkpt><trkpt lat="43.2009983" lon="11.4550836"><ele>159.66666666666666</ele><time>2026-04-04T14:48:25.076Z</time></trkpt><trkpt lat="43.2009903" lon="11.4552129"><ele>160.33333333333334</ele><time>2026-04-04T14:48:27.078Z</time></trkpt><trkpt lat="43.2009622" lon="11.4552931"><ele>161.0</ele><time>2026-04-04T14:48:28.077Z</time></trkpt><trkpt lat="43.2009136" lon="11.4553861"><ele>161.66666666666669</ele><time>2026-04-04T14:48:29.077Z</time></trkpt><trkpt lat="43.200859" lon="11.4554852"><ele>162.33333333333334</ele><time>2026-04-04T14:48:30.077Z</time></trkpt><trkpt lat="43.2008004" lon="11.4555792"><ele>163.0</ele><time>2026-04-04T14:48:31.078Z</time></trkpt><trkpt lat="43.2007384" lon="11.4556703"><ele>162.4</ele><time>2026-04-04T14:48:32.078Z</time></trkpt><trkpt lat="43.2006641" lon="11.4557714"><ele>161.8</ele><time>2026-04-04T14:48:33.078Z</time></trkpt><trkpt lat="43.2005961" lon="11.4558683"><ele>161.2</ele><time>2026-04-04T14:48:34.078Z</time></trkpt><trkpt lat="43.2005317" lon="11.455958"><ele>160.6</ele><time>2026-04-04T14:48:35.077Z</time></trkpt><trkpt lat="43.2004718" lon="11.4560448"><ele>160.0</ele><time>2026-04-04T14:48:36.077Z</time></trkpt><trkpt lat="43.2004098" lon="11.4561328"><ele>160.0</ele><time>2026-04-04T14:48:37.078Z</time></trkpt><trkpt lat="43.2003445" lon="11.4562157"><ele>160.0</ele><time>2026-04-04T14:48:38.076Z</time></trkpt><trkpt lat="43.200277" lon="11.4563016"><ele>160.0</ele><time>2026-04-04T14:48:39.077Z</time></trkpt><trkpt lat="43.2002238" lon="11.4563781"><ele>160.0</ele><time>2026-04-04T14:48:40.076Z</time></trkpt><trkpt lat="43.2001698" lon="11.4564596"><ele>160.0</ele><time>2026-04-04T14:48:41.077Z</time></trkpt><trkpt lat="43.2001142" lon="11.4565247"><ele>160.0</ele><time>2026-04-04T14:48:42.078Z</time></trkpt><trkpt lat="43.2000554" lon="11.4565957"><ele>159.6</ele><time>2026-04-04T14:48:43.077Z</time></trkpt><trkpt lat="43.1999972" lon="11.4566687"><ele>159.2</ele><time>2026-04-04T14:48:44.077Z</time></trkpt><trkpt lat="43.1999342" lon="11.4567477"><ele>158.8</ele><time>2026-04-04T14:48:45.076Z</time></trkpt><trkpt lat="43.1998666" lon="11.4568284"><ele>158.4</ele><time>2026-04-04T14:48:46.077Z</time></trkpt><trkpt lat="43.1998009" lon="11.4569168"><ele>158.0</ele><time>2026-04-04T14:48:47.077Z</time></trkpt><trkpt lat="43.1997258" lon="11.4570151"><ele>158.0</ele><time>2026-04-04T14:48:48.078Z</time></trkpt><trkpt lat="43.1996671" lon="11.4571065"><ele>158.0</ele><time>2026-04-04T14:48:49.077Z</time></trkpt><trkpt lat="43.1996036" lon="11.4572161"><ele>158.0</ele><time>2026-04-04T14:48:50.077Z</time></trkpt><trkpt lat="43.1995374" lon="11.4573073"><ele>158.0</ele><time>2026-04-04T14:48:51.076Z</time></trkpt><trkpt lat="43.1994611" lon="11.4573916"><ele>158.0</ele><time>2026-04-04T14:48:52.077Z</time></trkpt><trkpt lat="43.1993828" lon="11.457486"><ele>159.4</ele><time>2026-04-04T14:48:53.077Z</time></trkpt><trkpt lat="43.1993015" lon="11.457573"><ele>160.8</ele><time>2026-04-04T14:48:54.077Z</time></trkpt><trkpt lat="43.1992165" lon="11.4576729"><ele>162.2</ele><time>2026-04-04T14:48:55.078Z</time></trkpt><trkpt lat="43.1991379" lon="11.4577542"><ele>163.6</ele><time>2026-04-04T14:48:56.077Z</time></trkpt><trkpt lat="43.1990759" lon="11.4578411"><ele>165.0</ele><time>2026-04-04T14:48:57.078Z</time></trkpt><trkpt lat="43.1990139" lon="11.4579179"><ele>164.16666666666666</ele><time>2026-04-04T14:48:58.077Z</time></trkpt><trkpt lat="43.198962" lon="11.457981"><ele>163.33333333333334</ele><time>2026-04-04T14:48:59.078Z</time></trkpt><trkpt lat="43.1989105" lon="11.4580408"><ele>162.5</ele><time>2026-04-04T14:49:00.078Z</time></trkpt><trkpt lat="43.1988253" lon="11.4581631"><ele>161.66666666666669</ele><time>2026-04-04T14:49:02.075Z</time></trkpt><trkpt lat="43.1987791" lon="11.4582269"><ele>160.83333333333334</ele><time>2026-04-04T14:49:03.078Z</time></trkpt><trkpt lat="43.1987349" lon="11.4582941"><ele>160.0</ele><time>2026-04-04T14:49:04.076Z</time></trkpt><trkpt lat="43.1986835" lon="11.4583734"><ele>160.0</ele><time>2026-04-04T14:49:05.076Z</time></trkpt><trkpt lat="43.1986302" lon="11.4584603"><ele>160.0</ele><time>2026-04-04T14:49:06.077Z</time></trkpt><trkpt lat="43.1985652" lon="11.458563"><ele>160.0</ele><time>2026-04-04T14:49:07.078Z</time></trkpt><trkpt lat="43.1984942" lon="11.4586701"><ele>160.0</ele><time>2026-04-04T14:49:08.076Z</time></trkpt><trkpt lat="43.1984268" lon="11.4587834"><ele>160.0</ele><time>2026-04-04T14:49:09.076Z</time></trkpt><trkpt lat="43.1983497" lon="11.4588981"><ele>159.6</ele><time>2026-04-04T14:49:10.076Z</time></trkpt><trkpt lat="43.1982808" lon="11.4590049"><ele>159.2</ele><time>2026-04-04T14:49:11.078Z</time></trkpt><trkpt lat="43.1982178" lon="11.4591099"><ele>158.8</ele><time>2026-04-04T14:49:12.076Z</time></trkpt><trkpt lat="43.1981482" lon="11.4592351"><ele>158.4</ele><time>2026-04-04T14:49:13.077Z</time></trkpt><trkpt lat="43.1980785" lon="11.4593455"><ele>158.0</ele><time>2026-04-04T14:49:14.076Z</time></trkpt><trkpt lat="43.1980052" lon="11.4594589"><ele>157.4</ele><time>2026-04-04T14:49:15.078Z</time></trkpt><trkpt lat="43.1979409" lon="11.4595637"><ele>156.8</ele><time>2026-04-04T14:49:16.077Z</time></trkpt><trkpt lat="43.1978757" lon="11.4596736"><ele>156.2</ele><time>2026-04-04T14:49:17.077Z</time></trkpt><trkpt lat="43.1978089" lon="11.4597758"><ele>155.6</ele><time>2026-04-04T14:49:18.076Z</time></trkpt><trkpt lat="43.1977426" lon="11.4598855"><ele>155.0</ele><time>2026-04-04T14:49:19.078Z</time></trkpt><trkpt lat="43.1976761" lon="11.4599961"><ele>155.0</ele><time>2026-04-04T14:49:20.077Z</time></trkpt><trkpt lat="43.197607" lon="11.4600953"><ele>155.0</ele><time>2026-04-04T14:49:21.077Z</time></trkpt><trkpt lat="43.1975426" lon="11.4601883"><ele>155.0</ele><time>2026-04-04T14:49:22.077Z</time></trkpt><trkpt lat="43.1974738" lon="11.4602955"><ele>155.0</ele><time>2026-04-04T14:49:23.077Z</time></trkpt><trkpt lat="43.1974036" lon="11.4604012"><ele>155.0</ele><time>2026-04-04T14:49:24.076Z</time></trkpt><trkpt lat="43.1973387" lon="11.4605042"><ele>155.2</ele><time>2026-04-04T14:49:25.076Z</time></trkpt><trkpt lat="43.1972779" lon="11.4606026"><ele>155.4</ele><time>2026-04-04T14:49:26.078Z</time></trkpt><trkpt lat="43.19721" lon="11.4607025"><ele>155.6</ele><time>2026-04-04T14:49:27.076Z</time></trkpt><trkpt lat="43.1971484" lon="11.4607997"><ele>155.8</ele><time>2026-04-04T14:49:28.076Z</time></trkpt><trkpt lat="43.1970882" lon="11.4608992"><ele>156.0</ele><time>2026-04-04T14:49:29.078Z</time></trkpt><trkpt lat="43.1970322" lon="11.4609922"><ele>156.0</ele><time>2026-04-04T14:49:30.077Z</time></trkpt><trkpt lat="43.1969712" lon="11.4610917"><ele>156.0</ele><time>2026-04-04T14:49:31.077Z</time></trkpt><trkpt lat="43.1969095" lon="11.461192"><ele>156.0</ele><time>2026-04-04T14:49:32.077Z</time></trkpt><trkpt lat="43.1968504" lon="11.4612782"><ele>156.0</ele><time>2026-04-04T14:49:33.077Z</time></trkpt><trkpt lat="43.1968014" lon="11.4613569"><ele>156.0</ele><time>2026-04-04T14:49:34.078Z</time></trkpt><trkpt lat="43.1967515" lon="11.4614339"><ele>156.0</ele><time>2026-04-04T14:49:35.076Z</time></trkpt><trkpt lat="43.1967055" lon="11.4615067"><ele>155.83333333333334</ele><time>2026-04-04T14:49:36.077Z</time></trkpt><trkpt lat="43.1966673" lon="11.4615778"><ele>155.66666666666666</ele><time>2026-04-04T14:49:37.077Z</time></trkpt><trkpt lat="43.1966212" lon="11.4616642"><ele>155.5</ele><time>2026-04-04T14:49:38.076Z</time></trkpt><trkpt lat="43.1965642" lon="11.4617695"><ele>155.33333333333331</ele><time>2026-04-04T14:49:39.077Z</time></trkpt><trkpt lat="43.1965041" lon="11.4618777"><ele>155.16666666666666</ele><time>2026-04-04T14:49:40.077Z</time></trkpt><trkpt lat="43.1964423" lon="11.461983"><ele>155.0</ele><time>2026-04-04T14:49:41.076Z</time></trkpt><trkpt lat="43.1963695" lon="11.4620975"><ele>154.2</ele><time>2026-04-04T14:49:42.077Z</time></trkpt><trkpt lat="43.196306" lon="11.462204"><ele>153.4</ele><time>2026-04-04T14:49:43.076Z</time></trkpt><trkpt lat="43.1962346" lon="11.4623121"><ele>152.6</ele><time>2026-04-04T14:49:44.078Z</time></trkpt><trkpt lat="43.1961705" lon="11.4624315"><ele>151.8</ele><time>2026-04-04T14:49:45.078Z</time></trkpt><trkpt lat="43.1961065" lon="11.4625559"><ele>151.0</ele><time>2026-04-04T14:49:46.077Z</time></trkpt><trkpt lat="43.1960525" lon="11.462681"><ele>151.0</ele><time>2026-04-04T14:49:47.076Z</time></trkpt><trkpt lat="43.1959975" lon="11.4628303"><ele>151.0</ele><time>2026-04-04T14:49:48.077Z</time></trkpt><trkpt lat="43.1959467" lon="11.4629795"><ele>151.0</ele><time>2026-04-04T14:49:49.077Z</time></trkpt><trkpt lat="43.1959006" lon="11.4631119"><ele>151.0</ele><time>2026-04-04T14:49:50.076Z</time></trkpt><trkpt lat="43.1958527" lon="11.4632528"><ele>151.0</ele><time>2026-04-04T14:49:51.077Z</time></trkpt><trkpt lat="43.1957912" lon="11.463404"><ele>151.0</ele><time>2026-04-04T14:49:52.077Z</time></trkpt><trkpt lat="43.1957203" lon="11.4635762"><ele>151.0</ele><time>2026-04-04T14:49:53.077Z</time></trkpt><trkpt lat="43.1956337" lon="11.4637807"><ele>151.0</ele><time>2026-04-04T14:49:54.076Z</time></trkpt><trkpt lat="43.195543" lon="11.463996"><ele>151.0</ele><time>2026-04-04T14:49:55.076Z</time></trkpt><trkpt lat="43.1954517" lon="11.4642085"><ele>151.0</ele><time>2026-04-04T14:49:56.076Z</time></trkpt><trkpt lat="43.1953753" lon="11.4643922"><ele>151.0</ele><time>2026-04-04T14:49:57.076Z</time></trkpt><trkpt lat="43.1953001" lon="11.4645655"><ele>151.5</ele><time>2026-04-04T14:49:58.076Z</time></trkpt><trkpt lat="43.19523" lon="11.4647161"><ele>152.0</ele><time>2026-04-04T14:49:59.077Z</time></trkpt><trkpt lat="43.1951715" lon="11.464854"><ele>152.5</ele><time>2026-04-04T14:50:00.077Z</time></trkpt><trkpt lat="43.1951177" lon="11.4649887"><ele>153.0</ele><time>2026-04-04T14:50:01.076Z</time></trkpt><trkpt lat="43.1950647" lon="11.4651158"><ele>153.0</ele><time>2026-04-04T14:50:02.076Z</time></trkpt><trkpt lat="43.1950236" lon="11.4652219"><ele>153.0</ele><time>2026-04-04T14:50:03.076Z</time></trkpt><trkpt lat="43.1949915" lon="11.465312"><ele>153.0</ele><time>2026-04-04T14:50:04.077Z</time></trkpt><trkpt lat="43.1949682" lon="11.4653974"><ele>153.0</ele><time>2026-04-04T14:50:05.077Z</time></trkpt><trkpt lat="43.1949319" lon="11.4655358"><ele>153.0</ele><time>2026-04-04T14:50:07.077Z</time></trkpt><trkpt lat="43.1949379" lon="11.4656434"><ele>153.0</ele><time>2026-04-04T14:50:09.075Z</time></trkpt><trkpt lat="43.1949732" lon="11.4657584"><ele>153.4</ele><time>2026-04-04T14:50:11.076Z</time></trkpt><trkpt lat="43.1950432" lon="11.4658875"><ele>153.8</ele><time>2026-04-04T14:50:13.077Z</time></trkpt><trkpt lat="43.1950993" lon="11.4659586"><ele>154.2</ele><time>2026-04-04T14:50:14.077Z</time></trkpt><trkpt lat="43.1951595" lon="11.4660356"><ele>154.6</ele><time>2026-04-04T14:50:15.076Z</time></trkpt><trkpt lat="43.1952354" lon="11.4660995"><ele>155.0</ele><time>2026-04-04T14:50:16.075Z</time></trkpt><trkpt lat="43.195304" lon="11.4661806"><ele>155.0</ele><time>2026-04-04T14:50:17.077Z</time></trkpt><trkpt lat="43.1953598" lon="11.4662691"><ele>155.0</ele><time>2026-04-04T14:50:18.077Z</time></trkpt><trkpt lat="43.1953974" lon="11.4663661"><ele>155.0</ele><time>2026-04-04T14:50:19.077Z</time></trkpt><trkpt lat="43.1954288" lon="11.4664752"><ele>155.0</ele><time>2026-04-04T14:50:20.077Z</time></trkpt><trkpt lat="43.1954531" lon="11.4665859"><ele>155.0</ele><time>2026-04-04T14:50:21.078Z</time></trkpt><trkpt lat="43.1954641" lon="11.4667084"><ele>155.0</ele><time>2026-04-04T14:50:22.076Z</time></trkpt><trkpt lat="43.1954748" lon="11.466824"><ele>155.5</ele><time>2026-04-04T14:50:23.076Z</time></trkpt><trkpt lat="43.1954921" lon="11.4669392"><ele>156.0</ele><time>2026-04-04T14:50:24.076Z</time></trkpt><trkpt lat="43.1955081" lon="11.4670667"><ele>156.5</ele><time>2026-04-04T14:50:25.076Z</time></trkpt><trkpt lat="43.1955313" lon="11.4671669"><ele>157.0</ele><time>2026-04-04T14:50:26.077Z</time></trkpt><trkpt lat="43.1955587" lon="11.4672771"><ele>157.5</ele><time>2026-04-04T14:50:27.077Z</time></trkpt><trkpt lat="43.1955905" lon="11.4673901"><ele>158.0</ele><time>2026-04-04T14:50:28.076Z</time></trkpt><trkpt lat="43.1956426" lon="11.46746"><ele>159.00000000000003</ele><time>2026-04-04T14:50:29.077Z</time></trkpt><trkpt lat="43.1956981" lon="11.4675306"><ele>160.0</ele><time>2026-04-04T14:50:30.076Z</time></trkpt><trkpt lat="43.1957582" lon="11.467579"><ele>161.0</ele><time>2026-04-04T14:50:31.077Z</time></trkpt><trkpt lat="43.1958245" lon="11.4676147"><ele>162.0</ele><time>2026-04-04T14:50:32.078Z</time></trkpt><trkpt lat="43.1958889" lon="11.4676399"><ele>163.0</ele><time>2026-04-04T14:50:33.076Z</time></trkpt><trkpt lat="43.1959518" lon="11.4676635"><ele>164.00000000000003</ele><time>2026-04-04T14:50:34.075Z</time></trkpt><trkpt lat="43.1960159" lon="11.4676898"><ele>165.0</ele><time>2026-04-04T14:50:35.076Z</time></trkpt><trkpt lat="43.1960798" lon="11.4677302"><ele>165.0</ele><time>2026-04-04T14:50:36.077Z</time></trkpt><trkpt lat="43.1961404" lon="11.4677769"><ele>165.0</ele><time>2026-04-04T14:50:37.078Z</time></trkpt><trkpt lat="43.1962064" lon="11.4678324"><ele>165.0</ele><time>2026-04-04T14:50:38.076Z</time></trkpt><trkpt lat="43.19627" lon="11.4679053"><ele>165.0</ele><time>2026-04-04T14:50:39.077Z</time></trkpt><trkpt lat="43.19634" lon="11.4679812"><ele>165.0</ele><time>2026-04-04T14:50:40.075Z</time></trkpt><trkpt lat="43.1963859" lon="11.468069"><ele>165.0</ele><time>2026-04-04T14:50:41.077Z</time></trkpt><trkpt lat="43.1964425" lon="11.4681604"><ele>165.33333333333334</ele><time>2026-04-04T14:50:42.076Z</time></trkpt><trkpt lat="43.1964992" lon="11.4682471"><ele>165.66666666666666</ele><time>2026-04-04T14:50:43.075Z</time></trkpt><trkpt lat="43.1965494" lon="11.4683377"><ele>166.0</ele><time>2026-04-04T14:50:44.076Z</time></trkpt><trkpt lat="43.1965818" lon="11.4684353"><ele>166.33333333333331</ele><time>2026-04-04T14:50:45.077Z</time></trkpt><trkpt lat="43.1966085" lon="11.4685396"><ele>166.66666666666666</ele><time>2026-04-04T14:50:46.077Z</time></trkpt><trkpt lat="43.1966258" lon="11.4686489"><ele>167.0</ele><time>2026-04-04T14:50:47.076Z</time></trkpt><trkpt lat="43.1966379" lon="11.4687465"><ele>169.33333333333331</ele><time>2026-04-04T14:50:48.076Z</time></trkpt><trkpt lat="43.1966675" lon="11.4688962"><ele>171.66666666666666</ele><time>2026-04-04T14:50:50.076Z</time></trkpt><trkpt lat="43.1967043" lon="11.4689779"><ele>174.0</ele><time>2026-04-04T14:50:51.076Z</time></trkpt><trkpt lat="43.196747" lon="11.4690533"><ele>176.33333333333334</ele><time>2026-04-04T14:50:52.075Z</time></trkpt><trkpt lat="43.1967868" lon="11.4691259"><ele>178.66666666666669</ele><time>2026-04-04T14:50:53.076Z</time></trkpt><trkpt lat="43.1968352" lon="11.4692027"><ele>181.0</ele><time>2026-04-04T14:50:54.077Z</time></trkpt><trkpt lat="43.1968809" lon="11.4692663"><ele>181.0</ele><time>2026-04-04T14:50:55.077Z</time></trkpt><trkpt lat="43.1969694" lon="11.4693986"><ele>181.0</ele><time>2026-04-04T14:50:57.076Z</time></trkpt><trkpt lat="43.1970111" lon="11.4694896"><ele>181.0</ele><time>2026-04-04T14:50:58.077Z</time></trkpt><trkpt lat="43.1970521" lon="11.4695875"><ele>181.0</ele><time>2026-04-04T14:50:59.075Z</time></trkpt><trkpt lat="43.197095" lon="11.4696902"><ele>181.0</ele><time>2026-04-04T14:51:00.077Z</time></trkpt><trkpt lat="43.1971482" lon="11.4697836"><ele>181.16666666666669</ele><time>2026-04-04T14:51:01.076Z</time></trkpt><trkpt lat="43.1971868" lon="11.4698903"><ele>181.33333333333334</ele><time>2026-04-04T14:51:02.075Z</time></trkpt><trkpt lat="43.1972199" lon="11.4699907"><ele>181.5</ele><time>2026-04-04T14:51:03.076Z</time></trkpt><trkpt lat="43.1972489" lon="11.4700881"><ele>181.66666666666666</ele><time>2026-04-04T14:51:04.076Z</time></trkpt><trkpt lat="43.1972833" lon="11.4701756"><ele>181.83333333333331</ele><time>2026-04-04T14:51:05.076Z</time></trkpt><trkpt lat="43.1973236" lon="11.4702581"><ele>182.0</ele><time>2026-04-04T14:51:06.076Z</time></trkpt><trkpt lat="43.1973632" lon="11.470333"><ele>183.16666666666666</ele><time>2026-04-04T14:51:07.076Z</time></trkpt><trkpt lat="43.1974062" lon="11.4704018"><ele>184.33333333333331</ele><time>2026-04-04T14:51:08.076Z</time></trkpt><trkpt lat="43.1974531" lon="11.4704596"><ele>185.5</ele><time>2026-04-04T14:51:09.076Z</time></trkpt><trkpt lat="43.1975821" lon="11.4705386"><ele>186.66666666666666</ele><time>2026-04-04T14:51:11.076Z</time></trkpt><trkpt lat="43.1976594" lon="11.4705499"><ele>187.83333333333334</ele><time>2026-04-04T14:51:12.075Z</time></trkpt><trkpt lat="43.1977412" lon="11.4705615"><ele>189.0</ele><time>2026-04-04T14:51:13.077Z</time></trkpt><trkpt lat="43.1978153" lon="11.4705828"><ele>190.83333333333334</ele><time>2026-04-04T14:51:14.077Z</time></trkpt><trkpt lat="43.197892" lon="11.4705982"><ele>192.66666666666669</ele><time>2026-04-04T14:51:15.075Z</time></trkpt><trkpt lat="43.1979733" lon="11.4706488"><ele>194.5</ele><time>2026-04-04T14:51:16.076Z</time></trkpt><trkpt lat="43.198044" lon="11.4706785"><ele>196.33333333333334</ele><time>2026-04-04T14:51:17.076Z</time></trkpt><trkpt lat="43.1981355" lon="11.4707473"><ele>198.16666666666669</ele><time>2026-04-04T14:51:19.077Z</time></trkpt><trkpt lat="43.1982016" lon="11.4708263"><ele>200.0</ele><time>2026-04-04T14:51:22.075Z</time></trkpt><trkpt lat="43.1982717" lon="11.47089"><ele>200.66666666666669</ele><time>2026-04-04T14:51:24.075Z</time></trkpt><trkpt lat="43.1983308" lon="11.4710227"><ele>201.33333333333334</ele><time>2026-04-04T14:51:26.075Z</time></trkpt><trkpt lat="43.1983847" lon="11.4711018"><ele>202.0</ele><time>2026-04-04T14:51:27.075Z</time></trkpt><trkpt lat="43.1984265" lon="11.4711903"><ele>202.66666666666669</ele><time>2026-04-04T14:51:28.077Z</time></trkpt><trkpt lat="43.198462" lon="11.4713006"><ele>203.33333333333334</ele><time>2026-04-04T14:51:29.077Z</time></trkpt><trkpt lat="43.198502" lon="11.471387"><ele>204.0</ele><time>2026-04-04T14:51:30.076Z</time></trkpt><trkpt lat="43.1985216" lon="11.4714975"><ele>205.0</ele><time>2026-04-04T14:51:31.077Z</time></trkpt><trkpt lat="43.1985405" lon="11.4716024"><ele>206.0</ele><time>2026-04-04T14:51:32.076Z</time></trkpt><trkpt lat="43.1985459" lon="11.4717021"><ele>207.0</ele><time>2026-04-04T14:51:33.075Z</time></trkpt><trkpt lat="43.1985663" lon="11.4718352"><ele>208.0</ele><time>2026-04-04T14:51:34.076Z</time></trkpt><trkpt lat="43.198566" lon="11.4719565"><ele>209.0</ele><time>2026-04-04T14:51:35.076Z</time></trkpt><trkpt lat="43.1985717" lon="11.4720739"><ele>210.0</ele><time>2026-04-04T14:51:36.075Z</time></trkpt><trkpt lat="43.1985611" lon="11.4722564"><ele>210.5</ele><time>2026-04-04T14:51:38.076Z</time></trkpt><trkpt lat="43.1985627" lon="11.4723459"><ele>211.0</ele><time>2026-04-04T14:51:39.077Z</time></trkpt><trkpt lat="43.1985473" lon="11.4724678"><ele>211.5</ele><time>2026-04-04T14:51:40.077Z</time></trkpt><trkpt lat="43.1985339" lon="11.4725691"><ele>212.0</ele><time>2026-04-04T14:51:41.076Z</time></trkpt><trkpt lat="43.1985393" lon="11.472674"><ele>212.5</ele><time>2026-04-04T14:51:42.076Z</time></trkpt><trkpt lat="43.1985423" lon="11.4727839"><ele>213.0</ele><time>2026-04-04T14:51:43.076Z</time></trkpt><trkpt lat="43.1985828" lon="11.4729014"><ele>213.16666666666666</ele><time>2026-04-04T14:51:44.075Z</time></trkpt><trkpt lat="43.1986188" lon="11.472998"><ele>213.33333333333331</ele><time>2026-04-04T14:51:45.075Z</time></trkpt><trkpt lat="43.1986707" lon="11.4730813"><ele>213.5</ele><time>2026-04-04T14:51:46.076Z</time></trkpt><trkpt lat="43.1987123" lon="11.4731914"><ele>213.66666666666666</ele><time>2026-04-04T14:51:47.075Z</time></trkpt><trkpt lat="43.1987487" lon="11.4733022"><ele>213.83333333333331</ele><time>2026-04-04T14:51:48.075Z</time></trkpt><trkpt lat="43.1987807" lon="11.4733941"><ele>214.0</ele><time>2026-04-04T14:51:49.076Z</time></trkpt><trkpt lat="43.1988189" lon="11.4734748"><ele>213.99999999999997</ele><time>2026-04-04T14:51:50.075Z</time></trkpt><trkpt lat="43.1988711" lon="11.4736198"><ele>214.0</ele><time>2026-04-04T14:51:52.075Z</time></trkpt><trkpt lat="43.1988904" lon="11.4737159"><ele>214.0</ele><time>2026-04-04T14:51:53.076Z</time></trkpt><trkpt lat="43.1989009" lon="11.473821"><ele>214.0</ele><time>2026-04-04T14:51:54.075Z</time></trkpt><trkpt lat="43.1988984" lon="11.4739258"><ele>213.99999999999997</ele><time>2026-04-04T14:51:55.076Z</time></trkpt><trkpt lat="43.1988969" lon="11.474042"><ele>214.0</ele><time>2026-04-04T14:51:56.076Z</time></trkpt><trkpt lat="43.1989039" lon="11.4741479"><ele>212.2</ele><time>2026-04-04T14:51:57.074Z</time></trkpt><trkpt lat="43.1989196" lon="11.4742694"><ele>210.39999999999998</ele><time>2026-04-04T14:51:58.076Z</time></trkpt><trkpt lat="43.1989535" lon="11.4743975"><ele>208.6</ele><time>2026-04-04T14:51:59.076Z</time></trkpt><trkpt lat="43.1990074" lon="11.474517"><ele>206.8</ele><time>2026-04-04T14:52:00.076Z</time></trkpt><trkpt lat="43.1990635" lon="11.4746358"><ele>205.0</ele><time>2026-04-04T14:52:01.076Z</time></trkpt><trkpt lat="43.1991284" lon="11.4747509"><ele>203.8</ele><time>2026-04-04T14:52:02.076Z</time></trkpt><trkpt lat="43.199201" lon="11.4748535"><ele>202.6</ele><time>2026-04-04T14:52:03.076Z</time></trkpt><trkpt lat="43.199272" lon="11.4749668"><ele>201.39999999999998</ele><time>2026-04-04T14:52:04.076Z</time></trkpt><trkpt lat="43.1993376" lon="11.4750885"><ele>200.2</ele><time>2026-04-04T14:52:05.076Z</time></trkpt><trkpt lat="43.1994122" lon="11.4751992"><ele>199.0</ele><time>2026-04-04T14:52:06.077Z</time></trkpt><trkpt lat="43.1994758" lon="11.4753116"><ele>198.99999999999997</ele><time>2026-04-04T14:52:07.075Z</time></trkpt><trkpt lat="43.1995509" lon="11.4754125"><ele>199.0</ele><time>2026-04-04T14:52:08.075Z</time></trkpt><trkpt lat="43.1996129" lon="11.4754962"><ele>199.0</ele><time>2026-04-04T14:52:09.077Z</time></trkpt><trkpt lat="43.1996757" lon="11.4755705"><ele>199.0</ele><time>2026-04-04T14:52:10.077Z</time></trkpt><trkpt lat="43.1997368" lon="11.4756362"><ele>198.99999999999997</ele><time>2026-04-04T14:52:11.075Z</time></trkpt><trkpt lat="43.1998102" lon="11.4756879"><ele>199.0</ele><time>2026-04-04T14:52:12.077Z</time></trkpt><trkpt lat="43.1998855" lon="11.4757411"><ele>200.16666666666666</ele><time>2026-04-04T14:52:13.076Z</time></trkpt><trkpt lat="43.1999592" lon="11.475794"><ele>201.33333333333331</ele><time>2026-04-04T14:52:14.075Z</time></trkpt><trkpt lat="43.2000251" lon="11.4758581"><ele>202.5</ele><time>2026-04-04T14:52:15.076Z</time></trkpt><trkpt lat="43.2000867" lon="11.4759364"><ele>203.66666666666669</ele><time>2026-04-04T14:52:16.074Z</time></trkpt><trkpt lat="43.2001483" lon="11.4760201"><ele>204.83333333333334</ele><time>2026-04-04T14:52:17.077Z</time></trkpt><trkpt lat="43.2002176" lon="11.4761032"><ele>206.0</ele><time>2026-04-04T14:52:18.075Z</time></trkpt><trkpt lat="43.2002911" lon="11.4761694"><ele>206.0</ele><time>2026-04-04T14:52:19.077Z</time></trkpt><trkpt lat="43.2003663" lon="11.4762519"><ele>206.0</ele><time>2026-04-04T14:52:20.075Z</time></trkpt><trkpt lat="43.200444" lon="11.4763247"><ele>206.0</ele><time>2026-04-04T14:52:21.076Z</time></trkpt><trkpt lat="43.2005262" lon="11.4764073"><ele>206.0</ele><time>2026-04-04T14:52:22.075Z</time></trkpt><trkpt lat="43.2006081" lon="11.4764819"><ele>206.0</ele><time>2026-04-04T14:52:23.076Z</time></trkpt><trkpt lat="43.2006872" lon="11.4765675"><ele>206.0</ele><time>2026-04-04T14:52:24.075Z</time></trkpt><trkpt lat="43.200757" lon="11.4766749"><ele>206.0</ele><time>2026-04-04T14:52:25.076Z</time></trkpt><trkpt lat="43.2008152" lon="11.4768002"><ele>206.0</ele><time>2026-04-04T14:52:26.074Z</time></trkpt><trkpt lat="43.2008711" lon="11.476923"><ele>206.0</ele><time>2026-04-04T14:52:27.076Z</time></trkpt><trkpt lat="43.2009233" lon="11.4770473"><ele>206.0</ele><time>2026-04-04T14:52:28.075Z</time></trkpt><trkpt lat="43.2009793" lon="11.477171"><ele>206.0</ele><time>2026-04-04T14:52:29.077Z</time></trkpt><trkpt lat="43.2010215" lon="11.4773031"><ele>206.0</ele><time>2026-04-04T14:52:30.074Z</time></trkpt><trkpt lat="43.2010697" lon="11.4774359"><ele>206.0</ele><time>2026-04-04T14:52:31.075Z</time></trkpt><trkpt lat="43.2011109" lon="11.4775576"><ele>206.0</ele><time>2026-04-04T14:52:32.077Z</time></trkpt><trkpt lat="43.2011668" lon="11.4776724"><ele>206.0</ele><time>2026-04-04T14:52:33.075Z</time></trkpt><trkpt lat="43.2012127" lon="11.4777944"><ele>206.0</ele><time>2026-04-04T14:52:34.076Z</time></trkpt><trkpt lat="43.2012658" lon="11.4779081"><ele>206.0</ele><time>2026-04-04T14:52:35.077Z</time></trkpt><trkpt lat="43.2013172" lon="11.4780169"><ele>206.0</ele><time>2026-04-04T14:52:36.076Z</time></trkpt><trkpt lat="43.2013646" lon="11.4781325"><ele>206.0</ele><time>2026-04-04T14:52:37.074Z</time></trkpt><trkpt lat="43.201416" lon="11.4782529"><ele>206.0</ele><time>2026-04-04T14:52:38.076Z</time></trkpt><trkpt lat="43.2014691" lon="11.4783675"><ele>206.60000000000002</ele><time>2026-04-04T14:52:39.076Z</time></trkpt><trkpt lat="43.2015238" lon="11.4784946"><ele>207.2</ele><time>2026-04-04T14:52:40.076Z</time></trkpt><trkpt lat="43.2015679" lon="11.4786185"><ele>207.8</ele><time>2026-04-04T14:52:41.075Z</time></trkpt><trkpt lat="43.2016075" lon="11.4787378"><ele>208.39999999999998</ele><time>2026-04-04T14:52:42.076Z</time></trkpt><trkpt lat="43.2016508" lon="11.4788666"><ele>209.0</ele><time>2026-04-04T14:52:43.075Z</time></trkpt><trkpt lat="43.2016908" lon="11.4789959"><ele>209.50000000000003</ele><time>2026-04-04T14:52:44.076Z</time></trkpt><trkpt lat="43.2017266" lon="11.4791202"><ele>210.0</ele><time>2026-04-04T14:52:45.075Z</time></trkpt><trkpt lat="43.201758" lon="11.4792391"><ele>210.5</ele><time>2026-04-04T14:52:46.075Z</time></trkpt><trkpt lat="43.2017881" lon="11.4793436"><ele>211.0</ele><time>2026-04-04T14:52:47.075Z</time></trkpt><trkpt lat="43.2018029" lon="11.4794442"><ele>211.50000000000003</ele><time>2026-04-04T14:52:48.075Z</time></trkpt><trkpt lat="43.2018383" lon="11.479565"><ele>212.0</ele><time>2026-04-04T14:52:49.075Z</time></trkpt><trkpt lat="43.201873" lon="11.4796869"><ele>212.0</ele><time>2026-04-04T14:52:50.076Z</time></trkpt><trkpt lat="43.2019132" lon="11.479802"><ele>212.0</ele><time>2026-04-04T14:52:51.076Z</time></trkpt><trkpt lat="43.2019488" lon="11.4799322"><ele>212.0</ele><time>2026-04-04T14:52:52.075Z</time></trkpt><trkpt lat="43.2019913" lon="11.4800542"><ele>212.0</ele><time>2026-04-04T14:52:53.076Z</time></trkpt><trkpt lat="43.2020337" lon="11.480182"><ele>212.0</ele><time>2026-04-04T14:52:54.075Z</time></trkpt><trkpt lat="43.2020813" lon="11.4803079"><ele>212.0</ele><time>2026-04-04T14:52:55.076Z</time></trkpt><trkpt lat="43.2021345" lon="11.480431"><ele>212.0</ele><time>2026-04-04T14:52:56.076Z</time></trkpt><trkpt lat="43.2021808" lon="11.4805491"><ele>212.0</ele><time>2026-04-04T14:52:57.075Z</time></trkpt><trkpt lat="43.2022181" lon="11.4806724"><ele>212.0</ele><time>2026-04-04T14:52:58.076Z</time></trkpt><trkpt lat="43.2022479" lon="11.4808015"><ele>212.0</ele><time>2026-04-04T14:52:59.074Z</time></trkpt><trkpt lat="43.2022677" lon="11.4809317"><ele>212.39999999999998</ele><time>2026-04-04T14:53:00.074Z</time></trkpt><trkpt lat="43.2022881" lon="11.4810652"><ele>212.79999999999998</ele><time>2026-04-04T14:53:01.076Z</time></trkpt><trkpt lat="43.2023104" lon="11.4812062"><ele>213.2</ele><time>2026-04-04T14:53:02.075Z</time></trkpt><trkpt lat="43.2023261" lon="11.4813439"><ele>213.6</ele><time>2026-04-04T14:53:03.074Z</time></trkpt><trkpt lat="43.2023342" lon="11.4814917"><ele>214.0</ele><time>2026-04-04T14:53:04.076Z</time></trkpt><trkpt lat="43.2023452" lon="11.4816322"><ele>214.0</ele><time>2026-04-04T14:53:05.076Z</time></trkpt><trkpt lat="43.2023479" lon="11.4817682"><ele>213.99999999999997</ele><time>2026-04-04T14:53:06.075Z</time></trkpt><trkpt lat="43.2023384" lon="11.4819068"><ele>213.99999999999997</ele><time>2026-04-04T14:53:07.075Z</time></trkpt><trkpt lat="43.2023208" lon="11.4820394"><ele>214.0</ele><time>2026-04-04T14:53:08.077Z</time></trkpt><trkpt lat="43.2023004" lon="11.4821638"><ele>214.0</ele><time>2026-04-04T14:53:09.075Z</time></trkpt><trkpt lat="43.2022738" lon="11.4822879"><ele>215.79999999999998</ele><time>2026-04-04T14:53:10.076Z</time></trkpt><trkpt lat="43.2022532" lon="11.4824143"><ele>217.59999999999997</ele><time>2026-04-04T14:53:11.076Z</time></trkpt><trkpt lat="43.20224" lon="11.4825399"><ele>219.4</ele><time>2026-04-04T14:53:12.076Z</time></trkpt><trkpt lat="43.2022277" lon="11.4826687"><ele>221.2</ele><time>2026-04-04T14:53:13.075Z</time></trkpt><trkpt lat="43.2022297" lon="11.4827971"><ele>223.0</ele><time>2026-04-04T14:53:14.075Z</time></trkpt><trkpt lat="43.2022321" lon="11.4829099"><ele>225.8</ele><time>2026-04-04T14:53:15.075Z</time></trkpt><trkpt lat="43.202221" lon="11.4830477"><ele>228.60000000000002</ele><time>2026-04-04T14:53:16.075Z</time></trkpt><trkpt lat="43.2021958" lon="11.4831741"><ele>231.39999999999998</ele><time>2026-04-04T14:53:17.076Z</time></trkpt><trkpt lat="43.2021594" lon="11.4832841"><ele>234.2</ele><time>2026-04-04T14:53:18.075Z</time></trkpt><trkpt lat="43.2021052" lon="11.4833878"><ele>237.0</ele><time>2026-04-04T14:53:19.076Z</time></trkpt><trkpt lat="43.2020497" lon="11.4834897"><ele>237.0</ele><time>2026-04-04T14:53:20.076Z</time></trkpt><trkpt lat="43.2019963" lon="11.483586"><ele>237.0</ele><time>2026-04-04T14:53:21.075Z</time></trkpt><trkpt lat="43.2019447" lon="11.483679"><ele>237.0</ele><time>2026-04-04T14:53:22.075Z</time></trkpt><trkpt lat="43.2018963" lon="11.483761"><ele>237.0</ele><time>2026-04-04T14:53:23.076Z</time></trkpt><trkpt lat="43.2018328" lon="11.4838636"><ele>237.0</ele><time>2026-04-04T14:53:25.075Z</time></trkpt><trkpt lat="43.2018005" lon="11.4839438"><ele>237.0</ele><time>2026-04-04T14:53:28.076Z</time></trkpt><trkpt lat="43.201788" lon="11.4840648"><ele>240.2</ele><time>2026-04-04T14:53:30.074Z</time></trkpt><trkpt lat="43.2018329" lon="11.4842266"><ele>243.39999999999998</ele><time>2026-04-04T14:53:32.074Z</time></trkpt><trkpt lat="43.2018709" lon="11.4843155"><ele>246.60000000000002</ele><time>2026-04-04T14:53:33.074Z</time></trkpt><trkpt lat="43.2019173" lon="11.4844112"><ele>249.8</ele><time>2026-04-04T14:53:34.075Z</time></trkpt><trkpt lat="43.2019543" lon="11.4844951"><ele>253.0</ele><time>2026-04-04T14:53:35.075Z</time></trkpt><trkpt lat="43.2020189" lon="11.4846254"><ele>254.8</ele><time>2026-04-04T14:53:37.074Z</time></trkpt><trkpt lat="43.2020557" lon="11.4847738"><ele>256.6</ele><time>2026-04-04T14:54:11.074Z</time></trkpt><trkpt lat="43.2020735" lon="11.4849017"><ele>258.4</ele><time>2026-04-04T14:54:13.074Z</time></trkpt><trkpt lat="43.2021004" lon="11.4850569"><ele>260.2</ele><time>2026-04-04T14:54:15.075Z</time></trkpt><trkpt lat="43.2021213" lon="11.4851495"><ele>262.0</ele><time>2026-04-04T14:54:16.075Z</time></trkpt><trkpt lat="43.2021195" lon="11.485263"><ele>262.0</ele><time>2026-04-04T14:54:17.073Z</time></trkpt><trkpt lat="43.2021317" lon="11.48535"><ele>262.0</ele><time>2026-04-04T14:54:18.075Z</time></trkpt><trkpt lat="43.202159" lon="11.4854371"><ele>262.0</ele><time>2026-04-04T14:54:19.077Z</time></trkpt><trkpt lat="43.2021931" lon="11.4855697"><ele>262.0</ele><time>2026-04-04T14:54:21.075Z</time></trkpt><trkpt lat="43.2022251" lon="11.4856542"><ele>262.0</ele><time>2026-04-04T14:54:22.075Z</time></trkpt><trkpt lat="43.2022817" lon="11.48581"><ele>262.0</ele><time>2026-04-04T14:54:24.075Z</time></trkpt><trkpt lat="43.2023171" lon="11.4859013"><ele>261.0</ele><time>2026-04-04T14:54:25.074Z</time></trkpt><trkpt lat="43.2023611" lon="11.4859902"><ele>260.0</ele><time>2026-04-04T14:54:26.075Z</time></trkpt><trkpt lat="43.202421" lon="11.4860766"><ele>259.0</ele><time>2026-04-04T14:54:27.075Z</time></trkpt><trkpt lat="43.2024668" lon="11.4861642"><ele>258.0</ele><time>2026-04-04T14:54:28.074Z</time></trkpt><trkpt lat="43.2025217" lon="11.4862479"><ele>257.0</ele><time>2026-04-04T14:54:29.075Z</time></trkpt><trkpt lat="43.2025819" lon="11.4863347"><ele>256.0</ele><time>2026-04-04T14:54:30.075Z</time></trkpt><trkpt lat="43.2026412" lon="11.4864202"><ele>254.66666666666666</ele><time>2026-04-04T14:54:31.074Z</time></trkpt><trkpt lat="43.2027106" lon="11.4864905"><ele>253.33333333333331</ele><time>2026-04-04T14:54:32.075Z</time></trkpt><trkpt lat="43.2027726" lon="11.486563"><ele>252.0</ele><time>2026-04-04T14:54:33.073Z</time></trkpt><trkpt lat="43.2028328" lon="11.4866339"><ele>250.66666666666669</ele><time>2026-04-04T14:54:34.074Z</time></trkpt><trkpt lat="43.2028833" lon="11.4867095"><ele>249.33333333333334</ele><time>2026-04-04T14:54:35.074Z</time></trkpt><trkpt lat="43.2029525" lon="11.4867796"><ele>248.0</ele><time>2026-04-04T14:54:36.075Z</time></trkpt><trkpt lat="43.2029982" lon="11.4868476"><ele>248.00000000000003</ele><time>2026-04-04T14:54:37.074Z</time></trkpt><trkpt lat="43.2030591" lon="11.4869072"><ele>248.0</ele><time>2026-04-04T14:54:38.076Z</time></trkpt><trkpt lat="43.2031182" lon="11.4869979"><ele>248.0</ele><time>2026-04-04T14:54:39.076Z</time></trkpt><trkpt lat="43.203183" lon="11.4870645"><ele>248.0</ele><time>2026-04-04T14:54:40.075Z</time></trkpt><trkpt lat="43.2032492" lon="11.4871494"><ele>248.00000000000003</ele><time>2026-04-04T14:54:41.076Z</time></trkpt><trkpt lat="43.2033146" lon="11.4872322"><ele>248.0</ele><time>2026-04-04T14:54:42.075Z</time></trkpt><trkpt lat="43.2033787" lon="11.487319"><ele>248.2</ele><time>2026-04-04T14:54:43.074Z</time></trkpt><trkpt lat="43.2034393" lon="11.4874003"><ele>248.4</ele><time>2026-04-04T14:54:44.075Z</time></trkpt><trkpt lat="43.2034923" lon="11.4874901"><ele>248.59999999999997</ele><time>2026-04-04T14:54:45.075Z</time></trkpt><trkpt lat="43.2035534" lon="11.4875669"><ele>248.79999999999998</ele><time>2026-04-04T14:54:46.074Z</time></trkpt><trkpt lat="43.2036208" lon="11.4876856"><ele>249.0</ele><time>2026-04-04T14:54:47.074Z</time></trkpt><trkpt lat="43.2036793" lon="11.4877867"><ele>249.0</ele><time>2026-04-04T14:54:48.075Z</time></trkpt><trkpt lat="43.2037382" lon="11.4878563"><ele>249.0</ele><time>2026-04-04T14:54:49.075Z</time></trkpt><trkpt lat="43.2037878" lon="11.4879397"><ele>249.0</ele><time>2026-04-04T14:54:50.073Z</time></trkpt><trkpt lat="43.203833" lon="11.4880258"><ele>249.0</ele><time>2026-04-04T14:54:51.075Z</time></trkpt><trkpt lat="43.2039321" lon="11.4881578"><ele>249.0</ele><time>2026-04-04T14:54:53.074Z</time></trkpt><trkpt lat="43.2039826" lon="11.4882387"><ele>249.0</ele><time>2026-04-04T14:54:54.074Z</time></trkpt><trkpt lat="43.2040314" lon="11.4883206"><ele>248.85714285714283</ele><time>2026-04-04T14:54:55.075Z</time></trkpt><trkpt lat="43.204089" lon="11.4883889"><ele>248.7142857142857</ele><time>2026-04-04T14:54:56.074Z</time></trkpt><trkpt lat="43.2041398" lon="11.4884671"><ele>248.57142857142856</ele><time>2026-04-04T14:54:57.075Z</time></trkpt><trkpt lat="43.2041785" lon="11.4885399"><ele>248.42857142857144</ele><time>2026-04-04T14:54:58.073Z</time></trkpt><trkpt lat="43.2042226" lon="11.4886284"><ele>248.2857142857143</ele><time>2026-04-04T14:54:59.074Z</time></trkpt><trkpt lat="43.2042641" lon="11.4887072"><ele>248.14285714285717</ele><time>2026-04-04T14:55:00.075Z</time></trkpt><trkpt lat="43.2043155" lon="11.4887733"><ele>248.0</ele><time>2026-04-04T14:55:01.074Z</time></trkpt><trkpt lat="43.2043592" lon="11.4888429"><ele>248.00000000000003</ele><time>2026-04-04T14:55:02.075Z</time></trkpt><trkpt lat="43.2044143" lon="11.4889278"><ele>248.0</ele><time>2026-04-04T14:55:03.074Z</time></trkpt><trkpt lat="43.2044692" lon="11.4890185"><ele>248.0</ele><time>2026-04-04T14:55:04.074Z</time></trkpt><trkpt lat="43.2045129" lon="11.4891118"><ele>248.0</ele><time>2026-04-04T14:55:05.075Z</time></trkpt><trkpt lat="43.2045513" lon="11.4892195"><ele>248.00000000000003</ele><time>2026-04-04T14:55:06.076Z</time></trkpt><trkpt lat="43.2045911" lon="11.4893219"><ele>248.0</ele><time>2026-04-04T14:55:07.076Z</time></trkpt><trkpt lat="43.2046253" lon="11.4894286"><ele>248.00000000000003</ele><time>2026-04-04T14:55:08.074Z</time></trkpt><trkpt lat="43.2046602" lon="11.4895389"><ele>248.0</ele><time>2026-04-04T14:55:09.075Z</time></trkpt><trkpt lat="43.2046968" lon="11.4896495"><ele>248.0</ele><time>2026-04-04T14:55:10.075Z</time></trkpt><trkpt lat="43.2047337" lon="11.4897569"><ele>248.0</ele><time>2026-04-04T14:55:11.075Z</time></trkpt><trkpt lat="43.2047679" lon="11.489871"><ele>248.00000000000003</ele><time>2026-04-04T14:55:12.075Z</time></trkpt><trkpt lat="43.2048008" lon="11.489983"><ele>248.0</ele><time>2026-04-04T14:55:13.073Z</time></trkpt><trkpt lat="43.2048386" lon="11.4900918"><ele>247.4</ele><time>2026-04-04T14:55:14.074Z</time></trkpt><trkpt lat="43.204884" lon="11.4902086"><ele>246.8</ele><time>2026-04-04T14:55:15.075Z</time></trkpt><trkpt lat="43.2049335" lon="11.4903063"><ele>246.2</ele><time>2026-04-04T14:55:16.074Z</time></trkpt><trkpt lat="43.2049986" lon="11.4904157"><ele>245.6</ele><time>2026-04-04T14:55:17.075Z</time></trkpt><trkpt lat="43.2050709" lon="11.4905105"><ele>245.0</ele><time>2026-04-04T14:55:18.075Z</time></trkpt><trkpt lat="43.2051381" lon="11.4905999"><ele>245.00000000000003</ele><time>2026-04-04T14:55:19.075Z</time></trkpt><trkpt lat="43.2052112" lon="11.4906849"><ele>245.0</ele><time>2026-04-04T14:55:20.073Z</time></trkpt><trkpt lat="43.2052704" lon="11.4907585"><ele>245.0</ele><time>2026-04-04T14:55:21.073Z</time></trkpt><trkpt lat="43.2053336" lon="11.4908064"><ele>245.0</ele><time>2026-04-04T14:55:22.074Z</time></trkpt><trkpt lat="43.2054" lon="11.490843"><ele>245.00000000000003</ele><time>2026-04-04T14:55:23.074Z</time></trkpt><trkpt lat="43.2054702" lon="11.4908538"><ele>245.0</ele><time>2026-04-04T14:55:24.073Z</time></trkpt><trkpt lat="43.2055428" lon="11.4908681"><ele>245.0</ele><time>2026-04-04T14:55:25.074Z</time></trkpt><trkpt lat="43.2056152" lon="11.490879"><ele>245.0</ele><time>2026-04-04T14:55:26.074Z</time></trkpt><trkpt lat="43.2056926" lon="11.490874"><ele>245.0</ele><time>2026-04-04T14:55:27.074Z</time></trkpt><trkpt lat="43.2057668" lon="11.4908808"><ele>245.0</ele><time>2026-04-04T14:55:28.075Z</time></trkpt><trkpt lat="43.2058417" lon="11.4908756"><ele>245.0</ele><time>2026-04-04T14:55:29.075Z</time></trkpt><trkpt lat="43.2059162" lon="11.490868"><ele>245.0</ele><time>2026-04-04T14:55:30.074Z</time></trkpt><trkpt lat="43.2059846" lon="11.4908666"><ele>245.0</ele><time>2026-04-04T14:55:31.074Z</time></trkpt><trkpt lat="43.2061029" lon="11.4908797"><ele>246.71428571428572</ele><time>2026-04-04T14:55:33.074Z</time></trkpt><trkpt lat="43.2061706" lon="11.4908815"><ele>248.42857142857144</ele><time>2026-04-04T14:55:34.074Z</time></trkpt><trkpt lat="43.2062411" lon="11.4908806"><ele>250.14285714285714</ele><time>2026-04-04T14:55:35.074Z</time></trkpt><trkpt lat="43.2063063" lon="11.4908741"><ele>251.85714285714286</ele><time>2026-04-04T14:55:36.075Z</time></trkpt><trkpt lat="43.2063752" lon="11.4908867"><ele>253.57142857142858</ele><time>2026-04-04T14:55:37.074Z</time></trkpt><trkpt lat="43.2064445" lon="11.4909126"><ele>255.28571428571428</ele><time>2026-04-04T14:55:38.073Z</time></trkpt><trkpt lat="43.2065107" lon="11.490949"><ele>257.0</ele><time>2026-04-04T14:55:39.074Z</time></trkpt><trkpt lat="43.2065743" lon="11.4909904"><ele>257.0</ele><time>2026-04-04T14:55:40.075Z</time></trkpt><trkpt lat="43.2066401" lon="11.4910546"><ele>257.0</ele><time>2026-04-04T14:55:41.074Z</time></trkpt><trkpt lat="43.2067065" lon="11.4911222"><ele>257.0</ele><time>2026-04-04T14:55:42.074Z</time></trkpt><trkpt lat="43.2067466" lon="11.4912052"><ele>257.0</ele><time>2026-04-04T14:55:43.074Z</time></trkpt><trkpt lat="43.2067806" lon="11.491288"><ele>257.0</ele><time>2026-04-04T14:55:44.074Z</time></trkpt><trkpt lat="43.2068215" lon="11.4913766"><ele>257.0</ele><time>2026-04-04T14:55:45.074Z</time></trkpt><trkpt lat="43.2068623" lon="11.4914692"><ele>256.33333333333337</ele><time>2026-04-04T14:55:46.074Z</time></trkpt><trkpt lat="43.2068974" lon="11.4915705"><ele>255.66666666666669</ele><time>2026-04-04T14:55:47.075Z</time></trkpt><trkpt lat="43.2069359" lon="11.4916494"><ele>255.0</ele><time>2026-04-04T14:55:48.073Z</time></trkpt><trkpt lat="43.2069733" lon="11.4917389"><ele>254.33333333333331</ele><time>2026-04-04T14:55:49.074Z</time></trkpt><trkpt lat="43.2070211" lon="11.4918209"><ele>253.66666666666666</ele><time>2026-04-04T14:55:50.074Z</time></trkpt><trkpt lat="43.2070763" lon="11.49191"><ele>253.0</ele><time>2026-04-04T14:55:51.075Z</time></trkpt><trkpt lat="43.2071312" lon="11.4919878"><ele>252.99999999999997</ele><time>2026-04-04T14:55:52.075Z</time></trkpt><trkpt lat="43.2072006" lon="11.4920472"><ele>253.0</ele><time>2026-04-04T14:55:53.075Z</time></trkpt><trkpt lat="43.2072631" lon="11.4921079"><ele>253.0</ele><time>2026-04-04T14:55:54.075Z</time></trkpt><trkpt lat="43.2073279" lon="11.4921717"><ele>253.0</ele><time>2026-04-04T14:55:55.074Z</time></trkpt><trkpt lat="43.2073934" lon="11.4922459"><ele>252.99999999999997</ele><time>2026-04-04T14:55:56.073Z</time></trkpt><trkpt lat="43.2074654" lon="11.4923119"><ele>253.0</ele><time>2026-04-04T14:55:57.075Z</time></trkpt><trkpt lat="43.2075344" lon="11.4923904"><ele>252.0</ele><time>2026-04-04T14:55:58.075Z</time></trkpt><trkpt lat="43.2076012" lon="11.4924615"><ele>251.0</ele><time>2026-04-04T14:55:59.075Z</time></trkpt><trkpt lat="43.2076773" lon="11.4925354"><ele>250.0</ele><time>2026-04-04T14:56:00.075Z</time></trkpt><trkpt lat="43.2077669" lon="11.4926227"><ele>249.0</ele><time>2026-04-04T14:56:01.074Z</time></trkpt><trkpt lat="43.2078444" lon="11.4927041"><ele>248.0</ele><time>2026-04-04T14:56:02.074Z</time></trkpt><trkpt lat="43.2079307" lon="11.4927869"><ele>248.0</ele><time>2026-04-04T14:56:03.074Z</time></trkpt><trkpt lat="43.2080026" lon="11.4928829"><ele>248.0</ele><time>2026-04-04T14:56:04.073Z</time></trkpt><trkpt lat="43.2080844" lon="11.4929782"><ele>248.0</ele><time>2026-04-04T14:56:05.075Z</time></trkpt><trkpt lat="43.2081614" lon="11.4930721"><ele>248.0</ele><time>2026-04-04T14:56:06.075Z</time></trkpt><trkpt lat="43.2082488" lon="11.49316"><ele>248.0</ele><time>2026-04-04T14:56:07.075Z</time></trkpt><trkpt lat="43.2083439" lon="11.4932351"><ele>248.4</ele><time>2026-04-04T14:56:08.075Z</time></trkpt><trkpt lat="43.2084314" lon="11.4933219"><ele>248.8</ele><time>2026-04-04T14:56:09.074Z</time></trkpt><trkpt lat="43.208523" lon="11.4933954"><ele>249.2</ele><time>2026-04-04T14:56:10.074Z</time></trkpt><trkpt lat="43.2086031" lon="11.493472"><ele>249.6</ele><time>2026-04-04T14:56:11.075Z</time></trkpt><trkpt lat="43.2086864" lon="11.4935398"><ele>250.0</ele><time>2026-04-04T14:56:12.073Z</time></trkpt><trkpt lat="43.2087671" lon="11.493621"><ele>249.99999999999997</ele><time>2026-04-04T14:56:13.074Z</time></trkpt><trkpt lat="43.2088352" lon="11.4937142"><ele>250.0</ele><time>2026-04-04T14:56:14.074Z</time></trkpt><trkpt lat="43.2088924" lon="11.4938138"><ele>250.0</ele><time>2026-04-04T14:56:15.074Z</time></trkpt><trkpt lat="43.2089476" lon="11.4939069"><ele>250.0</ele><time>2026-04-04T14:56:16.075Z</time></trkpt><trkpt lat="43.2089849" lon="11.4940101"><ele>249.99999999999997</ele><time>2026-04-04T14:56:17.074Z</time></trkpt><trkpt lat="43.2090199" lon="11.4941065"><ele>250.0</ele><time>2026-04-04T14:56:18.075Z</time></trkpt><trkpt lat="43.2090532" lon="11.4942033"><ele>251.28571428571428</ele><time>2026-04-04T14:56:19.072Z</time></trkpt><trkpt lat="43.2090897" lon="11.4942964"><ele>252.57142857142858</ele><time>2026-04-04T14:56:20.074Z</time></trkpt><trkpt lat="43.2091257" lon="11.4943902"><ele>253.85714285714286</ele><time>2026-04-04T14:56:21.074Z</time></trkpt><trkpt lat="43.20916" lon="11.4944717"><ele>255.14285714285714</ele><time>2026-04-04T14:56:22.074Z</time></trkpt><trkpt lat="43.2091919" lon="11.494567"><ele>256.42857142857144</ele><time>2026-04-04T14:56:23.074Z</time></trkpt><trkpt lat="43.2092164" lon="11.4946566"><ele>257.7142857142857</ele><time>2026-04-04T14:56:24.074Z</time></trkpt><trkpt lat="43.209231" lon="11.4947599"><ele>259.0</ele><time>2026-04-04T14:56:25.075Z</time></trkpt><trkpt lat="43.2092415" lon="11.4948615"><ele>259.3333333333333</ele><time>2026-04-04T14:56:26.073Z</time></trkpt><trkpt lat="43.209248" lon="11.4949694"><ele>259.66666666666663</ele><time>2026-04-04T14:56:27.075Z</time></trkpt><trkpt lat="43.2092716" lon="11.4950603"><ele>260.0</ele><time>2026-04-04T14:56:28.074Z</time></trkpt><trkpt lat="43.2092833" lon="11.4951546"><ele>260.3333333333333</ele><time>2026-04-04T14:56:29.075Z</time></trkpt><trkpt lat="43.2092936" lon="11.4952439"><ele>260.6666666666667</ele><time>2026-04-04T14:56:30.074Z</time></trkpt><trkpt lat="43.2093241" lon="11.4953952"><ele>261.0</ele><time>2026-04-04T14:56:32.074Z</time></trkpt><trkpt lat="43.2093393" lon="11.4954864"><ele>261.3333333333333</ele><time>2026-04-04T14:56:33.074Z</time></trkpt><trkpt lat="43.2093689" lon="11.4955698"><ele>261.6666666666667</ele><time>2026-04-04T14:56:34.075Z</time></trkpt><trkpt lat="43.2094017" lon="11.4956451"><ele>262.0</ele><time>2026-04-04T14:56:35.075Z</time></trkpt><trkpt lat="43.2094267" lon="11.4957248"><ele>262.33333333333337</ele><time>2026-04-04T14:56:36.073Z</time></trkpt><trkpt lat="43.209472" lon="11.4958843"><ele>262.6666666666667</ele><time>2026-04-04T14:56:38.074Z</time></trkpt><trkpt lat="43.2095222" lon="11.496031"><ele>263.0</ele><time>2026-04-04T14:56:40.075Z</time></trkpt><trkpt lat="43.2095452" lon="11.4961139"><ele>263.0</ele><time>2026-04-04T14:56:41.073Z</time></trkpt><trkpt lat="43.2095712" lon="11.4961963"><ele>263.0</ele><time>2026-04-04T14:56:42.075Z</time></trkpt><trkpt lat="43.2096102" lon="11.4962732"><ele>263.0</ele><time>2026-04-04T14:56:43.073Z</time></trkpt><trkpt lat="43.2096517" lon="11.4963638"><ele>263.0</ele><time>2026-04-04T14:56:44.073Z</time></trkpt><trkpt lat="43.2096927" lon="11.4964527"><ele>263.0</ele><time>2026-04-04T14:56:45.073Z</time></trkpt><trkpt lat="43.2097411" lon="11.4965346"><ele>263.0</ele><time>2026-04-04T14:56:46.075Z</time></trkpt><trkpt lat="43.2098048" lon="11.4966029"><ele>263.0</ele><time>2026-04-04T14:56:47.074Z</time></trkpt><trkpt lat="43.2098679" lon="11.496679"><ele>263.33333333333337</ele><time>2026-04-04T14:56:48.075Z</time></trkpt><trkpt lat="43.2099338" lon="11.4967457"><ele>263.6666666666667</ele><time>2026-04-04T14:56:49.073Z</time></trkpt><trkpt lat="43.2100075" lon="11.4967985"><ele>264.0</ele><time>2026-04-04T14:56:50.073Z</time></trkpt><trkpt lat="43.2100793" lon="11.4968539"><ele>264.3333333333333</ele><time>2026-04-04T14:56:51.074Z</time></trkpt><trkpt lat="43.2101468" lon="11.4969072"><ele>264.66666666666663</ele><time>2026-04-04T14:56:52.073Z</time></trkpt><trkpt lat="43.2102229" lon="11.4969603"><ele>265.0</ele><time>2026-04-04T14:56:53.073Z</time></trkpt><trkpt lat="43.2102885" lon="11.4970287"><ele>265.0</ele><time>2026-04-04T14:56:54.073Z</time></trkpt><trkpt lat="43.2103573" lon="11.497085"><ele>265.0</ele><time>2026-04-04T14:56:55.074Z</time></trkpt><trkpt lat="43.2104254" lon="11.4971399"><ele>265.0</ele><time>2026-04-04T14:56:56.072Z</time></trkpt><trkpt lat="43.2104887" lon="11.4971923"><ele>265.0</ele><time>2026-04-04T14:56:57.072Z</time></trkpt><trkpt lat="43.2105531" lon="11.4972448"><ele>265.0</ele><time>2026-04-04T14:56:58.075Z</time></trkpt><trkpt lat="43.2106163" lon="11.4973042"><ele>265.0</ele><time>2026-04-04T14:56:59.074Z</time></trkpt><trkpt lat="43.2106774" lon="11.4973495"><ele>264.8333333333333</ele><time>2026-04-04T14:57:00.073Z</time></trkpt><trkpt lat="43.2107342" lon="11.4974168"><ele>264.66666666666663</ele><time>2026-04-04T14:57:01.075Z</time></trkpt><trkpt lat="43.2107868" lon="11.4974965"><ele>264.5</ele><time>2026-04-04T14:57:02.075Z</time></trkpt><trkpt lat="43.2108327" lon="11.4975884"><ele>264.3333333333333</ele><time>2026-04-04T14:57:03.073Z</time></trkpt><trkpt lat="43.2108686" lon="11.4976919"><ele>264.1666666666667</ele><time>2026-04-04T14:57:04.074Z</time></trkpt><trkpt lat="43.2108954" lon="11.4978128"><ele>264.0</ele><time>2026-04-04T14:57:05.073Z</time></trkpt><trkpt lat="43.2109148" lon="11.4979365"><ele>263.1666666666667</ele><time>2026-04-04T14:57:06.073Z</time></trkpt><trkpt lat="43.2109303" lon="11.4980501"><ele>262.3333333333333</ele><time>2026-04-04T14:57:07.074Z</time></trkpt><trkpt lat="43.2109442" lon="11.4981661"><ele>261.5</ele><time>2026-04-04T14:57:08.073Z</time></trkpt><trkpt lat="43.2109635" lon="11.4982549"><ele>260.66666666666663</ele><time>2026-04-04T14:57:09.073Z</time></trkpt><trkpt lat="43.2109914" lon="11.4983494"><ele>259.8333333333333</ele><time>2026-04-04T14:57:10.074Z</time></trkpt><trkpt lat="43.2110346" lon="11.4984362"><ele>259.0</ele><time>2026-04-04T14:57:11.073Z</time></trkpt><trkpt lat="43.2110834" lon="11.4984924"><ele>259.0</ele><time>2026-04-04T14:57:12.075Z</time></trkpt><trkpt lat="43.2111356" lon="11.4985462"><ele>259.0</ele><time>2026-04-04T14:57:13.072Z</time></trkpt><trkpt lat="43.2111866" lon="11.4986003"><ele>259.0</ele><time>2026-04-04T14:57:14.074Z</time></trkpt><trkpt lat="43.2112456" lon="11.4986377"><ele>259.0</ele><time>2026-04-04T14:57:15.075Z</time></trkpt><trkpt lat="43.2113103" lon="11.4986599"><ele>259.0</ele><time>2026-04-04T14:57:16.075Z</time></trkpt><trkpt lat="43.211379" lon="11.4986629"><ele>259.0</ele><time>2026-04-04T14:57:17.074Z</time></trkpt><trkpt lat="43.2114504" lon="11.4986646"><ele>259.0</ele><time>2026-04-04T14:57:18.074Z</time></trkpt><trkpt lat="43.2115155" lon="11.4986512"><ele>257.2</ele><time>2026-04-04T14:57:19.074Z</time></trkpt><trkpt lat="43.2115792" lon="11.4986416"><ele>255.39999999999998</ele><time>2026-04-04T14:57:20.074Z</time></trkpt><trkpt lat="43.2116984" lon="11.4986048"><ele>253.6</ele><time>2026-04-04T14:57:22.073Z</time></trkpt><trkpt lat="43.2118169" lon="11.4985705"><ele>251.8</ele><time>2026-04-04T14:57:24.075Z</time></trkpt><trkpt lat="43.2119267" lon="11.4985738"><ele>250.0</ele><time>2026-04-04T14:57:26.073Z</time></trkpt><trkpt lat="43.2120174" lon="11.4986261"><ele>250.0</ele><time>2026-04-04T14:57:28.075Z</time></trkpt><trkpt lat="43.2121014" lon="11.4987115"><ele>250.0</ele><time>2026-04-04T14:57:30.075Z</time></trkpt><trkpt lat="43.2121729" lon="11.4988158"><ele>250.0</ele><time>2026-04-04T14:57:32.073Z</time></trkpt><trkpt lat="43.2122296" lon="11.4989276"><ele>250.0</ele><time>2026-04-04T14:57:34.074Z</time></trkpt><trkpt lat="43.2122529" lon="11.4990574"><ele>250.0</ele><time>2026-04-04T14:57:36.074Z</time></trkpt><trkpt lat="43.2122442" lon="11.4992206"><ele>248.8</ele><time>2026-04-04T14:57:38.074Z</time></trkpt><trkpt lat="43.2122227" lon="11.4993497"><ele>247.6</ele><time>2026-04-04T14:57:40.074Z</time></trkpt><trkpt lat="43.2121723" lon="11.4994484"><ele>246.39999999999998</ele><time>2026-04-04T14:57:42.073Z</time></trkpt><trkpt lat="43.2121009" lon="11.4995095"><ele>245.2</ele><time>2026-04-04T14:57:44.074Z</time></trkpt><trkpt lat="43.2120109" lon="11.4995712"><ele>244.0</ele><time>2026-04-04T14:57:46.073Z</time></trkpt><trkpt lat="43.2119256" lon="11.4996255"><ele>241.39999999999998</ele><time>2026-04-04T14:57:48.074Z</time></trkpt><trkpt lat="43.2118414" lon="11.4996652"><ele>238.79999999999998</ele><time>2026-04-04T14:57:50.073Z</time></trkpt><trkpt lat="43.2117355" lon="11.4997248"><ele>236.20000000000002</ele><time>2026-04-04T14:57:52.074Z</time></trkpt><trkpt lat="43.2116475" lon="11.4998394"><ele>233.60000000000002</ele><time>2026-04-04T14:57:54.074Z</time></trkpt><trkpt lat="43.2116075" lon="11.4999795"><ele>231.0</ele><time>2026-04-04T14:57:56.073Z</time></trkpt><trkpt lat="43.2115805" lon="11.5000599"><ele>231.0</ele><time>2026-04-04T14:57:57.074Z</time></trkpt><trkpt lat="43.2115645" lon="11.5001564"><ele>231.00000000000003</ele><time>2026-04-04T14:57:58.074Z</time></trkpt><trkpt lat="43.2115439" lon="11.500337"><ele>231.00000000000003</ele><time>2026-04-04T14:58:00.073Z</time></trkpt><trkpt lat="43.2115234" lon="11.500441"><ele>231.0</ele><time>2026-04-04T14:58:01.072Z</time></trkpt><trkpt lat="43.2114972" lon="11.5005729"><ele>231.0</ele><time>2026-04-04T14:58:02.074Z</time></trkpt><trkpt lat="43.2114698" lon="11.5006923"><ele>228.60000000000002</ele><time>2026-04-04T14:58:03.074Z</time></trkpt><trkpt lat="43.2114339" lon="11.5007998"><ele>226.20000000000002</ele><time>2026-04-04T14:58:04.074Z</time></trkpt><trkpt lat="43.2113954" lon="11.5008717"><ele>223.79999999999998</ele><time>2026-04-04T14:58:05.074Z</time></trkpt><trkpt lat="43.21129" lon="11.5009922"><ele>221.39999999999998</ele><time>2026-04-04T14:58:07.073Z</time></trkpt><trkpt lat="43.2112102" lon="11.5010466"><ele>219.0</ele><time>2026-04-04T14:58:08.073Z</time></trkpt><trkpt lat="43.2111329" lon="11.5010826"><ele>219.0</ele><time>2026-04-04T14:58:09.073Z</time></trkpt><trkpt lat="43.2110596" lon="11.5011355"><ele>218.99999999999997</ele><time>2026-04-04T14:58:10.073Z</time></trkpt><trkpt lat="43.2109912" lon="11.5011826"><ele>218.99999999999997</ele><time>2026-04-04T14:58:11.072Z</time></trkpt><trkpt lat="43.2109318" lon="11.501227"><ele>219.0</ele><time>2026-04-04T14:58:12.074Z</time></trkpt><trkpt lat="43.2108307" lon="11.501312"><ele>219.0</ele><time>2026-04-04T14:58:14.074Z</time></trkpt><trkpt lat="43.2107302" lon="11.5014405"><ele>219.14285714285714</ele><time>2026-04-04T14:58:16.073Z</time></trkpt><trkpt lat="43.2106819" lon="11.5015108"><ele>219.28571428571428</ele><time>2026-04-04T14:58:17.074Z</time></trkpt><trkpt lat="43.2106332" lon="11.501588"><ele>219.42857142857142</ele><time>2026-04-04T14:58:18.073Z</time></trkpt><trkpt lat="43.2106037" lon="11.5016728"><ele>219.57142857142856</ele><time>2026-04-04T14:58:19.072Z</time></trkpt><trkpt lat="43.2105829" lon="11.5017607"><ele>219.71428571428572</ele><time>2026-04-04T14:58:20.073Z</time></trkpt><trkpt lat="43.2105517" lon="11.5018491"><ele>219.85714285714283</ele><time>2026-04-04T14:58:21.073Z</time></trkpt><trkpt lat="43.2105244" lon="11.5019322"><ele>220.0</ele><time>2026-04-04T14:58:22.073Z</time></trkpt><trkpt lat="43.210495" lon="11.5020183"><ele>221.42857142857142</ele><time>2026-04-04T14:58:23.074Z</time></trkpt><trkpt lat="43.2104617" lon="11.5020995"><ele>222.85714285714283</ele><time>2026-04-04T14:58:24.074Z</time></trkpt><trkpt lat="43.2104269" lon="11.502176"><ele>224.28571428571428</ele><time>2026-04-04T14:58:25.073Z</time></trkpt><trkpt lat="43.2103879" lon="11.5022498"><ele>225.7142857142857</ele><time>2026-04-04T14:58:26.074Z</time></trkpt><trkpt lat="43.2103313" lon="11.5023129"><ele>227.14285714285714</ele><time>2026-04-04T14:58:27.074Z</time></trkpt><trkpt lat="43.2102753" lon="11.5023673"><ele>228.57142857142853</ele><time>2026-04-04T14:58:28.072Z</time></trkpt><trkpt lat="43.2102155" lon="11.5024347"><ele>229.99999999999997</ele><time>2026-04-04T14:58:29.074Z</time></trkpt><trkpt lat="43.2101358" lon="11.5024908"><ele>230.00000000000003</ele><time>2026-04-04T14:58:30.073Z</time></trkpt><trkpt lat="43.2100635" lon="11.5025629"><ele>230.0</ele><time>2026-04-04T14:58:31.074Z</time></trkpt><trkpt lat="43.2099909" lon="11.5026378"><ele>230.0</ele><time>2026-04-04T14:58:32.073Z</time></trkpt><trkpt lat="43.2099188" lon="11.5027058"><ele>230.0</ele><time>2026-04-04T14:58:33.074Z</time></trkpt><trkpt lat="43.2098546" lon="11.502771"><ele>230.00000000000003</ele><time>2026-04-04T14:58:34.073Z</time></trkpt><trkpt lat="43.2098035" lon="11.5028403"><ele>230.0</ele><time>2026-04-04T14:58:35.073Z</time></trkpt><trkpt lat="43.2097472" lon="11.5029058"><ele>228.16666666666669</ele><time>2026-04-04T14:58:36.074Z</time></trkpt><trkpt lat="43.209689" lon="11.5029702"><ele>226.33333333333334</ele><time>2026-04-04T14:58:37.072Z</time></trkpt><trkpt lat="43.2096309" lon="11.5030249"><ele>224.5</ele><time>2026-04-04T14:58:38.073Z</time></trkpt><trkpt lat="43.2095619" lon="11.5030935"><ele>222.66666666666669</ele><time>2026-04-04T14:58:39.073Z</time></trkpt><trkpt lat="43.2095008" lon="11.5031525"><ele>220.83333333333334</ele><time>2026-04-04T14:58:40.074Z</time></trkpt><trkpt lat="43.209447" lon="11.5032209"><ele>219.0</ele><time>2026-04-04T14:58:41.073Z</time></trkpt><trkpt lat="43.2093941" lon="11.5032956"><ele>219.0</ele><time>2026-04-04T14:58:42.073Z</time></trkpt><trkpt lat="43.2093315" lon="11.5033885"><ele>218.99999999999997</ele><time>2026-04-04T14:58:43.074Z</time></trkpt><trkpt lat="43.2092785" lon="11.5034996"><ele>218.99999999999997</ele><time>2026-04-04T14:58:44.072Z</time></trkpt><trkpt lat="43.209223" lon="11.5036038"><ele>219.0</ele><time>2026-04-04T14:58:45.072Z</time></trkpt><trkpt lat="43.2091675" lon="11.5036984"><ele>219.0</ele><time>2026-04-04T14:58:46.072Z</time></trkpt><trkpt lat="43.2091143" lon="11.503801"><ele>217.16666666666666</ele><time>2026-04-04T14:58:47.072Z</time></trkpt><trkpt lat="43.2090653" lon="11.5038973"><ele>215.33333333333331</ele><time>2026-04-04T14:58:48.074Z</time></trkpt><trkpt lat="43.2090091" lon="11.5039923"><ele>213.5</ele><time>2026-04-04T14:58:49.073Z</time></trkpt><trkpt lat="43.2089583" lon="11.5040892"><ele>211.66666666666666</ele><time>2026-04-04T14:58:50.073Z</time></trkpt><trkpt lat="43.2088984" lon="11.5041824"><ele>209.83333333333331</ele><time>2026-04-04T14:58:51.073Z</time></trkpt><trkpt lat="43.2088399" lon="11.5042757"><ele>208.0</ele><time>2026-04-04T14:58:52.074Z</time></trkpt><trkpt lat="43.2087748" lon="11.5043448"><ele>208.0</ele><time>2026-04-04T14:58:53.074Z</time></trkpt><trkpt lat="43.208714" lon="11.5044189"><ele>208.0</ele><time>2026-04-04T14:58:54.071Z</time></trkpt><trkpt lat="43.208646" lon="11.5044646"><ele>208.0</ele><time>2026-04-04T14:58:55.074Z</time></trkpt><trkpt lat="43.2085715" lon="11.5044957"><ele>208.0</ele><time>2026-04-04T14:58:56.072Z</time></trkpt><trkpt lat="43.2085086" lon="11.5045203"><ele>208.0</ele><time>2026-04-04T14:58:57.072Z</time></trkpt><trkpt lat="43.2084429" lon="11.5045394"><ele>208.0</ele><time>2026-04-04T14:58:58.074Z</time></trkpt><trkpt lat="43.2083665" lon="11.5045541"><ele>208.0</ele><time>2026-04-04T14:58:59.073Z</time></trkpt><trkpt lat="43.2082858" lon="11.5045688"><ele>207.99999999999997</ele><time>2026-04-04T14:59:00.072Z</time></trkpt><trkpt lat="43.2082045" lon="11.5045755"><ele>208.0</ele><time>2026-04-04T14:59:01.074Z</time></trkpt><trkpt lat="43.2081219" lon="11.504575"><ele>208.0</ele><time>2026-04-04T14:59:02.074Z</time></trkpt><trkpt lat="43.2080496" lon="11.5045665"><ele>208.0</ele><time>2026-04-04T14:59:03.074Z</time></trkpt><trkpt lat="43.2079763" lon="11.5045628"><ele>207.99999999999997</ele><time>2026-04-04T14:59:04.073Z</time></trkpt><trkpt lat="43.2078668" lon="11.5045489"><ele>208.0</ele><time>2026-04-04T14:59:06.073Z</time></trkpt><trkpt lat="43.2078" lon="11.5045716"><ele>204.8</ele><time>2026-04-04T14:59:08.072Z</time></trkpt><trkpt lat="43.2077859" lon="11.5046829"><ele>201.60000000000002</ele><time>2026-04-04T14:59:11.073Z</time></trkpt><trkpt lat="43.2078752" lon="11.5047493"><ele>198.39999999999998</ele><time>2026-04-04T14:59:14.073Z</time></trkpt><trkpt lat="43.2079546" lon="11.5048046"><ele>195.2</ele><time>2026-04-04T14:59:16.073Z</time></trkpt><trkpt lat="43.208074" lon="11.5048257"><ele>192.0</ele><time>2026-04-04T14:59:18.073Z</time></trkpt><trkpt lat="43.2081919" lon="11.5048883"><ele>192.0</ele><time>2026-04-04T14:59:20.074Z</time></trkpt><trkpt lat="43.2083022" lon="11.5049448"><ele>192.0</ele><time>2026-04-04T14:59:22.073Z</time></trkpt><trkpt lat="43.2084197" lon="11.5050101"><ele>192.0</ele><time>2026-04-04T14:59:24.072Z</time></trkpt><trkpt lat="43.2084803" lon="11.5050477"><ele>192.0</ele><time>2026-04-04T14:59:25.072Z</time></trkpt><trkpt lat="43.2085564" lon="11.5050871"><ele>192.0</ele><time>2026-04-04T14:59:26.071Z</time></trkpt><trkpt lat="43.2086251" lon="11.505109"><ele>191.99999999999997</ele><time>2026-04-04T14:59:27.072Z</time></trkpt><trkpt lat="43.2086957" lon="11.5051122"><ele>192.0</ele><time>2026-04-04T14:59:28.073Z</time></trkpt><trkpt lat="43.2087653" lon="11.5051247"><ele>192.0</ele><time>2026-04-04T14:59:29.073Z</time></trkpt><trkpt lat="43.2088382" lon="11.5051227"><ele>192.0</ele><time>2026-04-04T14:59:30.072Z</time></trkpt><trkpt lat="43.2089088" lon="11.5051288"><ele>192.0</ele><time>2026-04-04T14:59:31.071Z</time></trkpt><trkpt lat="43.208978" lon="11.5051275"><ele>191.99999999999997</ele><time>2026-04-04T14:59:32.073Z</time></trkpt><trkpt lat="43.2090485" lon="11.5051326"><ele>192.0</ele><time>2026-04-04T14:59:33.071Z</time></trkpt><trkpt lat="43.2091207" lon="11.5051143"><ele>190.99999999999997</ele><time>2026-04-04T14:59:34.073Z</time></trkpt><trkpt lat="43.209197" lon="11.5050784"><ele>190.0</ele><time>2026-04-04T14:59:35.074Z</time></trkpt><trkpt lat="43.2092664" lon="11.5050233"><ele>189.0</ele><time>2026-04-04T14:59:36.073Z</time></trkpt><trkpt lat="43.2093307" lon="11.5049811"><ele>188.0</ele><time>2026-04-04T14:59:37.072Z</time></trkpt><trkpt lat="43.2094017" lon="11.5049326"><ele>187.0</ele><time>2026-04-04T14:59:38.073Z</time></trkpt><trkpt lat="43.2094667" lon="11.5048999"><ele>185.99999999999997</ele><time>2026-04-04T14:59:39.072Z</time></trkpt><trkpt lat="43.2095326" lon="11.5048803"><ele>185.0</ele><time>2026-04-04T14:59:40.073Z</time></trkpt><trkpt lat="43.2096463" lon="11.5048609"><ele>184.99999999999997</ele><time>2026-04-04T14:59:42.073Z</time></trkpt><trkpt lat="43.2097072" lon="11.5048868"><ele>185.0</ele><time>2026-04-04T14:59:43.072Z</time></trkpt><trkpt lat="43.2097692" lon="11.5049367"><ele>185.0</ele><time>2026-04-04T14:59:44.072Z</time></trkpt><trkpt lat="43.2098293" lon="11.5049839"><ele>185.0</ele><time>2026-04-04T14:59:45.073Z</time></trkpt><trkpt lat="43.2098885" lon="11.505041"><ele>185.0</ele><time>2026-04-04T14:59:46.073Z</time></trkpt><trkpt lat="43.2099477" lon="11.5051049"><ele>184.99999999999997</ele><time>2026-04-04T14:59:47.073Z</time></trkpt><trkpt lat="43.2100087" lon="11.5051661"><ele>185.0</ele><time>2026-04-04T14:59:48.072Z</time></trkpt><trkpt lat="43.2100725" lon="11.5052294"><ele>183.85714285714283</ele><time>2026-04-04T14:59:49.073Z</time></trkpt><trkpt lat="43.2101343" lon="11.5052859"><ele>182.71428571428572</ele><time>2026-04-04T14:59:50.072Z</time></trkpt><trkpt lat="43.2101955" lon="11.5053312"><ele>181.57142857142856</ele><time>2026-04-04T14:59:51.071Z</time></trkpt><trkpt lat="43.2102627" lon="11.505369"><ele>180.42857142857142</ele><time>2026-04-04T14:59:52.073Z</time></trkpt><trkpt lat="43.2103388" lon="11.5054181"><ele>179.28571428571428</ele><time>2026-04-04T14:59:53.073Z</time></trkpt><trkpt lat="43.2104066" lon="11.5054423"><ele>178.14285714285714</ele><time>2026-04-04T14:59:54.072Z</time></trkpt><trkpt lat="43.2104787" lon="11.5054552"><ele>177.0</ele><time>2026-04-04T14:59:55.072Z</time></trkpt><trkpt lat="43.2105509" lon="11.505461"><ele>176.5</ele><time>2026-04-04T14:59:56.072Z</time></trkpt><trkpt lat="43.2106248" lon="11.5054631"><ele>176.0</ele><time>2026-04-04T14:59:57.071Z</time></trkpt><trkpt lat="43.2106994" lon="11.5054597"><ele>175.5</ele><time>2026-04-04T14:59:58.073Z</time></trkpt><trkpt lat="43.2107797" lon="11.5054276"><ele>175.0</ele><time>2026-04-04T14:59:59.073Z</time></trkpt><trkpt lat="43.2108555" lon="11.5054065"><ele>174.5</ele><time>2026-04-04T15:00:00.071Z</time></trkpt><trkpt lat="43.2109346" lon="11.5053841"><ele>174.0</ele><time>2026-04-04T15:00:01.072Z</time></trkpt><trkpt lat="43.2110087" lon="11.5053481"><ele>174.0</ele><time>2026-04-04T15:00:02.073Z</time></trkpt><trkpt lat="43.2110775" lon="11.5053415"><ele>174.0</ele><time>2026-04-04T15:00:03.072Z</time></trkpt><trkpt lat="43.2111486" lon="11.5053342"><ele>174.0</ele><time>2026-04-04T15:00:04.072Z</time></trkpt><trkpt lat="43.2112191" lon="11.5053516"><ele>174.0</ele><time>2026-04-04T15:00:05.072Z</time></trkpt><trkpt lat="43.2112825" lon="11.5053817"><ele>174.0</ele><time>2026-04-04T15:00:06.073Z</time></trkpt><trkpt lat="43.2113381" lon="11.5054399"><ele>174.0</ele><time>2026-04-04T15:00:07.072Z</time></trkpt><trkpt lat="43.2113986" lon="11.5055178"><ele>174.0</ele><time>2026-04-04T15:00:08.073Z</time></trkpt><trkpt lat="43.2114506" lon="11.5056218"><ele>171.75</ele><time>2026-04-04T15:00:09.073Z</time></trkpt><trkpt lat="43.2114937" lon="11.5057533"><ele>169.5</ele><time>2026-04-04T15:00:10.072Z</time></trkpt><trkpt lat="43.2115424" lon="11.5059273"><ele>167.25</ele><time>2026-04-04T15:00:11.072Z</time></trkpt><trkpt lat="43.2115993" lon="11.506137"><ele>165.0</ele><time>2026-04-04T15:00:12.072Z</time></trkpt><trkpt lat="43.2116575" lon="11.5063502"><ele>165.0</ele><time>2026-04-04T15:00:13.072Z</time></trkpt><trkpt lat="43.2117131" lon="11.5065442"><ele>165.0</ele><time>2026-04-04T15:00:14.072Z</time></trkpt><trkpt lat="43.2117663" lon="11.5067139"><ele>165.0</ele><time>2026-04-04T15:00:15.072Z</time></trkpt><trkpt lat="43.2118045" lon="11.5068582"><ele>165.0</ele><time>2026-04-04T15:00:16.073Z</time></trkpt><trkpt lat="43.2118382" lon="11.5069776"><ele>164.8</ele><time>2026-04-04T15:00:17.072Z</time></trkpt><trkpt lat="43.2118628" lon="11.5070845"><ele>164.6</ele><time>2026-04-04T15:00:18.073Z</time></trkpt><trkpt lat="43.2118843" lon="11.5071932"><ele>164.39999999999998</ele><time>2026-04-04T15:00:19.073Z</time></trkpt><trkpt lat="43.2119326" lon="11.5073513"><ele>164.2</ele><time>2026-04-04T15:00:21.072Z</time></trkpt><trkpt lat="43.2119772" lon="11.5074787"><ele>164.0</ele><time>2026-04-04T15:00:23.072Z</time></trkpt><trkpt lat="43.2120273" lon="11.5075666"><ele>164.0</ele><time>2026-04-04T15:00:25.072Z</time></trkpt><trkpt lat="43.2121012" lon="11.5076362"><ele>164.0</ele><time>2026-04-04T15:00:27.072Z</time></trkpt><trkpt lat="43.212172" lon="11.5077056"><ele>164.0</ele><time>2026-04-04T15:00:29.072Z</time></trkpt><trkpt lat="43.2122685" lon="11.5077585"><ele>164.0</ele><time>2026-04-04T15:00:31.072Z</time></trkpt><trkpt lat="43.2123713" lon="11.5078239"><ele>164.0</ele><time>2026-04-04T15:00:33.072Z</time></trkpt><trkpt lat="43.2124709" lon="11.5078849"><ele>163.0</ele><time>2026-04-04T15:00:35.073Z</time></trkpt><trkpt lat="43.21253" lon="11.5079482"><ele>162.0</ele><time>2026-04-04T15:00:37.072Z</time></trkpt><trkpt lat="43.2125812" lon="11.5080109"><ele>162.0</ele><time>2026-04-04T15:00:39.072Z</time></trkpt></trkseg><trkseg><trkpt lat="43.2126277" lon="11.5081236"><ele>162.0</ele><time>2026-04-04T15:10:59.069Z</time></trkpt><trkpt lat="43.2126938" lon="11.5082569"><ele>162.0</ele><time>2026-04-04T15:11:01.068Z</time></trkpt><trkpt lat="43.2127344" lon="11.508345"><ele>162.0</ele><time>2026-04-04T15:11:02.068Z</time></trkpt><trkpt lat="43.2127795" lon="11.5084413"><ele>162.0</ele><time>2026-04-04T15:11:03.067Z</time></trkpt><trkpt lat="43.2128289" lon="11.5085479"><ele>162.0</ele><time>2026-04-04T15:11:04.068Z</time></trkpt><trkpt lat="43.2128853" lon="11.5086642"><ele>161.8</ele><time>2026-04-04T15:11:05.069Z</time></trkpt><trkpt lat="43.2129457" lon="11.5087803"><ele>161.6</ele><time>2026-04-04T15:11:06.068Z</time></trkpt><trkpt lat="43.2130006" lon="11.5089195"><ele>161.4</ele><time>2026-04-04T15:11:07.069Z</time></trkpt><trkpt lat="43.2130521" lon="11.5090505"><ele>161.20000000000002</ele><time>2026-04-04T15:11:08.067Z</time></trkpt><trkpt lat="43.2131059" lon="11.5091628"><ele>161.0</ele><time>2026-04-04T15:11:09.069Z</time></trkpt><trkpt lat="43.2131544" lon="11.5092719"><ele>161.33333333333331</ele><time>2026-04-04T15:11:10.069Z</time></trkpt><trkpt lat="43.2131919" lon="11.5093596"><ele>161.66666666666666</ele><time>2026-04-04T15:11:11.069Z</time></trkpt><trkpt lat="43.2132389" lon="11.5094449"><ele>162.0</ele><time>2026-04-04T15:11:12.067Z</time></trkpt><trkpt lat="43.2132863" lon="11.5095185"><ele>162.33333333333334</ele><time>2026-04-04T15:11:13.067Z</time></trkpt><trkpt lat="43.2133489" lon="11.5095817"><ele>162.66666666666669</ele><time>2026-04-04T15:11:14.068Z</time></trkpt><trkpt lat="43.2134158" lon="11.509638"><ele>163.0</ele><time>2026-04-04T15:11:15.068Z</time></trkpt><trkpt lat="43.2134802" lon="11.5097255"><ele>163.0</ele><time>2026-04-04T15:11:16.069Z</time></trkpt><trkpt lat="43.2135417" lon="11.5098135"><ele>163.0</ele><time>2026-04-04T15:11:17.068Z</time></trkpt><trkpt lat="43.2136132" lon="11.5098806"><ele>163.0</ele><time>2026-04-04T15:11:18.068Z</time></trkpt><trkpt lat="43.2136798" lon="11.5099674"><ele>163.0</ele><time>2026-04-04T15:11:19.068Z</time></trkpt><trkpt lat="43.2137439" lon="11.510061"><ele>163.0</ele><time>2026-04-04T15:11:20.067Z</time></trkpt><trkpt lat="43.2138085" lon="11.5101609"><ele>163.0</ele><time>2026-04-04T15:11:21.067Z</time></trkpt><trkpt lat="43.2138809" lon="11.5102644"><ele>163.0</ele><time>2026-04-04T15:11:22.069Z</time></trkpt><trkpt lat="43.2139449" lon="11.5103748"><ele>163.0</ele><time>2026-04-04T15:11:23.067Z</time></trkpt><trkpt lat="43.2140027" lon="11.510481"><ele>163.0</ele><time>2026-04-04T15:11:24.067Z</time></trkpt><trkpt lat="43.2140592" lon="11.5105899"><ele>163.0</ele><time>2026-04-04T15:11:25.069Z</time></trkpt><trkpt lat="43.2141169" lon="11.5106906"><ele>163.2</ele><time>2026-04-04T15:11:26.067Z</time></trkpt><trkpt lat="43.2141766" lon="11.5108006"><ele>163.4</ele><time>2026-04-04T15:11:27.068Z</time></trkpt><trkpt lat="43.2142211" lon="11.5109093"><ele>163.6</ele><time>2026-04-04T15:11:28.069Z</time></trkpt><trkpt lat="43.2142561" lon="11.5110322"><ele>163.79999999999998</ele><time>2026-04-04T15:11:29.066Z</time></trkpt><trkpt lat="43.2142739" lon="11.5111661"><ele>164.0</ele><time>2026-04-04T15:11:30.066Z</time></trkpt><trkpt lat="43.2142751" lon="11.5112917"><ele>164.33333333333331</ele><time>2026-04-04T15:11:31.068Z</time></trkpt><trkpt lat="43.2142597" lon="11.5114126"><ele>164.66666666666666</ele><time>2026-04-04T15:11:32.067Z</time></trkpt><trkpt lat="43.2142419" lon="11.5115243"><ele>165.0</ele><time>2026-04-04T15:11:33.069Z</time></trkpt><trkpt lat="43.2142293" lon="11.5116313"><ele>165.33333333333334</ele><time>2026-04-04T15:11:34.068Z</time></trkpt><trkpt lat="43.2142258" lon="11.5117227"><ele>165.66666666666669</ele><time>2026-04-04T15:11:35.068Z</time></trkpt><trkpt lat="43.2142432" lon="11.51189"><ele>166.0</ele><time>2026-04-04T15:11:37.068Z</time></trkpt><trkpt lat="43.2142596" lon="11.511982"><ele>166.0</ele><time>2026-04-04T15:11:38.067Z</time></trkpt><trkpt lat="43.2142901" lon="11.5120582"><ele>166.0</ele><time>2026-04-04T15:11:39.069Z</time></trkpt><trkpt lat="43.2143569" lon="11.5121999"><ele>166.0</ele><time>2026-04-04T15:11:41.068Z</time></trkpt><trkpt lat="43.2144338" lon="11.5123283"><ele>166.0</ele><time>2026-04-04T15:11:43.068Z</time></trkpt><trkpt lat="43.2144885" lon="11.5123856"><ele>166.0</ele><time>2026-04-04T15:11:44.069Z</time></trkpt><trkpt lat="43.2145531" lon="11.5124344"><ele>166.33333333333334</ele><time>2026-04-04T15:11:45.068Z</time></trkpt><trkpt lat="43.2146156" lon="11.5124899"><ele>166.66666666666669</ele><time>2026-04-04T15:11:46.069Z</time></trkpt><trkpt lat="43.2146824" lon="11.5125616"><ele>167.0</ele><time>2026-04-04T15:11:47.068Z</time></trkpt><trkpt lat="43.214761" lon="11.5126213"><ele>167.33333333333334</ele><time>2026-04-04T15:11:48.069Z</time></trkpt><trkpt lat="43.2148456" lon="11.5126797"><ele>167.66666666666666</ele><time>2026-04-04T15:11:49.068Z</time></trkpt><trkpt lat="43.2149171" lon="11.5127497"><ele>168.0</ele><time>2026-04-04T15:11:50.068Z</time></trkpt><trkpt lat="43.214982" lon="11.5128208"><ele>169.66666666666666</ele><time>2026-04-04T15:11:51.068Z</time></trkpt><trkpt lat="43.2150484" lon="11.5128878"><ele>171.33333333333334</ele><time>2026-04-04T15:11:52.069Z</time></trkpt><trkpt lat="43.215125" lon="11.5129475"><ele>173.0</ele><time>2026-04-04T15:11:53.067Z</time></trkpt><trkpt lat="43.2151913" lon="11.5130179"><ele>174.66666666666669</ele><time>2026-04-04T15:11:54.068Z</time></trkpt><trkpt lat="43.2152604" lon="11.5130973"><ele>176.33333333333334</ele><time>2026-04-04T15:11:55.066Z</time></trkpt><trkpt lat="43.2153153" lon="11.5131896"><ele>178.0</ele><time>2026-04-04T15:11:56.068Z</time></trkpt><trkpt lat="43.2153746" lon="11.5132784"><ele>178.4</ele><time>2026-04-04T15:11:57.068Z</time></trkpt><trkpt lat="43.2154209" lon="11.5133675"><ele>178.8</ele><time>2026-04-04T15:11:58.068Z</time></trkpt><trkpt lat="43.2154526" lon="11.5134584"><ele>179.2</ele><time>2026-04-04T15:11:59.066Z</time></trkpt><trkpt lat="43.2155066" lon="11.5135695"><ele>179.6</ele><time>2026-04-04T15:12:01.068Z</time></trkpt><trkpt lat="43.2155326" lon="11.5137138"><ele>180.0</ele><time>2026-04-04T15:12:03.067Z</time></trkpt><trkpt lat="43.2155498" lon="11.5138804"><ele>180.4</ele><time>2026-04-04T15:12:05.066Z</time></trkpt><trkpt lat="43.2155966" lon="11.5140337"><ele>180.8</ele><time>2026-04-04T15:12:07.067Z</time></trkpt><trkpt lat="43.2156154" lon="11.5141359"><ele>181.2</ele><time>2026-04-04T15:12:08.066Z</time></trkpt><trkpt lat="43.2156478" lon="11.5142489"><ele>181.6</ele><time>2026-04-04T15:12:09.067Z</time></trkpt><trkpt lat="43.2156859" lon="11.5143759"><ele>182.0</ele><time>2026-04-04T15:12:10.069Z</time></trkpt><trkpt lat="43.2157342" lon="11.5144985"><ele>180.0</ele><time>2026-04-04T15:12:11.069Z</time></trkpt><trkpt lat="43.2157762" lon="11.5146296"><ele>178.0</ele><time>2026-04-04T15:12:12.068Z</time></trkpt><trkpt lat="43.2158245" lon="11.5147765"><ele>176.0</ele><time>2026-04-04T15:12:13.068Z</time></trkpt><trkpt lat="43.2158829" lon="11.5149091"><ele>174.0</ele><time>2026-04-04T15:12:14.068Z</time></trkpt><trkpt lat="43.2159356" lon="11.5150605"><ele>174.0</ele><time>2026-04-04T15:12:15.068Z</time></trkpt><trkpt lat="43.2159899" lon="11.5152088"><ele>174.0</ele><time>2026-04-04T15:12:16.069Z</time></trkpt><trkpt lat="43.2160477" lon="11.5153527"><ele>174.0</ele><time>2026-04-04T15:12:17.067Z</time></trkpt><trkpt lat="43.2161035" lon="11.5154944"><ele>174.0</ele><time>2026-04-04T15:12:18.067Z</time></trkpt><trkpt lat="43.2161531" lon="11.5156242"><ele>172.79999999999998</ele><time>2026-04-04T15:12:19.067Z</time></trkpt><trkpt lat="43.2162108" lon="11.5157501"><ele>171.6</ele><time>2026-04-04T15:12:20.068Z</time></trkpt><trkpt lat="43.2162712" lon="11.5158753"><ele>170.4</ele><time>2026-04-04T15:12:21.068Z</time></trkpt><trkpt lat="43.2163323" lon="11.5160055"><ele>169.2</ele><time>2026-04-04T15:12:22.068Z</time></trkpt><trkpt lat="43.2163957" lon="11.516133"><ele>168.0</ele><time>2026-04-04T15:12:23.068Z</time></trkpt><trkpt lat="43.2164629" lon="11.5162642"><ele>168.25</ele><time>2026-04-04T15:12:24.068Z</time></trkpt><trkpt lat="43.2165311" lon="11.516391"><ele>168.5</ele><time>2026-04-04T15:12:25.069Z</time></trkpt><trkpt lat="43.216599" lon="11.5165368"><ele>168.75</ele><time>2026-04-04T15:12:26.068Z</time></trkpt><trkpt lat="43.2166613" lon="11.5166579"><ele>169.0</ele><time>2026-04-04T15:12:27.068Z</time></trkpt><trkpt lat="43.2167198" lon="11.516786"><ele>169.0</ele><time>2026-04-04T15:12:28.067Z</time></trkpt><trkpt lat="43.2167849" lon="11.5169186"><ele>169.0</ele><time>2026-04-04T15:12:29.069Z</time></trkpt><trkpt lat="43.2168354" lon="11.5170486"><ele>169.0</ele><time>2026-04-04T15:12:30.067Z</time></trkpt><trkpt lat="43.2168851" lon="11.5171719"><ele>169.0</ele><time>2026-04-04T15:12:31.067Z</time></trkpt><trkpt lat="43.2169246" lon="11.5172929"><ele>169.0</ele><time>2026-04-04T15:12:32.066Z</time></trkpt><trkpt lat="43.2169694" lon="11.5174081"><ele>169.0</ele><time>2026-04-04T15:12:33.066Z</time></trkpt><trkpt lat="43.2170133" lon="11.5175245"><ele>169.0</ele><time>2026-04-04T15:12:34.068Z</time></trkpt><trkpt lat="43.2170662" lon="11.5176455"><ele>169.0</ele><time>2026-04-04T15:12:35.067Z</time></trkpt><trkpt lat="43.217125" lon="11.5177892"><ele>169.0</ele><time>2026-04-04T15:12:36.068Z</time></trkpt><trkpt lat="43.2171831" lon="11.5179412"><ele>169.0</ele><time>2026-04-04T15:12:37.067Z</time></trkpt><trkpt lat="43.2172369" lon="11.5180791"><ele>169.0</ele><time>2026-04-04T15:12:38.068Z</time></trkpt><trkpt lat="43.2172849" lon="11.5182018"><ele>169.0</ele><time>2026-04-04T15:12:39.068Z</time></trkpt><trkpt lat="43.217325" lon="11.5183109"><ele>169.0</ele><time>2026-04-04T15:12:40.067Z</time></trkpt><trkpt lat="43.2173657" lon="11.5184132"><ele>169.0</ele><time>2026-04-04T15:12:41.068Z</time></trkpt><trkpt lat="43.2173934" lon="11.5185181"><ele>169.0</ele><time>2026-04-04T15:12:42.067Z</time></trkpt><trkpt lat="43.2174237" lon="11.5186195"><ele>169.0</ele><time>2026-04-04T15:12:43.067Z</time></trkpt><trkpt lat="43.2174496" lon="11.5187149"><ele>169.83333333333334</ele><time>2026-04-04T15:12:44.068Z</time></trkpt><trkpt lat="43.2174728" lon="11.5188097"><ele>170.66666666666669</ele><time>2026-04-04T15:12:45.067Z</time></trkpt><trkpt lat="43.2174919" lon="11.5189149"><ele>171.5</ele><time>2026-04-04T15:12:46.067Z</time></trkpt><trkpt lat="43.2175063" lon="11.5190208"><ele>172.33333333333334</ele><time>2026-04-04T15:12:47.068Z</time></trkpt><trkpt lat="43.2175066" lon="11.5191294"><ele>173.16666666666666</ele><time>2026-04-04T15:12:48.068Z</time></trkpt><trkpt lat="43.2175061" lon="11.5192288"><ele>174.0</ele><time>2026-04-04T15:12:49.067Z</time></trkpt><trkpt lat="43.2175016" lon="11.5193254"><ele>174.0</ele><time>2026-04-04T15:12:50.068Z</time></trkpt><trkpt lat="43.2174866" lon="11.5194324"><ele>174.0</ele><time>2026-04-04T15:12:51.067Z</time></trkpt><trkpt lat="43.2174783" lon="11.5195451"><ele>174.0</ele><time>2026-04-04T15:12:52.068Z</time></trkpt><trkpt lat="43.2174683" lon="11.5196522"><ele>174.0</ele><time>2026-04-04T15:12:53.067Z</time></trkpt><trkpt lat="43.2174634" lon="11.519765"><ele>174.0</ele><time>2026-04-04T15:12:54.069Z</time></trkpt><trkpt lat="43.2174663" lon="11.5198804"><ele>174.0</ele><time>2026-04-04T15:12:55.068Z</time></trkpt><trkpt lat="43.2174508" lon="11.5199869"><ele>175.0</ele><time>2026-04-04T15:12:56.068Z</time></trkpt><trkpt lat="43.2174366" lon="11.5200897"><ele>176.0</ele><time>2026-04-04T15:12:57.067Z</time></trkpt><trkpt lat="43.2174339" lon="11.5201918"><ele>177.0</ele><time>2026-04-04T15:12:58.067Z</time></trkpt><trkpt lat="43.2174322" lon="11.5202981"><ele>178.0</ele><time>2026-04-04T15:12:59.066Z</time></trkpt><trkpt lat="43.2174348" lon="11.5204013"><ele>179.0</ele><time>2026-04-04T15:13:00.067Z</time></trkpt><trkpt lat="43.2174319" lon="11.5205095"><ele>180.0</ele><time>2026-04-04T15:13:01.067Z</time></trkpt><trkpt lat="43.2174318" lon="11.5206113"><ele>180.83333333333334</ele><time>2026-04-04T15:13:02.066Z</time></trkpt><trkpt lat="43.2174382" lon="11.5207051"><ele>181.66666666666666</ele><time>2026-04-04T15:13:03.067Z</time></trkpt><trkpt lat="43.2174647" lon="11.5208691"><ele>182.5</ele><time>2026-04-04T15:13:05.067Z</time></trkpt><trkpt lat="43.2174976" lon="11.5209571"><ele>183.33333333333331</ele><time>2026-04-04T15:13:06.066Z</time></trkpt><trkpt lat="43.2175404" lon="11.5210483"><ele>184.16666666666666</ele><time>2026-04-04T15:13:07.068Z</time></trkpt><trkpt lat="43.217587" lon="11.5211332"><ele>185.0</ele><time>2026-04-04T15:13:08.067Z</time></trkpt><trkpt lat="43.217631" lon="11.5212093"><ele>184.0</ele><time>2026-04-04T15:13:09.066Z</time></trkpt><trkpt lat="43.2176912" lon="11.5212736"><ele>183.0</ele><time>2026-04-04T15:13:10.068Z</time></trkpt><trkpt lat="43.217755" lon="11.5213411"><ele>182.0</ele><time>2026-04-04T15:13:11.068Z</time></trkpt><trkpt lat="43.2178279" lon="11.5214039"><ele>181.0</ele><time>2026-04-04T15:13:12.068Z</time></trkpt><trkpt lat="43.217901" lon="11.5214468"><ele>180.0</ele><time>2026-04-04T15:13:13.068Z</time></trkpt><trkpt lat="43.2179788" lon="11.5214956"><ele>179.0</ele><time>2026-04-04T15:13:14.068Z</time></trkpt><trkpt lat="43.2180417" lon="11.5215479"><ele>179.0</ele><time>2026-04-04T15:13:15.067Z</time></trkpt><trkpt lat="43.2181025" lon="11.5215992"><ele>179.0</ele><time>2026-04-04T15:13:16.068Z</time></trkpt><trkpt lat="43.2181495" lon="11.5216691"><ele>179.0</ele><time>2026-04-04T15:13:17.068Z</time></trkpt><trkpt lat="43.2181843" lon="11.5217481"><ele>179.0</ele><time>2026-04-04T15:13:18.067Z</time></trkpt><trkpt lat="43.2181999" lon="11.5218373"><ele>179.0</ele><time>2026-04-04T15:13:19.066Z</time></trkpt><trkpt lat="43.2182225" lon="11.522013"><ele>179.0</ele><time>2026-04-04T15:13:21.068Z</time></trkpt><trkpt lat="43.2182565" lon="11.5222031"><ele>179.2</ele><time>2026-04-04T15:13:23.067Z</time></trkpt><trkpt lat="43.21828" lon="11.5223225"><ele>179.39999999999998</ele><time>2026-04-04T15:13:24.067Z</time></trkpt><trkpt lat="43.2183136" lon="11.5224547"><ele>179.6</ele><time>2026-04-04T15:13:25.067Z</time></trkpt><trkpt lat="43.2183515" lon="11.5225938"><ele>179.8</ele><time>2026-04-04T15:13:26.067Z</time></trkpt><trkpt lat="43.2183859" lon="11.522725"><ele>180.0</ele><time>2026-04-04T15:13:27.067Z</time></trkpt><trkpt lat="43.2184309" lon="11.5228679"><ele>178.4</ele><time>2026-04-04T15:13:28.067Z</time></trkpt><trkpt lat="43.218482" lon="11.5229864"><ele>176.8</ele><time>2026-04-04T15:13:29.068Z</time></trkpt><trkpt lat="43.2185311" lon="11.5231094"><ele>175.2</ele><time>2026-04-04T15:13:30.068Z</time></trkpt><trkpt lat="43.2185953" lon="11.5232278"><ele>173.6</ele><time>2026-04-04T15:13:31.067Z</time></trkpt><trkpt lat="43.2186513" lon="11.5233509"><ele>172.0</ele><time>2026-04-04T15:13:32.066Z</time></trkpt><trkpt lat="43.2187137" lon="11.5234788"><ele>172.0</ele><time>2026-04-04T15:13:33.067Z</time></trkpt><trkpt lat="43.2187793" lon="11.5236064"><ele>172.0</ele><time>2026-04-04T15:13:34.068Z</time></trkpt><trkpt lat="43.2188463" lon="11.5237271"><ele>172.0</ele><time>2026-04-04T15:13:35.066Z</time></trkpt><trkpt lat="43.2189122" lon="11.5238504"><ele>172.0</ele><time>2026-04-04T15:13:36.065Z</time></trkpt><trkpt lat="43.2189867" lon="11.5239804"><ele>172.0</ele><time>2026-04-04T15:13:37.066Z</time></trkpt><trkpt lat="43.2190589" lon="11.5241063"><ele>172.0</ele><time>2026-04-04T15:13:38.067Z</time></trkpt><trkpt lat="43.2191336" lon="11.5242396"><ele>172.0</ele><time>2026-04-04T15:13:39.068Z</time></trkpt><trkpt lat="43.2192134" lon="11.5243694"><ele>172.0</ele><time>2026-04-04T15:13:40.067Z</time></trkpt><trkpt lat="43.2192913" lon="11.5244904"><ele>171.16666666666669</ele><time>2026-04-04T15:13:41.065Z</time></trkpt><trkpt lat="43.2193615" lon="11.5246057"><ele>170.33333333333334</ele><time>2026-04-04T15:13:42.066Z</time></trkpt><trkpt lat="43.2194287" lon="11.5247142"><ele>169.5</ele><time>2026-04-04T15:13:43.067Z</time></trkpt><trkpt lat="43.21949" lon="11.5247882"><ele>168.66666666666666</ele><time>2026-04-04T15:13:44.068Z</time></trkpt><trkpt lat="43.2195533" lon="11.5248563"><ele>167.83333333333331</ele><time>2026-04-04T15:13:45.066Z</time></trkpt><trkpt lat="43.2196142" lon="11.524907"><ele>167.0</ele><time>2026-04-04T15:13:46.068Z</time></trkpt><trkpt lat="43.2196726" lon="11.5249494"><ele>167.0</ele><time>2026-04-04T15:13:47.067Z</time></trkpt><trkpt lat="43.2197361" lon="11.5249691"><ele>167.0</ele><time>2026-04-04T15:13:48.066Z</time></trkpt><trkpt lat="43.2198015" lon="11.5249735"><ele>167.0</ele><time>2026-04-04T15:13:49.067Z</time></trkpt><trkpt lat="43.2198695" lon="11.5249794"><ele>167.0</ele><time>2026-04-04T15:13:50.067Z</time></trkpt><trkpt lat="43.2199426" lon="11.5249671"><ele>167.0</ele><time>2026-04-04T15:13:51.067Z</time></trkpt><trkpt lat="43.2200232" lon="11.5249397"><ele>167.0</ele><time>2026-04-04T15:13:52.066Z</time></trkpt><trkpt lat="43.2201044" lon="11.5249085"><ele>167.0</ele><time>2026-04-04T15:13:53.067Z</time></trkpt><trkpt lat="43.2201887" lon="11.5248665"><ele>168.2</ele><time>2026-04-04T15:13:54.067Z</time></trkpt><trkpt lat="43.2202753" lon="11.5248391"><ele>169.39999999999998</ele><time>2026-04-04T15:13:55.068Z</time></trkpt><trkpt lat="43.220367" lon="11.524827"><ele>170.60000000000002</ele><time>2026-04-04T15:13:56.067Z</time></trkpt><trkpt lat="43.2204621" lon="11.5248357"><ele>171.8</ele><time>2026-04-04T15:13:57.067Z</time></trkpt><trkpt lat="43.220565" lon="11.5248768"><ele>173.0</ele><time>2026-04-04T15:13:58.066Z</time></trkpt><trkpt lat="43.2206637" lon="11.5249313"><ele>174.0</ele><time>2026-04-04T15:13:59.066Z</time></trkpt><trkpt lat="43.2207542" lon="11.5250063"><ele>175.0</ele><time>2026-04-04T15:14:00.066Z</time></trkpt><trkpt lat="43.2208501" lon="11.525088"><ele>176.0</ele><time>2026-04-04T15:14:01.067Z</time></trkpt><trkpt lat="43.2209371" lon="11.5251432"><ele>177.0</ele><time>2026-04-04T15:14:02.066Z</time></trkpt><trkpt lat="43.2210299" lon="11.5251871"><ele>178.0</ele><time>2026-04-04T15:14:03.067Z</time></trkpt><trkpt lat="43.2211276" lon="11.5252325"><ele>178.0</ele><time>2026-04-04T15:14:04.067Z</time></trkpt><trkpt lat="43.2212222" lon="11.5252637"><ele>178.0</ele><time>2026-04-04T15:14:05.067Z</time></trkpt><trkpt lat="43.2213268" lon="11.5252761"><ele>178.0</ele><time>2026-04-04T15:14:06.066Z</time></trkpt><trkpt lat="43.2214252" lon="11.5253011"><ele>178.0</ele><time>2026-04-04T15:14:07.066Z</time></trkpt><trkpt lat="43.2215234" lon="11.5253279"><ele>178.0</ele><time>2026-04-04T15:14:08.065Z</time></trkpt><trkpt lat="43.22162" lon="11.5253505"><ele>179.2</ele><time>2026-04-04T15:14:09.065Z</time></trkpt><trkpt lat="43.2217222" lon="11.5253604"><ele>180.4</ele><time>2026-04-04T15:14:10.067Z</time></trkpt><trkpt lat="43.2218189" lon="11.5253814"><ele>181.6</ele><time>2026-04-04T15:14:11.066Z</time></trkpt><trkpt lat="43.2219158" lon="11.5253907"><ele>182.79999999999998</ele><time>2026-04-04T15:14:12.066Z</time></trkpt><trkpt lat="43.2220137" lon="11.5253971"><ele>184.0</ele><time>2026-04-04T15:14:13.066Z</time></trkpt><trkpt lat="43.2221124" lon="11.525406"><ele>181.39999999999998</ele><time>2026-04-04T15:14:14.067Z</time></trkpt><trkpt lat="43.2222039" lon="11.525426"><ele>178.8</ele><time>2026-04-04T15:14:15.066Z</time></trkpt><trkpt lat="43.2222855" lon="11.5254507"><ele>176.2</ele><time>2026-04-04T15:14:16.065Z</time></trkpt><trkpt lat="43.2223802" lon="11.525461"><ele>173.60000000000002</ele><time>2026-04-04T15:14:17.067Z</time></trkpt><trkpt lat="43.2224805" lon="11.5254631"><ele>171.0</ele><time>2026-04-04T15:14:18.066Z</time></trkpt><trkpt lat="43.2225882" lon="11.5254629"><ele>170.66666666666666</ele><time>2026-04-04T15:14:19.067Z</time></trkpt><trkpt lat="43.2226775" lon="11.5254842"><ele>170.33333333333334</ele><time>2026-04-04T15:14:20.067Z</time></trkpt><trkpt lat="43.2227596" lon="11.5255244"><ele>170.0</ele><time>2026-04-04T15:14:21.066Z</time></trkpt><trkpt lat="43.2228267" lon="11.5255758"><ele>169.66666666666669</ele><time>2026-04-04T15:14:22.067Z</time></trkpt><trkpt lat="43.2228981" lon="11.5256308"><ele>169.33333333333334</ele><time>2026-04-04T15:14:23.068Z</time></trkpt><trkpt lat="43.2229599" lon="11.5257045"><ele>169.0</ele><time>2026-04-04T15:14:24.066Z</time></trkpt><trkpt lat="43.2230229" lon="11.5257652"><ele>169.0</ele><time>2026-04-04T15:14:25.067Z</time></trkpt><trkpt lat="43.2230926" lon="11.5258245"><ele>169.0</ele><time>2026-04-04T15:14:26.065Z</time></trkpt><trkpt lat="43.223165" lon="11.5258728"><ele>169.0</ele><time>2026-04-04T15:14:27.066Z</time></trkpt><trkpt lat="43.2232343" lon="11.5259135"><ele>169.0</ele><time>2026-04-04T15:14:28.066Z</time></trkpt><trkpt lat="43.2233205" lon="11.5259401"><ele>169.0</ele><time>2026-04-04T15:14:29.068Z</time></trkpt><trkpt lat="43.2234166" lon="11.525941"><ele>169.0</ele><time>2026-04-04T15:14:30.066Z</time></trkpt><trkpt lat="43.2235103" lon="11.5259476"><ele>170.16666666666669</ele><time>2026-04-04T15:14:31.065Z</time></trkpt><trkpt lat="43.2236056" lon="11.525963"><ele>171.33333333333334</ele><time>2026-04-04T15:14:32.066Z</time></trkpt><trkpt lat="43.2236894" lon="11.5259647"><ele>172.5</ele><time>2026-04-04T15:14:33.066Z</time></trkpt><trkpt lat="43.223769" lon="11.525948"><ele>173.66666666666666</ele><time>2026-04-04T15:14:34.067Z</time></trkpt><trkpt lat="43.223842" lon="11.52594"><ele>174.83333333333331</ele><time>2026-04-04T15:14:35.066Z</time></trkpt><trkpt lat="43.2239095" lon="11.5259321"><ele>176.0</ele><time>2026-04-04T15:14:36.067Z</time></trkpt><trkpt lat="43.2240208" lon="11.5259213"><ele>176.20000000000002</ele><time>2026-04-04T15:14:38.066Z</time></trkpt><trkpt lat="43.224132" lon="11.5258963"><ele>176.4</ele><time>2026-04-04T15:14:40.067Z</time></trkpt><trkpt lat="43.2242426" lon="11.5258734"><ele>176.6</ele><time>2026-04-04T15:14:42.068Z</time></trkpt><trkpt lat="43.224372" lon="11.5258865"><ele>176.8</ele><time>2026-04-04T15:14:44.068Z</time></trkpt><trkpt lat="43.2244585" lon="11.525905"><ele>177.0</ele><time>2026-04-04T15:14:45.065Z</time></trkpt><trkpt lat="43.2245426" lon="11.5259221"><ele>177.0</ele><time>2026-04-04T15:14:46.066Z</time></trkpt><trkpt lat="43.2246245" lon="11.5259479"><ele>177.0</ele><time>2026-04-04T15:14:47.066Z</time></trkpt><trkpt lat="43.2247051" lon="11.5259611"><ele>177.0</ele><time>2026-04-04T15:14:48.067Z</time></trkpt><trkpt lat="43.2247807" lon="11.5259847"><ele>177.0</ele><time>2026-04-04T15:14:49.067Z</time></trkpt><trkpt lat="43.2248562" lon="11.526004"><ele>177.0</ele><time>2026-04-04T15:14:50.066Z</time></trkpt><trkpt lat="43.2249385" lon="11.526023"><ele>177.0</ele><time>2026-04-04T15:14:51.067Z</time></trkpt><trkpt lat="43.2250173" lon="11.5260422"><ele>177.6</ele><time>2026-04-04T15:14:52.066Z</time></trkpt><trkpt lat="43.2250977" lon="11.5260718"><ele>178.2</ele><time>2026-04-04T15:14:53.067Z</time></trkpt><trkpt lat="43.2251847" lon="11.5260965"><ele>178.8</ele><time>2026-04-04T15:14:54.067Z</time></trkpt><trkpt lat="43.2252784" lon="11.5261324"><ele>179.4</ele><time>2026-04-04T15:14:55.066Z</time></trkpt><trkpt lat="43.225381" lon="11.5261655"><ele>180.0</ele><time>2026-04-04T15:14:56.066Z</time></trkpt><trkpt lat="43.2254912" lon="11.526187"><ele>180.0</ele><time>2026-04-04T15:14:57.065Z</time></trkpt><trkpt lat="43.2256026" lon="11.5262232"><ele>180.0</ele><time>2026-04-04T15:14:58.066Z</time></trkpt><trkpt lat="43.225709" lon="11.5262677"><ele>180.0</ele><time>2026-04-04T15:14:59.065Z</time></trkpt><trkpt lat="43.2258207" lon="11.5262998"><ele>180.0</ele><time>2026-04-04T15:15:00.066Z</time></trkpt><trkpt lat="43.2258997" lon="11.5263109"><ele>180.0</ele><time>2026-04-04T15:15:01.067Z</time></trkpt><trkpt lat="43.2259671" lon="11.5263327"><ele>179.16666666666666</ele><time>2026-04-04T15:15:02.066Z</time></trkpt><trkpt lat="43.2260441" lon="11.5263596"><ele>178.33333333333334</ele><time>2026-04-04T15:15:03.067Z</time></trkpt><trkpt lat="43.2261286" lon="11.5263706"><ele>177.5</ele><time>2026-04-04T15:15:04.067Z</time></trkpt><trkpt lat="43.2262077" lon="11.5263638"><ele>176.66666666666669</ele><time>2026-04-04T15:15:05.066Z</time></trkpt><trkpt lat="43.2262868" lon="11.5263577"><ele>175.83333333333334</ele><time>2026-04-04T15:15:06.067Z</time></trkpt><trkpt lat="43.2263669" lon="11.5263396"><ele>175.0</ele><time>2026-04-04T15:15:07.065Z</time></trkpt><trkpt lat="43.226453" lon="11.5263404"><ele>175.33333333333334</ele><time>2026-04-04T15:15:08.065Z</time></trkpt><trkpt lat="43.2265372" lon="11.5263348"><ele>175.66666666666669</ele><time>2026-04-04T15:15:09.066Z</time></trkpt><trkpt lat="43.2266326" lon="11.5263298"><ele>176.0</ele><time>2026-04-04T15:15:10.067Z</time></trkpt><trkpt lat="43.2267257" lon="11.5263409"><ele>176.33333333333334</ele><time>2026-04-04T15:15:11.066Z</time></trkpt><trkpt lat="43.2268099" lon="11.5263323"><ele>176.66666666666666</ele><time>2026-04-04T15:15:12.066Z</time></trkpt><trkpt lat="43.2268798" lon="11.5263316"><ele>177.0</ele><time>2026-04-04T15:15:13.067Z</time></trkpt><trkpt lat="43.2269595" lon="11.5263291"><ele>177.0</ele><time>2026-04-04T15:15:14.066Z</time></trkpt><trkpt lat="43.2270376" lon="11.5263436"><ele>177.0</ele><time>2026-04-04T15:15:15.067Z</time></trkpt><trkpt lat="43.2271128" lon="11.526382"><ele>177.0</ele><time>2026-04-04T15:15:16.065Z</time></trkpt><trkpt lat="43.2271943" lon="11.5263985"><ele>177.0</ele><time>2026-04-04T15:15:17.067Z</time></trkpt><trkpt lat="43.2272672" lon="11.5264378"><ele>177.0</ele><time>2026-04-04T15:15:18.067Z</time></trkpt><trkpt lat="43.2273375" lon="11.5264897"><ele>177.0</ele><time>2026-04-04T15:15:19.067Z</time></trkpt><trkpt lat="43.2274002" lon="11.5265647"><ele>176.2</ele><time>2026-04-04T15:15:20.067Z</time></trkpt><trkpt lat="43.2274641" lon="11.5266381"><ele>175.39999999999998</ele><time>2026-04-04T15:15:21.067Z</time></trkpt><trkpt lat="43.2275388" lon="11.5267062"><ele>174.60000000000002</ele><time>2026-04-04T15:15:22.067Z</time></trkpt><trkpt lat="43.2276173" lon="11.5267828"><ele>173.8</ele><time>2026-04-04T15:15:23.066Z</time></trkpt><trkpt lat="43.227699" lon="11.5268558"><ele>173.0</ele><time>2026-04-04T15:15:24.067Z</time></trkpt><trkpt lat="43.2277811" lon="11.5269356"><ele>173.0</ele><time>2026-04-04T15:15:25.066Z</time></trkpt><trkpt lat="43.2278582" lon="11.5270302"><ele>173.0</ele><time>2026-04-04T15:15:26.066Z</time></trkpt><trkpt lat="43.2279437" lon="11.5271074"><ele>173.0</ele><time>2026-04-04T15:15:27.067Z</time></trkpt><trkpt lat="43.2280341" lon="11.5271676"><ele>173.0</ele><time>2026-04-04T15:15:28.066Z</time></trkpt><trkpt lat="43.2281265" lon="11.5272182"><ele>173.0</ele><time>2026-04-04T15:15:29.066Z</time></trkpt><trkpt lat="43.2282165" lon="11.5272723"><ele>172.0</ele><time>2026-04-04T15:15:30.066Z</time></trkpt><trkpt lat="43.2283088" lon="11.5273198"><ele>171.0</ele><time>2026-04-04T15:15:31.065Z</time></trkpt><trkpt lat="43.2283981" lon="11.5273663"><ele>170.0</ele><time>2026-04-04T15:15:32.065Z</time></trkpt><trkpt lat="43.2284923" lon="11.5274096"><ele>169.0</ele><time>2026-04-04T15:15:33.066Z</time></trkpt><trkpt lat="43.2285835" lon="11.5274535"><ele>168.0</ele><time>2026-04-04T15:15:34.066Z</time></trkpt><trkpt lat="43.228683" lon="11.5275114"><ele>168.0</ele><time>2026-04-04T15:15:35.065Z</time></trkpt><trkpt lat="43.2287712" lon="11.5275872"><ele>168.0</ele><time>2026-04-04T15:15:36.066Z</time></trkpt><trkpt lat="43.2288527" lon="11.5276641"><ele>168.0</ele><time>2026-04-04T15:15:37.066Z</time></trkpt><trkpt lat="43.2289306" lon="11.5277544"><ele>168.0</ele><time>2026-04-04T15:15:38.066Z</time></trkpt><trkpt lat="43.2290136" lon="11.5278549"><ele>168.0</ele><time>2026-04-04T15:15:39.065Z</time></trkpt><trkpt lat="43.2290928" lon="11.5279529"><ele>169.2</ele><time>2026-04-04T15:15:40.065Z</time></trkpt><trkpt lat="43.2291694" lon="11.5280546"><ele>170.4</ele><time>2026-04-04T15:15:41.066Z</time></trkpt><trkpt lat="43.229259" lon="11.5281559"><ele>171.6</ele><time>2026-04-04T15:15:42.066Z</time></trkpt><trkpt lat="43.2293343" lon="11.5282513"><ele>172.79999999999998</ele><time>2026-04-04T15:15:43.066Z</time></trkpt><trkpt lat="43.2294219" lon="11.5283431"><ele>174.0</ele><time>2026-04-04T15:15:44.067Z</time></trkpt><trkpt lat="43.2295075" lon="11.5284348"><ele>174.0</ele><time>2026-04-04T15:15:45.065Z</time></trkpt><trkpt lat="43.2295935" lon="11.5285273"><ele>174.0</ele><time>2026-04-04T15:15:46.066Z</time></trkpt><trkpt lat="43.2296749" lon="11.5286061"><ele>174.0</ele><time>2026-04-04T15:15:47.066Z</time></trkpt><trkpt lat="43.2297407" lon="11.5286631"><ele>174.0</ele><time>2026-04-04T15:15:48.067Z</time></trkpt><trkpt lat="43.229803" lon="11.5287411"><ele>174.0</ele><time>2026-04-04T15:15:50.067Z</time></trkpt><trkpt lat="43.2298658" lon="11.5287499"><ele>174.0</ele><time>2026-04-04T15:15:53.066Z</time></trkpt><trkpt lat="43.2299297" lon="11.5287815"><ele>174.39999999999998</ele><time>2026-04-04T15:15:55.066Z</time></trkpt><trkpt lat="43.2300343" lon="11.5289084"><ele>174.8</ele><time>2026-04-04T15:15:57.066Z</time></trkpt><trkpt lat="43.2301007" lon="11.5289962"><ele>175.2</ele><time>2026-04-04T15:15:58.067Z</time></trkpt><trkpt lat="43.2301697" lon="11.5290882"><ele>175.60000000000002</ele><time>2026-04-04T15:15:59.065Z</time></trkpt><trkpt lat="43.2302616" lon="11.5291892"><ele>176.0</ele><time>2026-04-04T15:16:00.066Z</time></trkpt><trkpt lat="43.2303434" lon="11.5293114"><ele>176.0</ele><time>2026-04-04T15:16:01.066Z</time></trkpt><trkpt lat="43.2304132" lon="11.5294178"><ele>176.0</ele><time>2026-04-04T15:16:02.064Z</time></trkpt><trkpt lat="43.2304838" lon="11.5295273"><ele>176.0</ele><time>2026-04-04T15:16:03.065Z</time></trkpt><trkpt lat="43.2305686" lon="11.5296441"><ele>176.0</ele><time>2026-04-04T15:16:04.065Z</time></trkpt><trkpt lat="43.2306595" lon="11.5297578"><ele>175.0</ele><time>2026-04-04T15:16:05.066Z</time></trkpt><trkpt lat="43.2307529" lon="11.5298899"><ele>174.0</ele><time>2026-04-04T15:16:06.066Z</time></trkpt><trkpt lat="43.2308508" lon="11.530029"><ele>173.0</ele><time>2026-04-04T15:16:07.067Z</time></trkpt><trkpt lat="43.2309632" lon="11.5301668"><ele>172.0</ele><time>2026-04-04T15:16:08.067Z</time></trkpt><trkpt lat="43.231063" lon="11.5303006"><ele>171.25</ele><time>2026-04-04T15:16:09.066Z</time></trkpt><trkpt lat="43.231165" lon="11.5304399"><ele>170.5</ele><time>2026-04-04T15:16:10.066Z</time></trkpt><trkpt lat="43.2312491" lon="11.5306012"><ele>169.75</ele><time>2026-04-04T15:16:11.067Z</time></trkpt><trkpt lat="43.231329" lon="11.5307625"><ele>169.0</ele><time>2026-04-04T15:16:12.067Z</time></trkpt><trkpt lat="43.2313914" lon="11.5309507"><ele>169.0</ele><time>2026-04-04T15:16:13.065Z</time></trkpt><trkpt lat="43.231452" lon="11.5311391"><ele>169.0</ele><time>2026-04-04T15:16:14.067Z</time></trkpt><trkpt lat="43.2314917" lon="11.5313356"><ele>169.0</ele><time>2026-04-04T15:16:15.064Z</time></trkpt><trkpt lat="43.231535" lon="11.5315479"><ele>169.33333333333334</ele><time>2026-04-04T15:16:16.066Z</time></trkpt><trkpt lat="43.2315843" lon="11.5317696"><ele>169.66666666666666</ele><time>2026-04-04T15:16:17.066Z</time></trkpt><trkpt lat="43.2316293" lon="11.5319959"><ele>170.0</ele><time>2026-04-04T15:16:18.066Z</time></trkpt><trkpt lat="43.2316742" lon="11.5322153"><ele>170.0</ele><time>2026-04-04T15:16:19.066Z</time></trkpt><trkpt lat="43.2317138" lon="11.532433"><ele>170.0</ele><time>2026-04-04T15:16:20.067Z</time></trkpt><trkpt lat="43.2317597" lon="11.532658"><ele>170.0</ele><time>2026-04-04T15:16:21.064Z</time></trkpt><trkpt lat="43.2318045" lon="11.5328914"><ele>170.0</ele><time>2026-04-04T15:16:22.066Z</time></trkpt><trkpt lat="43.2318493" lon="11.5331173"><ele>170.0</ele><time>2026-04-04T15:16:23.065Z</time></trkpt><trkpt lat="43.2318859" lon="11.5333245"><ele>170.0</ele><time>2026-04-04T15:16:24.066Z</time></trkpt><trkpt lat="43.2319246" lon="11.5335214"><ele>170.0</ele><time>2026-04-04T15:16:25.066Z</time></trkpt><trkpt lat="43.2319678" lon="11.533696"><ele>170.0</ele><time>2026-04-04T15:16:26.066Z</time></trkpt><trkpt lat="43.2320196" lon="11.5338655"><ele>170.0</ele><time>2026-04-04T15:16:27.065Z</time></trkpt><trkpt lat="43.2320914" lon="11.534019"><ele>170.0</ele><time>2026-04-04T15:16:28.065Z</time></trkpt><trkpt lat="43.2321782" lon="11.5341669"><ele>169.33333333333331</ele><time>2026-04-04T15:16:29.066Z</time></trkpt><trkpt lat="43.2322852" lon="11.5343001"><ele>168.66666666666666</ele><time>2026-04-04T15:16:30.065Z</time></trkpt><trkpt lat="43.2324165" lon="11.5344083"><ele>168.0</ele><time>2026-04-04T15:16:31.067Z</time></trkpt><trkpt lat="43.2325578" lon="11.5345252"><ele>168.66666666666666</ele><time>2026-04-04T15:16:32.064Z</time></trkpt><trkpt lat="43.2327065" lon="11.5346522"><ele>169.33333333333331</ele><time>2026-04-04T15:16:33.065Z</time></trkpt><trkpt lat="43.232857" lon="11.5347789"><ele>170.0</ele><time>2026-04-04T15:16:34.064Z</time></trkpt><trkpt lat="43.2330228" lon="11.5349023"><ele>171.33333333333331</ele><time>2026-04-04T15:16:35.066Z</time></trkpt><trkpt lat="43.2331863" lon="11.5350283"><ele>172.66666666666666</ele><time>2026-04-04T15:16:36.066Z</time></trkpt><trkpt lat="43.2333516" lon="11.5351585"><ele>174.0</ele><time>2026-04-04T15:16:37.066Z</time></trkpt><trkpt lat="43.233503" lon="11.5353069"><ele>172.33333333333334</ele><time>2026-04-04T15:16:38.066Z</time></trkpt><trkpt lat="43.2336336" lon="11.5354667"><ele>170.66666666666669</ele><time>2026-04-04T15:16:39.065Z</time></trkpt><trkpt lat="43.2337465" lon="11.535657"><ele>169.0</ele><time>2026-04-04T15:16:40.064Z</time></trkpt><trkpt lat="43.233857" lon="11.5358486"><ele>169.0</ele><time>2026-04-04T15:16:41.066Z</time></trkpt><trkpt lat="43.2339664" lon="11.5360415"><ele>169.0</ele><time>2026-04-04T15:16:42.065Z</time></trkpt><trkpt lat="43.23408" lon="11.5362387"><ele>169.0</ele><time>2026-04-04T15:16:43.065Z</time></trkpt><trkpt lat="43.2341929" lon="11.5364226"><ele>170.0</ele><time>2026-04-04T15:16:44.066Z</time></trkpt><trkpt lat="43.2342958" lon="11.536617"><ele>171.0</ele><time>2026-04-04T15:16:45.066Z</time></trkpt><trkpt lat="43.2343927" lon="11.536817"><ele>172.0</ele><time>2026-04-04T15:16:46.065Z</time></trkpt><trkpt lat="43.2344918" lon="11.5370156"><ele>172.0</ele><time>2026-04-04T15:16:47.065Z</time></trkpt><trkpt lat="43.234595" lon="11.5372036"><ele>172.0</ele><time>2026-04-04T15:16:48.065Z</time></trkpt><trkpt lat="43.2347015" lon="11.5373942"><ele>172.0</ele><time>2026-04-04T15:16:49.066Z</time></trkpt><trkpt lat="43.2348103" lon="11.5375979"><ele>172.66666666666669</ele><time>2026-04-04T15:16:50.064Z</time></trkpt><trkpt lat="43.2349173" lon="11.5377904"><ele>173.33333333333334</ele><time>2026-04-04T15:16:51.066Z</time></trkpt><trkpt lat="43.2350252" lon="11.5379835"><ele>174.0</ele><time>2026-04-04T15:16:52.066Z</time></trkpt><trkpt lat="43.2351277" lon="11.5381798"><ele>174.0</ele><time>2026-04-04T15:16:53.067Z</time></trkpt><trkpt lat="43.2352338" lon="11.5383778"><ele>174.0</ele><time>2026-04-04T15:16:54.065Z</time></trkpt><trkpt lat="43.2353354" lon="11.5385771"><ele>174.0</ele><time>2026-04-04T15:16:55.065Z</time></trkpt><trkpt lat="43.2354511" lon="11.5387746"><ele>173.66666666666666</ele><time>2026-04-04T15:16:56.067Z</time></trkpt><trkpt lat="43.2355515" lon="11.5389628"><ele>173.33333333333331</ele><time>2026-04-04T15:16:57.065Z</time></trkpt><trkpt lat="43.2356579" lon="11.5391537"><ele>173.0</ele><time>2026-04-04T15:16:58.065Z</time></trkpt><trkpt lat="43.2357497" lon="11.5393257"><ele>173.5</ele><time>2026-04-04T15:16:59.066Z</time></trkpt><trkpt lat="43.2358289" lon="11.5394888"><ele>174.0</ele><time>2026-04-04T15:17:00.065Z</time></trkpt><trkpt lat="43.2358856" lon="11.5396491"><ele>174.5</ele><time>2026-04-04T15:17:01.066Z</time></trkpt><trkpt lat="43.2359192" lon="11.5398183"><ele>175.0</ele><time>2026-04-04T15:17:02.066Z</time></trkpt><trkpt lat="43.2359297" lon="11.5400048"><ele>175.0</ele><time>2026-04-04T15:17:03.064Z</time></trkpt><trkpt lat="43.2359271" lon="11.5402108"><ele>175.0</ele><time>2026-04-04T15:17:04.065Z</time></trkpt><trkpt lat="43.2359163" lon="11.5404348"><ele>175.0</ele><time>2026-04-04T15:17:05.065Z</time></trkpt><trkpt lat="43.2359022" lon="11.5406619"><ele>175.0</ele><time>2026-04-04T15:17:06.066Z</time></trkpt><trkpt lat="43.2358905" lon="11.5408989"><ele>175.0</ele><time>2026-04-04T15:17:07.065Z</time></trkpt><trkpt lat="43.2358834" lon="11.5411412"><ele>175.0</ele><time>2026-04-04T15:17:08.064Z</time></trkpt><trkpt lat="43.2358766" lon="11.5413754"><ele>176.33333333333334</ele><time>2026-04-04T15:17:09.065Z</time></trkpt><trkpt lat="43.2358634" lon="11.5416228"><ele>177.66666666666666</ele><time>2026-04-04T15:17:10.065Z</time></trkpt><trkpt lat="43.2358601" lon="11.541864"><ele>179.0</ele><time>2026-04-04T15:17:11.067Z</time></trkpt><trkpt lat="43.235852" lon="11.5421116"><ele>179.0</ele><time>2026-04-04T15:17:12.065Z</time></trkpt><trkpt lat="43.235851" lon="11.5423638"><ele>179.0</ele><time>2026-04-04T15:17:13.066Z</time></trkpt><trkpt lat="43.2358532" lon="11.5426138"><ele>179.0</ele><time>2026-04-04T15:17:14.065Z</time></trkpt><trkpt lat="43.2358371" lon="11.5428494"><ele>178.66666666666666</ele><time>2026-04-04T15:17:15.065Z</time></trkpt><trkpt lat="43.2358176" lon="11.5430696"><ele>178.33333333333334</ele><time>2026-04-04T15:17:16.065Z</time></trkpt><trkpt lat="43.2358063" lon="11.5432764"><ele>178.0</ele><time>2026-04-04T15:17:17.067Z</time></trkpt><trkpt lat="43.2357983" lon="11.5434814"><ele>178.0</ele><time>2026-04-04T15:17:18.066Z</time></trkpt><trkpt lat="43.2357886" lon="11.5436579"><ele>178.0</ele><time>2026-04-04T15:17:19.066Z</time></trkpt><trkpt lat="43.235776" lon="11.543836"><ele>178.0</ele><time>2026-04-04T15:17:20.065Z</time></trkpt><trkpt lat="43.2357696" lon="11.5439891"><ele>178.0</ele><time>2026-04-04T15:17:21.065Z</time></trkpt><trkpt lat="43.2357614" lon="11.5441351"><ele>177.8</ele><time>2026-04-04T15:17:22.065Z</time></trkpt><trkpt lat="43.2357552" lon="11.5442887"><ele>177.60000000000002</ele><time>2026-04-04T15:17:23.066Z</time></trkpt><trkpt lat="43.2357529" lon="11.5444229"><ele>177.39999999999998</ele><time>2026-04-04T15:17:24.066Z</time></trkpt><trkpt lat="43.2357485" lon="11.5445597"><ele>177.2</ele><time>2026-04-04T15:17:25.066Z</time></trkpt><trkpt lat="43.2357403" lon="11.5446941"><ele>177.0</ele><time>2026-04-04T15:17:26.065Z</time></trkpt><trkpt lat="43.2357465" lon="11.5448297"><ele>176.75</ele><time>2026-04-04T15:17:27.066Z</time></trkpt><trkpt lat="43.2357605" lon="11.5449841"><ele>176.5</ele><time>2026-04-04T15:17:28.065Z</time></trkpt><trkpt lat="43.2357897" lon="11.545148"><ele>176.25</ele><time>2026-04-04T15:17:29.066Z</time></trkpt><trkpt lat="43.2358385" lon="11.5453226"><ele>176.0</ele><time>2026-04-04T15:17:30.066Z</time></trkpt><trkpt lat="43.2358899" lon="11.5455026"><ele>176.0</ele><time>2026-04-04T15:17:31.066Z</time></trkpt><trkpt lat="43.2359548" lon="11.545684"><ele>176.0</ele><time>2026-04-04T15:17:32.065Z</time></trkpt><trkpt lat="43.2360285" lon="11.5458622"><ele>176.0</ele><time>2026-04-04T15:17:33.065Z</time></trkpt><trkpt lat="43.2361028" lon="11.5460551"><ele>175.0</ele><time>2026-04-04T15:17:34.066Z</time></trkpt><trkpt lat="43.2361885" lon="11.5462317"><ele>174.0</ele><time>2026-04-04T15:17:35.066Z</time></trkpt><trkpt lat="43.2362866" lon="11.5463853"><ele>173.0</ele><time>2026-04-04T15:17:36.064Z</time></trkpt><trkpt lat="43.2363913" lon="11.546549"><ele>174.66666666666666</ele><time>2026-04-04T15:17:37.064Z</time></trkpt><trkpt lat="43.2365017" lon="11.5467082"><ele>176.33333333333334</ele><time>2026-04-04T15:17:38.065Z</time></trkpt><trkpt lat="43.2366101" lon="11.5468695"><ele>178.0</ele><time>2026-04-04T15:17:39.064Z</time></trkpt><trkpt lat="43.236718" lon="11.547026"><ele>176.66666666666669</ele><time>2026-04-04T15:17:40.066Z</time></trkpt><trkpt lat="43.2368229" lon="11.5471835"><ele>175.33333333333334</ele><time>2026-04-04T15:17:41.065Z</time></trkpt><trkpt lat="43.2369423" lon="11.5473306"><ele>174.0</ele><time>2026-04-04T15:17:42.066Z</time></trkpt><trkpt lat="43.2370596" lon="11.5474728"><ele>174.0</ele><time>2026-04-04T15:17:43.064Z</time></trkpt><trkpt lat="43.2371846" lon="11.5476292"><ele>174.0</ele><time>2026-04-04T15:17:44.065Z</time></trkpt><trkpt lat="43.2373097" lon="11.5477653"><ele>174.0</ele><time>2026-04-04T15:17:45.065Z</time></trkpt><trkpt lat="43.2374355" lon="11.5479152"><ele>174.66666666666666</ele><time>2026-04-04T15:17:46.066Z</time></trkpt><trkpt lat="43.2375597" lon="11.5480526"><ele>175.33333333333331</ele><time>2026-04-04T15:17:47.066Z</time></trkpt><trkpt lat="43.2376863" lon="11.548177"><ele>176.0</ele><time>2026-04-04T15:17:48.065Z</time></trkpt><trkpt lat="43.2378038" lon="11.5483127"><ele>176.0</ele><time>2026-04-04T15:17:49.064Z</time></trkpt><trkpt lat="43.2379246" lon="11.548435"><ele>176.0</ele><time>2026-04-04T15:17:50.065Z</time></trkpt><trkpt lat="43.2380528" lon="11.5485648"><ele>176.0</ele><time>2026-04-04T15:17:51.065Z</time></trkpt><trkpt lat="43.2381788" lon="11.5486881"><ele>176.0</ele><time>2026-04-04T15:17:52.066Z</time></trkpt><trkpt lat="43.2383107" lon="11.5488088"><ele>176.0</ele><time>2026-04-04T15:17:53.065Z</time></trkpt><trkpt lat="43.2384414" lon="11.5489266"><ele>176.0</ele><time>2026-04-04T15:17:54.066Z</time></trkpt><trkpt lat="43.2385686" lon="11.5490354"><ele>176.0</ele><time>2026-04-04T15:17:55.065Z</time></trkpt><trkpt lat="43.2386919" lon="11.5491467"><ele>176.0</ele><time>2026-04-04T15:17:56.065Z</time></trkpt><trkpt lat="43.2388198" lon="11.5492407"><ele>176.0</ele><time>2026-04-04T15:17:57.065Z</time></trkpt><trkpt lat="43.2389477" lon="11.5493401"><ele>176.0</ele><time>2026-04-04T15:17:58.065Z</time></trkpt><trkpt lat="43.2390724" lon="11.5494358"><ele>175.66666666666666</ele><time>2026-04-04T15:17:59.066Z</time></trkpt><trkpt lat="43.2391993" lon="11.5495468"><ele>175.33333333333334</ele><time>2026-04-04T15:18:00.066Z</time></trkpt><trkpt lat="43.2393233" lon="11.5496637"><ele>175.0</ele><time>2026-04-04T15:18:01.066Z</time></trkpt><trkpt lat="43.2394398" lon="11.5497997"><ele>175.0</ele><time>2026-04-04T15:18:02.064Z</time></trkpt><trkpt lat="43.2395464" lon="11.5499421"><ele>175.0</ele><time>2026-04-04T15:18:03.066Z</time></trkpt><trkpt lat="43.2396499" lon="11.5500845"><ele>175.0</ele><time>2026-04-04T15:18:04.066Z</time></trkpt><trkpt lat="43.2397569" lon="11.5502315"><ele>175.0</ele><time>2026-04-04T15:18:05.065Z</time></trkpt><trkpt lat="43.2398711" lon="11.5503797"><ele>174.33333333333334</ele><time>2026-04-04T15:18:06.065Z</time></trkpt><trkpt lat="43.2399848" lon="11.5505203"><ele>173.66666666666666</ele><time>2026-04-04T15:18:07.066Z</time></trkpt><trkpt lat="43.2400941" lon="11.550671"><ele>173.0</ele><time>2026-04-04T15:18:08.065Z</time></trkpt><trkpt lat="43.2402179" lon="11.5508038"><ele>173.0</ele><time>2026-04-04T15:18:09.064Z</time></trkpt><trkpt lat="43.240328" lon="11.5509537"><ele>173.0</ele><time>2026-04-04T15:18:10.064Z</time></trkpt><trkpt lat="43.2404324" lon="11.5511053"><ele>173.0</ele><time>2026-04-04T15:18:11.064Z</time></trkpt><trkpt lat="43.2405282" lon="11.5512511"><ele>172.5</ele><time>2026-04-04T15:18:12.066Z</time></trkpt><trkpt lat="43.2406177" lon="11.5513785"><ele>172.0</ele><time>2026-04-04T15:18:13.066Z</time></trkpt><trkpt lat="43.2407016" lon="11.5514929"><ele>171.5</ele><time>2026-04-04T15:18:14.066Z</time></trkpt><trkpt lat="43.240774" lon="11.551601"><ele>171.0</ele><time>2026-04-04T15:18:15.064Z</time></trkpt><trkpt lat="43.2408241" lon="11.551715"><ele>172.60000000000002</ele><time>2026-04-04T15:18:16.064Z</time></trkpt><trkpt lat="43.2408388" lon="11.5518336"><ele>174.2</ele><time>2026-04-04T15:18:17.066Z</time></trkpt><trkpt lat="43.2408256" lon="11.5519585"><ele>175.8</ele><time>2026-04-04T15:18:18.065Z</time></trkpt><trkpt lat="43.2407897" lon="11.5520746"><ele>177.39999999999998</ele><time>2026-04-04T15:18:19.064Z</time></trkpt><trkpt lat="43.2407434" lon="11.5521846"><ele>179.0</ele><time>2026-04-04T15:18:20.064Z</time></trkpt><trkpt lat="43.2407036" lon="11.5522928"><ele>179.16666666666666</ele><time>2026-04-04T15:18:21.065Z</time></trkpt><trkpt lat="43.2406724" lon="11.5523817"><ele>179.33333333333331</ele><time>2026-04-04T15:18:22.065Z</time></trkpt><trkpt lat="43.2406439" lon="11.5524732"><ele>179.5</ele><time>2026-04-04T15:18:23.065Z</time></trkpt><trkpt lat="43.2406024" lon="11.5525687"><ele>179.66666666666666</ele><time>2026-04-04T15:18:24.066Z</time></trkpt><trkpt lat="43.2405485" lon="11.5526742"><ele>179.83333333333334</ele><time>2026-04-04T15:18:25.066Z</time></trkpt><trkpt lat="43.2404934" lon="11.5527714"><ele>180.0</ele><time>2026-04-04T15:18:26.066Z</time></trkpt><trkpt lat="43.2404432" lon="11.5528596"><ele>179.16666666666666</ele><time>2026-04-04T15:18:27.066Z</time></trkpt><trkpt lat="43.2404104" lon="11.5529422"><ele>178.33333333333334</ele><time>2026-04-04T15:18:28.065Z</time></trkpt><trkpt lat="43.2404166" lon="11.5530448"><ele>177.5</ele><time>2026-04-04T15:18:30.065Z</time></trkpt><trkpt lat="43.2404886" lon="11.5530978"><ele>176.66666666666669</ele><time>2026-04-04T15:18:32.065Z</time></trkpt><trkpt lat="43.2405997" lon="11.5531755"><ele>175.83333333333334</ele><time>2026-04-04T15:18:34.065Z</time></trkpt><trkpt lat="43.2406764" lon="11.5532183"><ele>175.0</ele><time>2026-04-04T15:18:35.065Z</time></trkpt><trkpt lat="43.2407474" lon="11.5532662"><ele>175.0</ele><time>2026-04-04T15:18:36.065Z</time></trkpt><trkpt lat="43.2408345" lon="11.5533308"><ele>175.0</ele><time>2026-04-04T15:18:37.066Z</time></trkpt><trkpt lat="43.2409331" lon="11.5533994"><ele>175.0</ele><time>2026-04-04T15:18:38.065Z</time></trkpt><trkpt lat="43.2410059" lon="11.5535011"><ele>175.0</ele><time>2026-04-04T15:18:39.065Z</time></trkpt><trkpt lat="43.2410969" lon="11.5535846"><ele>175.0</ele><time>2026-04-04T15:18:40.064Z</time></trkpt><trkpt lat="43.2411926" lon="11.5536607"><ele>174.6</ele><time>2026-04-04T15:18:41.065Z</time></trkpt><trkpt lat="43.2412886" lon="11.5537105"><ele>174.2</ele><time>2026-04-04T15:18:42.063Z</time></trkpt><trkpt lat="43.2413864" lon="11.5537634"><ele>173.8</ele><time>2026-04-04T15:18:43.064Z</time></trkpt><trkpt lat="43.2414802" lon="11.5537857"><ele>173.4</ele><time>2026-04-04T15:18:44.065Z</time></trkpt><trkpt lat="43.2415875" lon="11.5537853"><ele>173.0</ele><time>2026-04-04T15:18:45.063Z</time></trkpt><trkpt lat="43.2416958" lon="11.5537843"><ele>174.0</ele><time>2026-04-04T15:18:46.065Z</time></trkpt><trkpt lat="43.2417967" lon="11.5537931"><ele>175.0</ele><time>2026-04-04T15:18:47.065Z</time></trkpt><trkpt lat="43.2418977" lon="11.5538211"><ele>176.0</ele><time>2026-04-04T15:18:48.064Z</time></trkpt><trkpt lat="43.2419918" lon="11.5538637"><ele>177.0</ele><time>2026-04-04T15:18:49.063Z</time></trkpt><trkpt lat="43.2420808" lon="11.5539052"><ele>178.0</ele><time>2026-04-04T15:18:50.064Z</time></trkpt><trkpt lat="43.2421714" lon="11.5539576"><ele>178.0</ele><time>2026-04-04T15:18:51.065Z</time></trkpt><trkpt lat="43.2422608" lon="11.554002"><ele>178.0</ele><time>2026-04-04T15:18:52.064Z</time></trkpt><trkpt lat="43.2423566" lon="11.5540608"><ele>178.0</ele><time>2026-04-04T15:18:53.064Z</time></trkpt><trkpt lat="43.2424167" lon="11.5541915"><ele>178.0</ele><time>2026-04-04T15:18:54.065Z</time></trkpt><trkpt lat="43.2424977" lon="11.5542731"><ele>178.0</ele><time>2026-04-04T15:18:55.065Z</time></trkpt><trkpt lat="43.2425615" lon="11.554284"><ele>180.66666666666669</ele><time>2026-04-04T15:18:57.064Z</time></trkpt><trkpt lat="43.2426636" lon="11.5543595"><ele>183.33333333333334</ele><time>2026-04-04T15:18:59.065Z</time></trkpt><trkpt lat="43.2427288" lon="11.5544238"><ele>186.0</ele><time>2026-04-04T15:19:00.064Z</time></trkpt><trkpt lat="43.2428051" lon="11.5544569"><ele>188.66666666666669</ele><time>2026-04-04T15:19:01.066Z</time></trkpt><trkpt lat="43.2428854" lon="11.5544776"><ele>191.33333333333334</ele><time>2026-04-04T15:19:02.064Z</time></trkpt><trkpt lat="43.242969" lon="11.5544999"><ele>194.0</ele><time>2026-04-04T15:19:03.064Z</time></trkpt><trkpt lat="43.2430559" lon="11.5545159"><ele>195.00000000000003</ele><time>2026-04-04T15:19:04.064Z</time></trkpt><trkpt lat="43.2431486" lon="11.5545299"><ele>196.0</ele><time>2026-04-04T15:19:05.066Z</time></trkpt><trkpt lat="43.2432372" lon="11.554516"><ele>197.0</ele><time>2026-04-04T15:19:06.063Z</time></trkpt><trkpt lat="43.2433215" lon="11.5545046"><ele>198.0</ele><time>2026-04-04T15:19:07.063Z</time></trkpt><trkpt lat="43.2434094" lon="11.5544955"><ele>199.00000000000003</ele><time>2026-04-04T15:19:08.064Z</time></trkpt><trkpt lat="43.2435003" lon="11.5544914"><ele>200.0</ele><time>2026-04-04T15:19:09.064Z</time></trkpt><trkpt lat="43.2435906" lon="11.55446"><ele>200.00000000000003</ele><time>2026-04-04T15:19:10.065Z</time></trkpt><trkpt lat="43.243682" lon="11.554452"><ele>200.0</ele><time>2026-04-04T15:19:11.065Z</time></trkpt><trkpt lat="43.2437736" lon="11.5544428"><ele>200.0</ele><time>2026-04-04T15:19:12.064Z</time></trkpt><trkpt lat="43.2438602" lon="11.554443"><ele>200.0</ele><time>2026-04-04T15:19:13.065Z</time></trkpt><trkpt lat="43.2439477" lon="11.554426"><ele>200.00000000000003</ele><time>2026-04-04T15:19:14.064Z</time></trkpt><trkpt lat="43.2440343" lon="11.5544153"><ele>200.0</ele><time>2026-04-04T15:19:15.063Z</time></trkpt><trkpt lat="43.2441267" lon="11.5543978"><ele>197.5</ele><time>2026-04-04T15:19:16.064Z</time></trkpt><trkpt lat="43.2442434" lon="11.5543804"><ele>195.0</ele><time>2026-04-04T15:19:17.064Z</time></trkpt><trkpt lat="43.2443602" lon="11.5543614"><ele>192.5</ele><time>2026-04-04T15:19:18.066Z</time></trkpt><trkpt lat="43.2444755" lon="11.5543419"><ele>190.0</ele><time>2026-04-04T15:19:19.064Z</time></trkpt><trkpt lat="43.2445869" lon="11.5543337"><ele>190.0</ele><time>2026-04-04T15:19:20.065Z</time></trkpt><trkpt lat="43.2447025" lon="11.5543276"><ele>190.0</ele><time>2026-04-04T15:19:21.065Z</time></trkpt><trkpt lat="43.2448138" lon="11.5543208"><ele>190.0</ele><time>2026-04-04T15:19:22.065Z</time></trkpt><trkpt lat="43.2449242" lon="11.5543096"><ele>190.0</ele><time>2026-04-04T15:19:23.065Z</time></trkpt><trkpt lat="43.2450371" lon="11.5542913"><ele>189.2</ele><time>2026-04-04T15:19:24.064Z</time></trkpt><trkpt lat="43.2451481" lon="11.5542754"><ele>188.4</ele><time>2026-04-04T15:19:25.064Z</time></trkpt><trkpt lat="43.2452546" lon="11.5542522"><ele>187.60000000000002</ele><time>2026-04-04T15:19:26.065Z</time></trkpt><trkpt lat="43.245369" lon="11.5542313"><ele>186.8</ele><time>2026-04-04T15:19:27.065Z</time></trkpt><trkpt lat="43.2454813" lon="11.5542251"><ele>186.0</ele><time>2026-04-04T15:19:28.066Z</time></trkpt><trkpt lat="43.2455949" lon="11.5542034"><ele>184.20000000000002</ele><time>2026-04-04T15:19:29.066Z</time></trkpt><trkpt lat="43.2457127" lon="11.5541875"><ele>182.4</ele><time>2026-04-04T15:19:30.064Z</time></trkpt><trkpt lat="43.2458238" lon="11.5541805"><ele>180.6</ele><time>2026-04-04T15:19:31.065Z</time></trkpt><trkpt lat="43.2459321" lon="11.5541679"><ele>178.8</ele><time>2026-04-04T15:19:32.063Z</time></trkpt><trkpt lat="43.246042" lon="11.5541513"><ele>177.0</ele><time>2026-04-04T15:19:33.065Z</time></trkpt><trkpt lat="43.2461591" lon="11.5541359"><ele>177.0</ele><time>2026-04-04T15:19:34.066Z</time></trkpt><trkpt lat="43.2462706" lon="11.5541138"><ele>177.0</ele><time>2026-04-04T15:19:35.064Z</time></trkpt><trkpt lat="43.2463819" lon="11.5541096"><ele>177.0</ele><time>2026-04-04T15:19:36.065Z</time></trkpt><trkpt lat="43.2464947" lon="11.5541125"><ele>177.0</ele><time>2026-04-04T15:19:37.065Z</time></trkpt><trkpt lat="43.2465955" lon="11.5541264"><ele>177.0</ele><time>2026-04-04T15:19:38.065Z</time></trkpt><trkpt lat="43.2466895" lon="11.5541552"><ele>176.0</ele><time>2026-04-04T15:19:39.063Z</time></trkpt><trkpt lat="43.2467835" lon="11.5541931"><ele>175.0</ele><time>2026-04-04T15:19:40.063Z</time></trkpt><trkpt lat="43.2468722" lon="11.5542429"><ele>174.0</ele><time>2026-04-04T15:19:41.063Z</time></trkpt><trkpt lat="43.2469568" lon="11.5542913"><ele>173.0</ele><time>2026-04-04T15:19:42.065Z</time></trkpt><trkpt lat="43.2470384" lon="11.5543504"><ele>172.0</ele><time>2026-04-04T15:19:43.065Z</time></trkpt><trkpt lat="43.2471224" lon="11.5544065"><ele>172.0</ele><time>2026-04-04T15:19:44.063Z</time></trkpt><trkpt lat="43.2472016" lon="11.5544652"><ele>172.0</ele><time>2026-04-04T15:19:45.064Z</time></trkpt><trkpt lat="43.2472772" lon="11.5545239"><ele>172.0</ele><time>2026-04-04T15:19:46.064Z</time></trkpt><trkpt lat="43.2473509" lon="11.55458"><ele>172.0</ele><time>2026-04-04T15:19:47.064Z</time></trkpt><trkpt lat="43.2474329" lon="11.5546342"><ele>172.0</ele><time>2026-04-04T15:19:48.064Z</time></trkpt><trkpt lat="43.2475169" lon="11.5546896"><ele>172.0</ele><time>2026-04-04T15:19:49.065Z</time></trkpt><trkpt lat="43.2475918" lon="11.5547486"><ele>173.16666666666669</ele><time>2026-04-04T15:19:50.064Z</time></trkpt><trkpt lat="43.2476637" lon="11.5548041"><ele>174.33333333333334</ele><time>2026-04-04T15:19:51.065Z</time></trkpt><trkpt lat="43.2477343" lon="11.5548606"><ele>175.5</ele><time>2026-04-04T15:19:52.065Z</time></trkpt><trkpt lat="43.2477987" lon="11.5549306"><ele>176.66666666666666</ele><time>2026-04-04T15:19:53.064Z</time></trkpt><trkpt lat="43.2478557" lon="11.5550037"><ele>177.83333333333331</ele><time>2026-04-04T15:19:54.065Z</time></trkpt><trkpt lat="43.2479029" lon="11.555083"><ele>179.0</ele><time>2026-04-04T15:19:55.066Z</time></trkpt><trkpt lat="43.2479558" lon="11.5551695"><ele>179.0</ele><time>2026-04-04T15:19:56.064Z</time></trkpt><trkpt lat="43.2480026" lon="11.5552509"><ele>179.0</ele><time>2026-04-04T15:19:57.066Z</time></trkpt><trkpt lat="43.2480538" lon="11.5553351"><ele>179.0</ele><time>2026-04-04T15:19:58.064Z</time></trkpt><trkpt lat="43.2481374" lon="11.5554152"><ele>179.0</ele><time>2026-04-04T15:19:59.064Z</time></trkpt><trkpt lat="43.2482015" lon="11.5554888"><ele>179.0</ele><time>2026-04-04T15:20:00.065Z</time></trkpt><trkpt lat="43.2482705" lon="11.5555532"><ele>179.0</ele><time>2026-04-04T15:20:01.063Z</time></trkpt><trkpt lat="43.2483464" lon="11.5556367"><ele>180.33333333333331</ele><time>2026-04-04T15:20:02.063Z</time></trkpt><trkpt lat="43.2484169" lon="11.5557095"><ele>181.66666666666666</ele><time>2026-04-04T15:20:03.064Z</time></trkpt><trkpt lat="43.2484886" lon="11.5557656"><ele>183.0</ele><time>2026-04-04T15:20:04.063Z</time></trkpt><trkpt lat="43.2485573" lon="11.5558212"><ele>184.33333333333334</ele><time>2026-04-04T15:20:05.064Z</time></trkpt><trkpt lat="43.2486227" lon="11.5558732"><ele>185.66666666666669</ele><time>2026-04-04T15:20:06.064Z</time></trkpt><trkpt lat="43.2486917" lon="11.5559247"><ele>187.0</ele><time>2026-04-04T15:20:07.064Z</time></trkpt><trkpt lat="43.2487568" lon="11.5559663"><ele>187.0</ele><time>2026-04-04T15:20:08.064Z</time></trkpt><trkpt lat="43.2488176" lon="11.5560073"><ele>187.0</ele><time>2026-04-04T15:20:09.064Z</time></trkpt><trkpt lat="43.2488761" lon="11.5560428"><ele>187.0</ele><time>2026-04-04T15:20:10.064Z</time></trkpt><trkpt lat="43.2489772" lon="11.5560672"><ele>187.0</ele><time>2026-04-04T15:20:12.065Z</time></trkpt><trkpt lat="43.2490685" lon="11.5560343"><ele>187.0</ele><time>2026-04-04T15:20:14.064Z</time></trkpt><trkpt lat="43.24914" lon="11.5560124"><ele>187.0</ele><time>2026-04-04T15:20:17.064Z</time></trkpt><trkpt lat="43.2492137" lon="11.555985"><ele>188.5</ele><time>2026-04-04T15:20:30.063Z</time></trkpt><trkpt lat="43.2493361" lon="11.5559666"><ele>190.0</ele><time>2026-04-04T15:20:32.064Z</time></trkpt><trkpt lat="43.2494082" lon="11.5559485"><ele>191.5</ele><time>2026-04-04T15:20:33.063Z</time></trkpt><trkpt lat="43.2494814" lon="11.5559299"><ele>193.0</ele><time>2026-04-04T15:20:34.063Z</time></trkpt><trkpt lat="43.2495646" lon="11.5559129"><ele>194.49999999999997</ele><time>2026-04-04T15:20:35.065Z</time></trkpt><trkpt lat="43.2496515" lon="11.5559058"><ele>196.0</ele><time>2026-04-04T15:20:36.065Z</time></trkpt><trkpt lat="43.2497402" lon="11.5559014"><ele>196.60000000000002</ele><time>2026-04-04T15:20:37.063Z</time></trkpt><trkpt lat="43.2498431" lon="11.555907"><ele>197.2</ele><time>2026-04-04T15:20:38.065Z</time></trkpt><trkpt lat="43.249935" lon="11.5558944"><ele>197.8</ele><time>2026-04-04T15:20:39.065Z</time></trkpt><trkpt lat="43.2500287" lon="11.5558737"><ele>198.39999999999998</ele><time>2026-04-04T15:20:40.065Z</time></trkpt><trkpt lat="43.2501171" lon="11.5558288"><ele>199.0</ele><time>2026-04-04T15:20:41.065Z</time></trkpt><trkpt lat="43.2501991" lon="11.555758"><ele>198.99999999999997</ele><time>2026-04-04T15:20:42.065Z</time></trkpt><trkpt lat="43.2502784" lon="11.555703"><ele>199.0</ele><time>2026-04-04T15:20:43.065Z</time></trkpt><trkpt lat="43.25035" lon="11.5556447"><ele>199.0</ele><time>2026-04-04T15:20:44.064Z</time></trkpt><trkpt lat="43.2504151" lon="11.5555509"><ele>199.0</ele><time>2026-04-04T15:20:45.063Z</time></trkpt><trkpt lat="43.2504726" lon="11.555488"><ele>198.99999999999997</ele><time>2026-04-04T15:20:46.063Z</time></trkpt><trkpt lat="43.2505387" lon="11.5554205"><ele>199.0</ele><time>2026-04-04T15:20:47.064Z</time></trkpt><trkpt lat="43.2505999" lon="11.5553711"><ele>202.2</ele><time>2026-04-04T15:20:48.066Z</time></trkpt><trkpt lat="43.2506646" lon="11.5553018"><ele>205.39999999999998</ele><time>2026-04-04T15:20:49.065Z</time></trkpt><trkpt lat="43.2507616" lon="11.5551857"><ele>208.6</ele><time>2026-04-04T15:20:51.063Z</time></trkpt><trkpt lat="43.2508424" lon="11.5550797"><ele>211.8</ele><time>2026-04-04T15:20:52.065Z</time></trkpt><trkpt lat="43.2509107" lon="11.5550132"><ele>215.0</ele><time>2026-04-04T15:20:53.063Z</time></trkpt><trkpt lat="43.2510134" lon="11.5549792"><ele>215.00000000000003</ele><time>2026-04-04T15:20:54.064Z</time></trkpt><trkpt lat="43.2510967" lon="11.5549403"><ele>215.0</ele><time>2026-04-04T15:20:55.063Z</time></trkpt><trkpt lat="43.2511774" lon="11.5549269"><ele>215.0</ele><time>2026-04-04T15:20:56.065Z</time></trkpt><trkpt lat="43.2512497" lon="11.5548776"><ele>215.0</ele><time>2026-04-04T15:20:57.064Z</time></trkpt><trkpt lat="43.251336" lon="11.5548442"><ele>215.00000000000003</ele><time>2026-04-04T15:20:58.064Z</time></trkpt><trkpt lat="43.2514419" lon="11.5548304"><ele>215.0</ele><time>2026-04-04T15:20:59.064Z</time></trkpt><trkpt lat="43.2515389" lon="11.5547914"><ele>214.6</ele><time>2026-04-04T15:21:00.065Z</time></trkpt><trkpt lat="43.2516558" lon="11.5547202"><ele>214.2</ele><time>2026-04-04T15:21:01.062Z</time></trkpt><trkpt lat="43.2517597" lon="11.5546771"><ele>213.8</ele><time>2026-04-04T15:21:02.064Z</time></trkpt><trkpt lat="43.2518684" lon="11.5546514"><ele>213.4</ele><time>2026-04-04T15:21:03.064Z</time></trkpt><trkpt lat="43.251945" lon="11.554644"><ele>213.0</ele><time>2026-04-04T15:21:04.062Z</time></trkpt><trkpt lat="43.2520096" lon="11.5546356"><ele>213.0</ele><time>2026-04-04T15:21:05.064Z</time></trkpt><trkpt lat="43.252085" lon="11.5546052"><ele>213.0</ele><time>2026-04-04T15:21:07.064Z</time></trkpt><trkpt lat="43.2521496" lon="11.5545771"><ele>213.0</ele><time>2026-04-04T15:21:09.062Z</time></trkpt><trkpt lat="43.2522184" lon="11.5545831"><ele>213.0</ele><time>2026-04-04T15:21:11.065Z</time></trkpt><trkpt lat="43.2523322" lon="11.5546119"><ele>213.0</ele><time>2026-04-04T15:21:13.064Z</time></trkpt><trkpt lat="43.252414" lon="11.5546543"><ele>213.0</ele><time>2026-04-04T15:21:14.064Z</time></trkpt><trkpt lat="43.252493" lon="11.5546801"><ele>213.2</ele><time>2026-04-04T15:21:15.065Z</time></trkpt><trkpt lat="43.252573" lon="11.5546986"><ele>213.4</ele><time>2026-04-04T15:21:16.065Z</time></trkpt><trkpt lat="43.2526698" lon="11.5547106"><ele>213.59999999999997</ele><time>2026-04-04T15:21:17.065Z</time></trkpt><trkpt lat="43.2527655" lon="11.5547207"><ele>213.79999999999998</ele><time>2026-04-04T15:21:18.064Z</time></trkpt><trkpt lat="43.2528624" lon="11.5547051"><ele>214.0</ele><time>2026-04-04T15:21:19.065Z</time></trkpt><trkpt lat="43.2529533" lon="11.5546832"><ele>214.0</ele><time>2026-04-04T15:21:20.064Z</time></trkpt><trkpt lat="43.2530457" lon="11.5546548"><ele>213.99999999999997</ele><time>2026-04-04T15:21:21.064Z</time></trkpt><trkpt lat="43.2531334" lon="11.5546291"><ele>213.99999999999997</ele><time>2026-04-04T15:21:22.064Z</time></trkpt><trkpt lat="43.2532227" lon="11.5545928"><ele>214.0</ele><time>2026-04-04T15:21:23.063Z</time></trkpt><trkpt lat="43.2533058" lon="11.5545497"><ele>214.0</ele><time>2026-04-04T15:21:24.063Z</time></trkpt><trkpt lat="43.2533891" lon="11.5545059"><ele>216.99999999999997</ele><time>2026-04-04T15:21:25.064Z</time></trkpt><trkpt lat="43.2534646" lon="11.5544574"><ele>220.0</ele><time>2026-04-04T15:21:26.064Z</time></trkpt><trkpt lat="43.2535351" lon="11.5544083"><ele>223.0</ele><time>2026-04-04T15:21:27.062Z</time></trkpt><trkpt lat="43.2536038" lon="11.5543575"><ele>226.0</ele><time>2026-04-04T15:21:28.065Z</time></trkpt><trkpt lat="43.2536709" lon="11.5543064"><ele>228.99999999999997</ele><time>2026-04-04T15:21:29.064Z</time></trkpt><trkpt lat="43.2537398" lon="11.5542565"><ele>232.0</ele><time>2026-04-04T15:21:30.064Z</time></trkpt><trkpt lat="43.2538043" lon="11.5541948"><ele>231.99999999999997</ele><time>2026-04-04T15:21:31.063Z</time></trkpt><trkpt lat="43.2538713" lon="11.5541253"><ele>232.0</ele><time>2026-04-04T15:21:32.063Z</time></trkpt><trkpt lat="43.2539301" lon="11.5540463"><ele>232.0</ele><time>2026-04-04T15:21:33.063Z</time></trkpt><trkpt lat="43.2539809" lon="11.5539505"><ele>232.0</ele><time>2026-04-04T15:21:34.063Z</time></trkpt><trkpt lat="43.2540232" lon="11.5538457"><ele>231.99999999999997</ele><time>2026-04-04T15:21:35.064Z</time></trkpt><trkpt lat="43.254053" lon="11.5537447"><ele>232.0</ele><time>2026-04-04T15:21:36.063Z</time></trkpt><trkpt lat="43.2540653" lon="11.553647"><ele>233.8571428571429</ele><time>2026-04-04T15:21:37.063Z</time></trkpt><trkpt lat="43.2540728" lon="11.5535556"><ele>235.71428571428572</ele><time>2026-04-04T15:21:38.063Z</time></trkpt><trkpt lat="43.2540816" lon="11.5534636"><ele>237.57142857142858</ele><time>2026-04-04T15:21:39.063Z</time></trkpt><trkpt lat="43.2540917" lon="11.5533717"><ele>239.42857142857144</ele><time>2026-04-04T15:21:40.065Z</time></trkpt><trkpt lat="43.2541071" lon="11.5532755"><ele>241.28571428571428</ele><time>2026-04-04T15:21:41.065Z</time></trkpt><trkpt lat="43.2541271" lon="11.553182"><ele>243.14285714285714</ele><time>2026-04-04T15:21:42.064Z</time></trkpt><trkpt lat="43.2541643" lon="11.5530833"><ele>245.0</ele><time>2026-04-04T15:21:43.063Z</time></trkpt><trkpt lat="43.2542122" lon="11.5530065"><ele>245.00000000000003</ele><time>2026-04-04T15:21:44.064Z</time></trkpt><trkpt lat="43.254276" lon="11.5529494"><ele>245.0</ele><time>2026-04-04T15:21:45.064Z</time></trkpt><trkpt lat="43.2543365" lon="11.552916"><ele>245.0</ele><time>2026-04-04T15:21:46.064Z</time></trkpt><trkpt lat="43.2544136" lon="11.5529079"><ele>245.0</ele><time>2026-04-04T15:21:47.063Z</time></trkpt><trkpt lat="43.2545045" lon="11.5529034"><ele>245.00000000000003</ele><time>2026-04-04T15:21:48.063Z</time></trkpt><trkpt lat="43.2545958" lon="11.5528939"><ele>245.0</ele><time>2026-04-04T15:21:49.064Z</time></trkpt><trkpt lat="43.2546723" lon="11.5528914"><ele>245.0</ele><time>2026-04-04T15:21:50.063Z</time></trkpt><trkpt lat="43.2547438" lon="11.5528883"><ele>245.0</ele><time>2026-04-04T15:21:51.064Z</time></trkpt><trkpt lat="43.2548132" lon="11.5528869"><ele>245.0</ele><time>2026-04-04T15:21:52.064Z</time></trkpt><trkpt lat="43.2549327" lon="11.5528901"><ele>245.0</ele><time>2026-04-04T15:21:54.063Z</time></trkpt><trkpt lat="43.2550471" lon="11.5528893"><ele>245.0</ele><time>2026-04-04T15:21:56.063Z</time></trkpt><trkpt lat="43.2551656" lon="11.5528841"><ele>245.6</ele><time>2026-04-04T15:21:58.065Z</time></trkpt><trkpt lat="43.2552294" lon="11.5528859"><ele>246.2</ele><time>2026-04-04T15:21:59.063Z</time></trkpt><trkpt lat="43.2553409" lon="11.5528807"><ele>246.8</ele><time>2026-04-04T15:22:01.063Z</time></trkpt><trkpt lat="43.2554367" lon="11.5528858"><ele>247.4</ele><time>2026-04-04T15:22:03.064Z</time></trkpt><trkpt lat="43.2555328" lon="11.5528987"><ele>248.0</ele><time>2026-04-04T15:22:05.063Z</time></trkpt><trkpt lat="43.255641" lon="11.5529424"><ele>248.66666666666669</ele><time>2026-04-04T15:22:07.065Z</time></trkpt><trkpt lat="43.2557021" lon="11.5529642"><ele>249.33333333333334</ele><time>2026-04-04T15:22:08.064Z</time></trkpt><trkpt lat="43.2557674" lon="11.5530021"><ele>250.0</ele><time>2026-04-04T15:22:09.063Z</time></trkpt><trkpt lat="43.2558797" lon="11.553058"><ele>250.66666666666669</ele><time>2026-04-04T15:22:11.063Z</time></trkpt><trkpt lat="43.2559383" lon="11.5530923"><ele>251.33333333333334</ele><time>2026-04-04T15:22:12.064Z</time></trkpt><trkpt lat="43.2560008" lon="11.5531342"><ele>252.0</ele><time>2026-04-04T15:22:13.064Z</time></trkpt><trkpt lat="43.2560663" lon="11.5531828"><ele>252.0</ele><time>2026-04-04T15:22:14.062Z</time></trkpt><trkpt lat="43.2561352" lon="11.5532371"><ele>252.0</ele><time>2026-04-04T15:22:15.064Z</time></trkpt><trkpt lat="43.2562076" lon="11.5532836"><ele>252.0</ele><time>2026-04-04T15:22:16.063Z</time></trkpt><trkpt lat="43.2562828" lon="11.553332"><ele>252.0</ele><time>2026-04-04T15:22:17.064Z</time></trkpt><trkpt lat="43.2563572" lon="11.5533783"><ele>252.0</ele><time>2026-04-04T15:22:18.063Z</time></trkpt><trkpt lat="43.2564187" lon="11.5534081"><ele>252.0</ele><time>2026-04-04T15:22:19.063Z</time></trkpt><trkpt lat="43.2565402" lon="11.5534984"><ele>251.8</ele><time>2026-04-04T15:22:21.062Z</time></trkpt><trkpt lat="43.256653" lon="11.5535791"><ele>251.6</ele><time>2026-04-04T15:22:23.063Z</time></trkpt><trkpt lat="43.2567195" lon="11.5536226"><ele>251.40000000000003</ele><time>2026-04-04T15:22:24.063Z</time></trkpt><trkpt lat="43.2568005" lon="11.5536555"><ele>251.20000000000002</ele><time>2026-04-04T15:22:25.062Z</time></trkpt><trkpt lat="43.2568874" lon="11.5536795"><ele>251.0</ele><time>2026-04-04T15:22:26.064Z</time></trkpt><trkpt lat="43.2569805" lon="11.5536921"><ele>251.00000000000003</ele><time>2026-04-04T15:22:27.064Z</time></trkpt><trkpt lat="43.2570698" lon="11.5536905"><ele>251.0</ele><time>2026-04-04T15:22:28.063Z</time></trkpt><trkpt lat="43.2571529" lon="11.5536761"><ele>251.0</ele><time>2026-04-04T15:22:29.063Z</time></trkpt><trkpt lat="43.2572383" lon="11.5536583"><ele>251.0</ele><time>2026-04-04T15:22:30.063Z</time></trkpt><trkpt lat="43.25733" lon="11.5536462"><ele>251.00000000000003</ele><time>2026-04-04T15:22:31.063Z</time></trkpt><trkpt lat="43.2574167" lon="11.5536186"><ele>251.0</ele><time>2026-04-04T15:22:32.063Z</time></trkpt><trkpt lat="43.2575126" lon="11.5535859"><ele>251.16666666666669</ele><time>2026-04-04T15:22:33.063Z</time></trkpt><trkpt lat="43.2575973" lon="11.5535508"><ele>251.33333333333334</ele><time>2026-04-04T15:22:34.064Z</time></trkpt><trkpt lat="43.257679" lon="11.5535225"><ele>251.5</ele><time>2026-04-04T15:22:35.063Z</time></trkpt><trkpt lat="43.2577659" lon="11.5534813"><ele>251.66666666666669</ele><time>2026-04-04T15:22:36.064Z</time></trkpt><trkpt lat="43.2578538" lon="11.5534443"><ele>251.83333333333334</ele><time>2026-04-04T15:22:37.063Z</time></trkpt><trkpt lat="43.2579355" lon="11.5534067"><ele>252.0</ele><time>2026-04-04T15:22:38.063Z</time></trkpt><trkpt lat="43.2580135" lon="11.5533688"><ele>252.0</ele><time>2026-04-04T15:22:39.063Z</time></trkpt><trkpt lat="43.2581014" lon="11.553326"><ele>252.0</ele><time>2026-04-04T15:22:40.063Z</time></trkpt><trkpt lat="43.2581901" lon="11.5532915"><ele>252.0</ele><time>2026-04-04T15:22:41.062Z</time></trkpt><trkpt lat="43.2582828" lon="11.5532641"><ele>252.0</ele><time>2026-04-04T15:22:42.063Z</time></trkpt><trkpt lat="43.2583821" lon="11.5532367"><ele>252.0</ele><time>2026-04-04T15:22:43.062Z</time></trkpt><trkpt lat="43.2584766" lon="11.5532157"><ele>252.0</ele><time>2026-04-04T15:22:44.064Z</time></trkpt><trkpt lat="43.2585713" lon="11.5531851"><ele>252.0</ele><time>2026-04-04T15:22:45.063Z</time></trkpt><trkpt lat="43.2586668" lon="11.5531709"><ele>252.0</ele><time>2026-04-04T15:22:46.063Z</time></trkpt><trkpt lat="43.258753" lon="11.5531355"><ele>252.0</ele><time>2026-04-04T15:22:47.064Z</time></trkpt><trkpt lat="43.258834" lon="11.5531098"><ele>252.0</ele><time>2026-04-04T15:22:48.064Z</time></trkpt><trkpt lat="43.2589076" lon="11.5530705"><ele>252.0</ele><time>2026-04-04T15:22:49.064Z</time></trkpt><trkpt lat="43.258981" lon="11.5530274"><ele>251.0</ele><time>2026-04-04T15:22:50.063Z</time></trkpt><trkpt lat="43.2590576" lon="11.5529775"><ele>250.0</ele><time>2026-04-04T15:22:51.063Z</time></trkpt><trkpt lat="43.2591238" lon="11.5529116"><ele>249.0</ele><time>2026-04-04T15:22:52.062Z</time></trkpt><trkpt lat="43.259189" lon="11.5528437"><ele>248.0</ele><time>2026-04-04T15:22:53.063Z</time></trkpt><trkpt lat="43.2592555" lon="11.5527585"><ele>247.0</ele><time>2026-04-04T15:22:54.063Z</time></trkpt><trkpt lat="43.2593306" lon="11.5526786"><ele>246.0</ele><time>2026-04-04T15:22:55.063Z</time></trkpt><trkpt lat="43.2593917" lon="11.5525821"><ele>246.0</ele><time>2026-04-04T15:22:56.064Z</time></trkpt><trkpt lat="43.2594447" lon="11.5524938"><ele>246.0</ele><time>2026-04-04T15:22:57.063Z</time></trkpt><trkpt lat="43.2594873" lon="11.5523905"><ele>246.0</ele><time>2026-04-04T15:22:58.064Z</time></trkpt><trkpt lat="43.25952" lon="11.5522847"><ele>246.0</ele><time>2026-04-04T15:22:59.064Z</time></trkpt><trkpt lat="43.2595602" lon="11.5521572"><ele>246.0</ele><time>2026-04-04T15:23:00.063Z</time></trkpt><trkpt lat="43.2595894" lon="11.5520456"><ele>246.0</ele><time>2026-04-04T15:23:01.062Z</time></trkpt><trkpt lat="43.2596239" lon="11.5519223"><ele>246.0</ele><time>2026-04-04T15:23:02.062Z</time></trkpt><trkpt lat="43.2596562" lon="11.5517959"><ele>246.0</ele><time>2026-04-04T15:23:03.062Z</time></trkpt><trkpt lat="43.2596889" lon="11.5516626"><ele>246.0</ele><time>2026-04-04T15:23:04.063Z</time></trkpt><trkpt lat="43.2597152" lon="11.5515573"><ele>246.0</ele><time>2026-04-04T15:23:05.062Z</time></trkpt><trkpt lat="43.2597267" lon="11.5514653"><ele>246.0</ele><time>2026-04-04T15:23:06.063Z</time></trkpt><trkpt lat="43.2597548" lon="11.5513466"><ele>246.0</ele><time>2026-04-04T15:23:08.063Z</time></trkpt><trkpt lat="43.2597824" lon="11.5512045"><ele>246.4</ele><time>2026-04-04T15:23:10.062Z</time></trkpt><trkpt lat="43.2598326" lon="11.5510685"><ele>246.8</ele><time>2026-04-04T15:23:12.063Z</time></trkpt><trkpt lat="43.259893" lon="11.5509454"><ele>247.20000000000002</ele><time>2026-04-04T15:23:14.061Z</time></trkpt><trkpt lat="43.2599626" lon="11.5508193"><ele>247.60000000000002</ele><time>2026-04-04T15:23:16.064Z</time></trkpt><trkpt lat="43.260004" lon="11.5507482"><ele>248.0</ele><time>2026-04-04T15:23:17.064Z</time></trkpt><trkpt lat="43.2600765" lon="11.5506162"><ele>248.0</ele><time>2026-04-04T15:23:19.064Z</time></trkpt><trkpt lat="43.2601587" lon="11.5504894"><ele>248.0</ele><time>2026-04-04T15:23:21.063Z</time></trkpt><trkpt lat="43.2602025" lon="11.550416"><ele>248.0</ele><time>2026-04-04T15:23:22.062Z</time></trkpt><trkpt lat="43.2602459" lon="11.5503497"><ele>248.0</ele><time>2026-04-04T15:23:23.064Z</time></trkpt><trkpt lat="43.2602857" lon="11.5502808"><ele>248.0</ele><time>2026-04-04T15:23:24.063Z</time></trkpt><trkpt lat="43.2603931" lon="11.5501637"><ele>246.60000000000002</ele><time>2026-04-04T15:23:26.063Z</time></trkpt><trkpt lat="43.2604726" lon="11.5500917"><ele>245.20000000000002</ele><time>2026-04-04T15:23:27.063Z</time></trkpt><trkpt lat="43.2605602" lon="11.5500327"><ele>243.8</ele><time>2026-04-04T15:23:28.064Z</time></trkpt><trkpt lat="43.2606663" lon="11.5499804"><ele>242.4</ele><time>2026-04-04T15:23:29.061Z</time></trkpt><trkpt lat="43.2607853" lon="11.5499358"><ele>241.0</ele><time>2026-04-04T15:23:30.063Z</time></trkpt><trkpt lat="43.2609139" lon="11.549922"><ele>239.0</ele><time>2026-04-04T15:23:31.064Z</time></trkpt><trkpt lat="43.2610345" lon="11.5499176"><ele>237.0</ele><time>2026-04-04T15:23:32.063Z</time></trkpt><trkpt lat="43.2611403" lon="11.5499304"><ele>235.0</ele><time>2026-04-04T15:23:33.064Z</time></trkpt><trkpt lat="43.2612455" lon="11.5499546"><ele>233.0</ele><time>2026-04-04T15:23:34.063Z</time></trkpt><trkpt lat="43.2613679" lon="11.5499579"><ele>233.4</ele><time>2026-04-04T15:23:35.064Z</time></trkpt><trkpt lat="43.2614788" lon="11.5499419"><ele>233.8</ele><time>2026-04-04T15:23:36.064Z</time></trkpt><trkpt lat="43.2615846" lon="11.5499132"><ele>234.2</ele><time>2026-04-04T15:23:37.062Z</time></trkpt><trkpt lat="43.2616854" lon="11.5498764"><ele>234.6</ele><time>2026-04-04T15:23:38.063Z</time></trkpt><trkpt lat="43.2617835" lon="11.549827"><ele>235.0</ele><time>2026-04-04T15:23:39.063Z</time></trkpt><trkpt lat="43.2618836" lon="11.5497743"><ele>235.0</ele><time>2026-04-04T15:23:40.063Z</time></trkpt><trkpt lat="43.2619774" lon="11.5496981"><ele>235.0</ele><time>2026-04-04T15:23:41.063Z</time></trkpt><trkpt lat="43.2620725" lon="11.5496085"><ele>235.0</ele><time>2026-04-04T15:23:42.062Z</time></trkpt><trkpt lat="43.2621802" lon="11.5494815"><ele>235.0</ele><time>2026-04-04T15:23:43.064Z</time></trkpt><trkpt lat="43.262284" lon="11.5493497"><ele>237.75</ele><time>2026-04-04T15:23:44.063Z</time></trkpt><trkpt lat="43.2623846" lon="11.5492337"><ele>240.5</ele><time>2026-04-04T15:23:45.064Z</time></trkpt><trkpt lat="43.2624678" lon="11.5491276"><ele>243.25</ele><time>2026-04-04T15:23:46.061Z</time></trkpt><trkpt lat="43.2625371" lon="11.5490326"><ele>246.0</ele><time>2026-04-04T15:23:47.063Z</time></trkpt><trkpt lat="43.2626107" lon="11.5489075"><ele>246.0</ele><time>2026-04-04T15:23:48.062Z</time></trkpt><trkpt lat="43.2626808" lon="11.5487523"><ele>246.0</ele><time>2026-04-04T15:23:49.063Z</time></trkpt><trkpt lat="43.2627668" lon="11.5485869"><ele>246.0</ele><time>2026-04-04T15:23:50.063Z</time></trkpt><trkpt lat="43.2628491" lon="11.5484303"><ele>246.0</ele><time>2026-04-04T15:23:51.062Z</time></trkpt><trkpt lat="43.2629166" lon="11.5483165"><ele>247.60000000000002</ele><time>2026-04-04T15:23:52.062Z</time></trkpt><trkpt lat="43.2629752" lon="11.5482057"><ele>249.20000000000002</ele><time>2026-04-04T15:23:53.062Z</time></trkpt><trkpt lat="43.2630301" lon="11.5480744"><ele>250.79999999999998</ele><time>2026-04-04T15:23:54.063Z</time></trkpt><trkpt lat="43.2630939" lon="11.5479293"><ele>252.39999999999998</ele><time>2026-04-04T15:23:55.061Z</time></trkpt><trkpt lat="43.2631486" lon="11.5477935"><ele>254.0</ele><time>2026-04-04T15:23:56.062Z</time></trkpt><trkpt lat="43.2631877" lon="11.5476762"><ele>255.66666666666669</ele><time>2026-04-04T15:23:57.061Z</time></trkpt><trkpt lat="43.2632249" lon="11.5475839"><ele>257.33333333333337</ele><time>2026-04-04T15:23:58.063Z</time></trkpt><trkpt lat="43.2632593" lon="11.5475061"><ele>259.0</ele><time>2026-04-04T15:23:59.062Z</time></trkpt><trkpt lat="43.2633271" lon="11.5473957"><ele>260.6666666666667</ele><time>2026-04-04T15:24:01.063Z</time></trkpt><trkpt lat="43.26338" lon="11.5473208"><ele>262.3333333333333</ele><time>2026-04-04T15:24:02.062Z</time></trkpt><trkpt lat="43.263434" lon="11.5472575"><ele>264.0</ele><time>2026-04-04T15:24:03.062Z</time></trkpt><trkpt lat="43.2635088" lon="11.5471783"><ele>264.0</ele><time>2026-04-04T15:24:05.062Z</time></trkpt><trkpt lat="43.2635908" lon="11.5471061"><ele>264.0</ele><time>2026-04-04T15:24:13.062Z</time></trkpt><trkpt lat="43.2636421" lon="11.5470528"><ele>264.0</ele><time>2026-04-04T15:24:14.062Z</time></trkpt><trkpt lat="43.2637201" lon="11.5469829"><ele>264.0</ele><time>2026-04-04T15:24:15.062Z</time></trkpt><trkpt lat="43.2638036" lon="11.5469115"><ele>264.0</ele><time>2026-04-04T15:24:16.062Z</time></trkpt><trkpt lat="43.2638886" lon="11.5468399"><ele>264.0</ele><time>2026-04-04T15:24:17.061Z</time></trkpt><trkpt lat="43.2639662" lon="11.546766"><ele>264.0</ele><time>2026-04-04T15:24:18.062Z</time></trkpt><trkpt lat="43.2640352" lon="11.5466943"><ele>264.0</ele><time>2026-04-04T15:24:19.062Z</time></trkpt><trkpt lat="43.2641011" lon="11.5466412"><ele>264.0</ele><time>2026-04-04T15:24:20.063Z</time></trkpt><trkpt lat="43.2641677" lon="11.5465555"><ele>264.0</ele><time>2026-04-04T15:24:21.063Z</time></trkpt><trkpt lat="43.264236" lon="11.5464702"><ele>264.0</ele><time>2026-04-04T15:24:22.062Z</time></trkpt><trkpt lat="43.2643026" lon="11.5463819"><ele>264.0</ele><time>2026-04-04T15:24:23.064Z</time></trkpt><trkpt lat="43.2643637" lon="11.5462672"><ele>264.0</ele><time>2026-04-04T15:24:24.062Z</time></trkpt><trkpt lat="43.2644199" lon="11.5461583"><ele>264.0</ele><time>2026-04-04T15:24:25.063Z</time></trkpt><trkpt lat="43.2644654" lon="11.5460273"><ele>264.0</ele><time>2026-04-04T15:24:26.064Z</time></trkpt><trkpt lat="43.2645035" lon="11.5458903"><ele>264.0</ele><time>2026-04-04T15:24:27.063Z</time></trkpt><trkpt lat="43.264535" lon="11.5457353"><ele>266.4</ele><time>2026-04-04T15:24:28.063Z</time></trkpt><trkpt lat="43.26456" lon="11.5455844"><ele>268.79999999999995</ele><time>2026-04-04T15:24:29.062Z</time></trkpt><trkpt lat="43.2645845" lon="11.545435"><ele>271.20000000000005</ele><time>2026-04-04T15:24:30.063Z</time></trkpt><trkpt lat="43.2646084" lon="11.5453031"><ele>273.6</ele><time>2026-04-04T15:24:31.062Z</time></trkpt><trkpt lat="43.2646313" lon="11.5451653"><ele>276.0</ele><time>2026-04-04T15:24:32.061Z</time></trkpt><trkpt lat="43.2646457" lon="11.5450498"><ele>276.14285714285717</ele><time>2026-04-04T15:24:33.061Z</time></trkpt><trkpt lat="43.2646584" lon="11.544949"><ele>276.28571428571433</ele><time>2026-04-04T15:24:34.061Z</time></trkpt><trkpt lat="43.2646698" lon="11.5448458"><ele>276.42857142857144</ele><time>2026-04-04T15:24:35.064Z</time></trkpt><trkpt lat="43.2646851" lon="11.5447552"><ele>276.57142857142856</ele><time>2026-04-04T15:24:36.063Z</time></trkpt><trkpt lat="43.2647047" lon="11.544662"><ele>276.71428571428567</ele><time>2026-04-04T15:24:37.063Z</time></trkpt><trkpt lat="43.2647324" lon="11.5445682"><ele>276.85714285714283</ele><time>2026-04-04T15:24:38.064Z</time></trkpt><trkpt lat="43.2647645" lon="11.5444805"><ele>277.0</ele><time>2026-04-04T15:24:39.063Z</time></trkpt><trkpt lat="43.2648013" lon="11.5444056"><ele>273.57142857142856</ele><time>2026-04-04T15:24:40.063Z</time></trkpt><trkpt lat="43.2648465" lon="11.5443308"><ele>270.1428571428571</ele><time>2026-04-04T15:24:41.062Z</time></trkpt><trkpt lat="43.2648945" lon="11.5442522"><ele>266.7142857142857</ele><time>2026-04-04T15:24:42.061Z</time></trkpt><trkpt lat="43.2649383" lon="11.544177"><ele>263.2857142857143</ele><time>2026-04-04T15:24:43.061Z</time></trkpt><trkpt lat="43.2649846" lon="11.5440887"><ele>259.8571428571429</ele><time>2026-04-04T15:24:44.063Z</time></trkpt><trkpt lat="43.2650254" lon="11.544006"><ele>256.42857142857144</ele><time>2026-04-04T15:24:45.062Z</time></trkpt><trkpt lat="43.2650571" lon="11.5439235"><ele>253.00000000000003</ele><time>2026-04-04T15:24:46.063Z</time></trkpt><trkpt lat="43.2650889" lon="11.5438392"><ele>252.99999999999997</ele><time>2026-04-04T15:24:47.063Z</time></trkpt><trkpt lat="43.2651195" lon="11.5437499"><ele>253.0</ele><time>2026-04-04T15:24:48.062Z</time></trkpt><trkpt lat="43.2651682" lon="11.5435653"><ele>253.0</ele><time>2026-04-04T15:24:50.061Z</time></trkpt><trkpt lat="43.265193" lon="11.5434747"><ele>253.0</ele><time>2026-04-04T15:24:51.063Z</time></trkpt><trkpt lat="43.265215" lon="11.5433829"><ele>252.99999999999997</ele><time>2026-04-04T15:24:52.063Z</time></trkpt><trkpt lat="43.2652309" lon="11.5432726"><ele>253.0</ele><time>2026-04-04T15:24:53.062Z</time></trkpt><trkpt lat="43.2652395" lon="11.5431531"><ele>250.75</ele><time>2026-04-04T15:24:54.063Z</time></trkpt><trkpt lat="43.2652353" lon="11.5429758"><ele>248.5</ele><time>2026-04-04T15:24:55.061Z</time></trkpt><trkpt lat="43.2652225" lon="11.5428067"><ele>246.25</ele><time>2026-04-04T15:24:56.063Z</time></trkpt><trkpt lat="43.2652239" lon="11.5426549"><ele>244.0</ele><time>2026-04-04T15:24:57.063Z</time></trkpt><trkpt lat="43.2652381" lon="11.5424821"><ele>242.25</ele><time>2026-04-04T15:24:58.063Z</time></trkpt><trkpt lat="43.2652713" lon="11.542322"><ele>240.5</ele><time>2026-04-04T15:24:59.062Z</time></trkpt><trkpt lat="43.2653247" lon="11.5421335"><ele>238.75</ele><time>2026-04-04T15:25:00.062Z</time></trkpt><trkpt lat="43.265384" lon="11.5419325"><ele>237.0</ele><time>2026-04-04T15:25:01.061Z</time></trkpt><trkpt lat="43.2654335" lon="11.5417332"><ele>237.25</ele><time>2026-04-04T15:25:02.062Z</time></trkpt><trkpt lat="43.2654675" lon="11.5415589"><ele>237.5</ele><time>2026-04-04T15:25:03.062Z</time></trkpt><trkpt lat="43.2654984" lon="11.5414062"><ele>237.75</ele><time>2026-04-04T15:25:04.062Z</time></trkpt><trkpt lat="43.2655159" lon="11.541258"><ele>238.0</ele><time>2026-04-04T15:25:05.061Z</time></trkpt><trkpt lat="43.2655408" lon="11.5411009"><ele>237.99999999999997</ele><time>2026-04-04T15:25:06.061Z</time></trkpt><trkpt lat="43.2655546" lon="11.5409608"><ele>238.0</ele><time>2026-04-04T15:25:07.061Z</time></trkpt><trkpt lat="43.2655639" lon="11.5408334"><ele>238.0</ele><time>2026-04-04T15:25:08.062Z</time></trkpt><trkpt lat="43.2655735" lon="11.5407305"><ele>238.0</ele><time>2026-04-04T15:25:09.062Z</time></trkpt><trkpt lat="43.2655975" lon="11.5406113"><ele>237.99999999999997</ele><time>2026-04-04T15:25:11.062Z</time></trkpt><trkpt lat="43.2656381" lon="11.5405325"><ele>238.0</ele><time>2026-04-04T15:25:15.062Z</time></trkpt><trkpt lat="43.2656716" lon="11.540448"><ele>239.49999999999997</ele><time>2026-04-04T15:25:17.063Z</time></trkpt><trkpt lat="43.2657396" lon="11.5403565"><ele>241.0</ele><time>2026-04-04T15:25:19.062Z</time></trkpt><trkpt lat="43.2658295" lon="11.5402458"><ele>242.5</ele><time>2026-04-04T15:25:21.062Z</time></trkpt><trkpt lat="43.2658745" lon="11.5401776"><ele>244.0</ele><time>2026-04-04T15:25:22.062Z</time></trkpt><trkpt lat="43.26593" lon="11.5401035"><ele>245.49999999999997</ele><time>2026-04-04T15:25:23.062Z</time></trkpt><trkpt lat="43.2659813" lon="11.5400263"><ele>247.0</ele><time>2026-04-04T15:25:24.062Z</time></trkpt><trkpt lat="43.2660368" lon="11.5399393"><ele>247.0</ele><time>2026-04-04T15:25:25.061Z</time></trkpt><trkpt lat="43.2661063" lon="11.5398463"><ele>247.0</ele><time>2026-04-04T15:25:26.062Z</time></trkpt><trkpt lat="43.266182" lon="11.5397433"><ele>247.0</ele><time>2026-04-04T15:25:27.062Z</time></trkpt><trkpt lat="43.266252" lon="11.5396274"><ele>247.0</ele><time>2026-04-04T15:25:28.062Z</time></trkpt><trkpt lat="43.2663091" lon="11.5395205"><ele>247.0</ele><time>2026-04-04T15:25:29.062Z</time></trkpt><trkpt lat="43.2663714" lon="11.539404"><ele>247.83333333333331</ele><time>2026-04-04T15:25:30.062Z</time></trkpt><trkpt lat="43.2664261" lon="11.5393073"><ele>248.66666666666666</ele><time>2026-04-04T15:25:31.061Z</time></trkpt><trkpt lat="43.2664837" lon="11.5392085"><ele>249.5</ele><time>2026-04-04T15:25:32.062Z</time></trkpt><trkpt lat="43.2665414" lon="11.5391254"><ele>250.33333333333331</ele><time>2026-04-04T15:25:33.062Z</time></trkpt><trkpt lat="43.2666164" lon="11.5390574"><ele>251.16666666666666</ele><time>2026-04-04T15:25:34.063Z</time></trkpt><trkpt lat="43.2666973" lon="11.539014"><ele>252.0</ele><time>2026-04-04T15:25:35.062Z</time></trkpt><trkpt lat="43.2667889" lon="11.5389525"><ele>250.8</ele><time>2026-04-04T15:25:36.063Z</time></trkpt><trkpt lat="43.2668753" lon="11.5389077"><ele>249.6</ele><time>2026-04-04T15:25:37.062Z</time></trkpt><trkpt lat="43.2669649" lon="11.5388555"><ele>248.40000000000003</ele><time>2026-04-04T15:25:38.062Z</time></trkpt><trkpt lat="43.2670528" lon="11.5388039"><ele>247.20000000000002</ele><time>2026-04-04T15:25:39.063Z</time></trkpt><trkpt lat="43.267146" lon="11.5387499"><ele>246.0</ele><time>2026-04-04T15:25:40.062Z</time></trkpt><trkpt lat="43.2672427" lon="11.5386872"><ele>243.4</ele><time>2026-04-04T15:25:41.061Z</time></trkpt><trkpt lat="43.2673327" lon="11.5386176"><ele>240.8</ele><time>2026-04-04T15:25:42.061Z</time></trkpt><trkpt lat="43.267432" lon="11.5385458"><ele>238.20000000000002</ele><time>2026-04-04T15:25:43.062Z</time></trkpt><trkpt lat="43.2675336" lon="11.5384808"><ele>235.60000000000002</ele><time>2026-04-04T15:25:44.062Z</time></trkpt><trkpt lat="43.2676074" lon="11.5384261"><ele>233.0</ele><time>2026-04-04T15:25:45.061Z</time></trkpt><trkpt lat="43.2676782" lon="11.5383861"><ele>233.0</ele><time>2026-04-04T15:25:46.061Z</time></trkpt><trkpt lat="43.267747" lon="11.5383401"><ele>233.0</ele><time>2026-04-04T15:25:47.062Z</time></trkpt><trkpt lat="43.2678056" lon="11.5382962"><ele>233.0</ele><time>2026-04-04T15:25:48.062Z</time></trkpt><trkpt lat="43.2678737" lon="11.5382533"><ele>233.0</ele><time>2026-04-04T15:25:49.062Z</time></trkpt><trkpt lat="43.2679344" lon="11.5382058"><ele>233.0</ele><time>2026-04-04T15:25:50.062Z</time></trkpt><trkpt lat="43.2679933" lon="11.5381621"><ele>233.0</ele><time>2026-04-04T15:25:51.063Z</time></trkpt><trkpt lat="43.2680542" lon="11.538114"><ele>233.0</ele><time>2026-04-04T15:25:52.063Z</time></trkpt><trkpt lat="43.2681258" lon="11.5380625"><ele>230.83333333333334</ele><time>2026-04-04T15:25:53.063Z</time></trkpt><trkpt lat="43.2681902" lon="11.5380125"><ele>228.66666666666669</ele><time>2026-04-04T15:25:54.062Z</time></trkpt><trkpt lat="43.2682586" lon="11.5379516"><ele>226.5</ele><time>2026-04-04T15:25:55.061Z</time></trkpt><trkpt lat="43.2683301" lon="11.5379035"><ele>224.33333333333331</ele><time>2026-04-04T15:25:56.063Z</time></trkpt><trkpt lat="43.2684005" lon="11.5378554"><ele>222.16666666666666</ele><time>2026-04-04T15:25:57.062Z</time></trkpt><trkpt lat="43.2684763" lon="11.5378016"><ele>220.0</ele><time>2026-04-04T15:25:58.062Z</time></trkpt><trkpt lat="43.2685567" lon="11.537762"><ele>219.49999999999997</ele><time>2026-04-04T15:25:59.062Z</time></trkpt><trkpt lat="43.2686372" lon="11.5377163"><ele>219.0</ele><time>2026-04-04T15:26:00.06Z</time></trkpt><trkpt lat="43.2687142" lon="11.537692"><ele>218.5</ele><time>2026-04-04T15:26:01.062Z</time></trkpt><trkpt lat="43.2687973" lon="11.5376893"><ele>218.0</ele><time>2026-04-04T15:26:02.061Z</time></trkpt><trkpt lat="43.2688811" lon="11.5377035"><ele>217.49999999999997</ele><time>2026-04-04T15:26:03.062Z</time></trkpt><trkpt lat="43.2689643" lon="11.5377271"><ele>217.0</ele><time>2026-04-04T15:26:04.062Z</time></trkpt><trkpt lat="43.2690416" lon="11.5377611"><ele>214.2</ele><time>2026-04-04T15:26:05.063Z</time></trkpt><trkpt lat="43.2691351" lon="11.5377768"><ele>211.39999999999998</ele><time>2026-04-04T15:26:06.061Z</time></trkpt><trkpt lat="43.2692286" lon="11.5377923"><ele>208.60000000000002</ele><time>2026-04-04T15:26:07.062Z</time></trkpt><trkpt lat="43.2693235" lon="11.5377955"><ele>205.8</ele><time>2026-04-04T15:26:08.062Z</time></trkpt><trkpt lat="43.2694204" lon="11.5377847"><ele>203.0</ele><time>2026-04-04T15:26:09.061Z</time></trkpt><trkpt lat="43.2695168" lon="11.5377588"><ele>203.0</ele><time>2026-04-04T15:26:10.062Z</time></trkpt><trkpt lat="43.2696104" lon="11.5377186"><ele>203.0</ele><time>2026-04-04T15:26:11.062Z</time></trkpt><trkpt lat="43.2697058" lon="11.5376808"><ele>203.0</ele><time>2026-04-04T15:26:12.062Z</time></trkpt><trkpt lat="43.269803" lon="11.5376286"><ele>203.0</ele><time>2026-04-04T15:26:13.061Z</time></trkpt><trkpt lat="43.2699028" lon="11.5375813"><ele>203.0</ele><time>2026-04-04T15:26:14.063Z</time></trkpt><trkpt lat="43.2700058" lon="11.5375589"><ele>200.4</ele><time>2026-04-04T15:26:15.061Z</time></trkpt><trkpt lat="43.2701085" lon="11.5375548"><ele>197.8</ele><time>2026-04-04T15:26:16.061Z</time></trkpt><trkpt lat="43.2702077" lon="11.53757"><ele>195.2</ele><time>2026-04-04T15:26:17.062Z</time></trkpt><trkpt lat="43.2703056" lon="11.5376079"><ele>192.6</ele><time>2026-04-04T15:26:18.062Z</time></trkpt><trkpt lat="43.2704066" lon="11.5376525"><ele>190.0</ele><time>2026-04-04T15:26:19.061Z</time></trkpt><trkpt lat="43.2705027" lon="11.5376702"><ele>190.0</ele><time>2026-04-04T15:26:20.062Z</time></trkpt><trkpt lat="43.2706039" lon="11.5376901"><ele>190.0</ele><time>2026-04-04T15:26:21.06Z</time></trkpt><trkpt lat="43.2707064" lon="11.5377348"><ele>190.0</ele><time>2026-04-04T15:26:22.063Z</time></trkpt><trkpt lat="43.2708035" lon="11.5377854"><ele>190.0</ele><time>2026-04-04T15:26:23.063Z</time></trkpt><trkpt lat="43.2708961" lon="11.5378363"><ele>190.0</ele><time>2026-04-04T15:26:24.062Z</time></trkpt><trkpt lat="43.2709783" lon="11.5379027"><ele>188.6</ele><time>2026-04-04T15:26:25.061Z</time></trkpt><trkpt lat="43.2710563" lon="11.537981"><ele>187.2</ele><time>2026-04-04T15:26:26.062Z</time></trkpt><trkpt lat="43.2711364" lon="11.5380542"><ele>185.8</ele><time>2026-04-04T15:26:27.062Z</time></trkpt><trkpt lat="43.2712106" lon="11.5381576"><ele>184.4</ele><time>2026-04-04T15:26:28.062Z</time></trkpt><trkpt lat="43.2712745" lon="11.5382741"><ele>183.0</ele><time>2026-04-04T15:26:29.062Z</time></trkpt><trkpt lat="43.2713319" lon="11.5383952"><ele>183.0</ele><time>2026-04-04T15:26:30.062Z</time></trkpt><trkpt lat="43.2713845" lon="11.5385029"><ele>183.0</ele><time>2026-04-04T15:26:31.063Z</time></trkpt><trkpt lat="43.2714271" lon="11.5386076"><ele>183.0</ele><time>2026-04-04T15:26:32.063Z</time></trkpt><trkpt lat="43.2714773" lon="11.5387026"><ele>183.0</ele><time>2026-04-04T15:26:33.063Z</time></trkpt><trkpt lat="43.2715188" lon="11.5388072"><ele>183.0</ele><time>2026-04-04T15:26:34.062Z</time></trkpt><trkpt lat="43.2715592" lon="11.5389168"><ele>183.0</ele><time>2026-04-04T15:26:35.062Z</time></trkpt><trkpt lat="43.2715973" lon="11.5390011"><ele>183.8</ele><time>2026-04-04T15:26:36.063Z</time></trkpt><trkpt lat="43.2716376" lon="11.5391215"><ele>184.60000000000002</ele><time>2026-04-04T15:26:38.062Z</time></trkpt><trkpt lat="43.2716593" lon="11.5392197"><ele>185.39999999999998</ele><time>2026-04-04T15:26:49.061Z</time></trkpt><trkpt lat="43.2717182" lon="11.5393665"><ele>186.2</ele><time>2026-04-04T15:26:51.063Z</time></trkpt><trkpt lat="43.2717526" lon="11.5394788"><ele>187.0</ele><time>2026-04-04T15:26:52.061Z</time></trkpt><trkpt lat="43.2718074" lon="11.5396136"><ele>187.66666666666669</ele><time>2026-04-04T15:26:53.062Z</time></trkpt><trkpt lat="43.2718656" lon="11.5397834"><ele>188.33333333333334</ele><time>2026-04-04T15:26:54.061Z</time></trkpt><trkpt lat="43.2719415" lon="11.5399625"><ele>189.0</ele><time>2026-04-04T15:26:55.062Z</time></trkpt><trkpt lat="43.2720234" lon="11.5401625"><ele>189.0</ele><time>2026-04-04T15:26:56.061Z</time></trkpt><trkpt lat="43.2721005" lon="11.5403436"><ele>189.0</ele><time>2026-04-04T15:26:57.061Z</time></trkpt><trkpt lat="43.2721713" lon="11.5405219"><ele>189.0</ele><time>2026-04-04T15:26:58.063Z</time></trkpt><trkpt lat="43.2722309" lon="11.5406779"><ele>189.0</ele><time>2026-04-04T15:26:59.062Z</time></trkpt><trkpt lat="43.2722829" lon="11.5408223"><ele>190.16666666666666</ele><time>2026-04-04T15:27:00.063Z</time></trkpt><trkpt lat="43.2723255" lon="11.5409506"><ele>191.33333333333331</ele><time>2026-04-04T15:27:01.06Z</time></trkpt><trkpt lat="43.2723635" lon="11.541066"><ele>192.5</ele><time>2026-04-04T15:27:02.062Z</time></trkpt><trkpt lat="43.2723985" lon="11.5411603"><ele>193.66666666666666</ele><time>2026-04-04T15:27:03.063Z</time></trkpt><trkpt lat="43.2724265" lon="11.5412594"><ele>194.83333333333331</ele><time>2026-04-04T15:27:04.062Z</time></trkpt><trkpt lat="43.2724443" lon="11.541349"><ele>196.0</ele><time>2026-04-04T15:27:05.061Z</time></trkpt><trkpt lat="43.2724594" lon="11.541433"><ele>197.4</ele><time>2026-04-04T15:27:06.061Z</time></trkpt><trkpt lat="43.2724836" lon="11.541604"><ele>198.8</ele><time>2026-04-04T15:27:08.062Z</time></trkpt><trkpt lat="43.2725017" lon="11.541705"><ele>200.20000000000002</ele><time>2026-04-04T15:27:09.062Z</time></trkpt><trkpt lat="43.2725201" lon="11.541819"><ele>201.60000000000002</ele><time>2026-04-04T15:27:10.062Z</time></trkpt><trkpt lat="43.2725317" lon="11.541947"><ele>203.0</ele><time>2026-04-04T15:27:11.063Z</time></trkpt><trkpt lat="43.2725435" lon="11.5420747"><ele>204.33333333333334</ele><time>2026-04-04T15:27:12.062Z</time></trkpt><trkpt lat="43.2725536" lon="11.5421957"><ele>205.66666666666669</ele><time>2026-04-04T15:27:13.063Z</time></trkpt><trkpt lat="43.2725674" lon="11.5423224"><ele>207.0</ele><time>2026-04-04T15:27:14.062Z</time></trkpt><trkpt lat="43.2725875" lon="11.5424431"><ele>208.33333333333331</ele><time>2026-04-04T15:27:15.061Z</time></trkpt><trkpt lat="43.2726112" lon="11.5425626"><ele>209.66666666666666</ele><time>2026-04-04T15:27:16.061Z</time></trkpt><trkpt lat="43.2726447" lon="11.5426665"><ele>211.0</ele><time>2026-04-04T15:27:17.061Z</time></trkpt><trkpt lat="43.2727122" lon="11.5428255"><ele>212.8</ele><time>2026-04-04T15:27:19.062Z</time></trkpt><trkpt lat="43.2728014" lon="11.5428996"><ele>214.60000000000002</ele><time>2026-04-04T15:27:21.061Z</time></trkpt><trkpt lat="43.2728889" lon="11.5429382"><ele>216.4</ele><time>2026-04-04T15:27:23.061Z</time></trkpt><trkpt lat="43.2729914" lon="11.5429241"><ele>218.2</ele><time>2026-04-04T15:27:25.062Z</time></trkpt><trkpt lat="43.2730937" lon="11.542906"><ele>220.0</ele><time>2026-04-04T15:27:27.062Z</time></trkpt><trkpt lat="43.2731642" lon="11.5429239"><ele>222.4</ele><time>2026-04-04T15:27:29.061Z</time></trkpt><trkpt lat="43.273247" lon="11.5429504"><ele>224.8</ele><time>2026-04-04T15:27:35.061Z</time></trkpt><trkpt lat="43.2733625" lon="11.5430338"><ele>227.2</ele><time>2026-04-04T15:27:37.061Z</time></trkpt><trkpt lat="43.2734265" lon="11.5430878"><ele>229.6</ele><time>2026-04-04T15:27:38.062Z</time></trkpt><trkpt lat="43.2734922" lon="11.543156"><ele>232.0</ele><time>2026-04-04T15:27:39.061Z</time></trkpt><trkpt lat="43.2735614" lon="11.5432367"><ele>231.99999999999997</ele><time>2026-04-04T15:27:40.061Z</time></trkpt><trkpt lat="43.2736182" lon="11.5433205"><ele>232.0</ele><time>2026-04-04T15:27:41.061Z</time></trkpt><trkpt lat="43.2736573" lon="11.5434148"><ele>232.0</ele><time>2026-04-04T15:27:42.061Z</time></trkpt><trkpt lat="43.2736693" lon="11.5435204"><ele>232.0</ele><time>2026-04-04T15:27:43.062Z</time></trkpt><trkpt lat="43.2736528" lon="11.5436431"><ele>231.99999999999997</ele><time>2026-04-04T15:27:44.062Z</time></trkpt><trkpt lat="43.2736015" lon="11.5437755"><ele>232.0</ele><time>2026-04-04T15:27:45.062Z</time></trkpt><trkpt lat="43.2735311" lon="11.5439072"><ele>233.6</ele><time>2026-04-04T15:27:46.061Z</time></trkpt><trkpt lat="43.2734464" lon="11.54405"><ele>235.2</ele><time>2026-04-04T15:27:47.063Z</time></trkpt><trkpt lat="43.2733711" lon="11.544176"><ele>236.8</ele><time>2026-04-04T15:27:48.061Z</time></trkpt><trkpt lat="43.2733115" lon="11.5442756"><ele>238.4</ele><time>2026-04-04T15:27:49.061Z</time></trkpt><trkpt lat="43.2732717" lon="11.5443724"><ele>240.0</ele><time>2026-04-04T15:27:50.062Z</time></trkpt><trkpt lat="43.273247" lon="11.5444597"><ele>241.0</ele><time>2026-04-04T15:27:51.061Z</time></trkpt><trkpt lat="43.2732303" lon="11.544556"><ele>242.0</ele><time>2026-04-04T15:27:52.062Z</time></trkpt><trkpt lat="43.2732175" lon="11.544649"><ele>243.0</ele><time>2026-04-04T15:27:53.06Z</time></trkpt><trkpt lat="43.2732115" lon="11.5447813"><ele>244.0</ele><time>2026-04-04T15:27:54.061Z</time></trkpt><trkpt lat="43.2731978" lon="11.5449533"><ele>245.0</ele><time>2026-04-04T15:27:55.061Z</time></trkpt><trkpt lat="43.2731904" lon="11.5451439"><ele>245.0</ele><time>2026-04-04T15:27:56.06Z</time></trkpt><trkpt lat="43.2731803" lon="11.5453375"><ele>245.0</ele><time>2026-04-04T15:27:57.061Z</time></trkpt><trkpt lat="43.2731854" lon="11.5455123"><ele>245.0</ele><time>2026-04-04T15:27:58.06Z</time></trkpt><trkpt lat="43.273186" lon="11.5456774"><ele>245.0</ele><time>2026-04-04T15:27:59.061Z</time></trkpt><trkpt lat="43.2732024" lon="11.5458554"><ele>246.75</ele><time>2026-04-04T15:28:00.062Z</time></trkpt><trkpt lat="43.2732377" lon="11.5460444"><ele>248.5</ele><time>2026-04-04T15:28:01.061Z</time></trkpt><trkpt lat="43.2732735" lon="11.5462096"><ele>250.25</ele><time>2026-04-04T15:28:02.061Z</time></trkpt><trkpt lat="43.2733079" lon="11.5463587"><ele>252.0</ele><time>2026-04-04T15:28:03.063Z</time></trkpt><trkpt lat="43.2733513" lon="11.5464738"><ele>253.5</ele><time>2026-04-04T15:28:04.061Z</time></trkpt><trkpt lat="43.2733927" lon="11.5465725"><ele>255.0</ele><time>2026-04-04T15:28:05.061Z</time></trkpt><trkpt lat="43.2734366" lon="11.5466718"><ele>256.5</ele><time>2026-04-04T15:28:06.061Z</time></trkpt><trkpt lat="43.2734867" lon="11.5467575"><ele>258.0</ele><time>2026-04-04T15:28:07.062Z</time></trkpt><trkpt lat="43.2735443" lon="11.546835"><ele>259.5</ele><time>2026-04-04T15:28:08.061Z</time></trkpt><trkpt lat="43.2736045" lon="11.5469093"><ele>261.0</ele><time>2026-04-04T15:28:09.061Z</time></trkpt><trkpt lat="43.2736576" lon="11.5469674"><ele>261.0</ele><time>2026-04-04T15:28:10.062Z</time></trkpt><trkpt lat="43.2737161" lon="11.5470206"><ele>261.0</ele><time>2026-04-04T15:28:11.062Z</time></trkpt><trkpt lat="43.273783" lon="11.5470591"><ele>261.0</ele><time>2026-04-04T15:28:12.061Z</time></trkpt><trkpt lat="43.2738588" lon="11.547085"><ele>261.0</ele><time>2026-04-04T15:28:13.061Z</time></trkpt><trkpt lat="43.2739343" lon="11.5470917"><ele>261.0</ele><time>2026-04-04T15:28:14.061Z</time></trkpt><trkpt lat="43.2740229" lon="11.5471034"><ele>261.0</ele><time>2026-04-04T15:28:15.061Z</time></trkpt><trkpt lat="43.2741298" lon="11.5470976"><ele>264.6</ele><time>2026-04-04T15:28:16.061Z</time></trkpt><trkpt lat="43.2742466" lon="11.5470854"><ele>268.20000000000005</ele><time>2026-04-04T15:28:17.061Z</time></trkpt><trkpt lat="43.2743601" lon="11.5470678"><ele>271.79999999999995</ele><time>2026-04-04T15:28:18.061Z</time></trkpt><trkpt lat="43.2744591" lon="11.5470605"><ele>275.4</ele><time>2026-04-04T15:28:19.06Z</time></trkpt><trkpt lat="43.2745414" lon="11.5470639"><ele>279.0</ele><time>2026-04-04T15:28:20.06Z</time></trkpt><trkpt lat="43.2746451" lon="11.5470711"><ele>279.0</ele><time>2026-04-04T15:28:22.061Z</time></trkpt><trkpt lat="43.2747231" lon="11.547107"><ele>279.0</ele><time>2026-04-04T15:28:29.06Z</time></trkpt><trkpt lat="43.2748176" lon="11.5471695"><ele>279.0</ele><time>2026-04-04T15:28:31.062Z</time></trkpt><trkpt lat="43.2748871" lon="11.5472182"><ele>279.0</ele><time>2026-04-04T15:28:32.059Z</time></trkpt><trkpt lat="43.2749659" lon="11.5472862"><ele>279.0</ele><time>2026-04-04T15:28:33.062Z</time></trkpt><trkpt lat="43.2750608" lon="11.5473673"><ele>280.75</ele><time>2026-04-04T15:28:34.061Z</time></trkpt><trkpt lat="43.2751567" lon="11.5474506"><ele>282.5</ele><time>2026-04-04T15:28:35.06Z</time></trkpt><trkpt lat="43.2752557" lon="11.5475403"><ele>284.25</ele><time>2026-04-04T15:28:36.061Z</time></trkpt><trkpt lat="43.2753665" lon="11.547634"><ele>286.0</ele><time>2026-04-04T15:28:37.061Z</time></trkpt><trkpt lat="43.275471" lon="11.5477315"><ele>286.0</ele><time>2026-04-04T15:28:38.061Z</time></trkpt><trkpt lat="43.2755716" lon="11.547831"><ele>286.0</ele><time>2026-04-04T15:28:39.061Z</time></trkpt><trkpt lat="43.2756638" lon="11.5479112"><ele>286.0</ele><time>2026-04-04T15:28:40.062Z</time></trkpt><trkpt lat="43.2757551" lon="11.547975"><ele>286.0</ele><time>2026-04-04T15:28:41.062Z</time></trkpt><trkpt lat="43.2758346" lon="11.5480248"><ele>286.0</ele><time>2026-04-04T15:28:42.059Z</time></trkpt><trkpt lat="43.2759104" lon="11.5480606"><ele>289.0</ele><time>2026-04-04T15:28:43.06Z</time></trkpt><trkpt lat="43.2759785" lon="11.5480923"><ele>292.0</ele><time>2026-04-04T15:28:44.06Z</time></trkpt><trkpt lat="43.2760853" lon="11.548136"><ele>295.0</ele><time>2026-04-04T15:28:46.06Z</time></trkpt><trkpt lat="43.2761804" lon="11.5481769"><ele>298.0</ele><time>2026-04-04T15:28:48.061Z</time></trkpt><trkpt lat="43.2762832" lon="11.5482036"><ele>301.0</ele><time>2026-04-04T15:28:50.061Z</time></trkpt><trkpt lat="43.2763842" lon="11.5482592"><ele>299.8333333333333</ele><time>2026-04-04T15:28:52.06Z</time></trkpt><trkpt lat="43.2764459" lon="11.5482794"><ele>298.66666666666663</ele><time>2026-04-04T15:28:53.061Z</time></trkpt><trkpt lat="43.2765111" lon="11.5483058"><ele>297.5</ele><time>2026-04-04T15:28:54.062Z</time></trkpt><trkpt lat="43.2765827" lon="11.5483453"><ele>296.3333333333333</ele><time>2026-04-04T15:28:55.061Z</time></trkpt><trkpt lat="43.2766634" lon="11.5483929"><ele>295.1666666666667</ele><time>2026-04-04T15:28:56.06Z</time></trkpt><trkpt lat="43.2767458" lon="11.5484452"><ele>294.0</ele><time>2026-04-04T15:28:57.061Z</time></trkpt><trkpt lat="43.2768208" lon="11.5485034"><ele>294.0</ele><time>2026-04-04T15:28:58.061Z</time></trkpt><trkpt lat="43.2768871" lon="11.5485656"><ele>294.0</ele><time>2026-04-04T15:28:59.062Z</time></trkpt><trkpt lat="43.2769491" lon="11.5486294"><ele>294.0</ele><time>2026-04-04T15:29:00.061Z</time></trkpt><trkpt lat="43.2770043" lon="11.5486854"><ele>294.0</ele><time>2026-04-04T15:29:01.06Z</time></trkpt><trkpt lat="43.2770614" lon="11.5487515"><ele>294.0</ele><time>2026-04-04T15:29:02.06Z</time></trkpt><trkpt lat="43.2771285" lon="11.5488107"><ele>294.0</ele><time>2026-04-04T15:29:03.061Z</time></trkpt><trkpt lat="43.2772048" lon="11.5488805"><ele>293.1666666666667</ele><time>2026-04-04T15:29:04.062Z</time></trkpt><trkpt lat="43.277275" lon="11.5489473"><ele>292.3333333333333</ele><time>2026-04-04T15:29:05.06Z</time></trkpt><trkpt lat="43.2773448" lon="11.5490127"><ele>291.5</ele><time>2026-04-04T15:29:06.061Z</time></trkpt><trkpt lat="43.2774132" lon="11.5490674"><ele>290.66666666666663</ele><time>2026-04-04T15:29:07.06Z</time></trkpt><trkpt lat="43.2774769" lon="11.5491133"><ele>289.8333333333333</ele><time>2026-04-04T15:29:08.06Z</time></trkpt><trkpt lat="43.2775382" lon="11.5491648"><ele>289.0</ele><time>2026-04-04T15:29:09.06Z</time></trkpt><trkpt lat="43.277599" lon="11.5492048"><ele>289.0</ele><time>2026-04-04T15:29:10.061Z</time></trkpt><trkpt lat="43.2776564" lon="11.5492506"><ele>289.0</ele><time>2026-04-04T15:29:11.059Z</time></trkpt><trkpt lat="43.2777153" lon="11.5493002"><ele>289.0</ele><time>2026-04-04T15:29:12.06Z</time></trkpt><trkpt lat="43.2777784" lon="11.5493359"><ele>289.0</ele><time>2026-04-04T15:29:13.059Z</time></trkpt><trkpt lat="43.277847" lon="11.5493792"><ele>289.0</ele><time>2026-04-04T15:29:14.062Z</time></trkpt><trkpt lat="43.2779249" lon="11.5494077"><ele>289.0</ele><time>2026-04-04T15:29:15.061Z</time></trkpt><trkpt lat="43.2780084" lon="11.5494218"><ele>289.0</ele><time>2026-04-04T15:29:16.061Z</time></trkpt><trkpt lat="43.2780904" lon="11.5494276"><ele>286.0</ele><time>2026-04-04T15:29:17.061Z</time></trkpt><trkpt lat="43.2781815" lon="11.5494258"><ele>283.0</ele><time>2026-04-04T15:29:18.06Z</time></trkpt><trkpt lat="43.2782837" lon="11.5494383"><ele>280.0</ele><time>2026-04-04T15:29:19.061Z</time></trkpt><trkpt lat="43.2783886" lon="11.549446"><ele>277.0</ele><time>2026-04-04T15:29:20.061Z</time></trkpt><trkpt lat="43.278489" lon="11.5494577"><ele>274.0</ele><time>2026-04-04T15:29:21.062Z</time></trkpt><trkpt lat="43.2785973" lon="11.549474"><ele>274.0</ele><time>2026-04-04T15:29:22.062Z</time></trkpt><trkpt lat="43.278705" lon="11.5494782"><ele>274.0</ele><time>2026-04-04T15:29:23.06Z</time></trkpt><trkpt lat="43.2788182" lon="11.5494979"><ele>274.0</ele><time>2026-04-04T15:29:24.06Z</time></trkpt><trkpt lat="43.2789186" lon="11.5495365"><ele>274.0</ele><time>2026-04-04T15:29:25.06Z</time></trkpt><trkpt lat="43.2790182" lon="11.5495911"><ele>274.0</ele><time>2026-04-04T15:29:26.059Z</time></trkpt><trkpt lat="43.2790968" lon="11.5496491"><ele>273.59999999999997</ele><time>2026-04-04T15:29:27.06Z</time></trkpt><trkpt lat="43.2791852" lon="11.5497047"><ele>273.2</ele><time>2026-04-04T15:29:28.061Z</time></trkpt><trkpt lat="43.2792721" lon="11.5497559"><ele>272.79999999999995</ele><time>2026-04-04T15:29:29.059Z</time></trkpt><trkpt lat="43.2793614" lon="11.5498019"><ele>272.4</ele><time>2026-04-04T15:29:30.06Z</time></trkpt><trkpt lat="43.2794477" lon="11.54985"><ele>272.0</ele><time>2026-04-04T15:29:31.06Z</time></trkpt><trkpt lat="43.2795414" lon="11.5498959"><ele>272.0</ele><time>2026-04-04T15:29:32.06Z</time></trkpt><trkpt lat="43.2796405" lon="11.5499235"><ele>272.0</ele><time>2026-04-04T15:29:33.061Z</time></trkpt><trkpt lat="43.2797468" lon="11.5499304"><ele>272.0</ele><time>2026-04-04T15:29:34.06Z</time></trkpt><trkpt lat="43.2798544" lon="11.54992"><ele>272.0</ele><time>2026-04-04T15:29:35.06Z</time></trkpt><trkpt lat="43.2799579" lon="11.5499023"><ele>272.0</ele><time>2026-04-04T15:29:36.061Z</time></trkpt><trkpt lat="43.2800596" lon="11.5498685"><ele>271.5</ele><time>2026-04-04T15:29:37.061Z</time></trkpt><trkpt lat="43.2801408" lon="11.5498343"><ele>271.0</ele><time>2026-04-04T15:29:38.062Z</time></trkpt><trkpt lat="43.2802131" lon="11.5498014"><ele>270.5</ele><time>2026-04-04T15:29:39.06Z</time></trkpt><trkpt lat="43.2802863" lon="11.5497591"><ele>270.0</ele><time>2026-04-04T15:29:40.06Z</time></trkpt><trkpt lat="43.2803584" lon="11.5497149"><ele>269.5</ele><time>2026-04-04T15:29:41.061Z</time></trkpt><trkpt lat="43.2804285" lon="11.5496633"><ele>269.0</ele><time>2026-04-04T15:29:42.062Z</time></trkpt><trkpt lat="43.2805011" lon="11.5496137"><ele>269.0</ele><time>2026-04-04T15:29:43.061Z</time></trkpt><trkpt lat="43.2805708" lon="11.5495588"><ele>269.0</ele><time>2026-04-04T15:29:44.061Z</time></trkpt><trkpt lat="43.2806429" lon="11.5494939"><ele>269.0</ele><time>2026-04-04T15:29:45.06Z</time></trkpt><trkpt lat="43.2807109" lon="11.5494167"><ele>269.0</ele><time>2026-04-04T15:29:46.06Z</time></trkpt><trkpt lat="43.2807657" lon="11.5493272"><ele>269.0</ele><time>2026-04-04T15:29:47.059Z</time></trkpt><trkpt lat="43.2808124" lon="11.5492283"><ele>269.0</ele><time>2026-04-04T15:29:48.06Z</time></trkpt><trkpt lat="43.2808612" lon="11.5491298"><ele>270.83333333333337</ele><time>2026-04-04T15:29:49.062Z</time></trkpt><trkpt lat="43.2809141" lon="11.5490421"><ele>272.6666666666667</ele><time>2026-04-04T15:29:50.061Z</time></trkpt><trkpt lat="43.2809733" lon="11.5489477"><ele>274.5</ele><time>2026-04-04T15:29:51.061Z</time></trkpt><trkpt lat="43.2810303" lon="11.5488605"><ele>276.3333333333333</ele><time>2026-04-04T15:29:52.061Z</time></trkpt><trkpt lat="43.2810993" lon="11.5487804"><ele>278.16666666666663</ele><time>2026-04-04T15:29:53.062Z</time></trkpt><trkpt lat="43.2811737" lon="11.5486976"><ele>280.0</ele><time>2026-04-04T15:29:54.06Z</time></trkpt><trkpt lat="43.2812537" lon="11.5486322"><ele>280.0</ele><time>2026-04-04T15:29:55.06Z</time></trkpt><trkpt lat="43.281324" lon="11.5485612"><ele>280.0</ele><time>2026-04-04T15:29:56.06Z</time></trkpt><trkpt lat="43.2814004" lon="11.5484772"><ele>280.0</ele><time>2026-04-04T15:29:57.059Z</time></trkpt><trkpt lat="43.2814746" lon="11.5483966"><ele>280.0</ele><time>2026-04-04T15:29:58.061Z</time></trkpt><trkpt lat="43.2815504" lon="11.5483147"><ele>280.0</ele><time>2026-04-04T15:29:59.061Z</time></trkpt><trkpt lat="43.2816265" lon="11.5482288"><ele>283.5</ele><time>2026-04-04T15:30:00.06Z</time></trkpt><trkpt lat="43.2817051" lon="11.5481623"><ele>287.0</ele><time>2026-04-04T15:30:01.061Z</time></trkpt><trkpt lat="43.2817921" lon="11.5481356"><ele>290.5</ele><time>2026-04-04T15:30:02.062Z</time></trkpt><trkpt lat="43.2818837" lon="11.5481081"><ele>294.0</ele><time>2026-04-04T15:30:03.06Z</time></trkpt><trkpt lat="43.2819677" lon="11.5481128"><ele>297.5</ele><time>2026-04-04T15:30:04.059Z</time></trkpt><trkpt lat="43.282031" lon="11.5481017"><ele>301.0</ele><time>2026-04-04T15:30:05.061Z</time></trkpt><trkpt lat="43.2820953" lon="11.5481157"><ele>301.0</ele><time>2026-04-04T15:30:06.061Z</time></trkpt><trkpt lat="43.2821827" lon="11.5481241"><ele>301.0</ele><time>2026-04-04T15:30:08.06Z</time></trkpt><trkpt lat="43.282271" lon="11.5481395"><ele>301.0</ele><time>2026-04-04T15:30:10.06Z</time></trkpt><trkpt lat="43.2823773" lon="11.5481563"><ele>301.0</ele><time>2026-04-04T15:30:12.06Z</time></trkpt><trkpt lat="43.2825011" lon="11.5481507"><ele>301.0</ele><time>2026-04-04T15:30:14.061Z</time></trkpt><trkpt lat="43.2826434" lon="11.5481717"><ele>302.16666666666663</ele><time>2026-04-04T15:30:16.06Z</time></trkpt><trkpt lat="43.2827284" lon="11.5481885"><ele>303.3333333333333</ele><time>2026-04-04T15:30:17.061Z</time></trkpt><trkpt lat="43.2828122" lon="11.5482106"><ele>304.5</ele><time>2026-04-04T15:30:18.06Z</time></trkpt><trkpt lat="43.2828921" lon="11.5482623"><ele>305.6666666666667</ele><time>2026-04-04T15:30:19.062Z</time></trkpt><trkpt lat="43.2829622" lon="11.5482899"><ele>306.83333333333337</ele><time>2026-04-04T15:30:20.059Z</time></trkpt><trkpt lat="43.283018" lon="11.5483351"><ele>308.0</ele><time>2026-04-04T15:30:21.06Z</time></trkpt><trkpt lat="43.2830918" lon="11.5484369"><ele>310.0</ele><time>2026-04-04T15:30:23.06Z</time></trkpt><trkpt lat="43.2831731" lon="11.5484945"><ele>312.0</ele><time>2026-04-04T15:30:25.06Z</time></trkpt><trkpt lat="43.2832802" lon="11.5485739"><ele>314.0</ele><time>2026-04-04T15:30:27.06Z</time></trkpt><trkpt lat="43.2833465" lon="11.5486356"><ele>316.0</ele><time>2026-04-04T15:30:28.061Z</time></trkpt><trkpt lat="43.2834921" lon="11.5487293"><ele>316.0</ele><time>2026-04-04T15:30:30.061Z</time></trkpt><trkpt lat="43.2835968" lon="11.5487636"><ele>316.0</ele><time>2026-04-04T15:30:31.062Z</time></trkpt><trkpt lat="43.2837346" lon="11.5488159"><ele>316.0</ele><time>2026-04-04T15:30:32.061Z</time></trkpt><trkpt lat="43.2838327" lon="11.5488458"><ele>316.0</ele><time>2026-04-04T15:30:33.06Z</time></trkpt><trkpt lat="43.283939" lon="11.5488503"><ele>312.2</ele><time>2026-04-04T15:30:34.059Z</time></trkpt><trkpt lat="43.2840272" lon="11.5488114"><ele>308.40000000000003</ele><time>2026-04-04T15:30:35.061Z</time></trkpt><trkpt lat="43.284108" lon="11.5487694"><ele>304.6</ele><time>2026-04-04T15:30:36.06Z</time></trkpt><trkpt lat="43.2841882" lon="11.5487109"><ele>300.8</ele><time>2026-04-04T15:30:37.061Z</time></trkpt><trkpt lat="43.2842688" lon="11.5486281"><ele>297.0</ele><time>2026-04-04T15:30:38.06Z</time></trkpt><trkpt lat="43.2843362" lon="11.5485108"><ele>296.5</ele><time>2026-04-04T15:30:39.06Z</time></trkpt><trkpt lat="43.2843991" lon="11.5483969"><ele>296.0</ele><time>2026-04-04T15:30:40.061Z</time></trkpt><trkpt lat="43.2844702" lon="11.5482305"><ele>295.5</ele><time>2026-04-04T15:30:41.061Z</time></trkpt><trkpt lat="43.2845361" lon="11.5480727"><ele>295.0</ele><time>2026-04-04T15:30:42.06Z</time></trkpt><trkpt lat="43.2845873" lon="11.5479235"><ele>292.5</ele><time>2026-04-04T15:30:43.06Z</time></trkpt><trkpt lat="43.2846406" lon="11.5477822"><ele>290.0</ele><time>2026-04-04T15:30:44.061Z</time></trkpt><trkpt lat="43.2846752" lon="11.5476427"><ele>287.5</ele><time>2026-04-04T15:30:45.06Z</time></trkpt><trkpt lat="43.2846985" lon="11.5474818"><ele>285.0</ele><time>2026-04-04T15:30:46.06Z</time></trkpt><trkpt lat="43.2847224" lon="11.5473058"><ele>285.0</ele><time>2026-04-04T15:30:47.06Z</time></trkpt><trkpt lat="43.2847468" lon="11.5471422"><ele>285.0</ele><time>2026-04-04T15:30:48.059Z</time></trkpt><trkpt lat="43.2847794" lon="11.5470084"><ele>285.0</ele><time>2026-04-04T15:30:49.06Z</time></trkpt><trkpt lat="43.2848348" lon="11.5468814"><ele>285.0</ele><time>2026-04-04T15:30:50.061Z</time></trkpt><trkpt lat="43.2849105" lon="11.5467727"><ele>285.0</ele><time>2026-04-04T15:30:51.061Z</time></trkpt><trkpt lat="43.2849933" lon="11.5466671"><ele>291.25</ele><time>2026-04-04T15:30:52.059Z</time></trkpt><trkpt lat="43.2851175" lon="11.5465713"><ele>297.5</ele><time>2026-04-04T15:30:53.061Z</time></trkpt><trkpt lat="43.2852358" lon="11.5464688"><ele>303.75</ele><time>2026-04-04T15:30:54.06Z</time></trkpt><trkpt lat="43.2853464" lon="11.5464162"><ele>310.0</ele><time>2026-04-04T15:30:55.06Z</time></trkpt><trkpt lat="43.2854619" lon="11.5463406"><ele>310.0</ele><time>2026-04-04T15:30:56.06Z</time></trkpt><trkpt lat="43.2855338" lon="11.5462903"><ele>310.0</ele><time>2026-04-04T15:30:57.059Z</time></trkpt><trkpt lat="43.2856201" lon="11.5462685"><ele>310.0</ele><time>2026-04-04T15:30:59.061Z</time></trkpt><trkpt lat="43.2856945" lon="11.5462581"><ele>310.0</ele><time>2026-04-04T15:31:09.06Z</time></trkpt><trkpt lat="43.2857982" lon="11.5461802"><ele>310.0</ele><time>2026-04-04T15:31:11.059Z</time></trkpt><trkpt lat="43.285876" lon="11.5461153"><ele>310.66666666666663</ele><time>2026-04-04T15:31:12.06Z</time></trkpt><trkpt lat="43.2859609" lon="11.5460426"><ele>311.3333333333333</ele><time>2026-04-04T15:31:13.06Z</time></trkpt><trkpt lat="43.2860378" lon="11.5459837"><ele>312.0</ele><time>2026-04-04T15:31:14.059Z</time></trkpt><trkpt lat="43.2861177" lon="11.5459246"><ele>312.6666666666667</ele><time>2026-04-04T15:31:15.06Z</time></trkpt><trkpt lat="43.2861977" lon="11.545885"><ele>313.33333333333337</ele><time>2026-04-04T15:31:16.059Z</time></trkpt><trkpt lat="43.2862639" lon="11.5458576"><ele>314.0</ele><time>2026-04-04T15:31:17.06Z</time></trkpt><trkpt lat="43.2863374" lon="11.5458455"><ele>314.0</ele><time>2026-04-04T15:31:18.059Z</time></trkpt><trkpt lat="43.2864181" lon="11.5458535"><ele>314.0</ele><time>2026-04-04T15:31:19.059Z</time></trkpt><trkpt lat="43.2864851" lon="11.5458843"><ele>314.0</ele><time>2026-04-04T15:31:20.061Z</time></trkpt><trkpt lat="43.2865615" lon="11.5459234"><ele>314.0</ele><time>2026-04-04T15:31:21.059Z</time></trkpt><trkpt lat="43.2866346" lon="11.5459657"><ele>314.0</ele><time>2026-04-04T15:31:22.059Z</time></trkpt><trkpt lat="43.2867127" lon="11.5460153"><ele>314.0</ele><time>2026-04-04T15:31:23.06Z</time></trkpt><trkpt lat="43.2867765" lon="11.5460664"><ele>313.6666666666667</ele><time>2026-04-04T15:31:24.061Z</time></trkpt><trkpt lat="43.2868408" lon="11.5461182"><ele>313.33333333333337</ele><time>2026-04-04T15:31:25.059Z</time></trkpt><trkpt lat="43.2869255" lon="11.5461276"><ele>313.0</ele><time>2026-04-04T15:31:26.059Z</time></trkpt><trkpt lat="43.2870084" lon="11.546114"><ele>312.6666666666667</ele><time>2026-04-04T15:31:27.06Z</time></trkpt><trkpt lat="43.2870866" lon="11.5460834"><ele>312.3333333333333</ele><time>2026-04-04T15:31:28.059Z</time></trkpt><trkpt lat="43.2871528" lon="11.546034"><ele>312.0</ele><time>2026-04-04T15:31:29.06Z</time></trkpt><trkpt lat="43.2872135" lon="11.5459506"><ele>312.0</ele><time>2026-04-04T15:31:30.061Z</time></trkpt><trkpt lat="43.287254" lon="11.545849"><ele>312.0</ele><time>2026-04-04T15:31:31.06Z</time></trkpt><trkpt lat="43.287297" lon="11.5457443"><ele>312.0</ele><time>2026-04-04T15:31:32.06Z</time></trkpt><trkpt lat="43.2873345" lon="11.5456143"><ele>312.0</ele><time>2026-04-04T15:31:33.06Z</time></trkpt><trkpt lat="43.2873689" lon="11.5454726"><ele>312.0</ele><time>2026-04-04T15:31:34.06Z</time></trkpt><trkpt lat="43.2873819" lon="11.5453381"><ele>309.8</ele><time>2026-04-04T15:31:35.059Z</time></trkpt><trkpt lat="43.2874033" lon="11.5451904"><ele>307.6</ele><time>2026-04-04T15:31:36.06Z</time></trkpt><trkpt lat="43.2874068" lon="11.5450414"><ele>305.40000000000003</ele><time>2026-04-04T15:31:37.061Z</time></trkpt><trkpt lat="43.2873992" lon="11.5448991"><ele>303.2</ele><time>2026-04-04T15:31:38.059Z</time></trkpt><trkpt lat="43.2874097" lon="11.5447488"><ele>301.0</ele><time>2026-04-04T15:31:39.06Z</time></trkpt><trkpt lat="43.2874339" lon="11.5446188"><ele>300.6</ele><time>2026-04-04T15:31:40.061Z</time></trkpt><trkpt lat="43.28746" lon="11.5444921"><ele>300.20000000000005</ele><time>2026-04-04T15:31:41.059Z</time></trkpt><trkpt lat="43.2874953" lon="11.5443686"><ele>299.79999999999995</ele><time>2026-04-04T15:31:42.06Z</time></trkpt><trkpt lat="43.2875415" lon="11.5442515"><ele>299.4</ele><time>2026-04-04T15:31:43.059Z</time></trkpt><trkpt lat="43.2875801" lon="11.5441221"><ele>299.0</ele><time>2026-04-04T15:31:44.059Z</time></trkpt><trkpt lat="43.2876163" lon="11.5439935"><ele>299.0</ele><time>2026-04-04T15:31:45.06Z</time></trkpt><trkpt lat="43.2876412" lon="11.5438631"><ele>299.0</ele><time>2026-04-04T15:31:46.06Z</time></trkpt><trkpt lat="43.2876501" lon="11.5437273"><ele>299.0</ele><time>2026-04-04T15:31:47.06Z</time></trkpt><trkpt lat="43.2876455" lon="11.5435814"><ele>299.0</ele><time>2026-04-04T15:31:48.06Z</time></trkpt><trkpt lat="43.2876419" lon="11.5434499"><ele>299.0</ele><time>2026-04-04T15:31:49.059Z</time></trkpt><trkpt lat="43.2876596" lon="11.5433042"><ele>298.0</ele><time>2026-04-04T15:31:50.06Z</time></trkpt><trkpt lat="43.2876797" lon="11.5431667"><ele>297.0</ele><time>2026-04-04T15:31:51.06Z</time></trkpt><trkpt lat="43.2877046" lon="11.543029"><ele>296.0</ele><time>2026-04-04T15:31:52.059Z</time></trkpt><trkpt lat="43.287739" lon="11.5428955"><ele>295.0</ele><time>2026-04-04T15:31:53.059Z</time></trkpt><trkpt lat="43.2877776" lon="11.5427545"><ele>294.0</ele><time>2026-04-04T15:31:54.06Z</time></trkpt><trkpt lat="43.2878158" lon="11.5426373"><ele>295.2</ele><time>2026-04-04T15:31:55.058Z</time></trkpt><trkpt lat="43.2878629" lon="11.5425287"><ele>296.4</ele><time>2026-04-04T15:31:56.06Z</time></trkpt><trkpt lat="43.287919" lon="11.5424179"><ele>297.6</ele><time>2026-04-04T15:31:57.059Z</time></trkpt><trkpt lat="43.2879806" lon="11.5423103"><ele>298.8</ele><time>2026-04-04T15:31:58.06Z</time></trkpt><trkpt lat="43.2880424" lon="11.5422085"><ele>300.0</ele><time>2026-04-04T15:31:59.06Z</time></trkpt><trkpt lat="43.2881011" lon="11.5421057"><ele>300.3333333333333</ele><time>2026-04-04T15:32:00.06Z</time></trkpt><trkpt lat="43.2881529" lon="11.5420098"><ele>300.6666666666667</ele><time>2026-04-04T15:32:01.059Z</time></trkpt><trkpt lat="43.2881976" lon="11.5419074"><ele>301.0</ele><time>2026-04-04T15:32:02.06Z</time></trkpt><trkpt lat="43.2882345" lon="11.5417975"><ele>301.33333333333337</ele><time>2026-04-04T15:32:03.06Z</time></trkpt><trkpt lat="43.2882697" lon="11.541688"><ele>301.6666666666667</ele><time>2026-04-04T15:32:04.059Z</time></trkpt><trkpt lat="43.2883094" lon="11.5415969"><ele>302.0</ele><time>2026-04-04T15:32:05.058Z</time></trkpt><trkpt lat="43.2883577" lon="11.5415357"><ele>302.0</ele><time>2026-04-04T15:32:06.06Z</time></trkpt><trkpt lat="43.2884227" lon="11.5414521"><ele>302.0</ele><time>2026-04-04T15:32:07.061Z</time></trkpt><trkpt lat="43.2884918" lon="11.5413783"><ele>302.0</ele><time>2026-04-04T15:32:08.059Z</time></trkpt><trkpt lat="43.2885786" lon="11.5413136"><ele>302.0</ele><time>2026-04-04T15:32:09.06Z</time></trkpt><trkpt lat="43.2886704" lon="11.5412708"><ele>302.0</ele><time>2026-04-04T15:32:10.06Z</time></trkpt><trkpt lat="43.2887692" lon="11.5412236"><ele>302.0</ele><time>2026-04-04T15:32:11.059Z</time></trkpt><trkpt lat="43.2888873" lon="11.5411922"><ele>302.0</ele><time>2026-04-04T15:32:12.06Z</time></trkpt><trkpt lat="43.2890036" lon="11.5411563"><ele>302.0</ele><time>2026-04-04T15:32:13.059Z</time></trkpt><trkpt lat="43.2891057" lon="11.5411186"><ele>302.0</ele><time>2026-04-04T15:32:14.06Z</time></trkpt><trkpt lat="43.2891977" lon="11.5411068"><ele>302.0</ele><time>2026-04-04T15:32:15.059Z</time></trkpt><trkpt lat="43.2892711" lon="11.5410967"><ele>302.0</ele><time>2026-04-04T15:32:16.06Z</time></trkpt><trkpt lat="43.2893432" lon="11.5411049"><ele>302.0</ele><time>2026-04-04T15:32:17.059Z</time></trkpt><trkpt lat="43.2894192" lon="11.5411213"><ele>302.0</ele><time>2026-04-04T15:32:18.06Z</time></trkpt><trkpt lat="43.2895013" lon="11.5411487"><ele>302.0</ele><time>2026-04-04T15:32:19.06Z</time></trkpt><trkpt lat="43.2895871" lon="11.541183"><ele>302.0</ele><time>2026-04-04T15:32:20.059Z</time></trkpt><trkpt lat="43.289683" lon="11.5412411"><ele>302.0</ele><time>2026-04-04T15:32:21.058Z</time></trkpt><trkpt lat="43.2897834" lon="11.5412516"><ele>304.6</ele><time>2026-04-04T15:32:22.059Z</time></trkpt><trkpt lat="43.289889" lon="11.5412429"><ele>307.2</ele><time>2026-04-04T15:32:23.059Z</time></trkpt><trkpt lat="43.289989" lon="11.5412337"><ele>309.8</ele><time>2026-04-04T15:32:24.06Z</time></trkpt><trkpt lat="43.290076" lon="11.5412242"><ele>312.4</ele><time>2026-04-04T15:32:25.059Z</time></trkpt><trkpt lat="43.2901667" lon="11.5412197"><ele>315.0</ele><time>2026-04-04T15:32:26.06Z</time></trkpt><trkpt lat="43.2902593" lon="11.5412283"><ele>315.0</ele><time>2026-04-04T15:32:27.058Z</time></trkpt><trkpt lat="43.2903546" lon="11.5412416"><ele>315.0</ele><time>2026-04-04T15:32:28.061Z</time></trkpt><trkpt lat="43.2904492" lon="11.5412705"><ele>315.0</ele><time>2026-04-04T15:32:29.061Z</time></trkpt><trkpt lat="43.2905619" lon="11.5413194"><ele>315.0</ele><time>2026-04-04T15:32:30.06Z</time></trkpt><trkpt lat="43.2906518" lon="11.5413522"><ele>315.0</ele><time>2026-04-04T15:32:31.06Z</time></trkpt><trkpt lat="43.290738" lon="11.5413799"><ele>314.1666666666667</ele><time>2026-04-04T15:32:32.06Z</time></trkpt><trkpt lat="43.2908185" lon="11.5413985"><ele>313.3333333333333</ele><time>2026-04-04T15:32:33.059Z</time></trkpt><trkpt lat="43.290897" lon="11.5414036"><ele>312.5</ele><time>2026-04-04T15:32:34.058Z</time></trkpt><trkpt lat="43.290966" lon="11.5413871"><ele>311.66666666666663</ele><time>2026-04-04T15:32:35.058Z</time></trkpt><trkpt lat="43.2910367" lon="11.541353"><ele>310.8333333333333</ele><time>2026-04-04T15:32:36.059Z</time></trkpt><trkpt lat="43.2911084" lon="11.54131"><ele>310.0</ele><time>2026-04-04T15:32:37.058Z</time></trkpt><trkpt lat="43.2911687" lon="11.5412477"><ele>309.0</ele><time>2026-04-04T15:32:38.059Z</time></trkpt><trkpt lat="43.2912136" lon="11.5411868"><ele>308.0</ele><time>2026-04-04T15:32:39.059Z</time></trkpt><trkpt lat="43.2912615" lon="11.5411133"><ele>307.0</ele><time>2026-04-04T15:32:40.06Z</time></trkpt><trkpt lat="43.2913091" lon="11.5410383"><ele>306.0</ele><time>2026-04-04T15:32:41.059Z</time></trkpt><trkpt lat="43.2913527" lon="11.5409051"><ele>305.0</ele><time>2026-04-04T15:32:43.058Z</time></trkpt><trkpt lat="43.2913609" lon="11.5407647"><ele>304.0</ele><time>2026-04-04T15:32:45.059Z</time></trkpt><trkpt lat="43.2913513" lon="11.5406066"><ele>304.0</ele><time>2026-04-04T15:32:47.059Z</time></trkpt><trkpt lat="43.2913344" lon="11.540454"><ele>304.0</ele><time>2026-04-04T15:32:49.059Z</time></trkpt><trkpt lat="43.2913335" lon="11.5402994"><ele>304.0</ele><time>2026-04-04T15:32:51.06Z</time></trkpt><trkpt lat="43.2913486" lon="11.5401168"><ele>304.0</ele><time>2026-04-04T15:32:53.06Z</time></trkpt><trkpt lat="43.2913655" lon="11.540012"><ele>304.0</ele><time>2026-04-04T15:32:54.058Z</time></trkpt><trkpt lat="43.2914133" lon="11.5398548"><ele>304.75</ele><time>2026-04-04T15:32:55.059Z</time></trkpt><trkpt lat="43.2914589" lon="11.5396984"><ele>305.5</ele><time>2026-04-04T15:32:56.059Z</time></trkpt><trkpt lat="43.2915259" lon="11.5395084"><ele>306.25</ele><time>2026-04-04T15:32:57.06Z</time></trkpt><trkpt lat="43.2915891" lon="11.5393431"><ele>307.0</ele><time>2026-04-04T15:32:58.06Z</time></trkpt><trkpt lat="43.2916538" lon="11.5392212"><ele>309.0</ele><time>2026-04-04T15:32:59.059Z</time></trkpt><trkpt lat="43.2916942" lon="11.5391095"><ele>311.0</ele><time>2026-04-04T15:33:00.058Z</time></trkpt><trkpt lat="43.2917436" lon="11.5390111"><ele>313.0</ele><time>2026-04-04T15:33:01.06Z</time></trkpt><trkpt lat="43.2918211" lon="11.5388924"><ele>315.0</ele><time>2026-04-04T15:33:03.059Z</time></trkpt><trkpt lat="43.2919319" lon="11.5388242"><ele>317.0</ele><time>2026-04-04T15:33:05.06Z</time></trkpt><trkpt lat="43.2920077" lon="11.5387949"><ele>317.0</ele><time>2026-04-04T15:33:06.06Z</time></trkpt><trkpt lat="43.2920728" lon="11.5387897"><ele>317.0</ele><time>2026-04-04T15:33:07.059Z</time></trkpt><trkpt lat="43.2921999" lon="11.5388173"><ele>317.0</ele><time>2026-04-04T15:33:09.059Z</time></trkpt><trkpt lat="43.2922707" lon="11.5388396"><ele>317.0</ele><time>2026-04-04T15:33:10.058Z</time></trkpt><trkpt lat="43.2923593" lon="11.5388632"><ele>317.0</ele><time>2026-04-04T15:33:11.06Z</time></trkpt><trkpt lat="43.2924428" lon="11.5388824"><ele>317.0</ele><time>2026-04-04T15:33:12.06Z</time></trkpt><trkpt lat="43.2925337" lon="11.5388959"><ele>317.0</ele><time>2026-04-04T15:33:13.059Z</time></trkpt><trkpt lat="43.2926236" lon="11.5388997"><ele>317.0</ele><time>2026-04-04T15:33:14.06Z</time></trkpt><trkpt lat="43.2927075" lon="11.5388681"><ele>317.0</ele><time>2026-04-04T15:33:15.058Z</time></trkpt><trkpt lat="43.2927947" lon="11.5388194"><ele>317.0</ele><time>2026-04-04T15:33:16.059Z</time></trkpt><trkpt lat="43.2928839" lon="11.5387366"><ele>317.0</ele><time>2026-04-04T15:33:17.059Z</time></trkpt><trkpt lat="43.2929924" lon="11.5386308"><ele>315.33333333333337</ele><time>2026-04-04T15:33:18.059Z</time></trkpt><trkpt lat="43.2931253" lon="11.5385097"><ele>313.6666666666667</ele><time>2026-04-04T15:33:19.06Z</time></trkpt><trkpt lat="43.2932692" lon="11.5383763"><ele>312.0</ele><time>2026-04-04T15:33:20.058Z</time></trkpt><trkpt lat="43.2934181" lon="11.538241"><ele>312.0</ele><time>2026-04-04T15:33:21.059Z</time></trkpt><trkpt lat="43.2935785" lon="11.5380973"><ele>312.0</ele><time>2026-04-04T15:33:22.058Z</time></trkpt><trkpt lat="43.2937356" lon="11.5379458"><ele>312.0</ele><time>2026-04-04T15:33:23.059Z</time></trkpt><trkpt lat="43.2938884" lon="11.5378235"><ele>312.3333333333333</ele><time>2026-04-04T15:33:24.06Z</time></trkpt><trkpt lat="43.2940254" lon="11.5376876"><ele>312.66666666666663</ele><time>2026-04-04T15:33:25.059Z</time></trkpt><trkpt lat="43.2941566" lon="11.5375496"><ele>313.0</ele><time>2026-04-04T15:33:26.059Z</time></trkpt><trkpt lat="43.2942672" lon="11.5374134"><ele>313.0</ele><time>2026-04-04T15:33:27.059Z</time></trkpt><trkpt lat="43.2943602" lon="11.5372952"><ele>313.0</ele><time>2026-04-04T15:33:28.059Z</time></trkpt><trkpt lat="43.2944379" lon="11.5371945"><ele>313.0</ele><time>2026-04-04T15:33:29.059Z</time></trkpt><trkpt lat="43.2945029" lon="11.5371221"><ele>313.0</ele><time>2026-04-04T15:33:30.059Z</time></trkpt><trkpt lat="43.2945666" lon="11.5370762"><ele>313.0</ele><time>2026-04-04T15:33:31.059Z</time></trkpt><trkpt lat="43.2946466" lon="11.5370142"><ele>312.0</ele><time>2026-04-04T15:33:33.06Z</time></trkpt><trkpt lat="43.2947123" lon="11.5369847"><ele>311.0</ele><time>2026-04-04T15:33:35.059Z</time></trkpt><trkpt lat="43.2947978" lon="11.5369361"><ele>310.0</ele><time>2026-04-04T15:33:37.06Z</time></trkpt><trkpt lat="43.2948577" lon="11.5369045"><ele>309.0</ele><time>2026-04-04T15:33:38.059Z</time></trkpt><trkpt lat="43.2949191" lon="11.5368635"><ele>308.0</ele><time>2026-04-04T15:33:39.06Z</time></trkpt><trkpt lat="43.2949842" lon="11.5368457"><ele>307.0</ele><time>2026-04-04T15:33:40.059Z</time></trkpt><trkpt lat="43.2950922" lon="11.5367998"><ele>307.0</ele><time>2026-04-04T15:33:42.059Z</time></trkpt><trkpt lat="43.295172" lon="11.5367911"><ele>307.0</ele><time>2026-04-04T15:33:44.059Z</time></trkpt><trkpt lat="43.2952619" lon="11.5367719"><ele>307.0</ele><time>2026-04-04T15:33:46.058Z</time></trkpt><trkpt lat="43.2953638" lon="11.5367269"><ele>307.0</ele><time>2026-04-04T15:33:48.059Z</time></trkpt><trkpt lat="43.2954571" lon="11.5366404"><ele>307.0</ele><time>2026-04-04T15:33:50.059Z</time></trkpt><trkpt lat="43.295498" lon="11.5365725"><ele>307.0</ele><time>2026-04-04T15:33:51.059Z</time></trkpt><trkpt lat="43.2955621" lon="11.5364413"><ele>307.0</ele><time>2026-04-04T15:33:53.06Z</time></trkpt><trkpt lat="43.2956158" lon="11.5362733"><ele>307.0</ele><time>2026-04-04T15:33:55.06Z</time></trkpt><trkpt lat="43.2956518" lon="11.5361894"><ele>307.0</ele><time>2026-04-04T15:33:56.059Z</time></trkpt><trkpt lat="43.2956893" lon="11.5360927"><ele>307.0</ele><time>2026-04-04T15:33:57.059Z</time></trkpt><trkpt lat="43.2957256" lon="11.535988"><ele>309.66666666666663</ele><time>2026-04-04T15:33:58.06Z</time></trkpt><trkpt lat="43.2957596" lon="11.5358826"><ele>312.3333333333333</ele><time>2026-04-04T15:33:59.059Z</time></trkpt><trkpt lat="43.2957871" lon="11.5357707"><ele>315.0</ele><time>2026-04-04T15:34:00.058Z</time></trkpt><trkpt lat="43.295803" lon="11.5356645"><ele>317.6666666666667</ele><time>2026-04-04T15:34:01.059Z</time></trkpt><trkpt lat="43.2958161" lon="11.5355391"><ele>320.33333333333337</ele><time>2026-04-04T15:34:02.058Z</time></trkpt><trkpt lat="43.295821" lon="11.5354197"><ele>323.0</ele><time>2026-04-04T15:34:03.059Z</time></trkpt><trkpt lat="43.2958371" lon="11.5352911"><ele>323.79999999999995</ele><time>2026-04-04T15:34:04.059Z</time></trkpt><trkpt lat="43.2958504" lon="11.5351851"><ele>324.6</ele><time>2026-04-04T15:34:05.059Z</time></trkpt><trkpt lat="43.2958715" lon="11.5350361"><ele>325.4</ele><time>2026-04-04T15:34:07.058Z</time></trkpt><trkpt lat="43.2958728" lon="11.5348916"><ele>326.20000000000005</ele><time>2026-04-04T15:34:09.059Z</time></trkpt><trkpt lat="43.2958461" lon="11.5347586"><ele>327.0</ele><time>2026-04-04T15:34:11.059Z</time></trkpt><trkpt lat="43.2957529" lon="11.5346381"><ele>327.0</ele><time>2026-04-04T15:34:13.06Z</time></trkpt><trkpt lat="43.2956788" lon="11.5345802"><ele>327.0</ele><time>2026-04-04T15:34:14.058Z</time></trkpt><trkpt lat="43.2956044" lon="11.5345224"><ele>327.0</ele><time>2026-04-04T15:34:15.059Z</time></trkpt><trkpt lat="43.2955389" lon="11.5344547"><ele>327.0</ele><time>2026-04-04T15:34:16.06Z</time></trkpt><trkpt lat="43.2954741" lon="11.5344082"><ele>327.0</ele><time>2026-04-04T15:34:17.059Z</time></trkpt><trkpt lat="43.295409" lon="11.534345"><ele>327.0</ele><time>2026-04-04T15:34:18.06Z</time></trkpt><trkpt lat="43.2953382" lon="11.5342814"><ele>327.5</ele><time>2026-04-04T15:34:19.058Z</time></trkpt><trkpt lat="43.2952685" lon="11.5342034"><ele>328.0</ele><time>2026-04-04T15:34:20.06Z</time></trkpt><trkpt lat="43.2952141" lon="11.5341256"><ele>328.5</ele><time>2026-04-04T15:34:21.059Z</time></trkpt><trkpt lat="43.2951631" lon="11.534031"><ele>329.0</ele><time>2026-04-04T15:34:22.059Z</time></trkpt><trkpt lat="43.295103" lon="11.5339508"><ele>329.5</ele><time>2026-04-04T15:34:23.059Z</time></trkpt><trkpt lat="43.2950223" lon="11.5338831"><ele>330.0</ele><time>2026-04-04T15:34:24.06Z</time></trkpt><trkpt lat="43.2949268" lon="11.5338305"><ele>330.0</ele><time>2026-04-04T15:34:25.059Z</time></trkpt><trkpt lat="43.294825" lon="11.533778"><ele>330.0</ele><time>2026-04-04T15:34:26.06Z</time></trkpt><trkpt lat="43.2947235" lon="11.5337222"><ele>330.0</ele><time>2026-04-04T15:34:27.059Z</time></trkpt><trkpt lat="43.2946348" lon="11.5336476"><ele>330.0</ele><time>2026-04-04T15:34:28.059Z</time></trkpt><trkpt lat="43.2945688" lon="11.5335655"><ele>330.0</ele><time>2026-04-04T15:34:29.058Z</time></trkpt><trkpt lat="43.2945188" lon="11.5334859"><ele>329.0</ele><time>2026-04-04T15:34:30.058Z</time></trkpt><trkpt lat="43.2945" lon="11.5333816"><ele>328.0</ele><time>2026-04-04T15:34:31.058Z</time></trkpt><trkpt lat="43.2944893" lon="11.5332702"><ele>327.0</ele><time>2026-04-04T15:34:32.058Z</time></trkpt><trkpt lat="43.2944863" lon="11.5331357"><ele>326.0</ele><time>2026-04-04T15:34:33.058Z</time></trkpt><trkpt lat="43.2944827" lon="11.5329742"><ele>325.0</ele><time>2026-04-04T15:34:34.06Z</time></trkpt><trkpt lat="43.2944789" lon="11.5328268"><ele>325.0</ele><time>2026-04-04T15:34:35.059Z</time></trkpt><trkpt lat="43.2944825" lon="11.5326769"><ele>325.0</ele><time>2026-04-04T15:34:36.06Z</time></trkpt><trkpt lat="43.2944892" lon="11.5325286"><ele>325.0</ele><time>2026-04-04T15:34:37.06Z</time></trkpt><trkpt lat="43.2945117" lon="11.5324041"><ele>325.0</ele><time>2026-04-04T15:34:38.06Z</time></trkpt><trkpt lat="43.2945355" lon="11.5322911"><ele>325.0</ele><time>2026-04-04T15:34:39.057Z</time></trkpt><trkpt lat="43.294554" lon="11.5321838"><ele>325.0</ele><time>2026-04-04T15:34:40.059Z</time></trkpt><trkpt lat="43.2945912" lon="11.5320664"><ele>325.0</ele><time>2026-04-04T15:34:41.059Z</time></trkpt><trkpt lat="43.2946344" lon="11.5319443"><ele>325.0</ele><time>2026-04-04T15:34:42.059Z</time></trkpt><trkpt lat="43.2946802" lon="11.5318232"><ele>325.0</ele><time>2026-04-04T15:34:43.059Z</time></trkpt><trkpt lat="43.2947438" lon="11.5316814"><ele>325.0</ele><time>2026-04-04T15:34:44.059Z</time></trkpt><trkpt lat="43.2948033" lon="11.5315709"><ele>324.0</ele><time>2026-04-04T15:34:45.058Z</time></trkpt><trkpt lat="43.2948575" lon="11.5314591"><ele>323.0</ele><time>2026-04-04T15:34:46.059Z</time></trkpt><trkpt lat="43.2949185" lon="11.5313383"><ele>322.0</ele><time>2026-04-04T15:34:47.06Z</time></trkpt><trkpt lat="43.2949833" lon="11.5312192"><ele>321.0</ele><time>2026-04-04T15:34:48.058Z</time></trkpt><trkpt lat="43.2950503" lon="11.5311163"><ele>320.0</ele><time>2026-04-04T15:34:49.058Z</time></trkpt><trkpt lat="43.2951221" lon="11.5310262"><ele>320.0</ele><time>2026-04-04T15:34:50.059Z</time></trkpt><trkpt lat="43.2952009" lon="11.5309401"><ele>320.0</ele><time>2026-04-04T15:34:51.058Z</time></trkpt><trkpt lat="43.2952917" lon="11.5308549"><ele>320.0</ele><time>2026-04-04T15:34:52.059Z</time></trkpt><trkpt lat="43.2953902" lon="11.5307893"><ele>320.0</ele><time>2026-04-04T15:34:53.058Z</time></trkpt><trkpt lat="43.2954893" lon="11.5307249"><ele>320.0</ele><time>2026-04-04T15:34:54.059Z</time></trkpt><trkpt lat="43.2955858" lon="11.5306734"><ele>317.5</ele><time>2026-04-04T15:34:55.06Z</time></trkpt><trkpt lat="43.2956836" lon="11.5306253"><ele>315.0</ele><time>2026-04-04T15:34:56.057Z</time></trkpt><trkpt lat="43.2957703" lon="11.5305855"><ele>312.5</ele><time>2026-04-04T15:34:57.058Z</time></trkpt><trkpt lat="43.2958525" lon="11.5305463"><ele>310.0</ele><time>2026-04-04T15:34:58.058Z</time></trkpt><trkpt lat="43.2959288" lon="11.5305191"><ele>307.5</ele><time>2026-04-04T15:34:59.057Z</time></trkpt><trkpt lat="43.2960075" lon="11.5304789"><ele>305.0</ele><time>2026-04-04T15:35:00.06Z</time></trkpt><trkpt lat="43.2960822" lon="11.5304472"><ele>305.0</ele><time>2026-04-04T15:35:01.058Z</time></trkpt><trkpt lat="43.2961634" lon="11.5304184"><ele>305.0</ele><time>2026-04-04T15:35:02.06Z</time></trkpt><trkpt lat="43.2962385" lon="11.5303852"><ele>305.0</ele><time>2026-04-04T15:35:03.058Z</time></trkpt><trkpt lat="43.2963178" lon="11.5303507"><ele>305.0</ele><time>2026-04-04T15:35:04.059Z</time></trkpt><trkpt lat="43.2963969" lon="11.5303192"><ele>305.0</ele><time>2026-04-04T15:35:05.06Z</time></trkpt><trkpt lat="43.2964688" lon="11.5302837"><ele>305.0</ele><time>2026-04-04T15:35:06.058Z</time></trkpt><trkpt lat="43.2965269" lon="11.5302441"><ele>303.2</ele><time>2026-04-04T15:35:07.06Z</time></trkpt><trkpt lat="43.296608" lon="11.5301343"><ele>301.4</ele><time>2026-04-04T15:35:09.058Z</time></trkpt><trkpt lat="43.2966454" lon="11.5299991"><ele>299.6</ele><time>2026-04-04T15:35:11.06Z</time></trkpt><trkpt lat="43.2965921" lon="11.5298547"><ele>297.8</ele><time>2026-04-04T15:35:13.058Z</time></trkpt><trkpt lat="43.2965406" lon="11.5297949"><ele>296.0</ele><time>2026-04-04T15:35:14.059Z</time></trkpt><trkpt lat="43.2964691" lon="11.5297476"><ele>295.6666666666667</ele><time>2026-04-04T15:35:15.058Z</time></trkpt><trkpt lat="43.2963905" lon="11.5297019"><ele>295.33333333333337</ele><time>2026-04-04T15:35:16.059Z</time></trkpt><trkpt lat="43.2963085" lon="11.5296539"><ele>295.0</ele><time>2026-04-04T15:35:17.058Z</time></trkpt><trkpt lat="43.2962177" lon="11.5296165"><ele>294.6666666666667</ele><time>2026-04-04T15:35:18.059Z</time></trkpt><trkpt lat="43.2961264" lon="11.5295941"><ele>294.3333333333333</ele><time>2026-04-04T15:35:19.059Z</time></trkpt><trkpt lat="43.2960412" lon="11.5295821"><ele>294.0</ele><time>2026-04-04T15:35:20.059Z</time></trkpt><trkpt lat="43.2959587" lon="11.5295505"><ele>294.0</ele><time>2026-04-04T15:35:21.059Z</time></trkpt><trkpt lat="43.295876" lon="11.5295038"><ele>294.0</ele><time>2026-04-04T15:35:22.058Z</time></trkpt><trkpt lat="43.2957933" lon="11.5294484"><ele>294.0</ele><time>2026-04-04T15:35:23.059Z</time></trkpt><trkpt lat="43.2957115" lon="11.5293908"><ele>294.0</ele><time>2026-04-04T15:35:24.058Z</time></trkpt><trkpt lat="43.2956291" lon="11.5293464"><ele>294.0</ele><time>2026-04-04T15:35:25.059Z</time></trkpt><trkpt lat="43.2955465" lon="11.5293015"><ele>294.5</ele><time>2026-04-04T15:35:26.059Z</time></trkpt><trkpt lat="43.2954754" lon="11.529275"><ele>295.0</ele><time>2026-04-04T15:35:27.058Z</time></trkpt><trkpt lat="43.295416" lon="11.529241"><ele>295.5</ele><time>2026-04-04T15:35:28.058Z</time></trkpt><trkpt lat="43.2953353" lon="11.5291177"><ele>296.0</ele><time>2026-04-04T15:35:30.059Z</time></trkpt><trkpt lat="43.2953615" lon="11.5289725"><ele>296.5</ele><time>2026-04-04T15:35:32.058Z</time></trkpt><trkpt lat="43.2954064" lon="11.5289009"><ele>297.0</ele><time>2026-04-04T15:35:33.06Z</time></trkpt><trkpt lat="43.2954739" lon="11.5288389"><ele>297.0</ele><time>2026-04-04T15:35:34.059Z</time></trkpt><trkpt lat="43.2955505" lon="11.5287838"><ele>297.0</ele><time>2026-04-04T15:35:35.058Z</time></trkpt><trkpt lat="43.2956247" lon="11.5287254"><ele>297.0</ele><time>2026-04-04T15:35:36.058Z</time></trkpt><trkpt lat="43.2956982" lon="11.5286721"><ele>297.0</ele><time>2026-04-04T15:35:37.058Z</time></trkpt><trkpt lat="43.2957648" lon="11.5285991"><ele>297.0</ele><time>2026-04-04T15:35:38.058Z</time></trkpt><trkpt lat="43.2958257" lon="11.5285263"><ele>297.0</ele><time>2026-04-04T15:35:39.059Z</time></trkpt><trkpt lat="43.2958747" lon="11.5284412"><ele>296.0</ele><time>2026-04-04T15:35:40.06Z</time></trkpt><trkpt lat="43.2959113" lon="11.5283277"><ele>295.0</ele><time>2026-04-04T15:35:41.058Z</time></trkpt><trkpt lat="43.2959399" lon="11.5281997"><ele>294.0</ele><time>2026-04-04T15:35:42.059Z</time></trkpt><trkpt lat="43.2959583" lon="11.528056"><ele>293.0</ele><time>2026-04-04T15:35:43.058Z</time></trkpt><trkpt lat="43.295971" lon="11.5278946"><ele>292.0</ele><time>2026-04-04T15:35:44.059Z</time></trkpt><trkpt lat="43.2959912" lon="11.5277258"><ele>292.0</ele><time>2026-04-04T15:35:45.057Z</time></trkpt><trkpt lat="43.296014" lon="11.5275564"><ele>292.0</ele><time>2026-04-04T15:35:46.057Z</time></trkpt><trkpt lat="43.2960382" lon="11.5273759"><ele>292.0</ele><time>2026-04-04T15:35:47.057Z</time></trkpt><trkpt lat="43.2960762" lon="11.5272181"><ele>292.0</ele><time>2026-04-04T15:35:48.058Z</time></trkpt><trkpt lat="43.2961242" lon="11.5270789"><ele>291.4</ele><time>2026-04-04T15:35:49.057Z</time></trkpt><trkpt lat="43.2961841" lon="11.5269472"><ele>290.79999999999995</ele><time>2026-04-04T15:35:50.058Z</time></trkpt><trkpt lat="43.296247" lon="11.526822"><ele>290.2</ele><time>2026-04-04T15:35:51.058Z</time></trkpt><trkpt lat="43.2963121" lon="11.5267004"><ele>289.59999999999997</ele><time>2026-04-04T15:35:52.057Z</time></trkpt><trkpt lat="43.2963795" lon="11.5265914"><ele>289.0</ele><time>2026-04-04T15:35:53.059Z</time></trkpt><trkpt lat="43.2964478" lon="11.5264799"><ele>289.0</ele><time>2026-04-04T15:35:54.059Z</time></trkpt><trkpt lat="43.2965161" lon="11.5263758"><ele>289.0</ele><time>2026-04-04T15:35:55.059Z</time></trkpt><trkpt lat="43.2965841" lon="11.5262828"><ele>289.0</ele><time>2026-04-04T15:35:56.059Z</time></trkpt><trkpt lat="43.2966576" lon="11.5262021"><ele>289.0</ele><time>2026-04-04T15:35:57.059Z</time></trkpt><trkpt lat="43.2967174" lon="11.5261269"><ele>289.0</ele><time>2026-04-04T15:35:58.058Z</time></trkpt><trkpt lat="43.2967665" lon="11.5260387"><ele>289.0</ele><time>2026-04-04T15:35:59.058Z</time></trkpt><trkpt lat="43.2967889" lon="11.5259434"><ele>289.0</ele><time>2026-04-04T15:36:00.058Z</time></trkpt><trkpt lat="43.2968011" lon="11.5258447"><ele>289.0</ele><time>2026-04-04T15:36:01.057Z</time></trkpt><trkpt lat="43.2967908" lon="11.5257359"><ele>289.0</ele><time>2026-04-04T15:36:02.058Z</time></trkpt><trkpt lat="43.2967713" lon="11.5256168"><ele>289.0</ele><time>2026-04-04T15:36:03.058Z</time></trkpt><trkpt lat="43.296776" lon="11.5254653"><ele>289.0</ele><time>2026-04-04T15:36:04.057Z</time></trkpt><trkpt lat="43.2967891" lon="11.5253144"><ele>289.59999999999997</ele><time>2026-04-04T15:36:05.058Z</time></trkpt><trkpt lat="43.2967973" lon="11.525164"><ele>290.2</ele><time>2026-04-04T15:36:06.058Z</time></trkpt><trkpt lat="43.296787" lon="11.5250302"><ele>290.79999999999995</ele><time>2026-04-04T15:36:07.058Z</time></trkpt><trkpt lat="43.2967552" lon="11.5249011"><ele>291.4</ele><time>2026-04-04T15:36:08.058Z</time></trkpt><trkpt lat="43.2967106" lon="11.5247508"><ele>292.0</ele><time>2026-04-04T15:36:09.058Z</time></trkpt><trkpt lat="43.2966616" lon="11.5246042"><ele>294.0</ele><time>2026-04-04T15:36:10.058Z</time></trkpt><trkpt lat="43.2966223" lon="11.5244663"><ele>296.0</ele><time>2026-04-04T15:36:11.058Z</time></trkpt><trkpt lat="43.2965959" lon="11.5243412"><ele>298.0</ele><time>2026-04-04T15:36:12.058Z</time></trkpt><trkpt lat="43.296575" lon="11.5241914"><ele>300.0</ele><time>2026-04-04T15:36:13.058Z</time></trkpt><trkpt lat="43.2965426" lon="11.5240194"><ele>302.0</ele><time>2026-04-04T15:36:14.058Z</time></trkpt><trkpt lat="43.2965206" lon="11.5238443"><ele>303.0</ele><time>2026-04-04T15:36:15.058Z</time></trkpt><trkpt lat="43.2964986" lon="11.5236922"><ele>304.0</ele><time>2026-04-04T15:36:16.06Z</time></trkpt><trkpt lat="43.2964766" lon="11.5235545"><ele>305.0</ele><time>2026-04-04T15:36:17.058Z</time></trkpt><trkpt lat="43.2964628" lon="11.523427"><ele>306.0</ele><time>2026-04-04T15:36:18.06Z</time></trkpt><trkpt lat="43.2964561" lon="11.5233178"><ele>307.0</ele><time>2026-04-04T15:36:19.059Z</time></trkpt><trkpt lat="43.2964489" lon="11.5232196"><ele>307.0</ele><time>2026-04-04T15:36:20.058Z</time></trkpt><trkpt lat="43.2964431" lon="11.5230528"><ele>307.0</ele><time>2026-04-04T15:36:22.058Z</time></trkpt><trkpt lat="43.2964371" lon="11.5229181"><ele>307.0</ele><time>2026-04-04T15:36:24.06Z</time></trkpt><trkpt lat="43.2964515" lon="11.5228065"><ele>307.0</ele><time>2026-04-04T15:36:26.059Z</time></trkpt><trkpt lat="43.296467" lon="11.5226985"><ele>307.0</ele><time>2026-04-04T15:36:29.059Z</time></trkpt><trkpt lat="43.2964985" lon="11.522547"><ele>306.8</ele><time>2026-04-04T15:39:19.057Z</time></trkpt><trkpt lat="43.2965456" lon="11.5224723"><ele>306.6</ele><time>2026-04-04T15:39:22.057Z</time></trkpt><trkpt lat="43.2965961" lon="11.5223532"><ele>306.40000000000003</ele><time>2026-04-04T15:39:25.057Z</time></trkpt><trkpt lat="43.2966618" lon="11.5222276"><ele>306.2</ele><time>2026-04-04T15:39:27.057Z</time></trkpt><trkpt lat="43.2966878" lon="11.5221431"><ele>306.0</ele><time>2026-04-04T15:39:28.057Z</time></trkpt><trkpt lat="43.296723" lon="11.5219916"><ele>304.0</ele><time>2026-04-04T15:39:30.057Z</time></trkpt><trkpt lat="43.2967466" lon="11.5218582"><ele>302.0</ele><time>2026-04-04T15:39:32.057Z</time></trkpt><trkpt lat="43.2967706" lon="11.5217347"><ele>300.0</ele><time>2026-04-04T15:39:34.057Z</time></trkpt><trkpt lat="43.2968404" lon="11.5216117"><ele>298.0</ele><time>2026-04-04T15:39:36.057Z</time></trkpt><trkpt lat="43.2969336" lon="11.521517"><ele>296.0</ele><time>2026-04-04T15:39:38.058Z</time></trkpt><trkpt lat="43.2969997" lon="11.5214752"><ele>296.0</ele><time>2026-04-04T15:39:39.057Z</time></trkpt><trkpt lat="43.2970784" lon="11.521441"><ele>296.0</ele><time>2026-04-04T15:39:40.057Z</time></trkpt><trkpt lat="43.2971613" lon="11.5214023"><ele>296.0</ele><time>2026-04-04T15:39:41.057Z</time></trkpt><trkpt lat="43.2972472" lon="11.5213755"><ele>296.0</ele><time>2026-04-04T15:39:42.057Z</time></trkpt><trkpt lat="43.2973396" lon="11.521359"><ele>296.0</ele><time>2026-04-04T15:39:43.058Z</time></trkpt><trkpt lat="43.2974358" lon="11.5213458"><ele>296.0</ele><time>2026-04-04T15:39:44.058Z</time></trkpt><trkpt lat="43.2975247" lon="11.5213746"><ele>297.33333333333337</ele><time>2026-04-04T15:39:45.057Z</time></trkpt><trkpt lat="43.2975997" lon="11.5214166"><ele>298.6666666666667</ele><time>2026-04-04T15:39:46.056Z</time></trkpt><trkpt lat="43.2976662" lon="11.521456"><ele>300.0</ele><time>2026-04-04T15:39:47.058Z</time></trkpt><trkpt lat="43.2977273" lon="11.5215009"><ele>301.3333333333333</ele><time>2026-04-04T15:39:48.058Z</time></trkpt><trkpt lat="43.2977947" lon="11.5215521"><ele>302.66666666666663</ele><time>2026-04-04T15:39:49.058Z</time></trkpt><trkpt lat="43.2978602" lon="11.5216083"><ele>304.0</ele><time>2026-04-04T15:39:50.055Z</time></trkpt><trkpt lat="43.2979243" lon="11.5216783"><ele>304.0</ele><time>2026-04-04T15:39:51.056Z</time></trkpt><trkpt lat="43.2979802" lon="11.5217648"><ele>304.0</ele><time>2026-04-04T15:39:52.057Z</time></trkpt><trkpt lat="43.2980323" lon="11.5218603"><ele>304.0</ele><time>2026-04-04T15:39:53.056Z</time></trkpt><trkpt lat="43.2980826" lon="11.5219733"><ele>304.0</ele><time>2026-04-04T15:39:54.056Z</time></trkpt><trkpt lat="43.2981304" lon="11.522076"><ele>304.0</ele><time>2026-04-04T15:39:55.057Z</time></trkpt><trkpt lat="43.2981906" lon="11.5221653"><ele>304.0</ele><time>2026-04-04T15:39:56.056Z</time></trkpt><trkpt lat="43.2982567" lon="11.5222171"><ele>304.16666666666663</ele><time>2026-04-04T15:39:57.058Z</time></trkpt><trkpt lat="43.2983363" lon="11.5222528"><ele>304.3333333333333</ele><time>2026-04-04T15:39:58.058Z</time></trkpt><trkpt lat="43.2984152" lon="11.5222592"><ele>304.5</ele><time>2026-04-04T15:39:59.057Z</time></trkpt><trkpt lat="43.2984972" lon="11.5222331"><ele>304.6666666666667</ele><time>2026-04-04T15:40:00.056Z</time></trkpt><trkpt lat="43.2985853" lon="11.5222226"><ele>304.83333333333337</ele><time>2026-04-04T15:40:01.057Z</time></trkpt><trkpt lat="43.2986636" lon="11.5222305"><ele>305.0</ele><time>2026-04-04T15:40:02.056Z</time></trkpt><trkpt lat="43.2987456" lon="11.5222683"><ele>305.0</ele><time>2026-04-04T15:40:03.056Z</time></trkpt><trkpt lat="43.2988311" lon="11.5223436"><ele>305.0</ele><time>2026-04-04T15:40:04.057Z</time></trkpt><trkpt lat="43.2989057" lon="11.5224148"><ele>305.0</ele><time>2026-04-04T15:40:05.057Z</time></trkpt><trkpt lat="43.2989906" lon="11.5224608"><ele>305.0</ele><time>2026-04-04T15:40:06.057Z</time></trkpt><trkpt lat="43.2990709" lon="11.5224928"><ele>305.0</ele><time>2026-04-04T15:40:07.057Z</time></trkpt><trkpt lat="43.2991624" lon="11.5224999"><ele>303.83333333333337</ele><time>2026-04-04T15:40:08.056Z</time></trkpt><trkpt lat="43.2992488" lon="11.5225095"><ele>302.6666666666667</ele><time>2026-04-04T15:40:09.057Z</time></trkpt><trkpt lat="43.2993371" lon="11.5224956"><ele>301.5</ele><time>2026-04-04T15:40:10.057Z</time></trkpt><trkpt lat="43.2994204" lon="11.5224647"><ele>300.3333333333333</ele><time>2026-04-04T15:40:11.057Z</time></trkpt><trkpt lat="43.2994987" lon="11.5224225"><ele>299.16666666666663</ele><time>2026-04-04T15:40:12.056Z</time></trkpt><trkpt lat="43.2995708" lon="11.5223815"><ele>298.0</ele><time>2026-04-04T15:40:13.056Z</time></trkpt><trkpt lat="43.2996404" lon="11.5223373"><ele>298.0</ele><time>2026-04-04T15:40:14.056Z</time></trkpt><trkpt lat="43.2997156" lon="11.5222827"><ele>298.0</ele><time>2026-04-04T15:40:15.056Z</time></trkpt><trkpt lat="43.2998054" lon="11.5222467"><ele>298.0</ele><time>2026-04-04T15:40:16.057Z</time></trkpt><trkpt lat="43.2999059" lon="11.5222201"><ele>298.0</ele><time>2026-04-04T15:40:17.058Z</time></trkpt><trkpt lat="43.3000164" lon="11.5222126"><ele>298.0</ele><time>2026-04-04T15:40:18.057Z</time></trkpt><trkpt lat="43.3001257" lon="11.5222143"><ele>298.16666666666663</ele><time>2026-04-04T15:40:19.057Z</time></trkpt><trkpt lat="43.3002141" lon="11.5222427"><ele>298.3333333333333</ele><time>2026-04-04T15:40:20.056Z</time></trkpt><trkpt lat="43.3003054" lon="11.5222994"><ele>298.5</ele><time>2026-04-04T15:40:21.056Z</time></trkpt><trkpt lat="43.3003878" lon="11.522332"><ele>298.6666666666667</ele><time>2026-04-04T15:40:22.057Z</time></trkpt><trkpt lat="43.3004627" lon="11.5223696"><ele>298.83333333333337</ele><time>2026-04-04T15:40:23.058Z</time></trkpt><trkpt lat="43.3005298" lon="11.5224048"><ele>299.0</ele><time>2026-04-04T15:40:24.056Z</time></trkpt><trkpt lat="43.3005984" lon="11.5224355"><ele>298.1666666666667</ele><time>2026-04-04T15:40:25.056Z</time></trkpt><trkpt lat="43.3006776" lon="11.5224688"><ele>297.33333333333337</ele><time>2026-04-04T15:40:26.055Z</time></trkpt><trkpt lat="43.3007529" lon="11.5224977"><ele>296.5</ele><time>2026-04-04T15:40:27.057Z</time></trkpt><trkpt lat="43.3008368" lon="11.5225138"><ele>295.6666666666667</ele><time>2026-04-04T15:40:28.058Z</time></trkpt><trkpt lat="43.3009299" lon="11.5225326"><ele>294.8333333333333</ele><time>2026-04-04T15:40:29.057Z</time></trkpt><trkpt lat="43.3010271" lon="11.5225777"><ele>294.0</ele><time>2026-04-04T15:40:30.057Z</time></trkpt><trkpt lat="43.3011196" lon="11.5226209"><ele>294.0</ele><time>2026-04-04T15:40:31.056Z</time></trkpt><trkpt lat="43.3012225" lon="11.5226678"><ele>294.0</ele><time>2026-04-04T15:40:32.057Z</time></trkpt><trkpt lat="43.3013211" lon="11.5227219"><ele>294.0</ele><time>2026-04-04T15:40:33.055Z</time></trkpt><trkpt lat="43.3014088" lon="11.522767"><ele>294.0</ele><time>2026-04-04T15:40:34.056Z</time></trkpt><trkpt lat="43.3014944" lon="11.522812"><ele>294.0</ele><time>2026-04-04T15:40:35.055Z</time></trkpt><trkpt lat="43.3015833" lon="11.5228485"><ele>293.2</ele><time>2026-04-04T15:40:36.056Z</time></trkpt><trkpt lat="43.3016791" lon="11.5228725"><ele>292.4</ele><time>2026-04-04T15:40:37.057Z</time></trkpt><trkpt lat="43.3017765" lon="11.5228964"><ele>291.6</ele><time>2026-04-04T15:40:38.055Z</time></trkpt><trkpt lat="43.3018753" lon="11.5229108"><ele>290.8</ele><time>2026-04-04T15:40:39.057Z</time></trkpt><trkpt lat="43.3019755" lon="11.5229225"><ele>290.0</ele><time>2026-04-04T15:40:40.057Z</time></trkpt><trkpt lat="43.3020735" lon="11.5229276"><ele>290.4</ele><time>2026-04-04T15:40:41.058Z</time></trkpt><trkpt lat="43.3021615" lon="11.5229221"><ele>290.8</ele><time>2026-04-04T15:40:42.056Z</time></trkpt><trkpt lat="43.3022515" lon="11.522885"><ele>291.2</ele><time>2026-04-04T15:40:43.057Z</time></trkpt><trkpt lat="43.3023419" lon="11.5228545"><ele>291.6</ele><time>2026-04-04T15:40:44.055Z</time></trkpt><trkpt lat="43.3024362" lon="11.5228309"><ele>292.0</ele><time>2026-04-04T15:40:45.056Z</time></trkpt><trkpt lat="43.3025198" lon="11.5227902"><ele>292.0</ele><time>2026-04-04T15:40:46.056Z</time></trkpt><trkpt lat="43.3026083" lon="11.5227465"><ele>292.0</ele><time>2026-04-04T15:40:47.056Z</time></trkpt><trkpt lat="43.3027127" lon="11.5227234"><ele>292.0</ele><time>2026-04-04T15:40:48.056Z</time></trkpt><trkpt lat="43.3028159" lon="11.5227022"><ele>292.0</ele><time>2026-04-04T15:40:49.055Z</time></trkpt><trkpt lat="43.3029191" lon="11.5226847"><ele>292.0</ele><time>2026-04-04T15:40:50.056Z</time></trkpt><trkpt lat="43.3030143" lon="11.5226736"><ele>291.4</ele><time>2026-04-04T15:40:51.056Z</time></trkpt><trkpt lat="43.3031146" lon="11.5226651"><ele>290.79999999999995</ele><time>2026-04-04T15:40:52.057Z</time></trkpt><trkpt lat="43.3032058" lon="11.5226753"><ele>290.2</ele><time>2026-04-04T15:40:53.058Z</time></trkpt><trkpt lat="43.303298" lon="11.5227223"><ele>289.59999999999997</ele><time>2026-04-04T15:40:54.057Z</time></trkpt><trkpt lat="43.3033784" lon="11.5227912"><ele>289.0</ele><time>2026-04-04T15:40:55.057Z</time></trkpt><trkpt lat="43.3034587" lon="11.5228754"><ele>293.75</ele><time>2026-04-04T15:40:56.057Z</time></trkpt><trkpt lat="43.303534" lon="11.522992"><ele>298.5</ele><time>2026-04-04T15:40:57.057Z</time></trkpt><trkpt lat="43.3036115" lon="11.5231207"><ele>303.25</ele><time>2026-04-04T15:40:58.058Z</time></trkpt><trkpt lat="43.3036815" lon="11.5232392"><ele>308.0</ele><time>2026-04-04T15:40:59.056Z</time></trkpt><trkpt lat="43.3037596" lon="11.5233566"><ele>308.0</ele><time>2026-04-04T15:41:00.057Z</time></trkpt><trkpt lat="43.3038364" lon="11.5234674"><ele>308.0</ele><time>2026-04-04T15:41:01.056Z</time></trkpt><trkpt lat="43.3039049" lon="11.5235779"><ele>308.0</ele><time>2026-04-04T15:41:02.055Z</time></trkpt><trkpt lat="43.3039473" lon="11.5236722"><ele>308.0</ele><time>2026-04-04T15:41:03.056Z</time></trkpt><trkpt lat="43.3040127" lon="11.5237509"><ele>308.0</ele><time>2026-04-04T15:41:04.056Z</time></trkpt><trkpt lat="43.304089" lon="11.5238022"><ele>305.6666666666667</ele><time>2026-04-04T15:41:05.056Z</time></trkpt><trkpt lat="43.304177" lon="11.5238201"><ele>303.33333333333337</ele><time>2026-04-04T15:41:06.057Z</time></trkpt><trkpt lat="43.3042649" lon="11.5238108"><ele>301.0</ele><time>2026-04-04T15:41:07.057Z</time></trkpt><trkpt lat="43.3043577" lon="11.5237891"><ele>298.6666666666667</ele><time>2026-04-04T15:41:08.057Z</time></trkpt><trkpt lat="43.3044275" lon="11.5237302"><ele>296.3333333333333</ele><time>2026-04-04T15:41:09.056Z</time></trkpt><trkpt lat="43.3044962" lon="11.5236611"><ele>294.0</ele><time>2026-04-04T15:41:10.057Z</time></trkpt><trkpt lat="43.3045628" lon="11.52357"><ele>294.0</ele><time>2026-04-04T15:41:11.057Z</time></trkpt><trkpt lat="43.3046393" lon="11.5234701"><ele>294.0</ele><time>2026-04-04T15:41:12.057Z</time></trkpt><trkpt lat="43.3047053" lon="11.5233789"><ele>294.0</ele><time>2026-04-04T15:41:13.055Z</time></trkpt><trkpt lat="43.3047798" lon="11.5232982"><ele>294.0</ele><time>2026-04-04T15:41:14.058Z</time></trkpt><trkpt lat="43.3048559" lon="11.5232223"><ele>294.0</ele><time>2026-04-04T15:41:15.057Z</time></trkpt><trkpt lat="43.3049374" lon="11.5231543"><ele>295.59999999999997</ele><time>2026-04-04T15:41:16.056Z</time></trkpt><trkpt lat="43.3050235" lon="11.5230851"><ele>297.2</ele><time>2026-04-04T15:41:17.057Z</time></trkpt><trkpt lat="43.305122" lon="11.5230231"><ele>298.79999999999995</ele><time>2026-04-04T15:41:18.056Z</time></trkpt><trkpt lat="43.3052233" lon="11.5229689"><ele>300.4</ele><time>2026-04-04T15:41:19.057Z</time></trkpt><trkpt lat="43.3053243" lon="11.5229173"><ele>302.0</ele><time>2026-04-04T15:41:20.056Z</time></trkpt><trkpt lat="43.3054256" lon="11.5228611"><ele>302.0</ele><time>2026-04-04T15:41:21.058Z</time></trkpt><trkpt lat="43.3055308" lon="11.5228128"><ele>302.0</ele><time>2026-04-04T15:41:22.056Z</time></trkpt><trkpt lat="43.3056249" lon="11.5227812"><ele>302.0</ele><time>2026-04-04T15:41:23.058Z</time></trkpt><trkpt lat="43.3057122" lon="11.5227796"><ele>302.0</ele><time>2026-04-04T15:41:24.057Z</time></trkpt><trkpt lat="43.3058158" lon="11.5227882"><ele>302.0</ele><time>2026-04-04T15:41:25.055Z</time></trkpt><trkpt lat="43.305915" lon="11.5228088"><ele>304.4</ele><time>2026-04-04T15:41:26.055Z</time></trkpt><trkpt lat="43.3060082" lon="11.5228382"><ele>306.79999999999995</ele><time>2026-04-04T15:41:27.056Z</time></trkpt><trkpt lat="43.3060914" lon="11.5228736"><ele>309.2</ele><time>2026-04-04T15:41:28.058Z</time></trkpt><trkpt lat="43.3061788" lon="11.5228982"><ele>311.59999999999997</ele><time>2026-04-04T15:41:29.055Z</time></trkpt><trkpt lat="43.306278" lon="11.52292"><ele>314.0</ele><time>2026-04-04T15:41:30.056Z</time></trkpt><trkpt lat="43.3063652" lon="11.522946"><ele>316.2</ele><time>2026-04-04T15:41:31.056Z</time></trkpt><trkpt lat="43.3064641" lon="11.5229812"><ele>318.4</ele><time>2026-04-04T15:41:32.056Z</time></trkpt><trkpt lat="43.3065687" lon="11.5230013"><ele>320.6</ele><time>2026-04-04T15:41:33.055Z</time></trkpt><trkpt lat="43.3066896" lon="11.5230153"><ele>322.8</ele><time>2026-04-04T15:41:34.056Z</time></trkpt><trkpt lat="43.3067843" lon="11.5230206"><ele>325.0</ele><time>2026-04-04T15:41:35.055Z</time></trkpt><trkpt lat="43.3068999" lon="11.5230185"><ele>325.0</ele><time>2026-04-04T15:41:36.057Z</time></trkpt><trkpt lat="43.3070028" lon="11.5230188"><ele>325.0</ele><time>2026-04-04T15:41:37.057Z</time></trkpt><trkpt lat="43.3071045" lon="11.5230393"><ele>325.0</ele><time>2026-04-04T15:41:38.058Z</time></trkpt><trkpt lat="43.3072138" lon="11.5230569"><ele>325.0</ele><time>2026-04-04T15:41:39.056Z</time></trkpt><trkpt lat="43.3072947" lon="11.5230481"><ele>325.0</ele><time>2026-04-04T15:41:40.057Z</time></trkpt><trkpt lat="43.3073981" lon="11.5230776"><ele>325.2</ele><time>2026-04-04T15:41:41.055Z</time></trkpt><trkpt lat="43.3074935" lon="11.5231083"><ele>325.4</ele><time>2026-04-04T15:41:42.056Z</time></trkpt><trkpt lat="43.3075678" lon="11.5231949"><ele>325.6</ele><time>2026-04-04T15:41:43.057Z</time></trkpt><trkpt lat="43.3076415" lon="11.5232699"><ele>325.8</ele><time>2026-04-04T15:41:44.056Z</time></trkpt><trkpt lat="43.3077166" lon="11.523343"><ele>326.0</ele><time>2026-04-04T15:41:45.058Z</time></trkpt><trkpt lat="43.3077884" lon="11.523407"><ele>326.0</ele><time>2026-04-04T15:41:46.057Z</time></trkpt><trkpt lat="43.3078635" lon="11.523458"><ele>326.0</ele><time>2026-04-04T15:41:47.056Z</time></trkpt><trkpt lat="43.3079382" lon="11.5235187"><ele>326.0</ele><time>2026-04-04T15:41:48.056Z</time></trkpt><trkpt lat="43.3080172" lon="11.5235814"><ele>326.0</ele><time>2026-04-04T15:41:49.056Z</time></trkpt><trkpt lat="43.3080898" lon="11.5236442"><ele>326.0</ele><time>2026-04-04T15:41:50.056Z</time></trkpt><trkpt lat="43.3081639" lon="11.5236796"><ele>326.0</ele><time>2026-04-04T15:41:51.057Z</time></trkpt><trkpt lat="43.3082209" lon="11.5237313"><ele>326.0</ele><time>2026-04-04T15:41:52.056Z</time></trkpt><trkpt lat="43.3083174" lon="11.523834"><ele>326.0</ele><time>2026-04-04T15:41:54.056Z</time></trkpt><trkpt lat="43.3084351" lon="11.5239307"><ele>326.0</ele><time>2026-04-04T15:41:56.057Z</time></trkpt><trkpt lat="43.3084962" lon="11.5240061"><ele>326.0</ele><time>2026-04-04T15:41:57.056Z</time></trkpt><trkpt lat="43.3085575" lon="11.5240841"><ele>326.0</ele><time>2026-04-04T15:41:58.056Z</time></trkpt><trkpt lat="43.3086111" lon="11.5241582"><ele>326.0</ele><time>2026-04-04T15:41:59.056Z</time></trkpt><trkpt lat="43.308651" lon="11.5242278"><ele>326.0</ele><time>2026-04-04T15:42:00.057Z</time></trkpt><trkpt lat="43.3086934" lon="11.5243"><ele>326.0</ele><time>2026-04-04T15:42:01.056Z</time></trkpt><trkpt lat="43.3087589" lon="11.5244186"><ele>326.0</ele><time>2026-04-04T15:42:03.056Z</time></trkpt><trkpt lat="43.308843" lon="11.5244442"><ele>326.0</ele><time>2026-04-04T15:42:05.056Z</time></trkpt><trkpt lat="43.3088958" lon="11.5243511"><ele>326.0</ele><time>2026-04-04T15:42:07.056Z</time></trkpt><trkpt lat="43.3089308" lon="11.5242205"><ele>324.6</ele><time>2026-04-04T15:42:09.055Z</time></trkpt><trkpt lat="43.3089518" lon="11.5240594"><ele>323.20000000000005</ele><time>2026-04-04T15:42:11.056Z</time></trkpt><trkpt lat="43.3089713" lon="11.5239006"><ele>321.79999999999995</ele><time>2026-04-04T15:42:13.056Z</time></trkpt><trkpt lat="43.3089609" lon="11.5237334"><ele>320.4</ele><time>2026-04-04T15:42:15.056Z</time></trkpt><trkpt lat="43.3089494" lon="11.5236462"><ele>319.0</ele><time>2026-04-04T15:42:16.057Z</time></trkpt><trkpt lat="43.3089249" lon="11.5234632"><ele>318.5</ele><time>2026-04-04T15:42:18.055Z</time></trkpt><trkpt lat="43.3089192" lon="11.5233537"><ele>318.0</ele><time>2026-04-04T15:42:19.057Z</time></trkpt><trkpt lat="43.3089337" lon="11.5232679"><ele>317.5</ele><time>2026-04-04T15:42:20.055Z</time></trkpt><trkpt lat="43.3089658" lon="11.5231817"><ele>317.0</ele><time>2026-04-04T15:42:21.056Z</time></trkpt><trkpt lat="43.3090063" lon="11.5230911"><ele>316.5</ele><time>2026-04-04T15:42:22.057Z</time></trkpt><trkpt lat="43.309067" lon="11.5229963"><ele>316.0</ele><time>2026-04-04T15:42:23.056Z</time></trkpt><trkpt lat="43.3091494" lon="11.5228942"><ele>314.5</ele><time>2026-04-04T15:42:24.056Z</time></trkpt><trkpt lat="43.3092422" lon="11.5227983"><ele>313.0</ele><time>2026-04-04T15:42:25.055Z</time></trkpt><trkpt lat="43.3093411" lon="11.5227214"><ele>311.5</ele><time>2026-04-04T15:42:26.056Z</time></trkpt><trkpt lat="43.309462" lon="11.5226553"><ele>310.0</ele><time>2026-04-04T15:42:27.054Z</time></trkpt><trkpt lat="43.3095657" lon="11.5225876"><ele>310.0</ele><time>2026-04-04T15:42:28.056Z</time></trkpt><trkpt lat="43.3096622" lon="11.5225005"><ele>310.0</ele><time>2026-04-04T15:42:29.056Z</time></trkpt><trkpt lat="43.3097418" lon="11.52242"><ele>310.0</ele><time>2026-04-04T15:42:30.056Z</time></trkpt><trkpt lat="43.3098082" lon="11.5223154"><ele>310.0</ele><time>2026-04-04T15:42:31.056Z</time></trkpt><trkpt lat="43.3098587" lon="11.5222054"><ele>310.0</ele><time>2026-04-04T15:42:32.056Z</time></trkpt><trkpt lat="43.3098882" lon="11.5220931"><ele>309.0</ele><time>2026-04-04T15:42:33.057Z</time></trkpt><trkpt lat="43.3099044" lon="11.521975"><ele>308.0</ele><time>2026-04-04T15:42:34.056Z</time></trkpt><trkpt lat="43.3099074" lon="11.5218436"><ele>307.0</ele><time>2026-04-04T15:42:35.056Z</time></trkpt><trkpt lat="43.3098926" lon="11.5217112"><ele>306.0</ele><time>2026-04-04T15:42:36.055Z</time></trkpt><trkpt lat="43.3098584" lon="11.5215817"><ele>305.0</ele><time>2026-04-04T15:42:37.055Z</time></trkpt><trkpt lat="43.3098169" lon="11.5214361"><ele>305.0</ele><time>2026-04-04T15:42:38.055Z</time></trkpt><trkpt lat="43.3097772" lon="11.5212735"><ele>305.0</ele><time>2026-04-04T15:42:39.056Z</time></trkpt><trkpt lat="43.3097509" lon="11.5211022"><ele>305.0</ele><time>2026-04-04T15:42:40.056Z</time></trkpt><trkpt lat="43.3097327" lon="11.5209199"><ele>305.0</ele><time>2026-04-04T15:42:41.056Z</time></trkpt><trkpt lat="43.309724" lon="11.5207441"><ele>302.75</ele><time>2026-04-04T15:42:42.056Z</time></trkpt><trkpt lat="43.3097116" lon="11.5205608"><ele>300.5</ele><time>2026-04-04T15:42:43.057Z</time></trkpt><trkpt lat="43.3096948" lon="11.5203807"><ele>298.25</ele><time>2026-04-04T15:42:44.057Z</time></trkpt><trkpt lat="43.3096819" lon="11.5202082"><ele>296.0</ele><time>2026-04-04T15:42:45.056Z</time></trkpt><trkpt lat="43.3096727" lon="11.5200317"><ele>296.0</ele><time>2026-04-04T15:42:46.057Z</time></trkpt><trkpt lat="43.3096772" lon="11.5198704"><ele>296.0</ele><time>2026-04-04T15:42:47.056Z</time></trkpt><trkpt lat="43.3096975" lon="11.519722"><ele>296.0</ele><time>2026-04-04T15:42:48.055Z</time></trkpt><trkpt lat="43.3097299" lon="11.5195952"><ele>296.0</ele><time>2026-04-04T15:42:49.055Z</time></trkpt><trkpt lat="43.3097661" lon="11.5194489"><ele>296.0</ele><time>2026-04-04T15:42:50.057Z</time></trkpt><trkpt lat="43.3098239" lon="11.519276"><ele>296.0</ele><time>2026-04-04T15:42:51.055Z</time></trkpt><trkpt lat="43.3098818" lon="11.5191248"><ele>296.0</ele><time>2026-04-04T15:42:52.056Z</time></trkpt><trkpt lat="43.3099255" lon="11.5189874"><ele>296.0</ele><time>2026-04-04T15:42:53.057Z</time></trkpt><trkpt lat="43.3099603" lon="11.518841"><ele>296.0</ele><time>2026-04-04T15:42:54.056Z</time></trkpt><trkpt lat="43.3099709" lon="11.5186896"><ele>295.75</ele><time>2026-04-04T15:42:55.055Z</time></trkpt><trkpt lat="43.3099721" lon="11.5185316"><ele>295.5</ele><time>2026-04-04T15:42:56.056Z</time></trkpt><trkpt lat="43.3099454" lon="11.5183848"><ele>295.25</ele><time>2026-04-04T15:42:57.056Z</time></trkpt><trkpt lat="43.309897" lon="11.5182368"><ele>295.0</ele><time>2026-04-04T15:42:58.056Z</time></trkpt><trkpt lat="43.3098568" lon="11.5180946"><ele>295.0</ele><time>2026-04-04T15:42:59.056Z</time></trkpt><trkpt lat="43.3097912" lon="11.5179563"><ele>295.0</ele><time>2026-04-04T15:43:00.054Z</time></trkpt><trkpt lat="43.3097215" lon="11.5178242"><ele>295.0</ele><time>2026-04-04T15:43:01.055Z</time></trkpt><trkpt lat="43.3096453" lon="11.5177006"><ele>295.0</ele><time>2026-04-04T15:43:02.055Z</time></trkpt><trkpt lat="43.309564" lon="11.5175796"><ele>293.75</ele><time>2026-04-04T15:43:03.057Z</time></trkpt><trkpt lat="43.3094796" lon="11.5174645"><ele>292.5</ele><time>2026-04-04T15:43:04.054Z</time></trkpt><trkpt lat="43.3093875" lon="11.5173503"><ele>291.25</ele><time>2026-04-04T15:43:05.054Z</time></trkpt><trkpt lat="43.309309" lon="11.5172357"><ele>290.0</ele><time>2026-04-04T15:43:06.056Z</time></trkpt><trkpt lat="43.3092496" lon="11.5171029"><ele>290.8</ele><time>2026-04-04T15:43:07.055Z</time></trkpt><trkpt lat="43.3092157" lon="11.5169577"><ele>291.6</ele><time>2026-04-04T15:43:08.055Z</time></trkpt><trkpt lat="43.3092043" lon="11.5168111"><ele>292.4</ele><time>2026-04-04T15:43:09.056Z</time></trkpt><trkpt lat="43.3092248" lon="11.5166801"><ele>293.2</ele><time>2026-04-04T15:43:10.055Z</time></trkpt><trkpt lat="43.3092723" lon="11.5165589"><ele>294.0</ele><time>2026-04-04T15:43:11.055Z</time></trkpt><trkpt lat="43.3093362" lon="11.5164697"><ele>294.0</ele><time>2026-04-04T15:43:12.054Z</time></trkpt><trkpt lat="43.3094158" lon="11.5163717"><ele>294.0</ele><time>2026-04-04T15:43:13.056Z</time></trkpt><trkpt lat="43.3095003" lon="11.5162512"><ele>294.0</ele><time>2026-04-04T15:43:14.056Z</time></trkpt><trkpt lat="43.3095873" lon="11.5161459"><ele>294.0</ele><time>2026-04-04T15:43:15.055Z</time></trkpt><trkpt lat="43.3096834" lon="11.5160258"><ele>292.75</ele><time>2026-04-04T15:43:16.056Z</time></trkpt><trkpt lat="43.3097817" lon="11.5159049"><ele>291.5</ele><time>2026-04-04T15:43:17.055Z</time></trkpt><trkpt lat="43.3098797" lon="11.5157869"><ele>290.25</ele><time>2026-04-04T15:43:18.055Z</time></trkpt><trkpt lat="43.3099828" lon="11.5156773"><ele>289.0</ele><time>2026-04-04T15:43:19.056Z</time></trkpt><trkpt lat="43.3100889" lon="11.5155722"><ele>289.0</ele><time>2026-04-04T15:43:20.057Z</time></trkpt><trkpt lat="43.310202" lon="11.5154757"><ele>289.0</ele><time>2026-04-04T15:43:21.055Z</time></trkpt><trkpt lat="43.3103332" lon="11.5153903"><ele>289.0</ele><time>2026-04-04T15:43:22.057Z</time></trkpt><trkpt lat="43.3104872" lon="11.5153317"><ele>289.0</ele><time>2026-04-04T15:43:23.057Z</time></trkpt><trkpt lat="43.3106596" lon="11.5152641"><ele>287.0</ele><time>2026-04-04T15:43:24.055Z</time></trkpt><trkpt lat="43.3108368" lon="11.5152083"><ele>285.0</ele><time>2026-04-04T15:43:25.056Z</time></trkpt><trkpt lat="43.311001" lon="11.5151699"><ele>283.0</ele><time>2026-04-04T15:43:26.056Z</time></trkpt><trkpt lat="43.3111642" lon="11.5151506"><ele>283.0</ele><time>2026-04-04T15:43:27.055Z</time></trkpt><trkpt lat="43.3113261" lon="11.5151455"><ele>283.0</ele><time>2026-04-04T15:43:28.055Z</time></trkpt><trkpt lat="43.3114884" lon="11.5151428"><ele>283.0</ele><time>2026-04-04T15:43:29.056Z</time></trkpt><trkpt lat="43.3116433" lon="11.5151452"><ele>284.6</ele><time>2026-04-04T15:43:30.055Z</time></trkpt><trkpt lat="43.3117636" lon="11.5151443"><ele>286.20000000000005</ele><time>2026-04-04T15:43:31.056Z</time></trkpt><trkpt lat="43.3118709" lon="11.5151243"><ele>287.8</ele><time>2026-04-04T15:43:32.055Z</time></trkpt><trkpt lat="43.3119649" lon="11.515083"><ele>289.40000000000003</ele><time>2026-04-04T15:43:33.056Z</time></trkpt><trkpt lat="43.3120381" lon="11.5150173"><ele>291.0</ele><time>2026-04-04T15:43:34.056Z</time></trkpt><trkpt lat="43.3121059" lon="11.5149369"><ele>291.0</ele><time>2026-04-04T15:43:35.057Z</time></trkpt><trkpt lat="43.3121642" lon="11.5148242"><ele>291.0</ele><time>2026-04-04T15:43:36.055Z</time></trkpt><trkpt lat="43.3122223" lon="11.514703"><ele>291.0</ele><time>2026-04-04T15:43:37.054Z</time></trkpt><trkpt lat="43.312284" lon="11.5145699"><ele>291.0</ele><time>2026-04-04T15:43:38.055Z</time></trkpt><trkpt lat="43.3123394" lon="11.5144527"><ele>291.0</ele><time>2026-04-04T15:43:39.056Z</time></trkpt><trkpt lat="43.3124073" lon="11.5143254"><ele>292.5</ele><time>2026-04-04T15:43:40.055Z</time></trkpt><trkpt lat="43.3124977" lon="11.5142092"><ele>294.0</ele><time>2026-04-04T15:43:41.056Z</time></trkpt><trkpt lat="43.3126074" lon="11.5141119"><ele>295.5</ele><time>2026-04-04T15:43:42.055Z</time></trkpt><trkpt lat="43.3127355" lon="11.5139996"><ele>297.0</ele><time>2026-04-04T15:43:43.055Z</time></trkpt><trkpt lat="43.312861" lon="11.5139241"><ele>297.0</ele><time>2026-04-04T15:43:44.055Z</time></trkpt><trkpt lat="43.3129856" lon="11.5138674"><ele>297.0</ele><time>2026-04-04T15:43:45.055Z</time></trkpt><trkpt lat="43.3131058" lon="11.5138481"><ele>297.0</ele><time>2026-04-04T15:43:46.055Z</time></trkpt><trkpt lat="43.313233" lon="11.5138605"><ele>297.0</ele><time>2026-04-04T15:43:47.055Z</time></trkpt><trkpt lat="43.3133663" lon="11.5139066"><ele>297.5</ele><time>2026-04-04T15:43:48.055Z</time></trkpt><trkpt lat="43.3134944" lon="11.5139668"><ele>298.0</ele><time>2026-04-04T15:43:49.056Z</time></trkpt><trkpt lat="43.3136172" lon="11.5140459"><ele>298.5</ele><time>2026-04-04T15:43:50.056Z</time></trkpt><trkpt lat="43.3137375" lon="11.5141567"><ele>299.0</ele><time>2026-04-04T15:43:51.055Z</time></trkpt><trkpt lat="43.313844" lon="11.5142604"><ele>299.0</ele><time>2026-04-04T15:43:52.056Z</time></trkpt><trkpt lat="43.3139379" lon="11.5143655"><ele>299.0</ele><time>2026-04-04T15:43:53.056Z</time></trkpt><trkpt lat="43.3140323" lon="11.5144758"><ele>299.0</ele><time>2026-04-04T15:43:54.055Z</time></trkpt><trkpt lat="43.3141111" lon="11.5145609"><ele>299.0</ele><time>2026-04-04T15:43:55.054Z</time></trkpt><trkpt lat="43.3141892" lon="11.5146087"><ele>299.0</ele><time>2026-04-04T15:43:56.056Z</time></trkpt><trkpt lat="43.3142654" lon="11.5146409"><ele>299.0</ele><time>2026-04-04T15:43:57.055Z</time></trkpt><trkpt lat="43.3143388" lon="11.5146354"><ele>299.0</ele><time>2026-04-04T15:43:58.055Z</time></trkpt><trkpt lat="43.3144228" lon="11.5146015"><ele>299.0</ele><time>2026-04-04T15:43:59.054Z</time></trkpt><trkpt lat="43.3145077" lon="11.5145313"><ele>299.0</ele><time>2026-04-04T15:44:00.055Z</time></trkpt><trkpt lat="43.3145887" lon="11.5144144"><ele>299.0</ele><time>2026-04-04T15:44:01.056Z</time></trkpt><trkpt lat="43.3146562" lon="11.514295"><ele>299.2</ele><time>2026-04-04T15:44:02.056Z</time></trkpt><trkpt lat="43.3147087" lon="11.5141819"><ele>299.4</ele><time>2026-04-04T15:44:03.054Z</time></trkpt><trkpt lat="43.3147595" lon="11.5140786"><ele>299.6</ele><time>2026-04-04T15:44:04.056Z</time></trkpt><trkpt lat="43.3148301" lon="11.513986"><ele>299.8</ele><time>2026-04-04T15:44:05.056Z</time></trkpt><trkpt lat="43.3149217" lon="11.5139223"><ele>300.0</ele><time>2026-04-04T15:44:06.055Z</time></trkpt><trkpt lat="43.3150254" lon="11.5138945"><ele>300.8</ele><time>2026-04-04T15:44:07.056Z</time></trkpt><trkpt lat="43.3151333" lon="11.5138788"><ele>301.6</ele><time>2026-04-04T15:44:08.054Z</time></trkpt><trkpt lat="43.3152386" lon="11.5138696"><ele>302.4</ele><time>2026-04-04T15:44:09.055Z</time></trkpt><trkpt lat="43.3153299" lon="11.5138708"><ele>303.2</ele><time>2026-04-04T15:44:10.057Z</time></trkpt><trkpt lat="43.3153994" lon="11.5138761"><ele>304.0</ele><time>2026-04-04T15:44:11.054Z</time></trkpt><trkpt lat="43.3154935" lon="11.5139279"><ele>304.0</ele><time>2026-04-04T15:44:13.056Z</time></trkpt><trkpt lat="43.3155515" lon="11.5140566"><ele>304.0</ele><time>2026-04-04T15:44:15.055Z</time></trkpt><trkpt lat="43.315585" lon="11.5142286"><ele>304.0</ele><time>2026-04-04T15:44:17.056Z</time></trkpt><trkpt lat="43.3155963" lon="11.5143312"><ele>304.0</ele><time>2026-04-04T15:44:18.055Z</time></trkpt><trkpt lat="43.3156073" lon="11.5144551"><ele>304.0</ele><time>2026-04-04T15:44:19.055Z</time></trkpt><trkpt lat="43.315621" lon="11.5145963"><ele>302.75</ele><time>2026-04-04T15:44:20.056Z</time></trkpt><trkpt lat="43.31565" lon="11.5147412"><ele>301.5</ele><time>2026-04-04T15:44:21.055Z</time></trkpt><trkpt lat="43.3157045" lon="11.5148785"><ele>300.25</ele><time>2026-04-04T15:44:22.056Z</time></trkpt><trkpt lat="43.315773" lon="11.5150124"><ele>299.0</ele><time>2026-04-04T15:44:23.055Z</time></trkpt><trkpt lat="43.3158653" lon="11.5151115"><ele>299.0</ele><time>2026-04-04T15:44:24.054Z</time></trkpt><trkpt lat="43.3159627" lon="11.5151983"><ele>299.0</ele><time>2026-04-04T15:44:25.054Z</time></trkpt><trkpt lat="43.3160664" lon="11.5152537"><ele>299.0</ele><time>2026-04-04T15:44:26.055Z</time></trkpt><trkpt lat="43.3161746" lon="11.5152649"><ele>299.0</ele><time>2026-04-04T15:44:27.056Z</time></trkpt><trkpt lat="43.3162865" lon="11.5152482"><ele>299.0</ele><time>2026-04-04T15:44:28.056Z</time></trkpt><trkpt lat="43.3163955" lon="11.5152257"><ele>299.25</ele><time>2026-04-04T15:44:29.055Z</time></trkpt><trkpt lat="43.3165093" lon="11.5151923"><ele>299.5</ele><time>2026-04-04T15:44:30.054Z</time></trkpt><trkpt lat="43.3166224" lon="11.5151478"><ele>299.75</ele><time>2026-04-04T15:44:31.055Z</time></trkpt><trkpt lat="43.3167471" lon="11.5151041"><ele>300.0</ele><time>2026-04-04T15:44:32.055Z</time></trkpt><trkpt lat="43.3168734" lon="11.5150463"><ele>300.0</ele><time>2026-04-04T15:44:33.056Z</time></trkpt><trkpt lat="43.3169962" lon="11.5149944"><ele>300.0</ele><time>2026-04-04T15:44:34.056Z</time></trkpt><trkpt lat="43.3171081" lon="11.5149405"><ele>300.0</ele><time>2026-04-04T15:44:35.054Z</time></trkpt><trkpt lat="43.3172226" lon="11.5149034"><ele>300.0</ele><time>2026-04-04T15:44:36.055Z</time></trkpt><trkpt lat="43.3173212" lon="11.5148551"><ele>300.2</ele><time>2026-04-04T15:44:37.055Z</time></trkpt><trkpt lat="43.3174113" lon="11.5147861"><ele>300.4</ele><time>2026-04-04T15:44:38.055Z</time></trkpt><trkpt lat="43.31749" lon="11.5146825"><ele>300.6</ele><time>2026-04-04T15:44:39.054Z</time></trkpt><trkpt lat="43.3175542" lon="11.5145698"><ele>300.8</ele><time>2026-04-04T15:44:40.056Z</time></trkpt><trkpt lat="43.3176077" lon="11.5144345"><ele>301.0</ele><time>2026-04-04T15:44:41.054Z</time></trkpt><trkpt lat="43.3176521" lon="11.5142968"><ele>301.0</ele><time>2026-04-04T15:44:42.055Z</time></trkpt><trkpt lat="43.3176898" lon="11.5141508"><ele>301.0</ele><time>2026-04-04T15:44:43.054Z</time></trkpt><trkpt lat="43.3177253" lon="11.5139927"><ele>301.0</ele><time>2026-04-04T15:44:44.055Z</time></trkpt><trkpt lat="43.3177662" lon="11.5138307"><ele>301.0</ele><time>2026-04-04T15:44:45.055Z</time></trkpt><trkpt lat="43.3178138" lon="11.5136921"><ele>300.40000000000003</ele><time>2026-04-04T15:44:46.055Z</time></trkpt><trkpt lat="43.3178808" lon="11.5135725"><ele>299.8</ele><time>2026-04-04T15:44:47.055Z</time></trkpt><trkpt lat="43.3179566" lon="11.5134845"><ele>299.20000000000005</ele><time>2026-04-04T15:44:48.055Z</time></trkpt><trkpt lat="43.3180665" lon="11.5134272"><ele>298.6</ele><time>2026-04-04T15:44:49.056Z</time></trkpt><trkpt lat="43.3181714" lon="11.5133813"><ele>298.0</ele><time>2026-04-04T15:44:50.055Z</time></trkpt><trkpt lat="43.3182855" lon="11.5133736"><ele>298.0</ele><time>2026-04-04T15:44:51.054Z</time></trkpt><trkpt lat="43.3183993" lon="11.5133767"><ele>298.0</ele><time>2026-04-04T15:44:52.056Z</time></trkpt><trkpt lat="43.3185155" lon="11.5134261"><ele>298.0</ele><time>2026-04-04T15:44:53.056Z</time></trkpt><trkpt lat="43.3186164" lon="11.5134812"><ele>298.0</ele><time>2026-04-04T15:44:54.055Z</time></trkpt><trkpt lat="43.3186909" lon="11.5135765"><ele>298.0</ele><time>2026-04-04T15:44:55.054Z</time></trkpt><trkpt lat="43.318754" lon="11.5137036"><ele>298.5</ele><time>2026-04-04T15:44:56.055Z</time></trkpt><trkpt lat="43.3187741" lon="11.5138563"><ele>299.0</ele><time>2026-04-04T15:44:57.056Z</time></trkpt><trkpt lat="43.31877" lon="11.5140107"><ele>299.5</ele><time>2026-04-04T15:44:58.055Z</time></trkpt><trkpt lat="43.3187467" lon="11.5141637"><ele>300.0</ele><time>2026-04-04T15:44:59.054Z</time></trkpt><trkpt lat="43.3186884" lon="11.5142949"><ele>300.0</ele><time>2026-04-04T15:45:00.055Z</time></trkpt><trkpt lat="43.3186039" lon="11.5144206"><ele>300.0</ele><time>2026-04-04T15:45:01.055Z</time></trkpt><trkpt lat="43.3185116" lon="11.5145246"><ele>300.0</ele><time>2026-04-04T15:45:02.055Z</time></trkpt><trkpt lat="43.3184459" lon="11.514611"><ele>300.0</ele><time>2026-04-04T15:45:03.054Z</time></trkpt><trkpt lat="43.3183911" lon="11.5147095"><ele>300.0</ele><time>2026-04-04T15:45:04.055Z</time></trkpt><trkpt lat="43.3183574" lon="11.5148106"><ele>299.6</ele><time>2026-04-04T15:45:05.056Z</time></trkpt><trkpt lat="43.3183539" lon="11.5149022"><ele>299.2</ele><time>2026-04-04T15:45:06.056Z</time></trkpt><trkpt lat="43.3184321" lon="11.5150217"><ele>298.8</ele><time>2026-04-04T15:45:08.054Z</time></trkpt><trkpt lat="43.3185594" lon="11.5149774"><ele>298.4</ele><time>2026-04-04T15:45:10.055Z</time></trkpt><trkpt lat="43.318612" lon="11.5149056"><ele>298.0</ele><time>2026-04-04T15:45:11.055Z</time></trkpt><trkpt lat="43.3186612" lon="11.5148037"><ele>298.0</ele><time>2026-04-04T15:45:12.055Z</time></trkpt><trkpt lat="43.3187159" lon="11.5146949"><ele>298.0</ele><time>2026-04-04T15:45:13.054Z</time></trkpt><trkpt lat="43.3187854" lon="11.5145733"><ele>298.0</ele><time>2026-04-04T15:45:14.055Z</time></trkpt><trkpt lat="43.3188545" lon="11.514452"><ele>298.0</ele><time>2026-04-04T15:45:15.054Z</time></trkpt><trkpt lat="43.3189182" lon="11.5143285"><ele>298.0</ele><time>2026-04-04T15:45:16.054Z</time></trkpt><trkpt lat="43.3189678" lon="11.5141853"><ele>296.75</ele><time>2026-04-04T15:45:17.055Z</time></trkpt><trkpt lat="43.3189867" lon="11.5140496"><ele>295.5</ele><time>2026-04-04T15:45:18.055Z</time></trkpt><trkpt lat="43.3189871" lon="11.5138994"><ele>294.25</ele><time>2026-04-04T15:45:19.054Z</time></trkpt><trkpt lat="43.3189849" lon="11.5137306"><ele>293.0</ele><time>2026-04-04T15:45:20.055Z</time></trkpt><trkpt lat="43.3189786" lon="11.5135696"><ele>292.25</ele><time>2026-04-04T15:45:21.055Z</time></trkpt><trkpt lat="43.3189963" lon="11.5134141"><ele>291.5</ele><time>2026-04-04T15:45:22.056Z</time></trkpt><trkpt lat="43.3190338" lon="11.5132632"><ele>290.75</ele><time>2026-04-04T15:45:23.056Z</time></trkpt><trkpt lat="43.3190927" lon="11.5131217"><ele>290.0</ele><time>2026-04-04T15:45:24.055Z</time></trkpt><trkpt lat="43.3191586" lon="11.5129832"><ele>287.75</ele><time>2026-04-04T15:45:25.055Z</time></trkpt><trkpt lat="43.3192049" lon="11.5128393"><ele>285.5</ele><time>2026-04-04T15:45:26.056Z</time></trkpt><trkpt lat="43.3192465" lon="11.5126849"><ele>283.25</ele><time>2026-04-04T15:45:27.055Z</time></trkpt><trkpt lat="43.3192685" lon="11.5125058"><ele>281.0</ele><time>2026-04-04T15:45:28.053Z</time></trkpt><trkpt lat="43.3192739" lon="11.5123137"><ele>281.0</ele><time>2026-04-04T15:45:29.054Z</time></trkpt><trkpt lat="43.3192647" lon="11.5121177"><ele>281.0</ele><time>2026-04-04T15:45:30.054Z</time></trkpt><trkpt lat="43.3192547" lon="11.5119223"><ele>281.0</ele><time>2026-04-04T15:45:31.055Z</time></trkpt><trkpt lat="43.3192336" lon="11.5117485"><ele>281.0</ele><time>2026-04-04T15:45:32.055Z</time></trkpt><trkpt lat="43.3191995" lon="11.5115654"><ele>279.0</ele><time>2026-04-04T15:45:33.055Z</time></trkpt><trkpt lat="43.3191701" lon="11.511378"><ele>277.0</ele><time>2026-04-04T15:45:34.055Z</time></trkpt><trkpt lat="43.3191509" lon="11.5111881"><ele>275.0</ele><time>2026-04-04T15:45:35.055Z</time></trkpt><trkpt lat="43.3191428" lon="11.5109905"><ele>273.0</ele><time>2026-04-04T15:45:36.055Z</time></trkpt><trkpt lat="43.3191609" lon="11.5108026"><ele>270.75</ele><time>2026-04-04T15:45:37.055Z</time></trkpt><trkpt lat="43.3192054" lon="11.5106281"><ele>268.5</ele><time>2026-04-04T15:45:38.055Z</time></trkpt><trkpt lat="43.3192716" lon="11.5104679"><ele>266.25</ele><time>2026-04-04T15:45:39.054Z</time></trkpt><trkpt lat="43.3193495" lon="11.5103171"><ele>264.0</ele><time>2026-04-04T15:45:40.053Z</time></trkpt><trkpt lat="43.3194362" lon="11.510168"><ele>261.5</ele><time>2026-04-04T15:45:41.055Z</time></trkpt><trkpt lat="43.3195288" lon="11.5100194"><ele>259.0</ele><time>2026-04-04T15:45:42.055Z</time></trkpt><trkpt lat="43.3196226" lon="11.5098741"><ele>256.5</ele><time>2026-04-04T15:45:43.056Z</time></trkpt><trkpt lat="43.3197015" lon="11.5097128"><ele>254.0</ele><time>2026-04-04T15:45:44.056Z</time></trkpt><trkpt lat="43.319761" lon="11.5095348"><ele>252.25</ele><time>2026-04-04T15:45:45.053Z</time></trkpt><trkpt lat="43.3198058" lon="11.5093567"><ele>250.5</ele><time>2026-04-04T15:45:46.054Z</time></trkpt><trkpt lat="43.3198403" lon="11.509192"><ele>248.75</ele><time>2026-04-04T15:45:47.055Z</time></trkpt><trkpt lat="43.319863" lon="11.5090091"><ele>247.0</ele><time>2026-04-04T15:45:48.056Z</time></trkpt><trkpt lat="43.3198773" lon="11.508837"><ele>247.0</ele><time>2026-04-04T15:45:49.055Z</time></trkpt><trkpt lat="43.3198774" lon="11.5086709"><ele>247.0</ele><time>2026-04-04T15:45:50.055Z</time></trkpt><trkpt lat="43.3198744" lon="11.5084978"><ele>247.0</ele><time>2026-04-04T15:45:51.055Z</time></trkpt><trkpt lat="43.3198629" lon="11.5083382"><ele>247.0</ele><time>2026-04-04T15:45:52.054Z</time></trkpt><trkpt lat="43.3198482" lon="11.5081808"><ele>247.0</ele><time>2026-04-04T15:45:53.055Z</time></trkpt><trkpt lat="43.319832" lon="11.5080011"><ele>247.0</ele><time>2026-04-04T15:45:54.053Z</time></trkpt><trkpt lat="43.3198128" lon="11.5078235"><ele>247.0</ele><time>2026-04-04T15:45:55.055Z</time></trkpt><trkpt lat="43.3197962" lon="11.5076303"><ele>247.0</ele><time>2026-04-04T15:45:56.055Z</time></trkpt><trkpt lat="43.3197743" lon="11.5074492"><ele>246.75</ele><time>2026-04-04T15:45:57.055Z</time></trkpt><trkpt lat="43.3197572" lon="11.5072564"><ele>246.5</ele><time>2026-04-04T15:45:58.054Z</time></trkpt><trkpt lat="43.3197416" lon="11.5070464"><ele>246.25</ele><time>2026-04-04T15:45:59.055Z</time></trkpt><trkpt lat="43.3197145" lon="11.506838"><ele>246.0</ele><time>2026-04-04T15:46:00.055Z</time></trkpt><trkpt lat="43.3196935" lon="11.5066495"><ele>245.60000000000002</ele><time>2026-04-04T15:46:01.054Z</time></trkpt><trkpt lat="43.319694" lon="11.5064881"><ele>245.20000000000002</ele><time>2026-04-04T15:46:02.054Z</time></trkpt><trkpt lat="43.3197059" lon="11.5063508"><ele>244.79999999999998</ele><time>2026-04-04T15:46:03.056Z</time></trkpt><trkpt lat="43.3197381" lon="11.5062435"><ele>244.39999999999998</ele><time>2026-04-04T15:46:04.055Z</time></trkpt><trkpt lat="43.319779" lon="11.5061629"><ele>244.0</ele><time>2026-04-04T15:46:05.056Z</time></trkpt><trkpt lat="43.3198478" lon="11.5060923"><ele>244.0</ele><time>2026-04-04T15:46:06.055Z</time></trkpt><trkpt lat="43.3199275" lon="11.5060367"><ele>243.99999999999997</ele><time>2026-04-04T15:46:07.055Z</time></trkpt><trkpt lat="43.3200328" lon="11.5059943"><ele>243.99999999999997</ele><time>2026-04-04T15:46:08.053Z</time></trkpt><trkpt lat="43.3201404" lon="11.5059534"><ele>244.0</ele><time>2026-04-04T15:46:09.055Z</time></trkpt><trkpt lat="43.3202515" lon="11.5059071"><ele>244.0</ele><time>2026-04-04T15:46:10.053Z</time></trkpt><trkpt lat="43.3203641" lon="11.5058629"><ele>244.0</ele><time>2026-04-04T15:46:11.056Z</time></trkpt><trkpt lat="43.3204731" lon="11.50582"><ele>244.0</ele><time>2026-04-04T15:46:12.055Z</time></trkpt><trkpt lat="43.3205851" lon="11.5057803"><ele>244.0</ele><time>2026-04-04T15:46:13.054Z</time></trkpt><trkpt lat="43.3207007" lon="11.5057405"><ele>244.0</ele><time>2026-04-04T15:46:14.054Z</time></trkpt><trkpt lat="43.3208209" lon="11.5057101"><ele>244.75</ele><time>2026-04-04T15:46:15.055Z</time></trkpt><trkpt lat="43.3209494" lon="11.5056832"><ele>245.5</ele><time>2026-04-04T15:46:16.055Z</time></trkpt><trkpt lat="43.32108" lon="11.5056813"><ele>246.25</ele><time>2026-04-04T15:46:17.055Z</time></trkpt><trkpt lat="43.3212073" lon="11.5057117"><ele>247.0</ele><time>2026-04-04T15:46:18.055Z</time></trkpt><trkpt lat="43.3213288" lon="11.505771"><ele>249.0</ele><time>2026-04-04T15:46:19.054Z</time></trkpt><trkpt lat="43.3214399" lon="11.5058485"><ele>251.0</ele><time>2026-04-04T15:46:20.055Z</time></trkpt><trkpt lat="43.321546" lon="11.5059903"><ele>253.0</ele><time>2026-04-04T15:46:21.054Z</time></trkpt><trkpt lat="43.3216629" lon="11.5061493"><ele>255.0</ele><time>2026-04-04T15:46:22.056Z</time></trkpt><trkpt lat="43.3217854" lon="11.5063327"><ele>255.0</ele><time>2026-04-04T15:46:23.056Z</time></trkpt><trkpt lat="43.3219182" lon="11.5065171"><ele>255.0</ele><time>2026-04-04T15:46:24.055Z</time></trkpt><trkpt lat="43.3220495" lon="11.5067206"><ele>255.0</ele><time>2026-04-04T15:46:25.055Z</time></trkpt><trkpt lat="43.3221839" lon="11.506903"><ele>259.6666666666667</ele><time>2026-04-04T15:46:26.054Z</time></trkpt><trkpt lat="43.322303" lon="11.5070802"><ele>264.33333333333337</ele><time>2026-04-04T15:46:27.056Z</time></trkpt><trkpt lat="43.3224133" lon="11.5072288"><ele>269.0</ele><time>2026-04-04T15:46:28.054Z</time></trkpt><trkpt lat="43.3225142" lon="11.5073628"><ele>269.0</ele><time>2026-04-04T15:46:29.054Z</time></trkpt><trkpt lat="43.3226026" lon="11.5074704"><ele>269.0</ele><time>2026-04-04T15:46:30.055Z</time></trkpt><trkpt lat="43.322705" lon="11.5075431"><ele>269.0</ele><time>2026-04-04T15:46:31.055Z</time></trkpt><trkpt lat="43.3228223" lon="11.507594"><ele>269.0</ele><time>2026-04-04T15:46:32.054Z</time></trkpt><trkpt lat="43.3229535" lon="11.5076196"><ele>270.5</ele><time>2026-04-04T15:46:33.053Z</time></trkpt><trkpt lat="43.3231" lon="11.5076414"><ele>272.0</ele><time>2026-04-04T15:46:34.053Z</time></trkpt><trkpt lat="43.3232512" lon="11.5076512"><ele>273.5</ele><time>2026-04-04T15:46:35.055Z</time></trkpt><trkpt lat="43.3233908" lon="11.50765"><ele>275.0</ele><time>2026-04-04T15:46:36.055Z</time></trkpt><trkpt lat="43.3235227" lon="11.507661"><ele>275.0</ele><time>2026-04-04T15:46:37.056Z</time></trkpt><trkpt lat="43.3236375" lon="11.5076834"><ele>275.0</ele><time>2026-04-04T15:46:38.055Z</time></trkpt><trkpt lat="43.3237557" lon="11.5077355"><ele>275.0</ele><time>2026-04-04T15:46:39.054Z</time></trkpt><trkpt lat="43.3238622" lon="11.5077958"><ele>275.0</ele><time>2026-04-04T15:46:40.054Z</time></trkpt><trkpt lat="43.3239587" lon="11.5078799"><ele>277.25</ele><time>2026-04-04T15:46:41.053Z</time></trkpt><trkpt lat="43.3240484" lon="11.5079976"><ele>279.5</ele><time>2026-04-04T15:46:42.054Z</time></trkpt><trkpt lat="43.3241282" lon="11.5081309"><ele>281.75</ele><time>2026-04-04T15:46:43.054Z</time></trkpt><trkpt lat="43.3241939" lon="11.5082849"><ele>284.0</ele><time>2026-04-04T15:46:44.055Z</time></trkpt><trkpt lat="43.3242613" lon="11.5084539"><ele>284.0</ele><time>2026-04-04T15:46:45.054Z</time></trkpt><trkpt lat="43.3243359" lon="11.5086347"><ele>284.0</ele><time>2026-04-04T15:46:46.053Z</time></trkpt><trkpt lat="43.3244088" lon="11.5088109"><ele>284.0</ele><time>2026-04-04T15:46:47.056Z</time></trkpt><trkpt lat="43.3244843" lon="11.5089988"><ele>285.25</ele><time>2026-04-04T15:46:48.055Z</time></trkpt><trkpt lat="43.3245564" lon="11.5091566"><ele>286.5</ele><time>2026-04-04T15:46:49.054Z</time></trkpt><trkpt lat="43.3246434" lon="11.5092816"><ele>287.75</ele><time>2026-04-04T15:46:50.055Z</time></trkpt><trkpt lat="43.3247371" lon="11.5093756"><ele>289.0</ele><time>2026-04-04T15:46:51.055Z</time></trkpt><trkpt lat="43.3248296" lon="11.5094456"><ele>289.0</ele><time>2026-04-04T15:46:52.054Z</time></trkpt><trkpt lat="43.3249378" lon="11.5094846"><ele>289.0</ele><time>2026-04-04T15:46:53.054Z</time></trkpt><trkpt lat="43.325054" lon="11.5094863"><ele>289.0</ele><time>2026-04-04T15:46:54.055Z</time></trkpt><trkpt lat="43.3251831" lon="11.5094509"><ele>289.0</ele><time>2026-04-04T15:46:55.056Z</time></trkpt><trkpt lat="43.3253292" lon="11.5093963"><ele>289.0</ele><time>2026-04-04T15:46:56.055Z</time></trkpt><trkpt lat="43.3254948" lon="11.5093282"><ele>289.0</ele><time>2026-04-04T15:46:57.055Z</time></trkpt><trkpt lat="43.3256797" lon="11.5092517"><ele>289.0</ele><time>2026-04-04T15:46:58.055Z</time></trkpt><trkpt lat="43.3258792" lon="11.509174"><ele>289.3333333333333</ele><time>2026-04-04T15:46:59.055Z</time></trkpt><trkpt lat="43.3260752" lon="11.5090891"><ele>289.6666666666667</ele><time>2026-04-04T15:47:00.054Z</time></trkpt><trkpt lat="43.3262596" lon="11.5090022"><ele>290.0</ele><time>2026-04-04T15:47:01.055Z</time></trkpt><trkpt lat="43.3264402" lon="11.5089139"><ele>291.0</ele><time>2026-04-04T15:47:02.053Z</time></trkpt><trkpt lat="43.3266159" lon="11.5088212"><ele>292.0</ele><time>2026-04-04T15:47:03.055Z</time></trkpt><trkpt lat="43.3267874" lon="11.5087255"><ele>293.0</ele><time>2026-04-04T15:47:04.054Z</time></trkpt><trkpt lat="43.3269572" lon="11.5086217"><ele>293.6666666666667</ele><time>2026-04-04T15:47:05.055Z</time></trkpt><trkpt lat="43.3271263" lon="11.5085296"><ele>294.3333333333333</ele><time>2026-04-04T15:47:06.055Z</time></trkpt><trkpt lat="43.3272959" lon="11.5084289"><ele>295.0</ele><time>2026-04-04T15:47:07.053Z</time></trkpt><trkpt lat="43.3274641" lon="11.5083303"><ele>296.3333333333333</ele><time>2026-04-04T15:47:08.054Z</time></trkpt><trkpt lat="43.3276343" lon="11.5082147"><ele>297.6666666666667</ele><time>2026-04-04T15:47:09.055Z</time></trkpt><trkpt lat="43.3278046" lon="11.5081141"><ele>299.0</ele><time>2026-04-04T15:47:10.054Z</time></trkpt><trkpt lat="43.327983" lon="11.508006"><ele>300.33333333333337</ele><time>2026-04-04T15:47:11.053Z</time></trkpt><trkpt lat="43.3281495" lon="11.5078969"><ele>301.6666666666667</ele><time>2026-04-04T15:47:12.054Z</time></trkpt><trkpt lat="43.3283075" lon="11.5077965"><ele>303.0</ele><time>2026-04-04T15:47:13.054Z</time></trkpt><trkpt lat="43.3284585" lon="11.5077004"><ele>303.0</ele><time>2026-04-04T15:47:14.055Z</time></trkpt><trkpt lat="43.3285908" lon="11.5076111"><ele>303.0</ele><time>2026-04-04T15:47:15.054Z</time></trkpt><trkpt lat="43.328729" lon="11.5075215"><ele>303.0</ele><time>2026-04-04T15:47:16.054Z</time></trkpt><trkpt lat="43.3288707" lon="11.5074382"><ele>304.3333333333333</ele><time>2026-04-04T15:47:17.054Z</time></trkpt><trkpt lat="43.3290192" lon="11.5073604"><ele>305.66666666666663</ele><time>2026-04-04T15:47:18.053Z</time></trkpt><trkpt lat="43.3291775" lon="11.5072862"><ele>307.0</ele><time>2026-04-04T15:47:19.055Z</time></trkpt><trkpt lat="43.3293499" lon="11.5072201"><ele>307.0</ele><time>2026-04-04T15:47:20.055Z</time></trkpt><trkpt lat="43.3295323" lon="11.507166"><ele>307.0</ele><time>2026-04-04T15:47:21.054Z</time></trkpt><trkpt lat="43.329713" lon="11.5071249"><ele>307.0</ele><time>2026-04-04T15:47:22.053Z</time></trkpt><trkpt lat="43.3298969" lon="11.5070864"><ele>307.0</ele><time>2026-04-04T15:47:23.054Z</time></trkpt><trkpt lat="43.3300861" lon="11.5070442"><ele>307.0</ele><time>2026-04-04T15:47:24.055Z</time></trkpt><trkpt lat="43.3302868" lon="11.5070149"><ele>307.0</ele><time>2026-04-04T15:47:25.054Z</time></trkpt><trkpt lat="43.3304803" lon="11.5069811"><ele>308.3333333333333</ele><time>2026-04-04T15:47:26.054Z</time></trkpt><trkpt lat="43.3306844" lon="11.5069451"><ele>309.6666666666667</ele><time>2026-04-04T15:47:27.055Z</time></trkpt><trkpt lat="43.3308881" lon="11.5069049"><ele>311.0</ele><time>2026-04-04T15:47:28.055Z</time></trkpt><trkpt lat="43.331077" lon="11.5068647"><ele>311.0</ele><time>2026-04-04T15:47:29.055Z</time></trkpt><trkpt lat="43.3312594" lon="11.5068021"><ele>311.0</ele><time>2026-04-04T15:47:30.055Z</time></trkpt><trkpt lat="43.3314468" lon="11.5067039"><ele>311.0</ele><time>2026-04-04T15:47:31.054Z</time></trkpt><trkpt lat="43.331645" lon="11.5065899"><ele>312.0</ele><time>2026-04-04T15:47:32.053Z</time></trkpt><trkpt lat="43.3318311" lon="11.5064713"><ele>313.0</ele><time>2026-04-04T15:47:33.054Z</time></trkpt><trkpt lat="43.3320064" lon="11.5063617"><ele>314.0</ele><time>2026-04-04T15:47:34.055Z</time></trkpt><trkpt lat="43.332173" lon="11.5062556"><ele>314.6666666666667</ele><time>2026-04-04T15:47:35.055Z</time></trkpt><trkpt lat="43.3323276" lon="11.5061491"><ele>315.3333333333333</ele><time>2026-04-04T15:47:36.055Z</time></trkpt><trkpt lat="43.3324726" lon="11.5060429"><ele>316.0</ele><time>2026-04-04T15:47:37.055Z</time></trkpt><trkpt lat="43.3326219" lon="11.5059601"><ele>316.0</ele><time>2026-04-04T15:47:38.055Z</time></trkpt><trkpt lat="43.3327802" lon="11.5058887"><ele>316.0</ele><time>2026-04-04T15:47:39.055Z</time></trkpt><trkpt lat="43.3329592" lon="11.5058277"><ele>316.0</ele><time>2026-04-04T15:47:40.055Z</time></trkpt><trkpt lat="43.3331621" lon="11.505792"><ele>316.0</ele><time>2026-04-04T15:47:41.054Z</time></trkpt><trkpt lat="43.3333746" lon="11.5057566"><ele>316.0</ele><time>2026-04-04T15:47:42.053Z</time></trkpt><trkpt lat="43.3336093" lon="11.5057186"><ele>316.0</ele><time>2026-04-04T15:47:43.055Z</time></trkpt><trkpt lat="43.3338508" lon="11.5056656"><ele>316.0</ele><time>2026-04-04T15:47:44.054Z</time></trkpt><trkpt lat="43.3340921" lon="11.505618"><ele>315.66666666666663</ele><time>2026-04-04T15:47:45.055Z</time></trkpt><trkpt lat="43.3343128" lon="11.5055767"><ele>315.3333333333333</ele><time>2026-04-04T15:47:46.053Z</time></trkpt><trkpt lat="43.3345275" lon="11.5055381"><ele>315.0</ele><time>2026-04-04T15:47:47.054Z</time></trkpt><trkpt lat="43.3347288" lon="11.5054966"><ele>314.6666666666667</ele><time>2026-04-04T15:47:48.054Z</time></trkpt><trkpt lat="43.3349223" lon="11.5054598"><ele>314.33333333333337</ele><time>2026-04-04T15:47:49.054Z</time></trkpt><trkpt lat="43.3351236" lon="11.5054312"><ele>314.0</ele><time>2026-04-04T15:47:50.054Z</time></trkpt><trkpt lat="43.335338" lon="11.505392"><ele>316.0</ele><time>2026-04-04T15:47:51.054Z</time></trkpt><trkpt lat="43.335559" lon="11.5053437"><ele>318.0</ele><time>2026-04-04T15:47:52.055Z</time></trkpt><trkpt lat="43.3357879" lon="11.505295"><ele>318.0</ele><time>2026-04-04T15:47:53.054Z</time></trkpt><trkpt lat="43.3360056" lon="11.5052539"><ele>318.0</ele><time>2026-04-04T15:47:54.054Z</time></trkpt><trkpt lat="43.3362104" lon="11.5052065"><ele>318.0</ele><time>2026-04-04T15:47:55.054Z</time></trkpt><trkpt lat="43.3363987" lon="11.5051741"><ele>320.0</ele><time>2026-04-04T15:47:56.053Z</time></trkpt><trkpt lat="43.3365847" lon="11.5051362"><ele>322.0</ele><time>2026-04-04T15:47:57.053Z</time></trkpt><trkpt lat="43.3367666" lon="11.5051238"><ele>324.0</ele><time>2026-04-04T15:47:58.053Z</time></trkpt><trkpt lat="43.336949" lon="11.50513"><ele>324.0</ele><time>2026-04-04T15:47:59.054Z</time></trkpt><trkpt lat="43.3371277" lon="11.5051624"><ele>324.0</ele><time>2026-04-04T15:48:00.053Z</time></trkpt><trkpt lat="43.337309" lon="11.5052233"><ele>324.0</ele><time>2026-04-04T15:48:01.054Z</time></trkpt><trkpt lat="43.3374965" lon="11.5053177"><ele>325.6666666666667</ele><time>2026-04-04T15:48:02.055Z</time></trkpt><trkpt lat="43.3376975" lon="11.5054295"><ele>327.33333333333337</ele><time>2026-04-04T15:48:03.055Z</time></trkpt><trkpt lat="43.3378917" lon="11.5055562"><ele>329.0</ele><time>2026-04-04T15:48:04.054Z</time></trkpt><trkpt lat="43.3380791" lon="11.5056765"><ele>330.0</ele><time>2026-04-04T15:48:05.055Z</time></trkpt><trkpt lat="43.3382509" lon="11.5057964"><ele>331.0</ele><time>2026-04-04T15:48:06.052Z</time></trkpt><trkpt lat="43.3384221" lon="11.5058644"><ele>332.0</ele><time>2026-04-04T15:48:07.053Z</time></trkpt><trkpt lat="43.3385955" lon="11.505908"><ele>332.0</ele><time>2026-04-04T15:48:08.054Z</time></trkpt><trkpt lat="43.3387818" lon="11.5059315"><ele>332.0</ele><time>2026-04-04T15:48:09.053Z</time></trkpt><trkpt lat="43.3389769" lon="11.5059159"><ele>332.0</ele><time>2026-04-04T15:48:10.054Z</time></trkpt><trkpt lat="43.3391911" lon="11.5058555"><ele>333.33333333333337</ele><time>2026-04-04T15:48:11.053Z</time></trkpt><trkpt lat="43.3394083" lon="11.5057817"><ele>334.6666666666667</ele><time>2026-04-04T15:48:12.054Z</time></trkpt><trkpt lat="43.3396079" lon="11.5057119"><ele>336.0</ele><time>2026-04-04T15:48:13.055Z</time></trkpt><trkpt lat="43.3397834" lon="11.5056477"><ele>336.0</ele><time>2026-04-04T15:48:14.055Z</time></trkpt><trkpt lat="43.3399363" lon="11.5055989"><ele>336.0</ele><time>2026-04-04T15:48:15.053Z</time></trkpt><trkpt lat="43.3400813" lon="11.5055506"><ele>336.0</ele><time>2026-04-04T15:48:16.054Z</time></trkpt><trkpt lat="43.3401918" lon="11.5055113"><ele>336.0</ele><time>2026-04-04T15:48:17.053Z</time></trkpt><trkpt lat="43.3403009" lon="11.5054769"><ele>336.0</ele><time>2026-04-04T15:48:18.053Z</time></trkpt><trkpt lat="43.3403975" lon="11.505439"><ele>336.0</ele><time>2026-04-04T15:48:19.053Z</time></trkpt><trkpt lat="43.3404817" lon="11.5054122"><ele>336.0</ele><time>2026-04-04T15:48:20.054Z</time></trkpt><trkpt lat="43.3405568" lon="11.5053901"><ele>336.0</ele><time>2026-04-04T15:48:21.054Z</time></trkpt><trkpt lat="43.3406342" lon="11.5053917"><ele>336.0</ele><time>2026-04-04T15:48:22.053Z</time></trkpt><trkpt lat="43.3407003" lon="11.5054158"><ele>336.0</ele><time>2026-04-04T15:48:23.052Z</time></trkpt><trkpt lat="43.3407697" lon="11.5054312"><ele>335.8333333333333</ele><time>2026-04-04T15:48:24.054Z</time></trkpt><trkpt lat="43.3408473" lon="11.5054178"><ele>335.6666666666667</ele><time>2026-04-04T15:48:25.054Z</time></trkpt><trkpt lat="43.340911" lon="11.5053614"><ele>335.5</ele><time>2026-04-04T15:48:26.053Z</time></trkpt><trkpt lat="43.3409699" lon="11.5052859"><ele>335.33333333333337</ele><time>2026-04-04T15:48:27.055Z</time></trkpt><trkpt lat="43.3410467" lon="11.5052206"><ele>335.1666666666667</ele><time>2026-04-04T15:48:28.053Z</time></trkpt><trkpt lat="43.3411379" lon="11.5051761"><ele>335.0</ele><time>2026-04-04T15:48:29.054Z</time></trkpt><trkpt lat="43.3412396" lon="11.5051431"><ele>335.0</ele><time>2026-04-04T15:48:30.054Z</time></trkpt><trkpt lat="43.3413421" lon="11.5051202"><ele>335.0</ele><time>2026-04-04T15:48:31.054Z</time></trkpt><trkpt lat="43.3414562" lon="11.5050839"><ele>335.0</ele><time>2026-04-04T15:48:32.053Z</time></trkpt><trkpt lat="43.3415632" lon="11.5050517"><ele>335.0</ele><time>2026-04-04T15:48:33.053Z</time></trkpt><trkpt lat="43.3416584" lon="11.5050349"><ele>335.0</ele><time>2026-04-04T15:48:34.054Z</time></trkpt><trkpt lat="43.3417471" lon="11.5050158"><ele>335.0</ele><time>2026-04-04T15:48:35.054Z</time></trkpt><trkpt lat="43.3418397" lon="11.504996"><ele>335.0</ele><time>2026-04-04T15:48:36.052Z</time></trkpt><trkpt lat="43.3419289" lon="11.5049734"><ele>335.0</ele><time>2026-04-04T15:48:37.053Z</time></trkpt><trkpt lat="43.3420185" lon="11.5049542"><ele>335.0</ele><time>2026-04-04T15:48:38.055Z</time></trkpt><trkpt lat="43.3420965" lon="11.5049408"><ele>335.0</ele><time>2026-04-04T15:48:39.054Z</time></trkpt><trkpt lat="43.3421881" lon="11.5049233"><ele>335.0</ele><time>2026-04-04T15:48:40.053Z</time></trkpt><trkpt lat="43.3422794" lon="11.5049058"><ele>335.6</ele><time>2026-04-04T15:48:41.054Z</time></trkpt><trkpt lat="43.3423865" lon="11.5048876"><ele>336.2</ele><time>2026-04-04T15:48:42.055Z</time></trkpt><trkpt lat="43.3424953" lon="11.5048643"><ele>336.79999999999995</ele><time>2026-04-04T15:48:43.054Z</time></trkpt><trkpt lat="43.3426071" lon="11.5048378"><ele>337.4</ele><time>2026-04-04T15:48:44.054Z</time></trkpt><trkpt lat="43.3427194" lon="11.5048233"><ele>338.0</ele><time>2026-04-04T15:48:45.053Z</time></trkpt><trkpt lat="43.3428217" lon="11.5047978"><ele>338.0</ele><time>2026-04-04T15:48:46.053Z</time></trkpt><trkpt lat="43.3429295" lon="11.5047794"><ele>338.0</ele><time>2026-04-04T15:48:47.054Z</time></trkpt><trkpt lat="43.3430375" lon="11.5047594"><ele>338.0</ele><time>2026-04-04T15:48:48.054Z</time></trkpt><trkpt lat="43.3431486" lon="11.5047412"><ele>338.0</ele><time>2026-04-04T15:48:49.054Z</time></trkpt><trkpt lat="43.3432616" lon="11.5047268"><ele>338.0</ele><time>2026-04-04T15:48:50.053Z</time></trkpt><trkpt lat="43.3433723" lon="11.5047027"><ele>338.0</ele><time>2026-04-04T15:48:51.055Z</time></trkpt><trkpt lat="43.3434809" lon="11.5046792"><ele>338.0</ele><time>2026-04-04T15:48:52.053Z</time></trkpt><trkpt lat="43.3435933" lon="11.5046473"><ele>338.0</ele><time>2026-04-04T15:48:53.052Z</time></trkpt><trkpt lat="43.3437034" lon="11.5046232"><ele>338.0</ele><time>2026-04-04T15:48:54.053Z</time></trkpt><trkpt lat="43.3438194" lon="11.5045988"><ele>337.5</ele><time>2026-04-04T15:48:55.053Z</time></trkpt><trkpt lat="43.3439255" lon="11.5045772"><ele>337.0</ele><time>2026-04-04T15:48:56.052Z</time></trkpt><trkpt lat="43.3440346" lon="11.5045584"><ele>336.5</ele><time>2026-04-04T15:48:57.054Z</time></trkpt><trkpt lat="43.3441579" lon="11.5045328"><ele>336.0</ele><time>2026-04-04T15:48:58.055Z</time></trkpt><trkpt lat="43.3442766" lon="11.5045102"><ele>336.0</ele><time>2026-04-04T15:48:59.053Z</time></trkpt><trkpt lat="43.344384" lon="11.5044882"><ele>336.0</ele><time>2026-04-04T15:49:00.055Z</time></trkpt><trkpt lat="43.3444765" lon="11.5044868"><ele>336.0</ele><time>2026-04-04T15:49:01.054Z</time></trkpt><trkpt lat="43.3445767" lon="11.5044791"><ele>336.0</ele><time>2026-04-04T15:49:02.055Z</time></trkpt><trkpt lat="43.344656" lon="11.5044693"><ele>336.0</ele><time>2026-04-04T15:49:03.054Z</time></trkpt><trkpt lat="43.3447264" lon="11.5044505"><ele>337.4</ele><time>2026-04-04T15:49:04.054Z</time></trkpt><trkpt lat="43.3447917" lon="11.5044109"><ele>338.8</ele><time>2026-04-04T15:49:05.054Z</time></trkpt><trkpt lat="43.3449312" lon="11.5041794"><ele>340.2</ele><time>2026-04-04T15:49:07.053Z</time></trkpt><trkpt lat="43.344947" lon="11.5040854"><ele>341.59999999999997</ele><time>2026-04-04T15:49:08.053Z</time></trkpt><trkpt lat="43.3449959" lon="11.5039868"><ele>343.0</ele><time>2026-04-04T15:49:09.054Z</time></trkpt><trkpt lat="43.3450454" lon="11.5038716"><ele>343.0</ele><time>2026-04-04T15:49:10.056Z</time></trkpt><trkpt lat="43.3450841" lon="11.5037633"><ele>343.0</ele><time>2026-04-04T15:49:11.053Z</time></trkpt><trkpt lat="43.3450739" lon="11.5036402"><ele>343.0</ele><time>2026-04-04T15:49:12.054Z</time></trkpt><trkpt lat="43.3450644" lon="11.5035204"><ele>343.0</ele><time>2026-04-04T15:49:13.053Z</time></trkpt><trkpt lat="43.3450317" lon="11.5034159"><ele>343.0</ele><time>2026-04-04T15:49:14.054Z</time></trkpt><trkpt lat="43.3449951" lon="11.5033049"><ele>343.0</ele><time>2026-04-04T15:49:15.053Z</time></trkpt><trkpt lat="43.3449733" lon="11.5031985"><ele>343.0</ele><time>2026-04-04T15:49:16.053Z</time></trkpt><trkpt lat="43.3449526" lon="11.5030921"><ele>343.0</ele><time>2026-04-04T15:49:17.052Z</time></trkpt><trkpt lat="43.3449491" lon="11.5029775"><ele>343.0</ele><time>2026-04-04T15:49:18.054Z</time></trkpt><trkpt lat="43.3449513" lon="11.5028606"><ele>343.0</ele><time>2026-04-04T15:49:19.052Z</time></trkpt><trkpt lat="43.3449674" lon="11.5027389"><ele>343.0</ele><time>2026-04-04T15:49:20.053Z</time></trkpt><trkpt lat="43.3450143" lon="11.5026007"><ele>343.0</ele><time>2026-04-04T15:49:21.052Z</time></trkpt><trkpt lat="43.3450617" lon="11.5024737"><ele>343.2</ele><time>2026-04-04T15:49:22.054Z</time></trkpt><trkpt lat="43.3451095" lon="11.5023457"><ele>343.4</ele><time>2026-04-04T15:49:23.053Z</time></trkpt><trkpt lat="43.3451487" lon="11.5022138"><ele>343.59999999999997</ele><time>2026-04-04T15:49:24.054Z</time></trkpt><trkpt lat="43.3451937" lon="11.5020799"><ele>343.79999999999995</ele><time>2026-04-04T15:49:25.054Z</time></trkpt><trkpt lat="43.3452364" lon="11.5019506"><ele>344.0</ele><time>2026-04-04T15:49:26.053Z</time></trkpt><trkpt lat="43.3452669" lon="11.5018415"><ele>342.6666666666667</ele><time>2026-04-04T15:49:27.055Z</time></trkpt><trkpt lat="43.3452852" lon="11.5017349"><ele>341.33333333333337</ele><time>2026-04-04T15:49:28.053Z</time></trkpt><trkpt lat="43.3452885" lon="11.5016339"><ele>340.0</ele><time>2026-04-04T15:49:29.055Z</time></trkpt><trkpt lat="43.3452893" lon="11.5015451"><ele>338.6666666666667</ele><time>2026-04-04T15:49:30.055Z</time></trkpt><trkpt lat="43.3452645" lon="11.5013786"><ele>337.3333333333333</ele><time>2026-04-04T15:49:32.055Z</time></trkpt><trkpt lat="43.3452333" lon="11.5012909"><ele>336.0</ele><time>2026-04-04T15:49:33.054Z</time></trkpt><trkpt lat="43.3451967" lon="11.5012015"><ele>335.8333333333333</ele><time>2026-04-04T15:49:34.054Z</time></trkpt><trkpt lat="43.3451464" lon="11.5010867"><ele>335.6666666666667</ele><time>2026-04-04T15:49:35.053Z</time></trkpt><trkpt lat="43.3451016" lon="11.5009815"><ele>335.5</ele><time>2026-04-04T15:49:36.054Z</time></trkpt><trkpt lat="43.3450507" lon="11.5008839"><ele>335.33333333333337</ele><time>2026-04-04T15:49:37.054Z</time></trkpt><trkpt lat="43.3450088" lon="11.5008036"><ele>335.1666666666667</ele><time>2026-04-04T15:49:38.053Z</time></trkpt><trkpt lat="43.3450208" lon="11.5006647"><ele>335.0</ele><time>2026-04-04T15:49:40.052Z</time></trkpt><trkpt lat="43.3450721" lon="11.5005848"><ele>335.0</ele><time>2026-04-04T15:49:42.053Z</time></trkpt><trkpt lat="43.345078" lon="11.5004688"><ele>335.0</ele><time>2026-04-04T15:49:46.053Z</time></trkpt><trkpt lat="43.3450018" lon="11.5003517"><ele>335.0</ele><time>2026-04-04T15:49:48.053Z</time></trkpt><trkpt lat="43.3449757" lon="11.5002376"><ele>335.0</ele><time>2026-04-04T15:49:49.055Z</time></trkpt><trkpt lat="43.3449447" lon="11.5001427"><ele>335.0</ele><time>2026-04-04T15:49:50.052Z</time></trkpt><trkpt lat="43.3449032" lon="11.5000495"><ele>335.0</ele><time>2026-04-04T15:49:51.055Z</time></trkpt><trkpt lat="43.3448507" lon="11.4999018"><ele>335.0</ele><time>2026-04-04T15:49:52.055Z</time></trkpt><trkpt lat="43.3448087" lon="11.4997874"><ele>335.0</ele><time>2026-04-04T15:49:53.054Z</time></trkpt><trkpt lat="43.3447658" lon="11.4996566"><ele>335.0</ele><time>2026-04-04T15:49:54.053Z</time></trkpt><trkpt lat="43.3446909" lon="11.4995348"><ele>335.0</ele><time>2026-04-04T15:49:55.054Z</time></trkpt><trkpt lat="43.3446311" lon="11.4994274"><ele>335.0</ele><time>2026-04-04T15:49:56.055Z</time></trkpt><trkpt lat="43.3445719" lon="11.4992996"><ele>335.2</ele><time>2026-04-04T15:49:57.052Z</time></trkpt><trkpt lat="43.3445352" lon="11.4991739"><ele>335.4</ele><time>2026-04-04T15:49:58.052Z</time></trkpt><trkpt lat="43.344495" lon="11.4990292"><ele>335.6</ele><time>2026-04-04T15:49:59.053Z</time></trkpt><trkpt lat="43.3444507" lon="11.4988936"><ele>335.8</ele><time>2026-04-04T15:50:00.053Z</time></trkpt><trkpt lat="43.3444084" lon="11.4987431"><ele>336.0</ele><time>2026-04-04T15:50:01.053Z</time></trkpt><trkpt lat="43.3443632" lon="11.4985956"><ele>336.20000000000005</ele><time>2026-04-04T15:50:02.053Z</time></trkpt><trkpt lat="43.3443185" lon="11.4984572"><ele>336.40000000000003</ele><time>2026-04-04T15:50:03.053Z</time></trkpt><trkpt lat="43.3442743" lon="11.4983219"><ele>336.6</ele><time>2026-04-04T15:50:04.053Z</time></trkpt><trkpt lat="43.3442422" lon="11.4981782"><ele>336.8</ele><time>2026-04-04T15:50:05.053Z</time></trkpt><trkpt lat="43.3442016" lon="11.4980437"><ele>337.0</ele><time>2026-04-04T15:50:06.054Z</time></trkpt><trkpt lat="43.3441455" lon="11.4978975"><ele>337.0</ele><time>2026-04-04T15:50:07.054Z</time></trkpt><trkpt lat="43.344098" lon="11.4977566"><ele>337.0</ele><time>2026-04-04T15:50:08.054Z</time></trkpt><trkpt lat="43.3440453" lon="11.4976224"><ele>337.0</ele><time>2026-04-04T15:50:09.053Z</time></trkpt><trkpt lat="43.3440034" lon="11.4974993"><ele>337.0</ele><time>2026-04-04T15:50:10.053Z</time></trkpt><trkpt lat="43.3439607" lon="11.4973884"><ele>337.0</ele><time>2026-04-04T15:50:11.054Z</time></trkpt><trkpt lat="43.3439273" lon="11.4972959"><ele>337.0</ele><time>2026-04-04T15:50:12.054Z</time></trkpt><trkpt lat="43.3438847" lon="11.4972009"><ele>337.0</ele><time>2026-04-04T15:50:13.053Z</time></trkpt><trkpt lat="43.3438555" lon="11.4970912"><ele>337.0</ele><time>2026-04-04T15:50:14.053Z</time></trkpt><trkpt lat="43.3437978" lon="11.4970152"><ele>337.0</ele><time>2026-04-04T15:50:15.052Z</time></trkpt><trkpt lat="43.3437457" lon="11.4969301"><ele>337.0</ele><time>2026-04-04T15:50:16.053Z</time></trkpt><trkpt lat="43.3436819" lon="11.4968398"><ele>337.0</ele><time>2026-04-04T15:50:17.053Z</time></trkpt><trkpt lat="43.343621" lon="11.4967562"><ele>336.5</ele><time>2026-04-04T15:50:18.054Z</time></trkpt><trkpt lat="43.3435519" lon="11.4966837"><ele>336.0</ele><time>2026-04-04T15:50:19.055Z</time></trkpt><trkpt lat="43.3434862" lon="11.4966015"><ele>335.5</ele><time>2026-04-04T15:50:20.054Z</time></trkpt><trkpt lat="43.3434073" lon="11.4965226"><ele>335.0</ele><time>2026-04-04T15:50:21.053Z</time></trkpt><trkpt lat="43.3433592" lon="11.4964582"><ele>334.5</ele><time>2026-04-04T15:50:22.052Z</time></trkpt><trkpt lat="43.3433086" lon="11.4964043"><ele>334.0</ele><time>2026-04-04T15:50:23.053Z</time></trkpt><trkpt lat="43.3432636" lon="11.4963424"><ele>334.0</ele><time>2026-04-04T15:50:24.052Z</time></trkpt><trkpt lat="43.34321" lon="11.4962762"><ele>334.0</ele><time>2026-04-04T15:50:25.054Z</time></trkpt><trkpt lat="43.3431481" lon="11.4962039"><ele>334.0</ele><time>2026-04-04T15:50:26.052Z</time></trkpt><trkpt lat="43.3430729" lon="11.4961159"><ele>334.0</ele><time>2026-04-04T15:50:27.053Z</time></trkpt><trkpt lat="43.3429842" lon="11.4960339"><ele>334.0</ele><time>2026-04-04T15:50:28.054Z</time></trkpt><trkpt lat="43.3428949" lon="11.4959188"><ele>333.0</ele><time>2026-04-04T15:50:29.054Z</time></trkpt><trkpt lat="43.342792" lon="11.4957955"><ele>332.0</ele><time>2026-04-04T15:50:30.054Z</time></trkpt><trkpt lat="43.3426704" lon="11.495658"><ele>331.0</ele><time>2026-04-04T15:50:31.055Z</time></trkpt><trkpt lat="43.342532" lon="11.4955081"><ele>328.3333333333333</ele><time>2026-04-04T15:50:32.052Z</time></trkpt><trkpt lat="43.3423677" lon="11.4953246"><ele>325.6666666666667</ele><time>2026-04-04T15:50:33.053Z</time></trkpt><trkpt lat="43.3422064" lon="11.4951146"><ele>323.0</ele><time>2026-04-04T15:50:34.053Z</time></trkpt><trkpt lat="43.3420172" lon="11.4948882"><ele>319.5</ele><time>2026-04-04T15:50:35.052Z</time></trkpt><trkpt lat="43.3418136" lon="11.4946424"><ele>316.0</ele><time>2026-04-04T15:50:36.052Z</time></trkpt><trkpt lat="43.3416189" lon="11.4944076"><ele>314.5</ele><time>2026-04-04T15:50:37.052Z</time></trkpt><trkpt lat="43.3414373" lon="11.4941977"><ele>313.0</ele><time>2026-04-04T15:50:38.053Z</time></trkpt><trkpt lat="43.3412624" lon="11.4939824"><ele>312.0</ele><time>2026-04-04T15:50:39.053Z</time></trkpt><trkpt lat="43.3410947" lon="11.4937834"><ele>311.0</ele><time>2026-04-04T15:50:40.053Z</time></trkpt><trkpt lat="43.340933" lon="11.4935879"><ele>310.0</ele><time>2026-04-04T15:50:41.054Z</time></trkpt><trkpt lat="43.3407851" lon="11.4934155"><ele>310.0</ele><time>2026-04-04T15:50:42.054Z</time></trkpt><trkpt lat="43.3406473" lon="11.4932456"><ele>310.0</ele><time>2026-04-04T15:50:43.053Z</time></trkpt><trkpt lat="43.3405056" lon="11.4930684"><ele>310.0</ele><time>2026-04-04T15:50:44.052Z</time></trkpt><trkpt lat="43.3403617" lon="11.4928923"><ele>310.3333333333333</ele><time>2026-04-04T15:50:45.053Z</time></trkpt><trkpt lat="43.3402259" lon="11.4927078"><ele>310.6666666666667</ele><time>2026-04-04T15:50:46.052Z</time></trkpt><trkpt lat="43.3401029" lon="11.4925261"><ele>311.0</ele><time>2026-04-04T15:50:47.054Z</time></trkpt><trkpt lat="43.3399711" lon="11.4923429"><ele>311.0</ele><time>2026-04-04T15:50:48.054Z</time></trkpt><trkpt lat="43.3398439" lon="11.4921592"><ele>311.0</ele><time>2026-04-04T15:50:49.054Z</time></trkpt><trkpt lat="43.33972" lon="11.4919676"><ele>311.0</ele><time>2026-04-04T15:50:50.053Z</time></trkpt><trkpt lat="43.3395929" lon="11.4917872"><ele>309.6666666666667</ele><time>2026-04-04T15:50:51.054Z</time></trkpt><trkpt lat="43.3394637" lon="11.4915969"><ele>308.3333333333333</ele><time>2026-04-04T15:50:52.053Z</time></trkpt><trkpt lat="43.3393379" lon="11.4914034"><ele>307.0</ele><time>2026-04-04T15:50:53.052Z</time></trkpt><trkpt lat="43.3392052" lon="11.4911965"><ele>306.66666666666663</ele><time>2026-04-04T15:50:54.053Z</time></trkpt><trkpt lat="43.3390564" lon="11.4910007"><ele>306.3333333333333</ele><time>2026-04-04T15:50:55.052Z</time></trkpt><trkpt lat="43.3389014" lon="11.4908238"><ele>306.0</ele><time>2026-04-04T15:50:56.052Z</time></trkpt><trkpt lat="43.3387309" lon="11.4906432"><ele>304.5</ele><time>2026-04-04T15:50:57.052Z</time></trkpt><trkpt lat="43.338544" lon="11.4904347"><ele>303.0</ele><time>2026-04-04T15:50:58.052Z</time></trkpt><trkpt lat="43.338351" lon="11.4902258"><ele>303.0</ele><time>2026-04-04T15:50:59.052Z</time></trkpt><trkpt lat="43.3381668" lon="11.4900284"><ele>303.0</ele><time>2026-04-04T15:51:00.052Z</time></trkpt><trkpt lat="43.337993" lon="11.4898531"><ele>303.0</ele><time>2026-04-04T15:51:01.052Z</time></trkpt><trkpt lat="43.3378259" lon="11.4896838"><ele>301.0</ele><time>2026-04-04T15:51:02.052Z</time></trkpt><trkpt lat="43.3376689" lon="11.4895249"><ele>299.0</ele><time>2026-04-04T15:51:03.053Z</time></trkpt><trkpt lat="43.3375291" lon="11.4893766"><ele>297.0</ele><time>2026-04-04T15:51:04.053Z</time></trkpt><trkpt lat="43.3373994" lon="11.4892438"><ele>297.0</ele><time>2026-04-04T15:51:05.054Z</time></trkpt><trkpt lat="43.3372651" lon="11.4891112"><ele>297.0</ele><time>2026-04-04T15:51:06.052Z</time></trkpt><trkpt lat="43.3371173" lon="11.4889927"><ele>297.0</ele><time>2026-04-04T15:51:07.053Z</time></trkpt><trkpt lat="43.3369573" lon="11.4888724"><ele>297.6666666666667</ele><time>2026-04-04T15:51:08.052Z</time></trkpt><trkpt lat="43.3367935" lon="11.488776"><ele>298.33333333333337</ele><time>2026-04-04T15:51:09.053Z</time></trkpt><trkpt lat="43.3366376" lon="11.4886699"><ele>299.0</ele><time>2026-04-04T15:51:10.052Z</time></trkpt><trkpt lat="43.3365" lon="11.4885427"><ele>299.0</ele><time>2026-04-04T15:51:11.054Z</time></trkpt><trkpt lat="43.3363917" lon="11.4883844"><ele>299.0</ele><time>2026-04-04T15:51:12.053Z</time></trkpt><trkpt lat="43.3362907" lon="11.4882181"><ele>299.0</ele><time>2026-04-04T15:51:13.053Z</time></trkpt><trkpt lat="43.3361727" lon="11.4880367"><ele>296.33333333333337</ele><time>2026-04-04T15:51:14.054Z</time></trkpt><trkpt lat="43.3360331" lon="11.4878578"><ele>293.6666666666667</ele><time>2026-04-04T15:51:15.054Z</time></trkpt><trkpt lat="43.3358963" lon="11.4876907"><ele>291.0</ele><time>2026-04-04T15:51:16.053Z</time></trkpt><trkpt lat="43.3357621" lon="11.4875202"><ele>291.0</ele><time>2026-04-04T15:51:17.053Z</time></trkpt><trkpt lat="43.3356386" lon="11.4873272"><ele>291.0</ele><time>2026-04-04T15:51:18.054Z</time></trkpt><trkpt lat="43.3355269" lon="11.4871013"><ele>291.0</ele><time>2026-04-04T15:51:19.053Z</time></trkpt><trkpt lat="43.3354178" lon="11.4868673"><ele>292.0</ele><time>2026-04-04T15:51:20.053Z</time></trkpt><trkpt lat="43.3353247" lon="11.4866374"><ele>293.0</ele><time>2026-04-04T15:51:21.054Z</time></trkpt><trkpt lat="43.3352355" lon="11.4864296"><ele>294.0</ele><time>2026-04-04T15:51:22.052Z</time></trkpt><trkpt lat="43.3351482" lon="11.4862185"><ele>291.0</ele><time>2026-04-04T15:51:23.052Z</time></trkpt><trkpt lat="43.3350728" lon="11.4860054"><ele>288.0</ele><time>2026-04-04T15:51:24.054Z</time></trkpt><trkpt lat="43.3350082" lon="11.4857674"><ele>285.0</ele><time>2026-04-04T15:51:25.052Z</time></trkpt><trkpt lat="43.3349571" lon="11.4854895"><ele>283.0</ele><time>2026-04-04T15:51:26.052Z</time></trkpt><trkpt lat="43.3349115" lon="11.485186"><ele>281.0</ele><time>2026-04-04T15:51:27.053Z</time></trkpt><trkpt lat="43.334871" lon="11.4848852"><ele>279.0</ele><time>2026-04-04T15:51:28.052Z</time></trkpt><trkpt lat="43.3348366" lon="11.4846021"><ele>277.6666666666667</ele><time>2026-04-04T15:51:29.054Z</time></trkpt><trkpt lat="43.3348064" lon="11.4843359"><ele>276.33333333333337</ele><time>2026-04-04T15:51:30.053Z</time></trkpt><trkpt lat="43.3347813" lon="11.4840764"><ele>275.0</ele><time>2026-04-04T15:51:31.052Z</time></trkpt><trkpt lat="43.3347586" lon="11.4838246"><ele>274.6666666666667</ele><time>2026-04-04T15:51:32.053Z</time></trkpt><trkpt lat="43.3347358" lon="11.4835907"><ele>274.3333333333333</ele><time>2026-04-04T15:51:33.053Z</time></trkpt><trkpt lat="43.3347182" lon="11.4833528"><ele>274.0</ele><time>2026-04-04T15:51:34.052Z</time></trkpt><trkpt lat="43.3346972" lon="11.4831303"><ele>275.75</ele><time>2026-04-04T15:51:35.052Z</time></trkpt><trkpt lat="43.3346747" lon="11.4829172"><ele>277.5</ele><time>2026-04-04T15:51:36.053Z</time></trkpt><trkpt lat="43.3346482" lon="11.4827243"><ele>279.25</ele><time>2026-04-04T15:51:37.052Z</time></trkpt><trkpt lat="43.3346172" lon="11.48254"><ele>281.0</ele><time>2026-04-04T15:51:38.053Z</time></trkpt><trkpt lat="43.3346083" lon="11.4823486"><ele>281.0</ele><time>2026-04-04T15:51:39.053Z</time></trkpt><trkpt lat="43.3346122" lon="11.4821878"><ele>281.0</ele><time>2026-04-04T15:51:40.053Z</time></trkpt><trkpt lat="43.3346477" lon="11.4819998"><ele>281.0</ele><time>2026-04-04T15:51:41.053Z</time></trkpt><trkpt lat="43.3347126" lon="11.4818137"><ele>281.0</ele><time>2026-04-04T15:51:42.053Z</time></trkpt><trkpt lat="43.3347966" lon="11.481627"><ele>280.33333333333337</ele><time>2026-04-04T15:51:43.053Z</time></trkpt><trkpt lat="43.3349155" lon="11.4814185"><ele>279.6666666666667</ele><time>2026-04-04T15:51:44.051Z</time></trkpt><trkpt lat="43.3350195" lon="11.4812266"><ele>279.0</ele><time>2026-04-04T15:51:45.054Z</time></trkpt><trkpt lat="43.3351251" lon="11.4810515"><ele>279.0</ele><time>2026-04-04T15:51:46.051Z</time></trkpt><trkpt lat="43.3352206" lon="11.4808969"><ele>279.0</ele><time>2026-04-04T15:51:47.053Z</time></trkpt><trkpt lat="43.3353091" lon="11.4807585"><ele>279.0</ele><time>2026-04-04T15:51:48.052Z</time></trkpt><trkpt lat="43.3353826" lon="11.4806307"><ele>279.0</ele><time>2026-04-04T15:51:49.053Z</time></trkpt><trkpt lat="43.3354343" lon="11.4805585"><ele>279.0</ele><time>2026-04-04T15:51:50.053Z</time></trkpt><trkpt lat="43.3354935" lon="11.4804948"><ele>279.0</ele><time>2026-04-04T15:51:51.053Z</time></trkpt><trkpt lat="43.3355575" lon="11.4804314"><ele>279.0</ele><time>2026-04-04T15:51:52.053Z</time></trkpt><trkpt lat="43.3356226" lon="11.4803776"><ele>279.0</ele><time>2026-04-04T15:51:53.053Z</time></trkpt><trkpt lat="43.3356826" lon="11.4803178"><ele>279.0</ele><time>2026-04-04T15:51:54.052Z</time></trkpt><trkpt lat="43.3357669" lon="11.4802337"><ele>279.0</ele><time>2026-04-04T15:51:55.054Z</time></trkpt><trkpt lat="43.3358568" lon="11.4801716"><ele>279.25</ele><time>2026-04-04T15:51:56.053Z</time></trkpt><trkpt lat="43.3359553" lon="11.4800747"><ele>279.5</ele><time>2026-04-04T15:51:57.052Z</time></trkpt><trkpt lat="43.3360984" lon="11.4799623"><ele>279.75</ele><time>2026-04-04T15:51:58.053Z</time></trkpt><trkpt lat="43.336207" lon="11.4798509"><ele>280.0</ele><time>2026-04-04T15:51:59.051Z</time></trkpt><trkpt lat="43.3363412" lon="11.4797479"><ele>279.0</ele><time>2026-04-04T15:52:00.053Z</time></trkpt><trkpt lat="43.3364623" lon="11.4796389"><ele>278.0</ele><time>2026-04-04T15:52:01.051Z</time></trkpt><trkpt lat="43.3365847" lon="11.4795374"><ele>277.0</ele><time>2026-04-04T15:52:02.051Z</time></trkpt><trkpt lat="43.3367029" lon="11.4794285"><ele>276.0</ele><time>2026-04-04T15:52:03.052Z</time></trkpt><trkpt lat="43.3368578" lon="11.4793511"><ele>276.0</ele><time>2026-04-04T15:52:04.052Z</time></trkpt><trkpt lat="43.3370121" lon="11.4792955"><ele>276.0</ele><time>2026-04-04T15:52:05.054Z</time></trkpt><trkpt lat="43.3371712" lon="11.4792706"><ele>276.0</ele><time>2026-04-04T15:52:06.052Z</time></trkpt><trkpt lat="43.3373272" lon="11.4792648"><ele>275.5</ele><time>2026-04-04T15:52:07.052Z</time></trkpt><trkpt lat="43.3374717" lon="11.4792554"><ele>275.0</ele><time>2026-04-04T15:52:08.052Z</time></trkpt><trkpt lat="43.337603" lon="11.4792389"><ele>274.5</ele><time>2026-04-04T15:52:09.054Z</time></trkpt><trkpt lat="43.3377035" lon="11.4792129"><ele>274.0</ele><time>2026-04-04T15:52:10.053Z</time></trkpt><trkpt lat="43.3377878" lon="11.4791784"><ele>274.0</ele><time>2026-04-04T15:52:11.053Z</time></trkpt><trkpt lat="43.3378625" lon="11.479089"><ele>274.0</ele><time>2026-04-04T15:52:12.053Z</time></trkpt><trkpt lat="43.3379141" lon="11.4789908"><ele>274.0</ele><time>2026-04-04T15:52:13.053Z</time></trkpt><trkpt lat="43.3379402" lon="11.4788793"><ele>274.0</ele><time>2026-04-04T15:52:14.053Z</time></trkpt><trkpt lat="43.3379372" lon="11.478739"><ele>274.0</ele><time>2026-04-04T15:52:15.052Z</time></trkpt><trkpt lat="43.3379194" lon="11.4785485"><ele>273.0</ele><time>2026-04-04T15:52:16.052Z</time></trkpt><trkpt lat="43.3378635" lon="11.4783503"><ele>272.0</ele><time>2026-04-04T15:52:17.052Z</time></trkpt><trkpt lat="43.3378099" lon="11.4781102"><ele>271.0</ele><time>2026-04-04T15:52:18.054Z</time></trkpt><trkpt lat="43.3377558" lon="11.4778458"><ele>269.3333333333333</ele><time>2026-04-04T15:52:19.054Z</time></trkpt><trkpt lat="43.3377085" lon="11.4775805"><ele>267.6666666666667</ele><time>2026-04-04T15:52:20.051Z</time></trkpt><trkpt lat="43.3376517" lon="11.4773287"><ele>266.0</ele><time>2026-04-04T15:52:21.053Z</time></trkpt><trkpt lat="43.3376027" lon="11.4770997"><ele>265.0</ele><time>2026-04-04T15:52:22.052Z</time></trkpt><trkpt lat="43.3375662" lon="11.4768865"><ele>264.0</ele><time>2026-04-04T15:52:23.053Z</time></trkpt><trkpt lat="43.33756" lon="11.4766622"><ele>263.0</ele><time>2026-04-04T15:52:24.053Z</time></trkpt><trkpt lat="43.3375432" lon="11.4764554"><ele>262.33333333333337</ele><time>2026-04-04T15:52:25.052Z</time></trkpt><trkpt lat="43.3375387" lon="11.4762083"><ele>261.6666666666667</ele><time>2026-04-04T15:52:26.054Z</time></trkpt><trkpt lat="43.3375311" lon="11.4759771"><ele>261.0</ele><time>2026-04-04T15:52:27.053Z</time></trkpt><trkpt lat="43.337549" lon="11.4757238"><ele>257.0</ele><time>2026-04-04T15:52:28.054Z</time></trkpt><trkpt lat="43.3376811" lon="11.4753769"><ele>253.0</ele><time>2026-04-04T15:52:29.054Z</time></trkpt><trkpt lat="43.3379058" lon="11.4742819"><ele>252.0</ele><time>2026-04-04T15:52:32.741Z</time></trkpt><trkpt lat="43.3379726" lon="11.4741206"><ele>251.0</ele><time>2026-04-04T15:52:33.74Z</time></trkpt><trkpt lat="43.3381156" lon="11.4739064"><ele>250.0</ele><time>2026-04-04T15:52:34.742Z</time></trkpt><trkpt lat="43.3381968" lon="11.4737978"><ele>250.0</ele><time>2026-04-04T15:52:35.742Z</time></trkpt><trkpt lat="43.3380501" lon="11.4737284"><ele>250.0</ele><time>2026-04-04T15:52:36.741Z</time></trkpt><trkpt lat="43.3385006" lon="11.4737987"><ele>250.0</ele><time>2026-04-04T15:52:38.053Z</time></trkpt><trkpt lat="43.3386787" lon="11.4737756"><ele>250.0</ele><time>2026-04-04T15:52:39.053Z</time></trkpt><trkpt lat="43.3388407" lon="11.4737484"><ele>250.0</ele><time>2026-04-04T15:52:40.053Z</time></trkpt><trkpt lat="43.3389755" lon="11.4736729"><ele>246.75</ele><time>2026-04-04T15:52:41.052Z</time></trkpt><trkpt lat="43.33909" lon="11.4735869"><ele>243.5</ele><time>2026-04-04T15:52:42.054Z</time></trkpt><trkpt lat="43.3391832" lon="11.4734705"><ele>240.25</ele><time>2026-04-04T15:52:43.053Z</time></trkpt><trkpt lat="43.3392704" lon="11.4733492"><ele>237.0</ele><time>2026-04-04T15:52:44.053Z</time></trkpt><trkpt lat="43.3393661" lon="11.4732213"><ele>237.0</ele><time>2026-04-04T15:52:45.053Z</time></trkpt><trkpt lat="43.3394676" lon="11.4730922"><ele>237.0</ele><time>2026-04-04T15:52:46.052Z</time></trkpt><trkpt lat="43.3395539" lon="11.4729419"><ele>237.0</ele><time>2026-04-04T15:52:47.052Z</time></trkpt><trkpt lat="43.3396394" lon="11.4727797"><ele>237.0</ele><time>2026-04-04T15:52:48.053Z</time></trkpt><trkpt lat="43.3397257" lon="11.4726217"><ele>235.25</ele><time>2026-04-04T15:52:49.054Z</time></trkpt><trkpt lat="43.3398116" lon="11.4724776"><ele>233.5</ele><time>2026-04-04T15:52:50.054Z</time></trkpt><trkpt lat="43.3398871" lon="11.4723344"><ele>231.75</ele><time>2026-04-04T15:52:51.053Z</time></trkpt><trkpt lat="43.3399579" lon="11.4722013"><ele>230.0</ele><time>2026-04-04T15:52:52.052Z</time></trkpt><trkpt lat="43.3400171" lon="11.4720675"><ele>230.0</ele><time>2026-04-04T15:52:53.052Z</time></trkpt><trkpt lat="43.3400659" lon="11.4719248"><ele>230.0</ele><time>2026-04-04T15:52:54.053Z</time></trkpt><trkpt lat="43.3400959" lon="11.4717629"><ele>230.0</ele><time>2026-04-04T15:52:55.054Z</time></trkpt><trkpt lat="43.3401128" lon="11.4715886"><ele>230.0</ele><time>2026-04-04T15:52:56.052Z</time></trkpt><trkpt lat="43.3401121" lon="11.4714049"><ele>231.0</ele><time>2026-04-04T15:52:57.051Z</time></trkpt><trkpt lat="43.3400775" lon="11.4711979"><ele>232.0</ele><time>2026-04-04T15:52:58.053Z</time></trkpt><trkpt lat="43.3400245" lon="11.4709961"><ele>233.0</ele><time>2026-04-04T15:52:59.053Z</time></trkpt><trkpt lat="43.3399653" lon="11.4708156"><ele>233.0</ele><time>2026-04-04T15:53:00.053Z</time></trkpt><trkpt lat="43.3399195" lon="11.4706451"><ele>233.0</ele><time>2026-04-04T15:53:01.052Z</time></trkpt><trkpt lat="43.3398744" lon="11.4704756"><ele>233.0</ele><time>2026-04-04T15:53:02.051Z</time></trkpt><trkpt lat="43.3398581" lon="11.4703329"><ele>233.0</ele><time>2026-04-04T15:53:03.054Z</time></trkpt><trkpt lat="43.3398887" lon="11.4701763"><ele>232.75</ele><time>2026-04-04T15:53:04.052Z</time></trkpt><trkpt lat="43.3398984" lon="11.470025"><ele>232.5</ele><time>2026-04-04T15:53:05.051Z</time></trkpt><trkpt lat="43.3399488" lon="11.4698818"><ele>232.25</ele><time>2026-04-04T15:53:06.054Z</time></trkpt><trkpt lat="43.34001" lon="11.4697386"><ele>232.0</ele><time>2026-04-04T15:53:07.052Z</time></trkpt><trkpt lat="43.3400766" lon="11.4696021"><ele>232.0</ele><time>2026-04-04T15:53:08.051Z</time></trkpt><trkpt lat="43.3401468" lon="11.469476"><ele>232.0</ele><time>2026-04-04T15:53:09.052Z</time></trkpt><trkpt lat="43.3402412" lon="11.4693537"><ele>232.0</ele><time>2026-04-04T15:53:10.051Z</time></trkpt><trkpt lat="43.3403434" lon="11.4692474"><ele>232.0</ele><time>2026-04-04T15:53:11.053Z</time></trkpt><trkpt lat="43.3404571" lon="11.4691813"><ele>233.5</ele><time>2026-04-04T15:53:12.053Z</time></trkpt><trkpt lat="43.3405669" lon="11.4691619"><ele>235.0</ele><time>2026-04-04T15:53:13.053Z</time></trkpt><trkpt lat="43.3407274" lon="11.4692331"><ele>236.5</ele><time>2026-04-04T15:53:14.051Z</time></trkpt><trkpt lat="43.3408554" lon="11.4692831"><ele>238.0</ele><time>2026-04-04T15:53:15.052Z</time></trkpt><trkpt lat="43.3409755" lon="11.4693283"><ele>238.0</ele><time>2026-04-04T15:53:16.051Z</time></trkpt><trkpt lat="43.3410837" lon="11.4693905"><ele>238.0</ele><time>2026-04-04T15:53:17.052Z</time></trkpt><trkpt lat="43.3411852" lon="11.4694225"><ele>238.0</ele><time>2026-04-04T15:53:18.052Z</time></trkpt><trkpt lat="43.3412741" lon="11.469419"><ele>238.0</ele><time>2026-04-04T15:53:19.053Z</time></trkpt><trkpt lat="43.3413652" lon="11.469395"><ele>238.0</ele><time>2026-04-04T15:53:20.052Z</time></trkpt><trkpt lat="43.3414504" lon="11.4693655"><ele>238.66666666666666</ele><time>2026-04-04T15:53:21.053Z</time></trkpt><trkpt lat="43.3415317" lon="11.4693124"><ele>239.33333333333331</ele><time>2026-04-04T15:53:22.051Z</time></trkpt><trkpt lat="43.3416136" lon="11.4692592"><ele>240.0</ele><time>2026-04-04T15:53:23.052Z</time></trkpt><trkpt lat="43.3416917" lon="11.4691815"><ele>240.66666666666669</ele><time>2026-04-04T15:53:24.051Z</time></trkpt><trkpt lat="43.3417498" lon="11.4691093"><ele>241.33333333333334</ele><time>2026-04-04T15:53:25.052Z</time></trkpt><trkpt lat="43.3418" lon="11.469006"><ele>242.0</ele><time>2026-04-04T15:53:26.053Z</time></trkpt><trkpt lat="43.3418454" lon="11.4688896"><ele>241.8</ele><time>2026-04-04T15:53:27.053Z</time></trkpt><trkpt lat="43.3418685" lon="11.4687621"><ele>241.6</ele><time>2026-04-04T15:53:28.052Z</time></trkpt><trkpt lat="43.3418742" lon="11.4686295"><ele>241.40000000000003</ele><time>2026-04-04T15:53:29.052Z</time></trkpt><trkpt lat="43.3418788" lon="11.4684884"><ele>241.20000000000002</ele><time>2026-04-04T15:53:30.053Z</time></trkpt><trkpt lat="43.3418774" lon="11.468349"><ele>241.0</ele><time>2026-04-04T15:53:31.053Z</time></trkpt><trkpt lat="43.341881" lon="11.4682002"><ele>241.0</ele><time>2026-04-04T15:53:32.053Z</time></trkpt><trkpt lat="43.3418792" lon="11.4680605"><ele>241.00000000000003</ele><time>2026-04-04T15:53:33.052Z</time></trkpt><trkpt lat="43.3418687" lon="11.4679267"><ele>241.00000000000003</ele><time>2026-04-04T15:53:34.052Z</time></trkpt><trkpt lat="43.3418562" lon="11.4677985"><ele>241.0</ele><time>2026-04-04T15:53:35.053Z</time></trkpt><trkpt lat="43.341856" lon="11.4676305"><ele>241.0</ele><time>2026-04-04T15:53:36.052Z</time></trkpt><trkpt lat="43.3418553" lon="11.4674724"><ele>242.20000000000002</ele><time>2026-04-04T15:53:37.053Z</time></trkpt><trkpt lat="43.341846" lon="11.4673277"><ele>243.40000000000003</ele><time>2026-04-04T15:53:38.052Z</time></trkpt><trkpt lat="43.3418376" lon="11.4671824"><ele>244.6</ele><time>2026-04-04T15:53:39.052Z</time></trkpt><trkpt lat="43.3418349" lon="11.4670321"><ele>245.8</ele><time>2026-04-04T15:53:40.054Z</time></trkpt><trkpt lat="43.3418385" lon="11.4668675"><ele>247.0</ele><time>2026-04-04T15:53:41.052Z</time></trkpt><trkpt lat="43.3418355" lon="11.4667091"><ele>248.5</ele><time>2026-04-04T15:53:42.051Z</time></trkpt><trkpt lat="43.3418108" lon="11.4665583"><ele>250.0</ele><time>2026-04-04T15:53:43.053Z</time></trkpt><trkpt lat="43.3417708" lon="11.4663974"><ele>251.5</ele><time>2026-04-04T15:53:44.052Z</time></trkpt><trkpt lat="43.3417262" lon="11.4662412"><ele>253.0</ele><time>2026-04-04T15:53:45.053Z</time></trkpt><trkpt lat="43.3416708" lon="11.4660777"><ele>253.5</ele><time>2026-04-04T15:53:46.053Z</time></trkpt><trkpt lat="43.3416059" lon="11.4659293"><ele>254.0</ele><time>2026-04-04T15:53:47.052Z</time></trkpt><trkpt lat="43.3415419" lon="11.4657664"><ele>254.5</ele><time>2026-04-04T15:53:48.052Z</time></trkpt><trkpt lat="43.3414903" lon="11.465612"><ele>255.0</ele><time>2026-04-04T15:53:49.052Z</time></trkpt><trkpt lat="43.3414643" lon="11.4654565"><ele>255.4</ele><time>2026-04-04T15:53:50.052Z</time></trkpt><trkpt lat="43.3414738" lon="11.4653059"><ele>255.8</ele><time>2026-04-04T15:53:51.052Z</time></trkpt><trkpt lat="43.341514" lon="11.46517"><ele>256.2</ele><time>2026-04-04T15:53:52.052Z</time></trkpt><trkpt lat="43.3415914" lon="11.4650599"><ele>256.6</ele><time>2026-04-04T15:53:53.053Z</time></trkpt><trkpt lat="43.3416856" lon="11.4649794"><ele>257.0</ele><time>2026-04-04T15:53:54.052Z</time></trkpt><trkpt lat="43.3417939" lon="11.4649439"><ele>257.0</ele><time>2026-04-04T15:53:55.053Z</time></trkpt><trkpt lat="43.3419119" lon="11.4649586"><ele>257.0</ele><time>2026-04-04T15:53:56.053Z</time></trkpt><trkpt lat="43.3420167" lon="11.4650214"><ele>257.0</ele><time>2026-04-04T15:53:57.052Z</time></trkpt><trkpt lat="43.3421133" lon="11.4651173"><ele>257.0</ele><time>2026-04-04T15:53:58.053Z</time></trkpt><trkpt lat="43.3422103" lon="11.4652232"><ele>257.75</ele><time>2026-04-04T15:53:59.052Z</time></trkpt><trkpt lat="43.3423082" lon="11.4653284"><ele>258.5</ele><time>2026-04-04T15:54:00.052Z</time></trkpt><trkpt lat="43.3424064" lon="11.4654595"><ele>259.25</ele><time>2026-04-04T15:54:01.053Z</time></trkpt><trkpt lat="43.342521" lon="11.4655728"><ele>260.0</ele><time>2026-04-04T15:54:02.053Z</time></trkpt><trkpt lat="43.3426458" lon="11.4656447"><ele>260.0</ele><time>2026-04-04T15:54:03.051Z</time></trkpt><trkpt lat="43.3427568" lon="11.4656801"><ele>260.0</ele><time>2026-04-04T15:54:04.053Z</time></trkpt><trkpt lat="43.3428844" lon="11.4656572"><ele>260.0</ele><time>2026-04-04T15:54:05.053Z</time></trkpt><trkpt lat="43.3430176" lon="11.4656028"><ele>260.0</ele><time>2026-04-04T15:54:06.051Z</time></trkpt><trkpt lat="43.3431561" lon="11.4655183"><ele>261.6666666666667</ele><time>2026-04-04T15:54:07.052Z</time></trkpt><trkpt lat="43.3432979" lon="11.4654407"><ele>263.3333333333333</ele><time>2026-04-04T15:54:08.053Z</time></trkpt><trkpt lat="43.3434556" lon="11.465398"><ele>265.0</ele><time>2026-04-04T15:54:09.052Z</time></trkpt><trkpt lat="43.3436262" lon="11.4654043"><ele>265.0</ele><time>2026-04-04T15:54:10.052Z</time></trkpt><trkpt lat="43.3438189" lon="11.4654355"><ele>265.0</ele><time>2026-04-04T15:54:11.05Z</time></trkpt><trkpt lat="43.3440241" lon="11.4654799"><ele>265.0</ele><time>2026-04-04T15:54:12.052Z</time></trkpt><trkpt lat="43.344222" lon="11.4655181"><ele>264.66666666666663</ele><time>2026-04-04T15:54:13.052Z</time></trkpt><trkpt lat="43.3443999" lon="11.4655646"><ele>264.3333333333333</ele><time>2026-04-04T15:54:14.052Z</time></trkpt><trkpt lat="43.3445658" lon="11.4656026"><ele>264.0</ele><time>2026-04-04T15:54:15.053Z</time></trkpt><trkpt lat="43.3447201" lon="11.4656322"><ele>266.0</ele><time>2026-04-04T15:54:16.051Z</time></trkpt><trkpt lat="43.3448586" lon="11.4656717"><ele>268.0</ele><time>2026-04-04T15:54:17.052Z</time></trkpt><trkpt lat="43.3449825" lon="11.4657247"><ele>270.0</ele><time>2026-04-04T15:54:18.053Z</time></trkpt><trkpt lat="43.3450894" lon="11.4657872"><ele>272.0</ele><time>2026-04-04T15:54:19.051Z</time></trkpt><trkpt lat="43.3451828" lon="11.4658376"><ele>272.0</ele><time>2026-04-04T15:54:20.052Z</time></trkpt><trkpt lat="43.3452626" lon="11.4658904"><ele>272.0</ele><time>2026-04-04T15:54:21.052Z</time></trkpt><trkpt lat="43.3453337" lon="11.4659409"><ele>272.0</ele><time>2026-04-04T15:54:22.052Z</time></trkpt><trkpt lat="43.3454027" lon="11.4659855"><ele>272.0</ele><time>2026-04-04T15:54:23.052Z</time></trkpt><trkpt lat="43.3454757" lon="11.4660134"><ele>272.0</ele><time>2026-04-04T15:54:24.053Z</time></trkpt><trkpt lat="43.3455549" lon="11.466031"><ele>272.0</ele><time>2026-04-04T15:54:25.052Z</time></trkpt><trkpt lat="43.3456349" lon="11.4660287"><ele>273.0</ele><time>2026-04-04T15:54:26.053Z</time></trkpt><trkpt lat="43.3457185" lon="11.4660113"><ele>274.0</ele><time>2026-04-04T15:54:27.051Z</time></trkpt><trkpt lat="43.3458128" lon="11.4659884"><ele>275.0</ele><time>2026-04-04T15:54:28.051Z</time></trkpt><trkpt lat="43.3459137" lon="11.4659671"><ele>276.0</ele><time>2026-04-04T15:54:29.053Z</time></trkpt><trkpt lat="43.3460333" lon="11.4659411"><ele>277.0</ele><time>2026-04-04T15:54:30.052Z</time></trkpt><trkpt lat="43.346165" lon="11.4659293"><ele>277.0</ele><time>2026-04-04T15:54:31.05Z</time></trkpt><trkpt lat="43.3462986" lon="11.4659327"><ele>277.0</ele><time>2026-04-04T15:54:32.053Z</time></trkpt><trkpt lat="43.3464372" lon="11.4659375"><ele>277.0</ele><time>2026-04-04T15:54:33.052Z</time></trkpt><trkpt lat="43.3465676" lon="11.4659179"><ele>277.0</ele><time>2026-04-04T15:54:34.052Z</time></trkpt><trkpt lat="43.3466935" lon="11.4658836"><ele>276.75</ele><time>2026-04-04T15:54:35.051Z</time></trkpt><trkpt lat="43.346802" lon="11.4658082"><ele>276.5</ele><time>2026-04-04T15:54:36.052Z</time></trkpt><trkpt lat="43.3469004" lon="11.4657149"><ele>276.25</ele><time>2026-04-04T15:54:37.052Z</time></trkpt><trkpt lat="43.3469862" lon="11.4656091"><ele>276.0</ele><time>2026-04-04T15:54:38.053Z</time></trkpt><trkpt lat="43.347072" lon="11.4655071"><ele>275.25</ele><time>2026-04-04T15:54:39.051Z</time></trkpt><trkpt lat="43.3471542" lon="11.4653887"><ele>274.5</ele><time>2026-04-04T15:54:40.052Z</time></trkpt><trkpt lat="43.3472386" lon="11.4652775"><ele>273.75</ele><time>2026-04-04T15:54:41.052Z</time></trkpt><trkpt lat="43.3473098" lon="11.4651571"><ele>273.0</ele><time>2026-04-04T15:54:42.053Z</time></trkpt><trkpt lat="43.3473889" lon="11.4650411"><ele>273.8</ele><time>2026-04-04T15:54:43.052Z</time></trkpt><trkpt lat="43.3474691" lon="11.4649312"><ele>274.6</ele><time>2026-04-04T15:54:44.053Z</time></trkpt><trkpt lat="43.3475465" lon="11.4648304"><ele>275.4</ele><time>2026-04-04T15:54:45.052Z</time></trkpt><trkpt lat="43.3476225" lon="11.4647318"><ele>276.2</ele><time>2026-04-04T15:54:46.051Z</time></trkpt><trkpt lat="43.3477125" lon="11.4646464"><ele>277.0</ele><time>2026-04-04T15:54:47.052Z</time></trkpt><trkpt lat="43.3478106" lon="11.4645801"><ele>277.0</ele><time>2026-04-04T15:54:48.053Z</time></trkpt><trkpt lat="43.3479187" lon="11.464555"><ele>277.0</ele><time>2026-04-04T15:54:49.053Z</time></trkpt><trkpt lat="43.3480363" lon="11.4645195"><ele>277.0</ele><time>2026-04-04T15:54:50.053Z</time></trkpt><trkpt lat="43.3481597" lon="11.4645005"><ele>277.0</ele><time>2026-04-04T15:54:51.051Z</time></trkpt><trkpt lat="43.3482905" lon="11.4644897"><ele>278.8</ele><time>2026-04-04T15:54:52.051Z</time></trkpt><trkpt lat="43.3484177" lon="11.4644828"><ele>280.6</ele><time>2026-04-04T15:54:53.05Z</time></trkpt><trkpt lat="43.3485246" lon="11.4644731"><ele>282.40000000000003</ele><time>2026-04-04T15:54:54.052Z</time></trkpt><trkpt lat="43.3486334" lon="11.4644658"><ele>284.2</ele><time>2026-04-04T15:54:55.052Z</time></trkpt><trkpt lat="43.3487276" lon="11.4644601"><ele>286.0</ele><time>2026-04-04T15:54:56.052Z</time></trkpt><trkpt lat="43.3488314" lon="11.4644635"><ele>287.2</ele><time>2026-04-04T15:54:57.052Z</time></trkpt><trkpt lat="43.3489313" lon="11.4644972"><ele>288.40000000000003</ele><time>2026-04-04T15:54:58.051Z</time></trkpt><trkpt lat="43.3490325" lon="11.4645354"><ele>289.6</ele><time>2026-04-04T15:54:59.053Z</time></trkpt><trkpt lat="43.3491303" lon="11.4646133"><ele>290.8</ele><time>2026-04-04T15:55:00.054Z</time></trkpt><trkpt lat="43.3492202" lon="11.464704"><ele>292.0</ele><time>2026-04-04T15:55:01.052Z</time></trkpt><trkpt lat="43.349313" lon="11.4647895"><ele>294.4</ele><time>2026-04-04T15:55:02.052Z</time></trkpt><trkpt lat="43.3494" lon="11.4648775"><ele>296.79999999999995</ele><time>2026-04-04T15:55:03.052Z</time></trkpt><trkpt lat="43.3494941" lon="11.4649792"><ele>299.2</ele><time>2026-04-04T15:55:04.052Z</time></trkpt><trkpt lat="43.3495776" lon="11.4650255"><ele>301.59999999999997</ele><time>2026-04-04T15:55:05.053Z</time></trkpt><trkpt lat="43.3496564" lon="11.4650245"><ele>304.0</ele><time>2026-04-04T15:55:06.052Z</time></trkpt><trkpt lat="43.3497507" lon="11.4650308"><ele>303.59999999999997</ele><time>2026-04-04T15:55:07.052Z</time></trkpt><trkpt lat="43.3498199" lon="11.4649979"><ele>303.2</ele><time>2026-04-04T15:55:08.051Z</time></trkpt><trkpt lat="43.349907" lon="11.4649501"><ele>302.79999999999995</ele><time>2026-04-04T15:55:09.052Z</time></trkpt><trkpt lat="43.3499858" lon="11.4648023"><ele>302.4</ele><time>2026-04-04T15:55:10.052Z</time></trkpt><trkpt lat="43.350034" lon="11.4646425"><ele>302.0</ele><time>2026-04-04T15:55:11.052Z</time></trkpt><trkpt lat="43.3500757" lon="11.4644876"><ele>302.0</ele><time>2026-04-04T15:55:12.05Z</time></trkpt><trkpt lat="43.3501092" lon="11.4643297"><ele>302.0</ele><time>2026-04-04T15:55:13.052Z</time></trkpt><trkpt lat="43.3501622" lon="11.464197"><ele>302.0</ele><time>2026-04-04T15:55:14.051Z</time></trkpt><trkpt lat="43.3502389" lon="11.4640735"><ele>302.0</ele><time>2026-04-04T15:55:15.052Z</time></trkpt><trkpt lat="43.350332" lon="11.4639809"><ele>302.0</ele><time>2026-04-04T15:55:16.052Z</time></trkpt><trkpt lat="43.3504255" lon="11.4638821"><ele>302.0</ele><time>2026-04-04T15:55:17.053Z</time></trkpt><trkpt lat="43.350497" lon="11.463786"><ele>302.0</ele><time>2026-04-04T15:55:18.052Z</time></trkpt><trkpt lat="43.3505487" lon="11.4636679"><ele>302.0</ele><time>2026-04-04T15:55:19.051Z</time></trkpt><trkpt lat="43.3505636" lon="11.4635403"><ele>302.0</ele><time>2026-04-04T15:55:20.052Z</time></trkpt><trkpt lat="43.350551" lon="11.4634221"><ele>301.4</ele><time>2026-04-04T15:55:21.052Z</time></trkpt><trkpt lat="43.3505269" lon="11.46329"><ele>300.79999999999995</ele><time>2026-04-04T15:55:22.053Z</time></trkpt><trkpt lat="43.3504707" lon="11.4631885"><ele>300.2</ele><time>2026-04-04T15:55:23.052Z</time></trkpt><trkpt lat="43.3503829" lon="11.4630694"><ele>299.59999999999997</ele><time>2026-04-04T15:55:24.051Z</time></trkpt><trkpt lat="43.3503001" lon="11.4629545"><ele>299.0</ele><time>2026-04-04T15:55:25.053Z</time></trkpt><trkpt lat="43.350231" lon="11.4628613"><ele>300.33333333333337</ele><time>2026-04-04T15:55:26.052Z</time></trkpt><trkpt lat="43.35018" lon="11.4627542"><ele>301.6666666666667</ele><time>2026-04-04T15:55:27.052Z</time></trkpt><trkpt lat="43.3501726" lon="11.4626619"><ele>303.0</ele><time>2026-04-04T15:55:28.052Z</time></trkpt><trkpt lat="43.3501738" lon="11.46257"><ele>304.3333333333333</ele><time>2026-04-04T15:55:29.052Z</time></trkpt><trkpt lat="43.3502303" lon="11.4624913"><ele>305.66666666666663</ele><time>2026-04-04T15:55:30.052Z</time></trkpt><trkpt lat="43.350304" lon="11.462445"><ele>307.0</ele><time>2026-04-04T15:55:31.051Z</time></trkpt><trkpt lat="43.3504089" lon="11.4623941"><ele>307.0</ele><time>2026-04-04T15:55:32.05Z</time></trkpt><trkpt lat="43.3505327" lon="11.4623471"><ele>307.0</ele><time>2026-04-04T15:55:33.052Z</time></trkpt><trkpt lat="43.350675" lon="11.462286"><ele>307.0</ele><time>2026-04-04T15:55:34.052Z</time></trkpt><trkpt lat="43.3508154" lon="11.4621915"><ele>307.0</ele><time>2026-04-04T15:55:35.052Z</time></trkpt><trkpt lat="43.3509524" lon="11.4620977"><ele>307.0</ele><time>2026-04-04T15:55:36.05Z</time></trkpt><trkpt lat="43.351076" lon="11.4620061"><ele>307.0</ele><time>2026-04-04T15:55:37.053Z</time></trkpt><trkpt lat="43.3511935" lon="11.4619242"><ele>307.0</ele><time>2026-04-04T15:55:38.052Z</time></trkpt><trkpt lat="43.3512988" lon="11.461858"><ele>307.0</ele><time>2026-04-04T15:55:39.051Z</time></trkpt><trkpt lat="43.3514076" lon="11.4618059"><ele>308.2</ele><time>2026-04-04T15:55:40.051Z</time></trkpt><trkpt lat="43.3515103" lon="11.4617921"><ele>309.4</ele><time>2026-04-04T15:55:41.052Z</time></trkpt><trkpt lat="43.3516151" lon="11.4617989"><ele>310.6</ele><time>2026-04-04T15:55:42.052Z</time></trkpt><trkpt lat="43.3517191" lon="11.4618502"><ele>311.8</ele><time>2026-04-04T15:55:43.052Z</time></trkpt><trkpt lat="43.3518237" lon="11.4618766"><ele>313.0</ele><time>2026-04-04T15:55:44.051Z</time></trkpt><trkpt lat="43.351937" lon="11.4618977"><ele>313.0</ele><time>2026-04-04T15:55:45.051Z</time></trkpt><trkpt lat="43.3520487" lon="11.4618208"><ele>313.0</ele><time>2026-04-04T15:55:46.053Z</time></trkpt><trkpt lat="43.3521665" lon="11.4617885"><ele>313.0</ele><time>2026-04-04T15:55:47.052Z</time></trkpt><trkpt lat="43.3522893" lon="11.4617178"><ele>313.0</ele><time>2026-04-04T15:55:48.051Z</time></trkpt><trkpt lat="43.3524102" lon="11.4616642"><ele>313.8</ele><time>2026-04-04T15:55:49.052Z</time></trkpt><trkpt lat="43.3525324" lon="11.4616041"><ele>314.6</ele><time>2026-04-04T15:55:50.051Z</time></trkpt><trkpt lat="43.3526526" lon="11.4615737"><ele>315.4</ele><time>2026-04-04T15:55:51.054Z</time></trkpt><trkpt lat="43.3527022" lon="11.461505"><ele>316.2</ele><time>2026-04-04T15:55:52.052Z</time></trkpt><trkpt lat="43.3527709" lon="11.4614649"><ele>317.0</ele><time>2026-04-04T15:55:53.05Z</time></trkpt><trkpt lat="43.352886" lon="11.4614044"><ele>317.0</ele><time>2026-04-04T15:55:54.051Z</time></trkpt><trkpt lat="43.3528891" lon="11.4612898"><ele>317.0</ele><time>2026-04-04T15:55:55.052Z</time></trkpt><trkpt lat="43.3529412" lon="11.4608238"><ele>317.0</ele><time>2026-04-04T15:55:58.742Z</time></trkpt><trkpt lat="43.3530191" lon="11.4607619"><ele>316.0</ele><time>2026-04-04T15:55:59.741Z</time></trkpt><trkpt lat="43.3532051" lon="11.4606169"><ele>315.0</ele><time>2026-04-04T15:56:02.051Z</time></trkpt><trkpt lat="43.3533226" lon="11.4606154"><ele>314.0</ele><time>2026-04-04T15:56:03.052Z</time></trkpt><trkpt lat="43.3534314" lon="11.4606071"><ele>313.0</ele><time>2026-04-04T15:56:04.051Z</time></trkpt><trkpt lat="43.3535394" lon="11.4605852"><ele>313.0</ele><time>2026-04-04T15:56:05.051Z</time></trkpt><trkpt lat="43.3536557" lon="11.4605708"><ele>313.0</ele><time>2026-04-04T15:56:06.051Z</time></trkpt><trkpt lat="43.3537589" lon="11.4605317"><ele>313.0</ele><time>2026-04-04T15:56:07.051Z</time></trkpt><trkpt lat="43.3538293" lon="11.4604584"><ele>313.0</ele><time>2026-04-04T15:56:08.051Z</time></trkpt><trkpt lat="43.3538402" lon="11.4602746"><ele>313.0</ele><time>2026-04-04T15:56:10.051Z</time></trkpt><trkpt lat="43.3538045" lon="11.4600642"><ele>309.5</ele><time>2026-04-04T15:56:11.051Z</time></trkpt><trkpt lat="43.3537568" lon="11.4599309"><ele>306.0</ele><time>2026-04-04T15:56:12.05Z</time></trkpt><trkpt lat="43.3535753" lon="11.4599081"><ele>302.5</ele><time>2026-04-04T15:56:13.051Z</time></trkpt><trkpt lat="43.3535168" lon="11.4598164"><ele>299.0</ele><time>2026-04-04T15:56:14.052Z</time></trkpt><trkpt lat="43.3534239" lon="11.4597168"><ele>299.0</ele><time>2026-04-04T15:56:15.05Z</time></trkpt><trkpt lat="43.3533427" lon="11.4595712"><ele>299.0</ele><time>2026-04-04T15:56:16.051Z</time></trkpt><trkpt lat="43.3532598" lon="11.4594792"><ele>299.0</ele><time>2026-04-04T15:56:17.052Z</time></trkpt><trkpt lat="43.3531677" lon="11.4593739"><ele>299.0</ele><time>2026-04-04T15:56:18.052Z</time></trkpt><trkpt lat="43.3530787" lon="11.4592554"><ele>294.0</ele><time>2026-04-04T15:56:19.052Z</time></trkpt><trkpt lat="43.3529954" lon="11.4590471"><ele>289.0</ele><time>2026-04-04T15:56:20.052Z</time></trkpt><trkpt lat="43.3529115" lon="11.4588836"><ele>284.0</ele><time>2026-04-04T15:56:21.051Z</time></trkpt><trkpt lat="43.3528269" lon="11.4586904"><ele>284.0</ele><time>2026-04-04T15:56:22.051Z</time></trkpt><trkpt lat="43.3527463" lon="11.4584752"><ele>284.0</ele><time>2026-04-04T15:56:23.052Z</time></trkpt><trkpt lat="43.3526605" lon="11.4582679"><ele>284.0</ele><time>2026-04-04T15:56:24.051Z</time></trkpt><trkpt lat="43.3525836" lon="11.4580691"><ele>283.6666666666667</ele><time>2026-04-04T15:56:25.052Z</time></trkpt><trkpt lat="43.3525173" lon="11.4578619"><ele>283.3333333333333</ele><time>2026-04-04T15:56:26.052Z</time></trkpt><trkpt lat="43.3524409" lon="11.4576608"><ele>283.0</ele><time>2026-04-04T15:56:27.05Z</time></trkpt><trkpt lat="43.3523693" lon="11.4574699"><ele>283.0</ele><time>2026-04-04T15:56:28.051Z</time></trkpt><trkpt lat="43.3523306" lon="11.4572791"><ele>283.0</ele><time>2026-04-04T15:56:29.051Z</time></trkpt><trkpt lat="43.3523096" lon="11.4571066"><ele>283.0</ele><time>2026-04-04T15:56:30.051Z</time></trkpt><trkpt lat="43.3522588" lon="11.4569447"><ele>283.0</ele><time>2026-04-04T15:56:31.052Z</time></trkpt><trkpt lat="43.3522323" lon="11.4567779"><ele>281.6</ele><time>2026-04-04T15:56:32.05Z</time></trkpt><trkpt lat="43.3522181" lon="11.456623"><ele>280.20000000000005</ele><time>2026-04-04T15:56:33.052Z</time></trkpt><trkpt lat="43.3522346" lon="11.4564892"><ele>278.8</ele><time>2026-04-04T15:56:34.052Z</time></trkpt><trkpt lat="43.352289" lon="11.4563422"><ele>277.40000000000003</ele><time>2026-04-04T15:56:35.051Z</time></trkpt><trkpt lat="43.3523599" lon="11.4562161"><ele>276.0</ele><time>2026-04-04T15:56:36.051Z</time></trkpt><trkpt lat="43.3524418" lon="11.4561441"><ele>274.40000000000003</ele><time>2026-04-04T15:56:37.051Z</time></trkpt><trkpt lat="43.3525357" lon="11.4561175"><ele>272.8</ele><time>2026-04-04T15:56:38.053Z</time></trkpt><trkpt lat="43.3526405" lon="11.4561319"><ele>271.20000000000005</ele><time>2026-04-04T15:56:39.051Z</time></trkpt><trkpt lat="43.3527475" lon="11.4561517"><ele>269.6</ele><time>2026-04-04T15:56:40.05Z</time></trkpt><trkpt lat="43.3528423" lon="11.456149"><ele>268.0</ele><time>2026-04-04T15:56:41.051Z</time></trkpt><trkpt lat="43.3529416" lon="11.4561112"><ele>268.0</ele><time>2026-04-04T15:56:42.052Z</time></trkpt><trkpt lat="43.3530349" lon="11.4560388"><ele>268.0</ele><time>2026-04-04T15:56:43.052Z</time></trkpt><trkpt lat="43.3531057" lon="11.455932"><ele>268.0</ele><time>2026-04-04T15:56:44.051Z</time></trkpt><trkpt lat="43.3531665" lon="11.4557997"><ele>268.0</ele><time>2026-04-04T15:56:45.052Z</time></trkpt><trkpt lat="43.3532236" lon="11.4556431"><ele>268.0</ele><time>2026-04-04T15:56:46.051Z</time></trkpt><trkpt lat="43.3532778" lon="11.4554885"><ele>268.0</ele><time>2026-04-04T15:56:47.052Z</time></trkpt><trkpt lat="43.3533332" lon="11.4553397"><ele>268.0</ele><time>2026-04-04T15:56:48.052Z</time></trkpt><trkpt lat="43.3533992" lon="11.4552189"><ele>268.0</ele><time>2026-04-04T15:56:49.051Z</time></trkpt><trkpt lat="43.3534772" lon="11.4551262"><ele>266.6</ele><time>2026-04-04T15:56:50.052Z</time></trkpt><trkpt lat="43.3535701" lon="11.4551007"><ele>265.20000000000005</ele><time>2026-04-04T15:56:51.052Z</time></trkpt><trkpt lat="43.3536628" lon="11.4550997"><ele>263.8</ele><time>2026-04-04T15:56:52.052Z</time></trkpt><trkpt lat="43.3537279" lon="11.4551957"><ele>262.40000000000003</ele><time>2026-04-04T15:56:53.052Z</time></trkpt><trkpt lat="43.3537996" lon="11.4552934"><ele>261.0</ele><time>2026-04-04T15:56:54.052Z</time></trkpt><trkpt lat="43.3538814" lon="11.4554018"><ele>261.0</ele><time>2026-04-04T15:56:55.051Z</time></trkpt><trkpt lat="43.353939" lon="11.4554829"><ele>261.0</ele><time>2026-04-04T15:56:56.052Z</time></trkpt><trkpt lat="43.3540027" lon="11.455546"><ele>261.0</ele><time>2026-04-04T15:56:57.051Z</time></trkpt><trkpt lat="43.3540712" lon="11.4555853"><ele>261.0</ele><time>2026-04-04T15:56:58.051Z</time></trkpt><trkpt lat="43.3541434" lon="11.455551"><ele>261.0</ele><time>2026-04-04T15:56:59.051Z</time></trkpt><trkpt lat="43.3541584" lon="11.4554"><ele>261.0</ele><time>2026-04-04T15:57:01.051Z</time></trkpt><trkpt lat="43.3541327" lon="11.4552262"><ele>261.0</ele><time>2026-04-04T15:57:03.052Z</time></trkpt><trkpt lat="43.3541061" lon="11.455115"><ele>261.0</ele><time>2026-04-04T15:57:04.052Z</time></trkpt><trkpt lat="43.3540741" lon="11.4549985"><ele>261.0</ele><time>2026-04-04T15:57:05.052Z</time></trkpt><trkpt lat="43.3540395" lon="11.454809"><ele>261.0</ele><time>2026-04-04T15:57:06.053Z</time></trkpt><trkpt lat="43.35398" lon="11.4546242"><ele>258.6666666666667</ele><time>2026-04-04T15:57:07.051Z</time></trkpt><trkpt lat="43.3539242" lon="11.4544057"><ele>256.33333333333337</ele><time>2026-04-04T15:57:08.051Z</time></trkpt><trkpt lat="43.3538583" lon="11.4541829"><ele>254.0</ele><time>2026-04-04T15:57:09.051Z</time></trkpt><trkpt lat="43.3537625" lon="11.4539667"><ele>252.66666666666669</ele><time>2026-04-04T15:57:10.05Z</time></trkpt><trkpt lat="43.353652" lon="11.4537626"><ele>251.33333333333331</ele><time>2026-04-04T15:57:11.051Z</time></trkpt><trkpt lat="43.3535444" lon="11.4535411"><ele>250.0</ele><time>2026-04-04T15:57:12.051Z</time></trkpt><trkpt lat="43.3534333" lon="11.4533433"><ele>250.0</ele><time>2026-04-04T15:57:13.051Z</time></trkpt><trkpt lat="43.3533231" lon="11.4531711"><ele>250.0</ele><time>2026-04-04T15:57:14.051Z</time></trkpt><trkpt lat="43.3532039" lon="11.4530191"><ele>250.0</ele><time>2026-04-04T15:57:15.051Z</time></trkpt><trkpt lat="43.3531011" lon="11.4528494"><ele>247.0</ele><time>2026-04-04T15:57:16.052Z</time></trkpt><trkpt lat="43.3530028" lon="11.4527037"><ele>244.0</ele><time>2026-04-04T15:57:17.052Z</time></trkpt><trkpt lat="43.3529104" lon="11.4525371"><ele>241.0</ele><time>2026-04-04T15:57:18.05Z</time></trkpt><trkpt lat="43.3528348" lon="11.4523589"><ele>238.0</ele><time>2026-04-04T15:57:19.051Z</time></trkpt><trkpt lat="43.3527746" lon="11.4521786"><ele>235.66666666666666</ele><time>2026-04-04T15:57:20.052Z</time></trkpt><trkpt lat="43.3527281" lon="11.4519872"><ele>233.33333333333331</ele><time>2026-04-04T15:57:21.051Z</time></trkpt><trkpt lat="43.3526965" lon="11.4517805"><ele>231.0</ele><time>2026-04-04T15:57:22.051Z</time></trkpt><trkpt lat="43.3527013" lon="11.4515372"><ele>229.66666666666669</ele><time>2026-04-04T15:57:23.051Z</time></trkpt><trkpt lat="43.3527291" lon="11.4512737"><ele>228.33333333333334</ele><time>2026-04-04T15:57:24.051Z</time></trkpt><trkpt lat="43.3527545" lon="11.4509901"><ele>227.0</ele><time>2026-04-04T15:57:25.05Z</time></trkpt><trkpt lat="43.3527998" lon="11.4507215"><ele>227.0</ele><time>2026-04-04T15:57:26.052Z</time></trkpt><trkpt lat="43.3528239" lon="11.4504715"><ele>227.0</ele><time>2026-04-04T15:57:27.051Z</time></trkpt><trkpt lat="43.3528531" lon="11.4502185"><ele>227.0</ele><time>2026-04-04T15:57:28.05Z</time></trkpt><trkpt lat="43.3528779" lon="11.4499956"><ele>226.75</ele><time>2026-04-04T15:57:29.051Z</time></trkpt><trkpt lat="43.3528957" lon="11.4498043"><ele>226.5</ele><time>2026-04-04T15:57:30.052Z</time></trkpt><trkpt lat="43.3528953" lon="11.4496339"><ele>226.25</ele><time>2026-04-04T15:57:31.05Z</time></trkpt><trkpt lat="43.3528686" lon="11.449466"><ele>226.0</ele><time>2026-04-04T15:57:32.05Z</time></trkpt><trkpt lat="43.3528137" lon="11.449307"><ele>227.5</ele><time>2026-04-04T15:57:33.052Z</time></trkpt><trkpt lat="43.3527264" lon="11.4491718"><ele>229.0</ele><time>2026-04-04T15:57:34.051Z</time></trkpt><trkpt lat="43.3526053" lon="11.4490549"><ele>230.5</ele><time>2026-04-04T15:57:35.051Z</time></trkpt><trkpt lat="43.3524634" lon="11.4489367"><ele>232.0</ele><time>2026-04-04T15:57:36.052Z</time></trkpt><trkpt lat="43.3523145" lon="11.4488305"><ele>232.5</ele><time>2026-04-04T15:57:37.052Z</time></trkpt><trkpt lat="43.3521791" lon="11.4487281"><ele>233.0</ele><time>2026-04-04T15:57:38.051Z</time></trkpt><trkpt lat="43.3520781" lon="11.4486258"><ele>233.5</ele><time>2026-04-04T15:57:39.052Z</time></trkpt><trkpt lat="43.3519989" lon="11.4485132"><ele>234.0</ele><time>2026-04-04T15:57:40.051Z</time></trkpt><trkpt lat="43.3519413" lon="11.4483764"><ele>234.0</ele><time>2026-04-04T15:57:41.052Z</time></trkpt><trkpt lat="43.3519002" lon="11.4482154"><ele>234.0</ele><time>2026-04-04T15:57:42.05Z</time></trkpt><trkpt lat="43.3518688" lon="11.4480103"><ele>234.0</ele><time>2026-04-04T15:57:43.051Z</time></trkpt><trkpt lat="43.351858" lon="11.4477771"><ele>234.0</ele><time>2026-04-04T15:57:44.05Z</time></trkpt><trkpt lat="43.3518549" lon="11.4475232"><ele>234.0</ele><time>2026-04-04T15:57:45.051Z</time></trkpt><trkpt lat="43.3518466" lon="11.4472729"><ele>234.0</ele><time>2026-04-04T15:57:46.051Z</time></trkpt><trkpt lat="43.351833" lon="11.4470414"><ele>234.0</ele><time>2026-04-04T15:57:47.051Z</time></trkpt><trkpt lat="43.3518312" lon="11.446837"><ele>234.25</ele><time>2026-04-04T15:57:48.05Z</time></trkpt><trkpt lat="43.3518336" lon="11.4466441"><ele>234.5</ele><time>2026-04-04T15:57:49.052Z</time></trkpt><trkpt lat="43.3518287" lon="11.446457"><ele>234.75</ele><time>2026-04-04T15:57:50.05Z</time></trkpt><trkpt lat="43.3518259" lon="11.4462795"><ele>235.0</ele><time>2026-04-04T15:57:51.052Z</time></trkpt><trkpt lat="43.3518271" lon="11.446091"><ele>236.25</ele><time>2026-04-04T15:57:52.051Z</time></trkpt><trkpt lat="43.3518244" lon="11.4459264"><ele>237.5</ele><time>2026-04-04T15:57:53.051Z</time></trkpt><trkpt lat="43.3518277" lon="11.4457418"><ele>238.75</ele><time>2026-04-04T15:57:54.051Z</time></trkpt><trkpt lat="43.3518192" lon="11.445582"><ele>240.0</ele><time>2026-04-04T15:57:55.05Z</time></trkpt><trkpt lat="43.351811" lon="11.4454108"><ele>240.8</ele><time>2026-04-04T15:57:56.052Z</time></trkpt><trkpt lat="43.3518073" lon="11.4452455"><ele>241.6</ele><time>2026-04-04T15:57:57.05Z</time></trkpt><trkpt lat="43.3517977" lon="11.4450963"><ele>242.39999999999998</ele><time>2026-04-04T15:57:58.049Z</time></trkpt><trkpt lat="43.3517708" lon="11.4449482"><ele>243.2</ele><time>2026-04-04T15:57:59.051Z</time></trkpt><trkpt lat="43.3517469" lon="11.4448147"><ele>244.0</ele><time>2026-04-04T15:58:00.051Z</time></trkpt><trkpt lat="43.3517237" lon="11.4447017"><ele>244.33333333333331</ele><time>2026-04-04T15:58:01.051Z</time></trkpt><trkpt lat="43.3517044" lon="11.4446073"><ele>244.66666666666666</ele><time>2026-04-04T15:58:02.05Z</time></trkpt><trkpt lat="43.3516868" lon="11.4444711"><ele>245.0</ele><time>2026-04-04T15:58:04.05Z</time></trkpt><trkpt lat="43.3516811" lon="11.444371"><ele>245.33333333333331</ele><time>2026-04-04T15:58:07.05Z</time></trkpt><trkpt lat="43.3516346" lon="11.444283"><ele>245.66666666666666</ele><time>2026-04-04T16:00:19.049Z</time></trkpt><trkpt lat="43.351611" lon="11.4441453"><ele>246.0</ele><time>2026-04-04T16:00:21.05Z</time></trkpt><trkpt lat="43.3515957" lon="11.444048"><ele>246.0</ele><time>2026-04-04T16:00:22.05Z</time></trkpt><trkpt lat="43.3515872" lon="11.4439358"><ele>246.0</ele><time>2026-04-04T16:00:23.05Z</time></trkpt><trkpt lat="43.3515696" lon="11.4438418"><ele>246.0</ele><time>2026-04-04T16:00:24.05Z</time></trkpt><trkpt lat="43.3515695" lon="11.4437309"><ele>246.0</ele><time>2026-04-04T16:00:25.051Z</time></trkpt><trkpt lat="43.3515773" lon="11.4436148"><ele>246.0</ele><time>2026-04-04T16:00:26.05Z</time></trkpt><trkpt lat="43.3515994" lon="11.4435007"><ele>246.0</ele><time>2026-04-04T16:00:27.05Z</time></trkpt><trkpt lat="43.3516389" lon="11.4433894"><ele>244.60000000000002</ele><time>2026-04-04T16:00:28.05Z</time></trkpt><trkpt lat="43.3516986" lon="11.4432965"><ele>243.20000000000002</ele><time>2026-04-04T16:00:29.049Z</time></trkpt><trkpt lat="43.3517799" lon="11.4432159"><ele>241.79999999999998</ele><time>2026-04-04T16:00:30.051Z</time></trkpt><trkpt lat="43.3518714" lon="11.443159"><ele>240.39999999999998</ele><time>2026-04-04T16:00:31.05Z</time></trkpt><trkpt lat="43.3519658" lon="11.443116"><ele>239.0</ele><time>2026-04-04T16:00:32.05Z</time></trkpt><trkpt lat="43.352064" lon="11.4430758"><ele>239.0</ele><time>2026-04-04T16:00:33.051Z</time></trkpt><trkpt lat="43.3521781" lon="11.4430355"><ele>239.0</ele><time>2026-04-04T16:00:34.049Z</time></trkpt><trkpt lat="43.3522995" lon="11.4429978"><ele>239.0</ele><time>2026-04-04T16:00:35.049Z</time></trkpt><trkpt lat="43.3524205" lon="11.442962"><ele>239.0</ele><time>2026-04-04T16:00:36.05Z</time></trkpt><trkpt lat="43.3525361" lon="11.4429185"><ele>237.6</ele><time>2026-04-04T16:00:37.05Z</time></trkpt><trkpt lat="43.3526429" lon="11.4428691"><ele>236.2</ele><time>2026-04-04T16:00:38.05Z</time></trkpt><trkpt lat="43.352731" lon="11.4427893"><ele>234.79999999999998</ele><time>2026-04-04T16:00:39.051Z</time></trkpt><trkpt lat="43.3527994" lon="11.4426869"><ele>233.39999999999998</ele><time>2026-04-04T16:00:40.05Z</time></trkpt><trkpt lat="43.3528406" lon="11.4425664"><ele>232.0</ele><time>2026-04-04T16:00:41.049Z</time></trkpt><trkpt lat="43.3528643" lon="11.4424163"><ele>232.0</ele><time>2026-04-04T16:00:42.05Z</time></trkpt><trkpt lat="43.3528431" lon="11.4422626"><ele>232.0</ele><time>2026-04-04T16:00:43.051Z</time></trkpt><trkpt lat="43.3528179" lon="11.4421053"><ele>232.0</ele><time>2026-04-04T16:00:44.051Z</time></trkpt><trkpt lat="43.3527822" lon="11.4419536"><ele>232.0</ele><time>2026-04-04T16:00:45.05Z</time></trkpt><trkpt lat="43.3527199" lon="11.4417954"><ele>234.0</ele><time>2026-04-04T16:00:46.051Z</time></trkpt><trkpt lat="43.3526451" lon="11.4416584"><ele>236.0</ele><time>2026-04-04T16:00:47.05Z</time></trkpt><trkpt lat="43.3525562" lon="11.4415282"><ele>238.0</ele><time>2026-04-04T16:00:48.05Z</time></trkpt><trkpt lat="43.3524642" lon="11.4414117"><ele>240.0</ele><time>2026-04-04T16:00:49.05Z</time></trkpt><trkpt lat="43.3523495" lon="11.4413186"><ele>241.25</ele><time>2026-04-04T16:00:50.05Z</time></trkpt><trkpt lat="43.3522245" lon="11.441249"><ele>242.5</ele><time>2026-04-04T16:00:51.051Z</time></trkpt><trkpt lat="43.3520857" lon="11.4411949"><ele>243.75</ele><time>2026-04-04T16:00:52.05Z</time></trkpt><trkpt lat="43.3519481" lon="11.4411606"><ele>245.0</ele><time>2026-04-04T16:00:53.051Z</time></trkpt><trkpt lat="43.3518356" lon="11.4411361"><ele>245.0</ele><time>2026-04-04T16:00:54.05Z</time></trkpt><trkpt lat="43.3517258" lon="11.4411071"><ele>245.0</ele><time>2026-04-04T16:00:55.051Z</time></trkpt><trkpt lat="43.3516441" lon="11.4410675"><ele>245.0</ele><time>2026-04-04T16:00:56.049Z</time></trkpt><trkpt lat="43.3515644" lon="11.4409992"><ele>245.0</ele><time>2026-04-04T16:00:57.05Z</time></trkpt><trkpt lat="43.3515225" lon="11.4408628"><ele>245.0</ele><time>2026-04-04T16:00:58.049Z</time></trkpt><trkpt lat="43.351488" lon="11.4407299"><ele>245.0</ele><time>2026-04-04T16:00:59.051Z</time></trkpt><trkpt lat="43.351462" lon="11.4405993"><ele>245.0</ele><time>2026-04-04T16:01:00.051Z</time></trkpt><trkpt lat="43.3514529" lon="11.4404619"><ele>245.0</ele><time>2026-04-04T16:01:01.05Z</time></trkpt><trkpt lat="43.3514475" lon="11.440326"><ele>245.0</ele><time>2026-04-04T16:01:02.051Z</time></trkpt><trkpt lat="43.3514657" lon="11.440167"><ele>245.0</ele><time>2026-04-04T16:01:03.05Z</time></trkpt><trkpt lat="43.3514782" lon="11.4400495"><ele>246.00000000000003</ele><time>2026-04-04T16:01:04.049Z</time></trkpt><trkpt lat="43.3514903" lon="11.4399529"><ele>247.0</ele><time>2026-04-04T16:01:05.051Z</time></trkpt><trkpt lat="43.351504" lon="11.4398252"><ele>248.0</ele><time>2026-04-04T16:01:07.05Z</time></trkpt><trkpt lat="43.3515606" lon="11.4397029"><ele>249.0</ele><time>2026-04-04T16:01:09.049Z</time></trkpt><trkpt lat="43.3516125" lon="11.4396444"><ele>250.00000000000003</ele><time>2026-04-04T16:01:10.05Z</time></trkpt><trkpt lat="43.351682" lon="11.4395781"><ele>251.0</ele><time>2026-04-04T16:01:11.049Z</time></trkpt><trkpt lat="43.351781" lon="11.4395144"><ele>251.0</ele><time>2026-04-04T16:01:12.051Z</time></trkpt><trkpt lat="43.3518816" lon="11.4394472"><ele>251.0</ele><time>2026-04-04T16:01:13.05Z</time></trkpt><trkpt lat="43.351994" lon="11.4394035"><ele>251.0</ele><time>2026-04-04T16:01:14.048Z</time></trkpt><trkpt lat="43.3521071" lon="11.4393727"><ele>251.0</ele><time>2026-04-04T16:01:15.049Z</time></trkpt><trkpt lat="43.3522164" lon="11.4393434"><ele>252.4</ele><time>2026-04-04T16:01:16.049Z</time></trkpt><trkpt lat="43.3523146" lon="11.4393078"><ele>253.8</ele><time>2026-04-04T16:01:17.049Z</time></trkpt><trkpt lat="43.3523986" lon="11.4392419"><ele>255.20000000000002</ele><time>2026-04-04T16:01:18.049Z</time></trkpt><trkpt lat="43.352483" lon="11.4391562"><ele>256.6</ele><time>2026-04-04T16:01:19.05Z</time></trkpt><trkpt lat="43.3525724" lon="11.4390706"><ele>258.0</ele><time>2026-04-04T16:01:20.049Z</time></trkpt><trkpt lat="43.3526615" lon="11.4389656"><ele>258.0</ele><time>2026-04-04T16:01:21.05Z</time></trkpt><trkpt lat="43.3527587" lon="11.4388563"><ele>258.0</ele><time>2026-04-04T16:01:22.048Z</time></trkpt><trkpt lat="43.3528651" lon="11.4387487"><ele>258.0</ele><time>2026-04-04T16:01:23.05Z</time></trkpt><trkpt lat="43.3529816" lon="11.4386489"><ele>258.0</ele><time>2026-04-04T16:01:24.05Z</time></trkpt><trkpt lat="43.3530945" lon="11.438551"><ele>259.75</ele><time>2026-04-04T16:01:25.049Z</time></trkpt><trkpt lat="43.3532234" lon="11.4384724"><ele>261.5</ele><time>2026-04-04T16:01:26.05Z</time></trkpt><trkpt lat="43.3533595" lon="11.4384136"><ele>263.25</ele><time>2026-04-04T16:01:27.05Z</time></trkpt><trkpt lat="43.3534943" lon="11.4383639"><ele>265.0</ele><time>2026-04-04T16:01:28.049Z</time></trkpt><trkpt lat="43.3536403" lon="11.4383238"><ele>265.0</ele><time>2026-04-04T16:01:29.05Z</time></trkpt><trkpt lat="43.3537822" lon="11.4382843"><ele>265.0</ele><time>2026-04-04T16:01:30.049Z</time></trkpt><trkpt lat="43.3539287" lon="11.4382397"><ele>265.0</ele><time>2026-04-04T16:01:31.048Z</time></trkpt><trkpt lat="43.3540538" lon="11.4382031"><ele>265.0</ele><time>2026-04-04T16:01:32.051Z</time></trkpt><trkpt lat="43.3541661" lon="11.4381791"><ele>265.2</ele><time>2026-04-04T16:01:33.05Z</time></trkpt><trkpt lat="43.3542766" lon="11.4381542"><ele>265.4</ele><time>2026-04-04T16:01:34.05Z</time></trkpt><trkpt lat="43.3543842" lon="11.4381398"><ele>265.6</ele><time>2026-04-04T16:01:35.05Z</time></trkpt><trkpt lat="43.3544912" lon="11.4381359"><ele>265.8</ele><time>2026-04-04T16:01:36.049Z</time></trkpt><trkpt lat="43.3545847" lon="11.4381327"><ele>266.0</ele><time>2026-04-04T16:01:37.05Z</time></trkpt><trkpt lat="43.3546874" lon="11.4381266"><ele>266.40000000000003</ele><time>2026-04-04T16:01:38.048Z</time></trkpt><trkpt lat="43.3547784" lon="11.4381322"><ele>266.8</ele><time>2026-04-04T16:01:39.05Z</time></trkpt><trkpt lat="43.3548866" lon="11.4381544"><ele>267.20000000000005</ele><time>2026-04-04T16:01:40.051Z</time></trkpt><trkpt lat="43.3549985" lon="11.4381784"><ele>267.6</ele><time>2026-04-04T16:01:41.051Z</time></trkpt><trkpt lat="43.3551076" lon="11.4382028"><ele>268.0</ele><time>2026-04-04T16:01:42.05Z</time></trkpt><trkpt lat="43.3552194" lon="11.438227"><ele>268.0</ele><time>2026-04-04T16:01:43.05Z</time></trkpt><trkpt lat="43.3553412" lon="11.4382514"><ele>268.0</ele><time>2026-04-04T16:01:44.049Z</time></trkpt><trkpt lat="43.3554641" lon="11.4382842"><ele>268.0</ele><time>2026-04-04T16:01:45.048Z</time></trkpt><trkpt lat="43.3556023" lon="11.438304"><ele>268.0</ele><time>2026-04-04T16:01:46.05Z</time></trkpt><trkpt lat="43.3557251" lon="11.4383382"><ele>267.5</ele><time>2026-04-04T16:01:47.05Z</time></trkpt><trkpt lat="43.3558567" lon="11.4383651"><ele>267.0</ele><time>2026-04-04T16:01:48.049Z</time></trkpt><trkpt lat="43.3559812" lon="11.4384008"><ele>266.5</ele><time>2026-04-04T16:01:49.049Z</time></trkpt><trkpt lat="43.3561103" lon="11.4384206"><ele>266.0</ele><time>2026-04-04T16:01:50.049Z</time></trkpt><trkpt lat="43.3562458" lon="11.4384435"><ele>265.75</ele><time>2026-04-04T16:01:51.049Z</time></trkpt><trkpt lat="43.3563878" lon="11.438471"><ele>265.5</ele><time>2026-04-04T16:01:52.049Z</time></trkpt><trkpt lat="43.356528" lon="11.4385048"><ele>265.25</ele><time>2026-04-04T16:01:53.051Z</time></trkpt><trkpt lat="43.3566686" lon="11.4385353"><ele>265.0</ele><time>2026-04-04T16:01:54.05Z</time></trkpt><trkpt lat="43.3568164" lon="11.4385655"><ele>265.0</ele><time>2026-04-04T16:01:55.049Z</time></trkpt><trkpt lat="43.3569694" lon="11.4385793"><ele>265.0</ele><time>2026-04-04T16:01:56.049Z</time></trkpt><trkpt lat="43.3571309" lon="11.4385754"><ele>265.0</ele><time>2026-04-04T16:01:57.049Z</time></trkpt><trkpt lat="43.3572887" lon="11.4385474"><ele>265.0</ele><time>2026-04-04T16:01:58.05Z</time></trkpt><trkpt lat="43.3574501" lon="11.4385063"><ele>265.0</ele><time>2026-04-04T16:01:59.049Z</time></trkpt><trkpt lat="43.3576109" lon="11.4384543"><ele>265.0</ele><time>2026-04-04T16:02:00.05Z</time></trkpt><trkpt lat="43.3577692" lon="11.4384047"><ele>265.0</ele><time>2026-04-04T16:02:01.05Z</time></trkpt><trkpt lat="43.3579168" lon="11.43835"><ele>265.0</ele><time>2026-04-04T16:02:02.049Z</time></trkpt><trkpt lat="43.3580472" lon="11.4382853"><ele>265.0</ele><time>2026-04-04T16:02:03.049Z</time></trkpt><trkpt lat="43.3581594" lon="11.4382001"><ele>265.0</ele><time>2026-04-04T16:02:04.051Z</time></trkpt><trkpt lat="43.3582587" lon="11.4380771"><ele>266.0</ele><time>2026-04-04T16:02:05.051Z</time></trkpt><trkpt lat="43.3583361" lon="11.4379181"><ele>267.0</ele><time>2026-04-04T16:02:06.049Z</time></trkpt><trkpt lat="43.3584014" lon="11.4377363"><ele>268.0</ele><time>2026-04-04T16:02:07.05Z</time></trkpt><trkpt lat="43.3584371" lon="11.4375512"><ele>269.0</ele><time>2026-04-04T16:02:08.05Z</time></trkpt><trkpt lat="43.3584345" lon="11.4373725"><ele>269.0</ele><time>2026-04-04T16:02:09.05Z</time></trkpt><trkpt lat="43.3584177" lon="11.4371834"><ele>269.0</ele><time>2026-04-04T16:02:10.05Z</time></trkpt><trkpt lat="43.358402" lon="11.4369919"><ele>269.0</ele><time>2026-04-04T16:02:11.048Z</time></trkpt><trkpt lat="43.3583882" lon="11.4367964"><ele>269.0</ele><time>2026-04-04T16:02:12.049Z</time></trkpt><trkpt lat="43.358426" lon="11.4365701"><ele>269.0</ele><time>2026-04-04T16:02:13.051Z</time></trkpt><trkpt lat="43.3584575" lon="11.4363585"><ele>269.0</ele><time>2026-04-04T16:02:14.049Z</time></trkpt><trkpt lat="43.3584935" lon="11.4361402"><ele>269.0</ele><time>2026-04-04T16:02:15.049Z</time></trkpt><trkpt lat="43.3585302" lon="11.4359319"><ele>269.0</ele><time>2026-04-04T16:02:16.049Z</time></trkpt><trkpt lat="43.3585728" lon="11.4357164"><ele>269.0</ele><time>2026-04-04T16:02:17.049Z</time></trkpt><trkpt lat="43.3586244" lon="11.4355081"><ele>269.0</ele><time>2026-04-04T16:02:18.048Z</time></trkpt><trkpt lat="43.3587024" lon="11.4352926"><ele>269.6666666666667</ele><time>2026-04-04T16:02:19.049Z</time></trkpt><trkpt lat="43.3587922" lon="11.4350795"><ele>270.3333333333333</ele><time>2026-04-04T16:02:20.05Z</time></trkpt><trkpt lat="43.3588658" lon="11.4348705"><ele>271.0</ele><time>2026-04-04T16:02:21.048Z</time></trkpt><trkpt lat="43.3589214" lon="11.4346588"><ele>268.3333333333333</ele><time>2026-04-04T16:02:22.048Z</time></trkpt><trkpt lat="43.3589696" lon="11.434438"><ele>265.6666666666667</ele><time>2026-04-04T16:02:23.049Z</time></trkpt><trkpt lat="43.3589938" lon="11.4342116"><ele>263.0</ele><time>2026-04-04T16:02:24.049Z</time></trkpt><trkpt lat="43.3589989" lon="11.4339541"><ele>262.0</ele><time>2026-04-04T16:02:25.048Z</time></trkpt><trkpt lat="43.358979" lon="11.4336847"><ele>261.0</ele><time>2026-04-04T16:02:26.05Z</time></trkpt><trkpt lat="43.358949" lon="11.433418"><ele>260.0</ele><time>2026-04-04T16:02:27.05Z</time></trkpt><trkpt lat="43.3589216" lon="11.4331589"><ele>260.0</ele><time>2026-04-04T16:02:28.049Z</time></trkpt><trkpt lat="43.3588978" lon="11.4328939"><ele>260.0</ele><time>2026-04-04T16:02:29.05Z</time></trkpt><trkpt lat="43.3588875" lon="11.4326651"><ele>260.0</ele><time>2026-04-04T16:02:30.048Z</time></trkpt><trkpt lat="43.3588996" lon="11.4324439"><ele>260.0</ele><time>2026-04-04T16:02:31.049Z</time></trkpt><trkpt lat="43.3589028" lon="11.4322186"><ele>260.0</ele><time>2026-04-04T16:02:32.049Z</time></trkpt><trkpt lat="43.3589449" lon="11.4320333"><ele>260.0</ele><time>2026-04-04T16:02:33.051Z</time></trkpt><trkpt lat="43.3589796" lon="11.4318298"><ele>260.33333333333337</ele><time>2026-04-04T16:02:34.05Z</time></trkpt><trkpt lat="43.3590134" lon="11.431628"><ele>260.6666666666667</ele><time>2026-04-04T16:02:35.049Z</time></trkpt><trkpt lat="43.3590649" lon="11.4314139"><ele>261.0</ele><time>2026-04-04T16:02:36.049Z</time></trkpt><trkpt lat="43.3591084" lon="11.4312087"><ele>261.75</ele><time>2026-04-04T16:02:37.05Z</time></trkpt><trkpt lat="43.3591494" lon="11.4310061"><ele>262.5</ele><time>2026-04-04T16:02:38.049Z</time></trkpt><trkpt lat="43.359194" lon="11.4308102"><ele>263.25</ele><time>2026-04-04T16:02:39.05Z</time></trkpt><trkpt lat="43.3592375" lon="11.4306325"><ele>264.0</ele><time>2026-04-04T16:02:40.049Z</time></trkpt><trkpt lat="43.3592675" lon="11.4304443"><ele>264.3333333333333</ele><time>2026-04-04T16:02:41.049Z</time></trkpt><trkpt lat="43.3592769" lon="11.4302739"><ele>264.66666666666663</ele><time>2026-04-04T16:02:42.051Z</time></trkpt><trkpt lat="43.3592755" lon="11.4300319"><ele>265.0</ele><time>2026-04-04T16:02:43.049Z</time></trkpt><trkpt lat="43.3592713" lon="11.4298235"><ele>263.0</ele><time>2026-04-04T16:02:44.05Z</time></trkpt><trkpt lat="43.3592478" lon="11.4295647"><ele>261.0</ele><time>2026-04-04T16:02:45.051Z</time></trkpt><trkpt lat="43.3592306" lon="11.4293407"><ele>259.0</ele><time>2026-04-04T16:02:46.05Z</time></trkpt><trkpt lat="43.3591898" lon="11.4291682"><ele>259.0</ele><time>2026-04-04T16:02:47.051Z</time></trkpt><trkpt lat="43.3590631" lon="11.4289628"><ele>259.0</ele><time>2026-04-04T16:02:48.049Z</time></trkpt><trkpt lat="43.3589911" lon="11.4287813"><ele>259.0</ele><time>2026-04-04T16:02:49.05Z</time></trkpt><trkpt lat="43.3589055" lon="11.4286073"><ele>261.66666666666663</ele><time>2026-04-04T16:02:50.051Z</time></trkpt><trkpt lat="43.3587517" lon="11.4284555"><ele>264.3333333333333</ele><time>2026-04-04T16:02:51.051Z</time></trkpt><trkpt lat="43.3586382" lon="11.4282959"><ele>267.0</ele><time>2026-04-04T16:02:52.05Z</time></trkpt><trkpt lat="43.3585222" lon="11.4281447"><ele>263.3333333333333</ele><time>2026-04-04T16:02:53.05Z</time></trkpt><trkpt lat="43.3584137" lon="11.4279707"><ele>259.66666666666663</ele><time>2026-04-04T16:02:54.051Z</time></trkpt><trkpt lat="43.3583253" lon="11.4277921"><ele>256.0</ele><time>2026-04-04T16:02:55.05Z</time></trkpt><trkpt lat="43.3582327" lon="11.4276322"><ele>256.0</ele><time>2026-04-04T16:02:56.049Z</time></trkpt><trkpt lat="43.3581396" lon="11.4274739"><ele>256.0</ele><time>2026-04-04T16:02:57.05Z</time></trkpt><trkpt lat="43.3580234" lon="11.4273289"><ele>256.0</ele><time>2026-04-04T16:02:58.051Z</time></trkpt><trkpt lat="43.3579255" lon="11.4272162"><ele>256.0</ele><time>2026-04-04T16:02:59.05Z</time></trkpt><trkpt lat="43.3577952" lon="11.4271194"><ele>255.0</ele><time>2026-04-04T16:03:00.05Z</time></trkpt><trkpt lat="43.3576542" lon="11.4270355"><ele>254.0</ele><time>2026-04-04T16:03:01.05Z</time></trkpt><trkpt lat="43.3575166" lon="11.426941"><ele>253.0</ele><time>2026-04-04T16:03:02.049Z</time></trkpt><trkpt lat="43.3573811" lon="11.4268515"><ele>253.0</ele><time>2026-04-04T16:03:03.049Z</time></trkpt><trkpt lat="43.3572429" lon="11.426762"><ele>253.0</ele><time>2026-04-04T16:03:04.049Z</time></trkpt><trkpt lat="43.3571167" lon="11.426677"><ele>253.0</ele><time>2026-04-04T16:03:05.05Z</time></trkpt><trkpt lat="43.3569797" lon="11.4265819"><ele>253.0</ele><time>2026-04-04T16:03:06.05Z</time></trkpt><trkpt lat="43.3568437" lon="11.4264825"><ele>254.0</ele><time>2026-04-04T16:03:07.048Z</time></trkpt><trkpt lat="43.3567098" lon="11.4263833"><ele>255.0</ele><time>2026-04-04T16:03:08.05Z</time></trkpt><trkpt lat="43.3565668" lon="11.4262455"><ele>256.0</ele><time>2026-04-04T16:03:09.05Z</time></trkpt><trkpt lat="43.3564378" lon="11.4261004"><ele>252.66666666666666</ele><time>2026-04-04T16:03:10.05Z</time></trkpt><trkpt lat="43.3563151" lon="11.4259557"><ele>249.33333333333331</ele><time>2026-04-04T16:03:11.049Z</time></trkpt><trkpt lat="43.3561999" lon="11.42578"><ele>246.0</ele><time>2026-04-04T16:03:12.05Z</time></trkpt><trkpt lat="43.3560834" lon="11.4256269"><ele>244.0</ele><time>2026-04-04T16:03:13.051Z</time></trkpt><trkpt lat="43.355955" lon="11.4254716"><ele>242.0</ele><time>2026-04-04T16:03:14.051Z</time></trkpt><trkpt lat="43.3558411" lon="11.4253077"><ele>240.0</ele><time>2026-04-04T16:03:15.049Z</time></trkpt><trkpt lat="43.3557256" lon="11.4251541"><ele>240.0</ele><time>2026-04-04T16:03:16.05Z</time></trkpt><trkpt lat="43.3556083" lon="11.4250058"><ele>240.0</ele><time>2026-04-04T16:03:17.049Z</time></trkpt><trkpt lat="43.3555046" lon="11.4248671"><ele>240.0</ele><time>2026-04-04T16:03:18.049Z</time></trkpt><trkpt lat="43.355404" lon="11.4247354"><ele>240.0</ele><time>2026-04-04T16:03:19.049Z</time></trkpt><trkpt lat="43.3553142" lon="11.4246145"><ele>239.0</ele><time>2026-04-04T16:03:20.049Z</time></trkpt><trkpt lat="43.3552243" lon="11.4244901"><ele>238.0</ele><time>2026-04-04T16:03:21.048Z</time></trkpt><trkpt lat="43.3551348" lon="11.4243665"><ele>237.0</ele><time>2026-04-04T16:03:22.049Z</time></trkpt><trkpt lat="43.3550662" lon="11.4242322"><ele>236.0</ele><time>2026-04-04T16:03:23.05Z</time></trkpt><trkpt lat="43.3550006" lon="11.424106"><ele>236.0</ele><time>2026-04-04T16:03:24.05Z</time></trkpt><trkpt lat="43.3550056" lon="11.4239501"><ele>236.0</ele><time>2026-04-04T16:03:25.051Z</time></trkpt><trkpt lat="43.3549834" lon="11.4238083"><ele>236.0</ele><time>2026-04-04T16:03:26.05Z</time></trkpt><trkpt lat="43.3550495" lon="11.4236218"><ele>236.0</ele><time>2026-04-04T16:03:27.05Z</time></trkpt><trkpt lat="43.3550922" lon="11.4234481"><ele>235.0</ele><time>2026-04-04T16:03:28.049Z</time></trkpt><trkpt lat="43.3551394" lon="11.4232537"><ele>234.0</ele><time>2026-04-04T16:03:29.049Z</time></trkpt><trkpt lat="43.3551804" lon="11.4230835"><ele>233.0</ele><time>2026-04-04T16:03:30.048Z</time></trkpt><trkpt lat="43.355225" lon="11.4228827"><ele>232.0</ele><time>2026-04-04T16:03:31.05Z</time></trkpt><trkpt lat="43.3552596" lon="11.4226942"><ele>230.25</ele><time>2026-04-04T16:03:32.047Z</time></trkpt><trkpt lat="43.3552943" lon="11.4225041"><ele>228.5</ele><time>2026-04-04T16:03:33.049Z</time></trkpt><trkpt lat="43.3553202" lon="11.422324"><ele>226.75</ele><time>2026-04-04T16:03:34.05Z</time></trkpt><trkpt lat="43.3553563" lon="11.4221421"><ele>225.0</ele><time>2026-04-04T16:03:35.049Z</time></trkpt><trkpt lat="43.3553684" lon="11.4219672"><ele>223.25</ele><time>2026-04-04T16:03:36.049Z</time></trkpt><trkpt lat="43.3553889" lon="11.421786"><ele>221.5</ele><time>2026-04-04T16:03:37.049Z</time></trkpt><trkpt lat="43.3553945" lon="11.4216028"><ele>219.75</ele><time>2026-04-04T16:03:38.049Z</time></trkpt><trkpt lat="43.355399" lon="11.4214135"><ele>218.0</ele><time>2026-04-04T16:03:39.048Z</time></trkpt><trkpt lat="43.3554103" lon="11.4212392"><ele>217.25</ele><time>2026-04-04T16:03:40.049Z</time></trkpt><trkpt lat="43.3554349" lon="11.4210685"><ele>216.5</ele><time>2026-04-04T16:03:41.047Z</time></trkpt><trkpt lat="43.3554672" lon="11.420897"><ele>215.75</ele><time>2026-04-04T16:03:42.05Z</time></trkpt><trkpt lat="43.3555002" lon="11.4207192"><ele>215.0</ele><time>2026-04-04T16:03:43.05Z</time></trkpt><trkpt lat="43.355529" lon="11.4205445"><ele>215.5</ele><time>2026-04-04T16:03:44.049Z</time></trkpt><trkpt lat="43.3555648" lon="11.4203761"><ele>216.0</ele><time>2026-04-04T16:03:45.05Z</time></trkpt><trkpt lat="43.3555997" lon="11.4202006"><ele>216.5</ele><time>2026-04-04T16:03:46.048Z</time></trkpt><trkpt lat="43.3556379" lon="11.4200233"><ele>217.0</ele><time>2026-04-04T16:03:47.05Z</time></trkpt><trkpt lat="43.3556799" lon="11.4198461"><ele>217.0</ele><time>2026-04-04T16:03:48.049Z</time></trkpt><trkpt lat="43.3557269" lon="11.4196754"><ele>217.0</ele><time>2026-04-04T16:03:49.049Z</time></trkpt><trkpt lat="43.3557915" lon="11.4194961"><ele>217.0</ele><time>2026-04-04T16:03:50.049Z</time></trkpt><trkpt lat="43.3558632" lon="11.4193153"><ele>217.0</ele><time>2026-04-04T16:03:51.049Z</time></trkpt><trkpt lat="43.3559368" lon="11.4191398"><ele>216.75</ele><time>2026-04-04T16:03:52.049Z</time></trkpt><trkpt lat="43.3560185" lon="11.4189644"><ele>216.5</ele><time>2026-04-04T16:03:53.048Z</time></trkpt><trkpt lat="43.3561041" lon="11.4187872"><ele>216.25</ele><time>2026-04-04T16:03:54.049Z</time></trkpt><trkpt lat="43.3561724" lon="11.4186214"><ele>216.0</ele><time>2026-04-04T16:03:55.049Z</time></trkpt><trkpt lat="43.3562463" lon="11.4184661"><ele>216.25</ele><time>2026-04-04T16:03:56.048Z</time></trkpt><trkpt lat="43.3563228" lon="11.4183137"><ele>216.5</ele><time>2026-04-04T16:03:57.049Z</time></trkpt><trkpt lat="43.3563927" lon="11.4181615"><ele>216.75</ele><time>2026-04-04T16:03:58.049Z</time></trkpt><trkpt lat="43.3564694" lon="11.4180155"><ele>217.0</ele><time>2026-04-04T16:03:59.048Z</time></trkpt><trkpt lat="43.3565511" lon="11.417854"><ele>217.39999999999998</ele><time>2026-04-04T16:04:00.05Z</time></trkpt><trkpt lat="43.3566142" lon="11.4177189"><ele>217.79999999999998</ele><time>2026-04-04T16:04:01.048Z</time></trkpt><trkpt lat="43.3566836" lon="11.4175795"><ele>218.2</ele><time>2026-04-04T16:04:02.049Z</time></trkpt><trkpt lat="43.3567353" lon="11.4174575"><ele>218.6</ele><time>2026-04-04T16:04:03.049Z</time></trkpt><trkpt lat="43.3567933" lon="11.4173393"><ele>219.0</ele><time>2026-04-04T16:04:04.048Z</time></trkpt><trkpt lat="43.3568342" lon="11.4172224"><ele>219.0</ele><time>2026-04-04T16:04:05.048Z</time></trkpt><trkpt lat="43.3568606" lon="11.4171056"><ele>219.0</ele><time>2026-04-04T16:04:06.049Z</time></trkpt><trkpt lat="43.356873" lon="11.4170158"><ele>219.0</ele><time>2026-04-04T16:04:07.048Z</time></trkpt><trkpt lat="43.356896" lon="11.4168704"><ele>219.0</ele><time>2026-04-04T16:04:09.049Z</time></trkpt><trkpt lat="43.3569278" lon="11.4167828"><ele>219.0</ele><time>2026-04-04T16:04:13.049Z</time></trkpt><trkpt lat="43.356915" lon="11.4166893"><ele>219.0</ele><time>2026-04-04T16:04:23.048Z</time></trkpt><trkpt lat="43.3568479" lon="11.4165497"><ele>219.0</ele><time>2026-04-04T16:04:25.047Z</time></trkpt><trkpt lat="43.3568058" lon="11.4164569"><ele>218.99999999999997</ele><time>2026-04-04T16:04:26.049Z</time></trkpt><trkpt lat="43.3567407" lon="11.4163588"><ele>218.99999999999997</ele><time>2026-04-04T16:04:27.047Z</time></trkpt><trkpt lat="43.3566659" lon="11.4162459"><ele>219.0</ele><time>2026-04-04T16:04:28.05Z</time></trkpt><trkpt lat="43.3565859" lon="11.4161148"><ele>219.0</ele><time>2026-04-04T16:04:29.049Z</time></trkpt><trkpt lat="43.3565215" lon="11.4159956"><ele>219.39999999999998</ele><time>2026-04-04T16:04:30.049Z</time></trkpt><trkpt lat="43.356469" lon="11.4158911"><ele>219.79999999999998</ele><time>2026-04-04T16:04:31.048Z</time></trkpt><trkpt lat="43.3564275" lon="11.4157689"><ele>220.20000000000002</ele><time>2026-04-04T16:04:32.049Z</time></trkpt><trkpt lat="43.3564081" lon="11.4156489"><ele>220.60000000000002</ele><time>2026-04-04T16:04:33.049Z</time></trkpt><trkpt lat="43.3564347" lon="11.4155246"><ele>221.0</ele><time>2026-04-04T16:04:34.047Z</time></trkpt><trkpt lat="43.3564526" lon="11.4153849"><ele>222.5</ele><time>2026-04-04T16:04:35.049Z</time></trkpt><trkpt lat="43.3564784" lon="11.4151958"><ele>224.0</ele><time>2026-04-04T16:04:36.048Z</time></trkpt><trkpt lat="43.3565176" lon="11.4150113"><ele>225.5</ele><time>2026-04-04T16:04:37.05Z</time></trkpt><trkpt lat="43.356565" lon="11.4148168"><ele>227.0</ele><time>2026-04-04T16:04:38.049Z</time></trkpt><trkpt lat="43.3566039" lon="11.4146218"><ele>228.33333333333334</ele><time>2026-04-04T16:04:39.048Z</time></trkpt><trkpt lat="43.3566432" lon="11.4144198"><ele>229.66666666666669</ele><time>2026-04-04T16:04:40.048Z</time></trkpt><trkpt lat="43.3566961" lon="11.4142059"><ele>231.0</ele><time>2026-04-04T16:04:41.049Z</time></trkpt><trkpt lat="43.3567479" lon="11.4140033"><ele>232.0</ele><time>2026-04-04T16:04:42.047Z</time></trkpt><trkpt lat="43.3568032" lon="11.4138094"><ele>233.0</ele><time>2026-04-04T16:04:43.048Z</time></trkpt><trkpt lat="43.3568482" lon="11.4136173"><ele>234.0</ele><time>2026-04-04T16:04:44.048Z</time></trkpt><trkpt lat="43.3569098" lon="11.4134187"><ele>234.0</ele><time>2026-04-04T16:04:45.047Z</time></trkpt><trkpt lat="43.3569695" lon="11.4132314"><ele>234.0</ele><time>2026-04-04T16:04:46.05Z</time></trkpt><trkpt lat="43.3570213" lon="11.4130632"><ele>234.0</ele><time>2026-04-04T16:04:47.049Z</time></trkpt><trkpt lat="43.3570728" lon="11.4129213"><ele>234.0</ele><time>2026-04-04T16:04:48.048Z</time></trkpt><trkpt lat="43.3571286" lon="11.4127864"><ele>234.6</ele><time>2026-04-04T16:04:49.049Z</time></trkpt><trkpt lat="43.3571805" lon="11.4126616"><ele>235.2</ele><time>2026-04-04T16:04:50.048Z</time></trkpt><trkpt lat="43.3572371" lon="11.4125532"><ele>235.79999999999998</ele><time>2026-04-04T16:04:51.048Z</time></trkpt><trkpt lat="43.3573112" lon="11.4124628"><ele>236.39999999999998</ele><time>2026-04-04T16:04:52.047Z</time></trkpt><trkpt lat="43.3573903" lon="11.4123923"><ele>237.0</ele><time>2026-04-04T16:04:53.048Z</time></trkpt><trkpt lat="43.3574731" lon="11.4123402"><ele>237.83333333333334</ele><time>2026-04-04T16:04:54.048Z</time></trkpt><trkpt lat="43.3575613" lon="11.4123029"><ele>238.66666666666669</ele><time>2026-04-04T16:04:55.05Z</time></trkpt><trkpt lat="43.3576468" lon="11.4122852"><ele>239.5</ele><time>2026-04-04T16:04:56.048Z</time></trkpt><trkpt lat="43.3577332" lon="11.4123024"><ele>240.33333333333334</ele><time>2026-04-04T16:04:57.049Z</time></trkpt><trkpt lat="43.3578187" lon="11.4123191"><ele>241.16666666666669</ele><time>2026-04-04T16:04:58.049Z</time></trkpt><trkpt lat="43.3578825" lon="11.4123854"><ele>242.0</ele><time>2026-04-04T16:04:59.049Z</time></trkpt><trkpt lat="43.3579632" lon="11.4124258"><ele>243.0</ele><time>2026-04-04T16:05:00.049Z</time></trkpt><trkpt lat="43.35804" lon="11.4124331"><ele>244.0</ele><time>2026-04-04T16:05:01.049Z</time></trkpt><trkpt lat="43.3581368" lon="11.412437"><ele>245.0</ele><time>2026-04-04T16:05:02.047Z</time></trkpt><trkpt lat="43.3582311" lon="11.4124606"><ele>246.0</ele><time>2026-04-04T16:05:03.049Z</time></trkpt><trkpt lat="43.3583349" lon="11.412448"><ele>247.0</ele><time>2026-04-04T16:05:04.049Z</time></trkpt><trkpt lat="43.3584302" lon="11.4124463"><ele>247.0</ele><time>2026-04-04T16:05:05.048Z</time></trkpt><trkpt lat="43.3585282" lon="11.4124432"><ele>247.0</ele><time>2026-04-04T16:05:06.049Z</time></trkpt><trkpt lat="43.358625" lon="11.4124277"><ele>247.0</ele><time>2026-04-04T16:05:07.048Z</time></trkpt><trkpt lat="43.3587144" lon="11.4123953"><ele>247.0</ele><time>2026-04-04T16:05:08.048Z</time></trkpt><trkpt lat="43.3588006" lon="11.4123506"><ele>247.0</ele><time>2026-04-04T16:05:09.05Z</time></trkpt><trkpt lat="43.3588857" lon="11.4122982"><ele>247.33333333333331</ele><time>2026-04-04T16:05:10.048Z</time></trkpt><trkpt lat="43.3589394" lon="11.4122346"><ele>247.66666666666666</ele><time>2026-04-04T16:05:11.048Z</time></trkpt><trkpt lat="43.3589756" lon="11.4121295"><ele>248.0</ele><time>2026-04-04T16:05:12.05Z</time></trkpt><trkpt lat="43.3589997" lon="11.4120396"><ele>248.33333333333331</ele><time>2026-04-04T16:05:13.047Z</time></trkpt><trkpt lat="43.3590011" lon="11.4119212"><ele>248.66666666666666</ele><time>2026-04-04T16:05:14.049Z</time></trkpt><trkpt lat="43.3590074" lon="11.4118134"><ele>249.0</ele><time>2026-04-04T16:05:15.049Z</time></trkpt><trkpt lat="43.3590016" lon="11.4116823"><ele>250.79999999999998</ele><time>2026-04-04T16:05:16.049Z</time></trkpt><trkpt lat="43.3590045" lon="11.4115578"><ele>252.59999999999997</ele><time>2026-04-04T16:05:17.05Z</time></trkpt><trkpt lat="43.3590124" lon="11.4114154"><ele>254.4</ele><time>2026-04-04T16:05:18.049Z</time></trkpt><trkpt lat="43.3590495" lon="11.4112992"><ele>256.2</ele><time>2026-04-04T16:05:19.049Z</time></trkpt><trkpt lat="43.3590848" lon="11.4111822"><ele>258.0</ele><time>2026-04-04T16:05:20.048Z</time></trkpt><trkpt lat="43.3591262" lon="11.4110766"><ele>258.85714285714283</ele><time>2026-04-04T16:05:21.047Z</time></trkpt><trkpt lat="43.3591781" lon="11.4110257"><ele>259.7142857142857</ele><time>2026-04-04T16:05:22.049Z</time></trkpt><trkpt lat="43.3592626" lon="11.4109629"><ele>260.57142857142856</ele><time>2026-04-04T16:05:24.049Z</time></trkpt><trkpt lat="43.359326" lon="11.4109829"><ele>261.42857142857144</ele><time>2026-04-04T16:05:25.047Z</time></trkpt><trkpt lat="43.35939" lon="11.4109988"><ele>262.2857142857143</ele><time>2026-04-04T16:05:26.048Z</time></trkpt><trkpt lat="43.3594462" lon="11.4110451"><ele>263.1428571428571</ele><time>2026-04-04T16:05:27.049Z</time></trkpt><trkpt lat="43.3594989" lon="11.4111283"><ele>264.0</ele><time>2026-04-04T16:05:28.048Z</time></trkpt><trkpt lat="43.359542" lon="11.4112062"><ele>264.0</ele><time>2026-04-04T16:05:29.049Z</time></trkpt><trkpt lat="43.3595772" lon="11.411319"><ele>264.0</ele><time>2026-04-04T16:05:30.049Z</time></trkpt><trkpt lat="43.3596171" lon="11.4114819"><ele>264.0</ele><time>2026-04-04T16:05:31.049Z</time></trkpt><trkpt lat="43.3596466" lon="11.4116489"><ele>264.0</ele><time>2026-04-04T16:05:32.049Z</time></trkpt><trkpt lat="43.3596821" lon="11.411757"><ele>264.0</ele><time>2026-04-04T16:05:33.05Z</time></trkpt><trkpt lat="43.3597154" lon="11.4118819"><ele>265.5</ele><time>2026-04-04T16:05:34.049Z</time></trkpt><trkpt lat="43.3598344" lon="11.4119648"><ele>267.0</ele><time>2026-04-04T16:05:36.048Z</time></trkpt><trkpt lat="43.3599251" lon="11.4120269"><ele>268.5</ele><time>2026-04-04T16:05:38.05Z</time></trkpt><trkpt lat="43.3600231" lon="11.4120243"><ele>270.0</ele><time>2026-04-04T16:05:40.048Z</time></trkpt><trkpt lat="43.3600243" lon="11.4118597"><ele>270.0</ele><time>2026-04-04T16:05:42.047Z</time></trkpt><trkpt lat="43.3600244" lon="11.4117105"><ele>270.0</ele><time>2026-04-04T16:05:44.047Z</time></trkpt><trkpt lat="43.3599965" lon="11.4116288"><ele>270.0</ele><time>2026-04-04T16:05:45.049Z</time></trkpt><trkpt lat="43.359978" lon="11.4114711"><ele>270.0</ele><time>2026-04-04T16:05:47.048Z</time></trkpt><trkpt lat="43.3599865" lon="11.4113795"><ele>270.0</ele><time>2026-04-04T16:05:48.048Z</time></trkpt><trkpt lat="43.3599984" lon="11.4112926"><ele>270.0</ele><time>2026-04-04T16:05:49.048Z</time></trkpt><trkpt lat="43.3600625" lon="11.4111669"><ele>270.0</ele><time>2026-04-04T16:05:51.049Z</time></trkpt><trkpt lat="43.3601071" lon="11.4110952"><ele>270.0</ele><time>2026-04-04T16:05:52.05Z</time></trkpt><trkpt lat="43.3601612" lon="11.4110349"><ele>270.0</ele><time>2026-04-04T16:05:53.049Z</time></trkpt><trkpt lat="43.360222" lon="11.4109863"><ele>270.0</ele><time>2026-04-04T16:05:54.049Z</time></trkpt><trkpt lat="43.3602858" lon="11.4109518"><ele>270.0</ele><time>2026-04-04T16:05:55.049Z</time></trkpt><trkpt lat="43.3603547" lon="11.4109121"><ele>270.0</ele><time>2026-04-04T16:05:56.048Z</time></trkpt><trkpt lat="43.3604176" lon="11.4108801"><ele>270.0</ele><time>2026-04-04T16:05:57.048Z</time></trkpt><trkpt lat="43.3604898" lon="11.4108531"><ele>271.3333333333333</ele><time>2026-04-04T16:05:58.049Z</time></trkpt><trkpt lat="43.360554" lon="11.41083"><ele>272.6666666666667</ele><time>2026-04-04T16:05:59.048Z</time></trkpt><trkpt lat="43.3606724" lon="11.4107839"><ele>274.0</ele><time>2026-04-04T16:06:01.049Z</time></trkpt><trkpt lat="43.3607323" lon="11.4107446"><ele>275.33333333333337</ele><time>2026-04-04T16:06:02.049Z</time></trkpt><trkpt lat="43.3608086" lon="11.4106276"><ele>276.6666666666667</ele><time>2026-04-04T16:06:04.048Z</time></trkpt><trkpt lat="43.3608555" lon="11.4105583"><ele>278.0</ele><time>2026-04-04T16:06:05.048Z</time></trkpt><trkpt lat="43.3608795" lon="11.410458"><ele>278.5</ele><time>2026-04-04T16:06:06.048Z</time></trkpt><trkpt lat="43.3608987" lon="11.4103595"><ele>279.0</ele><time>2026-04-04T16:06:07.049Z</time></trkpt><trkpt lat="43.360907" lon="11.4102545"><ele>279.5</ele><time>2026-04-04T16:06:08.048Z</time></trkpt><trkpt lat="43.3608954" lon="11.4101494"><ele>280.0</ele><time>2026-04-04T16:06:09.049Z</time></trkpt><trkpt lat="43.360864" lon="11.4100369"><ele>280.5</ele><time>2026-04-04T16:06:10.048Z</time></trkpt><trkpt lat="43.3608265" lon="11.4099331"><ele>281.0</ele><time>2026-04-04T16:06:11.047Z</time></trkpt><trkpt lat="43.3607889" lon="11.4098288"><ele>281.0</ele><time>2026-04-04T16:06:12.048Z</time></trkpt><trkpt lat="43.3607538" lon="11.4097172"><ele>281.0</ele><time>2026-04-04T16:06:13.048Z</time></trkpt><trkpt lat="43.3607124" lon="11.4096135"><ele>281.0</ele><time>2026-04-04T16:06:14.049Z</time></trkpt><trkpt lat="43.3606797" lon="11.4094896"><ele>281.0</ele><time>2026-04-04T16:06:15.047Z</time></trkpt><trkpt lat="43.360636" lon="11.4093698"><ele>281.0</ele><time>2026-04-04T16:06:16.05Z</time></trkpt><trkpt lat="43.3605778" lon="11.4092535"><ele>280.8</ele><time>2026-04-04T16:06:17.048Z</time></trkpt><trkpt lat="43.3605189" lon="11.4091252"><ele>280.6</ele><time>2026-04-04T16:06:18.048Z</time></trkpt><trkpt lat="43.3604567" lon="11.4090062"><ele>280.4</ele><time>2026-04-04T16:06:19.048Z</time></trkpt><trkpt lat="43.3603872" lon="11.4088902"><ele>280.2</ele><time>2026-04-04T16:06:20.048Z</time></trkpt><trkpt lat="43.3602897" lon="11.4088135"><ele>280.0</ele><time>2026-04-04T16:06:21.048Z</time></trkpt><trkpt lat="43.360198" lon="11.4087393"><ele>281.8</ele><time>2026-04-04T16:06:22.049Z</time></trkpt><trkpt lat="43.3601073" lon="11.4086492"><ele>283.6</ele><time>2026-04-04T16:06:23.048Z</time></trkpt><trkpt lat="43.3600124" lon="11.408579"><ele>285.4</ele><time>2026-04-04T16:06:24.048Z</time></trkpt><trkpt lat="43.3599089" lon="11.4084967"><ele>287.2</ele><time>2026-04-04T16:06:25.049Z</time></trkpt><trkpt lat="43.3598216" lon="11.4084314"><ele>289.0</ele><time>2026-04-04T16:06:26.048Z</time></trkpt><trkpt lat="43.3597489" lon="11.4083771"><ele>289.0</ele><time>2026-04-04T16:06:27.048Z</time></trkpt><trkpt lat="43.3596647" lon="11.4083166"><ele>289.0</ele><time>2026-04-04T16:06:28.048Z</time></trkpt><trkpt lat="43.3596015" lon="11.4082595"><ele>289.0</ele><time>2026-04-04T16:06:29.048Z</time></trkpt><trkpt lat="43.3595609" lon="11.4081706"><ele>289.0</ele><time>2026-04-04T16:06:30.049Z</time></trkpt><trkpt lat="43.3595269" lon="11.4080719"><ele>289.0</ele><time>2026-04-04T16:06:31.049Z</time></trkpt><trkpt lat="43.359507" lon="11.4079738"><ele>289.0</ele><time>2026-04-04T16:06:32.048Z</time></trkpt><trkpt lat="43.3595082" lon="11.4078706"><ele>290.0</ele><time>2026-04-04T16:06:33.049Z</time></trkpt><trkpt lat="43.359527" lon="11.4077684"><ele>291.0</ele><time>2026-04-04T16:06:34.049Z</time></trkpt><trkpt lat="43.3595554" lon="11.4076713"><ele>292.0</ele><time>2026-04-04T16:06:35.047Z</time></trkpt><trkpt lat="43.3596087" lon="11.4075784"><ele>293.0</ele><time>2026-04-04T16:06:36.048Z</time></trkpt><trkpt lat="43.3596698" lon="11.4075046"><ele>294.0</ele><time>2026-04-04T16:06:37.047Z</time></trkpt><trkpt lat="43.359727" lon="11.4074458"><ele>295.0</ele><time>2026-04-04T16:06:38.047Z</time></trkpt><trkpt lat="43.359804" lon="11.407404"><ele>295.0</ele><time>2026-04-04T16:06:39.048Z</time></trkpt><trkpt lat="43.3598906" lon="11.4073871"><ele>295.0</ele><time>2026-04-04T16:06:40.049Z</time></trkpt><trkpt lat="43.359986" lon="11.4073945"><ele>295.0</ele><time>2026-04-04T16:06:41.046Z</time></trkpt><trkpt lat="43.360086" lon="11.4074121"><ele>295.0</ele><time>2026-04-04T16:06:42.049Z</time></trkpt><trkpt lat="43.3601924" lon="11.4074376"><ele>295.0</ele><time>2026-04-04T16:06:43.047Z</time></trkpt><trkpt lat="43.3603065" lon="11.4074664"><ele>295.0</ele><time>2026-04-04T16:06:44.048Z</time></trkpt><trkpt lat="43.3604234" lon="11.4074944"><ele>295.0</ele><time>2026-04-04T16:06:45.049Z</time></trkpt><trkpt lat="43.3605422" lon="11.4075195"><ele>295.0</ele><time>2026-04-04T16:06:46.047Z</time></trkpt><trkpt lat="43.3606522" lon="11.4075282"><ele>295.0</ele><time>2026-04-04T16:06:47.049Z</time></trkpt><trkpt lat="43.360765" lon="11.4075339"><ele>295.6</ele><time>2026-04-04T16:06:48.048Z</time></trkpt><trkpt lat="43.3608748" lon="11.4075536"><ele>296.2</ele><time>2026-04-04T16:06:49.048Z</time></trkpt><trkpt lat="43.3609847" lon="11.4075571"><ele>296.8</ele><time>2026-04-04T16:06:50.046Z</time></trkpt><trkpt lat="43.3610931" lon="11.4075513"><ele>297.4</ele><time>2026-04-04T16:06:51.047Z</time></trkpt><trkpt lat="43.3611961" lon="11.4075391"><ele>298.0</ele><time>2026-04-04T16:06:52.049Z</time></trkpt><trkpt lat="43.3612985" lon="11.4075251"><ele>299.6</ele><time>2026-04-04T16:06:53.048Z</time></trkpt><trkpt lat="43.361398" lon="11.4075151"><ele>301.20000000000005</ele><time>2026-04-04T16:06:54.047Z</time></trkpt><trkpt lat="43.3614936" lon="11.407498"><ele>302.8</ele><time>2026-04-04T16:06:55.049Z</time></trkpt><trkpt lat="43.3615993" lon="11.4074718"><ele>304.40000000000003</ele><time>2026-04-04T16:06:56.048Z</time></trkpt><trkpt lat="43.3616922" lon="11.4074451"><ele>306.0</ele><time>2026-04-04T16:06:57.049Z</time></trkpt><trkpt lat="43.3617792" lon="11.4074194"><ele>306.0</ele><time>2026-04-04T16:06:58.048Z</time></trkpt><trkpt lat="43.3618729" lon="11.4073923"><ele>306.0</ele><time>2026-04-04T16:06:59.049Z</time></trkpt><trkpt lat="43.3619616" lon="11.4073661"><ele>306.0</ele><time>2026-04-04T16:07:00.047Z</time></trkpt><trkpt lat="43.362047" lon="11.407344"><ele>306.0</ele><time>2026-04-04T16:07:01.047Z</time></trkpt><trkpt lat="43.3621303" lon="11.4073203"><ele>306.0</ele><time>2026-04-04T16:07:02.048Z</time></trkpt><trkpt lat="43.3622173" lon="11.4072932"><ele>306.0</ele><time>2026-04-04T16:07:03.048Z</time></trkpt><trkpt lat="43.3623012" lon="11.4072701"><ele>307.0</ele><time>2026-04-04T16:07:04.048Z</time></trkpt><trkpt lat="43.3623982" lon="11.407237"><ele>308.0</ele><time>2026-04-04T16:07:05.048Z</time></trkpt><trkpt lat="43.3624882" lon="11.40721"><ele>309.0</ele><time>2026-04-04T16:07:06.048Z</time></trkpt><trkpt lat="43.3625801" lon="11.407178"><ele>310.0</ele><time>2026-04-04T16:07:07.047Z</time></trkpt><trkpt lat="43.3626728" lon="11.4071448"><ele>311.0</ele><time>2026-04-04T16:07:08.048Z</time></trkpt><trkpt lat="43.3627718" lon="11.4071028"><ele>311.0</ele><time>2026-04-04T16:07:09.048Z</time></trkpt><trkpt lat="43.3628664" lon="11.4070528"><ele>311.0</ele><time>2026-04-04T16:07:10.048Z</time></trkpt><trkpt lat="43.3629616" lon="11.4069984"><ele>311.0</ele><time>2026-04-04T16:07:11.047Z</time></trkpt><trkpt lat="43.3630587" lon="11.4069392"><ele>311.0</ele><time>2026-04-04T16:07:12.048Z</time></trkpt><trkpt lat="43.3631506" lon="11.4068783"><ele>311.0</ele><time>2026-04-04T16:07:13.048Z</time></trkpt><trkpt lat="43.3632397" lon="11.4068252"><ele>312.6</ele><time>2026-04-04T16:07:14.048Z</time></trkpt><trkpt lat="43.3633301" lon="11.4067705"><ele>314.20000000000005</ele><time>2026-04-04T16:07:15.048Z</time></trkpt><trkpt lat="43.3634161" lon="11.4067223"><ele>315.79999999999995</ele><time>2026-04-04T16:07:16.046Z</time></trkpt><trkpt lat="43.3635019" lon="11.4066693"><ele>317.4</ele><time>2026-04-04T16:07:17.048Z</time></trkpt><trkpt lat="43.3635859" lon="11.4066172"><ele>319.0</ele><time>2026-04-04T16:07:18.048Z</time></trkpt><trkpt lat="43.3636706" lon="11.4065629"><ele>319.0</ele><time>2026-04-04T16:07:19.048Z</time></trkpt><trkpt lat="43.3637408" lon="11.4065047"><ele>319.0</ele><time>2026-04-04T16:07:20.049Z</time></trkpt><trkpt lat="43.3638245" lon="11.4064523"><ele>319.0</ele><time>2026-04-04T16:07:21.046Z</time></trkpt><trkpt lat="43.363896" lon="11.4063945"><ele>319.0</ele><time>2026-04-04T16:07:22.049Z</time></trkpt><trkpt lat="43.3639759" lon="11.4063343"><ele>319.0</ele><time>2026-04-04T16:07:23.047Z</time></trkpt><trkpt lat="43.3640385" lon="11.4062664"><ele>319.0</ele><time>2026-04-04T16:07:24.048Z</time></trkpt><trkpt lat="43.3641202" lon="11.406208"><ele>320.66666666666663</ele><time>2026-04-04T16:07:25.047Z</time></trkpt><trkpt lat="43.3642085" lon="11.4061483"><ele>322.3333333333333</ele><time>2026-04-04T16:07:26.049Z</time></trkpt><trkpt lat="43.3642971" lon="11.4060908"><ele>324.0</ele><time>2026-04-04T16:07:27.049Z</time></trkpt><trkpt lat="43.364383" lon="11.4060406"><ele>325.6666666666667</ele><time>2026-04-04T16:07:28.048Z</time></trkpt><trkpt lat="43.3644492" lon="11.4060088"><ele>327.33333333333337</ele><time>2026-04-04T16:07:29.048Z</time></trkpt><trkpt lat="43.3645126" lon="11.4060054"><ele>329.0</ele><time>2026-04-04T16:07:30.047Z</time></trkpt><trkpt lat="43.3645877" lon="11.4060074"><ele>329.0</ele><time>2026-04-04T16:07:31.046Z</time></trkpt><trkpt lat="43.3646522" lon="11.4060474"><ele>329.0</ele><time>2026-04-04T16:07:32.047Z</time></trkpt><trkpt lat="43.3647353" lon="11.4061039"><ele>329.0</ele><time>2026-04-04T16:07:33.048Z</time></trkpt><trkpt lat="43.3648041" lon="11.4061821"><ele>329.0</ele><time>2026-04-04T16:07:34.047Z</time></trkpt><trkpt lat="43.3648655" lon="11.4062711"><ele>329.0</ele><time>2026-04-04T16:07:35.046Z</time></trkpt><trkpt lat="43.3649351" lon="11.406343"><ele>329.0</ele><time>2026-04-04T16:07:36.047Z</time></trkpt><trkpt lat="43.3649877" lon="11.4064024"><ele>330.6666666666667</ele><time>2026-04-04T16:07:37.048Z</time></trkpt><trkpt lat="43.3650493" lon="11.4064354"><ele>332.33333333333337</ele><time>2026-04-04T16:07:38.049Z</time></trkpt><trkpt lat="43.3651176" lon="11.406448"><ele>334.0</ele><time>2026-04-04T16:07:39.047Z</time></trkpt><trkpt lat="43.3651937" lon="11.4064489"><ele>335.6666666666667</ele><time>2026-04-04T16:07:40.047Z</time></trkpt><trkpt lat="43.3652673" lon="11.4064247"><ele>337.3333333333333</ele><time>2026-04-04T16:07:41.047Z</time></trkpt><trkpt lat="43.36535" lon="11.4063945"><ele>339.0</ele><time>2026-04-04T16:07:42.047Z</time></trkpt><trkpt lat="43.3654438" lon="11.4063556"><ele>340.0</ele><time>2026-04-04T16:07:43.049Z</time></trkpt><trkpt lat="43.3655565" lon="11.4063223"><ele>341.0</ele><time>2026-04-04T16:07:44.047Z</time></trkpt><trkpt lat="43.3656557" lon="11.4062871"><ele>342.0</ele><time>2026-04-04T16:07:45.047Z</time></trkpt><trkpt lat="43.3657457" lon="11.406248"><ele>343.0</ele><time>2026-04-04T16:07:46.048Z</time></trkpt><trkpt lat="43.3658104" lon="11.4062158"><ele>344.0</ele><time>2026-04-04T16:07:47.047Z</time></trkpt><trkpt lat="43.3658782" lon="11.4061717"><ele>344.0</ele><time>2026-04-04T16:07:48.048Z</time></trkpt><trkpt lat="43.36594" lon="11.4061015"><ele>344.0</ele><time>2026-04-04T16:07:49.048Z</time></trkpt><trkpt lat="43.3659979" lon="11.4060078"><ele>344.0</ele><time>2026-04-04T16:07:50.047Z</time></trkpt><trkpt lat="43.3660465" lon="11.4058898"><ele>344.0</ele><time>2026-04-04T16:07:51.049Z</time></trkpt><trkpt lat="43.366106" lon="11.4057532"><ele>344.0</ele><time>2026-04-04T16:07:52.047Z</time></trkpt><trkpt lat="43.3661716" lon="11.405605"><ele>344.0</ele><time>2026-04-04T16:07:53.048Z</time></trkpt><trkpt lat="43.3662345" lon="11.4054559"><ele>344.0</ele><time>2026-04-04T16:07:54.048Z</time></trkpt><trkpt lat="43.3662954" lon="11.4053043"><ele>344.0</ele><time>2026-04-04T16:07:55.047Z</time></trkpt><trkpt lat="43.3663622" lon="11.4051452"><ele>344.0</ele><time>2026-04-04T16:07:56.047Z</time></trkpt><trkpt lat="43.366415" lon="11.4050032"><ele>344.0</ele><time>2026-04-04T16:07:57.047Z</time></trkpt><trkpt lat="43.3664704" lon="11.404878"><ele>344.0</ele><time>2026-04-04T16:07:58.046Z</time></trkpt><trkpt lat="43.3665278" lon="11.4047627"><ele>344.0</ele><time>2026-04-04T16:07:59.049Z</time></trkpt><trkpt lat="43.3666014" lon="11.4046564"><ele>344.0</ele><time>2026-04-04T16:08:00.048Z</time></trkpt><trkpt lat="43.3666802" lon="11.4045587"><ele>344.0</ele><time>2026-04-04T16:08:01.049Z</time></trkpt><trkpt lat="43.3667676" lon="11.4044697"><ele>345.0</ele><time>2026-04-04T16:08:02.047Z</time></trkpt><trkpt lat="43.3668547" lon="11.4043956"><ele>346.0</ele><time>2026-04-04T16:08:03.047Z</time></trkpt><trkpt lat="43.3669539" lon="11.4043448"><ele>347.0</ele><time>2026-04-04T16:08:04.049Z</time></trkpt><trkpt lat="43.3670511" lon="11.4043031"><ele>348.0</ele><time>2026-04-04T16:08:05.049Z</time></trkpt><trkpt lat="43.3671502" lon="11.4042759"><ele>349.0</ele><time>2026-04-04T16:08:06.047Z</time></trkpt><trkpt lat="43.3672545" lon="11.4042696"><ele>349.0</ele><time>2026-04-04T16:08:07.048Z</time></trkpt><trkpt lat="43.3673576" lon="11.404278"><ele>349.0</ele><time>2026-04-04T16:08:08.047Z</time></trkpt><trkpt lat="43.3674758" lon="11.4042929"><ele>349.0</ele><time>2026-04-04T16:08:09.048Z</time></trkpt><trkpt lat="43.3675931" lon="11.4043104"><ele>349.0</ele><time>2026-04-04T16:08:10.047Z</time></trkpt><trkpt lat="43.3677055" lon="11.4043266"><ele>349.0</ele><time>2026-04-04T16:08:11.047Z</time></trkpt><trkpt lat="43.3678286" lon="11.4043648"><ele>349.0</ele><time>2026-04-04T16:08:12.047Z</time></trkpt><trkpt lat="43.367947" lon="11.4043877"><ele>349.0</ele><time>2026-04-04T16:08:13.048Z</time></trkpt><trkpt lat="43.3680705" lon="11.4044139"><ele>349.0</ele><time>2026-04-04T16:08:14.047Z</time></trkpt><trkpt lat="43.3681938" lon="11.4044369"><ele>349.75</ele><time>2026-04-04T16:08:15.048Z</time></trkpt><trkpt lat="43.3683202" lon="11.4044576"><ele>350.5</ele><time>2026-04-04T16:08:16.047Z</time></trkpt><trkpt lat="43.3684505" lon="11.4044798"><ele>351.25</ele><time>2026-04-04T16:08:17.047Z</time></trkpt><trkpt lat="43.3685821" lon="11.4045015"><ele>352.0</ele><time>2026-04-04T16:08:18.048Z</time></trkpt><trkpt lat="43.3687159" lon="11.4045087"><ele>352.0</ele><time>2026-04-04T16:08:19.047Z</time></trkpt><trkpt lat="43.3688568" lon="11.4045219"><ele>352.0</ele><time>2026-04-04T16:08:20.048Z</time></trkpt><trkpt lat="43.3689885" lon="11.4045191"><ele>352.0</ele><time>2026-04-04T16:08:21.047Z</time></trkpt><trkpt lat="43.3691191" lon="11.4045034"><ele>352.0</ele><time>2026-04-04T16:08:22.048Z</time></trkpt><trkpt lat="43.3692518" lon="11.404488"><ele>352.75</ele><time>2026-04-04T16:08:23.048Z</time></trkpt><trkpt lat="43.3693796" lon="11.4044835"><ele>353.5</ele><time>2026-04-04T16:08:24.048Z</time></trkpt><trkpt lat="43.3695013" lon="11.4044797"><ele>354.25</ele><time>2026-04-04T16:08:25.048Z</time></trkpt><trkpt lat="43.3696292" lon="11.4044868"><ele>355.0</ele><time>2026-04-04T16:08:26.047Z</time></trkpt><trkpt lat="43.3697553" lon="11.40449"><ele>356.5</ele><time>2026-04-04T16:08:27.046Z</time></trkpt><trkpt lat="43.3698807" lon="11.4044939"><ele>358.0</ele><time>2026-04-04T16:08:28.048Z</time></trkpt><trkpt lat="43.3699976" lon="11.4045027"><ele>359.5</ele><time>2026-04-04T16:08:29.048Z</time></trkpt><trkpt lat="43.3701209" lon="11.4045129"><ele>361.0</ele><time>2026-04-04T16:08:30.047Z</time></trkpt><trkpt lat="43.3702446" lon="11.4045195"><ele>361.0</ele><time>2026-04-04T16:08:31.048Z</time></trkpt><trkpt lat="43.3703609" lon="11.4045213"><ele>361.0</ele><time>2026-04-04T16:08:32.048Z</time></trkpt><trkpt lat="43.370473" lon="11.4045194"><ele>361.0</ele><time>2026-04-04T16:08:33.047Z</time></trkpt><trkpt lat="43.370566" lon="11.4045113"><ele>361.0</ele><time>2026-04-04T16:08:34.049Z</time></trkpt><trkpt lat="43.3706438" lon="11.4044921"><ele>361.0</ele><time>2026-04-04T16:08:35.047Z</time></trkpt><trkpt lat="43.3707179" lon="11.4044621"><ele>362.0</ele><time>2026-04-04T16:08:36.047Z</time></trkpt><trkpt lat="43.3708015" lon="11.404428"><ele>363.0</ele><time>2026-04-04T16:08:37.047Z</time></trkpt><trkpt lat="43.3708799" lon="11.4043608"><ele>364.0</ele><time>2026-04-04T16:08:38.047Z</time></trkpt><trkpt lat="43.3709534" lon="11.404282"><ele>365.0</ele><time>2026-04-04T16:08:39.048Z</time></trkpt><trkpt lat="43.3710215" lon="11.4041872"><ele>366.0</ele><time>2026-04-04T16:08:40.048Z</time></trkpt><trkpt lat="43.3710745" lon="11.4040811"><ele>366.0</ele><time>2026-04-04T16:08:41.048Z</time></trkpt><trkpt lat="43.3711291" lon="11.4039599"><ele>366.0</ele><time>2026-04-04T16:08:42.047Z</time></trkpt><trkpt lat="43.3711832" lon="11.4038349"><ele>366.0</ele><time>2026-04-04T16:08:43.049Z</time></trkpt><trkpt lat="43.3712448" lon="11.4037068"><ele>366.0</ele><time>2026-04-04T16:08:44.048Z</time></trkpt><trkpt lat="43.3713097" lon="11.4035793"><ele>366.0</ele><time>2026-04-04T16:08:45.047Z</time></trkpt><trkpt lat="43.3713676" lon="11.4034529"><ele>367.20000000000005</ele><time>2026-04-04T16:08:46.048Z</time></trkpt><trkpt lat="43.3714246" lon="11.4033306"><ele>368.40000000000003</ele><time>2026-04-04T16:08:47.046Z</time></trkpt><trkpt lat="43.3714801" lon="11.4031992"><ele>369.6</ele><time>2026-04-04T16:08:48.047Z</time></trkpt><trkpt lat="43.3715344" lon="11.4030766"><ele>370.8</ele><time>2026-04-04T16:08:49.048Z</time></trkpt><trkpt lat="43.3715861" lon="11.4029414"><ele>372.0</ele><time>2026-04-04T16:08:50.048Z</time></trkpt><trkpt lat="43.3716507" lon="11.4028142"><ele>373.40000000000003</ele><time>2026-04-04T16:08:51.047Z</time></trkpt><trkpt lat="43.371713" lon="11.402686"><ele>374.8</ele><time>2026-04-04T16:08:52.047Z</time></trkpt><trkpt lat="43.3717716" lon="11.4025585"><ele>376.2</ele><time>2026-04-04T16:08:53.046Z</time></trkpt><trkpt lat="43.3718215" lon="11.4024398"><ele>377.6</ele><time>2026-04-04T16:08:54.046Z</time></trkpt><trkpt lat="43.371861" lon="11.4023323"><ele>379.0</ele><time>2026-04-04T16:08:55.047Z</time></trkpt><trkpt lat="43.3718846" lon="11.4022335"><ele>379.3333333333333</ele><time>2026-04-04T16:08:56.047Z</time></trkpt><trkpt lat="43.3718951" lon="11.4021318"><ele>379.66666666666663</ele><time>2026-04-04T16:08:57.047Z</time></trkpt><trkpt lat="43.3719041" lon="11.402032"><ele>380.0</ele><time>2026-04-04T16:08:58.047Z</time></trkpt><trkpt lat="43.371913" lon="11.4019222"><ele>380.3333333333333</ele><time>2026-04-04T16:08:59.048Z</time></trkpt><trkpt lat="43.3719331" lon="11.4018132"><ele>380.6666666666667</ele><time>2026-04-04T16:09:00.047Z</time></trkpt><trkpt lat="43.371976" lon="11.401714"><ele>381.0</ele><time>2026-04-04T16:09:01.048Z</time></trkpt><trkpt lat="43.3720345" lon="11.4016045"><ele>381.0</ele><time>2026-04-04T16:09:02.048Z</time></trkpt><trkpt lat="43.3720968" lon="11.4015141"><ele>381.0</ele><time>2026-04-04T16:09:03.047Z</time></trkpt><trkpt lat="43.3721755" lon="11.4014184"><ele>381.0</ele><time>2026-04-04T16:09:04.046Z</time></trkpt><trkpt lat="43.3722621" lon="11.4013267"><ele>381.0</ele><time>2026-04-04T16:09:05.047Z</time></trkpt><trkpt lat="43.3723439" lon="11.4012379"><ele>381.0</ele><time>2026-04-04T16:09:06.047Z</time></trkpt><trkpt lat="43.3724269" lon="11.4011559"><ele>382.0</ele><time>2026-04-04T16:09:07.048Z</time></trkpt><trkpt lat="43.3725093" lon="11.4010616"><ele>383.0</ele><time>2026-04-04T16:09:08.048Z</time></trkpt><trkpt lat="43.3726026" lon="11.4009589"><ele>384.0</ele><time>2026-04-04T16:09:09.048Z</time></trkpt><trkpt lat="43.372684" lon="11.4008639"><ele>385.0</ele><time>2026-04-04T16:09:10.048Z</time></trkpt><trkpt lat="43.37276" lon="11.4007764"><ele>386.0</ele><time>2026-04-04T16:09:11.047Z</time></trkpt><trkpt lat="43.372842" lon="11.4006723"><ele>386.0</ele><time>2026-04-04T16:09:12.047Z</time></trkpt><trkpt lat="43.3729347" lon="11.4005697"><ele>386.0</ele><time>2026-04-04T16:09:13.048Z</time></trkpt><trkpt lat="43.3730147" lon="11.400476"><ele>386.0</ele><time>2026-04-04T16:09:14.047Z</time></trkpt><trkpt lat="43.3731079" lon="11.4003757"><ele>386.0</ele><time>2026-04-04T16:09:15.047Z</time></trkpt><trkpt lat="43.373213" lon="11.4002932"><ele>385.25</ele><time>2026-04-04T16:09:16.046Z</time></trkpt><trkpt lat="43.3733207" lon="11.4002177"><ele>384.5</ele><time>2026-04-04T16:09:17.046Z</time></trkpt><trkpt lat="43.3734305" lon="11.4001573"><ele>383.75</ele><time>2026-04-04T16:09:18.047Z</time></trkpt><trkpt lat="43.3735492" lon="11.4001087"><ele>383.0</ele><time>2026-04-04T16:09:19.047Z</time></trkpt><trkpt lat="43.3736656" lon="11.400073"><ele>383.0</ele><time>2026-04-04T16:09:20.048Z</time></trkpt><trkpt lat="43.373765" lon="11.4000306"><ele>383.0</ele><time>2026-04-04T16:09:21.048Z</time></trkpt><trkpt lat="43.3738635" lon="11.3999837"><ele>383.0</ele><time>2026-04-04T16:09:22.047Z</time></trkpt><trkpt lat="43.3739681" lon="11.3999393"><ele>383.0</ele><time>2026-04-04T16:09:23.047Z</time></trkpt><trkpt lat="43.3740643" lon="11.3998801"><ele>383.0</ele><time>2026-04-04T16:09:24.047Z</time></trkpt><trkpt lat="43.3741656" lon="11.3998095"><ele>383.0</ele><time>2026-04-04T16:09:25.047Z</time></trkpt><trkpt lat="43.3742654" lon="11.3997311"><ele>383.0</ele><time>2026-04-04T16:09:26.047Z</time></trkpt><trkpt lat="43.3743706" lon="11.399638"><ele>383.0</ele><time>2026-04-04T16:09:27.047Z</time></trkpt><trkpt lat="43.374464" lon="11.3995373"><ele>383.0</ele><time>2026-04-04T16:09:28.048Z</time></trkpt><trkpt lat="43.3745603" lon="11.3994345"><ele>382.75</ele><time>2026-04-04T16:09:29.048Z</time></trkpt><trkpt lat="43.3746535" lon="11.3993274"><ele>382.5</ele><time>2026-04-04T16:09:30.047Z</time></trkpt><trkpt lat="43.3747513" lon="11.3992195"><ele>382.25</ele><time>2026-04-04T16:09:31.046Z</time></trkpt><trkpt lat="43.374855" lon="11.3991198"><ele>382.0</ele><time>2026-04-04T16:09:32.048Z</time></trkpt><trkpt lat="43.3749563" lon="11.3990088"><ele>382.0</ele><time>2026-04-04T16:09:33.047Z</time></trkpt><trkpt lat="43.3750574" lon="11.398906"><ele>382.0</ele><time>2026-04-04T16:09:34.049Z</time></trkpt><trkpt lat="43.3751486" lon="11.398799"><ele>382.0</ele><time>2026-04-04T16:09:35.048Z</time></trkpt><trkpt lat="43.3752507" lon="11.3986994"><ele>382.0</ele><time>2026-04-04T16:09:36.047Z</time></trkpt><trkpt lat="43.3753549" lon="11.3986073"><ele>382.25</ele><time>2026-04-04T16:09:37.047Z</time></trkpt><trkpt lat="43.3754677" lon="11.3985232"><ele>382.5</ele><time>2026-04-04T16:09:38.046Z</time></trkpt><trkpt lat="43.3755808" lon="11.3984463"><ele>382.75</ele><time>2026-04-04T16:09:39.048Z</time></trkpt><trkpt lat="43.3757043" lon="11.3983852"><ele>383.0</ele><time>2026-04-04T16:09:40.046Z</time></trkpt><trkpt lat="43.3758436" lon="11.3983343"><ele>383.0</ele><time>2026-04-04T16:09:41.047Z</time></trkpt><trkpt lat="43.3759679" lon="11.3982894"><ele>383.0</ele><time>2026-04-04T16:09:42.046Z</time></trkpt><trkpt lat="43.3760926" lon="11.3982438"><ele>383.0</ele><time>2026-04-04T16:09:43.047Z</time></trkpt><trkpt lat="43.3762184" lon="11.3982344"><ele>383.0</ele><time>2026-04-04T16:09:44.047Z</time></trkpt><trkpt lat="43.3763314" lon="11.3981889"><ele>382.59999999999997</ele><time>2026-04-04T16:09:45.046Z</time></trkpt><trkpt lat="43.3764375" lon="11.3981489"><ele>382.2</ele><time>2026-04-04T16:09:46.047Z</time></trkpt><trkpt lat="43.3765354" lon="11.3981065"><ele>381.8</ele><time>2026-04-04T16:09:47.047Z</time></trkpt><trkpt lat="43.376631" lon="11.3980625"><ele>381.4</ele><time>2026-04-04T16:09:48.047Z</time></trkpt><trkpt lat="43.376714" lon="11.3979969"><ele>381.0</ele><time>2026-04-04T16:09:49.048Z</time></trkpt><trkpt lat="43.376795" lon="11.3979415"><ele>382.20000000000005</ele><time>2026-04-04T16:09:50.047Z</time></trkpt><trkpt lat="43.3768591" lon="11.3978723"><ele>383.40000000000003</ele><time>2026-04-04T16:09:51.047Z</time></trkpt><trkpt lat="43.3769224" lon="11.3977921"><ele>384.6</ele><time>2026-04-04T16:09:52.048Z</time></trkpt><trkpt lat="43.3769893" lon="11.3977118"><ele>385.8</ele><time>2026-04-04T16:09:53.048Z</time></trkpt><trkpt lat="43.377068" lon="11.3976375"><ele>387.0</ele><time>2026-04-04T16:09:54.048Z</time></trkpt><trkpt lat="43.3771488" lon="11.3975577"><ele>386.8</ele><time>2026-04-04T16:09:55.047Z</time></trkpt><trkpt lat="43.377235" lon="11.3974835"><ele>386.6</ele><time>2026-04-04T16:09:56.046Z</time></trkpt><trkpt lat="43.3773236" lon="11.3974102"><ele>386.40000000000003</ele><time>2026-04-04T16:09:57.046Z</time></trkpt><trkpt lat="43.37741" lon="11.3973431"><ele>386.20000000000005</ele><time>2026-04-04T16:09:58.045Z</time></trkpt><trkpt lat="43.3774995" lon="11.3972657"><ele>386.0</ele><time>2026-04-04T16:09:59.045Z</time></trkpt><trkpt lat="43.3776028" lon="11.3972094"><ele>386.0</ele><time>2026-04-04T16:10:00.047Z</time></trkpt><trkpt lat="43.3777099" lon="11.3971721"><ele>386.0</ele><time>2026-04-04T16:10:01.046Z</time></trkpt><trkpt lat="43.3778093" lon="11.3971463"><ele>386.0</ele><time>2026-04-04T16:10:02.046Z</time></trkpt><trkpt lat="43.3779284" lon="11.3971263"><ele>386.0</ele><time>2026-04-04T16:10:03.046Z</time></trkpt><trkpt lat="43.3780675" lon="11.3971003"><ele>388.66666666666663</ele><time>2026-04-04T16:10:04.046Z</time></trkpt><trkpt lat="43.3782078" lon="11.3970535"><ele>391.33333333333337</ele><time>2026-04-04T16:10:05.046Z</time></trkpt><trkpt lat="43.3783733" lon="11.3970059"><ele>394.0</ele><time>2026-04-04T16:10:06.046Z</time></trkpt><trkpt lat="43.3785399" lon="11.3969602"><ele>394.0</ele><time>2026-04-04T16:10:07.047Z</time></trkpt><trkpt lat="43.3787145" lon="11.3968946"><ele>394.0</ele><time>2026-04-04T16:10:08.048Z</time></trkpt><trkpt lat="43.3788793" lon="11.3968296"><ele>394.0</ele><time>2026-04-04T16:10:09.048Z</time></trkpt><trkpt lat="43.379031" lon="11.3967773"><ele>395.5</ele><time>2026-04-04T16:10:10.048Z</time></trkpt><trkpt lat="43.3791719" lon="11.3967314"><ele>397.0</ele><time>2026-04-04T16:10:11.048Z</time></trkpt><trkpt lat="43.3793185" lon="11.3966814"><ele>398.5</ele><time>2026-04-04T16:10:12.047Z</time></trkpt><trkpt lat="43.3794652" lon="11.3966377"><ele>400.0</ele><time>2026-04-04T16:10:13.048Z</time></trkpt><trkpt lat="43.3796103" lon="11.3965899"><ele>401.0</ele><time>2026-04-04T16:10:14.046Z</time></trkpt><trkpt lat="43.3797541" lon="11.3965585"><ele>402.0</ele><time>2026-04-04T16:10:15.047Z</time></trkpt><trkpt lat="43.3798941" lon="11.3965245"><ele>403.0</ele><time>2026-04-04T16:10:16.047Z</time></trkpt><trkpt lat="43.3800385" lon="11.3964936"><ele>404.0</ele><time>2026-04-04T16:10:17.048Z</time></trkpt><trkpt lat="43.3801776" lon="11.3964461"><ele>404.0</ele><time>2026-04-04T16:10:18.045Z</time></trkpt><trkpt lat="43.3803201" lon="11.3964081"><ele>404.0</ele><time>2026-04-04T16:10:19.047Z</time></trkpt><trkpt lat="43.3804611" lon="11.3963696"><ele>404.0</ele><time>2026-04-04T16:10:20.048Z</time></trkpt><trkpt lat="43.3806025" lon="11.3963279"><ele>404.0</ele><time>2026-04-04T16:10:21.046Z</time></trkpt><trkpt lat="43.3807469" lon="11.3962952"><ele>405.3333333333333</ele><time>2026-04-04T16:10:22.046Z</time></trkpt><trkpt lat="43.3808983" lon="11.3962798"><ele>406.66666666666663</ele><time>2026-04-04T16:10:23.045Z</time></trkpt><trkpt lat="43.3810452" lon="11.3962697"><ele>408.0</ele><time>2026-04-04T16:10:24.047Z</time></trkpt><trkpt lat="43.381199" lon="11.3962648"><ele>408.66666666666663</ele><time>2026-04-04T16:10:25.046Z</time></trkpt><trkpt lat="43.3813617" lon="11.3962551"><ele>409.3333333333333</ele><time>2026-04-04T16:10:26.048Z</time></trkpt><trkpt lat="43.3815207" lon="11.3962462"><ele>410.0</ele><time>2026-04-04T16:10:27.048Z</time></trkpt><trkpt lat="43.3816699" lon="11.3962253"><ele>410.0</ele><time>2026-04-04T16:10:28.047Z</time></trkpt><trkpt lat="43.3818116" lon="11.396207"><ele>410.0</ele><time>2026-04-04T16:10:29.048Z</time></trkpt><trkpt lat="43.3819398" lon="11.3961823"><ele>410.0</ele><time>2026-04-04T16:10:30.048Z</time></trkpt><trkpt lat="43.3820605" lon="11.3961594"><ele>410.0</ele><time>2026-04-04T16:10:31.047Z</time></trkpt><trkpt lat="43.3821759" lon="11.3961369"><ele>411.0</ele><time>2026-04-04T16:10:32.048Z</time></trkpt><trkpt lat="43.3822903" lon="11.3961102"><ele>412.0</ele><time>2026-04-04T16:10:33.046Z</time></trkpt><trkpt lat="43.3824052" lon="11.3960865"><ele>413.0</ele><time>2026-04-04T16:10:34.046Z</time></trkpt><trkpt lat="43.382518" lon="11.3960551"><ele>414.0</ele><time>2026-04-04T16:10:35.048Z</time></trkpt><trkpt lat="43.3826368" lon="11.3960229"><ele>414.0</ele><time>2026-04-04T16:10:36.047Z</time></trkpt><trkpt lat="43.3827458" lon="11.3959874"><ele>414.0</ele><time>2026-04-04T16:10:37.046Z</time></trkpt><trkpt lat="43.3828713" lon="11.3959495"><ele>414.0</ele><time>2026-04-04T16:10:38.047Z</time></trkpt><trkpt lat="43.3829932" lon="11.395912"><ele>414.0</ele><time>2026-04-04T16:10:39.046Z</time></trkpt><trkpt lat="43.3831145" lon="11.3958741"><ele>415.0</ele><time>2026-04-04T16:10:40.048Z</time></trkpt><trkpt lat="43.3832264" lon="11.395825"><ele>416.0</ele><time>2026-04-04T16:10:41.046Z</time></trkpt><trkpt lat="43.3833543" lon="11.3957776"><ele>417.0</ele><time>2026-04-04T16:10:42.047Z</time></trkpt><trkpt lat="43.3834626" lon="11.3957361"><ele>418.0</ele><time>2026-04-04T16:10:43.047Z</time></trkpt><trkpt lat="43.3835844" lon="11.3956876"><ele>418.0</ele><time>2026-04-04T16:10:44.045Z</time></trkpt><trkpt lat="43.3837064" lon="11.3956389"><ele>418.0</ele><time>2026-04-04T16:10:45.046Z</time></trkpt><trkpt lat="43.383822" lon="11.3955922"><ele>418.0</ele><time>2026-04-04T16:10:46.047Z</time></trkpt><trkpt lat="43.3839295" lon="11.3955522"><ele>418.0</ele><time>2026-04-04T16:10:47.048Z</time></trkpt><trkpt lat="43.3840176" lon="11.3955133"><ele>417.6666666666667</ele><time>2026-04-04T16:10:48.046Z</time></trkpt><trkpt lat="43.3841052" lon="11.3954775"><ele>417.33333333333337</ele><time>2026-04-04T16:10:49.048Z</time></trkpt><trkpt lat="43.3841878" lon="11.3954507"><ele>417.0</ele><time>2026-04-04T16:10:50.047Z</time></trkpt><trkpt lat="43.3842671" lon="11.3954192"><ele>416.66666666666663</ele><time>2026-04-04T16:10:51.046Z</time></trkpt><trkpt lat="43.3843437" lon="11.3953804"><ele>416.3333333333333</ele><time>2026-04-04T16:10:52.045Z</time></trkpt><trkpt lat="43.3844225" lon="11.3953417"><ele>416.0</ele><time>2026-04-04T16:10:53.047Z</time></trkpt><trkpt lat="43.3845082" lon="11.3953"><ele>416.0</ele><time>2026-04-04T16:10:54.046Z</time></trkpt><trkpt lat="43.384586" lon="11.3952421"><ele>416.0</ele><time>2026-04-04T16:10:55.047Z</time></trkpt><trkpt lat="43.3846657" lon="11.3951787"><ele>416.0</ele><time>2026-04-04T16:10:56.046Z</time></trkpt><trkpt lat="43.3847419" lon="11.3950897"><ele>416.0</ele><time>2026-04-04T16:10:57.048Z</time></trkpt><trkpt lat="43.3848172" lon="11.3949888"><ele>416.0</ele><time>2026-04-04T16:10:58.048Z</time></trkpt><trkpt lat="43.3848906" lon="11.3948834"><ele>417.4</ele><time>2026-04-04T16:10:59.047Z</time></trkpt><trkpt lat="43.3849643" lon="11.3947758"><ele>418.8</ele><time>2026-04-04T16:11:00.047Z</time></trkpt><trkpt lat="43.3850353" lon="11.3946691"><ele>420.2</ele><time>2026-04-04T16:11:01.046Z</time></trkpt><trkpt lat="43.3851119" lon="11.3945619"><ele>421.59999999999997</ele><time>2026-04-04T16:11:02.047Z</time></trkpt><trkpt lat="43.3851867" lon="11.3944464"><ele>423.0</ele><time>2026-04-04T16:11:03.047Z</time></trkpt><trkpt lat="43.3852647" lon="11.3943342"><ele>423.4</ele><time>2026-04-04T16:11:04.047Z</time></trkpt><trkpt lat="43.3853397" lon="11.3942256"><ele>423.79999999999995</ele><time>2026-04-04T16:11:05.046Z</time></trkpt><trkpt lat="43.3854123" lon="11.3941163"><ele>424.2</ele><time>2026-04-04T16:11:06.046Z</time></trkpt><trkpt lat="43.3854805" lon="11.3940074"><ele>424.6</ele><time>2026-04-04T16:11:07.047Z</time></trkpt><trkpt lat="43.3855614" lon="11.3939014"><ele>425.0</ele><time>2026-04-04T16:11:08.048Z</time></trkpt><trkpt lat="43.3856306" lon="11.3937949"><ele>425.6</ele><time>2026-04-04T16:11:09.046Z</time></trkpt><trkpt lat="43.3856974" lon="11.3936892"><ele>426.2</ele><time>2026-04-04T16:11:10.047Z</time></trkpt><trkpt lat="43.3857657" lon="11.3935912"><ele>426.79999999999995</ele><time>2026-04-04T16:11:11.047Z</time></trkpt><trkpt lat="43.3858348" lon="11.3934893"><ele>427.4</ele><time>2026-04-04T16:11:12.045Z</time></trkpt><trkpt lat="43.3858972" lon="11.3933888"><ele>428.0</ele><time>2026-04-04T16:11:13.046Z</time></trkpt><trkpt lat="43.38596" lon="11.3932834"><ele>428.0</ele><time>2026-04-04T16:11:14.047Z</time></trkpt><trkpt lat="43.386024" lon="11.3931847"><ele>427.99999999999994</ele><time>2026-04-04T16:11:15.047Z</time></trkpt><trkpt lat="43.3860953" lon="11.393096"><ele>427.99999999999994</ele><time>2026-04-04T16:11:16.046Z</time></trkpt><trkpt lat="43.3861607" lon="11.3930065"><ele>428.0</ele><time>2026-04-04T16:11:17.045Z</time></trkpt><trkpt lat="43.3862251" lon="11.392915"><ele>428.0</ele><time>2026-04-04T16:11:18.047Z</time></trkpt><trkpt lat="43.3862934" lon="11.3928213"><ele>428.49999999999994</ele><time>2026-04-04T16:11:19.048Z</time></trkpt><trkpt lat="43.3863479" lon="11.3927387"><ele>429.0</ele><time>2026-04-04T16:11:20.046Z</time></trkpt><trkpt lat="43.3864192" lon="11.3926625"><ele>429.5</ele><time>2026-04-04T16:11:21.047Z</time></trkpt><trkpt lat="43.386493" lon="11.3925856"><ele>430.0</ele><time>2026-04-04T16:11:22.047Z</time></trkpt><trkpt lat="43.3865693" lon="11.3925199"><ele>430.49999999999994</ele><time>2026-04-04T16:11:23.046Z</time></trkpt><trkpt lat="43.3866448" lon="11.3924452"><ele>431.0</ele><time>2026-04-04T16:11:24.045Z</time></trkpt><trkpt lat="43.3867235" lon="11.3923747"><ele>431.0</ele><time>2026-04-04T16:11:25.046Z</time></trkpt><trkpt lat="43.3867983" lon="11.3922993"><ele>431.0</ele><time>2026-04-04T16:11:26.047Z</time></trkpt><trkpt lat="43.3868739" lon="11.3922246"><ele>431.0</ele><time>2026-04-04T16:11:27.046Z</time></trkpt><trkpt lat="43.3869503" lon="11.3921394"><ele>431.0</ele><time>2026-04-04T16:11:28.047Z</time></trkpt><trkpt lat="43.3870284" lon="11.3920327"><ele>431.0</ele><time>2026-04-04T16:11:29.046Z</time></trkpt><trkpt lat="43.3871068" lon="11.3919222"><ele>431.75</ele><time>2026-04-04T16:11:30.047Z</time></trkpt><trkpt lat="43.3871855" lon="11.3918002"><ele>432.5</ele><time>2026-04-04T16:11:31.046Z</time></trkpt><trkpt lat="43.3872722" lon="11.3916733"><ele>433.25</ele><time>2026-04-04T16:11:32.046Z</time></trkpt><trkpt lat="43.3873646" lon="11.3915345"><ele>434.0</ele><time>2026-04-04T16:11:33.047Z</time></trkpt><trkpt lat="43.3874454" lon="11.3914045"><ele>434.4</ele><time>2026-04-04T16:11:34.046Z</time></trkpt><trkpt lat="43.3875232" lon="11.3912888"><ele>434.79999999999995</ele><time>2026-04-04T16:11:35.048Z</time></trkpt><trkpt lat="43.3875934" lon="11.3911766"><ele>435.20000000000005</ele><time>2026-04-04T16:11:36.047Z</time></trkpt><trkpt lat="43.3876564" lon="11.3910784"><ele>435.6</ele><time>2026-04-04T16:11:37.045Z</time></trkpt><trkpt lat="43.3877162" lon="11.3909988"><ele>436.0</ele><time>2026-04-04T16:11:38.046Z</time></trkpt><trkpt lat="43.3877776" lon="11.3909052"><ele>436.0</ele><time>2026-04-04T16:11:39.047Z</time></trkpt><trkpt lat="43.3878357" lon="11.3908065"><ele>436.0</ele><time>2026-04-04T16:11:40.046Z</time></trkpt><trkpt lat="43.3879078" lon="11.3907026"><ele>436.0</ele><time>2026-04-04T16:11:41.048Z</time></trkpt><trkpt lat="43.3879708" lon="11.39061"><ele>436.0</ele><time>2026-04-04T16:11:42.047Z</time></trkpt><trkpt lat="43.3880301" lon="11.3905146"><ele>436.0</ele><time>2026-04-04T16:11:43.047Z</time></trkpt><trkpt lat="43.3880782" lon="11.390406"><ele>434.4</ele><time>2026-04-04T16:11:44.047Z</time></trkpt><trkpt lat="43.3881263" lon="11.390292"><ele>432.8</ele><time>2026-04-04T16:11:45.047Z</time></trkpt><trkpt lat="43.3881452" lon="11.3901379"><ele>431.19999999999993</ele><time>2026-04-04T16:11:46.046Z</time></trkpt><trkpt lat="43.3881696" lon="11.3899801"><ele>429.59999999999997</ele><time>2026-04-04T16:11:47.046Z</time></trkpt><trkpt lat="43.3881979" lon="11.3898302"><ele>428.0</ele><time>2026-04-04T16:11:48.046Z</time></trkpt><trkpt lat="43.3882392" lon="11.3896712"><ele>427.75</ele><time>2026-04-04T16:11:49.046Z</time></trkpt><trkpt lat="43.3882898" lon="11.3895102"><ele>427.5</ele><time>2026-04-04T16:11:50.048Z</time></trkpt><trkpt lat="43.3883512" lon="11.3893614"><ele>427.25</ele><time>2026-04-04T16:11:51.047Z</time></trkpt><trkpt lat="43.3884136" lon="11.3892046"><ele>427.0</ele><time>2026-04-04T16:11:52.046Z</time></trkpt><trkpt lat="43.3884829" lon="11.3890447"><ele>427.0</ele><time>2026-04-04T16:11:53.047Z</time></trkpt><trkpt lat="43.3885517" lon="11.3888875"><ele>427.0</ele><time>2026-04-04T16:11:54.046Z</time></trkpt><trkpt lat="43.3886312" lon="11.3887279"><ele>427.0</ele><time>2026-04-04T16:11:55.045Z</time></trkpt><trkpt lat="43.3886999" lon="11.3885591"><ele>427.0</ele><time>2026-04-04T16:11:56.047Z</time></trkpt><trkpt lat="43.3887714" lon="11.3883972"><ele>427.5</ele><time>2026-04-04T16:11:57.045Z</time></trkpt><trkpt lat="43.3888397" lon="11.3882316"><ele>428.0</ele><time>2026-04-04T16:11:58.046Z</time></trkpt><trkpt lat="43.3889126" lon="11.3880801"><ele>428.5</ele><time>2026-04-04T16:11:59.046Z</time></trkpt><trkpt lat="43.388977" lon="11.387921"><ele>429.0</ele><time>2026-04-04T16:12:00.048Z</time></trkpt><trkpt lat="43.3890389" lon="11.3877653"><ele>428.0</ele><time>2026-04-04T16:12:01.046Z</time></trkpt><trkpt lat="43.3891029" lon="11.3876077"><ele>427.0</ele><time>2026-04-04T16:12:02.046Z</time></trkpt><trkpt lat="43.3891635" lon="11.3874417"><ele>426.0</ele><time>2026-04-04T16:12:03.047Z</time></trkpt><trkpt lat="43.3892303" lon="11.3872813"><ele>425.0</ele><time>2026-04-04T16:12:04.047Z</time></trkpt><trkpt lat="43.3893056" lon="11.3871361"><ele>425.0</ele><time>2026-04-04T16:12:05.046Z</time></trkpt><trkpt lat="43.3893692" lon="11.3869987"><ele>425.0</ele><time>2026-04-04T16:12:06.047Z</time></trkpt><trkpt lat="43.3894278" lon="11.3868659"><ele>425.0</ele><time>2026-04-04T16:12:07.047Z</time></trkpt><trkpt lat="43.3894867" lon="11.3867465"><ele>425.0</ele><time>2026-04-04T16:12:08.047Z</time></trkpt><trkpt lat="43.3895406" lon="11.3866363"><ele>425.0</ele><time>2026-04-04T16:12:09.047Z</time></trkpt><trkpt lat="43.3895909" lon="11.3865232"><ele>424.99999999999994</ele><time>2026-04-04T16:12:10.045Z</time></trkpt><trkpt lat="43.3896389" lon="11.3864248"><ele>425.0</ele><time>2026-04-04T16:12:11.047Z</time></trkpt><trkpt lat="43.3896808" lon="11.3863242"><ele>425.0</ele><time>2026-04-04T16:12:12.045Z</time></trkpt><trkpt lat="43.3897191" lon="11.3862158"><ele>425.0</ele><time>2026-04-04T16:12:13.047Z</time></trkpt><trkpt lat="43.389757" lon="11.3861058"><ele>424.99999999999994</ele><time>2026-04-04T16:12:14.046Z</time></trkpt><trkpt lat="43.3897965" lon="11.386006"><ele>425.0</ele><time>2026-04-04T16:12:15.045Z</time></trkpt><trkpt lat="43.3898272" lon="11.3859105"><ele>424.6</ele><time>2026-04-04T16:12:16.046Z</time></trkpt><trkpt lat="43.3898687" lon="11.3857634"><ele>424.2</ele><time>2026-04-04T16:12:18.046Z</time></trkpt><trkpt lat="43.3899564" lon="11.3856645"><ele>423.79999999999995</ele><time>2026-04-04T16:12:20.045Z</time></trkpt><trkpt lat="43.3900179" lon="11.3856093"><ele>423.4</ele><time>2026-04-04T16:12:21.045Z</time></trkpt><trkpt lat="43.3900961" lon="11.3855727"><ele>423.0</ele><time>2026-04-04T16:12:22.047Z</time></trkpt><trkpt lat="43.3901775" lon="11.3855102"><ele>423.0</ele><time>2026-04-04T16:12:23.046Z</time></trkpt><trkpt lat="43.3902582" lon="11.385454"><ele>423.0</ele><time>2026-04-04T16:12:24.047Z</time></trkpt><trkpt lat="43.3903439" lon="11.3853896"><ele>423.0</ele><time>2026-04-04T16:12:25.047Z</time></trkpt><trkpt lat="43.3904444" lon="11.3853206"><ele>423.0</ele><time>2026-04-04T16:12:26.047Z</time></trkpt><trkpt lat="43.3905307" lon="11.3852586"><ele>423.0</ele><time>2026-04-04T16:12:27.047Z</time></trkpt><trkpt lat="43.3906105" lon="11.3852035"><ele>423.1666666666667</ele><time>2026-04-04T16:12:28.046Z</time></trkpt><trkpt lat="43.3906859" lon="11.3851643"><ele>423.33333333333337</ele><time>2026-04-04T16:12:29.048Z</time></trkpt><trkpt lat="43.3907535" lon="11.3851118"><ele>423.5</ele><time>2026-04-04T16:12:30.045Z</time></trkpt><trkpt lat="43.3908207" lon="11.3850524"><ele>423.6666666666667</ele><time>2026-04-04T16:12:31.046Z</time></trkpt><trkpt lat="43.3908867" lon="11.3849851"><ele>423.83333333333337</ele><time>2026-04-04T16:12:32.046Z</time></trkpt><trkpt lat="43.3909726" lon="11.3849298"><ele>424.0</ele><time>2026-04-04T16:12:33.046Z</time></trkpt><trkpt lat="43.3910527" lon="11.3848701"><ele>424.0</ele><time>2026-04-04T16:12:34.045Z</time></trkpt><trkpt lat="43.3911324" lon="11.3847979"><ele>424.0</ele><time>2026-04-04T16:12:35.047Z</time></trkpt><trkpt lat="43.3912114" lon="11.3847284"><ele>424.0</ele><time>2026-04-04T16:12:36.045Z</time></trkpt><trkpt lat="43.3912999" lon="11.3846554"><ele>424.0</ele><time>2026-04-04T16:12:37.046Z</time></trkpt><trkpt lat="43.3913866" lon="11.3845755"><ele>424.0</ele><time>2026-04-04T16:12:38.046Z</time></trkpt><trkpt lat="43.3914845" lon="11.3844984"><ele>424.25</ele><time>2026-04-04T16:12:39.046Z</time></trkpt><trkpt lat="43.3915834" lon="11.3844033"><ele>424.5</ele><time>2026-04-04T16:12:40.045Z</time></trkpt><trkpt lat="43.3916833" lon="11.3843105"><ele>424.75</ele><time>2026-04-04T16:12:41.047Z</time></trkpt><trkpt lat="43.3917683" lon="11.3842029"><ele>425.0</ele><time>2026-04-04T16:12:42.046Z</time></trkpt><trkpt lat="43.3918565" lon="11.3840923"><ele>425.0</ele><time>2026-04-04T16:12:43.048Z</time></trkpt><trkpt lat="43.3919226" lon="11.3839497"><ele>425.0</ele><time>2026-04-04T16:12:44.046Z</time></trkpt><trkpt lat="43.3919725" lon="11.3837893"><ele>425.0</ele><time>2026-04-04T16:12:45.046Z</time></trkpt><trkpt lat="43.3919967" lon="11.3836169"><ele>425.0</ele><time>2026-04-04T16:12:46.046Z</time></trkpt><trkpt lat="43.3920212" lon="11.3834264"><ele>425.0</ele><time>2026-04-04T16:12:47.046Z</time></trkpt><trkpt lat="43.3920614" lon="11.3832285"><ele>425.0</ele><time>2026-04-04T16:12:48.047Z</time></trkpt><trkpt lat="43.3921105" lon="11.3830466"><ele>425.0</ele><time>2026-04-04T16:12:49.046Z</time></trkpt><trkpt lat="43.392162" lon="11.3828838"><ele>425.0</ele><time>2026-04-04T16:12:50.046Z</time></trkpt><trkpt lat="43.3922465" lon="11.3827515"><ele>425.0</ele><time>2026-04-04T16:12:51.045Z</time></trkpt><trkpt lat="43.3923383" lon="11.3826151"><ele>425.0</ele><time>2026-04-04T16:12:52.045Z</time></trkpt><trkpt lat="43.3924375" lon="11.3824934"><ele>425.0</ele><time>2026-04-04T16:12:53.045Z</time></trkpt><trkpt lat="43.3925457" lon="11.3823859"><ele>425.0</ele><time>2026-04-04T16:12:54.046Z</time></trkpt><trkpt lat="43.392662" lon="11.3822859"><ele>425.3333333333333</ele><time>2026-04-04T16:12:55.045Z</time></trkpt><trkpt lat="43.3927949" lon="11.3821734"><ele>425.66666666666663</ele><time>2026-04-04T16:12:56.046Z</time></trkpt><trkpt lat="43.39291" lon="11.3820762"><ele>426.0</ele><time>2026-04-04T16:12:57.047Z</time></trkpt><trkpt lat="43.3930495" lon="11.3819644"><ele>424.33333333333337</ele><time>2026-04-04T16:12:58.047Z</time></trkpt><trkpt lat="43.3931809" lon="11.3818435"><ele>422.6666666666667</ele><time>2026-04-04T16:12:59.046Z</time></trkpt><trkpt lat="43.3933245" lon="11.3817262"><ele>421.0</ele><time>2026-04-04T16:13:00.045Z</time></trkpt><trkpt lat="43.3934565" lon="11.381602"><ele>421.0</ele><time>2026-04-04T16:13:01.046Z</time></trkpt><trkpt lat="43.3936083" lon="11.3815136"><ele>421.0</ele><time>2026-04-04T16:13:02.046Z</time></trkpt><trkpt lat="43.393755" lon="11.3814131"><ele>421.0</ele><time>2026-04-04T16:13:03.046Z</time></trkpt><trkpt lat="43.3939095" lon="11.3813117"><ele>419.0</ele><time>2026-04-04T16:13:04.046Z</time></trkpt><trkpt lat="43.3940679" lon="11.3812302"><ele>417.0</ele><time>2026-04-04T16:13:05.045Z</time></trkpt><trkpt lat="43.3942344" lon="11.3811558"><ele>415.0</ele><time>2026-04-04T16:13:06.045Z</time></trkpt><trkpt lat="43.3943998" lon="11.3810933"><ele>415.0</ele><time>2026-04-04T16:13:07.045Z</time></trkpt><trkpt lat="43.3945648" lon="11.3810456"><ele>415.0</ele><time>2026-04-04T16:13:08.045Z</time></trkpt><trkpt lat="43.3947166" lon="11.381008"><ele>415.0</ele><time>2026-04-04T16:13:09.047Z</time></trkpt><trkpt lat="43.3948634" lon="11.3809809"><ele>415.33333333333337</ele><time>2026-04-04T16:13:10.047Z</time></trkpt><trkpt lat="43.3950078" lon="11.3809851"><ele>415.66666666666663</ele><time>2026-04-04T16:13:11.047Z</time></trkpt><trkpt lat="43.3951606" lon="11.3809894"><ele>416.0</ele><time>2026-04-04T16:13:12.045Z</time></trkpt><trkpt lat="43.3953132" lon="11.3810064"><ele>416.0</ele><time>2026-04-04T16:13:13.046Z</time></trkpt><trkpt lat="43.3954644" lon="11.3810231"><ele>416.0</ele><time>2026-04-04T16:13:14.045Z</time></trkpt><trkpt lat="43.3956075" lon="11.3810437"><ele>416.0</ele><time>2026-04-04T16:13:15.046Z</time></trkpt><trkpt lat="43.3957407" lon="11.3810599"><ele>416.0</ele><time>2026-04-04T16:13:16.047Z</time></trkpt><trkpt lat="43.395854" lon="11.3810549"><ele>415.0</ele><time>2026-04-04T16:13:17.046Z</time></trkpt><trkpt lat="43.3959748" lon="11.3810414"><ele>414.0</ele><time>2026-04-04T16:13:18.046Z</time></trkpt><trkpt lat="43.3960904" lon="11.3810165"><ele>413.0</ele><time>2026-04-04T16:13:19.047Z</time></trkpt><trkpt lat="43.3962034" lon="11.3809541"><ele>412.0</ele><time>2026-04-04T16:13:20.046Z</time></trkpt><trkpt lat="43.3963077" lon="11.3808727"><ele>411.25</ele><time>2026-04-04T16:13:21.046Z</time></trkpt><trkpt lat="43.3964055" lon="11.3807586"><ele>410.5</ele><time>2026-04-04T16:13:22.046Z</time></trkpt><trkpt lat="43.3964838" lon="11.3806208"><ele>409.75</ele><time>2026-04-04T16:13:23.045Z</time></trkpt><trkpt lat="43.3965531" lon="11.3804639"><ele>409.0</ele><time>2026-04-04T16:13:24.044Z</time></trkpt><trkpt lat="43.3966078" lon="11.3802891"><ele>409.0</ele><time>2026-04-04T16:13:25.046Z</time></trkpt><trkpt lat="43.3966495" lon="11.3801006"><ele>409.0</ele><time>2026-04-04T16:13:26.047Z</time></trkpt><trkpt lat="43.396684" lon="11.3799035"><ele>409.0</ele><time>2026-04-04T16:13:27.046Z</time></trkpt><trkpt lat="43.3967223" lon="11.3797099"><ele>409.0</ele><time>2026-04-04T16:13:28.047Z</time></trkpt><trkpt lat="43.3967635" lon="11.379508"><ele>410.25</ele><time>2026-04-04T16:13:29.047Z</time></trkpt><trkpt lat="43.396801" lon="11.3793046"><ele>411.5</ele><time>2026-04-04T16:13:30.045Z</time></trkpt><trkpt lat="43.3968431" lon="11.3791122"><ele>412.75</ele><time>2026-04-04T16:13:31.045Z</time></trkpt><trkpt lat="43.3968897" lon="11.378922"><ele>414.0</ele><time>2026-04-04T16:13:32.046Z</time></trkpt><trkpt lat="43.3969398" lon="11.3787619"><ele>414.0</ele><time>2026-04-04T16:13:33.047Z</time></trkpt><trkpt lat="43.3970003" lon="11.3786017"><ele>414.0</ele><time>2026-04-04T16:13:34.045Z</time></trkpt><trkpt lat="43.3970905" lon="11.3784154"><ele>414.0</ele><time>2026-04-04T16:13:35.046Z</time></trkpt><trkpt lat="43.397201" lon="11.3782218"><ele>414.0</ele><time>2026-04-04T16:13:36.045Z</time></trkpt><trkpt lat="43.3973045" lon="11.3780347"><ele>414.0</ele><time>2026-04-04T16:13:37.047Z</time></trkpt><trkpt lat="43.3973989" lon="11.3778703"><ele>414.0</ele><time>2026-04-04T16:13:38.046Z</time></trkpt><trkpt lat="43.3974907" lon="11.3777109"><ele>415.25</ele><time>2026-04-04T16:13:39.045Z</time></trkpt><trkpt lat="43.3975784" lon="11.3775759"><ele>416.5</ele><time>2026-04-04T16:13:40.046Z</time></trkpt><trkpt lat="43.3976602" lon="11.377452"><ele>417.75</ele><time>2026-04-04T16:13:41.047Z</time></trkpt><trkpt lat="43.3977387" lon="11.3773258"><ele>419.0</ele><time>2026-04-04T16:13:42.045Z</time></trkpt><trkpt lat="43.3978081" lon="11.377197"><ele>418.5</ele><time>2026-04-04T16:13:43.046Z</time></trkpt><trkpt lat="43.3978779" lon="11.3770597"><ele>418.0</ele><time>2026-04-04T16:13:44.047Z</time></trkpt><trkpt lat="43.3979635" lon="11.3769221"><ele>417.5</ele><time>2026-04-04T16:13:45.045Z</time></trkpt><trkpt lat="43.398079" lon="11.3767843"><ele>417.0</ele><time>2026-04-04T16:13:46.047Z</time></trkpt><trkpt lat="43.3982035" lon="11.3766416"><ele>418.33333333333337</ele><time>2026-04-04T16:13:47.046Z</time></trkpt><trkpt lat="43.3983319" lon="11.3764978"><ele>419.6666666666667</ele><time>2026-04-04T16:13:48.046Z</time></trkpt><trkpt lat="43.3984559" lon="11.3763674"><ele>421.0</ele><time>2026-04-04T16:13:49.046Z</time></trkpt><trkpt lat="43.3985685" lon="11.37627"><ele>421.5</ele><time>2026-04-04T16:13:50.046Z</time></trkpt><trkpt lat="43.3986854" lon="11.3761838"><ele>422.0</ele><time>2026-04-04T16:13:51.046Z</time></trkpt><trkpt lat="43.3988134" lon="11.376111"><ele>422.5</ele><time>2026-04-04T16:13:52.045Z</time></trkpt><trkpt lat="43.3989395" lon="11.3760452"><ele>423.0</ele><time>2026-04-04T16:13:53.046Z</time></trkpt><trkpt lat="43.3990583" lon="11.3760106"><ele>424.0</ele><time>2026-04-04T16:13:54.047Z</time></trkpt><trkpt lat="43.399169" lon="11.3759781"><ele>425.0</ele><time>2026-04-04T16:13:55.046Z</time></trkpt><trkpt lat="43.3992671" lon="11.3759441"><ele>425.99999999999994</ele><time>2026-04-04T16:13:56.046Z</time></trkpt><trkpt lat="43.3993842" lon="11.3758998"><ele>427.0</ele><time>2026-04-04T16:13:57.046Z</time></trkpt><trkpt lat="43.3994446" lon="11.3758548"><ele>428.0</ele><time>2026-04-04T16:13:58.045Z</time></trkpt><trkpt lat="43.3995041" lon="11.3757967"><ele>428.0</ele><time>2026-04-04T16:13:59.046Z</time></trkpt><trkpt lat="43.3995722" lon="11.3757149"><ele>427.99999999999994</ele><time>2026-04-04T16:14:00.046Z</time></trkpt><trkpt lat="43.3996392" lon="11.3756318"><ele>427.99999999999994</ele><time>2026-04-04T16:14:01.045Z</time></trkpt><trkpt lat="43.3997075" lon="11.375531"><ele>428.0</ele><time>2026-04-04T16:14:02.047Z</time></trkpt><trkpt lat="43.399773" lon="11.3754182"><ele>428.0</ele><time>2026-04-04T16:14:03.046Z</time></trkpt><trkpt lat="43.3998437" lon="11.3753093"><ele>429.59999999999997</ele><time>2026-04-04T16:14:04.047Z</time></trkpt><trkpt lat="43.3999088" lon="11.3751741"><ele>431.19999999999993</ele><time>2026-04-04T16:14:05.046Z</time></trkpt><trkpt lat="43.3999826" lon="11.375057"><ele>432.8</ele><time>2026-04-04T16:14:06.045Z</time></trkpt><trkpt lat="43.4000375" lon="11.3749645"><ele>434.4</ele><time>2026-04-04T16:14:07.046Z</time></trkpt><trkpt lat="43.4001085" lon="11.3748778"><ele>436.0</ele><time>2026-04-04T16:14:08.047Z</time></trkpt><trkpt lat="43.4001743" lon="11.3747756"><ele>436.0</ele><time>2026-04-04T16:14:09.047Z</time></trkpt><trkpt lat="43.4002305" lon="11.3746684"><ele>436.0</ele><time>2026-04-04T16:14:10.048Z</time></trkpt><trkpt lat="43.4003026" lon="11.3745629"><ele>436.0</ele><time>2026-04-04T16:14:11.045Z</time></trkpt><trkpt lat="43.4003731" lon="11.374448"><ele>436.0</ele><time>2026-04-04T16:14:12.047Z</time></trkpt><trkpt lat="43.4004506" lon="11.3743567"><ele>436.0</ele><time>2026-04-04T16:14:13.046Z</time></trkpt><trkpt lat="43.4005024" lon="11.3742537"><ele>436.0</ele><time>2026-04-04T16:14:14.046Z</time></trkpt><trkpt lat="43.400551" lon="11.3741581"><ele>436.0</ele><time>2026-04-04T16:14:15.047Z</time></trkpt><trkpt lat="43.4005844" lon="11.3740348"><ele>436.0</ele><time>2026-04-04T16:14:16.047Z</time></trkpt><trkpt lat="43.4006157" lon="11.373908"><ele>436.0</ele><time>2026-04-04T16:14:17.047Z</time></trkpt><trkpt lat="43.4006597" lon="11.3737985"><ele>436.0</ele><time>2026-04-04T16:14:18.047Z</time></trkpt><trkpt lat="43.4006925" lon="11.3736641"><ele>436.4</ele><time>2026-04-04T16:14:19.044Z</time></trkpt><trkpt lat="43.4007193" lon="11.3735387"><ele>436.8</ele><time>2026-04-04T16:14:20.045Z</time></trkpt><trkpt lat="43.400743" lon="11.37341"><ele>437.19999999999993</ele><time>2026-04-04T16:14:21.047Z</time></trkpt><trkpt lat="43.400796" lon="11.3732855"><ele>437.59999999999997</ele><time>2026-04-04T16:14:22.046Z</time></trkpt><trkpt lat="43.4008641" lon="11.373178"><ele>438.0</ele><time>2026-04-04T16:14:23.045Z</time></trkpt><trkpt lat="43.400939" lon="11.3730688"><ele>437.59999999999997</ele><time>2026-04-04T16:14:24.047Z</time></trkpt><trkpt lat="43.40102" lon="11.3729651"><ele>437.19999999999993</ele><time>2026-04-04T16:14:25.046Z</time></trkpt><trkpt lat="43.4011002" lon="11.3728617"><ele>436.8</ele><time>2026-04-04T16:14:26.046Z</time></trkpt><trkpt lat="43.4011709" lon="11.3727619"><ele>436.4</ele><time>2026-04-04T16:14:27.045Z</time></trkpt><trkpt lat="43.4012223" lon="11.3726662"><ele>436.0</ele><time>2026-04-04T16:14:28.045Z</time></trkpt><trkpt lat="43.4012698" lon="11.3725709"><ele>436.0</ele><time>2026-04-04T16:14:29.044Z</time></trkpt><trkpt lat="43.4012992" lon="11.3724536"><ele>436.0</ele><time>2026-04-04T16:14:30.045Z</time></trkpt><trkpt lat="43.4013129" lon="11.3723384"><ele>436.0</ele><time>2026-04-04T16:14:31.045Z</time></trkpt><trkpt lat="43.4013202" lon="11.3721996"><ele>436.0</ele><time>2026-04-04T16:14:32.046Z</time></trkpt><trkpt lat="43.4013164" lon="11.3720432"><ele>436.0</ele><time>2026-04-04T16:14:33.045Z</time></trkpt><trkpt lat="43.4013169" lon="11.3718806"><ele>435.6</ele><time>2026-04-04T16:14:34.045Z</time></trkpt><trkpt lat="43.4013093" lon="11.3717236"><ele>435.20000000000005</ele><time>2026-04-04T16:14:35.047Z</time></trkpt><trkpt lat="43.4012998" lon="11.3715688"><ele>434.79999999999995</ele><time>2026-04-04T16:14:36.046Z</time></trkpt><trkpt lat="43.4012963" lon="11.3714167"><ele>434.4</ele><time>2026-04-04T16:14:37.047Z</time></trkpt><trkpt lat="43.401286" lon="11.3712643"><ele>434.0</ele><time>2026-04-04T16:14:38.047Z</time></trkpt><trkpt lat="43.4013021" lon="11.3711441"><ele>433.0</ele><time>2026-04-04T16:14:39.046Z</time></trkpt><trkpt lat="43.4013165" lon="11.3709988"><ele>432.0</ele><time>2026-04-04T16:14:40.045Z</time></trkpt><trkpt lat="43.4013363" lon="11.3708016"><ele>431.0</ele><time>2026-04-04T16:14:41.046Z</time></trkpt><trkpt lat="43.4013839" lon="11.3705888"><ele>430.0</ele><time>2026-04-04T16:14:42.045Z</time></trkpt><trkpt lat="43.4014385" lon="11.3704093"><ele>429.75</ele><time>2026-04-04T16:14:43.044Z</time></trkpt><trkpt lat="43.4014863" lon="11.3702441"><ele>429.5</ele><time>2026-04-04T16:14:44.046Z</time></trkpt><trkpt lat="43.4015239" lon="11.3700907"><ele>429.25</ele><time>2026-04-04T16:14:45.047Z</time></trkpt><trkpt lat="43.4015668" lon="11.3699562"><ele>429.0</ele><time>2026-04-04T16:14:46.046Z</time></trkpt><trkpt lat="43.4015983" lon="11.3698216"><ele>429.25</ele><time>2026-04-04T16:14:47.047Z</time></trkpt><trkpt lat="43.4016381" lon="11.3696744"><ele>429.5</ele><time>2026-04-04T16:14:48.046Z</time></trkpt><trkpt lat="43.401665" lon="11.3695232"><ele>429.75</ele><time>2026-04-04T16:14:49.044Z</time></trkpt><trkpt lat="43.4016949" lon="11.369363"><ele>430.0</ele><time>2026-04-04T16:14:50.047Z</time></trkpt><trkpt lat="43.4017167" lon="11.3692147"><ele>430.0</ele><time>2026-04-04T16:14:51.045Z</time></trkpt><trkpt lat="43.4017306" lon="11.3690472"><ele>430.0</ele><time>2026-04-04T16:14:52.046Z</time></trkpt><trkpt lat="43.4017354" lon="11.3688847"><ele>430.0</ele><time>2026-04-04T16:14:53.044Z</time></trkpt><trkpt lat="43.4017298" lon="11.3687367"><ele>430.0</ele><time>2026-04-04T16:14:54.046Z</time></trkpt><trkpt lat="43.4017154" lon="11.3685507"><ele>430.5</ele><time>2026-04-04T16:14:55.047Z</time></trkpt><trkpt lat="43.4016995" lon="11.3683414"><ele>431.0</ele><time>2026-04-04T16:14:56.045Z</time></trkpt><trkpt lat="43.4016952" lon="11.3681349"><ele>431.5</ele><time>2026-04-04T16:14:57.047Z</time></trkpt><trkpt lat="43.4016754" lon="11.3679529"><ele>432.0</ele><time>2026-04-04T16:14:58.045Z</time></trkpt><trkpt lat="43.4016666" lon="11.3677859"><ele>432.3333333333333</ele><time>2026-04-04T16:14:59.047Z</time></trkpt><trkpt lat="43.4016542" lon="11.3676454"><ele>432.66666666666663</ele><time>2026-04-04T16:15:00.047Z</time></trkpt><trkpt lat="43.4016387" lon="11.367521"><ele>433.0</ele><time>2026-04-04T16:15:01.045Z</time></trkpt><trkpt lat="43.4016309" lon="11.3674056"><ele>433.3333333333333</ele><time>2026-04-04T16:15:02.046Z</time></trkpt><trkpt lat="43.4016196" lon="11.3673155"><ele>433.66666666666663</ele><time>2026-04-04T16:15:03.046Z</time></trkpt><trkpt lat="43.401609" lon="11.3672269"><ele>434.0</ele><time>2026-04-04T16:15:04.045Z</time></trkpt><trkpt lat="43.4015959" lon="11.3671373"><ele>434.14285714285717</ele><time>2026-04-04T16:15:05.045Z</time></trkpt><trkpt lat="43.4015657" lon="11.3670402"><ele>434.2857142857143</ele><time>2026-04-04T16:15:06.046Z</time></trkpt><trkpt lat="43.4015308" lon="11.3669285"><ele>434.42857142857144</ele><time>2026-04-04T16:15:07.046Z</time></trkpt><trkpt lat="43.4014948" lon="11.3668555"><ele>434.57142857142856</ele><time>2026-04-04T16:15:08.045Z</time></trkpt><trkpt lat="43.401458" lon="11.3667746"><ele>434.7142857142857</ele><time>2026-04-04T16:15:09.046Z</time></trkpt><trkpt lat="43.4014192" lon="11.3666956"><ele>434.8571428571429</ele><time>2026-04-04T16:15:10.045Z</time></trkpt><trkpt lat="43.4013872" lon="11.3666062"><ele>435.0</ele><time>2026-04-04T16:15:11.047Z</time></trkpt><trkpt lat="43.4013532" lon="11.3665258"><ele>435.42857142857144</ele><time>2026-04-04T16:15:12.046Z</time></trkpt><trkpt lat="43.4013277" lon="11.3664204"><ele>435.8571428571429</ele><time>2026-04-04T16:15:13.046Z</time></trkpt><trkpt lat="43.4012995" lon="11.3663183"><ele>436.28571428571433</ele><time>2026-04-04T16:15:14.047Z</time></trkpt><trkpt lat="43.4012868" lon="11.3662298"><ele>436.7142857142857</ele><time>2026-04-04T16:15:15.045Z</time></trkpt><trkpt lat="43.4012723" lon="11.3661299"><ele>437.1428571428571</ele><time>2026-04-04T16:15:16.045Z</time></trkpt><trkpt lat="43.4012525" lon="11.3660446"><ele>437.5714285714286</ele><time>2026-04-04T16:15:17.047Z</time></trkpt><trkpt lat="43.4012363" lon="11.3659537"><ele>438.0</ele><time>2026-04-04T16:15:18.045Z</time></trkpt><trkpt lat="43.4012169" lon="11.3658542"><ele>438.4</ele><time>2026-04-04T16:15:19.045Z</time></trkpt><trkpt lat="43.4011846" lon="11.3656743"><ele>438.79999999999995</ele><time>2026-04-04T16:15:21.047Z</time></trkpt><trkpt lat="43.401173" lon="11.36556"><ele>439.2</ele><time>2026-04-04T16:15:22.046Z</time></trkpt><trkpt lat="43.4011413" lon="11.3654168"><ele>439.6</ele><time>2026-04-04T16:15:24.045Z</time></trkpt><trkpt lat="43.4011201" lon="11.3653332"><ele>440.0</ele><time>2026-04-04T16:15:25.044Z</time></trkpt><trkpt lat="43.4010952" lon="11.3651656"><ele>439.99999999999994</ele><time>2026-04-04T16:15:27.045Z</time></trkpt><trkpt lat="43.4010896" lon="11.3650635"><ele>440.0</ele><time>2026-04-04T16:15:28.045Z</time></trkpt><trkpt lat="43.4010759" lon="11.3649573"><ele>440.0</ele><time>2026-04-04T16:15:29.046Z</time></trkpt><trkpt lat="43.4010691" lon="11.3648678"><ele>440.0</ele><time>2026-04-04T16:15:30.046Z</time></trkpt><trkpt lat="43.4010567" lon="11.3647618"><ele>439.99999999999994</ele><time>2026-04-04T16:15:31.045Z</time></trkpt><trkpt lat="43.4010272" lon="11.364658"><ele>440.0</ele><time>2026-04-04T16:15:32.046Z</time></trkpt><trkpt lat="43.4009859" lon="11.3645425"><ele>440.4</ele><time>2026-04-04T16:15:33.045Z</time></trkpt><trkpt lat="43.4009486" lon="11.3644113"><ele>440.8</ele><time>2026-04-04T16:15:34.046Z</time></trkpt><trkpt lat="43.4009134" lon="11.3643082"><ele>441.20000000000005</ele><time>2026-04-04T16:15:35.046Z</time></trkpt><trkpt lat="43.4008806" lon="11.3642183"><ele>441.6</ele><time>2026-04-04T16:15:36.047Z</time></trkpt><trkpt lat="43.4008525" lon="11.3641231"><ele>442.0</ele><time>2026-04-04T16:15:37.047Z</time></trkpt><trkpt lat="43.4008388" lon="11.363927"><ele>441.6666666666667</ele><time>2026-04-04T16:15:39.045Z</time></trkpt><trkpt lat="43.4008328" lon="11.3638079"><ele>441.33333333333337</ele><time>2026-04-04T16:15:40.046Z</time></trkpt><trkpt lat="43.4008442" lon="11.3636807"><ele>441.0</ele><time>2026-04-04T16:15:41.047Z</time></trkpt><trkpt lat="43.4008602" lon="11.3635679"><ele>440.66666666666663</ele><time>2026-04-04T16:15:42.046Z</time></trkpt><trkpt lat="43.4009036" lon="11.3634572"><ele>440.3333333333333</ele><time>2026-04-04T16:15:43.047Z</time></trkpt><trkpt lat="43.4009517" lon="11.3633595"><ele>440.0</ele><time>2026-04-04T16:15:44.045Z</time></trkpt><trkpt lat="43.4010233" lon="11.363279"><ele>440.0</ele><time>2026-04-04T16:15:45.045Z</time></trkpt><trkpt lat="43.4011162" lon="11.3632135"><ele>440.0</ele><time>2026-04-04T16:15:46.047Z</time></trkpt><trkpt lat="43.4012155" lon="11.3631494"><ele>440.0</ele><time>2026-04-04T16:15:47.045Z</time></trkpt><trkpt lat="43.4013034" lon="11.3630785"><ele>440.0</ele><time>2026-04-04T16:15:48.045Z</time></trkpt><trkpt lat="43.4013719" lon="11.3629926"><ele>440.0</ele><time>2026-04-04T16:15:49.044Z</time></trkpt><trkpt lat="43.4014179" lon="11.3628843"><ele>441.8</ele><time>2026-04-04T16:15:50.045Z</time></trkpt><trkpt lat="43.4014395" lon="11.3627674"><ele>443.6</ele><time>2026-04-04T16:15:51.046Z</time></trkpt><trkpt lat="43.4014403" lon="11.3626408"><ele>445.4</ele><time>2026-04-04T16:15:52.045Z</time></trkpt><trkpt lat="43.4014249" lon="11.362491"><ele>447.2</ele><time>2026-04-04T16:15:53.045Z</time></trkpt><trkpt lat="43.4013981" lon="11.3623453"><ele>449.0</ele><time>2026-04-04T16:15:54.046Z</time></trkpt><trkpt lat="43.4013674" lon="11.362205"><ele>448.0</ele><time>2026-04-04T16:15:55.047Z</time></trkpt><trkpt lat="43.4013462" lon="11.3620949"><ele>447.0</ele><time>2026-04-04T16:15:56.047Z</time></trkpt><trkpt lat="43.4013377" lon="11.3619837"><ele>446.0</ele><time>2026-04-04T16:15:57.046Z</time></trkpt><trkpt lat="43.4013505" lon="11.3618873"><ele>445.0</ele><time>2026-04-04T16:15:58.045Z</time></trkpt><trkpt lat="43.4014434" lon="11.3618414"><ele>444.0</ele><time>2026-04-04T16:15:59.046Z</time></trkpt><trkpt lat="43.4015514" lon="11.3617107"><ele>444.0</ele><time>2026-04-04T16:16:00.046Z</time></trkpt><trkpt lat="43.401668" lon="11.3615831"><ele>444.0</ele><time>2026-04-04T16:16:01.046Z</time></trkpt><trkpt lat="43.4017768" lon="11.3614444"><ele>444.0</ele><time>2026-04-04T16:16:02.046Z</time></trkpt><trkpt lat="43.4018861" lon="11.3613161"><ele>444.0</ele><time>2026-04-04T16:16:03.044Z</time></trkpt><trkpt lat="43.4019743" lon="11.3611839"><ele>443.25</ele><time>2026-04-04T16:16:04.045Z</time></trkpt><trkpt lat="43.4020735" lon="11.361081"><ele>442.5</ele><time>2026-04-04T16:16:05.046Z</time></trkpt><trkpt lat="43.4021654" lon="11.3609823"><ele>441.75</ele><time>2026-04-04T16:16:06.045Z</time></trkpt><trkpt lat="43.402255" lon="11.3609062"><ele>441.0</ele><time>2026-04-04T16:16:07.045Z</time></trkpt><trkpt lat="43.402368" lon="11.3608505"><ele>441.0</ele><time>2026-04-04T16:16:08.046Z</time></trkpt><trkpt lat="43.40247" lon="11.3608052"><ele>441.0</ele><time>2026-04-04T16:16:09.045Z</time></trkpt><trkpt lat="43.4026029" lon="11.3608498"><ele>441.0</ele><time>2026-04-04T16:16:10.047Z</time></trkpt><trkpt lat="43.4027167" lon="11.3608844"><ele>441.0</ele><time>2026-04-04T16:16:11.045Z</time></trkpt><trkpt lat="43.4028234" lon="11.3608996"><ele>441.0</ele><time>2026-04-04T16:16:12.046Z</time></trkpt><trkpt lat="43.4029103" lon="11.3609014"><ele>441.0</ele><time>2026-04-04T16:16:13.047Z</time></trkpt><trkpt lat="43.4029913" lon="11.3608878"><ele>441.0</ele><time>2026-04-04T16:16:14.045Z</time></trkpt><trkpt lat="43.4030693" lon="11.360873"><ele>441.0</ele><time>2026-04-04T16:16:15.045Z</time></trkpt><trkpt lat="43.4031503" lon="11.3608541"><ele>441.0</ele><time>2026-04-04T16:16:16.045Z</time></trkpt><trkpt lat="43.4032286" lon="11.360832"><ele>441.0</ele><time>2026-04-04T16:16:17.045Z</time></trkpt><trkpt lat="43.4033015" lon="11.360813"><ele>440.6</ele><time>2026-04-04T16:16:18.046Z</time></trkpt><trkpt lat="43.403385" lon="11.360802"><ele>440.20000000000005</ele><time>2026-04-04T16:16:19.044Z</time></trkpt><trkpt lat="43.4034839" lon="11.3607124"><ele>439.79999999999995</ele><time>2026-04-04T16:16:21.045Z</time></trkpt><trkpt lat="43.403535" lon="11.36058"><ele>439.4</ele><time>2026-04-04T16:16:23.045Z</time></trkpt><trkpt lat="43.4035431" lon="11.3604888"><ele>439.0</ele><time>2026-04-04T16:16:24.045Z</time></trkpt><trkpt lat="43.4035372" lon="11.3603881"><ele>439.00000000000006</ele><time>2026-04-04T16:16:25.047Z</time></trkpt><trkpt lat="43.4035406" lon="11.3602705"><ele>439.0</ele><time>2026-04-04T16:16:26.044Z</time></trkpt><trkpt lat="43.4035392" lon="11.3601614"><ele>439.0</ele><time>2026-04-04T16:16:27.046Z</time></trkpt><trkpt lat="43.4035391" lon="11.3600332"><ele>439.0</ele><time>2026-04-04T16:16:28.046Z</time></trkpt><trkpt lat="43.4035482" lon="11.3599135"><ele>439.00000000000006</ele><time>2026-04-04T16:16:29.045Z</time></trkpt><trkpt lat="43.4035555" lon="11.3597789"><ele>439.0</ele><time>2026-04-04T16:16:30.044Z</time></trkpt><trkpt lat="43.4035855" lon="11.3596529"><ele>440.00000000000006</ele><time>2026-04-04T16:16:31.046Z</time></trkpt><trkpt lat="43.4035976" lon="11.3595431"><ele>441.0</ele><time>2026-04-04T16:16:32.046Z</time></trkpt><trkpt lat="43.4036069" lon="11.359447"><ele>442.0</ele><time>2026-04-04T16:16:33.045Z</time></trkpt><trkpt lat="43.4036033" lon="11.3593424"><ele>443.0</ele><time>2026-04-04T16:16:34.045Z</time></trkpt><trkpt lat="43.403571" lon="11.3592204"><ele>444.00000000000006</ele><time>2026-04-04T16:16:35.044Z</time></trkpt><trkpt lat="43.4035364" lon="11.3591063"><ele>445.0</ele><time>2026-04-04T16:16:36.045Z</time></trkpt><trkpt lat="43.403475" lon="11.3590037"><ele>445.0</ele><time>2026-04-04T16:16:37.046Z</time></trkpt><trkpt lat="43.4033807" lon="11.35894"><ele>445.0</ele><time>2026-04-04T16:16:38.045Z</time></trkpt><trkpt lat="43.4032969" lon="11.3588869"><ele>445.0</ele><time>2026-04-04T16:16:39.045Z</time></trkpt><trkpt lat="43.403201" lon="11.3588559"><ele>445.0</ele><time>2026-04-04T16:16:40.047Z</time></trkpt><trkpt lat="43.4031049" lon="11.3588187"><ele>445.0</ele><time>2026-04-04T16:16:41.045Z</time></trkpt><trkpt lat="43.4030256" lon="11.3587462"><ele>444.25</ele><time>2026-04-04T16:16:42.045Z</time></trkpt><trkpt lat="43.402935" lon="11.3586975"><ele>443.5</ele><time>2026-04-04T16:16:43.046Z</time></trkpt><trkpt lat="43.4028683" lon="11.3586272"><ele>442.75</ele><time>2026-04-04T16:16:44.046Z</time></trkpt><trkpt lat="43.4029008" lon="11.3584003"><ele>442.0</ele><time>2026-04-04T16:16:45.044Z</time></trkpt><trkpt lat="43.4028624" lon="11.3582342"><ele>442.0</ele><time>2026-04-04T16:16:46.045Z</time></trkpt><trkpt lat="43.4028282" lon="11.3580488"><ele>442.0</ele><time>2026-04-04T16:16:47.044Z</time></trkpt><trkpt lat="43.4028012" lon="11.3578742"><ele>442.0</ele><time>2026-04-04T16:16:48.046Z</time></trkpt><trkpt lat="43.4027579" lon="11.3577078"><ele>442.0</ele><time>2026-04-04T16:16:49.044Z</time></trkpt><trkpt lat="43.4027725" lon="11.3575927"><ele>442.1666666666667</ele><time>2026-04-04T16:16:50.045Z</time></trkpt><trkpt lat="43.4028154" lon="11.3574911"><ele>442.33333333333337</ele><time>2026-04-04T16:16:51.044Z</time></trkpt><trkpt lat="43.4028449" lon="11.3573869"><ele>442.5</ele><time>2026-04-04T16:16:52.046Z</time></trkpt><trkpt lat="43.4028861" lon="11.3572763"><ele>442.66666666666663</ele><time>2026-04-04T16:16:53.046Z</time></trkpt><trkpt lat="43.402974" lon="11.357221"><ele>442.8333333333333</ele><time>2026-04-04T16:16:54.045Z</time></trkpt><trkpt lat="43.403057" lon="11.3571617"><ele>443.0</ele><time>2026-04-04T16:16:55.046Z</time></trkpt><trkpt lat="43.4031378" lon="11.3571117"><ele>443.79999999999995</ele><time>2026-04-04T16:16:56.045Z</time></trkpt><trkpt lat="43.4032728" lon="11.357125"><ele>444.59999999999997</ele><time>2026-04-04T16:16:57.046Z</time></trkpt><trkpt lat="43.4033858" lon="11.3571063"><ele>445.40000000000003</ele><time>2026-04-04T16:16:58.046Z</time></trkpt><trkpt lat="43.4034713" lon="11.3571171"><ele>446.20000000000005</ele><time>2026-04-04T16:16:59.045Z</time></trkpt><trkpt lat="43.4035367" lon="11.357098"><ele>447.0</ele><time>2026-04-04T16:17:00.044Z</time></trkpt><trkpt lat="43.4036142" lon="11.3570883"><ele>447.0</ele><time>2026-04-04T16:17:01.045Z</time></trkpt><trkpt lat="43.4037301" lon="11.3570853"><ele>447.00000000000006</ele><time>2026-04-04T16:17:03.045Z</time></trkpt><trkpt lat="43.403795" lon="11.3570405"><ele>447.00000000000006</ele><time>2026-04-04T16:17:05.044Z</time></trkpt><trkpt lat="43.4038389" lon="11.3569441"><ele>447.0</ele><time>2026-04-04T16:17:07.045Z</time></trkpt><trkpt lat="43.403891" lon="11.3568481"><ele>447.0</ele><time>2026-04-04T16:17:09.045Z</time></trkpt><trkpt lat="43.4038822" lon="11.3567087"><ele>447.0</ele><time>2026-04-04T16:17:11.044Z</time></trkpt><trkpt lat="43.4038307" lon="11.3565777"><ele>447.00000000000006</ele><time>2026-04-04T16:17:13.045Z</time></trkpt><trkpt lat="43.4037557" lon="11.3564616"><ele>447.00000000000006</ele><time>2026-04-04T16:17:15.045Z</time></trkpt><trkpt lat="43.403725" lon="11.3563843"><ele>447.0</ele><time>2026-04-04T16:17:16.047Z</time></trkpt><trkpt lat="43.4036875" lon="11.3563031"><ele>447.0</ele><time>2026-04-04T16:17:17.044Z</time></trkpt><trkpt lat="43.4036591" lon="11.3561433"><ele>446.8333333333333</ele><time>2026-04-04T16:17:19.045Z</time></trkpt><trkpt lat="43.4036573" lon="11.3560548"><ele>446.66666666666663</ele><time>2026-04-04T16:17:20.046Z</time></trkpt><trkpt lat="43.4037278" lon="11.3559251"><ele>446.5</ele><time>2026-04-04T16:17:22.045Z</time></trkpt><trkpt lat="43.4037747" lon="11.3558526"><ele>446.3333333333333</ele><time>2026-04-04T16:17:23.044Z</time></trkpt><trkpt lat="43.4038393" lon="11.3557934"><ele>446.16666666666663</ele><time>2026-04-04T16:17:24.045Z</time></trkpt><trkpt lat="43.4039161" lon="11.3557375"><ele>446.0</ele><time>2026-04-04T16:17:25.045Z</time></trkpt><trkpt lat="43.4039763" lon="11.3556807"><ele>447.20000000000005</ele><time>2026-04-04T16:17:26.045Z</time></trkpt><trkpt lat="43.4040538" lon="11.3556345"><ele>448.40000000000003</ele><time>2026-04-04T16:17:27.045Z</time></trkpt><trkpt lat="43.4041429" lon="11.355598"><ele>449.6</ele><time>2026-04-04T16:17:28.045Z</time></trkpt><trkpt lat="43.4042244" lon="11.3555874"><ele>450.8</ele><time>2026-04-04T16:17:29.044Z</time></trkpt><trkpt lat="43.4043109" lon="11.355592"><ele>452.0</ele><time>2026-04-04T16:17:30.044Z</time></trkpt><trkpt lat="43.404437" lon="11.3556162"><ele>451.99999999999994</ele><time>2026-04-04T16:17:32.045Z</time></trkpt><trkpt lat="43.4045637" lon="11.3556662"><ele>452.0</ele><time>2026-04-04T16:17:34.045Z</time></trkpt><trkpt lat="43.4046215" lon="11.3557037"><ele>452.0</ele><time>2026-04-04T16:17:35.045Z</time></trkpt><trkpt lat="43.4046768" lon="11.3557453"><ele>452.0</ele><time>2026-04-04T16:17:36.046Z</time></trkpt><trkpt lat="43.4047431" lon="11.3557894"><ele>451.99999999999994</ele><time>2026-04-04T16:17:37.045Z</time></trkpt><trkpt lat="43.4048307" lon="11.3558523"><ele>452.0</ele><time>2026-04-04T16:17:39.045Z</time></trkpt><trkpt lat="43.4049231" lon="11.3559287"><ele>452.8</ele><time>2026-04-04T16:17:41.046Z</time></trkpt><trkpt lat="43.4049876" lon="11.355984"><ele>453.6</ele><time>2026-04-04T16:17:42.045Z</time></trkpt><trkpt lat="43.4051" lon="11.3560706"><ele>454.40000000000003</ele><time>2026-04-04T16:17:44.046Z</time></trkpt><trkpt lat="43.4052326" lon="11.3561135"><ele>455.20000000000005</ele><time>2026-04-04T16:17:46.045Z</time></trkpt><trkpt lat="43.4053047" lon="11.3560627"><ele>456.0</ele><time>2026-04-04T16:17:47.044Z</time></trkpt><trkpt lat="43.4053604" lon="11.3560163"><ele>456.0</ele><time>2026-04-04T16:17:48.043Z</time></trkpt><trkpt lat="43.4054316" lon="11.3558371"><ele>456.0</ele><time>2026-04-04T16:17:50.046Z</time></trkpt><trkpt lat="43.4054528" lon="11.3557555"><ele>456.0</ele><time>2026-04-04T16:17:51.046Z</time></trkpt><trkpt lat="43.4055142" lon="11.3556757"><ele>456.0</ele><time>2026-04-04T16:17:53.045Z</time></trkpt><trkpt lat="43.4055578" lon="11.3555656"><ele>456.0</ele><time>2026-04-04T16:17:54.045Z</time></trkpt><trkpt lat="43.4056169" lon="11.35553"><ele>457.1666666666667</ele><time>2026-04-04T16:17:55.045Z</time></trkpt><trkpt lat="43.4056764" lon="11.355562"><ele>458.33333333333337</ele><time>2026-04-04T16:17:56.045Z</time></trkpt><trkpt lat="43.4057397" lon="11.3555477"><ele>459.5</ele><time>2026-04-04T16:17:57.044Z</time></trkpt><trkpt lat="43.4058642" lon="11.3555677"><ele>460.6666666666667</ele><time>2026-04-04T16:17:59.045Z</time></trkpt><trkpt lat="43.4059409" lon="11.3555929"><ele>461.83333333333337</ele><time>2026-04-04T16:18:00.046Z</time></trkpt><trkpt lat="43.406011" lon="11.3556342"><ele>463.0</ele><time>2026-04-04T16:18:01.044Z</time></trkpt><trkpt lat="43.406085" lon="11.3556896"><ele>463.00000000000006</ele><time>2026-04-04T16:18:02.045Z</time></trkpt><trkpt lat="43.4061516" lon="11.3557333"><ele>463.0</ele><time>2026-04-04T16:18:03.046Z</time></trkpt><trkpt lat="43.4062464" lon="11.3558073"><ele>463.0</ele><time>2026-04-04T16:18:04.044Z</time></trkpt><trkpt lat="43.4063108" lon="11.3558671"><ele>463.0</ele><time>2026-04-04T16:18:05.044Z</time></trkpt><trkpt lat="43.4063846" lon="11.3559442"><ele>463.00000000000006</ele><time>2026-04-04T16:18:06.044Z</time></trkpt><trkpt lat="43.4064538" lon="11.3560108"><ele>463.0</ele><time>2026-04-04T16:18:07.045Z</time></trkpt><trkpt lat="43.4065127" lon="11.3560441"><ele>463.50000000000006</ele><time>2026-04-04T16:18:08.046Z</time></trkpt><trkpt lat="43.4065734" lon="11.3560912"><ele>464.0</ele><time>2026-04-04T16:18:09.046Z</time></trkpt><trkpt lat="43.4066349" lon="11.3561134"><ele>464.5</ele><time>2026-04-04T16:18:10.045Z</time></trkpt><trkpt lat="43.4066582" lon="11.355999"><ele>465.0</ele><time>2026-04-04T16:18:11.046Z</time></trkpt><trkpt lat="43.4067145" lon="11.3559564"><ele>465.50000000000006</ele><time>2026-04-04T16:18:12.044Z</time></trkpt><trkpt lat="43.4067782" lon="11.3558383"><ele>466.0</ele><time>2026-04-04T16:18:14.046Z</time></trkpt><trkpt lat="43.4067214" lon="11.3555713"><ele>465.20000000000005</ele><time>2026-04-04T16:18:16.045Z</time></trkpt><trkpt lat="43.4066812" lon="11.3554339"><ele>464.40000000000003</ele><time>2026-04-04T16:18:17.046Z</time></trkpt><trkpt lat="43.4066335" lon="11.3553356"><ele>463.6</ele><time>2026-04-04T16:18:18.044Z</time></trkpt><trkpt lat="43.4065984" lon="11.3552052"><ele>462.8</ele><time>2026-04-04T16:18:19.044Z</time></trkpt><trkpt lat="43.4065952" lon="11.3550982"><ele>462.0</ele><time>2026-04-04T16:18:20.045Z</time></trkpt><trkpt lat="43.406587" lon="11.3549641"><ele>462.0</ele><time>2026-04-04T16:18:21.044Z</time></trkpt><trkpt lat="43.4066167" lon="11.3548626"><ele>462.00000000000006</ele><time>2026-04-04T16:18:22.045Z</time></trkpt><trkpt lat="43.4066433" lon="11.3547789"><ele>462.00000000000006</ele><time>2026-04-04T16:18:23.046Z</time></trkpt><trkpt lat="43.4067345" lon="11.3546418"><ele>462.0</ele><time>2026-04-04T16:18:25.045Z</time></trkpt><trkpt lat="43.406804" lon="11.3545693"><ele>462.0</ele><time>2026-04-04T16:18:26.044Z</time></trkpt><trkpt lat="43.406885" lon="11.3545035"><ele>462.6</ele><time>2026-04-04T16:18:27.043Z</time></trkpt><trkpt lat="43.406978" lon="11.3544397"><ele>463.20000000000005</ele><time>2026-04-04T16:18:28.045Z</time></trkpt><trkpt lat="43.407075" lon="11.3543962"><ele>463.8</ele><time>2026-04-04T16:18:29.044Z</time></trkpt><trkpt lat="43.4071668" lon="11.3543548"><ele>464.4</ele><time>2026-04-04T16:18:30.044Z</time></trkpt><trkpt lat="43.4072694" lon="11.354337"><ele>465.0</ele><time>2026-04-04T16:18:31.044Z</time></trkpt><trkpt lat="43.407335" lon="11.3543701"><ele>465.0</ele><time>2026-04-04T16:18:32.045Z</time></trkpt><trkpt lat="43.4074011" lon="11.354399"><ele>465.0</ele><time>2026-04-04T16:18:33.045Z</time></trkpt><trkpt lat="43.4075238" lon="11.3544012"><ele>465.0</ele><time>2026-04-04T16:18:35.046Z</time></trkpt><trkpt lat="43.4076202" lon="11.3543063"><ele>465.0</ele><time>2026-04-04T16:18:37.044Z</time></trkpt><trkpt lat="43.4076494" lon="11.3542212"><ele>465.0</ele><time>2026-04-04T16:18:38.046Z</time></trkpt><trkpt lat="43.4076709" lon="11.3541361"><ele>465.0</ele><time>2026-04-04T16:18:39.044Z</time></trkpt><trkpt lat="43.4077008" lon="11.3540368"><ele>465.0</ele><time>2026-04-04T16:18:40.044Z</time></trkpt><trkpt lat="43.4077356" lon="11.353943"><ele>465.0</ele><time>2026-04-04T16:18:41.045Z</time></trkpt><trkpt lat="43.4077909" lon="11.3538633"><ele>465.0</ele><time>2026-04-04T16:18:42.045Z</time></trkpt><trkpt lat="43.4078541" lon="11.3538119"><ele>465.0</ele><time>2026-04-04T16:18:43.044Z</time></trkpt><trkpt lat="43.4079174" lon="11.3537658"><ele>465.0</ele><time>2026-04-04T16:18:44.045Z</time></trkpt><trkpt lat="43.4079905" lon="11.3537522"><ele>465.0</ele><time>2026-04-04T16:18:45.045Z</time></trkpt><trkpt lat="43.4080633" lon="11.3537725"><ele>464.1666666666667</ele><time>2026-04-04T16:18:46.043Z</time></trkpt><trkpt lat="43.4081762" lon="11.3538509"><ele>463.33333333333337</ele><time>2026-04-04T16:18:48.046Z</time></trkpt><trkpt lat="43.4082357" lon="11.3539065"><ele>462.5</ele><time>2026-04-04T16:18:49.046Z</time></trkpt><trkpt lat="43.4083041" lon="11.3539774"><ele>461.6666666666667</ele><time>2026-04-04T16:18:50.045Z</time></trkpt><trkpt lat="43.408364" lon="11.354043"><ele>460.83333333333337</ele><time>2026-04-04T16:18:51.045Z</time></trkpt><trkpt lat="43.408434" lon="11.3541052"><ele>460.0</ele><time>2026-04-04T16:18:52.045Z</time></trkpt><trkpt lat="43.4085414" lon="11.3541528"><ele>460.00000000000006</ele><time>2026-04-04T16:18:54.044Z</time></trkpt><trkpt lat="43.4086501" lon="11.3541131"><ele>460.0</ele><time>2026-04-04T16:18:56.045Z</time></trkpt><trkpt lat="43.4086989" lon="11.3540404"><ele>460.0</ele><time>2026-04-04T16:18:57.043Z</time></trkpt><trkpt lat="43.4087436" lon="11.3539674"><ele>460.0</ele><time>2026-04-04T16:18:58.044Z</time></trkpt><trkpt lat="43.4087837" lon="11.3538907"><ele>460.00000000000006</ele><time>2026-04-04T16:18:59.045Z</time></trkpt><trkpt lat="43.4087847" lon="11.3537487"><ele>460.0</ele><time>2026-04-04T16:19:01.043Z</time></trkpt><trkpt lat="43.4088034" lon="11.3535922"><ele>461.33333333333337</ele><time>2026-04-04T16:19:03.046Z</time></trkpt><trkpt lat="43.4088279" lon="11.3534267"><ele>462.6666666666667</ele><time>2026-04-04T16:19:05.045Z</time></trkpt><trkpt lat="43.408867" lon="11.3533475"><ele>464.0</ele><time>2026-04-04T16:19:06.045Z</time></trkpt><trkpt lat="43.4089235" lon="11.3532839"><ele>465.33333333333337</ele><time>2026-04-04T16:19:07.044Z</time></trkpt><trkpt lat="43.4089917" lon="11.3532304"><ele>466.6666666666667</ele><time>2026-04-04T16:19:08.043Z</time></trkpt><trkpt lat="43.4090789" lon="11.353196"><ele>468.0</ele><time>2026-04-04T16:19:09.045Z</time></trkpt><trkpt lat="43.4091784" lon="11.3531902"><ele>468.0</ele><time>2026-04-04T16:19:10.044Z</time></trkpt><trkpt lat="43.4092826" lon="11.3531945"><ele>468.0</ele><time>2026-04-04T16:19:11.043Z</time></trkpt><trkpt lat="43.409368" lon="11.3532158"><ele>468.0</ele><time>2026-04-04T16:19:12.044Z</time></trkpt><trkpt lat="43.4094542" lon="11.3532535"><ele>468.0</ele><time>2026-04-04T16:19:13.046Z</time></trkpt><trkpt lat="43.4095258" lon="11.3532869"><ele>468.0</ele><time>2026-04-04T16:19:14.046Z</time></trkpt><trkpt lat="43.4095901" lon="11.3533141"><ele>468.0</ele><time>2026-04-04T16:19:15.044Z</time></trkpt><trkpt lat="43.4096974" lon="11.3533129"><ele>468.2</ele><time>2026-04-04T16:19:17.044Z</time></trkpt><trkpt lat="43.4097895" lon="11.3532304"><ele>468.4</ele><time>2026-04-04T16:19:19.045Z</time></trkpt><trkpt lat="43.4098318" lon="11.3530805"><ele>468.59999999999997</ele><time>2026-04-04T16:19:21.044Z</time></trkpt><trkpt lat="43.4098404" lon="11.3529807"><ele>468.79999999999995</ele><time>2026-04-04T16:19:22.046Z</time></trkpt><trkpt lat="43.4098496" lon="11.3528806"><ele>469.0</ele><time>2026-04-04T16:19:23.044Z</time></trkpt><trkpt lat="43.4099094" lon="11.352812"><ele>469.00000000000006</ele><time>2026-04-04T16:19:24.046Z</time></trkpt><trkpt lat="43.4099773" lon="11.3527283"><ele>469.0</ele><time>2026-04-04T16:19:25.043Z</time></trkpt><trkpt lat="43.4100377" lon="11.3526413"><ele>469.0</ele><time>2026-04-04T16:19:26.045Z</time></trkpt><trkpt lat="43.4101048" lon="11.3525577"><ele>469.0</ele><time>2026-04-04T16:19:27.043Z</time></trkpt><trkpt lat="43.4101587" lon="11.3524951"><ele>469.00000000000006</ele><time>2026-04-04T16:19:28.044Z</time></trkpt><trkpt lat="43.410235" lon="11.3524022"><ele>469.0</ele><time>2026-04-04T16:19:30.044Z</time></trkpt><trkpt lat="43.4102968" lon="11.3523399"><ele>469.00000000000006</ele><time>2026-04-04T16:19:32.045Z</time></trkpt><trkpt lat="43.4103857" lon="11.352297"><ele>469.0</ele><time>2026-04-04T16:19:34.045Z</time></trkpt><trkpt lat="43.4104591" lon="11.3522857"><ele>469.0</ele><time>2026-04-04T16:19:35.043Z</time></trkpt><trkpt lat="43.4105282" lon="11.3522758"><ele>469.0</ele><time>2026-04-04T16:19:36.045Z</time></trkpt><trkpt lat="43.4106325" lon="11.3522411"><ele>469.00000000000006</ele><time>2026-04-04T16:19:37.044Z</time></trkpt><trkpt lat="43.4107241" lon="11.3522128"><ele>469.0</ele><time>2026-04-04T16:19:38.045Z</time></trkpt><trkpt lat="43.4108394" lon="11.3521844"><ele>469.5</ele><time>2026-04-04T16:19:39.044Z</time></trkpt><trkpt lat="43.4109547" lon="11.3521554"><ele>470.0</ele><time>2026-04-04T16:19:40.044Z</time></trkpt><trkpt lat="43.4110789" lon="11.3521153"><ele>470.5</ele><time>2026-04-04T16:19:41.044Z</time></trkpt><trkpt lat="43.411204" lon="11.3520739"><ele>471.0</ele><time>2026-04-04T16:19:42.043Z</time></trkpt><trkpt lat="43.4113344" lon="11.3520323"><ele>470.0</ele><time>2026-04-04T16:19:43.044Z</time></trkpt><trkpt lat="43.4114684" lon="11.3519832"><ele>469.0</ele><time>2026-04-04T16:19:44.044Z</time></trkpt><trkpt lat="43.4116057" lon="11.3519631"><ele>468.0</ele><time>2026-04-04T16:19:45.045Z</time></trkpt><trkpt lat="43.4117513" lon="11.3519221"><ele>467.0</ele><time>2026-04-04T16:19:46.044Z</time></trkpt><trkpt lat="43.4118974" lon="11.3518906"><ele>467.0</ele><time>2026-04-04T16:19:47.044Z</time></trkpt><trkpt lat="43.4120477" lon="11.3518563"><ele>467.0</ele><time>2026-04-04T16:19:48.044Z</time></trkpt><trkpt lat="43.4121841" lon="11.3518305"><ele>467.0</ele><time>2026-04-04T16:19:49.046Z</time></trkpt><trkpt lat="43.4123323" lon="11.3518033"><ele>467.0</ele><time>2026-04-04T16:19:50.045Z</time></trkpt><trkpt lat="43.4124853" lon="11.3517921"><ele>468.25</ele><time>2026-04-04T16:19:51.045Z</time></trkpt><trkpt lat="43.4126288" lon="11.3517598"><ele>469.5</ele><time>2026-04-04T16:19:52.045Z</time></trkpt><trkpt lat="43.4127743" lon="11.3517046"><ele>470.75</ele><time>2026-04-04T16:19:53.045Z</time></trkpt><trkpt lat="43.4129008" lon="11.3516192"><ele>472.0</ele><time>2026-04-04T16:19:54.045Z</time></trkpt><trkpt lat="43.4130156" lon="11.35151"><ele>473.75</ele><time>2026-04-04T16:19:55.044Z</time></trkpt><trkpt lat="43.4131266" lon="11.351394"><ele>475.5</ele><time>2026-04-04T16:19:56.043Z</time></trkpt><trkpt lat="43.4132202" lon="11.3512597"><ele>477.25</ele><time>2026-04-04T16:19:57.044Z</time></trkpt><trkpt lat="43.4133135" lon="11.3511218"><ele>479.0</ele><time>2026-04-04T16:19:58.045Z</time></trkpt><trkpt lat="43.4134148" lon="11.3509862"><ele>479.25</ele><time>2026-04-04T16:19:59.044Z</time></trkpt><trkpt lat="43.4135134" lon="11.3508585"><ele>479.5</ele><time>2026-04-04T16:20:00.044Z</time></trkpt><trkpt lat="43.4136091" lon="11.3507263"><ele>479.75</ele><time>2026-04-04T16:20:01.044Z</time></trkpt><trkpt lat="43.4137066" lon="11.3505944"><ele>480.0</ele><time>2026-04-04T16:20:02.044Z</time></trkpt><trkpt lat="43.413801" lon="11.350477"><ele>483.5</ele><time>2026-04-04T16:20:03.043Z</time></trkpt><trkpt lat="43.4138989" lon="11.3503903"><ele>487.0</ele><time>2026-04-04T16:20:04.045Z</time></trkpt><trkpt lat="43.414019" lon="11.3503575"><ele>490.5</ele><time>2026-04-04T16:20:05.044Z</time></trkpt><trkpt lat="43.4141356" lon="11.3503671"><ele>494.0</ele><time>2026-04-04T16:20:06.044Z</time></trkpt><trkpt lat="43.4142498" lon="11.3503777"><ele>494.0</ele><time>2026-04-04T16:20:07.044Z</time></trkpt><trkpt lat="43.4143444" lon="11.3504469"><ele>494.0</ele><time>2026-04-04T16:20:08.046Z</time></trkpt><trkpt lat="43.4144461" lon="11.3504888"><ele>494.0</ele><time>2026-04-04T16:20:09.045Z</time></trkpt><trkpt lat="43.4145478" lon="11.3504078"><ele>494.0</ele><time>2026-04-04T16:20:11.044Z</time></trkpt><trkpt lat="43.4146235" lon="11.3503459"><ele>494.0</ele><time>2026-04-04T16:20:12.044Z</time></trkpt><trkpt lat="43.414666" lon="11.3502631"><ele>493.4</ele><time>2026-04-04T16:20:13.044Z</time></trkpt><trkpt lat="43.4146885" lon="11.3501502"><ele>492.79999999999995</ele><time>2026-04-04T16:20:14.043Z</time></trkpt><trkpt lat="43.4146879" lon="11.3500133"><ele>492.20000000000005</ele><time>2026-04-04T16:20:15.044Z</time></trkpt><trkpt lat="43.4146791" lon="11.3498576"><ele>491.6</ele><time>2026-04-04T16:20:16.044Z</time></trkpt><trkpt lat="43.4146777" lon="11.3497014"><ele>491.0</ele><time>2026-04-04T16:20:17.044Z</time></trkpt><trkpt lat="43.4146812" lon="11.3495443"><ele>491.0</ele><time>2026-04-04T16:20:18.044Z</time></trkpt><trkpt lat="43.4147143" lon="11.3494241"><ele>491.0</ele><time>2026-04-04T16:20:19.045Z</time></trkpt><trkpt lat="43.4147439" lon="11.3492881"><ele>491.0</ele><time>2026-04-04T16:20:20.045Z</time></trkpt><trkpt lat="43.4148047" lon="11.349168"><ele>491.0</ele><time>2026-04-04T16:20:21.044Z</time></trkpt><trkpt lat="43.414887" lon="11.3490663"><ele>491.0</ele><time>2026-04-04T16:20:22.043Z</time></trkpt><trkpt lat="43.4149806" lon="11.3489704"><ele>491.0</ele><time>2026-04-04T16:20:23.045Z</time></trkpt><trkpt lat="43.4150879" lon="11.3488965"><ele>491.0</ele><time>2026-04-04T16:20:24.045Z</time></trkpt><trkpt lat="43.4151878" lon="11.3488409"><ele>491.0</ele><time>2026-04-04T16:20:25.045Z</time></trkpt><trkpt lat="43.4152895" lon="11.3488671"><ele>491.0</ele><time>2026-04-04T16:20:26.044Z</time></trkpt><trkpt lat="43.4153975" lon="11.3488823"><ele>491.0</ele><time>2026-04-04T16:20:27.044Z</time></trkpt><trkpt lat="43.4154982" lon="11.3489218"><ele>490.75</ele><time>2026-04-04T16:20:28.045Z</time></trkpt><trkpt lat="43.4156194" lon="11.3489513"><ele>490.5</ele><time>2026-04-04T16:20:29.044Z</time></trkpt><trkpt lat="43.4157466" lon="11.3489627"><ele>490.25</ele><time>2026-04-04T16:20:30.044Z</time></trkpt><trkpt lat="43.4158639" lon="11.3489444"><ele>490.0</ele><time>2026-04-04T16:20:31.043Z</time></trkpt><trkpt lat="43.4159829" lon="11.3489219"><ele>490.0</ele><time>2026-04-04T16:20:32.044Z</time></trkpt><trkpt lat="43.4161154" lon="11.3488958"><ele>490.0</ele><time>2026-04-04T16:20:33.044Z</time></trkpt><trkpt lat="43.4162303" lon="11.3488705"><ele>490.0</ele><time>2026-04-04T16:20:34.044Z</time></trkpt><trkpt lat="43.4163582" lon="11.3488583"><ele>490.0</ele><time>2026-04-04T16:20:35.043Z</time></trkpt><trkpt lat="43.4164866" lon="11.3488392"><ele>493.75</ele><time>2026-04-04T16:20:36.044Z</time></trkpt><trkpt lat="43.4166156" lon="11.3488188"><ele>497.5</ele><time>2026-04-04T16:20:37.044Z</time></trkpt><trkpt lat="43.4167282" lon="11.3488033"><ele>501.25</ele><time>2026-04-04T16:20:38.044Z</time></trkpt><trkpt lat="43.4168361" lon="11.3487786"><ele>505.0</ele><time>2026-04-04T16:20:39.044Z</time></trkpt><trkpt lat="43.4169374" lon="11.3487538"><ele>505.00000000000006</ele><time>2026-04-04T16:20:40.043Z</time></trkpt><trkpt lat="43.417026" lon="11.3487079"><ele>505.0</ele><time>2026-04-04T16:20:41.044Z</time></trkpt><trkpt lat="43.4171021" lon="11.3486322"><ele>505.0</ele><time>2026-04-04T16:20:42.043Z</time></trkpt><trkpt lat="43.4171558" lon="11.3485464"><ele>505.0</ele><time>2026-04-04T16:20:43.044Z</time></trkpt><trkpt lat="43.4172009" lon="11.348439"><ele>505.00000000000006</ele><time>2026-04-04T16:20:44.044Z</time></trkpt><trkpt lat="43.4172306" lon="11.3483336"><ele>505.0</ele><time>2026-04-04T16:20:45.044Z</time></trkpt><trkpt lat="43.4172156" lon="11.3482034"><ele>506.2</ele><time>2026-04-04T16:20:46.044Z</time></trkpt><trkpt lat="43.4171931" lon="11.348064"><ele>507.4</ele><time>2026-04-04T16:20:47.043Z</time></trkpt><trkpt lat="43.4171637" lon="11.3479345"><ele>508.6</ele><time>2026-04-04T16:20:48.044Z</time></trkpt><trkpt lat="43.4171504" lon="11.3477871"><ele>509.8</ele><time>2026-04-04T16:20:49.045Z</time></trkpt><trkpt lat="43.4171517" lon="11.3476435"><ele>511.0</ele><time>2026-04-04T16:20:50.045Z</time></trkpt><trkpt lat="43.4171762" lon="11.3475087"><ele>511.0</ele><time>2026-04-04T16:20:51.043Z</time></trkpt><trkpt lat="43.4172195" lon="11.3473961"><ele>511.0</ele><time>2026-04-04T16:20:52.045Z</time></trkpt><trkpt lat="43.41729" lon="11.3472941"><ele>511.0</ele><time>2026-04-04T16:20:53.045Z</time></trkpt><trkpt lat="43.4173721" lon="11.347201"><ele>511.0</ele><time>2026-04-04T16:20:54.044Z</time></trkpt><trkpt lat="43.4174618" lon="11.3471043"><ele>511.0</ele><time>2026-04-04T16:20:55.044Z</time></trkpt><trkpt lat="43.4175591" lon="11.3470085"><ele>511.0</ele><time>2026-04-04T16:20:56.045Z</time></trkpt><trkpt lat="43.4176609" lon="11.3469033"><ele>511.0</ele><time>2026-04-04T16:20:57.044Z</time></trkpt><trkpt lat="43.4177684" lon="11.3468169"><ele>511.0</ele><time>2026-04-04T16:20:58.043Z</time></trkpt><trkpt lat="43.417892" lon="11.3467278"><ele>511.0</ele><time>2026-04-04T16:20:59.043Z</time></trkpt><trkpt lat="43.4180131" lon="11.3466535"><ele>508.0</ele><time>2026-04-04T16:21:00.044Z</time></trkpt><trkpt lat="43.4181413" lon="11.3465941"><ele>505.0</ele><time>2026-04-04T16:21:01.044Z</time></trkpt><trkpt lat="43.4182735" lon="11.3465472"><ele>502.0</ele><time>2026-04-04T16:21:02.044Z</time></trkpt><trkpt lat="43.4184094" lon="11.3465104"><ele>499.0</ele><time>2026-04-04T16:21:03.045Z</time></trkpt><trkpt lat="43.4185474" lon="11.3464894"><ele>499.0</ele><time>2026-04-04T16:21:04.045Z</time></trkpt><trkpt lat="43.4186815" lon="11.3464774"><ele>499.0</ele><time>2026-04-04T16:21:05.045Z</time></trkpt><trkpt lat="43.4188026" lon="11.3464903"><ele>499.0</ele><time>2026-04-04T16:21:06.044Z</time></trkpt><trkpt lat="43.4189118" lon="11.3465489"><ele>499.0</ele><time>2026-04-04T16:21:07.044Z</time></trkpt><trkpt lat="43.4190263" lon="11.3466254"><ele>499.5</ele><time>2026-04-04T16:21:08.044Z</time></trkpt><trkpt lat="43.4191343" lon="11.3467164"><ele>500.0</ele><time>2026-04-04T16:21:09.044Z</time></trkpt><trkpt lat="43.4192361" lon="11.3468011"><ele>500.5</ele><time>2026-04-04T16:21:10.044Z</time></trkpt><trkpt lat="43.4193514" lon="11.3468617"><ele>501.0</ele><time>2026-04-04T16:21:11.045Z</time></trkpt><trkpt lat="43.4194704" lon="11.3469269"><ele>501.0</ele><time>2026-04-04T16:21:12.045Z</time></trkpt><trkpt lat="43.4195887" lon="11.3469623"><ele>501.0</ele><time>2026-04-04T16:21:13.044Z</time></trkpt><trkpt lat="43.4197106" lon="11.3469689"><ele>501.0</ele><time>2026-04-04T16:21:14.045Z</time></trkpt><trkpt lat="43.4198306" lon="11.3469517"><ele>501.0</ele><time>2026-04-04T16:21:15.043Z</time></trkpt><trkpt lat="43.4199429" lon="11.3469485"><ele>502.20000000000005</ele><time>2026-04-04T16:21:16.045Z</time></trkpt><trkpt lat="43.4200486" lon="11.3469617"><ele>503.40000000000003</ele><time>2026-04-04T16:21:17.044Z</time></trkpt><trkpt lat="43.4201453" lon="11.347005"><ele>504.6</ele><time>2026-04-04T16:21:18.044Z</time></trkpt><trkpt lat="43.4202454" lon="11.347055"><ele>505.8</ele><time>2026-04-04T16:21:19.042Z</time></trkpt><trkpt lat="43.4203351" lon="11.3471167"><ele>507.0</ele><time>2026-04-04T16:21:20.042Z</time></trkpt><trkpt lat="43.4204199" lon="11.3471782"><ele>506.0</ele><time>2026-04-04T16:21:21.044Z</time></trkpt><trkpt lat="43.4204959" lon="11.3472223"><ele>505.0</ele><time>2026-04-04T16:21:22.045Z</time></trkpt><trkpt lat="43.4205723" lon="11.3472475"><ele>504.0</ele><time>2026-04-04T16:21:23.044Z</time></trkpt><trkpt lat="43.4206569" lon="11.3472537"><ele>503.0</ele><time>2026-04-04T16:21:24.044Z</time></trkpt><trkpt lat="43.4207527" lon="11.3472473"><ele>502.0</ele><time>2026-04-04T16:21:25.042Z</time></trkpt><trkpt lat="43.4208402" lon="11.3472506"><ele>501.0</ele><time>2026-04-04T16:21:26.043Z</time></trkpt><trkpt lat="43.4209201" lon="11.3472639"><ele>501.0</ele><time>2026-04-04T16:21:27.042Z</time></trkpt><trkpt lat="43.4209942" lon="11.3472763"><ele>501.0</ele><time>2026-04-04T16:21:28.044Z</time></trkpt><trkpt lat="43.4210639" lon="11.347295"><ele>501.0</ele><time>2026-04-04T16:21:29.045Z</time></trkpt><trkpt lat="43.4211246" lon="11.3473263"><ele>501.0</ele><time>2026-04-04T16:21:30.043Z</time></trkpt><trkpt lat="43.4212024" lon="11.3473561"><ele>501.0</ele><time>2026-04-04T16:21:32.045Z</time></trkpt><trkpt lat="43.4212741" lon="11.347403"><ele>501.0</ele><time>2026-04-04T16:21:34.044Z</time></trkpt><trkpt lat="43.4213654" lon="11.3474828"><ele>501.0</ele><time>2026-04-04T16:21:36.044Z</time></trkpt><trkpt lat="43.4214211" lon="11.3475875"><ele>501.0</ele><time>2026-04-04T16:21:38.043Z</time></trkpt><trkpt lat="43.421458" lon="11.3477544"><ele>501.0</ele><time>2026-04-04T16:21:40.044Z</time></trkpt><trkpt lat="43.4214551" lon="11.3478601"><ele>501.0</ele><time>2026-04-04T16:21:41.045Z</time></trkpt><trkpt lat="43.4214474" lon="11.3479792"><ele>501.0</ele><time>2026-04-04T16:21:42.045Z</time></trkpt><trkpt lat="43.4214322" lon="11.3481111"><ele>501.6</ele><time>2026-04-04T16:21:43.043Z</time></trkpt><trkpt lat="43.4214166" lon="11.3482482"><ele>502.20000000000005</ele><time>2026-04-04T16:21:44.043Z</time></trkpt><trkpt lat="43.4214012" lon="11.348401"><ele>502.79999999999995</ele><time>2026-04-04T16:21:45.043Z</time></trkpt><trkpt lat="43.421378" lon="11.3485461"><ele>503.4</ele><time>2026-04-04T16:21:46.042Z</time></trkpt><trkpt lat="43.4213713" lon="11.3487066"><ele>504.0</ele><time>2026-04-04T16:21:47.042Z</time></trkpt><trkpt lat="43.4213677" lon="11.348849"><ele>503.0</ele><time>2026-04-04T16:21:48.044Z</time></trkpt><trkpt lat="43.4213645" lon="11.3489863"><ele>502.0</ele><time>2026-04-04T16:21:49.043Z</time></trkpt><trkpt lat="43.421361" lon="11.3491177"><ele>501.0</ele><time>2026-04-04T16:21:50.044Z</time></trkpt><trkpt lat="43.4213673" lon="11.3492426"><ele>500.0</ele><time>2026-04-04T16:21:51.043Z</time></trkpt><trkpt lat="43.4213826" lon="11.349353"><ele>499.0</ele><time>2026-04-04T16:21:52.045Z</time></trkpt><trkpt lat="43.4214134" lon="11.3494423"><ele>498.0</ele><time>2026-04-04T16:21:53.044Z</time></trkpt><trkpt lat="43.4214657" lon="11.3495041"><ele>498.0</ele><time>2026-04-04T16:21:54.044Z</time></trkpt><trkpt lat="43.4215271" lon="11.3495503"><ele>498.0</ele><time>2026-04-04T16:21:55.043Z</time></trkpt><trkpt lat="43.4216043" lon="11.349569"><ele>498.0</ele><time>2026-04-04T16:21:56.044Z</time></trkpt><trkpt lat="43.4216887" lon="11.3495553"><ele>498.0</ele><time>2026-04-04T16:21:57.045Z</time></trkpt><trkpt lat="43.4217768" lon="11.3495406"><ele>498.0</ele><time>2026-04-04T16:21:58.044Z</time></trkpt><trkpt lat="43.4218742" lon="11.3495252"><ele>498.0</ele><time>2026-04-04T16:21:59.044Z</time></trkpt><trkpt lat="43.4219746" lon="11.3495533"><ele>498.0</ele><time>2026-04-04T16:22:00.044Z</time></trkpt><trkpt lat="43.4220505" lon="11.3496147"><ele>497.99999999999994</ele><time>2026-04-04T16:22:01.045Z</time></trkpt><trkpt lat="43.4221311" lon="11.3496637"><ele>497.99999999999994</ele><time>2026-04-04T16:22:02.043Z</time></trkpt><trkpt lat="43.4221889" lon="11.3497654"><ele>498.0</ele><time>2026-04-04T16:22:03.043Z</time></trkpt><trkpt lat="43.4222655" lon="11.3498417"><ele>498.0</ele><time>2026-04-04T16:22:04.044Z</time></trkpt><trkpt lat="43.4223448" lon="11.349889"><ele>495.6666666666667</ele><time>2026-04-04T16:22:05.045Z</time></trkpt><trkpt lat="43.4224246" lon="11.3499325"><ele>493.33333333333337</ele><time>2026-04-04T16:22:06.045Z</time></trkpt><trkpt lat="43.4224999" lon="11.349981"><ele>491.0</ele><time>2026-04-04T16:22:07.044Z</time></trkpt><trkpt lat="43.4225825" lon="11.350044"><ele>488.6666666666667</ele><time>2026-04-04T16:22:08.043Z</time></trkpt><trkpt lat="43.4226563" lon="11.3500948"><ele>486.33333333333337</ele><time>2026-04-04T16:22:09.044Z</time></trkpt><trkpt lat="43.4227189" lon="11.3501675"><ele>484.0</ele><time>2026-04-04T16:22:10.045Z</time></trkpt><trkpt lat="43.4227994" lon="11.3502444"><ele>484.0</ele><time>2026-04-04T16:22:11.044Z</time></trkpt><trkpt lat="43.4228406" lon="11.3503367"><ele>484.0</ele><time>2026-04-04T16:22:12.043Z</time></trkpt><trkpt lat="43.4228814" lon="11.3504084"><ele>484.0</ele><time>2026-04-04T16:22:13.044Z</time></trkpt><trkpt lat="43.4229314" lon="11.3505544"><ele>484.0</ele><time>2026-04-04T16:22:16.044Z</time></trkpt><trkpt lat="43.4229914" lon="11.3506381"><ele>484.0</ele><time>2026-04-04T16:22:18.044Z</time></trkpt><trkpt lat="43.4230792" lon="11.3505305"><ele>482.4</ele><time>2026-04-04T16:22:21.042Z</time></trkpt><trkpt lat="43.4231681" lon="11.3504403"><ele>480.79999999999995</ele><time>2026-04-04T16:22:23.043Z</time></trkpt><trkpt lat="43.4232665" lon="11.350356"><ele>479.20000000000005</ele><time>2026-04-04T16:22:25.042Z</time></trkpt><trkpt lat="43.4234062" lon="11.3503105"><ele>477.6</ele><time>2026-04-04T16:22:27.043Z</time></trkpt><trkpt lat="43.4234682" lon="11.3502939"><ele>476.0</ele><time>2026-04-04T16:22:28.044Z</time></trkpt><trkpt lat="43.4235461" lon="11.3503013"><ele>475.99999999999994</ele><time>2026-04-04T16:22:29.045Z</time></trkpt><trkpt lat="43.4236384" lon="11.3502841"><ele>476.0</ele><time>2026-04-04T16:22:30.042Z</time></trkpt><trkpt lat="43.423722" lon="11.3502573"><ele>476.0</ele><time>2026-04-04T16:22:31.044Z</time></trkpt><trkpt lat="43.4237908" lon="11.3502316"><ele>476.0</ele><time>2026-04-04T16:22:32.043Z</time></trkpt><trkpt lat="43.4238613" lon="11.350228"><ele>475.99999999999994</ele><time>2026-04-04T16:22:33.043Z</time></trkpt><trkpt lat="43.4239258" lon="11.3502684"><ele>476.0</ele><time>2026-04-04T16:22:34.043Z</time></trkpt><trkpt lat="43.4240096" lon="11.3503966"><ele>473.99999999999994</ele><time>2026-04-04T16:22:36.044Z</time></trkpt><trkpt lat="43.4240258" lon="11.3504909"><ele>472.0</ele><time>2026-04-04T16:22:37.044Z</time></trkpt><trkpt lat="43.4240081" lon="11.3506146"><ele>470.0</ele><time>2026-04-04T16:22:38.043Z</time></trkpt><trkpt lat="43.4240087" lon="11.3507342"><ele>468.0</ele><time>2026-04-04T16:22:39.043Z</time></trkpt><trkpt lat="43.4240087" lon="11.3508519"><ele>465.99999999999994</ele><time>2026-04-04T16:22:40.043Z</time></trkpt><trkpt lat="43.424005" lon="11.350975"><ele>464.0</ele><time>2026-04-04T16:22:41.043Z</time></trkpt><trkpt lat="43.4239939" lon="11.3511117"><ele>461.79999999999995</ele><time>2026-04-04T16:22:42.043Z</time></trkpt><trkpt lat="43.4239693" lon="11.3512352"><ele>459.59999999999997</ele><time>2026-04-04T16:22:43.042Z</time></trkpt><trkpt lat="43.423932" lon="11.3513753"><ele>457.4</ele><time>2026-04-04T16:22:44.044Z</time></trkpt><trkpt lat="43.4238948" lon="11.3515033"><ele>455.2</ele><time>2026-04-04T16:22:45.044Z</time></trkpt><trkpt lat="43.4238524" lon="11.3516361"><ele>453.0</ele><time>2026-04-04T16:22:46.043Z</time></trkpt><trkpt lat="43.423799" lon="11.3517443"><ele>452.1666666666667</ele><time>2026-04-04T16:22:47.043Z</time></trkpt><trkpt lat="43.4237588" lon="11.3518722"><ele>451.33333333333337</ele><time>2026-04-04T16:22:48.044Z</time></trkpt><trkpt lat="43.4237307" lon="11.351979"><ele>450.5</ele><time>2026-04-04T16:22:49.044Z</time></trkpt><trkpt lat="43.4237064" lon="11.3520816"><ele>449.6666666666667</ele><time>2026-04-04T16:22:50.043Z</time></trkpt><trkpt lat="43.4236918" lon="11.3521925"><ele>448.83333333333337</ele><time>2026-04-04T16:22:51.044Z</time></trkpt><trkpt lat="43.4236952" lon="11.3523096"><ele>448.0</ele><time>2026-04-04T16:22:52.043Z</time></trkpt><trkpt lat="43.4236989" lon="11.352437"><ele>447.0</ele><time>2026-04-04T16:22:53.044Z</time></trkpt><trkpt lat="43.4237017" lon="11.3525676"><ele>445.99999999999994</ele><time>2026-04-04T16:22:54.044Z</time></trkpt><trkpt lat="43.4237222" lon="11.3527091"><ele>444.99999999999994</ele><time>2026-04-04T16:22:55.044Z</time></trkpt><trkpt lat="43.4237349" lon="11.3528479"><ele>444.0</ele><time>2026-04-04T16:22:56.043Z</time></trkpt><trkpt lat="43.4237536" lon="11.3529818"><ele>443.0</ele><time>2026-04-04T16:22:57.043Z</time></trkpt><trkpt lat="43.4237729" lon="11.3531157"><ele>443.79999999999995</ele><time>2026-04-04T16:22:58.044Z</time></trkpt><trkpt lat="43.4237856" lon="11.3532453"><ele>444.59999999999997</ele><time>2026-04-04T16:22:59.043Z</time></trkpt><trkpt lat="43.4237973" lon="11.3533629"><ele>445.40000000000003</ele><time>2026-04-04T16:23:00.042Z</time></trkpt><trkpt lat="43.4238191" lon="11.3534999"><ele>446.20000000000005</ele><time>2026-04-04T16:23:01.043Z</time></trkpt><trkpt lat="43.4238437" lon="11.3536349"><ele>447.0</ele><time>2026-04-04T16:23:02.045Z</time></trkpt><trkpt lat="43.4238477" lon="11.3537631"><ele>444.6</ele><time>2026-04-04T16:23:03.045Z</time></trkpt><trkpt lat="43.423858" lon="11.3538873"><ele>442.20000000000005</ele><time>2026-04-04T16:23:04.044Z</time></trkpt><trkpt lat="43.4238663" lon="11.3540039"><ele>439.8</ele><time>2026-04-04T16:23:05.043Z</time></trkpt><trkpt lat="43.4238805" lon="11.3541157"><ele>437.4</ele><time>2026-04-04T16:23:06.043Z</time></trkpt><trkpt lat="43.4239019" lon="11.3542218"><ele>435.0</ele><time>2026-04-04T16:23:07.043Z</time></trkpt><trkpt lat="43.4239845" lon="11.3543682"><ele>435.0</ele><time>2026-04-04T16:23:09.043Z</time></trkpt><trkpt lat="43.4240273" lon="11.3544595"><ele>435.0</ele><time>2026-04-04T16:23:10.043Z</time></trkpt><trkpt lat="43.4240732" lon="11.3545518"><ele>435.0</ele><time>2026-04-04T16:23:11.044Z</time></trkpt><trkpt lat="43.4241194" lon="11.3546251"><ele>435.0</ele><time>2026-04-04T16:23:12.045Z</time></trkpt><trkpt lat="43.4241674" lon="11.3546936"><ele>435.0</ele><time>2026-04-04T16:23:13.042Z</time></trkpt><trkpt lat="43.4242339" lon="11.3547522"><ele>435.0</ele><time>2026-04-04T16:23:14.042Z</time></trkpt><trkpt lat="43.4243069" lon="11.3547989"><ele>432.8</ele><time>2026-04-04T16:23:15.044Z</time></trkpt><trkpt lat="43.4243962" lon="11.3548328"><ele>430.6</ele><time>2026-04-04T16:23:16.044Z</time></trkpt><trkpt lat="43.4245056" lon="11.3548466"><ele>428.4</ele><time>2026-04-04T16:23:17.044Z</time></trkpt><trkpt lat="43.4246072" lon="11.3548501"><ele>426.2</ele><time>2026-04-04T16:23:18.043Z</time></trkpt><trkpt lat="43.4247022" lon="11.3548627"><ele>424.0</ele><time>2026-04-04T16:23:19.043Z</time></trkpt><trkpt lat="43.4247775" lon="11.3548727"><ele>424.0</ele><time>2026-04-04T16:23:20.043Z</time></trkpt><trkpt lat="43.424848" lon="11.3548788"><ele>424.0</ele><time>2026-04-04T16:23:21.043Z</time></trkpt><trkpt lat="43.4249148" lon="11.3548627"><ele>424.0</ele><time>2026-04-04T16:23:22.044Z</time></trkpt><trkpt lat="43.425011" lon="11.3547796"><ele>424.0</ele><time>2026-04-04T16:23:24.043Z</time></trkpt><trkpt lat="43.4250612" lon="11.3545947"><ele>424.0</ele><time>2026-04-04T16:23:26.045Z</time></trkpt><trkpt lat="43.4250824" lon="11.3544964"><ele>424.1666666666667</ele><time>2026-04-04T16:23:27.042Z</time></trkpt><trkpt lat="43.425122" lon="11.3544213"><ele>424.33333333333337</ele><time>2026-04-04T16:23:28.044Z</time></trkpt><trkpt lat="43.4252025" lon="11.3544352"><ele>424.5</ele><time>2026-04-04T16:23:29.043Z</time></trkpt><trkpt lat="43.4252807" lon="11.3544247"><ele>424.66666666666663</ele><time>2026-04-04T16:23:30.043Z</time></trkpt><trkpt lat="43.4253601" lon="11.354389"><ele>424.8333333333333</ele><time>2026-04-04T16:23:31.043Z</time></trkpt><trkpt lat="43.4254342" lon="11.3543689"><ele>425.0</ele><time>2026-04-04T16:23:32.043Z</time></trkpt><trkpt lat="43.4255094" lon="11.3543404"><ele>421.99999999999994</ele><time>2026-04-04T16:23:33.044Z</time></trkpt><trkpt lat="43.4255884" lon="11.3543037"><ele>419.0</ele><time>2026-04-04T16:23:34.044Z</time></trkpt><trkpt lat="43.4256374" lon="11.3542144"><ele>416.0</ele><time>2026-04-04T16:23:35.043Z</time></trkpt><trkpt lat="43.4256814" lon="11.3541234"><ele>413.0</ele><time>2026-04-04T16:23:36.044Z</time></trkpt><trkpt lat="43.4257187" lon="11.3540102"><ele>409.99999999999994</ele><time>2026-04-04T16:23:37.044Z</time></trkpt><trkpt lat="43.4257565" lon="11.3538955"><ele>407.0</ele><time>2026-04-04T16:23:38.042Z</time></trkpt><trkpt lat="43.4257785" lon="11.3537687"><ele>405.66666666666663</ele><time>2026-04-04T16:23:39.042Z</time></trkpt><trkpt lat="43.4258021" lon="11.3536626"><ele>404.3333333333333</ele><time>2026-04-04T16:23:40.044Z</time></trkpt><trkpt lat="43.4258075" lon="11.3535515"><ele>403.0</ele><time>2026-04-04T16:23:41.043Z</time></trkpt><trkpt lat="43.4258176" lon="11.3534361"><ele>401.66666666666663</ele><time>2026-04-04T16:23:42.044Z</time></trkpt><trkpt lat="43.4258109" lon="11.3533256"><ele>400.3333333333333</ele><time>2026-04-04T16:23:43.043Z</time></trkpt><trkpt lat="43.4258125" lon="11.3532264"><ele>399.0</ele><time>2026-04-04T16:23:44.043Z</time></trkpt><trkpt lat="43.4258318" lon="11.3530455"><ele>399.3333333333333</ele><time>2026-04-04T16:23:46.043Z</time></trkpt><trkpt lat="43.4258596" lon="11.3529425"><ele>399.66666666666663</ele><time>2026-04-04T16:23:47.045Z</time></trkpt><trkpt lat="43.4258684" lon="11.3528331"><ele>400.0</ele><time>2026-04-04T16:23:48.043Z</time></trkpt><trkpt lat="43.4259117" lon="11.352738"><ele>400.3333333333333</ele><time>2026-04-04T16:23:49.044Z</time></trkpt><trkpt lat="43.4259461" lon="11.3526339"><ele>400.66666666666663</ele><time>2026-04-04T16:23:50.045Z</time></trkpt><trkpt lat="43.4259657" lon="11.3525052"><ele>401.0</ele><time>2026-04-04T16:23:51.044Z</time></trkpt><trkpt lat="43.4259743" lon="11.3523835"><ele>400.99999999999994</ele><time>2026-04-04T16:23:52.044Z</time></trkpt><trkpt lat="43.4260077" lon="11.3522856"><ele>401.0</ele><time>2026-04-04T16:23:53.044Z</time></trkpt><trkpt lat="43.4260508" lon="11.3521825"><ele>401.0</ele><time>2026-04-04T16:23:54.043Z</time></trkpt><trkpt lat="43.426086" lon="11.3520893"><ele>401.0</ele><time>2026-04-04T16:23:55.043Z</time></trkpt><trkpt lat="43.426146" lon="11.3519907"><ele>400.99999999999994</ele><time>2026-04-04T16:23:56.043Z</time></trkpt><trkpt lat="43.4262358" lon="11.3519085"><ele>401.0</ele><time>2026-04-04T16:23:57.044Z</time></trkpt><trkpt lat="43.4263142" lon="11.3518362"><ele>399.6</ele><time>2026-04-04T16:23:58.043Z</time></trkpt><trkpt lat="43.4264103" lon="11.351696"><ele>398.20000000000005</ele><time>2026-04-04T16:24:00.042Z</time></trkpt><trkpt lat="43.4264673" lon="11.3516362"><ele>396.79999999999995</ele><time>2026-04-04T16:24:01.043Z</time></trkpt><trkpt lat="43.426523" lon="11.3515734"><ele>395.4</ele><time>2026-04-04T16:24:02.042Z</time></trkpt><trkpt lat="43.4266058" lon="11.3514391"><ele>394.0</ele><time>2026-04-04T16:24:04.044Z</time></trkpt><trkpt lat="43.4266669" lon="11.351351"><ele>394.0</ele><time>2026-04-04T16:24:05.042Z</time></trkpt><trkpt lat="43.4267233" lon="11.3511764"><ele>394.0</ele><time>2026-04-04T16:24:07.042Z</time></trkpt><trkpt lat="43.4267603" lon="11.3510837"><ele>394.0</ele><time>2026-04-04T16:24:08.043Z</time></trkpt><trkpt lat="43.4267938" lon="11.350957"><ele>394.0</ele><time>2026-04-04T16:24:09.044Z</time></trkpt><trkpt lat="43.4268278" lon="11.3508639"><ele>394.0</ele><time>2026-04-04T16:24:10.043Z</time></trkpt><trkpt lat="43.4268704" lon="11.3507956"><ele>394.0</ele><time>2026-04-04T16:24:11.043Z</time></trkpt><trkpt lat="43.4269043" lon="11.3507114"><ele>394.0</ele><time>2026-04-04T16:24:12.043Z</time></trkpt><trkpt lat="43.4269539" lon="11.3506327"><ele>394.0</ele><time>2026-04-04T16:24:13.045Z</time></trkpt><trkpt lat="43.4270093" lon="11.3505618"><ele>394.0</ele><time>2026-04-04T16:24:14.043Z</time></trkpt><trkpt lat="43.427059" lon="11.3505031"><ele>394.0</ele><time>2026-04-04T16:24:15.044Z</time></trkpt><trkpt lat="43.4271211" lon="11.3504612"><ele>394.0</ele><time>2026-04-04T16:24:16.045Z</time></trkpt><trkpt lat="43.4271769" lon="11.3504159"><ele>394.0</ele><time>2026-04-04T16:24:17.042Z</time></trkpt><trkpt lat="43.4272623" lon="11.3504183"><ele>390.79999999999995</ele><time>2026-04-04T16:24:18.044Z</time></trkpt><trkpt lat="43.4273446" lon="11.3504006"><ele>387.59999999999997</ele><time>2026-04-04T16:24:19.044Z</time></trkpt><trkpt lat="43.4274365" lon="11.3503944"><ele>384.4</ele><time>2026-04-04T16:24:20.044Z</time></trkpt><trkpt lat="43.4275273" lon="11.3503635"><ele>381.2</ele><time>2026-04-04T16:24:21.043Z</time></trkpt><trkpt lat="43.4276144" lon="11.3503293"><ele>378.0</ele><time>2026-04-04T16:24:22.044Z</time></trkpt><trkpt lat="43.4277086" lon="11.3502799"><ele>378.0</ele><time>2026-04-04T16:24:23.044Z</time></trkpt><trkpt lat="43.4277971" lon="11.3502204"><ele>378.0</ele><time>2026-04-04T16:24:24.043Z</time></trkpt><trkpt lat="43.427894" lon="11.3501633"><ele>378.0</ele><time>2026-04-04T16:24:25.042Z</time></trkpt><trkpt lat="43.427978" lon="11.3501252"><ele>378.0</ele><time>2026-04-04T16:24:26.042Z</time></trkpt><trkpt lat="43.428056" lon="11.3500765"><ele>378.0</ele><time>2026-04-04T16:24:27.043Z</time></trkpt><trkpt lat="43.4281373" lon="11.3500438"><ele>377.8333333333333</ele><time>2026-04-04T16:24:28.043Z</time></trkpt><trkpt lat="43.4282093" lon="11.3500274"><ele>377.6666666666667</ele><time>2026-04-04T16:24:29.043Z</time></trkpt><trkpt lat="43.4282888" lon="11.3500353"><ele>377.5</ele><time>2026-04-04T16:24:30.043Z</time></trkpt><trkpt lat="43.4283691" lon="11.3500446"><ele>377.33333333333337</ele><time>2026-04-04T16:24:31.042Z</time></trkpt><trkpt lat="43.4284564" lon="11.3500631"><ele>377.1666666666667</ele><time>2026-04-04T16:24:32.043Z</time></trkpt><trkpt lat="43.4285416" lon="11.3501029"><ele>377.0</ele><time>2026-04-04T16:24:33.043Z</time></trkpt><trkpt lat="43.4286087" lon="11.3501396"><ele>377.0</ele><time>2026-04-04T16:24:34.043Z</time></trkpt><trkpt lat="43.428668" lon="11.3501796"><ele>377.0</ele><time>2026-04-04T16:24:35.044Z</time></trkpt><trkpt lat="43.4287875" lon="11.3502702"><ele>377.0</ele><time>2026-04-04T16:24:37.043Z</time></trkpt><trkpt lat="43.4288582" lon="11.3503217"><ele>377.0</ele><time>2026-04-04T16:24:38.042Z</time></trkpt><trkpt lat="43.4289329" lon="11.3503812"><ele>377.0</ele><time>2026-04-04T16:24:39.042Z</time></trkpt><trkpt lat="43.4290069" lon="11.3504352"><ele>377.0</ele><time>2026-04-04T16:24:40.043Z</time></trkpt><trkpt lat="43.4290849" lon="11.3504957"><ele>377.0</ele><time>2026-04-04T16:24:41.042Z</time></trkpt><trkpt lat="43.4291795" lon="11.3505482"><ele>377.0</ele><time>2026-04-04T16:24:42.043Z</time></trkpt><trkpt lat="43.4292604" lon="11.3506045"><ele>377.0</ele><time>2026-04-04T16:24:43.043Z</time></trkpt><trkpt lat="43.429351" lon="11.3506696"><ele>377.0</ele><time>2026-04-04T16:24:44.044Z</time></trkpt><trkpt lat="43.4294285" lon="11.3507294"><ele>377.40000000000003</ele><time>2026-04-04T16:24:45.043Z</time></trkpt><trkpt lat="43.4295106" lon="11.3507868"><ele>377.8</ele><time>2026-04-04T16:24:46.043Z</time></trkpt><trkpt lat="43.4295981" lon="11.3508245"><ele>378.2</ele><time>2026-04-04T16:24:47.044Z</time></trkpt><trkpt lat="43.4296919" lon="11.3508519"><ele>378.6</ele><time>2026-04-04T16:24:48.042Z</time></trkpt><trkpt lat="43.4297956" lon="11.3508666"><ele>379.0</ele><time>2026-04-04T16:24:49.043Z</time></trkpt><trkpt lat="43.4299076" lon="11.3508735"><ele>379.0</ele><time>2026-04-04T16:24:50.042Z</time></trkpt><trkpt lat="43.430007" lon="11.3508628"><ele>379.0</ele><time>2026-04-04T16:24:51.043Z</time></trkpt><trkpt lat="43.4301034" lon="11.3508576"><ele>379.0</ele><time>2026-04-04T16:24:52.043Z</time></trkpt><trkpt lat="43.4302109" lon="11.3508492"><ele>379.0</ele><time>2026-04-04T16:24:53.044Z</time></trkpt><trkpt lat="43.4303165" lon="11.3508486"><ele>379.0</ele><time>2026-04-04T16:24:54.043Z</time></trkpt><trkpt lat="43.4304261" lon="11.3508553"><ele>379.6</ele><time>2026-04-04T16:24:55.043Z</time></trkpt><trkpt lat="43.4305377" lon="11.3508712"><ele>380.2</ele><time>2026-04-04T16:24:56.044Z</time></trkpt><trkpt lat="43.4306479" lon="11.3508901"><ele>380.8</ele><time>2026-04-04T16:24:57.042Z</time></trkpt><trkpt lat="43.4307597" lon="11.3508959"><ele>381.40000000000003</ele><time>2026-04-04T16:24:58.044Z</time></trkpt><trkpt lat="43.4308604" lon="11.3508856"><ele>382.0</ele><time>2026-04-04T16:24:59.043Z</time></trkpt><trkpt lat="43.4309848" lon="11.3508525"><ele>382.0</ele><time>2026-04-04T16:25:00.044Z</time></trkpt><trkpt lat="43.4310939" lon="11.3507867"><ele>382.0</ele><time>2026-04-04T16:25:01.044Z</time></trkpt><trkpt lat="43.4311915" lon="11.3507386"><ele>382.0</ele><time>2026-04-04T16:25:02.042Z</time></trkpt><trkpt lat="43.4312845" lon="11.3506986"><ele>382.0</ele><time>2026-04-04T16:25:03.043Z</time></trkpt><trkpt lat="43.4313581" lon="11.3506888"><ele>382.0</ele><time>2026-04-04T16:25:04.043Z</time></trkpt><trkpt lat="43.4314249" lon="11.3506775"><ele>384.0</ele><time>2026-04-04T16:25:05.043Z</time></trkpt><trkpt lat="43.4314829" lon="11.3507262"><ele>386.0</ele><time>2026-04-04T16:25:06.044Z</time></trkpt><trkpt lat="43.4315308" lon="11.3507831"><ele>388.0</ele><time>2026-04-04T16:25:07.043Z</time></trkpt><trkpt lat="43.431576" lon="11.3508555"><ele>390.0</ele><time>2026-04-04T16:25:08.041Z</time></trkpt><trkpt lat="43.431631" lon="11.3509349"><ele>392.0</ele><time>2026-04-04T16:25:09.043Z</time></trkpt><trkpt lat="43.4316878" lon="11.3510148"><ele>394.0</ele><time>2026-04-04T16:25:10.042Z</time></trkpt><trkpt lat="43.431742" lon="11.3510802"><ele>396.0</ele><time>2026-04-04T16:25:11.042Z</time></trkpt><trkpt lat="43.4318036" lon="11.3511362"><ele>396.0</ele><time>2026-04-04T16:25:12.042Z</time></trkpt><trkpt lat="43.4318846" lon="11.3512204"><ele>396.0</ele><time>2026-04-04T16:25:14.042Z</time></trkpt><trkpt lat="43.4319916" lon="11.3512906"><ele>396.0</ele><time>2026-04-04T16:25:16.042Z</time></trkpt><trkpt lat="43.432053" lon="11.3513161"><ele>396.0</ele><time>2026-04-04T16:25:17.044Z</time></trkpt><trkpt lat="43.432139" lon="11.3513396"><ele>396.0</ele><time>2026-04-04T16:25:18.044Z</time></trkpt><trkpt lat="43.4322314" lon="11.3513476"><ele>396.1666666666667</ele><time>2026-04-04T16:25:19.042Z</time></trkpt><trkpt lat="43.4323326" lon="11.3513564"><ele>396.33333333333337</ele><time>2026-04-04T16:25:20.042Z</time></trkpt><trkpt lat="43.4324324" lon="11.3513652"><ele>396.5</ele><time>2026-04-04T16:25:21.043Z</time></trkpt><trkpt lat="43.4325041" lon="11.3513745"><ele>396.6666666666667</ele><time>2026-04-04T16:25:22.044Z</time></trkpt><trkpt lat="43.4325897" lon="11.3513814"><ele>396.83333333333337</ele><time>2026-04-04T16:25:23.042Z</time></trkpt><trkpt lat="43.4326653" lon="11.3513733"><ele>397.0</ele><time>2026-04-04T16:25:24.043Z</time></trkpt><trkpt lat="43.4327329" lon="11.3513513"><ele>397.00000000000006</ele><time>2026-04-04T16:25:25.044Z</time></trkpt><trkpt lat="43.4327979" lon="11.3513197"><ele>397.0</ele><time>2026-04-04T16:25:26.042Z</time></trkpt><trkpt lat="43.4328636" lon="11.3512882"><ele>397.0</ele><time>2026-04-04T16:25:27.041Z</time></trkpt><trkpt lat="43.4329456" lon="11.3512387"><ele>397.0</ele><time>2026-04-04T16:25:28.042Z</time></trkpt><trkpt lat="43.4330288" lon="11.3511703"><ele>397.00000000000006</ele><time>2026-04-04T16:25:29.043Z</time></trkpt><trkpt lat="43.4331053" lon="11.3511122"><ele>397.0</ele><time>2026-04-04T16:25:30.044Z</time></trkpt><trkpt lat="43.4331908" lon="11.3510283"><ele>393.8</ele><time>2026-04-04T16:25:31.042Z</time></trkpt><trkpt lat="43.4332787" lon="11.3509604"><ele>390.6</ele><time>2026-04-04T16:25:32.043Z</time></trkpt><trkpt lat="43.4333686" lon="11.3508846"><ele>387.40000000000003</ele><time>2026-04-04T16:25:33.042Z</time></trkpt><trkpt lat="43.4334533" lon="11.3508038"><ele>384.20000000000005</ele><time>2026-04-04T16:25:34.042Z</time></trkpt><trkpt lat="43.4335396" lon="11.3507255"><ele>381.0</ele><time>2026-04-04T16:25:35.044Z</time></trkpt><trkpt lat="43.4336187" lon="11.350638"><ele>381.0</ele><time>2026-04-04T16:25:36.044Z</time></trkpt><trkpt lat="43.4336907" lon="11.3505509"><ele>381.0</ele><time>2026-04-04T16:25:37.043Z</time></trkpt><trkpt lat="43.433767" lon="11.3504687"><ele>381.0</ele><time>2026-04-04T16:25:38.043Z</time></trkpt><trkpt lat="43.4338344" lon="11.3503889"><ele>381.0</ele><time>2026-04-04T16:25:39.042Z</time></trkpt><trkpt lat="43.4338903" lon="11.3503239"><ele>381.0</ele><time>2026-04-04T16:25:40.044Z</time></trkpt><trkpt lat="43.4339482" lon="11.3502555"><ele>381.0</ele><time>2026-04-04T16:25:41.043Z</time></trkpt><trkpt lat="43.4340146" lon="11.3501766"><ele>381.1666666666667</ele><time>2026-04-04T16:25:42.042Z</time></trkpt><trkpt lat="43.4340849" lon="11.3500987"><ele>381.3333333333333</ele><time>2026-04-04T16:25:43.044Z</time></trkpt><trkpt lat="43.4341583" lon="11.350018"><ele>381.5</ele><time>2026-04-04T16:25:44.043Z</time></trkpt><trkpt lat="43.4342162" lon="11.3499409"><ele>381.66666666666663</ele><time>2026-04-04T16:25:45.043Z</time></trkpt><trkpt lat="43.4342731" lon="11.3498796"><ele>381.8333333333333</ele><time>2026-04-04T16:25:46.043Z</time></trkpt><trkpt lat="43.4343127" lon="11.3498062"><ele>382.0</ele><time>2026-04-04T16:25:47.043Z</time></trkpt><trkpt lat="43.43435" lon="11.3497295"><ele>383.66666666666663</ele><time>2026-04-04T16:25:48.042Z</time></trkpt><trkpt lat="43.4343887" lon="11.3496383"><ele>385.3333333333333</ele><time>2026-04-04T16:25:49.043Z</time></trkpt><trkpt lat="43.4344316" lon="11.3495294"><ele>387.0</ele><time>2026-04-04T16:25:50.043Z</time></trkpt><trkpt lat="43.4344696" lon="11.3494321"><ele>388.66666666666663</ele><time>2026-04-04T16:25:51.044Z</time></trkpt><trkpt lat="43.4345055" lon="11.3493221"><ele>390.3333333333333</ele><time>2026-04-04T16:25:52.042Z</time></trkpt><trkpt lat="43.4345398" lon="11.3492274"><ele>392.0</ele><time>2026-04-04T16:25:53.043Z</time></trkpt><trkpt lat="43.4345877" lon="11.3490596"><ele>392.0</ele><time>2026-04-04T16:25:55.042Z</time></trkpt><trkpt lat="43.4346307" lon="11.3489093"><ele>392.0</ele><time>2026-04-04T16:25:57.043Z</time></trkpt><trkpt lat="43.4347204" lon="11.3487546"><ele>392.0</ele><time>2026-04-04T16:25:59.043Z</time></trkpt><trkpt lat="43.4347888" lon="11.348711"><ele>392.0</ele><time>2026-04-04T16:26:00.041Z</time></trkpt><trkpt lat="43.4348654" lon="11.3486829"><ele>392.0</ele><time>2026-04-04T16:26:01.042Z</time></trkpt><trkpt lat="43.4349427" lon="11.3486791"><ele>390.40000000000003</ele><time>2026-04-04T16:26:02.042Z</time></trkpt><trkpt lat="43.4350641" lon="11.348745"><ele>388.8</ele><time>2026-04-04T16:26:04.043Z</time></trkpt><trkpt lat="43.4351275" lon="11.3487643"><ele>387.2</ele><time>2026-04-04T16:26:05.043Z</time></trkpt><trkpt lat="43.4352498" lon="11.3487711"><ele>385.6</ele><time>2026-04-04T16:26:07.044Z</time></trkpt><trkpt lat="43.4353228" lon="11.3487694"><ele>384.0</ele><time>2026-04-04T16:26:08.043Z</time></trkpt><trkpt lat="43.4353916" lon="11.3487521"><ele>384.0</ele><time>2026-04-04T16:26:09.042Z</time></trkpt><trkpt lat="43.4354579" lon="11.3487328"><ele>384.0</ele><time>2026-04-04T16:26:10.042Z</time></trkpt><trkpt lat="43.4355251" lon="11.3487043"><ele>384.0</ele><time>2026-04-04T16:26:11.042Z</time></trkpt><trkpt lat="43.435603" lon="11.3486634"><ele>384.0</ele><time>2026-04-04T16:26:12.042Z</time></trkpt><trkpt lat="43.4356861" lon="11.3486443"><ele>384.0</ele><time>2026-04-04T16:26:13.042Z</time></trkpt><trkpt lat="43.4357688" lon="11.3486429"><ele>384.0</ele><time>2026-04-04T16:26:14.042Z</time></trkpt><trkpt lat="43.4358581" lon="11.3486562"><ele>383.8333333333333</ele><time>2026-04-04T16:26:15.043Z</time></trkpt><trkpt lat="43.4359411" lon="11.3486794"><ele>383.6666666666667</ele><time>2026-04-04T16:26:16.043Z</time></trkpt><trkpt lat="43.4360236" lon="11.3487135"><ele>383.5</ele><time>2026-04-04T16:26:17.042Z</time></trkpt><trkpt lat="43.4360984" lon="11.3487546"><ele>383.33333333333337</ele><time>2026-04-04T16:26:18.042Z</time></trkpt><trkpt lat="43.4361785" lon="11.3488076"><ele>383.1666666666667</ele><time>2026-04-04T16:26:19.043Z</time></trkpt><trkpt lat="43.4362528" lon="11.3488635"><ele>383.0</ele><time>2026-04-04T16:26:20.042Z</time></trkpt><trkpt lat="43.4363218" lon="11.3489368"><ele>381.0</ele><time>2026-04-04T16:26:21.043Z</time></trkpt><trkpt lat="43.4363929" lon="11.3489984"><ele>379.0</ele><time>2026-04-04T16:26:22.043Z</time></trkpt><trkpt lat="43.4364732" lon="11.3490578"><ele>377.0</ele><time>2026-04-04T16:26:23.044Z</time></trkpt><trkpt lat="43.4365403" lon="11.3491294"><ele>375.0</ele><time>2026-04-04T16:26:24.044Z</time></trkpt><trkpt lat="43.4366056" lon="11.3492064"><ele>373.0</ele><time>2026-04-04T16:26:25.044Z</time></trkpt><trkpt lat="43.4367108" lon="11.3493049"><ele>373.0</ele><time>2026-04-04T16:26:27.044Z</time></trkpt><trkpt lat="43.4367797" lon="11.3493263"><ele>373.0</ele><time>2026-04-04T16:26:28.044Z</time></trkpt><trkpt lat="43.4368459" lon="11.3493389"><ele>373.0</ele><time>2026-04-04T16:26:29.044Z</time></trkpt><trkpt lat="43.4369185" lon="11.3493342"><ele>373.0</ele><time>2026-04-04T16:26:30.043Z</time></trkpt><trkpt lat="43.4369913" lon="11.3492976"><ele>373.0</ele><time>2026-04-04T16:26:31.042Z</time></trkpt><trkpt lat="43.4370566" lon="11.3492485"><ele>373.0</ele><time>2026-04-04T16:26:32.044Z</time></trkpt><trkpt lat="43.4371122" lon="11.3491745"><ele>373.0</ele><time>2026-04-04T16:26:33.043Z</time></trkpt><trkpt lat="43.4371571" lon="11.3490757"><ele>372.66666666666663</ele><time>2026-04-04T16:26:34.041Z</time></trkpt><trkpt lat="43.4371941" lon="11.3489689"><ele>372.3333333333333</ele><time>2026-04-04T16:26:35.043Z</time></trkpt><trkpt lat="43.4372162" lon="11.3488554"><ele>372.0</ele><time>2026-04-04T16:26:36.043Z</time></trkpt><trkpt lat="43.4372464" lon="11.3487396"><ele>371.6666666666667</ele><time>2026-04-04T16:26:37.043Z</time></trkpt><trkpt lat="43.4372745" lon="11.3486388"><ele>371.33333333333337</ele><time>2026-04-04T16:26:38.043Z</time></trkpt><trkpt lat="43.437311" lon="11.3485442"><ele>371.0</ele><time>2026-04-04T16:26:39.041Z</time></trkpt><trkpt lat="43.4373671" lon="11.3484655"><ele>372.0</ele><time>2026-04-04T16:26:40.043Z</time></trkpt><trkpt lat="43.4374377" lon="11.3483986"><ele>373.0</ele><time>2026-04-04T16:26:41.042Z</time></trkpt><trkpt lat="43.4375179" lon="11.3483537"><ele>374.0</ele><time>2026-04-04T16:26:42.042Z</time></trkpt><trkpt lat="43.4376076" lon="11.348348"><ele>375.0</ele><time>2026-04-04T16:26:43.042Z</time></trkpt><trkpt lat="43.4376807" lon="11.3483692"><ele>376.0</ele><time>2026-04-04T16:26:44.043Z</time></trkpt><trkpt lat="43.4377622" lon="11.3484327"><ele>377.0</ele><time>2026-04-04T16:26:45.044Z</time></trkpt><trkpt lat="43.4378333" lon="11.3485176"><ele>377.0</ele><time>2026-04-04T16:26:46.044Z</time></trkpt><trkpt lat="43.4378889" lon="11.3486647"><ele>377.0</ele><time>2026-04-04T16:26:47.042Z</time></trkpt><trkpt lat="43.4379335" lon="11.3488224"><ele>377.0</ele><time>2026-04-04T16:26:48.043Z</time></trkpt><trkpt lat="43.4379716" lon="11.3490021"><ele>377.0</ele><time>2026-04-04T16:26:49.043Z</time></trkpt><trkpt lat="43.4380181" lon="11.3491646"><ele>378.75</ele><time>2026-04-04T16:26:50.041Z</time></trkpt><trkpt lat="43.4380757" lon="11.3493209"><ele>380.5</ele><time>2026-04-04T16:26:51.044Z</time></trkpt><trkpt lat="43.4381413" lon="11.3494564"><ele>382.25</ele><time>2026-04-04T16:26:52.042Z</time></trkpt><trkpt lat="43.4382065" lon="11.3495763"><ele>384.0</ele><time>2026-04-04T16:26:53.041Z</time></trkpt><trkpt lat="43.4382881" lon="11.3497003"><ele>381.75</ele><time>2026-04-04T16:26:54.043Z</time></trkpt><trkpt lat="43.4383789" lon="11.3497895"><ele>379.5</ele><time>2026-04-04T16:26:55.041Z</time></trkpt><trkpt lat="43.4384844" lon="11.3498591"><ele>377.25</ele><time>2026-04-04T16:26:56.041Z</time></trkpt><trkpt lat="43.438595" lon="11.3499154"><ele>375.0</ele><time>2026-04-04T16:26:57.042Z</time></trkpt><trkpt lat="43.4387028" lon="11.3499569"><ele>375.5</ele><time>2026-04-04T16:26:58.042Z</time></trkpt><trkpt lat="43.4388191" lon="11.3500038"><ele>376.0</ele><time>2026-04-04T16:26:59.042Z</time></trkpt><trkpt lat="43.4389327" lon="11.3500551"><ele>376.5</ele><time>2026-04-04T16:27:00.044Z</time></trkpt><trkpt lat="43.4390506" lon="11.3500858"><ele>377.0</ele><time>2026-04-04T16:27:01.043Z</time></trkpt><trkpt lat="43.4391612" lon="11.3501373"><ele>377.0</ele><time>2026-04-04T16:27:02.043Z</time></trkpt><trkpt lat="43.4392664" lon="11.3501778"><ele>377.0</ele><time>2026-04-04T16:27:03.043Z</time></trkpt><trkpt lat="43.4393908" lon="11.350234"><ele>377.0</ele><time>2026-04-04T16:27:04.042Z</time></trkpt><trkpt lat="43.4395052" lon="11.3502874"><ele>377.0</ele><time>2026-04-04T16:27:05.043Z</time></trkpt><trkpt lat="43.439612" lon="11.3503479"><ele>376.75</ele><time>2026-04-04T16:27:06.042Z</time></trkpt><trkpt lat="43.4397167" lon="11.3504088"><ele>376.5</ele><time>2026-04-04T16:27:07.042Z</time></trkpt><trkpt lat="43.4398288" lon="11.3504806"><ele>376.25</ele><time>2026-04-04T16:27:08.044Z</time></trkpt><trkpt lat="43.4399363" lon="11.3505484"><ele>376.0</ele><time>2026-04-04T16:27:09.042Z</time></trkpt><trkpt lat="43.4400344" lon="11.3506172"><ele>375.4</ele><time>2026-04-04T16:27:10.041Z</time></trkpt><trkpt lat="43.4401279" lon="11.3507078"><ele>374.8</ele><time>2026-04-04T16:27:11.042Z</time></trkpt><trkpt lat="43.4402153" lon="11.350799"><ele>374.2</ele><time>2026-04-04T16:27:12.043Z</time></trkpt><trkpt lat="43.4402742" lon="11.3508952"><ele>373.59999999999997</ele><time>2026-04-04T16:27:13.042Z</time></trkpt><trkpt lat="43.440332" lon="11.3510169"><ele>373.0</ele><time>2026-04-04T16:27:14.043Z</time></trkpt><trkpt lat="43.440388" lon="11.3511459"><ele>373.0</ele><time>2026-04-04T16:27:15.041Z</time></trkpt><trkpt lat="43.440447" lon="11.3512663"><ele>373.0</ele><time>2026-04-04T16:27:16.044Z</time></trkpt><trkpt lat="43.4405071" lon="11.3513955"><ele>373.0</ele><time>2026-04-04T16:27:17.044Z</time></trkpt><trkpt lat="43.4405581" lon="11.3515186"><ele>373.0</ele><time>2026-04-04T16:27:18.042Z</time></trkpt><trkpt lat="43.440608" lon="11.3516319"><ele>373.0</ele><time>2026-04-04T16:27:19.042Z</time></trkpt><trkpt lat="43.4406334" lon="11.3517862"><ele>373.0</ele><time>2026-04-04T16:27:20.041Z</time></trkpt><trkpt lat="43.4406526" lon="11.3519511"><ele>373.0</ele><time>2026-04-04T16:27:21.042Z</time></trkpt><trkpt lat="43.4406586" lon="11.3521386"><ele>373.0</ele><time>2026-04-04T16:27:22.041Z</time></trkpt><trkpt lat="43.44068" lon="11.352343"><ele>373.0</ele><time>2026-04-04T16:27:23.043Z</time></trkpt><trkpt lat="43.4407287" lon="11.3525542"><ele>371.5</ele><time>2026-04-04T16:27:24.044Z</time></trkpt><trkpt lat="43.4407523" lon="11.3527615"><ele>370.0</ele><time>2026-04-04T16:27:25.042Z</time></trkpt><trkpt lat="43.4407753" lon="11.3529529"><ele>368.5</ele><time>2026-04-04T16:27:26.041Z</time></trkpt><trkpt lat="43.4407967" lon="11.3531278"><ele>367.0</ele><time>2026-04-04T16:27:27.043Z</time></trkpt><trkpt lat="43.4408087" lon="11.3532869"><ele>365.8</ele><time>2026-04-04T16:27:28.042Z</time></trkpt><trkpt lat="43.4408265" lon="11.3534388"><ele>364.6</ele><time>2026-04-04T16:27:29.043Z</time></trkpt><trkpt lat="43.4408365" lon="11.3535552"><ele>363.40000000000003</ele><time>2026-04-04T16:27:30.042Z</time></trkpt><trkpt lat="43.4408441" lon="11.3536726"><ele>362.20000000000005</ele><time>2026-04-04T16:27:31.043Z</time></trkpt><trkpt lat="43.4408366" lon="11.3537903"><ele>361.0</ele><time>2026-04-04T16:27:32.043Z</time></trkpt><trkpt lat="43.4408437" lon="11.3539056"><ele>360.0</ele><time>2026-04-04T16:27:33.043Z</time></trkpt><trkpt lat="43.440867" lon="11.3540281"><ele>359.0</ele><time>2026-04-04T16:27:34.044Z</time></trkpt><trkpt lat="43.4408864" lon="11.35414"><ele>358.0</ele><time>2026-04-04T16:27:35.042Z</time></trkpt><trkpt lat="43.440901" lon="11.3542454"><ele>357.0</ele><time>2026-04-04T16:27:36.042Z</time></trkpt><trkpt lat="43.4409114" lon="11.3543601"><ele>356.0</ele><time>2026-04-04T16:27:37.042Z</time></trkpt><trkpt lat="43.4409279" lon="11.3544618"><ele>355.0</ele><time>2026-04-04T16:27:38.042Z</time></trkpt><trkpt lat="43.4409482" lon="11.354561"><ele>355.0</ele><time>2026-04-04T16:27:39.042Z</time></trkpt><trkpt lat="43.4409819" lon="11.3546572"><ele>355.0</ele><time>2026-04-04T16:27:40.042Z</time></trkpt><trkpt lat="43.4409979" lon="11.3547524"><ele>355.0</ele><time>2026-04-04T16:27:41.042Z</time></trkpt><trkpt lat="43.4410162" lon="11.3548382"><ele>355.0</ele><time>2026-04-04T16:27:42.043Z</time></trkpt><trkpt lat="43.441033" lon="11.3549338"><ele>355.0</ele><time>2026-04-04T16:27:43.042Z</time></trkpt><trkpt lat="43.4410374" lon="11.355028"><ele>355.0</ele><time>2026-04-04T16:27:44.041Z</time></trkpt><trkpt lat="43.4410527" lon="11.3551817"><ele>354.66666666666663</ele><time>2026-04-04T16:27:46.042Z</time></trkpt><trkpt lat="43.4410663" lon="11.3553332"><ele>354.3333333333333</ele><time>2026-04-04T16:27:48.044Z</time></trkpt><trkpt lat="43.4410527" lon="11.3554242"><ele>354.0</ele><time>2026-04-04T16:27:49.043Z</time></trkpt><trkpt lat="43.4410388" lon="11.3555153"><ele>353.6666666666667</ele><time>2026-04-04T16:27:50.041Z</time></trkpt><trkpt lat="43.4409912" lon="11.355658"><ele>353.33333333333337</ele><time>2026-04-04T16:27:52.042Z</time></trkpt><trkpt lat="43.4409662" lon="11.3557387"><ele>353.0</ele><time>2026-04-04T16:27:54.041Z</time></trkpt><trkpt lat="43.4410072" lon="11.3558258"><ele>352.83333333333337</ele><time>2026-04-04T16:27:56.041Z</time></trkpt><trkpt lat="43.441077" lon="11.3558473"><ele>352.6666666666667</ele><time>2026-04-04T16:27:58.041Z</time></trkpt><trkpt lat="43.4411591" lon="11.3558453"><ele>352.5</ele><time>2026-04-04T16:28:00.041Z</time></trkpt><trkpt lat="43.4412321" lon="11.355801"><ele>352.3333333333333</ele><time>2026-04-04T16:28:02.041Z</time></trkpt><trkpt lat="43.441313" lon="11.3557596"><ele>352.16666666666663</ele><time>2026-04-04T16:28:04.043Z</time></trkpt><trkpt lat="43.4413871" lon="11.355696"><ele>352.0</ele><time>2026-04-04T16:28:06.042Z</time></trkpt><trkpt lat="43.4414617" lon="11.3555794"><ele>352.6</ele><time>2026-04-04T16:28:08.044Z</time></trkpt><trkpt lat="43.4415036" lon="11.3554755"><ele>353.20000000000005</ele><time>2026-04-04T16:28:10.043Z</time></trkpt><trkpt lat="43.4415732" lon="11.3554062"><ele>353.8</ele><time>2026-04-04T16:28:12.043Z</time></trkpt><trkpt lat="43.4416454" lon="11.3553305"><ele>354.4</ele><time>2026-04-04T16:28:14.042Z</time></trkpt><trkpt lat="43.4417376" lon="11.3552942"><ele>355.0</ele><time>2026-04-04T16:28:16.043Z</time></trkpt><trkpt lat="43.4418288" lon="11.3553007"><ele>355.0</ele><time>2026-04-04T16:28:18.042Z</time></trkpt><trkpt lat="43.4419365" lon="11.3552919"><ele>355.0</ele><time>2026-04-04T16:28:20.042Z</time></trkpt><trkpt lat="43.4420682" lon="11.3552704"><ele>355.0</ele><time>2026-04-04T16:28:22.042Z</time></trkpt><trkpt lat="43.4421602" lon="11.3552362"><ele>355.0</ele><time>2026-04-04T16:28:24.042Z</time></trkpt><trkpt lat="43.442261" lon="11.3551965"><ele>355.0</ele><time>2026-04-04T16:28:26.041Z</time></trkpt><trkpt lat="43.4423454" lon="11.355142"><ele>351.2</ele><time>2026-04-04T16:28:28.043Z</time></trkpt><trkpt lat="43.4424281" lon="11.3550777"><ele>347.4</ele><time>2026-04-04T16:28:30.041Z</time></trkpt><trkpt lat="43.4425232" lon="11.3549904"><ele>343.6</ele><time>2026-04-04T16:28:32.043Z</time></trkpt><trkpt lat="43.4426095" lon="11.3548802"><ele>339.8</ele><time>2026-04-04T16:28:34.041Z</time></trkpt><trkpt lat="43.4426771" lon="11.354834"><ele>336.0</ele><time>2026-04-04T16:28:35.042Z</time></trkpt><trkpt lat="43.4427564" lon="11.3547871"><ele>336.0</ele><time>2026-04-04T16:28:36.041Z</time></trkpt><trkpt lat="43.4428175" lon="11.3547352"><ele>336.0</ele><time>2026-04-04T16:28:37.042Z</time></trkpt><trkpt lat="43.4429084" lon="11.3547143"><ele>336.0</ele><time>2026-04-04T16:28:38.042Z</time></trkpt><trkpt lat="43.4429805" lon="11.3546736"><ele>336.0</ele><time>2026-04-04T16:28:39.042Z</time></trkpt><trkpt lat="43.4430776" lon="11.3546171"><ele>336.0</ele><time>2026-04-04T16:28:40.044Z</time></trkpt><trkpt lat="43.4432014" lon="11.3545776"><ele>335.3333333333333</ele><time>2026-04-04T16:28:41.041Z</time></trkpt><trkpt lat="43.4432911" lon="11.354523"><ele>334.66666666666663</ele><time>2026-04-04T16:28:42.043Z</time></trkpt><trkpt lat="43.443462" lon="11.3543846"><ele>334.0</ele><time>2026-04-04T16:28:43.043Z</time></trkpt><trkpt lat="43.4436161" lon="11.3542769"><ele>334.0</ele><time>2026-04-04T16:28:44.041Z</time></trkpt><trkpt lat="43.4437714" lon="11.3541708"><ele>334.0</ele><time>2026-04-04T16:28:45.042Z</time></trkpt><trkpt lat="43.4438922" lon="11.3540968"><ele>334.0</ele><time>2026-04-04T16:28:46.043Z</time></trkpt><trkpt lat="43.4440137" lon="11.3540407"><ele>334.0</ele><time>2026-04-04T16:28:47.042Z</time></trkpt><trkpt lat="43.4441199" lon="11.3539657"><ele>335.4</ele><time>2026-04-04T16:28:48.042Z</time></trkpt><trkpt lat="43.4442107" lon="11.3539091"><ele>336.79999999999995</ele><time>2026-04-04T16:28:49.041Z</time></trkpt><trkpt lat="43.4442957" lon="11.3538736"><ele>338.20000000000005</ele><time>2026-04-04T16:28:50.042Z</time></trkpt><trkpt lat="43.4443765" lon="11.3538539"><ele>339.6</ele><time>2026-04-04T16:28:51.042Z</time></trkpt><trkpt lat="43.4444518" lon="11.3538193"><ele>341.0</ele><time>2026-04-04T16:28:52.043Z</time></trkpt><trkpt lat="43.444565" lon="11.3537846"><ele>338.83333333333337</ele><time>2026-04-04T16:28:54.042Z</time></trkpt><trkpt lat="43.4446441" lon="11.3537641"><ele>336.6666666666667</ele><time>2026-04-04T16:28:55.043Z</time></trkpt><trkpt lat="43.4447072" lon="11.3537371"><ele>334.5</ele><time>2026-04-04T16:28:56.042Z</time></trkpt><trkpt lat="43.4448173" lon="11.3537374"><ele>332.3333333333333</ele><time>2026-04-04T16:28:58.042Z</time></trkpt><trkpt lat="43.4449047" lon="11.3538441"><ele>330.16666666666663</ele><time>2026-04-04T16:29:00.042Z</time></trkpt><trkpt lat="43.4449354" lon="11.3539247"><ele>328.0</ele><time>2026-04-04T16:29:01.043Z</time></trkpt><trkpt lat="43.4449621" lon="11.3540315"><ele>327.99999999999994</ele><time>2026-04-04T16:29:02.041Z</time></trkpt><trkpt lat="43.4449632" lon="11.3541216"><ele>328.0</ele><time>2026-04-04T16:29:03.042Z</time></trkpt><trkpt lat="43.4449739" lon="11.3542194"><ele>328.0</ele><time>2026-04-04T16:29:04.043Z</time></trkpt><trkpt lat="43.4449844" lon="11.354316"><ele>328.0</ele><time>2026-04-04T16:29:05.042Z</time></trkpt><trkpt lat="43.4450001" lon="11.3544144"><ele>328.0</ele><time>2026-04-04T16:29:06.043Z</time></trkpt><trkpt lat="43.4450473" lon="11.3545095"><ele>327.99999999999994</ele><time>2026-04-04T16:29:07.041Z</time></trkpt><trkpt lat="43.445096" lon="11.3546021"><ele>328.0</ele><time>2026-04-04T16:29:08.042Z</time></trkpt><trkpt lat="43.4451471" lon="11.3546871"><ele>327.66666666666663</ele><time>2026-04-04T16:29:09.042Z</time></trkpt><trkpt lat="43.4452005" lon="11.3547501"><ele>327.3333333333333</ele><time>2026-04-04T16:29:10.042Z</time></trkpt><trkpt lat="43.4452659" lon="11.3548324"><ele>327.0</ele><time>2026-04-04T16:29:11.043Z</time></trkpt><trkpt lat="43.4453295" lon="11.3548984"><ele>326.6666666666667</ele><time>2026-04-04T16:29:12.043Z</time></trkpt><trkpt lat="43.4454003" lon="11.3549555"><ele>326.33333333333337</ele><time>2026-04-04T16:29:13.043Z</time></trkpt><trkpt lat="43.4454642" lon="11.3549973"><ele>326.0</ele><time>2026-04-04T16:29:14.042Z</time></trkpt><trkpt lat="43.445539" lon="11.3550385"><ele>327.0</ele><time>2026-04-04T16:29:15.041Z</time></trkpt><trkpt lat="43.4456202" lon="11.3550669"><ele>328.0</ele><time>2026-04-04T16:29:16.042Z</time></trkpt><trkpt lat="43.4457083" lon="11.3550813"><ele>329.0</ele><time>2026-04-04T16:29:17.041Z</time></trkpt><trkpt lat="43.4457825" lon="11.355099"><ele>330.0</ele><time>2026-04-04T16:29:18.04Z</time></trkpt><trkpt lat="43.445867" lon="11.3550975"><ele>331.0</ele><time>2026-04-04T16:29:19.043Z</time></trkpt><trkpt lat="43.4459514" lon="11.3551062"><ele>332.0</ele><time>2026-04-04T16:29:20.043Z</time></trkpt><trkpt lat="43.446035" lon="11.3551187"><ele>332.0</ele><time>2026-04-04T16:29:21.043Z</time></trkpt><trkpt lat="43.4461239" lon="11.3551334"><ele>332.0</ele><time>2026-04-04T16:29:22.041Z</time></trkpt><trkpt lat="43.446208" lon="11.3551449"><ele>332.0</ele><time>2026-04-04T16:29:23.042Z</time></trkpt><trkpt lat="43.4462921" lon="11.3551686"><ele>332.0</ele><time>2026-04-04T16:29:24.042Z</time></trkpt><trkpt lat="43.4463711" lon="11.3551821"><ele>332.0</ele><time>2026-04-04T16:29:25.042Z</time></trkpt><trkpt lat="43.4464489" lon="11.3551928"><ele>332.0</ele><time>2026-04-04T16:29:26.044Z</time></trkpt><trkpt lat="43.4465392" lon="11.3552351"><ele>332.83333333333337</ele><time>2026-04-04T16:29:27.043Z</time></trkpt><trkpt lat="43.4466213" lon="11.3552505"><ele>333.6666666666667</ele><time>2026-04-04T16:29:28.042Z</time></trkpt><trkpt lat="43.4467042" lon="11.3552552"><ele>334.5</ele><time>2026-04-04T16:29:29.043Z</time></trkpt><trkpt lat="43.4467856" lon="11.355275"><ele>335.3333333333333</ele><time>2026-04-04T16:29:30.041Z</time></trkpt><trkpt lat="43.44688" lon="11.3552989"><ele>336.16666666666663</ele><time>2026-04-04T16:29:31.044Z</time></trkpt><trkpt lat="43.4469648" lon="11.3553272"><ele>337.0</ele><time>2026-04-04T16:29:32.043Z</time></trkpt><trkpt lat="43.4470544" lon="11.3553415"><ele>339.40000000000003</ele><time>2026-04-04T16:29:33.04Z</time></trkpt><trkpt lat="43.4471589" lon="11.3553675"><ele>341.8</ele><time>2026-04-04T16:29:34.042Z</time></trkpt><trkpt lat="43.4472953" lon="11.3553812"><ele>344.2</ele><time>2026-04-04T16:29:35.041Z</time></trkpt><trkpt lat="43.4473968" lon="11.3553911"><ele>346.6</ele><time>2026-04-04T16:29:36.042Z</time></trkpt><trkpt lat="43.4474952" lon="11.3553949"><ele>349.0</ele><time>2026-04-04T16:29:37.042Z</time></trkpt><trkpt lat="43.4475887" lon="11.3554383"><ele>349.0</ele><time>2026-04-04T16:29:38.042Z</time></trkpt><trkpt lat="43.4476869" lon="11.3554799"><ele>349.0</ele><time>2026-04-04T16:29:39.042Z</time></trkpt><trkpt lat="43.4478028" lon="11.3555466"><ele>349.0</ele><time>2026-04-04T16:29:40.044Z</time></trkpt><trkpt lat="43.4479089" lon="11.3556112"><ele>349.0</ele><time>2026-04-04T16:29:41.043Z</time></trkpt><trkpt lat="43.4480287" lon="11.3556562"><ele>346.4</ele><time>2026-04-04T16:29:42.041Z</time></trkpt><trkpt lat="43.4481318" lon="11.3557309"><ele>343.79999999999995</ele><time>2026-04-04T16:29:43.041Z</time></trkpt><trkpt lat="43.4482372" lon="11.3558027"><ele>341.20000000000005</ele><time>2026-04-04T16:29:44.042Z</time></trkpt><trkpt lat="43.4483385" lon="11.3558313"><ele>338.6</ele><time>2026-04-04T16:29:45.041Z</time></trkpt><trkpt lat="43.4484279" lon="11.355881"><ele>336.0</ele><time>2026-04-04T16:29:46.041Z</time></trkpt><trkpt lat="43.4485032" lon="11.3559433"><ele>336.0</ele><time>2026-04-04T16:29:47.042Z</time></trkpt><trkpt lat="43.4485703" lon="11.3560054"><ele>336.0</ele><time>2026-04-04T16:29:48.042Z</time></trkpt><trkpt lat="43.448639" lon="11.3560401"><ele>336.0</ele><time>2026-04-04T16:29:49.04Z</time></trkpt><trkpt lat="43.4487151" lon="11.3560821"><ele>336.0</ele><time>2026-04-04T16:29:50.041Z</time></trkpt><trkpt lat="43.448791" lon="11.356125"><ele>336.0</ele><time>2026-04-04T16:29:51.041Z</time></trkpt><trkpt lat="43.4488601" lon="11.356156"><ele>336.0</ele><time>2026-04-04T16:29:52.044Z</time></trkpt><trkpt lat="43.4489307" lon="11.3561997"><ele>335.42857142857144</ele><time>2026-04-04T16:29:53.042Z</time></trkpt><trkpt lat="43.4490015" lon="11.35625"><ele>334.8571428571429</ele><time>2026-04-04T16:29:54.042Z</time></trkpt><trkpt lat="43.4490643" lon="11.3563086"><ele>334.2857142857143</ele><time>2026-04-04T16:29:55.041Z</time></trkpt><trkpt lat="43.4491246" lon="11.356363"><ele>333.7142857142857</ele><time>2026-04-04T16:29:56.04Z</time></trkpt><trkpt lat="43.4491864" lon="11.3564199"><ele>333.14285714285717</ele><time>2026-04-04T16:29:57.042Z</time></trkpt><trkpt lat="43.4492479" lon="11.3564641"><ele>332.57142857142856</ele><time>2026-04-04T16:29:58.041Z</time></trkpt><trkpt lat="43.4493178" lon="11.3565114"><ele>332.0</ele><time>2026-04-04T16:29:59.041Z</time></trkpt><trkpt lat="43.449429" lon="11.3565626"><ele>332.0</ele><time>2026-04-04T16:30:00.042Z</time></trkpt><trkpt lat="43.4495302" lon="11.356575"><ele>332.0</ele><time>2026-04-04T16:30:01.042Z</time></trkpt><trkpt lat="43.4496237" lon="11.3565973"><ele>332.0</ele><time>2026-04-04T16:30:02.042Z</time></trkpt><trkpt lat="43.4497172" lon="11.3566157"><ele>332.0</ele><time>2026-04-04T16:30:03.043Z</time></trkpt><trkpt lat="43.4497985" lon="11.3566441"><ele>332.0</ele><time>2026-04-04T16:30:04.041Z</time></trkpt><trkpt lat="43.4498804" lon="11.3566448"><ele>333.33333333333337</ele><time>2026-04-04T16:30:05.041Z</time></trkpt><trkpt lat="43.4499669" lon="11.3566512"><ele>334.6666666666667</ele><time>2026-04-04T16:30:06.041Z</time></trkpt><trkpt lat="43.4500357" lon="11.3566385"><ele>336.0</ele><time>2026-04-04T16:30:07.042Z</time></trkpt><trkpt lat="43.4501124" lon="11.3566093"><ele>337.3333333333333</ele><time>2026-04-04T16:30:08.043Z</time></trkpt><trkpt lat="43.4501829" lon="11.3565646"><ele>338.66666666666663</ele><time>2026-04-04T16:30:09.042Z</time></trkpt><trkpt lat="43.4502685" lon="11.3564999"><ele>340.0</ele><time>2026-04-04T16:30:10.041Z</time></trkpt><trkpt lat="43.4503431" lon="11.3564807"><ele>340.0</ele><time>2026-04-04T16:30:11.042Z</time></trkpt><trkpt lat="43.4504136" lon="11.3564254"><ele>340.0</ele><time>2026-04-04T16:30:12.041Z</time></trkpt><trkpt lat="43.4504751" lon="11.3563886"><ele>340.0</ele><time>2026-04-04T16:30:13.043Z</time></trkpt><trkpt lat="43.4505354" lon="11.3563376"><ele>340.0</ele><time>2026-04-04T16:30:14.043Z</time></trkpt><trkpt lat="43.4506002" lon="11.3562771"><ele>340.0</ele><time>2026-04-04T16:30:15.042Z</time></trkpt><trkpt lat="43.450655" lon="11.3562065"><ele>340.0</ele><time>2026-04-04T16:30:16.043Z</time></trkpt><trkpt lat="43.4507196" lon="11.356123"><ele>341.16666666666663</ele><time>2026-04-04T16:30:17.041Z</time></trkpt><trkpt lat="43.4507763" lon="11.3560665"><ele>342.3333333333333</ele><time>2026-04-04T16:30:18.042Z</time></trkpt><trkpt lat="43.4508338" lon="11.3560017"><ele>343.5</ele><time>2026-04-04T16:30:19.043Z</time></trkpt><trkpt lat="43.4509025" lon="11.3559167"><ele>344.6666666666667</ele><time>2026-04-04T16:30:20.042Z</time></trkpt><trkpt lat="43.4509774" lon="11.3558348"><ele>345.83333333333337</ele><time>2026-04-04T16:30:21.04Z</time></trkpt><trkpt lat="43.4510462" lon="11.3557529"><ele>347.0</ele><time>2026-04-04T16:30:22.042Z</time></trkpt><trkpt lat="43.4511219" lon="11.3556707"><ele>347.0</ele><time>2026-04-04T16:30:23.043Z</time></trkpt><trkpt lat="43.4512051" lon="11.3556144"><ele>347.0</ele><time>2026-04-04T16:30:24.042Z</time></trkpt><trkpt lat="43.4513015" lon="11.3555588"><ele>347.0</ele><time>2026-04-04T16:30:25.042Z</time></trkpt><trkpt lat="43.4514084" lon="11.3554992"><ele>347.0</ele><time>2026-04-04T16:30:26.041Z</time></trkpt><trkpt lat="43.4515" lon="11.3554419"><ele>347.0</ele><time>2026-04-04T16:30:27.042Z</time></trkpt><trkpt lat="43.4515753" lon="11.3553865"><ele>347.33333333333337</ele><time>2026-04-04T16:30:28.042Z</time></trkpt><trkpt lat="43.4516595" lon="11.3553354"><ele>347.6666666666667</ele><time>2026-04-04T16:30:29.041Z</time></trkpt><trkpt lat="43.4517586" lon="11.3553028"><ele>348.0</ele><time>2026-04-04T16:30:30.043Z</time></trkpt><trkpt lat="43.4518456" lon="11.3552858"><ele>348.3333333333333</ele><time>2026-04-04T16:30:31.042Z</time></trkpt><trkpt lat="43.4519269" lon="11.3552773"><ele>348.66666666666663</ele><time>2026-04-04T16:30:32.041Z</time></trkpt><trkpt lat="43.4520002" lon="11.3552724"><ele>349.0</ele><time>2026-04-04T16:30:33.041Z</time></trkpt><trkpt lat="43.4520667" lon="11.3552431"><ele>347.6</ele><time>2026-04-04T16:30:34.043Z</time></trkpt><trkpt lat="43.4521338" lon="11.3552147"><ele>346.2</ele><time>2026-04-04T16:30:35.043Z</time></trkpt><trkpt lat="43.4522136" lon="11.3551806"><ele>344.8</ele><time>2026-04-04T16:30:36.042Z</time></trkpt><trkpt lat="43.4523076" lon="11.3551482"><ele>343.40000000000003</ele><time>2026-04-04T16:30:37.042Z</time></trkpt><trkpt lat="43.4523981" lon="11.3551057"><ele>342.0</ele><time>2026-04-04T16:30:38.041Z</time></trkpt><trkpt lat="43.4525063" lon="11.3550476"><ele>342.0</ele><time>2026-04-04T16:30:39.042Z</time></trkpt><trkpt lat="43.4526098" lon="11.3549932"><ele>342.0</ele><time>2026-04-04T16:30:40.042Z</time></trkpt><trkpt lat="43.4527229" lon="11.3549218"><ele>342.0</ele><time>2026-04-04T16:30:41.04Z</time></trkpt><trkpt lat="43.4528266" lon="11.3548563"><ele>342.0</ele><time>2026-04-04T16:30:42.042Z</time></trkpt><trkpt lat="43.4529261" lon="11.3547875"><ele>342.40000000000003</ele><time>2026-04-04T16:30:43.042Z</time></trkpt><trkpt lat="43.4530183" lon="11.3547425"><ele>342.8</ele><time>2026-04-04T16:30:44.041Z</time></trkpt><trkpt lat="43.4531076" lon="11.3546894"><ele>343.2</ele><time>2026-04-04T16:30:45.042Z</time></trkpt><trkpt lat="43.4531924" lon="11.3546542"><ele>343.6</ele><time>2026-04-04T16:30:46.041Z</time></trkpt><trkpt lat="43.4532701" lon="11.3545994"><ele>344.0</ele><time>2026-04-04T16:30:47.042Z</time></trkpt><trkpt lat="43.453347" lon="11.3545611"><ele>344.0</ele><time>2026-04-04T16:30:48.04Z</time></trkpt><trkpt lat="43.4534103" lon="11.3545263"><ele>344.0</ele><time>2026-04-04T16:30:49.042Z</time></trkpt><trkpt lat="43.4534818" lon="11.3544892"><ele>344.0</ele><time>2026-04-04T16:30:50.042Z</time></trkpt><trkpt lat="43.4535509" lon="11.3544488"><ele>344.0</ele><time>2026-04-04T16:30:51.042Z</time></trkpt><trkpt lat="43.4536341" lon="11.3544189"><ele>344.0</ele><time>2026-04-04T16:30:52.041Z</time></trkpt><trkpt lat="43.4537189" lon="11.354385"><ele>344.0</ele><time>2026-04-04T16:30:53.042Z</time></trkpt><trkpt lat="43.4537981" lon="11.3543562"><ele>342.6666666666667</ele><time>2026-04-04T16:30:54.041Z</time></trkpt><trkpt lat="43.4538631" lon="11.3543247"><ele>341.33333333333337</ele><time>2026-04-04T16:30:55.042Z</time></trkpt><trkpt lat="43.4539212" lon="11.3542895"><ele>340.0</ele><time>2026-04-04T16:30:56.041Z</time></trkpt><trkpt lat="43.4540185" lon="11.3542398"><ele>338.6666666666667</ele><time>2026-04-04T16:30:58.042Z</time></trkpt><trkpt lat="43.4541084" lon="11.3542607"><ele>337.3333333333333</ele><time>2026-04-04T16:31:00.042Z</time></trkpt><trkpt lat="43.4541711" lon="11.3542898"><ele>336.0</ele><time>2026-04-04T16:31:01.043Z</time></trkpt><trkpt lat="43.4542794" lon="11.354325"><ele>336.0</ele><time>2026-04-04T16:31:03.041Z</time></trkpt><trkpt lat="43.4543483" lon="11.3543333"><ele>336.0</ele><time>2026-04-04T16:31:04.041Z</time></trkpt><trkpt lat="43.4544371" lon="11.3542761"><ele>336.0</ele><time>2026-04-04T16:31:05.042Z</time></trkpt><trkpt lat="43.4545106" lon="11.3542358"><ele>336.0</ele><time>2026-04-04T16:31:06.043Z</time></trkpt><trkpt lat="43.4545884" lon="11.3542071"><ele>336.0</ele><time>2026-04-04T16:31:07.04Z</time></trkpt><trkpt lat="43.4546511" lon="11.3541903"><ele>336.0</ele><time>2026-04-04T16:31:08.041Z</time></trkpt><trkpt lat="43.4547113" lon="11.3541486"><ele>337.4</ele><time>2026-04-04T16:31:09.041Z</time></trkpt><trkpt lat="43.4548088" lon="11.3540437"><ele>338.8</ele><time>2026-04-04T16:31:11.043Z</time></trkpt><trkpt lat="43.4549187" lon="11.354003"><ele>340.2</ele><time>2026-04-04T16:31:13.042Z</time></trkpt><trkpt lat="43.4549834" lon="11.3539662"><ele>341.59999999999997</ele><time>2026-04-04T16:31:14.043Z</time></trkpt><trkpt lat="43.45505" lon="11.3539474"><ele>343.0</ele><time>2026-04-04T16:31:15.042Z</time></trkpt><trkpt lat="43.4551695" lon="11.3538985"><ele>343.3333333333333</ele><time>2026-04-04T16:31:17.042Z</time></trkpt><trkpt lat="43.4552817" lon="11.3538596"><ele>343.66666666666663</ele><time>2026-04-04T16:31:19.041Z</time></trkpt><trkpt lat="43.4553456" lon="11.3538423"><ele>344.0</ele><time>2026-04-04T16:31:20.04Z</time></trkpt><trkpt lat="43.4554169" lon="11.3538343"><ele>344.3333333333333</ele><time>2026-04-04T16:31:21.041Z</time></trkpt><trkpt lat="43.455486" lon="11.3538349"><ele>344.6666666666667</ele><time>2026-04-04T16:31:22.041Z</time></trkpt><trkpt lat="43.4555829" lon="11.3538739"><ele>345.0</ele><time>2026-04-04T16:31:23.042Z</time></trkpt><trkpt lat="43.4556584" lon="11.3539005"><ele>345.0</ele><time>2026-04-04T16:31:24.041Z</time></trkpt><trkpt lat="43.4557333" lon="11.3539202"><ele>345.0</ele><time>2026-04-04T16:31:25.042Z</time></trkpt><trkpt lat="43.4558114" lon="11.3539578"><ele>345.0</ele><time>2026-04-04T16:31:26.041Z</time></trkpt><trkpt lat="43.455891" lon="11.3539848"><ele>345.0</ele><time>2026-04-04T16:31:27.043Z</time></trkpt><trkpt lat="43.455972" lon="11.3540167"><ele>345.0</ele><time>2026-04-04T16:31:28.043Z</time></trkpt><trkpt lat="43.4560531" lon="11.354053"><ele>345.0</ele><time>2026-04-04T16:31:29.043Z</time></trkpt><trkpt lat="43.4561375" lon="11.3540774"><ele>345.0</ele><time>2026-04-04T16:31:30.041Z</time></trkpt><trkpt lat="43.456222" lon="11.3540731"><ele>345.0</ele><time>2026-04-04T16:31:31.043Z</time></trkpt><trkpt lat="43.456318" lon="11.3540797"><ele>345.0</ele><time>2026-04-04T16:31:32.041Z</time></trkpt><trkpt lat="43.4564058" lon="11.3540919"><ele>345.0</ele><time>2026-04-04T16:31:33.041Z</time></trkpt><trkpt lat="43.4565364" lon="11.3541192"><ele>345.0</ele><time>2026-04-04T16:31:35.041Z</time></trkpt><trkpt lat="43.4566316" lon="11.3541502"><ele>345.2</ele><time>2026-04-04T16:31:36.043Z</time></trkpt><trkpt lat="43.456712" lon="11.3541752"><ele>345.4</ele><time>2026-04-04T16:31:37.04Z</time></trkpt><trkpt lat="43.4568122" lon="11.3541861"><ele>345.6</ele><time>2026-04-04T16:31:38.04Z</time></trkpt><trkpt lat="43.456912" lon="11.3542011"><ele>345.8</ele><time>2026-04-04T16:31:39.041Z</time></trkpt><trkpt lat="43.4569991" lon="11.3542218"><ele>346.0</ele><time>2026-04-04T16:31:40.041Z</time></trkpt><trkpt lat="43.4570907" lon="11.3542467"><ele>347.8</ele><time>2026-04-04T16:31:41.041Z</time></trkpt><trkpt lat="43.4572064" lon="11.35429"><ele>349.6</ele><time>2026-04-04T16:31:42.042Z</time></trkpt><trkpt lat="43.4572988" lon="11.3543347"><ele>351.4</ele><time>2026-04-04T16:31:43.041Z</time></trkpt><trkpt lat="43.4573762" lon="11.3544053"><ele>353.2</ele><time>2026-04-04T16:31:44.041Z</time></trkpt><trkpt lat="43.4574642" lon="11.3544534"><ele>355.0</ele><time>2026-04-04T16:31:45.041Z</time></trkpt><trkpt lat="43.4575512" lon="11.3544869"><ele>355.0</ele><time>2026-04-04T16:31:46.042Z</time></trkpt><trkpt lat="43.457639" lon="11.3545138"><ele>355.0</ele><time>2026-04-04T16:31:47.041Z</time></trkpt><trkpt lat="43.4577199" lon="11.3545446"><ele>355.0</ele><time>2026-04-04T16:31:48.041Z</time></trkpt><trkpt lat="43.4577918" lon="11.3545614"><ele>355.0</ele><time>2026-04-04T16:31:49.041Z</time></trkpt><trkpt lat="43.4578737" lon="11.3545937"><ele>355.0</ele><time>2026-04-04T16:31:50.041Z</time></trkpt><trkpt lat="43.4579563" lon="11.3546185"><ele>355.0</ele><time>2026-04-04T16:31:51.04Z</time></trkpt><trkpt lat="43.4580288" lon="11.3546405"><ele>354.16666666666663</ele><time>2026-04-04T16:31:52.041Z</time></trkpt><trkpt lat="43.4580877" lon="11.3546807"><ele>353.3333333333333</ele><time>2026-04-04T16:31:53.04Z</time></trkpt><trkpt lat="43.458165" lon="11.3547347"><ele>352.5</ele><time>2026-04-04T16:31:54.04Z</time></trkpt><trkpt lat="43.4582353" lon="11.3547969"><ele>351.6666666666667</ele><time>2026-04-04T16:31:55.04Z</time></trkpt><trkpt lat="43.4582942" lon="11.3548524"><ele>350.83333333333337</ele><time>2026-04-04T16:31:56.042Z</time></trkpt><trkpt lat="43.4583671" lon="11.3549384"><ele>350.0</ele><time>2026-04-04T16:31:57.042Z</time></trkpt><trkpt lat="43.4584538" lon="11.355019"><ele>350.0</ele><time>2026-04-04T16:31:58.041Z</time></trkpt><trkpt lat="43.458524" lon="11.3550704"><ele>350.0</ele><time>2026-04-04T16:31:59.041Z</time></trkpt><trkpt lat="43.4586015" lon="11.3551355"><ele>350.0</ele><time>2026-04-04T16:32:00.041Z</time></trkpt><trkpt lat="43.4586849" lon="11.3551962"><ele>350.0</ele><time>2026-04-04T16:32:01.041Z</time></trkpt><trkpt lat="43.4587647" lon="11.3552535"><ele>350.0</ele><time>2026-04-04T16:32:02.041Z</time></trkpt><trkpt lat="43.4588538" lon="11.3552847"><ele>350.0</ele><time>2026-04-04T16:32:03.042Z</time></trkpt><trkpt lat="43.4589347" lon="11.355329"><ele>351.0</ele><time>2026-04-04T16:32:04.041Z</time></trkpt><trkpt lat="43.4590245" lon="11.355356"><ele>352.0</ele><time>2026-04-04T16:32:05.041Z</time></trkpt><trkpt lat="43.4591115" lon="11.3553969"><ele>353.0</ele><time>2026-04-04T16:32:06.041Z</time></trkpt><trkpt lat="43.4591856" lon="11.3554172"><ele>354.0</ele><time>2026-04-04T16:32:07.043Z</time></trkpt><trkpt lat="43.4592554" lon="11.3554425"><ele>355.0</ele><time>2026-04-04T16:32:08.042Z</time></trkpt><trkpt lat="43.4593228" lon="11.355459"><ele>356.0</ele><time>2026-04-04T16:32:09.042Z</time></trkpt><trkpt lat="43.4593927" lon="11.3554746"><ele>356.0</ele><time>2026-04-04T16:32:10.04Z</time></trkpt><trkpt lat="43.4594729" lon="11.3555001"><ele>356.0</ele><time>2026-04-04T16:32:11.042Z</time></trkpt><trkpt lat="43.4595376" lon="11.3555089"><ele>356.0</ele><time>2026-04-04T16:32:12.042Z</time></trkpt><trkpt lat="43.4596132" lon="11.3555164"><ele>356.0</ele><time>2026-04-04T16:32:13.04Z</time></trkpt><trkpt lat="43.4596886" lon="11.355512"><ele>356.0</ele><time>2026-04-04T16:32:14.041Z</time></trkpt><trkpt lat="43.4597747" lon="11.355519"><ele>356.0</ele><time>2026-04-04T16:32:15.041Z</time></trkpt><trkpt lat="43.459869" lon="11.3555079"><ele>357.83333333333337</ele><time>2026-04-04T16:32:16.043Z</time></trkpt><trkpt lat="43.4599496" lon="11.3554843"><ele>359.6666666666667</ele><time>2026-04-04T16:32:17.04Z</time></trkpt><trkpt lat="43.460044" lon="11.3554492"><ele>361.5</ele><time>2026-04-04T16:32:18.041Z</time></trkpt><trkpt lat="43.4601108" lon="11.3554202"><ele>363.3333333333333</ele><time>2026-04-04T16:32:19.04Z</time></trkpt><trkpt lat="43.4601852" lon="11.355405"><ele>365.16666666666663</ele><time>2026-04-04T16:32:20.04Z</time></trkpt><trkpt lat="43.4602633" lon="11.3554037"><ele>367.0</ele><time>2026-04-04T16:32:21.042Z</time></trkpt><trkpt lat="43.4603462" lon="11.3554174"><ele>367.0</ele><time>2026-04-04T16:32:22.043Z</time></trkpt><trkpt lat="43.4604274" lon="11.3554341"><ele>367.0</ele><time>2026-04-04T16:32:23.04Z</time></trkpt><trkpt lat="43.4605157" lon="11.3554554"><ele>367.0</ele><time>2026-04-04T16:32:24.041Z</time></trkpt><trkpt lat="43.4606026" lon="11.3554718"><ele>367.0</ele><time>2026-04-04T16:32:25.042Z</time></trkpt><trkpt lat="43.460687" lon="11.3554823"><ele>367.0</ele><time>2026-04-04T16:32:26.041Z</time></trkpt><trkpt lat="43.4607715" lon="11.3554895"><ele>367.0</ele><time>2026-04-04T16:32:27.041Z</time></trkpt><trkpt lat="43.4608547" lon="11.3555073"><ele>368.0</ele><time>2026-04-04T16:32:28.041Z</time></trkpt><trkpt lat="43.460929" lon="11.3555136"><ele>369.0</ele><time>2026-04-04T16:32:29.04Z</time></trkpt><trkpt lat="43.4609905" lon="11.3554827"><ele>370.0</ele><time>2026-04-04T16:32:30.039Z</time></trkpt><trkpt lat="43.4610676" lon="11.3554663"><ele>371.0</ele><time>2026-04-04T16:32:31.041Z</time></trkpt><trkpt lat="43.4611957" lon="11.3554439"><ele>372.0</ele><time>2026-04-04T16:32:33.041Z</time></trkpt><trkpt lat="43.4612697" lon="11.35543"><ele>373.0</ele><time>2026-04-04T16:32:34.041Z</time></trkpt><trkpt lat="43.4613389" lon="11.3554226"><ele>373.66666666666663</ele><time>2026-04-04T16:32:35.042Z</time></trkpt><trkpt lat="43.4614099" lon="11.3554188"><ele>374.3333333333333</ele><time>2026-04-04T16:32:36.041Z</time></trkpt><trkpt lat="43.4614809" lon="11.3554106"><ele>375.0</ele><time>2026-04-04T16:32:37.042Z</time></trkpt><trkpt lat="43.4615536" lon="11.3554484"><ele>375.6666666666667</ele><time>2026-04-04T16:32:38.041Z</time></trkpt><trkpt lat="43.4616311" lon="11.3554791"><ele>376.33333333333337</ele><time>2026-04-04T16:32:39.042Z</time></trkpt><trkpt lat="43.4617165" lon="11.3555231"><ele>377.0</ele><time>2026-04-04T16:32:40.042Z</time></trkpt><trkpt lat="43.4617942" lon="11.3555661"><ele>374.40000000000003</ele><time>2026-04-04T16:32:41.041Z</time></trkpt><trkpt lat="43.4618775" lon="11.3556397"><ele>371.8</ele><time>2026-04-04T16:32:42.041Z</time></trkpt><trkpt lat="43.4619762" lon="11.3557056"><ele>369.2</ele><time>2026-04-04T16:32:43.042Z</time></trkpt><trkpt lat="43.462058" lon="11.3558046"><ele>366.6</ele><time>2026-04-04T16:32:44.042Z</time></trkpt><trkpt lat="43.4621469" lon="11.3558914"><ele>364.0</ele><time>2026-04-04T16:32:45.041Z</time></trkpt><trkpt lat="43.4622295" lon="11.3559945"><ele>364.0</ele><time>2026-04-04T16:32:46.041Z</time></trkpt><trkpt lat="43.4623063" lon="11.3560762"><ele>364.0</ele><time>2026-04-04T16:32:47.042Z</time></trkpt><trkpt lat="43.4623743" lon="11.3561449"><ele>364.0</ele><time>2026-04-04T16:32:48.042Z</time></trkpt><trkpt lat="43.4624428" lon="11.3561953"><ele>364.0</ele><time>2026-04-04T16:32:49.042Z</time></trkpt><trkpt lat="43.4625051" lon="11.3562536"><ele>364.0</ele><time>2026-04-04T16:32:50.041Z</time></trkpt><trkpt lat="43.462584" lon="11.356315"><ele>364.0</ele><time>2026-04-04T16:32:51.042Z</time></trkpt><trkpt lat="43.4626671" lon="11.35639"><ele>364.79999999999995</ele><time>2026-04-04T16:32:52.041Z</time></trkpt><trkpt lat="43.4627424" lon="11.3564719"><ele>365.59999999999997</ele><time>2026-04-04T16:32:53.04Z</time></trkpt><trkpt lat="43.4628017" lon="11.356531"><ele>366.4</ele><time>2026-04-04T16:32:54.041Z</time></trkpt><trkpt lat="43.4628755" lon="11.3566005"><ele>367.2</ele><time>2026-04-04T16:32:55.042Z</time></trkpt><trkpt lat="43.4629923" lon="11.3567299"><ele>368.0</ele><time>2026-04-04T16:32:57.041Z</time></trkpt><trkpt lat="43.4630823" lon="11.3567966"><ele>368.0</ele><time>2026-04-04T16:32:58.041Z</time></trkpt><trkpt lat="43.4631532" lon="11.3568402"><ele>368.0</ele><time>2026-04-04T16:32:59.041Z</time></trkpt><trkpt lat="43.4632264" lon="11.3568694"><ele>368.0</ele><time>2026-04-04T16:33:00.041Z</time></trkpt><trkpt lat="43.4633309" lon="11.3568554"><ele>368.0</ele><time>2026-04-04T16:33:01.043Z</time></trkpt><trkpt lat="43.4633947" lon="11.356895"><ele>368.0</ele><time>2026-04-04T16:33:02.041Z</time></trkpt><trkpt lat="43.4634591" lon="11.3569107"><ele>368.0</ele><time>2026-04-04T16:33:03.042Z</time></trkpt><trkpt lat="43.4635224" lon="11.3569348"><ele>368.0</ele><time>2026-04-04T16:33:04.041Z</time></trkpt><trkpt lat="43.4635905" lon="11.3569579"><ele>368.0</ele><time>2026-04-04T16:33:05.039Z</time></trkpt><trkpt lat="43.4637218" lon="11.3569961"><ele>368.0</ele><time>2026-04-04T16:33:07.04Z</time></trkpt><trkpt lat="43.4637987" lon="11.3570144"><ele>368.0</ele><time>2026-04-04T16:33:08.042Z</time></trkpt><trkpt lat="43.4638733" lon="11.3570258"><ele>368.0</ele><time>2026-04-04T16:33:09.041Z</time></trkpt><trkpt lat="43.4639433" lon="11.3570575"><ele>368.0</ele><time>2026-04-04T16:33:10.042Z</time></trkpt><trkpt lat="43.464012" lon="11.3571074"><ele>367.33333333333337</ele><time>2026-04-04T16:33:11.041Z</time></trkpt><trkpt lat="43.4640791" lon="11.357166"><ele>366.6666666666667</ele><time>2026-04-04T16:33:12.04Z</time></trkpt><trkpt lat="43.4641544" lon="11.3572114"><ele>366.0</ele><time>2026-04-04T16:33:13.04Z</time></trkpt><trkpt lat="43.4642373" lon="11.3572465"><ele>365.3333333333333</ele><time>2026-04-04T16:33:14.04Z</time></trkpt><trkpt lat="43.4643075" lon="11.3573043"><ele>364.66666666666663</ele><time>2026-04-04T16:33:15.04Z</time></trkpt><trkpt lat="43.464385" lon="11.3573725"><ele>364.0</ele><time>2026-04-04T16:33:16.04Z</time></trkpt><trkpt lat="43.4644525" lon="11.3574454"><ele>364.0</ele><time>2026-04-04T16:33:17.04Z</time></trkpt><trkpt lat="43.4645265" lon="11.3575571"><ele>364.0</ele><time>2026-04-04T16:33:18.041Z</time></trkpt><trkpt lat="43.4645979" lon="11.3576598"><ele>364.0</ele><time>2026-04-04T16:33:19.04Z</time></trkpt><trkpt lat="43.4646584" lon="11.3577674"><ele>364.0</ele><time>2026-04-04T16:33:20.039Z</time></trkpt><trkpt lat="43.4647115" lon="11.3578944"><ele>364.0</ele><time>2026-04-04T16:33:21.042Z</time></trkpt><trkpt lat="43.4647696" lon="11.3580419"><ele>365.0</ele><time>2026-04-04T16:33:22.04Z</time></trkpt><trkpt lat="43.4648138" lon="11.3581596"><ele>366.0</ele><time>2026-04-04T16:33:23.042Z</time></trkpt><trkpt lat="43.4648503" lon="11.3582699"><ele>367.0</ele><time>2026-04-04T16:33:24.043Z</time></trkpt><trkpt lat="43.4648837" lon="11.3583738"><ele>368.0</ele><time>2026-04-04T16:33:25.04Z</time></trkpt><trkpt lat="43.4649112" lon="11.3585084"><ele>369.0</ele><time>2026-04-04T16:33:26.04Z</time></trkpt><trkpt lat="43.4649378" lon="11.3586325"><ele>369.0</ele><time>2026-04-04T16:33:27.042Z</time></trkpt><trkpt lat="43.4649484" lon="11.358755"><ele>369.0</ele><time>2026-04-04T16:33:28.04Z</time></trkpt><trkpt lat="43.4649654" lon="11.358876"><ele>369.0</ele><time>2026-04-04T16:33:29.042Z</time></trkpt><trkpt lat="43.4649809" lon="11.3589974"><ele>369.0</ele><time>2026-04-04T16:33:30.041Z</time></trkpt><trkpt lat="43.4649908" lon="11.3591156"><ele>369.0</ele><time>2026-04-04T16:33:31.04Z</time></trkpt><trkpt lat="43.46501" lon="11.3592231"><ele>369.0</ele><time>2026-04-04T16:33:32.041Z</time></trkpt><trkpt lat="43.4650284" lon="11.3593171"><ele>368.3333333333333</ele><time>2026-04-04T16:33:33.04Z</time></trkpt><trkpt lat="43.4650538" lon="11.3594291"><ele>367.6666666666667</ele><time>2026-04-04T16:33:34.041Z</time></trkpt><trkpt lat="43.4650859" lon="11.3595421"><ele>367.0</ele><time>2026-04-04T16:33:35.041Z</time></trkpt><trkpt lat="43.4651346" lon="11.3596654"><ele>366.33333333333337</ele><time>2026-04-04T16:33:36.041Z</time></trkpt><trkpt lat="43.465164" lon="11.3597658"><ele>365.6666666666667</ele><time>2026-04-04T16:33:37.041Z</time></trkpt><trkpt lat="43.4652102" lon="11.3598725"><ele>365.0</ele><time>2026-04-04T16:33:38.042Z</time></trkpt><trkpt lat="43.4652702" lon="11.3599771"><ele>364.6666666666667</ele><time>2026-04-04T16:33:39.041Z</time></trkpt><trkpt lat="43.4653367" lon="11.3600511"><ele>364.33333333333337</ele><time>2026-04-04T16:33:40.041Z</time></trkpt><trkpt lat="43.4653972" lon="11.3601253"><ele>364.0</ele><time>2026-04-04T16:33:41.04Z</time></trkpt><trkpt lat="43.4654501" lon="11.3602071"><ele>363.6666666666667</ele><time>2026-04-04T16:33:42.04Z</time></trkpt><trkpt lat="43.4655018" lon="11.3602993"><ele>363.3333333333333</ele><time>2026-04-04T16:33:43.041Z</time></trkpt><trkpt lat="43.4655602" lon="11.3604025"><ele>363.0</ele><time>2026-04-04T16:33:44.04Z</time></trkpt><trkpt lat="43.4656048" lon="11.3605078"><ele>364.1666666666667</ele><time>2026-04-04T16:33:45.04Z</time></trkpt><trkpt lat="43.4656533" lon="11.3606008"><ele>365.3333333333333</ele><time>2026-04-04T16:33:46.041Z</time></trkpt><trkpt lat="43.4657052" lon="11.3606931"><ele>366.5</ele><time>2026-04-04T16:33:47.04Z</time></trkpt><trkpt lat="43.4657686" lon="11.3607739"><ele>367.66666666666663</ele><time>2026-04-04T16:33:48.041Z</time></trkpt><trkpt lat="43.4658349" lon="11.3608467"><ele>368.8333333333333</ele><time>2026-04-04T16:33:49.041Z</time></trkpt><trkpt lat="43.4659075" lon="11.3609138"><ele>370.0</ele><time>2026-04-04T16:33:50.039Z</time></trkpt><trkpt lat="43.4659849" lon="11.3609723"><ele>370.0</ele><time>2026-04-04T16:33:51.041Z</time></trkpt><trkpt lat="43.466055" lon="11.3610226"><ele>370.0</ele><time>2026-04-04T16:33:52.041Z</time></trkpt><trkpt lat="43.4661139" lon="11.3610852"><ele>370.0</ele><time>2026-04-04T16:33:53.041Z</time></trkpt><trkpt lat="43.4661564" lon="11.3611593"><ele>370.0</ele><time>2026-04-04T16:33:54.041Z</time></trkpt><trkpt lat="43.466199" lon="11.3612312"><ele>370.0</ele><time>2026-04-04T16:33:55.042Z</time></trkpt><trkpt lat="43.4662453" lon="11.3613163"><ele>370.0</ele><time>2026-04-04T16:33:56.042Z</time></trkpt><trkpt lat="43.4662809" lon="11.3614446"><ele>372.4</ele><time>2026-04-04T16:33:57.042Z</time></trkpt><trkpt lat="43.4663116" lon="11.3615865"><ele>374.8</ele><time>2026-04-04T16:33:58.04Z</time></trkpt><trkpt lat="43.4663364" lon="11.3617177"><ele>377.20000000000005</ele><time>2026-04-04T16:33:59.04Z</time></trkpt><trkpt lat="43.466357" lon="11.3618332"><ele>379.6</ele><time>2026-04-04T16:34:00.041Z</time></trkpt><trkpt lat="43.4663837" lon="11.3619336"><ele>382.0</ele><time>2026-04-04T16:34:01.042Z</time></trkpt><trkpt lat="43.4664189" lon="11.3620398"><ele>382.0</ele><time>2026-04-04T16:34:02.04Z</time></trkpt><trkpt lat="43.466456" lon="11.36215"><ele>382.0</ele><time>2026-04-04T16:34:03.039Z</time></trkpt><trkpt lat="43.4664955" lon="11.3622482"><ele>382.0</ele><time>2026-04-04T16:34:04.04Z</time></trkpt><trkpt lat="43.4665437" lon="11.3623514"><ele>382.0</ele><time>2026-04-04T16:34:05.042Z</time></trkpt><trkpt lat="43.4665924" lon="11.3624522"><ele>382.0</ele><time>2026-04-04T16:34:06.041Z</time></trkpt><trkpt lat="43.4666464" lon="11.3625538"><ele>382.0</ele><time>2026-04-04T16:34:07.041Z</time></trkpt><trkpt lat="43.4667081" lon="11.362643"><ele>379.8333333333333</ele><time>2026-04-04T16:34:08.041Z</time></trkpt><trkpt lat="43.4667672" lon="11.3627369"><ele>377.66666666666663</ele><time>2026-04-04T16:34:09.041Z</time></trkpt><trkpt lat="43.4668138" lon="11.3628263"><ele>375.5</ele><time>2026-04-04T16:34:10.039Z</time></trkpt><trkpt lat="43.4668477" lon="11.3629191"><ele>373.3333333333333</ele><time>2026-04-04T16:34:11.04Z</time></trkpt><trkpt lat="43.4668711" lon="11.3630076"><ele>371.1666666666667</ele><time>2026-04-04T16:34:12.04Z</time></trkpt><trkpt lat="43.4668675" lon="11.3631197"><ele>369.0</ele><time>2026-04-04T16:34:13.04Z</time></trkpt><trkpt lat="43.4668601" lon="11.3632222"><ele>368.4</ele><time>2026-04-04T16:34:14.041Z</time></trkpt><trkpt lat="43.4668348" lon="11.3633471"><ele>367.79999999999995</ele><time>2026-04-04T16:34:15.042Z</time></trkpt><trkpt lat="43.4668044" lon="11.3634625"><ele>367.20000000000005</ele><time>2026-04-04T16:34:16.041Z</time></trkpt><trkpt lat="43.4667791" lon="11.3635904"><ele>366.6</ele><time>2026-04-04T16:34:17.042Z</time></trkpt><trkpt lat="43.4667492" lon="11.3637256"><ele>366.0</ele><time>2026-04-04T16:34:18.04Z</time></trkpt><trkpt lat="43.46672" lon="11.363858"><ele>366.5</ele><time>2026-04-04T16:34:19.041Z</time></trkpt><trkpt lat="43.4666954" lon="11.3639706"><ele>367.0</ele><time>2026-04-04T16:34:20.042Z</time></trkpt><trkpt lat="43.4666689" lon="11.364095"><ele>367.5</ele><time>2026-04-04T16:34:21.041Z</time></trkpt><trkpt lat="43.466644" lon="11.3642051"><ele>368.0</ele><time>2026-04-04T16:34:22.041Z</time></trkpt><trkpt lat="43.4666184" lon="11.3643067"><ele>368.5</ele><time>2026-04-04T16:34:23.041Z</time></trkpt><trkpt lat="43.4666046" lon="11.3644087"><ele>369.0</ele><time>2026-04-04T16:34:24.042Z</time></trkpt><trkpt lat="43.4665632" lon="11.3645794"><ele>369.0</ele><time>2026-04-04T16:34:26.041Z</time></trkpt><trkpt lat="43.4665447" lon="11.3646815"><ele>369.0</ele><time>2026-04-04T16:34:27.04Z</time></trkpt><trkpt lat="43.4665315" lon="11.3647837"><ele>369.0</ele><time>2026-04-04T16:34:28.041Z</time></trkpt><trkpt lat="43.4665024" lon="11.3648876"><ele>369.0</ele><time>2026-04-04T16:34:29.04Z</time></trkpt><trkpt lat="43.466476" lon="11.3649999"><ele>369.0</ele><time>2026-04-04T16:34:30.04Z</time></trkpt><trkpt lat="43.4664536" lon="11.3651125"><ele>369.0</ele><time>2026-04-04T16:34:31.04Z</time></trkpt><trkpt lat="43.4664362" lon="11.3652301"><ele>369.2</ele><time>2026-04-04T16:34:32.04Z</time></trkpt><trkpt lat="43.4664026" lon="11.3653492"><ele>369.4</ele><time>2026-04-04T16:34:33.04Z</time></trkpt><trkpt lat="43.4663742" lon="11.3654727"><ele>369.6</ele><time>2026-04-04T16:34:34.04Z</time></trkpt><trkpt lat="43.466345" lon="11.3655948"><ele>369.8</ele><time>2026-04-04T16:34:35.04Z</time></trkpt><trkpt lat="43.4663179" lon="11.3657155"><ele>370.0</ele><time>2026-04-04T16:34:36.04Z</time></trkpt><trkpt lat="43.4662909" lon="11.3658197"><ele>369.8333333333333</ele><time>2026-04-04T16:34:37.039Z</time></trkpt><trkpt lat="43.4662588" lon="11.3659334"><ele>369.66666666666663</ele><time>2026-04-04T16:34:38.042Z</time></trkpt><trkpt lat="43.4662254" lon="11.3660393"><ele>369.5</ele><time>2026-04-04T16:34:39.041Z</time></trkpt><trkpt lat="43.4661983" lon="11.3661544"><ele>369.3333333333333</ele><time>2026-04-04T16:34:40.042Z</time></trkpt><trkpt lat="43.4661703" lon="11.3662677"><ele>369.1666666666667</ele><time>2026-04-04T16:34:41.04Z</time></trkpt><trkpt lat="43.4661422" lon="11.3663869"><ele>369.0</ele><time>2026-04-04T16:34:42.042Z</time></trkpt><trkpt lat="43.4661237" lon="11.3664996"><ele>369.0</ele><time>2026-04-04T16:34:43.041Z</time></trkpt><trkpt lat="43.4660978" lon="11.3666109"><ele>369.0</ele><time>2026-04-04T16:34:44.041Z</time></trkpt><trkpt lat="43.4660758" lon="11.3667293"><ele>369.0</ele><time>2026-04-04T16:34:45.041Z</time></trkpt><trkpt lat="43.4660446" lon="11.3668511"><ele>369.0</ele><time>2026-04-04T16:34:46.04Z</time></trkpt><trkpt lat="43.4660349" lon="11.3669834"><ele>369.0</ele><time>2026-04-04T16:34:47.041Z</time></trkpt><trkpt lat="43.4660105" lon="11.3671025"><ele>369.4</ele><time>2026-04-04T16:34:48.042Z</time></trkpt><trkpt lat="43.4659873" lon="11.3672206"><ele>369.79999999999995</ele><time>2026-04-04T16:34:49.039Z</time></trkpt><trkpt lat="43.4659553" lon="11.3673368"><ele>370.20000000000005</ele><time>2026-04-04T16:34:50.041Z</time></trkpt><trkpt lat="43.4659339" lon="11.3674609"><ele>370.6</ele><time>2026-04-04T16:34:51.04Z</time></trkpt><trkpt lat="43.4659102" lon="11.3675799"><ele>371.0</ele><time>2026-04-04T16:34:52.041Z</time></trkpt><trkpt lat="43.4658824" lon="11.3677001"><ele>371.0</ele><time>2026-04-04T16:34:53.042Z</time></trkpt><trkpt lat="43.4658448" lon="11.3678265"><ele>371.0</ele><time>2026-04-04T16:34:54.041Z</time></trkpt><trkpt lat="43.4658177" lon="11.367949"><ele>371.0</ele><time>2026-04-04T16:34:55.039Z</time></trkpt><trkpt lat="43.4657941" lon="11.3680966"><ele>371.0</ele><time>2026-04-04T16:34:56.04Z</time></trkpt><trkpt lat="43.4657714" lon="11.368214"><ele>371.0</ele><time>2026-04-04T16:34:57.04Z</time></trkpt><trkpt lat="43.465765" lon="11.3683438"><ele>371.5</ele><time>2026-04-04T16:34:58.041Z</time></trkpt><trkpt lat="43.4657621" lon="11.3684675"><ele>372.0</ele><time>2026-04-04T16:34:59.042Z</time></trkpt><trkpt lat="43.4657589" lon="11.3685793"><ele>372.5</ele><time>2026-04-04T16:35:00.04Z</time></trkpt><trkpt lat="43.4657716" lon="11.3686917"><ele>373.0</ele><time>2026-04-04T16:35:01.042Z</time></trkpt><trkpt lat="43.4657934" lon="11.3688039"><ele>373.5</ele><time>2026-04-04T16:35:02.039Z</time></trkpt><trkpt lat="43.4658119" lon="11.3689214"><ele>374.0</ele><time>2026-04-04T16:35:03.041Z</time></trkpt><trkpt lat="43.465831" lon="11.369047"><ele>374.0</ele><time>2026-04-04T16:35:04.04Z</time></trkpt><trkpt lat="43.4658645" lon="11.3691786"><ele>374.0</ele><time>2026-04-04T16:35:05.041Z</time></trkpt><trkpt lat="43.465907" lon="11.3693207"><ele>374.0</ele><time>2026-04-04T16:35:06.042Z</time></trkpt><trkpt lat="43.4659453" lon="11.3694655"><ele>374.0</ele><time>2026-04-04T16:35:07.04Z</time></trkpt><trkpt lat="43.4659924" lon="11.3696059"><ele>374.0</ele><time>2026-04-04T16:35:08.041Z</time></trkpt><trkpt lat="43.4660386" lon="11.3697429"><ele>374.4</ele><time>2026-04-04T16:35:09.04Z</time></trkpt><trkpt lat="43.4660831" lon="11.3698622"><ele>374.79999999999995</ele><time>2026-04-04T16:35:10.04Z</time></trkpt><trkpt lat="43.4661211" lon="11.3699727"><ele>375.20000000000005</ele><time>2026-04-04T16:35:11.042Z</time></trkpt><trkpt lat="43.4661635" lon="11.370076"><ele>375.6</ele><time>2026-04-04T16:35:12.041Z</time></trkpt><trkpt lat="43.4662178" lon="11.3701856"><ele>376.0</ele><time>2026-04-04T16:35:13.041Z</time></trkpt><trkpt lat="43.466266" lon="11.3702874"><ele>376.6</ele><time>2026-04-04T16:35:14.04Z</time></trkpt><trkpt lat="43.4663187" lon="11.3703921"><ele>377.20000000000005</ele><time>2026-04-04T16:35:15.042Z</time></trkpt><trkpt lat="43.4663743" lon="11.3704954"><ele>377.79999999999995</ele><time>2026-04-04T16:35:16.04Z</time></trkpt><trkpt lat="43.4664286" lon="11.3705952"><ele>378.4</ele><time>2026-04-04T16:35:17.04Z</time></trkpt><trkpt lat="43.4664898" lon="11.3706867"><ele>379.0</ele><time>2026-04-04T16:35:18.04Z</time></trkpt><trkpt lat="43.4665441" lon="11.3707855"><ele>379.0</ele><time>2026-04-04T16:35:19.04Z</time></trkpt><trkpt lat="43.4665964" lon="11.3708666"><ele>379.0</ele><time>2026-04-04T16:35:20.042Z</time></trkpt><trkpt lat="43.4666561" lon="11.3709565"><ele>379.0</ele><time>2026-04-04T16:35:21.039Z</time></trkpt><trkpt lat="43.4667113" lon="11.3710466"><ele>379.0</ele><time>2026-04-04T16:35:22.04Z</time></trkpt><trkpt lat="43.4667783" lon="11.3711404"><ele>379.0</ele><time>2026-04-04T16:35:23.041Z</time></trkpt><trkpt lat="43.4668623" lon="11.3712156"><ele>379.0</ele><time>2026-04-04T16:35:24.041Z</time></trkpt><trkpt lat="43.466952" lon="11.3712913"><ele>379.0</ele><time>2026-04-04T16:35:25.04Z</time></trkpt><trkpt lat="43.4670458" lon="11.3713563"><ele>379.0</ele><time>2026-04-04T16:35:26.041Z</time></trkpt><trkpt lat="43.4671296" lon="11.3714107"><ele>379.0</ele><time>2026-04-04T16:35:27.041Z</time></trkpt><trkpt lat="43.4672458" lon="11.3715212"><ele>379.0</ele><time>2026-04-04T16:35:29.039Z</time></trkpt><trkpt lat="43.4673264" lon="11.3715653"><ele>379.0</ele><time>2026-04-04T16:35:30.041Z</time></trkpt><trkpt lat="43.4673895" lon="11.3716309"><ele>379.2</ele><time>2026-04-04T16:35:31.041Z</time></trkpt><trkpt lat="43.4674433" lon="11.3717123"><ele>379.4</ele><time>2026-04-04T16:35:32.042Z</time></trkpt><trkpt lat="43.4675044" lon="11.3718357"><ele>379.6</ele><time>2026-04-04T16:35:33.041Z</time></trkpt><trkpt lat="43.4675627" lon="11.3719577"><ele>379.8</ele><time>2026-04-04T16:35:34.04Z</time></trkpt><trkpt lat="43.4676239" lon="11.3720861"><ele>380.0</ele><time>2026-04-04T16:35:35.04Z</time></trkpt><trkpt lat="43.467677" lon="11.3722223"><ele>379.2</ele><time>2026-04-04T16:35:36.039Z</time></trkpt><trkpt lat="43.4677367" lon="11.3723478"><ele>378.4</ele><time>2026-04-04T16:35:37.039Z</time></trkpt><trkpt lat="43.4677813" lon="11.3724931"><ele>377.6</ele><time>2026-04-04T16:35:38.04Z</time></trkpt><trkpt lat="43.4678195" lon="11.3726274"><ele>376.8</ele><time>2026-04-04T16:35:39.04Z</time></trkpt><trkpt lat="43.467844" lon="11.3727586"><ele>376.0</ele><time>2026-04-04T16:35:40.039Z</time></trkpt><trkpt lat="43.4678586" lon="11.3728856"><ele>376.20000000000005</ele><time>2026-04-04T16:35:41.041Z</time></trkpt><trkpt lat="43.4678657" lon="11.3730419"><ele>376.40000000000003</ele><time>2026-04-04T16:35:43.041Z</time></trkpt><trkpt lat="43.4678693" lon="11.3731422"><ele>376.6</ele><time>2026-04-04T16:35:45.041Z</time></trkpt><trkpt lat="43.4679412" lon="11.3732496"><ele>376.8</ele><time>2026-04-04T16:35:48.041Z</time></trkpt><trkpt lat="43.4680704" lon="11.3733157"><ele>377.0</ele><time>2026-04-04T16:35:50.041Z</time></trkpt><trkpt lat="43.468141" lon="11.3733357"><ele>378.20000000000005</ele><time>2026-04-04T16:35:51.04Z</time></trkpt><trkpt lat="43.4682305" lon="11.3733785"><ele>379.4</ele><time>2026-04-04T16:35:52.04Z</time></trkpt><trkpt lat="43.4683282" lon="11.3734298"><ele>380.6</ele><time>2026-04-04T16:35:53.04Z</time></trkpt><trkpt lat="43.468415" lon="11.3734921"><ele>381.79999999999995</ele><time>2026-04-04T16:35:54.041Z</time></trkpt><trkpt lat="43.4685073" lon="11.3735672"><ele>383.0</ele><time>2026-04-04T16:35:55.04Z</time></trkpt><trkpt lat="43.4685793" lon="11.3736362"><ele>383.0</ele><time>2026-04-04T16:35:56.041Z</time></trkpt><trkpt lat="43.4686591" lon="11.3737518"><ele>383.0</ele><time>2026-04-04T16:35:57.04Z</time></trkpt><trkpt lat="43.4687279" lon="11.3738518"><ele>383.0</ele><time>2026-04-04T16:35:58.039Z</time></trkpt><trkpt lat="43.4688345" lon="11.3739724"><ele>383.0</ele><time>2026-04-04T16:35:59.04Z</time></trkpt><trkpt lat="43.4689235" lon="11.3740638"><ele>383.5</ele><time>2026-04-04T16:36:00.04Z</time></trkpt><trkpt lat="43.4690417" lon="11.3741776"><ele>384.0</ele><time>2026-04-04T16:36:01.04Z</time></trkpt><trkpt lat="43.4691545" lon="11.3742051"><ele>384.5</ele><time>2026-04-04T16:36:02.041Z</time></trkpt><trkpt lat="43.4692688" lon="11.3742342"><ele>385.0</ele><time>2026-04-04T16:36:03.041Z</time></trkpt><trkpt lat="43.4693964" lon="11.3742393"><ele>385.0</ele><time>2026-04-04T16:36:04.04Z</time></trkpt><trkpt lat="43.4695254" lon="11.3742459"><ele>385.0</ele><time>2026-04-04T16:36:05.041Z</time></trkpt><trkpt lat="43.4696568" lon="11.3742396"><ele>385.0</ele><time>2026-04-04T16:36:06.041Z</time></trkpt><trkpt lat="43.469795" lon="11.3742451"><ele>385.0</ele><time>2026-04-04T16:36:07.041Z</time></trkpt><trkpt lat="43.4699638" lon="11.3742406"><ele>386.75</ele><time>2026-04-04T16:36:08.041Z</time></trkpt><trkpt lat="43.4701143" lon="11.3742506"><ele>388.5</ele><time>2026-04-04T16:36:09.04Z</time></trkpt><trkpt lat="43.4702569" lon="11.3742628"><ele>390.25</ele><time>2026-04-04T16:36:10.04Z</time></trkpt><trkpt lat="43.4704071" lon="11.3742669"><ele>392.0</ele><time>2026-04-04T16:36:11.041Z</time></trkpt><trkpt lat="43.4705486" lon="11.3742718"><ele>392.75</ele><time>2026-04-04T16:36:12.041Z</time></trkpt><trkpt lat="43.4706984" lon="11.3742688"><ele>393.5</ele><time>2026-04-04T16:36:13.04Z</time></trkpt><trkpt lat="43.4708333" lon="11.3742565"><ele>394.25</ele><time>2026-04-04T16:36:14.04Z</time></trkpt><trkpt lat="43.4709785" lon="11.3742338"><ele>395.0</ele><time>2026-04-04T16:36:15.041Z</time></trkpt><trkpt lat="43.4711236" lon="11.3741984"><ele>395.66666666666663</ele><time>2026-04-04T16:36:16.04Z</time></trkpt><trkpt lat="43.4712819" lon="11.3741665"><ele>396.33333333333337</ele><time>2026-04-04T16:36:17.04Z</time></trkpt><trkpt lat="43.471433" lon="11.374116"><ele>397.0</ele><time>2026-04-04T16:36:18.04Z</time></trkpt><trkpt lat="43.4715769" lon="11.3740675"><ele>397.0</ele><time>2026-04-04T16:36:19.04Z</time></trkpt><trkpt lat="43.4717258" lon="11.3740287"><ele>397.0</ele><time>2026-04-04T16:36:20.04Z</time></trkpt><trkpt lat="43.4718743" lon="11.3739929"><ele>397.0</ele><time>2026-04-04T16:36:21.039Z</time></trkpt><trkpt lat="43.4720217" lon="11.3739571"><ele>398.5</ele><time>2026-04-04T16:36:22.041Z</time></trkpt><trkpt lat="43.4721682" lon="11.3739258"><ele>400.0</ele><time>2026-04-04T16:36:23.041Z</time></trkpt><trkpt lat="43.4723172" lon="11.3739175"><ele>401.5</ele><time>2026-04-04T16:36:24.041Z</time></trkpt><trkpt lat="43.4724569" lon="11.3739256"><ele>403.0</ele><time>2026-04-04T16:36:25.041Z</time></trkpt><trkpt lat="43.4725935" lon="11.3739666"><ele>403.0</ele><time>2026-04-04T16:36:26.04Z</time></trkpt><trkpt lat="43.4727345" lon="11.3740376"><ele>403.0</ele><time>2026-04-04T16:36:27.04Z</time></trkpt><trkpt lat="43.472848" lon="11.3740833"><ele>403.0</ele><time>2026-04-04T16:36:28.04Z</time></trkpt><trkpt lat="43.4729733" lon="11.3741601"><ele>403.0</ele><time>2026-04-04T16:36:29.039Z</time></trkpt><trkpt lat="43.4731205" lon="11.3742552"><ele>405.2</ele><time>2026-04-04T16:36:30.04Z</time></trkpt><trkpt lat="43.4732291" lon="11.3742868"><ele>407.4</ele><time>2026-04-04T16:36:31.039Z</time></trkpt><trkpt lat="43.4733285" lon="11.3743029"><ele>409.59999999999997</ele><time>2026-04-04T16:36:32.04Z</time></trkpt><trkpt lat="43.4734192" lon="11.3743144"><ele>411.79999999999995</ele><time>2026-04-04T16:36:33.041Z</time></trkpt><trkpt lat="43.4735083" lon="11.3742993"><ele>414.0</ele><time>2026-04-04T16:36:34.04Z</time></trkpt><trkpt lat="43.4735986" lon="11.3742672"><ele>414.0</ele><time>2026-04-04T16:36:35.04Z</time></trkpt><trkpt lat="43.473678" lon="11.3742337"><ele>414.0</ele><time>2026-04-04T16:36:36.041Z</time></trkpt><trkpt lat="43.4737505" lon="11.374158"><ele>414.0</ele><time>2026-04-04T16:36:37.041Z</time></trkpt><trkpt lat="43.4738208" lon="11.3740702"><ele>414.0</ele><time>2026-04-04T16:36:38.041Z</time></trkpt><trkpt lat="43.4738833" lon="11.3739699"><ele>414.0</ele><time>2026-04-04T16:36:39.04Z</time></trkpt><trkpt lat="43.4739492" lon="11.3738679"><ele>417.0</ele><time>2026-04-04T16:36:40.04Z</time></trkpt><trkpt lat="43.4740178" lon="11.3737654"><ele>420.0</ele><time>2026-04-04T16:36:41.039Z</time></trkpt><trkpt lat="43.4740953" lon="11.3736732"><ele>423.0</ele><time>2026-04-04T16:36:42.04Z</time></trkpt><trkpt lat="43.4741816" lon="11.3735833"><ele>426.0</ele><time>2026-04-04T16:36:43.04Z</time></trkpt><trkpt lat="43.4742757" lon="11.3735244"><ele>429.0</ele><time>2026-04-04T16:36:44.041Z</time></trkpt><trkpt lat="43.4743745" lon="11.3734817"><ele>429.0</ele><time>2026-04-04T16:36:45.04Z</time></trkpt><trkpt lat="43.4744683" lon="11.3734919"><ele>429.0</ele><time>2026-04-04T16:36:46.041Z</time></trkpt><trkpt lat="43.4745633" lon="11.37354"><ele>429.0</ele><time>2026-04-04T16:36:47.04Z</time></trkpt><trkpt lat="43.4746279" lon="11.3736414"><ele>429.0</ele><time>2026-04-04T16:36:48.04Z</time></trkpt><trkpt lat="43.4747016" lon="11.3737307"><ele>429.0</ele><time>2026-04-04T16:36:49.04Z</time></trkpt><trkpt lat="43.4747817" lon="11.3738366"><ele>427.2</ele><time>2026-04-04T16:36:50.041Z</time></trkpt><trkpt lat="43.4748829" lon="11.3738604"><ele>425.4</ele><time>2026-04-04T16:36:51.041Z</time></trkpt><trkpt lat="43.474988" lon="11.3738954"><ele>423.6</ele><time>2026-04-04T16:36:52.039Z</time></trkpt><trkpt lat="43.4751044" lon="11.3739029"><ele>421.8</ele><time>2026-04-04T16:36:53.041Z</time></trkpt><trkpt lat="43.4752217" lon="11.3739043"><ele>420.0</ele><time>2026-04-04T16:36:54.04Z</time></trkpt><trkpt lat="43.4753399" lon="11.3738855"><ele>421.5</ele><time>2026-04-04T16:36:55.04Z</time></trkpt><trkpt lat="43.4754492" lon="11.3738799"><ele>423.0</ele><time>2026-04-04T16:36:56.039Z</time></trkpt><trkpt lat="43.4755835" lon="11.3738387"><ele>424.5</ele><time>2026-04-04T16:36:57.04Z</time></trkpt><trkpt lat="43.475703" lon="11.3738156"><ele>426.0</ele><time>2026-04-04T16:36:58.039Z</time></trkpt><trkpt lat="43.4758154" lon="11.3738082"><ele>428.0</ele><time>2026-04-04T16:36:59.04Z</time></trkpt><trkpt lat="43.4759544" lon="11.3738236"><ele>430.0</ele><time>2026-04-04T16:37:00.039Z</time></trkpt><trkpt lat="43.4760818" lon="11.3738099"><ele>432.0</ele><time>2026-04-04T16:37:01.041Z</time></trkpt><trkpt lat="43.4761988" lon="11.3737811"><ele>434.0</ele><time>2026-04-04T16:37:02.041Z</time></trkpt><trkpt lat="43.4762809" lon="11.3737538"><ele>433.99999999999994</ele><time>2026-04-04T16:37:03.04Z</time></trkpt><trkpt lat="43.4763592" lon="11.3737127"><ele>434.0</ele><time>2026-04-04T16:37:04.04Z</time></trkpt><trkpt lat="43.4764284" lon="11.3736444"><ele>434.0</ele><time>2026-04-04T16:37:05.039Z</time></trkpt><trkpt lat="43.4764906" lon="11.3735612"><ele>434.0</ele><time>2026-04-04T16:37:06.04Z</time></trkpt><trkpt lat="43.4765405" lon="11.3734813"><ele>433.99999999999994</ele><time>2026-04-04T16:37:07.039Z</time></trkpt><trkpt lat="43.4765637" lon="11.3733372"><ele>434.0</ele><time>2026-04-04T16:37:08.041Z</time></trkpt><trkpt lat="43.476589" lon="11.3731716"><ele>437.0</ele><time>2026-04-04T16:37:09.04Z</time></trkpt><trkpt lat="43.4766172" lon="11.3729667"><ele>440.0</ele><time>2026-04-04T16:37:10.04Z</time></trkpt><trkpt lat="43.4766255" lon="11.3727787"><ele>443.0</ele><time>2026-04-04T16:37:11.04Z</time></trkpt><trkpt lat="43.4766498" lon="11.3726008"><ele>446.0</ele><time>2026-04-04T16:37:12.04Z</time></trkpt><trkpt lat="43.4766704" lon="11.372448"><ele>446.0</ele><time>2026-04-04T16:37:13.04Z</time></trkpt><trkpt lat="43.4766757" lon="11.3723008"><ele>446.0</ele><time>2026-04-04T16:37:14.041Z</time></trkpt><trkpt lat="43.476698" lon="11.372176"><ele>446.0</ele><time>2026-04-04T16:37:15.04Z</time></trkpt><trkpt lat="43.4767133" lon="11.3720548"><ele>446.0</ele><time>2026-04-04T16:37:16.04Z</time></trkpt><trkpt lat="43.4767775" lon="11.3719449"><ele>446.0</ele><time>2026-04-04T16:37:17.041Z</time></trkpt><trkpt lat="43.4768577" lon="11.3718591"><ele>447.8</ele><time>2026-04-04T16:37:18.039Z</time></trkpt><trkpt lat="43.4769509" lon="11.3718095"><ele>449.6</ele><time>2026-04-04T16:37:19.041Z</time></trkpt><trkpt lat="43.4770513" lon="11.3718048"><ele>451.4</ele><time>2026-04-04T16:37:20.041Z</time></trkpt><trkpt lat="43.4771533" lon="11.3718126"><ele>453.2</ele><time>2026-04-04T16:37:21.041Z</time></trkpt><trkpt lat="43.4772753" lon="11.3718524"><ele>455.0</ele><time>2026-04-04T16:37:22.039Z</time></trkpt><trkpt lat="43.4773918" lon="11.3719121"><ele>455.5</ele><time>2026-04-04T16:37:23.038Z</time></trkpt><trkpt lat="43.4774943" lon="11.3719523"><ele>456.0</ele><time>2026-04-04T16:37:24.04Z</time></trkpt><trkpt lat="43.4776099" lon="11.3719562"><ele>456.5</ele><time>2026-04-04T16:37:25.04Z</time></trkpt><trkpt lat="43.4777282" lon="11.3719472"><ele>457.0</ele><time>2026-04-04T16:37:26.04Z</time></trkpt><trkpt lat="43.4778387" lon="11.3719382"><ele>456.40000000000003</ele><time>2026-04-04T16:37:27.039Z</time></trkpt><trkpt lat="43.4779391" lon="11.3719159"><ele>455.80000000000007</ele><time>2026-04-04T16:37:28.041Z</time></trkpt><trkpt lat="43.4780196" lon="11.3718613"><ele>455.2</ele><time>2026-04-04T16:37:29.04Z</time></trkpt><trkpt lat="43.478107" lon="11.3718"><ele>454.6</ele><time>2026-04-04T16:37:30.04Z</time></trkpt><trkpt lat="43.4781788" lon="11.3717281"><ele>454.0</ele><time>2026-04-04T16:37:31.038Z</time></trkpt><trkpt lat="43.478228" lon="11.3715951"><ele>454.0</ele><time>2026-04-04T16:37:32.038Z</time></trkpt><trkpt lat="43.4782201" lon="11.3714366"><ele>454.0</ele><time>2026-04-04T16:37:33.041Z</time></trkpt><trkpt lat="43.4782174" lon="11.3712899"><ele>454.0</ele><time>2026-04-04T16:37:34.039Z</time></trkpt><trkpt lat="43.4781878" lon="11.3711236"><ele>454.0</ele><time>2026-04-04T16:37:35.041Z</time></trkpt><trkpt lat="43.4781388" lon="11.3709383"><ele>456.25</ele><time>2026-04-04T16:37:36.039Z</time></trkpt><trkpt lat="43.4780967" lon="11.3707787"><ele>458.5</ele><time>2026-04-04T16:37:37.039Z</time></trkpt><trkpt lat="43.4780566" lon="11.3705929"><ele>460.75</ele><time>2026-04-04T16:37:38.04Z</time></trkpt><trkpt lat="43.4780193" lon="11.3704124"><ele>463.0</ele><time>2026-04-04T16:37:39.039Z</time></trkpt><trkpt lat="43.4779774" lon="11.3702533"><ele>465.0</ele><time>2026-04-04T16:37:40.041Z</time></trkpt><trkpt lat="43.4779384" lon="11.3700914"><ele>467.0</ele><time>2026-04-04T16:37:41.04Z</time></trkpt><trkpt lat="43.4779436" lon="11.3698808"><ele>469.0</ele><time>2026-04-04T16:37:43.041Z</time></trkpt><trkpt lat="43.4780921" lon="11.3698695"><ele>471.0</ele><time>2026-04-04T16:37:44.041Z</time></trkpt><trkpt lat="43.4782018" lon="11.3697939"><ele>471.0</ele><time>2026-04-04T16:37:45.04Z</time></trkpt><trkpt lat="43.4782745" lon="11.3698008"><ele>471.0</ele><time>2026-04-04T16:37:46.039Z</time></trkpt><trkpt lat="43.4783957" lon="11.3698295"><ele>471.0</ele><time>2026-04-04T16:37:47.04Z</time></trkpt><trkpt lat="43.4784798" lon="11.3698037"><ele>471.0</ele><time>2026-04-04T16:37:48.04Z</time></trkpt><trkpt lat="43.4785775" lon="11.3697897"><ele>471.0</ele><time>2026-04-04T16:37:49.04Z</time></trkpt><trkpt lat="43.4786769" lon="11.3697496"><ele>473.0</ele><time>2026-04-04T16:37:50.039Z</time></trkpt><trkpt lat="43.478761" lon="11.3696662"><ele>475.0</ele><time>2026-04-04T16:37:51.039Z</time></trkpt><trkpt lat="43.4788355" lon="11.3695754"><ele>477.0</ele><time>2026-04-04T16:37:52.04Z</time></trkpt><trkpt lat="43.4789208" lon="11.3694777"><ele>479.0</ele><time>2026-04-04T16:37:53.04Z</time></trkpt><trkpt lat="43.4790026" lon="11.3693622"><ele>481.0</ele><time>2026-04-04T16:37:54.041Z</time></trkpt><trkpt lat="43.4790917" lon="11.3692313"><ele>481.0</ele><time>2026-04-04T16:37:55.04Z</time></trkpt><trkpt lat="43.4791787" lon="11.3691064"><ele>481.0</ele><time>2026-04-04T16:37:56.04Z</time></trkpt><trkpt lat="43.4792568" lon="11.3689751"><ele>481.0</ele><time>2026-04-04T16:37:57.039Z</time></trkpt><trkpt lat="43.4793412" lon="11.3688442"><ele>481.0</ele><time>2026-04-04T16:37:58.039Z</time></trkpt><trkpt lat="43.4794235" lon="11.3687128"><ele>481.25</ele><time>2026-04-04T16:37:59.041Z</time></trkpt><trkpt lat="43.4795107" lon="11.368598"><ele>481.5</ele><time>2026-04-04T16:38:00.039Z</time></trkpt><trkpt lat="43.4796116" lon="11.3684631"><ele>481.75</ele><time>2026-04-04T16:38:01.039Z</time></trkpt><trkpt lat="43.4797046" lon="11.3683437"><ele>482.0</ele><time>2026-04-04T16:38:02.04Z</time></trkpt><trkpt lat="43.4797935" lon="11.3682186"><ele>482.0</ele><time>2026-04-04T16:38:03.041Z</time></trkpt><trkpt lat="43.479871" lon="11.3681033"><ele>482.00000000000006</ele><time>2026-04-04T16:38:04.041Z</time></trkpt><trkpt lat="43.4799549" lon="11.3679773"><ele>482.00000000000006</ele><time>2026-04-04T16:38:05.039Z</time></trkpt><trkpt lat="43.480023" lon="11.3678503"><ele>482.0</ele><time>2026-04-04T16:38:06.041Z</time></trkpt><trkpt lat="43.4800738" lon="11.3677801"><ele>482.0</ele><time>2026-04-04T16:38:07.04Z</time></trkpt><trkpt lat="43.4801413" lon="11.3676918"><ele>483.6</ele><time>2026-04-04T16:38:08.039Z</time></trkpt><trkpt lat="43.4802412" lon="11.3676507"><ele>485.20000000000005</ele><time>2026-04-04T16:38:09.04Z</time></trkpt><trkpt lat="43.4803445" lon="11.3676486"><ele>486.8</ele><time>2026-04-04T16:38:10.039Z</time></trkpt><trkpt lat="43.4804292" lon="11.3676592"><ele>488.4</ele><time>2026-04-04T16:38:11.04Z</time></trkpt><trkpt lat="43.4805221" lon="11.3677012"><ele>490.0</ele><time>2026-04-04T16:38:12.039Z</time></trkpt><trkpt lat="43.4805907" lon="11.3677072"><ele>490.00000000000006</ele><time>2026-04-04T16:38:13.039Z</time></trkpt><trkpt lat="43.4806674" lon="11.367701"><ele>490.0</ele><time>2026-04-04T16:38:14.04Z</time></trkpt><trkpt lat="43.4807406" lon="11.3676604"><ele>490.0</ele><time>2026-04-04T16:38:15.039Z</time></trkpt><trkpt lat="43.4808176" lon="11.3675965"><ele>490.0</ele><time>2026-04-04T16:38:16.041Z</time></trkpt><trkpt lat="43.4808813" lon="11.3675148"><ele>490.00000000000006</ele><time>2026-04-04T16:38:17.041Z</time></trkpt><trkpt lat="43.4809586" lon="11.367414"><ele>490.0</ele><time>2026-04-04T16:38:18.04Z</time></trkpt><trkpt lat="43.4810249" lon="11.3673184"><ele>490.0</ele><time>2026-04-04T16:38:19.04Z</time></trkpt><trkpt lat="43.4811074" lon="11.3672302"><ele>490.0</ele><time>2026-04-04T16:38:20.04Z</time></trkpt><trkpt lat="43.4811887" lon="11.3671656"><ele>490.0</ele><time>2026-04-04T16:38:21.04Z</time></trkpt><trkpt lat="43.4813054" lon="11.3671459"><ele>490.0</ele><time>2026-04-04T16:38:22.041Z</time></trkpt><trkpt lat="43.4814097" lon="11.367141"><ele>490.0</ele><time>2026-04-04T16:38:23.04Z</time></trkpt><trkpt lat="43.4815134" lon="11.367139"><ele>491.2</ele><time>2026-04-04T16:38:24.039Z</time></trkpt><trkpt lat="43.4816091" lon="11.3671198"><ele>492.4</ele><time>2026-04-04T16:38:25.04Z</time></trkpt><trkpt lat="43.4817049" lon="11.3671145"><ele>493.6</ele><time>2026-04-04T16:38:26.04Z</time></trkpt><trkpt lat="43.4817921" lon="11.3670485"><ele>494.8</ele><time>2026-04-04T16:38:27.041Z</time></trkpt><trkpt lat="43.4818818" lon="11.3669716"><ele>496.0</ele><time>2026-04-04T16:38:28.04Z</time></trkpt><trkpt lat="43.4819666" lon="11.3668782"><ele>496.0</ele><time>2026-04-04T16:38:29.039Z</time></trkpt><trkpt lat="43.4820224" lon="11.366762"><ele>496.0</ele><time>2026-04-04T16:38:30.04Z</time></trkpt><trkpt lat="43.4820935" lon="11.3666551"><ele>496.0</ele><time>2026-04-04T16:38:31.039Z</time></trkpt><trkpt lat="43.4821794" lon="11.3665443"><ele>496.0</ele><time>2026-04-04T16:38:32.041Z</time></trkpt><trkpt lat="43.4822637" lon="11.3664516"><ele>496.0</ele><time>2026-04-04T16:38:33.038Z</time></trkpt><trkpt lat="43.4823656" lon="11.3664073"><ele>495.20000000000005</ele><time>2026-04-04T16:38:34.041Z</time></trkpt><trkpt lat="43.4824666" lon="11.3663941"><ele>494.40000000000003</ele><time>2026-04-04T16:38:35.041Z</time></trkpt><trkpt lat="43.4825715" lon="11.3664079"><ele>493.6</ele><time>2026-04-04T16:38:36.039Z</time></trkpt><trkpt lat="43.4826661" lon="11.3664236"><ele>492.8</ele><time>2026-04-04T16:38:37.04Z</time></trkpt><trkpt lat="43.4827653" lon="11.3664473"><ele>492.0</ele><time>2026-04-04T16:38:38.038Z</time></trkpt><trkpt lat="43.4828563" lon="11.3664693"><ele>492.1666666666667</ele><time>2026-04-04T16:38:39.04Z</time></trkpt><trkpt lat="43.4829369" lon="11.3664808"><ele>492.33333333333337</ele><time>2026-04-04T16:38:40.04Z</time></trkpt><trkpt lat="43.4830142" lon="11.3664809"><ele>492.5</ele><time>2026-04-04T16:38:41.038Z</time></trkpt><trkpt lat="43.4830957" lon="11.3664714"><ele>492.6666666666667</ele><time>2026-04-04T16:38:42.04Z</time></trkpt><trkpt lat="43.4831878" lon="11.366441"><ele>492.83333333333337</ele><time>2026-04-04T16:38:43.039Z</time></trkpt><trkpt lat="43.4832746" lon="11.3663735"><ele>493.0</ele><time>2026-04-04T16:38:44.04Z</time></trkpt><trkpt lat="43.4833624" lon="11.366283"><ele>496.5</ele><time>2026-04-04T16:38:45.039Z</time></trkpt><trkpt lat="43.4834479" lon="11.3661753"><ele>500.0</ele><time>2026-04-04T16:38:46.04Z</time></trkpt><trkpt lat="43.4835346" lon="11.3660559"><ele>503.5</ele><time>2026-04-04T16:38:47.039Z</time></trkpt><trkpt lat="43.4836118" lon="11.3659487"><ele>507.0</ele><time>2026-04-04T16:38:48.041Z</time></trkpt><trkpt lat="43.4836764" lon="11.3658369"><ele>507.0</ele><time>2026-04-04T16:38:49.039Z</time></trkpt><trkpt lat="43.4837376" lon="11.3657383"><ele>507.0</ele><time>2026-04-04T16:38:50.04Z</time></trkpt><trkpt lat="43.4837924" lon="11.3656556"><ele>507.0</ele><time>2026-04-04T16:38:51.039Z</time></trkpt><trkpt lat="43.483846" lon="11.365608"><ele>507.0</ele><time>2026-04-04T16:38:52.039Z</time></trkpt><trkpt lat="43.4839151" lon="11.3655309"><ele>507.0</ele><time>2026-04-04T16:38:54.038Z</time></trkpt><trkpt lat="43.4840105" lon="11.3654823"><ele>507.0</ele><time>2026-04-04T16:38:57.04Z</time></trkpt><trkpt lat="43.4841358" lon="11.3655223"><ele>505.8</ele><time>2026-04-04T16:38:59.039Z</time></trkpt><trkpt lat="43.4842103" lon="11.3655738"><ele>504.6</ele><time>2026-04-04T16:39:00.039Z</time></trkpt><trkpt lat="43.4842832" lon="11.3656443"><ele>503.40000000000003</ele><time>2026-04-04T16:39:01.038Z</time></trkpt><trkpt lat="43.4843493" lon="11.3657257"><ele>502.20000000000005</ele><time>2026-04-04T16:39:02.04Z</time></trkpt><trkpt lat="43.4843877" lon="11.3658378"><ele>501.0</ele><time>2026-04-04T16:39:03.039Z</time></trkpt><trkpt lat="43.4844137" lon="11.3659748"><ele>501.0</ele><time>2026-04-04T16:39:04.039Z</time></trkpt><trkpt lat="43.4843865" lon="11.3661365"><ele>501.0</ele><time>2026-04-04T16:39:05.041Z</time></trkpt><trkpt lat="43.4843569" lon="11.3662898"><ele>501.0</ele><time>2026-04-04T16:39:06.039Z</time></trkpt><trkpt lat="43.4843415" lon="11.3664388"><ele>501.0</ele><time>2026-04-04T16:39:07.039Z</time></trkpt><trkpt lat="43.484349" lon="11.3665928"><ele>499.8</ele><time>2026-04-04T16:39:08.039Z</time></trkpt><trkpt lat="43.4843545" lon="11.3667287"><ele>498.6</ele><time>2026-04-04T16:39:09.039Z</time></trkpt><trkpt lat="43.4843791" lon="11.3668648"><ele>497.4</ele><time>2026-04-04T16:39:10.04Z</time></trkpt><trkpt lat="43.4844204" lon="11.3670085"><ele>496.2</ele><time>2026-04-04T16:39:11.04Z</time></trkpt><trkpt lat="43.4844592" lon="11.3671471"><ele>495.0</ele><time>2026-04-04T16:39:12.04Z</time></trkpt><trkpt lat="43.4844954" lon="11.367285"><ele>494.75</ele><time>2026-04-04T16:39:13.039Z</time></trkpt><trkpt lat="43.4845303" lon="11.3674374"><ele>494.5</ele><time>2026-04-04T16:39:14.04Z</time></trkpt><trkpt lat="43.4845596" lon="11.3675933"><ele>494.25</ele><time>2026-04-04T16:39:15.04Z</time></trkpt><trkpt lat="43.4845946" lon="11.3677582"><ele>494.0</ele><time>2026-04-04T16:39:16.04Z</time></trkpt><trkpt lat="43.4846072" lon="11.3679151"><ele>496.0</ele><time>2026-04-04T16:39:17.039Z</time></trkpt><trkpt lat="43.4846293" lon="11.3680718"><ele>498.0</ele><time>2026-04-04T16:39:18.039Z</time></trkpt><trkpt lat="43.4846537" lon="11.3682302"><ele>500.0</ele><time>2026-04-04T16:39:19.041Z</time></trkpt><trkpt lat="43.484669" lon="11.3683913"><ele>502.0</ele><time>2026-04-04T16:39:20.04Z</time></trkpt><trkpt lat="43.4846842" lon="11.3685536"><ele>502.0</ele><time>2026-04-04T16:39:21.039Z</time></trkpt><trkpt lat="43.4846946" lon="11.3687161"><ele>502.0</ele><time>2026-04-04T16:39:22.04Z</time></trkpt><trkpt lat="43.484717" lon="11.3688737"><ele>502.0</ele><time>2026-04-04T16:39:23.041Z</time></trkpt><trkpt lat="43.4847513" lon="11.3690292"><ele>502.0</ele><time>2026-04-04T16:39:24.041Z</time></trkpt><trkpt lat="43.4847868" lon="11.3691714"><ele>503.25</ele><time>2026-04-04T16:39:25.04Z</time></trkpt><trkpt lat="43.4848484" lon="11.3693073"><ele>504.5</ele><time>2026-04-04T16:39:26.04Z</time></trkpt><trkpt lat="43.4849242" lon="11.3694301"><ele>505.75</ele><time>2026-04-04T16:39:27.039Z</time></trkpt><trkpt lat="43.4850079" lon="11.3695519"><ele>507.0</ele><time>2026-04-04T16:39:28.041Z</time></trkpt><trkpt lat="43.4850973" lon="11.369656"><ele>508.0</ele><time>2026-04-04T16:39:29.039Z</time></trkpt><trkpt lat="43.4851829" lon="11.3697382"><ele>509.00000000000006</ele><time>2026-04-04T16:39:30.039Z</time></trkpt><trkpt lat="43.4852833" lon="11.3698017"><ele>510.00000000000006</ele><time>2026-04-04T16:39:31.04Z</time></trkpt><trkpt lat="43.4853848" lon="11.3698497"><ele>511.0</ele><time>2026-04-04T16:39:32.04Z</time></trkpt><trkpt lat="43.4854957" lon="11.3698952"><ele>512.0</ele><time>2026-04-04T16:39:33.039Z</time></trkpt><trkpt lat="43.4856022" lon="11.3699376"><ele>512.0</ele><time>2026-04-04T16:39:34.041Z</time></trkpt><trkpt lat="43.4857045" lon="11.3699873"><ele>512.0</ele><time>2026-04-04T16:39:35.039Z</time></trkpt><trkpt lat="43.4857901" lon="11.3700624"><ele>512.0</ele><time>2026-04-04T16:39:36.041Z</time></trkpt><trkpt lat="43.4858589" lon="11.3701387"><ele>512.0</ele><time>2026-04-04T16:39:37.039Z</time></trkpt><trkpt lat="43.4859092" lon="11.3702087"><ele>512.0</ele><time>2026-04-04T16:39:38.04Z</time></trkpt><trkpt lat="43.4859525" lon="11.3703112"><ele>512.0</ele><time>2026-04-04T16:39:39.04Z</time></trkpt><trkpt lat="43.4860119" lon="11.3704406"><ele>512.0</ele><time>2026-04-04T16:39:40.04Z</time></trkpt><trkpt lat="43.48606" lon="11.3705901"><ele>512.0</ele><time>2026-04-04T16:39:41.039Z</time></trkpt><trkpt lat="43.4861034" lon="11.370737"><ele>512.0</ele><time>2026-04-04T16:39:42.041Z</time></trkpt><trkpt lat="43.4861501" lon="11.3708829"><ele>513.75</ele><time>2026-04-04T16:39:43.039Z</time></trkpt><trkpt lat="43.486179" lon="11.3710515"><ele>515.5</ele><time>2026-04-04T16:39:44.039Z</time></trkpt><trkpt lat="43.4862163" lon="11.3712132"><ele>517.25</ele><time>2026-04-04T16:39:45.04Z</time></trkpt><trkpt lat="43.4862426" lon="11.3713736"><ele>519.0</ele><time>2026-04-04T16:39:46.039Z</time></trkpt><trkpt lat="43.4862635" lon="11.3715153"><ele>516.0</ele><time>2026-04-04T16:39:47.04Z</time></trkpt><trkpt lat="43.4862873" lon="11.3716555"><ele>513.0</ele><time>2026-04-04T16:39:48.038Z</time></trkpt><trkpt lat="43.4862993" lon="11.3717674"><ele>510.0</ele><time>2026-04-04T16:39:49.039Z</time></trkpt><trkpt lat="43.486318" lon="11.3718819"><ele>507.0</ele><time>2026-04-04T16:39:50.038Z</time></trkpt><trkpt lat="43.4863446" lon="11.3720066"><ele>504.0</ele><time>2026-04-04T16:39:51.039Z</time></trkpt><trkpt lat="43.4863578" lon="11.3721325"><ele>506.2</ele><time>2026-04-04T16:39:52.039Z</time></trkpt><trkpt lat="43.4863701" lon="11.3722565"><ele>508.4</ele><time>2026-04-04T16:39:53.04Z</time></trkpt><trkpt lat="43.486391" lon="11.3724051"><ele>510.6</ele><time>2026-04-04T16:39:54.039Z</time></trkpt><trkpt lat="43.4864046" lon="11.3725405"><ele>512.8</ele><time>2026-04-04T16:39:55.041Z</time></trkpt><trkpt lat="43.4864159" lon="11.3726785"><ele>515.0</ele><time>2026-04-04T16:39:56.04Z</time></trkpt><trkpt lat="43.4864248" lon="11.3727958"><ele>515.0</ele><time>2026-04-04T16:39:57.04Z</time></trkpt><trkpt lat="43.4864259" lon="11.3729115"><ele>515.0</ele><time>2026-04-04T16:39:58.04Z</time></trkpt><trkpt lat="43.4864236" lon="11.3730101"><ele>515.0</ele><time>2026-04-04T16:39:59.041Z</time></trkpt><trkpt lat="43.4864178" lon="11.3731143"><ele>515.0</ele><time>2026-04-04T16:40:00.039Z</time></trkpt><trkpt lat="43.4864019" lon="11.3732931"><ele>515.0</ele><time>2026-04-04T16:40:02.04Z</time></trkpt><trkpt lat="43.4863749" lon="11.3733829"><ele>515.0</ele><time>2026-04-04T16:40:03.038Z</time></trkpt><trkpt lat="43.4863521" lon="11.3734801"><ele>515.6666666666666</ele><time>2026-04-04T16:40:04.039Z</time></trkpt><trkpt lat="43.4863159" lon="11.3735811"><ele>516.3333333333333</ele><time>2026-04-04T16:40:05.039Z</time></trkpt><trkpt lat="43.4862797" lon="11.3736859"><ele>517.0</ele><time>2026-04-04T16:40:06.038Z</time></trkpt><trkpt lat="43.4862469" lon="11.3737952"><ele>517.6666666666666</ele><time>2026-04-04T16:40:07.039Z</time></trkpt><trkpt lat="43.4862177" lon="11.3739158"><ele>518.3333333333334</ele><time>2026-04-04T16:40:08.039Z</time></trkpt><trkpt lat="43.4861844" lon="11.3740433"><ele>519.0</ele><time>2026-04-04T16:40:09.04Z</time></trkpt><trkpt lat="43.4861654" lon="11.3741614"><ele>519.3333333333334</ele><time>2026-04-04T16:40:10.039Z</time></trkpt><trkpt lat="43.4861528" lon="11.3742657"><ele>519.6666666666666</ele><time>2026-04-04T16:40:11.039Z</time></trkpt><trkpt lat="43.48615" lon="11.3743722"><ele>520.0</ele><time>2026-04-04T16:40:12.038Z</time></trkpt><trkpt lat="43.4861605" lon="11.3744727"><ele>520.3333333333333</ele><time>2026-04-04T16:40:13.038Z</time></trkpt><trkpt lat="43.4861816" lon="11.3745746"><ele>520.6666666666666</ele><time>2026-04-04T16:40:14.04Z</time></trkpt><trkpt lat="43.4862248" lon="11.3746738"><ele>521.0</ele><time>2026-04-04T16:40:15.039Z</time></trkpt><trkpt lat="43.4862684" lon="11.374771"><ele>522.5714285714286</ele><time>2026-04-04T16:40:16.039Z</time></trkpt><trkpt lat="43.4863104" lon="11.3748415"><ele>524.1428571428571</ele><time>2026-04-04T16:40:17.04Z</time></trkpt><trkpt lat="43.486365" lon="11.3749152"><ele>525.7142857142858</ele><time>2026-04-04T16:40:18.039Z</time></trkpt><trkpt lat="43.4864138" lon="11.374987"><ele>527.2857142857142</ele><time>2026-04-04T16:40:19.038Z</time></trkpt><trkpt lat="43.4864623" lon="11.3750622"><ele>528.8571428571429</ele><time>2026-04-04T16:40:20.039Z</time></trkpt><trkpt lat="43.4865102" lon="11.3751379"><ele>530.4285714285714</ele><time>2026-04-04T16:40:21.04Z</time></trkpt><trkpt lat="43.486554" lon="11.3752109"><ele>532.0</ele><time>2026-04-04T16:40:22.039Z</time></trkpt><trkpt lat="43.4866121" lon="11.3753384"><ele>532.0</ele><time>2026-04-04T16:40:24.039Z</time></trkpt><trkpt lat="43.4866803" lon="11.3754281"><ele>532.0</ele><time>2026-04-04T16:40:26.04Z</time></trkpt><trkpt lat="43.4867527" lon="11.3755239"><ele>532.0</ele><time>2026-04-04T16:40:28.04Z</time></trkpt><trkpt lat="43.4868109" lon="11.375638"><ele>532.0</ele><time>2026-04-04T16:40:30.04Z</time></trkpt><trkpt lat="43.4868726" lon="11.3757467"><ele>532.0</ele><time>2026-04-04T16:40:32.039Z</time></trkpt><trkpt lat="43.4869275" lon="11.375865"><ele>530.0</ele><time>2026-04-04T16:40:34.039Z</time></trkpt><trkpt lat="43.486945" lon="11.3760085"><ele>528.0</ele><time>2026-04-04T16:40:36.038Z</time></trkpt><trkpt lat="43.4869481" lon="11.3761112"><ele>526.0</ele><time>2026-04-04T16:40:37.039Z</time></trkpt><trkpt lat="43.4869447" lon="11.3762077"><ele>524.0</ele><time>2026-04-04T16:40:38.04Z</time></trkpt><trkpt lat="43.4869352" lon="11.3763605"><ele>522.0</ele><time>2026-04-04T16:40:40.039Z</time></trkpt><trkpt lat="43.4869261" lon="11.3765026"><ele>520.8333333333334</ele><time>2026-04-04T16:40:42.038Z</time></trkpt><trkpt lat="43.4869242" lon="11.3766019"><ele>519.6666666666666</ele><time>2026-04-04T16:40:43.039Z</time></trkpt><trkpt lat="43.4869097" lon="11.376693"><ele>518.5</ele><time>2026-04-04T16:40:44.04Z</time></trkpt><trkpt lat="43.4868987" lon="11.3767989"><ele>517.3333333333333</ele><time>2026-04-04T16:40:45.039Z</time></trkpt><trkpt lat="43.4868816" lon="11.376927"><ele>516.1666666666666</ele><time>2026-04-04T16:40:46.04Z</time></trkpt><trkpt lat="43.4868766" lon="11.3770363"><ele>515.0</ele><time>2026-04-04T16:40:47.039Z</time></trkpt><trkpt lat="43.4868711" lon="11.3771375"><ele>515.0</ele><time>2026-04-04T16:40:48.038Z</time></trkpt><trkpt lat="43.4868637" lon="11.3772435"><ele>515.0</ele><time>2026-04-04T16:40:49.039Z</time></trkpt><trkpt lat="43.4868563" lon="11.3773454"><ele>515.0</ele><time>2026-04-04T16:40:50.039Z</time></trkpt><trkpt lat="43.4868546" lon="11.3774475"><ele>515.0</ele><time>2026-04-04T16:40:51.04Z</time></trkpt><trkpt lat="43.4868419" lon="11.3775354"><ele>515.0</ele><time>2026-04-04T16:40:52.038Z</time></trkpt><trkpt lat="43.4868385" lon="11.3777208"><ele>515.0</ele><time>2026-04-04T16:40:54.04Z</time></trkpt><trkpt lat="43.4868452" lon="11.3778417"><ele>515.0</ele><time>2026-04-04T16:40:55.039Z</time></trkpt><trkpt lat="43.4868541" lon="11.3779657"><ele>515.0</ele><time>2026-04-04T16:40:56.038Z</time></trkpt><trkpt lat="43.4868848" lon="11.3781038"><ele>515.0</ele><time>2026-04-04T16:40:57.04Z</time></trkpt><trkpt lat="43.4869235" lon="11.3782499"><ele>515.0</ele><time>2026-04-04T16:40:58.039Z</time></trkpt><trkpt lat="43.4869774" lon="11.3783961"><ele>515.0</ele><time>2026-04-04T16:40:59.038Z</time></trkpt><trkpt lat="43.4870241" lon="11.3785319"><ele>516.0</ele><time>2026-04-04T16:41:00.04Z</time></trkpt><trkpt lat="43.4870869" lon="11.3786662"><ele>517.0</ele><time>2026-04-04T16:41:01.039Z</time></trkpt><trkpt lat="43.4871591" lon="11.3787917"><ele>518.0</ele><time>2026-04-04T16:41:02.038Z</time></trkpt><trkpt lat="43.4872356" lon="11.3789191"><ele>519.0</ele><time>2026-04-04T16:41:03.039Z</time></trkpt><trkpt lat="43.4873037" lon="11.3790518"><ele>516.4</ele><time>2026-04-04T16:41:04.039Z</time></trkpt><trkpt lat="43.4873765" lon="11.3791835"><ele>513.8</ele><time>2026-04-04T16:41:05.039Z</time></trkpt><trkpt lat="43.4874529" lon="11.3793021"><ele>511.20000000000005</ele><time>2026-04-04T16:41:06.038Z</time></trkpt><trkpt lat="43.4875292" lon="11.3794027"><ele>508.6</ele><time>2026-04-04T16:41:07.04Z</time></trkpt><trkpt lat="43.4876054" lon="11.3794898"><ele>506.0</ele><time>2026-04-04T16:41:08.039Z</time></trkpt><trkpt lat="43.4876829" lon="11.3795724"><ele>506.0</ele><time>2026-04-04T16:41:09.039Z</time></trkpt><trkpt lat="43.4877483" lon="11.379664"><ele>506.0</ele><time>2026-04-04T16:41:10.039Z</time></trkpt><trkpt lat="43.4878" lon="11.3797601"><ele>506.0</ele><time>2026-04-04T16:41:11.037Z</time></trkpt><trkpt lat="43.4878282" lon="11.3798774"><ele>506.0</ele><time>2026-04-04T16:41:12.039Z</time></trkpt><trkpt lat="43.4878508" lon="11.379995"><ele>506.0</ele><time>2026-04-04T16:41:13.04Z</time></trkpt><trkpt lat="43.4878665" lon="11.3801258"><ele>505.4</ele><time>2026-04-04T16:41:14.038Z</time></trkpt><trkpt lat="43.4878802" lon="11.3802648"><ele>504.8</ele><time>2026-04-04T16:41:15.038Z</time></trkpt><trkpt lat="43.4878992" lon="11.3804234"><ele>504.19999999999993</ele><time>2026-04-04T16:41:16.038Z</time></trkpt><trkpt lat="43.4879199" lon="11.3805821"><ele>503.59999999999997</ele><time>2026-04-04T16:41:17.039Z</time></trkpt><trkpt lat="43.4879456" lon="11.3807289"><ele>503.0</ele><time>2026-04-04T16:41:18.039Z</time></trkpt><trkpt lat="43.4879693" lon="11.3808883"><ele>498.75</ele><time>2026-04-04T16:41:19.038Z</time></trkpt><trkpt lat="43.4880025" lon="11.3810478"><ele>494.5</ele><time>2026-04-04T16:41:20.039Z</time></trkpt><trkpt lat="43.4880669" lon="11.3812241"><ele>490.25</ele><time>2026-04-04T16:41:21.04Z</time></trkpt><trkpt lat="43.488121" lon="11.3813879"><ele>486.0</ele><time>2026-04-04T16:41:22.039Z</time></trkpt><trkpt lat="43.4881856" lon="11.3815498"><ele>486.0</ele><time>2026-04-04T16:41:23.039Z</time></trkpt><trkpt lat="43.4882445" lon="11.3817187"><ele>486.0</ele><time>2026-04-04T16:41:24.04Z</time></trkpt><trkpt lat="43.4883071" lon="11.3818788"><ele>486.0</ele><time>2026-04-04T16:41:25.039Z</time></trkpt><trkpt lat="43.4883738" lon="11.3820361"><ele>486.0</ele><time>2026-04-04T16:41:26.04Z</time></trkpt><trkpt lat="43.4884457" lon="11.3821817"><ele>484.5</ele><time>2026-04-04T16:41:27.04Z</time></trkpt><trkpt lat="43.4885309" lon="11.3823393"><ele>483.0</ele><time>2026-04-04T16:41:28.039Z</time></trkpt><trkpt lat="43.4886199" lon="11.3824813"><ele>481.5</ele><time>2026-04-04T16:41:29.039Z</time></trkpt><trkpt lat="43.4887272" lon="11.3826023"><ele>480.0</ele><time>2026-04-04T16:41:30.04Z</time></trkpt><trkpt lat="43.4888517" lon="11.3827319"><ele>479.33333333333337</ele><time>2026-04-04T16:41:31.039Z</time></trkpt><trkpt lat="43.4889811" lon="11.3828506"><ele>478.6666666666667</ele><time>2026-04-04T16:41:32.038Z</time></trkpt><trkpt lat="43.4891085" lon="11.382966"><ele>478.0</ele><time>2026-04-04T16:41:33.04Z</time></trkpt><trkpt lat="43.4892265" lon="11.3830872"><ele>476.0</ele><time>2026-04-04T16:41:34.039Z</time></trkpt><trkpt lat="43.4893304" lon="11.3832014"><ele>474.0</ele><time>2026-04-04T16:41:35.039Z</time></trkpt><trkpt lat="43.4894462" lon="11.3833241"><ele>472.0</ele><time>2026-04-04T16:41:36.039Z</time></trkpt><trkpt lat="43.4895569" lon="11.3834375"><ele>470.0</ele><time>2026-04-04T16:41:37.039Z</time></trkpt><trkpt lat="43.4896655" lon="11.383539"><ele>468.6</ele><time>2026-04-04T16:41:38.039Z</time></trkpt><trkpt lat="43.4897536" lon="11.3836338"><ele>467.2</ele><time>2026-04-04T16:41:39.038Z</time></trkpt><trkpt lat="43.4898359" lon="11.3837361"><ele>465.79999999999995</ele><time>2026-04-04T16:41:40.04Z</time></trkpt><trkpt lat="43.489903" lon="11.3838457"><ele>464.4</ele><time>2026-04-04T16:41:41.038Z</time></trkpt><trkpt lat="43.4899604" lon="11.3839625"><ele>463.0</ele><time>2026-04-04T16:41:42.038Z</time></trkpt><trkpt lat="43.4900066" lon="11.3840786"><ele>463.0</ele><time>2026-04-04T16:41:43.04Z</time></trkpt><trkpt lat="43.4900329" lon="11.3842047"><ele>462.99999999999994</ele><time>2026-04-04T16:41:44.038Z</time></trkpt><trkpt lat="43.4900515" lon="11.3843345"><ele>462.99999999999994</ele><time>2026-04-04T16:41:45.038Z</time></trkpt><trkpt lat="43.4900625" lon="11.3844739"><ele>463.0</ele><time>2026-04-04T16:41:46.04Z</time></trkpt><trkpt lat="43.4900867" lon="11.3846248"><ele>463.0</ele><time>2026-04-04T16:41:47.04Z</time></trkpt><trkpt lat="43.4901324" lon="11.3847702"><ele>462.1666666666667</ele><time>2026-04-04T16:41:48.038Z</time></trkpt><trkpt lat="43.4901735" lon="11.384877"><ele>461.33333333333337</ele><time>2026-04-04T16:41:49.038Z</time></trkpt><trkpt lat="43.4902173" lon="11.3849621"><ele>460.5</ele><time>2026-04-04T16:41:50.038Z</time></trkpt><trkpt lat="43.490278" lon="11.3851095"><ele>459.66666666666663</ele><time>2026-04-04T16:41:52.039Z</time></trkpt><trkpt lat="43.4902978" lon="11.3852067"><ele>458.8333333333333</ele><time>2026-04-04T16:41:53.04Z</time></trkpt><trkpt lat="43.4903048" lon="11.3853144"><ele>458.0</ele><time>2026-04-04T16:41:54.039Z</time></trkpt><trkpt lat="43.4903043" lon="11.3854446"><ele>458.2</ele><time>2026-04-04T16:41:55.039Z</time></trkpt><trkpt lat="43.4903061" lon="11.3855873"><ele>458.4</ele><time>2026-04-04T16:41:56.038Z</time></trkpt><trkpt lat="43.4903078" lon="11.385729"><ele>458.59999999999997</ele><time>2026-04-04T16:41:57.039Z</time></trkpt><trkpt lat="43.4902984" lon="11.3858644"><ele>458.79999999999995</ele><time>2026-04-04T16:41:58.039Z</time></trkpt><trkpt lat="43.490267" lon="11.3859794"><ele>459.0</ele><time>2026-04-04T16:41:59.04Z</time></trkpt><trkpt lat="43.4902142" lon="11.3860828"><ele>459.0</ele><time>2026-04-04T16:42:00.038Z</time></trkpt><trkpt lat="43.4901409" lon="11.3861619"><ele>459.0</ele><time>2026-04-04T16:42:01.039Z</time></trkpt><trkpt lat="43.4900633" lon="11.3862197"><ele>459.0</ele><time>2026-04-04T16:42:02.039Z</time></trkpt><trkpt lat="43.4899899" lon="11.3862701"><ele>459.0</ele><time>2026-04-04T16:42:03.04Z</time></trkpt><trkpt lat="43.489921" lon="11.3862794"><ele>459.0</ele><time>2026-04-04T16:42:04.039Z</time></trkpt><trkpt lat="43.4898574" lon="11.3862459"><ele>459.0</ele><time>2026-04-04T16:42:05.038Z</time></trkpt><trkpt lat="43.4897507" lon="11.3861866"><ele>459.0</ele><time>2026-04-04T16:42:07.04Z</time></trkpt><trkpt lat="43.4896859" lon="11.3862592"><ele>459.0</ele><time>2026-04-04T16:42:09.039Z</time></trkpt><trkpt lat="43.4896618" lon="11.3864323"><ele>459.0</ele><time>2026-04-04T16:42:11.039Z</time></trkpt><trkpt lat="43.4896319" lon="11.3865553"><ele>459.0</ele><time>2026-04-04T16:42:12.039Z</time></trkpt><trkpt lat="43.489596" lon="11.3866856"><ele>459.0</ele><time>2026-04-04T16:42:13.039Z</time></trkpt><trkpt lat="43.4895732" lon="11.3868431"><ele>456.25</ele><time>2026-04-04T16:42:14.039Z</time></trkpt><trkpt lat="43.4895599" lon="11.387014"><ele>453.5</ele><time>2026-04-04T16:42:15.039Z</time></trkpt><trkpt lat="43.4895398" lon="11.3872025"><ele>450.75</ele><time>2026-04-04T16:42:16.039Z</time></trkpt><trkpt lat="43.489507" lon="11.3873689"><ele>448.0</ele><time>2026-04-04T16:42:17.038Z</time></trkpt><trkpt lat="43.4894936" lon="11.3875525"><ele>448.0</ele><time>2026-04-04T16:42:18.04Z</time></trkpt><trkpt lat="43.4894756" lon="11.3877118"><ele>448.0</ele><time>2026-04-04T16:42:19.038Z</time></trkpt><trkpt lat="43.4894569" lon="11.3878638"><ele>448.0</ele><time>2026-04-04T16:42:20.038Z</time></trkpt><trkpt lat="43.4894419" lon="11.3880123"><ele>448.0</ele><time>2026-04-04T16:42:21.039Z</time></trkpt><trkpt lat="43.489428" lon="11.3881785"><ele>448.75</ele><time>2026-04-04T16:42:22.039Z</time></trkpt><trkpt lat="43.4894144" lon="11.38835"><ele>449.5</ele><time>2026-04-04T16:42:23.037Z</time></trkpt><trkpt lat="43.4893928" lon="11.3885225"><ele>450.25</ele><time>2026-04-04T16:42:24.04Z</time></trkpt><trkpt lat="43.489362" lon="11.3886783"><ele>451.0</ele><time>2026-04-04T16:42:25.037Z</time></trkpt><trkpt lat="43.4893253" lon="11.3888211"><ele>451.8</ele><time>2026-04-04T16:42:26.038Z</time></trkpt><trkpt lat="43.4892873" lon="11.3889612"><ele>452.6</ele><time>2026-04-04T16:42:27.039Z</time></trkpt><trkpt lat="43.4892716" lon="11.3890896"><ele>453.4</ele><time>2026-04-04T16:42:28.04Z</time></trkpt><trkpt lat="43.4892835" lon="11.3892265"><ele>454.2</ele><time>2026-04-04T16:42:29.038Z</time></trkpt><trkpt lat="43.4893242" lon="11.3893708"><ele>455.0</ele><time>2026-04-04T16:42:30.039Z</time></trkpt><trkpt lat="43.4893691" lon="11.3895065"><ele>454.99999999999994</ele><time>2026-04-04T16:42:31.039Z</time></trkpt><trkpt lat="43.4894078" lon="11.3896348"><ele>455.0</ele><time>2026-04-04T16:42:32.038Z</time></trkpt><trkpt lat="43.4894462" lon="11.3897359"><ele>455.0</ele><time>2026-04-04T16:42:33.04Z</time></trkpt><trkpt lat="43.4894822" lon="11.3898461"><ele>455.0</ele><time>2026-04-04T16:42:34.038Z</time></trkpt><trkpt lat="43.4895163" lon="11.3899449"><ele>454.99999999999994</ele><time>2026-04-04T16:42:35.04Z</time></trkpt><trkpt lat="43.489558" lon="11.3900657"><ele>455.0</ele><time>2026-04-04T16:42:36.038Z</time></trkpt><trkpt lat="43.4895969" lon="11.3901869"><ele>455.8</ele><time>2026-04-04T16:42:37.039Z</time></trkpt><trkpt lat="43.4896442" lon="11.3903097"><ele>456.6</ele><time>2026-04-04T16:42:38.038Z</time></trkpt><trkpt lat="43.489693" lon="11.390444"><ele>457.4</ele><time>2026-04-04T16:42:39.038Z</time></trkpt><trkpt lat="43.4897456" lon="11.3905822"><ele>458.2</ele><time>2026-04-04T16:42:40.039Z</time></trkpt><trkpt lat="43.4898129" lon="11.3907128"><ele>459.0</ele><time>2026-04-04T16:42:41.038Z</time></trkpt><trkpt lat="43.4898848" lon="11.3908364"><ele>459.0</ele><time>2026-04-04T16:42:42.039Z</time></trkpt><trkpt lat="43.4899524" lon="11.3909377"><ele>459.0</ele><time>2026-04-04T16:42:43.039Z</time></trkpt><trkpt lat="43.4900214" lon="11.3910289"><ele>459.0</ele><time>2026-04-04T16:42:44.039Z</time></trkpt><trkpt lat="43.4900981" lon="11.3911384"><ele>459.0</ele><time>2026-04-04T16:42:45.038Z</time></trkpt><trkpt lat="43.4901562" lon="11.3912553"><ele>459.0</ele><time>2026-04-04T16:42:46.04Z</time></trkpt><trkpt lat="43.4901943" lon="11.3913884"><ele>458.25</ele><time>2026-04-04T16:42:47.037Z</time></trkpt><trkpt lat="43.4902126" lon="11.3915361"><ele>457.5</ele><time>2026-04-04T16:42:48.038Z</time></trkpt><trkpt lat="43.4902123" lon="11.3916874"><ele>456.75</ele><time>2026-04-04T16:42:49.037Z</time></trkpt><trkpt lat="43.4901872" lon="11.3918531"><ele>456.0</ele><time>2026-04-04T16:42:50.039Z</time></trkpt><trkpt lat="43.4901799" lon="11.3920211"><ele>456.25</ele><time>2026-04-04T16:42:51.039Z</time></trkpt><trkpt lat="43.4901865" lon="11.3922063"><ele>456.5</ele><time>2026-04-04T16:42:52.039Z</time></trkpt><trkpt lat="43.4902075" lon="11.3923762"><ele>456.75</ele><time>2026-04-04T16:42:53.038Z</time></trkpt><trkpt lat="43.4902331" lon="11.3925554"><ele>457.0</ele><time>2026-04-04T16:42:54.038Z</time></trkpt><trkpt lat="43.4902815" lon="11.392726"><ele>457.0</ele><time>2026-04-04T16:42:55.04Z</time></trkpt><trkpt lat="43.490329" lon="11.3928976"><ele>457.0</ele><time>2026-04-04T16:42:56.039Z</time></trkpt><trkpt lat="43.4903715" lon="11.3930781"><ele>457.0</ele><time>2026-04-04T16:42:57.039Z</time></trkpt><trkpt lat="43.4903869" lon="11.3932497"><ele>457.0</ele><time>2026-04-04T16:42:58.038Z</time></trkpt><trkpt lat="43.4904077" lon="11.3934254"><ele>457.6</ele><time>2026-04-04T16:42:59.038Z</time></trkpt><trkpt lat="43.4903831" lon="11.3935384"><ele>458.20000000000005</ele><time>2026-04-04T16:43:00.04Z</time></trkpt><trkpt lat="43.4903704" lon="11.3936585"><ele>458.8</ele><time>2026-04-04T16:43:01.037Z</time></trkpt><trkpt lat="43.4903388" lon="11.3937943"><ele>459.4</ele><time>2026-04-04T16:43:02.039Z</time></trkpt><trkpt lat="43.4902698" lon="11.3939207"><ele>460.0</ele><time>2026-04-04T16:43:03.038Z</time></trkpt><trkpt lat="43.4902062" lon="11.3940567"><ele>461.0</ele><time>2026-04-04T16:43:04.039Z</time></trkpt><trkpt lat="43.4901593" lon="11.3941829"><ele>462.0</ele><time>2026-04-04T16:43:05.04Z</time></trkpt><trkpt lat="43.4901219" lon="11.3943296"><ele>463.0</ele><time>2026-04-04T16:43:06.039Z</time></trkpt><trkpt lat="43.4901008" lon="11.3944844"><ele>464.0</ele><time>2026-04-04T16:43:07.039Z</time></trkpt><trkpt lat="43.4900921" lon="11.3946544"><ele>465.25</ele><time>2026-04-04T16:43:08.039Z</time></trkpt><trkpt lat="43.4901007" lon="11.394821"><ele>466.5</ele><time>2026-04-04T16:43:09.038Z</time></trkpt><trkpt lat="43.490115" lon="11.3950053"><ele>467.75</ele><time>2026-04-04T16:43:10.038Z</time></trkpt><trkpt lat="43.4901213" lon="11.3951998"><ele>469.0</ele><time>2026-04-04T16:43:11.038Z</time></trkpt><trkpt lat="43.490123" lon="11.3953961"><ele>470.0</ele><time>2026-04-04T16:43:12.037Z</time></trkpt><trkpt lat="43.4901061" lon="11.3956032"><ele>471.0</ele><time>2026-04-04T16:43:13.037Z</time></trkpt><trkpt lat="43.4900911" lon="11.3958025"><ele>472.0</ele><time>2026-04-04T16:43:14.038Z</time></trkpt><trkpt lat="43.4900699" lon="11.3959891"><ele>473.0</ele><time>2026-04-04T16:43:15.037Z</time></trkpt><trkpt lat="43.4900379" lon="11.3961647"><ele>473.0</ele><time>2026-04-04T16:43:16.037Z</time></trkpt><trkpt lat="43.4899975" lon="11.3963294"><ele>473.0</ele><time>2026-04-04T16:43:17.038Z</time></trkpt><trkpt lat="43.4899319" lon="11.3964749"><ele>473.0</ele><time>2026-04-04T16:43:18.039Z</time></trkpt><trkpt lat="43.4898454" lon="11.3965748"><ele>473.0</ele><time>2026-04-04T16:43:19.038Z</time></trkpt><trkpt lat="43.4897586" lon="11.3966817"><ele>473.0</ele><time>2026-04-04T16:43:20.04Z</time></trkpt><trkpt lat="43.4896895" lon="11.3968198"><ele>473.0</ele><time>2026-04-04T16:43:21.039Z</time></trkpt><trkpt lat="43.4896149" lon="11.3969697"><ele>473.0</ele><time>2026-04-04T16:43:22.038Z</time></trkpt><trkpt lat="43.4895385" lon="11.39714"><ele>473.0</ele><time>2026-04-04T16:43:23.039Z</time></trkpt><trkpt lat="43.4894627" lon="11.3973044"><ele>477.25</ele><time>2026-04-04T16:43:24.039Z</time></trkpt><trkpt lat="43.4893827" lon="11.3974745"><ele>481.5</ele><time>2026-04-04T16:43:25.039Z</time></trkpt><trkpt lat="43.4893015" lon="11.3976408"><ele>485.75</ele><time>2026-04-04T16:43:26.039Z</time></trkpt><trkpt lat="43.4892162" lon="11.3978168"><ele>490.0</ele><time>2026-04-04T16:43:27.038Z</time></trkpt><trkpt lat="43.48911" lon="11.3979912"><ele>488.0</ele><time>2026-04-04T16:43:28.04Z</time></trkpt><trkpt lat="43.489015" lon="11.3981807"><ele>486.0</ele><time>2026-04-04T16:43:29.039Z</time></trkpt><trkpt lat="43.4889132" lon="11.3983723"><ele>484.0</ele><time>2026-04-04T16:43:30.039Z</time></trkpt><trkpt lat="43.4888093" lon="11.3985932"><ele>489.33333333333337</ele><time>2026-04-04T16:43:31.038Z</time></trkpt><trkpt lat="43.4887133" lon="11.3988064"><ele>494.66666666666663</ele><time>2026-04-04T16:43:32.038Z</time></trkpt><trkpt lat="43.4886184" lon="11.3990061"><ele>500.0</ele><time>2026-04-04T16:43:33.04Z</time></trkpt><trkpt lat="43.4885317" lon="11.3991803"><ele>500.0</ele><time>2026-04-04T16:43:34.037Z</time></trkpt><trkpt lat="43.488446" lon="11.3993567"><ele>500.0</ele><time>2026-04-04T16:43:35.038Z</time></trkpt><trkpt lat="43.4883605" lon="11.3995282"><ele>500.0</ele><time>2026-04-04T16:43:36.039Z</time></trkpt><trkpt lat="43.4882347" lon="11.3995718"><ele>500.0</ele><time>2026-04-04T16:43:37.039Z</time></trkpt><trkpt lat="43.4881271" lon="11.3996139"><ele>500.0</ele><time>2026-04-04T16:43:38.037Z</time></trkpt><trkpt lat="43.4880114" lon="11.3996557"><ele>500.0</ele><time>2026-04-04T16:43:39.039Z</time></trkpt><trkpt lat="43.4879071" lon="11.3996925"><ele>500.0</ele><time>2026-04-04T16:43:40.039Z</time></trkpt><trkpt lat="43.4878296" lon="11.3996924"><ele>500.0</ele><time>2026-04-04T16:43:41.04Z</time></trkpt><trkpt lat="43.4877195" lon="11.3997088"><ele>500.0</ele><time>2026-04-04T16:43:43.038Z</time></trkpt><trkpt lat="43.4876256" lon="11.3997869"><ele>500.2</ele><time>2026-04-04T16:43:45.04Z</time></trkpt><trkpt lat="43.4876022" lon="11.3998885"><ele>500.4</ele><time>2026-04-04T16:43:46.039Z</time></trkpt><trkpt lat="43.4875808" lon="11.3999929"><ele>500.6</ele><time>2026-04-04T16:43:47.039Z</time></trkpt><trkpt lat="43.4875746" lon="11.4001574"><ele>500.8</ele><time>2026-04-04T16:43:48.038Z</time></trkpt><trkpt lat="43.4875732" lon="11.4003489"><ele>501.0</ele><time>2026-04-04T16:43:49.038Z</time></trkpt><trkpt lat="43.4875715" lon="11.4005422"><ele>501.8</ele><time>2026-04-04T16:43:50.039Z</time></trkpt><trkpt lat="43.487551" lon="11.4007043"><ele>502.6</ele><time>2026-04-04T16:43:51.037Z</time></trkpt><trkpt lat="43.4875281" lon="11.4008503"><ele>503.4</ele><time>2026-04-04T16:43:52.038Z</time></trkpt><trkpt lat="43.4874908" lon="11.4009767"><ele>504.2</ele><time>2026-04-04T16:43:53.038Z</time></trkpt><trkpt lat="43.4874851" lon="11.4010877"><ele>505.0</ele><time>2026-04-04T16:43:54.038Z</time></trkpt><trkpt lat="43.4875448" lon="11.4012136"><ele>505.0</ele><time>2026-04-04T16:43:56.037Z</time></trkpt><trkpt lat="43.4876575" lon="11.4011955"><ele>505.0</ele><time>2026-04-04T16:43:58.04Z</time></trkpt><trkpt lat="43.4877218" lon="11.4011355"><ele>505.0</ele><time>2026-04-04T16:43:59.039Z</time></trkpt><trkpt lat="43.4877791" lon="11.4010393"><ele>505.0</ele><time>2026-04-04T16:44:00.038Z</time></trkpt><trkpt lat="43.4878473" lon="11.4009502"><ele>505.0</ele><time>2026-04-04T16:44:01.04Z</time></trkpt><trkpt lat="43.4879131" lon="11.4008567"><ele>506.6</ele><time>2026-04-04T16:44:02.039Z</time></trkpt><trkpt lat="43.4879904" lon="11.4007884"><ele>508.2</ele><time>2026-04-04T16:44:03.039Z</time></trkpt><trkpt lat="43.4880733" lon="11.4007583"><ele>509.79999999999995</ele><time>2026-04-04T16:44:04.039Z</time></trkpt><trkpt lat="43.4881579" lon="11.4007582"><ele>511.4</ele><time>2026-04-04T16:44:05.039Z</time></trkpt><trkpt lat="43.488261" lon="11.4007955"><ele>513.0</ele><time>2026-04-04T16:44:06.037Z</time></trkpt><trkpt lat="43.4883679" lon="11.4008516"><ele>513.0</ele><time>2026-04-04T16:44:07.04Z</time></trkpt><trkpt lat="43.4884874" lon="11.4009291"><ele>513.0</ele><time>2026-04-04T16:44:08.04Z</time></trkpt><trkpt lat="43.488614" lon="11.4010279"><ele>513.0</ele><time>2026-04-04T16:44:09.039Z</time></trkpt><trkpt lat="43.4887289" lon="11.4011353"><ele>513.0</ele><time>2026-04-04T16:44:10.038Z</time></trkpt><trkpt lat="43.4888172" lon="11.4012192"><ele>512.8333333333334</ele><time>2026-04-04T16:44:11.038Z</time></trkpt><trkpt lat="43.4888774" lon="11.4012991"><ele>512.6666666666666</ele><time>2026-04-04T16:44:12.039Z</time></trkpt><trkpt lat="43.4889274" lon="11.4013935"><ele>512.5</ele><time>2026-04-04T16:44:13.038Z</time></trkpt><trkpt lat="43.4889586" lon="11.4014892"><ele>512.3333333333333</ele><time>2026-04-04T16:44:14.038Z</time></trkpt><trkpt lat="43.4889385" lon="11.4016056"><ele>512.1666666666666</ele><time>2026-04-04T16:44:15.039Z</time></trkpt><trkpt lat="43.4889285" lon="11.4017449"><ele>512.0</ele><time>2026-04-04T16:44:16.039Z</time></trkpt><trkpt lat="43.4888971" lon="11.4019046"><ele>512.0</ele><time>2026-04-04T16:44:17.038Z</time></trkpt><trkpt lat="43.4888403" lon="11.4020543"><ele>512.0</ele><time>2026-04-04T16:44:18.037Z</time></trkpt><trkpt lat="43.4888071" lon="11.4022135"><ele>512.0</ele><time>2026-04-04T16:44:19.039Z</time></trkpt><trkpt lat="43.4888029" lon="11.40241"><ele>512.0</ele><time>2026-04-04T16:44:20.038Z</time></trkpt><trkpt lat="43.4887915" lon="11.4026091"><ele>512.3333333333333</ele><time>2026-04-04T16:44:21.038Z</time></trkpt><trkpt lat="43.4887611" lon="11.4028252"><ele>512.6666666666666</ele><time>2026-04-04T16:44:22.037Z</time></trkpt><trkpt lat="43.4887743" lon="11.4030438"><ele>513.0</ele><time>2026-04-04T16:44:23.04Z</time></trkpt><trkpt lat="43.4887763" lon="11.4032621"><ele>513.5</ele><time>2026-04-04T16:44:24.039Z</time></trkpt><trkpt lat="43.4887693" lon="11.4034671"><ele>514.0</ele><time>2026-04-04T16:44:25.037Z</time></trkpt><trkpt lat="43.4887457" lon="11.4036467"><ele>514.5</ele><time>2026-04-04T16:44:26.038Z</time></trkpt><trkpt lat="43.4887247" lon="11.4038104"><ele>515.0</ele><time>2026-04-04T16:44:27.038Z</time></trkpt><trkpt lat="43.4886787" lon="11.4039818"><ele>517.75</ele><time>2026-04-04T16:44:28.037Z</time></trkpt><trkpt lat="43.4886702" lon="11.4041565"><ele>520.5</ele><time>2026-04-04T16:44:29.039Z</time></trkpt><trkpt lat="43.488678" lon="11.4043307"><ele>523.25</ele><time>2026-04-04T16:44:30.039Z</time></trkpt><trkpt lat="43.4887052" lon="11.404497"><ele>526.0</ele><time>2026-04-04T16:44:31.038Z</time></trkpt><trkpt lat="43.488761" lon="11.4046718"><ele>526.0</ele><time>2026-04-04T16:44:32.038Z</time></trkpt><trkpt lat="43.4888225" lon="11.4048514"><ele>526.0</ele><time>2026-04-04T16:44:33.038Z</time></trkpt><trkpt lat="43.4888884" lon="11.4050317"><ele>526.0</ele><time>2026-04-04T16:44:34.037Z</time></trkpt><trkpt lat="43.4889298" lon="11.4052243"><ele>526.0</ele><time>2026-04-04T16:44:35.039Z</time></trkpt><trkpt lat="43.4889707" lon="11.4054212"><ele>528.6666666666667</ele><time>2026-04-04T16:44:36.038Z</time></trkpt><trkpt lat="43.4890059" lon="11.4056289"><ele>531.3333333333334</ele><time>2026-04-04T16:44:37.038Z</time></trkpt><trkpt lat="43.4890432" lon="11.4058318"><ele>534.0</ele><time>2026-04-04T16:44:38.038Z</time></trkpt><trkpt lat="43.4890887" lon="11.4060276"><ele>534.0</ele><time>2026-04-04T16:44:39.039Z</time></trkpt><trkpt lat="43.4891433" lon="11.4062185"><ele>534.0</ele><time>2026-04-04T16:44:40.037Z</time></trkpt><trkpt lat="43.489249" lon="11.4064056"><ele>534.0</ele><time>2026-04-04T16:44:41.039Z</time></trkpt><trkpt lat="43.4893696" lon="11.4065768"><ele>534.0</ele><time>2026-04-04T16:44:42.037Z</time></trkpt><trkpt lat="43.4894898" lon="11.4067654"><ele>534.0</ele><time>2026-04-04T16:44:43.038Z</time></trkpt><trkpt lat="43.489604" lon="11.4069325"><ele>534.0</ele><time>2026-04-04T16:44:44.037Z</time></trkpt><trkpt lat="43.4897153" lon="11.4070937"><ele>535.5</ele><time>2026-04-04T16:44:45.038Z</time></trkpt><trkpt lat="43.4898141" lon="11.407246"><ele>537.0</ele><time>2026-04-04T16:44:46.037Z</time></trkpt><trkpt lat="43.4898984" lon="11.407403"><ele>538.5</ele><time>2026-04-04T16:44:47.038Z</time></trkpt><trkpt lat="43.4899379" lon="11.4075688"><ele>540.0</ele><time>2026-04-04T16:44:48.038Z</time></trkpt><trkpt lat="43.4899754" lon="11.4077532"><ele>540.0</ele><time>2026-04-04T16:44:49.038Z</time></trkpt><trkpt lat="43.49" lon="11.4079678"><ele>540.0</ele><time>2026-04-04T16:44:50.039Z</time></trkpt><trkpt lat="43.4900192" lon="11.4081851"><ele>540.0</ele><time>2026-04-04T16:44:51.037Z</time></trkpt><trkpt lat="43.4900296" lon="11.4084061"><ele>540.5</ele><time>2026-04-04T16:44:52.037Z</time></trkpt><trkpt lat="43.4900289" lon="11.4086032"><ele>541.0</ele><time>2026-04-04T16:44:53.039Z</time></trkpt><trkpt lat="43.4900299" lon="11.408808"><ele>541.5</ele><time>2026-04-04T16:44:54.038Z</time></trkpt><trkpt lat="43.490029" lon="11.4090125"><ele>542.0</ele><time>2026-04-04T16:44:55.039Z</time></trkpt><trkpt lat="43.4900238" lon="11.409207"><ele>543.0</ele><time>2026-04-04T16:44:56.037Z</time></trkpt><trkpt lat="43.4900073" lon="11.4093923"><ele>544.0</ele><time>2026-04-04T16:44:57.037Z</time></trkpt><trkpt lat="43.4899954" lon="11.409597"><ele>545.0</ele><time>2026-04-04T16:44:58.037Z</time></trkpt><trkpt lat="43.4899778" lon="11.4097938"><ele>546.0</ele><time>2026-04-04T16:44:59.038Z</time></trkpt><trkpt lat="43.489935" lon="11.4100036"><ele>546.6666666666666</ele><time>2026-04-04T16:45:00.038Z</time></trkpt><trkpt lat="43.4898624" lon="11.4102175"><ele>547.3333333333333</ele><time>2026-04-04T16:45:01.038Z</time></trkpt><trkpt lat="43.4897807" lon="11.4104243"><ele>548.0</ele><time>2026-04-04T16:45:02.037Z</time></trkpt><trkpt lat="43.489698" lon="11.410581"><ele>548.1999999999999</ele><time>2026-04-04T16:45:03.038Z</time></trkpt><trkpt lat="43.4896062" lon="11.410733"><ele>548.4</ele><time>2026-04-04T16:45:04.039Z</time></trkpt><trkpt lat="43.489542" lon="11.4108494"><ele>548.5999999999999</ele><time>2026-04-04T16:45:05.038Z</time></trkpt><trkpt lat="43.4895054" lon="11.4109744"><ele>548.8</ele><time>2026-04-04T16:45:06.037Z</time></trkpt><trkpt lat="43.4894819" lon="11.4110886"><ele>549.0</ele><time>2026-04-04T16:45:07.038Z</time></trkpt><trkpt lat="43.4894668" lon="11.4111921"><ele>549.0</ele><time>2026-04-04T16:45:08.038Z</time></trkpt><trkpt lat="43.4894611" lon="11.4112918"><ele>549.0</ele><time>2026-04-04T16:45:09.039Z</time></trkpt><trkpt lat="43.4894692" lon="11.4113989"><ele>549.0</ele><time>2026-04-04T16:45:10.038Z</time></trkpt><trkpt lat="43.4894811" lon="11.4115164"><ele>549.0</ele><time>2026-04-04T16:45:11.038Z</time></trkpt><trkpt lat="43.4895056" lon="11.4116195"><ele>549.0</ele><time>2026-04-04T16:45:12.037Z</time></trkpt><trkpt lat="43.4895358" lon="11.4117396"><ele>549.0</ele><time>2026-04-04T16:45:13.038Z</time></trkpt><trkpt lat="43.489576" lon="11.4118511"><ele>550.8</ele><time>2026-04-04T16:45:14.039Z</time></trkpt><trkpt lat="43.4896217" lon="11.4119537"><ele>552.5999999999999</ele><time>2026-04-04T16:45:15.037Z</time></trkpt><trkpt lat="43.4896702" lon="11.4120435"><ele>554.4</ele><time>2026-04-04T16:45:16.038Z</time></trkpt><trkpt lat="43.4897374" lon="11.412129"><ele>556.1999999999999</ele><time>2026-04-04T16:45:17.038Z</time></trkpt><trkpt lat="43.489812" lon="11.4122111"><ele>558.0</ele><time>2026-04-04T16:45:18.038Z</time></trkpt><trkpt lat="43.4898929" lon="11.4122911"><ele>558.0</ele><time>2026-04-04T16:45:19.038Z</time></trkpt><trkpt lat="43.4899684" lon="11.4123693"><ele>558.0</ele><time>2026-04-04T16:45:20.039Z</time></trkpt><trkpt lat="43.4900435" lon="11.4124521"><ele>558.0</ele><time>2026-04-04T16:45:21.037Z</time></trkpt><trkpt lat="43.490134" lon="11.4125292"><ele>558.0</ele><time>2026-04-04T16:45:22.039Z</time></trkpt><trkpt lat="43.4902189" lon="11.4126295"><ele>558.0</ele><time>2026-04-04T16:45:23.037Z</time></trkpt><trkpt lat="43.4902779" lon="11.4127263"><ele>558.0</ele><time>2026-04-04T16:45:24.039Z</time></trkpt><trkpt lat="43.4903507" lon="11.4128347"><ele>558.0</ele><time>2026-04-04T16:45:25.039Z</time></trkpt><trkpt lat="43.4904265" lon="11.4129616"><ele>558.0</ele><time>2026-04-04T16:45:26.039Z</time></trkpt><trkpt lat="43.4904998" lon="11.413086"><ele>558.0</ele><time>2026-04-04T16:45:27.038Z</time></trkpt><trkpt lat="43.4905585" lon="11.4132419"><ele>556.75</ele><time>2026-04-04T16:45:28.037Z</time></trkpt><trkpt lat="43.4905893" lon="11.4134074"><ele>555.5</ele><time>2026-04-04T16:45:29.039Z</time></trkpt><trkpt lat="43.4905958" lon="11.4135999"><ele>554.25</ele><time>2026-04-04T16:45:30.038Z</time></trkpt><trkpt lat="43.490571" lon="11.4138176"><ele>553.0</ele><time>2026-04-04T16:45:31.037Z</time></trkpt><trkpt lat="43.4905399" lon="11.4140512"><ele>553.0</ele><time>2026-04-04T16:45:32.039Z</time></trkpt><trkpt lat="43.4904975" lon="11.4143023"><ele>553.0</ele><time>2026-04-04T16:45:33.038Z</time></trkpt><trkpt lat="43.4904557" lon="11.4145638"><ele>553.0</ele><time>2026-04-04T16:45:34.038Z</time></trkpt><trkpt lat="43.4904081" lon="11.4148427"><ele>553.3333333333334</ele><time>2026-04-04T16:45:35.039Z</time></trkpt><trkpt lat="43.4903528" lon="11.4151386"><ele>553.6666666666666</ele><time>2026-04-04T16:45:36.038Z</time></trkpt><trkpt lat="43.4902986" lon="11.4154364"><ele>554.0</ele><time>2026-04-04T16:45:37.039Z</time></trkpt><trkpt lat="43.490234" lon="11.4157094"><ele>554.6666666666666</ele><time>2026-04-04T16:45:38.038Z</time></trkpt><trkpt lat="43.4901773" lon="11.4159579"><ele>555.3333333333334</ele><time>2026-04-04T16:45:39.037Z</time></trkpt><trkpt lat="43.4901246" lon="11.416183"><ele>556.0</ele><time>2026-04-04T16:45:40.038Z</time></trkpt><trkpt lat="43.4900866" lon="11.4163824"><ele>557.5</ele><time>2026-04-04T16:45:41.038Z</time></trkpt><trkpt lat="43.4900604" lon="11.4165804"><ele>559.0</ele><time>2026-04-04T16:45:42.038Z</time></trkpt><trkpt lat="43.4900623" lon="11.416754"><ele>560.5</ele><time>2026-04-04T16:45:43.038Z</time></trkpt><trkpt lat="43.4900701" lon="11.4169271"><ele>562.0</ele><time>2026-04-04T16:45:44.037Z</time></trkpt><trkpt lat="43.4901076" lon="11.4171094"><ele>563.0</ele><time>2026-04-04T16:45:45.038Z</time></trkpt><trkpt lat="43.4901572" lon="11.4172964"><ele>564.0</ele><time>2026-04-04T16:45:46.039Z</time></trkpt><trkpt lat="43.4902052" lon="11.4174747"><ele>565.0</ele><time>2026-04-04T16:45:47.037Z</time></trkpt><trkpt lat="43.4902572" lon="11.4176441"><ele>566.0</ele><time>2026-04-04T16:45:48.037Z</time></trkpt><trkpt lat="43.4903265" lon="11.4177832"><ele>566.0</ele><time>2026-04-04T16:45:49.038Z</time></trkpt><trkpt lat="43.4903957" lon="11.4179186"><ele>566.0</ele><time>2026-04-04T16:45:50.039Z</time></trkpt><trkpt lat="43.4904906" lon="11.4179895"><ele>566.0</ele><time>2026-04-04T16:45:51.039Z</time></trkpt><trkpt lat="43.4905942" lon="11.4180513"><ele>566.0</ele><time>2026-04-04T16:45:52.038Z</time></trkpt><trkpt lat="43.4906877" lon="11.4181112"><ele>566.0</ele><time>2026-04-04T16:45:53.038Z</time></trkpt><trkpt lat="43.4907663" lon="11.4181717"><ele>566.4</ele><time>2026-04-04T16:45:54.037Z</time></trkpt><trkpt lat="43.4908521" lon="11.4182475"><ele>566.8</ele><time>2026-04-04T16:45:55.039Z</time></trkpt><trkpt lat="43.490899" lon="11.4183455"><ele>567.1999999999999</ele><time>2026-04-04T16:45:56.038Z</time></trkpt><trkpt lat="43.49093" lon="11.4184753"><ele>567.6</ele><time>2026-04-04T16:45:57.039Z</time></trkpt><trkpt lat="43.4909568" lon="11.4186199"><ele>568.0</ele><time>2026-04-04T16:45:58.038Z</time></trkpt><trkpt lat="43.4909572" lon="11.4187829"><ele>566.3333333333334</ele><time>2026-04-04T16:45:59.037Z</time></trkpt><trkpt lat="43.4909803" lon="11.4189639"><ele>564.6666666666666</ele><time>2026-04-04T16:46:00.037Z</time></trkpt><trkpt lat="43.491009" lon="11.4191597"><ele>563.0</ele><time>2026-04-04T16:46:01.038Z</time></trkpt><trkpt lat="43.4910675" lon="11.4193906"><ele>563.0</ele><time>2026-04-04T16:46:02.038Z</time></trkpt><trkpt lat="43.4911263" lon="11.4196379"><ele>563.0</ele><time>2026-04-04T16:46:03.037Z</time></trkpt><trkpt lat="43.4911788" lon="11.419908"><ele>563.0</ele><time>2026-04-04T16:46:04.037Z</time></trkpt><trkpt lat="43.4912261" lon="11.4201696"><ele>562.0</ele><time>2026-04-04T16:46:05.038Z</time></trkpt><trkpt lat="43.4912622" lon="11.4204211"><ele>561.0</ele><time>2026-04-04T16:46:06.039Z</time></trkpt><trkpt lat="43.4912917" lon="11.4206483"><ele>560.0</ele><time>2026-04-04T16:46:07.037Z</time></trkpt><trkpt lat="43.4913153" lon="11.4208339"><ele>560.0</ele><time>2026-04-04T16:46:08.039Z</time></trkpt><trkpt lat="43.4913259" lon="11.4209735"><ele>560.0</ele><time>2026-04-04T16:46:09.038Z</time></trkpt><trkpt lat="43.4913239" lon="11.4210752"><ele>560.0</ele><time>2026-04-04T16:46:10.038Z</time></trkpt><trkpt lat="43.4912765" lon="11.4211653"><ele>560.0</ele><time>2026-04-04T16:46:12.038Z</time></trkpt><trkpt lat="43.4911992" lon="11.4211722"><ele>560.0</ele><time>2026-04-04T16:46:15.037Z</time></trkpt><trkpt lat="43.491122" lon="11.4211733"><ele>560.0</ele><time>2026-04-04T16:46:18.039Z</time></trkpt><trkpt lat="43.4910388" lon="11.4211874"><ele>560.0</ele><time>2026-04-04T16:46:20.037Z</time></trkpt><trkpt lat="43.4909373" lon="11.4212298"><ele>560.0</ele><time>2026-04-04T16:46:22.039Z</time></trkpt><trkpt lat="43.490873" lon="11.4212588"><ele>560.0</ele><time>2026-04-04T16:46:23.037Z</time></trkpt><trkpt lat="43.4907949" lon="11.4212815"><ele>560.0</ele><time>2026-04-04T16:46:24.039Z</time></trkpt><trkpt lat="43.4907197" lon="11.4212985"><ele>560.0</ele><time>2026-04-04T16:46:25.036Z</time></trkpt><trkpt lat="43.4906417" lon="11.4213117"><ele>560.0</ele><time>2026-04-04T16:46:26.037Z</time></trkpt><trkpt lat="43.4905553" lon="11.4213147"><ele>561.6</ele><time>2026-04-04T16:46:27.037Z</time></trkpt><trkpt lat="43.4904807" lon="11.4213302"><ele>563.2</ele><time>2026-04-04T16:46:28.038Z</time></trkpt><trkpt lat="43.4903844" lon="11.4213973"><ele>564.8</ele><time>2026-04-04T16:46:30.037Z</time></trkpt><trkpt lat="43.490255" lon="11.4214277"><ele>566.4</ele><time>2026-04-04T16:46:32.037Z</time></trkpt><trkpt lat="43.490175" lon="11.4214646"><ele>568.0</ele><time>2026-04-04T16:46:33.037Z</time></trkpt><trkpt lat="43.4900837" lon="11.4214935"><ele>568.0</ele><time>2026-04-04T16:46:34.038Z</time></trkpt><trkpt lat="43.4899939" lon="11.4215287"><ele>568.0</ele><time>2026-04-04T16:46:35.038Z</time></trkpt><trkpt lat="43.4898912" lon="11.4215606"><ele>568.0</ele><time>2026-04-04T16:46:36.037Z</time></trkpt><trkpt lat="43.4897888" lon="11.4216016"><ele>568.0</ele><time>2026-04-04T16:46:37.037Z</time></trkpt><trkpt lat="43.4896815" lon="11.4216623"><ele>568.0</ele><time>2026-04-04T16:46:38.038Z</time></trkpt><trkpt lat="43.489569" lon="11.4217185"><ele>564.8</ele><time>2026-04-04T16:46:39.038Z</time></trkpt><trkpt lat="43.4894624" lon="11.4217598"><ele>561.5999999999999</ele><time>2026-04-04T16:46:40.038Z</time></trkpt><trkpt lat="43.4893742" lon="11.4217987"><ele>558.4000000000001</ele><time>2026-04-04T16:46:41.037Z</time></trkpt><trkpt lat="43.4892883" lon="11.421848"><ele>555.2</ele><time>2026-04-04T16:46:42.038Z</time></trkpt><trkpt lat="43.4892069" lon="11.4218791"><ele>552.0</ele><time>2026-04-04T16:46:43.038Z</time></trkpt><trkpt lat="43.4891089" lon="11.4218866"><ele>552.0</ele><time>2026-04-04T16:46:44.039Z</time></trkpt><trkpt lat="43.489017" lon="11.4218989"><ele>552.0</ele><time>2026-04-04T16:46:45.037Z</time></trkpt><trkpt lat="43.4889315" lon="11.4219039"><ele>552.0</ele><time>2026-04-04T16:46:46.037Z</time></trkpt><trkpt lat="43.4888561" lon="11.4219126"><ele>552.0</ele><time>2026-04-04T16:46:47.038Z</time></trkpt><trkpt lat="43.4887804" lon="11.421932"><ele>552.0</ele><time>2026-04-04T16:46:48.038Z</time></trkpt><trkpt lat="43.488716" lon="11.4219609"><ele>552.0</ele><time>2026-04-04T16:46:49.038Z</time></trkpt><trkpt lat="43.4886557" lon="11.4219876"><ele>553.2</ele><time>2026-04-04T16:46:50.037Z</time></trkpt><trkpt lat="43.4885463" lon="11.4220351"><ele>554.4000000000001</ele><time>2026-04-04T16:46:52.039Z</time></trkpt><trkpt lat="43.4884545" lon="11.4221142"><ele>555.5999999999999</ele><time>2026-04-04T16:46:54.039Z</time></trkpt><trkpt lat="43.4884072" lon="11.4221794"><ele>556.8</ele><time>2026-04-04T16:46:55.036Z</time></trkpt><trkpt lat="43.4883404" lon="11.4223461"><ele>558.0</ele><time>2026-04-04T16:46:57.039Z</time></trkpt><trkpt lat="43.4883075" lon="11.4224475"><ele>558.0</ele><time>2026-04-04T16:46:58.038Z</time></trkpt><trkpt lat="43.4882814" lon="11.4225454"><ele>558.0</ele><time>2026-04-04T16:46:59.037Z</time></trkpt><trkpt lat="43.4882564" lon="11.4226354"><ele>558.0</ele><time>2026-04-04T16:47:00.038Z</time></trkpt><trkpt lat="43.4881724" lon="11.4227394"><ele>558.0</ele><time>2026-04-04T16:47:02.038Z</time></trkpt><trkpt lat="43.4880904" lon="11.4227461"><ele>558.0</ele><time>2026-04-04T16:47:04.039Z</time></trkpt><trkpt lat="43.487964" lon="11.422669"><ele>557.3333333333334</ele><time>2026-04-04T16:47:06.038Z</time></trkpt><trkpt lat="43.4879046" lon="11.4226135"><ele>556.6666666666666</ele><time>2026-04-04T16:47:07.037Z</time></trkpt><trkpt lat="43.4878405" lon="11.4225561"><ele>556.0</ele><time>2026-04-04T16:47:08.037Z</time></trkpt><trkpt lat="43.4877778" lon="11.4225061"><ele>555.3333333333333</ele><time>2026-04-04T16:47:09.038Z</time></trkpt><trkpt lat="43.4877137" lon="11.4224493"><ele>554.6666666666666</ele><time>2026-04-04T16:47:10.037Z</time></trkpt><trkpt lat="43.4876455" lon="11.4223957"><ele>554.0</ele><time>2026-04-04T16:47:11.037Z</time></trkpt><trkpt lat="43.4875705" lon="11.422334"><ele>554.0</ele><time>2026-04-04T16:47:12.038Z</time></trkpt><trkpt lat="43.4875045" lon="11.4222799"><ele>554.0</ele><time>2026-04-04T16:47:13.037Z</time></trkpt><trkpt lat="43.487441" lon="11.4222253"><ele>554.0</ele><time>2026-04-04T16:47:14.038Z</time></trkpt><trkpt lat="43.4873858" lon="11.4221818"><ele>554.0</ele><time>2026-04-04T16:47:15.037Z</time></trkpt><trkpt lat="43.4873197" lon="11.4220951"><ele>554.0</ele><time>2026-04-04T16:47:16.038Z</time></trkpt><trkpt lat="43.4872527" lon="11.4220124"><ele>554.0</ele><time>2026-04-04T16:47:17.038Z</time></trkpt><trkpt lat="43.4871893" lon="11.4219326"><ele>551.8</ele><time>2026-04-04T16:47:18.036Z</time></trkpt><trkpt lat="43.4871312" lon="11.4218449"><ele>549.5999999999999</ele><time>2026-04-04T16:47:19.039Z</time></trkpt><trkpt lat="43.4870792" lon="11.4217436"><ele>547.4</ele><time>2026-04-04T16:47:20.039Z</time></trkpt><trkpt lat="43.4870267" lon="11.4216429"><ele>545.1999999999999</ele><time>2026-04-04T16:47:21.038Z</time></trkpt><trkpt lat="43.486966" lon="11.4215306"><ele>543.0</ele><time>2026-04-04T16:47:22.038Z</time></trkpt><trkpt lat="43.4869094" lon="11.4214173"><ele>542.8333333333334</ele><time>2026-04-04T16:47:23.038Z</time></trkpt><trkpt lat="43.4868595" lon="11.4212955"><ele>542.6666666666666</ele><time>2026-04-04T16:47:24.037Z</time></trkpt><trkpt lat="43.486812" lon="11.4211949"><ele>542.5</ele><time>2026-04-04T16:47:25.038Z</time></trkpt><trkpt lat="43.486768" lon="11.4211089"><ele>542.3333333333333</ele><time>2026-04-04T16:47:26.037Z</time></trkpt><trkpt lat="43.4867194" lon="11.4210323"><ele>542.1666666666666</ele><time>2026-04-04T16:47:27.038Z</time></trkpt><trkpt lat="43.4866679" lon="11.4209507"><ele>542.0</ele><time>2026-04-04T16:47:28.038Z</time></trkpt><trkpt lat="43.4866075" lon="11.4208528"><ele>542.0</ele><time>2026-04-04T16:47:29.038Z</time></trkpt><trkpt lat="43.4865527" lon="11.4207599"><ele>542.0</ele><time>2026-04-04T16:47:30.038Z</time></trkpt><trkpt lat="43.4864959" lon="11.4206805"><ele>542.0</ele><time>2026-04-04T16:47:31.037Z</time></trkpt><trkpt lat="43.4864435" lon="11.4206163"><ele>542.0</ele><time>2026-04-04T16:47:32.038Z</time></trkpt><trkpt lat="43.4863985" lon="11.4205466"><ele>542.0</ele><time>2026-04-04T16:47:33.039Z</time></trkpt><trkpt lat="43.4863431" lon="11.4204793"><ele>542.0</ele><time>2026-04-04T16:47:35.038Z</time></trkpt><trkpt lat="43.48628" lon="11.4204361"><ele>543.0</ele><time>2026-04-04T16:47:48.039Z</time></trkpt><trkpt lat="43.4862149" lon="11.4203768"><ele>544.0</ele><time>2026-04-04T16:53:12.037Z</time></trkpt><trkpt lat="43.4861087" lon="11.420307"><ele>545.0</ele><time>2026-04-04T16:53:14.035Z</time></trkpt><trkpt lat="43.4860186" lon="11.4202429"><ele>546.0</ele><time>2026-04-04T16:53:16.036Z</time></trkpt><trkpt lat="43.4859059" lon="11.4201751"><ele>547.0</ele><time>2026-04-04T16:53:18.037Z</time></trkpt><trkpt lat="43.4858454" lon="11.4201363"><ele>547.0</ele><time>2026-04-04T16:53:19.036Z</time></trkpt><trkpt lat="43.4857817" lon="11.4201013"><ele>547.0</ele><time>2026-04-04T16:53:20.036Z</time></trkpt><trkpt lat="43.4857107" lon="11.4200629"><ele>547.0</ele><time>2026-04-04T16:53:21.037Z</time></trkpt><trkpt lat="43.4856341" lon="11.4200204"><ele>547.0</ele><time>2026-04-04T16:53:22.037Z</time></trkpt><trkpt lat="43.4855512" lon="11.4199705"><ele>547.0</ele><time>2026-04-04T16:53:23.037Z</time></trkpt><trkpt lat="43.4854742" lon="11.4199259"><ele>547.0</ele><time>2026-04-04T16:53:24.036Z</time></trkpt><trkpt lat="43.485383" lon="11.4198897"><ele>546.8000000000001</ele><time>2026-04-04T16:53:25.036Z</time></trkpt><trkpt lat="43.4852936" lon="11.4198474"><ele>546.6</ele><time>2026-04-04T16:53:26.037Z</time></trkpt><trkpt lat="43.4852037" lon="11.4197838"><ele>546.4000000000001</ele><time>2026-04-04T16:53:27.037Z</time></trkpt><trkpt lat="43.4851117" lon="11.419729"><ele>546.2</ele><time>2026-04-04T16:53:28.035Z</time></trkpt><trkpt lat="43.4850171" lon="11.4196764"><ele>546.0</ele><time>2026-04-04T16:53:29.037Z</time></trkpt><trkpt lat="43.4849256" lon="11.419626"><ele>546.0</ele><time>2026-04-04T16:53:30.037Z</time></trkpt><trkpt lat="43.4848345" lon="11.4195784"><ele>546.0</ele><time>2026-04-04T16:53:31.037Z</time></trkpt><trkpt lat="43.4847511" lon="11.4195406"><ele>546.0</ele><time>2026-04-04T16:53:32.036Z</time></trkpt><trkpt lat="43.4846748" lon="11.419498"><ele>546.0</ele><time>2026-04-04T16:53:33.035Z</time></trkpt><trkpt lat="43.4846025" lon="11.4194676"><ele>546.0</ele><time>2026-04-04T16:53:34.036Z</time></trkpt><trkpt lat="43.4845282" lon="11.4194494"><ele>546.0</ele><time>2026-04-04T16:53:35.036Z</time></trkpt><trkpt lat="43.484455" lon="11.4194334"><ele>546.2857142857143</ele><time>2026-04-04T16:53:36.036Z</time></trkpt><trkpt lat="43.4843875" lon="11.4194291"><ele>546.5714285714286</ele><time>2026-04-04T16:53:37.037Z</time></trkpt><trkpt lat="43.4843233" lon="11.419445"><ele>546.8571428571429</ele><time>2026-04-04T16:53:38.037Z</time></trkpt><trkpt lat="43.484259" lon="11.419454"><ele>547.1428571428571</ele><time>2026-04-04T16:53:39.036Z</time></trkpt><trkpt lat="43.4841858" lon="11.419471"><ele>547.4285714285714</ele><time>2026-04-04T16:53:40.036Z</time></trkpt><trkpt lat="43.4841111" lon="11.4194968"><ele>547.7142857142858</ele><time>2026-04-04T16:53:41.035Z</time></trkpt><trkpt lat="43.4840371" lon="11.4195391"><ele>548.0</ele><time>2026-04-04T16:53:42.035Z</time></trkpt><trkpt lat="43.4839532" lon="11.4195859"><ele>548.0</ele><time>2026-04-04T16:53:43.036Z</time></trkpt><trkpt lat="43.4838587" lon="11.4196453"><ele>548.0</ele><time>2026-04-04T16:53:44.037Z</time></trkpt><trkpt lat="43.4837644" lon="11.419706"><ele>548.0</ele><time>2026-04-04T16:53:45.036Z</time></trkpt><trkpt lat="43.4836547" lon="11.4197739"><ele>548.0</ele><time>2026-04-04T16:53:46.036Z</time></trkpt><trkpt lat="43.4835504" lon="11.4198458"><ele>548.0</ele><time>2026-04-04T16:53:47.036Z</time></trkpt><trkpt lat="43.4834443" lon="11.4199042"><ele>547.25</ele><time>2026-04-04T16:53:48.036Z</time></trkpt><trkpt lat="43.4833336" lon="11.4199686"><ele>546.5</ele><time>2026-04-04T16:53:49.035Z</time></trkpt><trkpt lat="43.4832365" lon="11.4200422"><ele>545.75</ele><time>2026-04-04T16:53:50.035Z</time></trkpt><trkpt lat="43.4831332" lon="11.4201002"><ele>545.0</ele><time>2026-04-04T16:53:51.036Z</time></trkpt><trkpt lat="43.4830303" lon="11.4201717"><ele>545.0</ele><time>2026-04-04T16:53:52.037Z</time></trkpt><trkpt lat="43.4829328" lon="11.420241"><ele>545.0</ele><time>2026-04-04T16:53:53.037Z</time></trkpt><trkpt lat="43.4828334" lon="11.4203108"><ele>545.0</ele><time>2026-04-04T16:53:54.035Z</time></trkpt><trkpt lat="43.4827312" lon="11.4203772"><ele>545.0</ele><time>2026-04-04T16:53:55.035Z</time></trkpt><trkpt lat="43.4826257" lon="11.4204455"><ele>544.75</ele><time>2026-04-04T16:53:56.037Z</time></trkpt><trkpt lat="43.4825294" lon="11.4205188"><ele>544.5</ele><time>2026-04-04T16:53:57.035Z</time></trkpt><trkpt lat="43.4824284" lon="11.4205925"><ele>544.25</ele><time>2026-04-04T16:53:58.035Z</time></trkpt><trkpt lat="43.4823273" lon="11.4206696"><ele>544.0</ele><time>2026-04-04T16:53:59.035Z</time></trkpt><trkpt lat="43.4822247" lon="11.4207456"><ele>544.0</ele><time>2026-04-04T16:54:00.036Z</time></trkpt><trkpt lat="43.4821261" lon="11.4208168"><ele>544.0</ele><time>2026-04-04T16:54:01.037Z</time></trkpt><trkpt lat="43.4820238" lon="11.4208873"><ele>544.0</ele><time>2026-04-04T16:54:02.037Z</time></trkpt><trkpt lat="43.4819365" lon="11.420952"><ele>544.0</ele><time>2026-04-04T16:54:03.037Z</time></trkpt><trkpt lat="43.4818552" lon="11.4210206"><ele>544.0</ele><time>2026-04-04T16:54:04.036Z</time></trkpt><trkpt lat="43.4817704" lon="11.4210918"><ele>542.6</ele><time>2026-04-04T16:54:05.036Z</time></trkpt><trkpt lat="43.4816804" lon="11.4211669"><ele>541.2</ele><time>2026-04-04T16:54:06.037Z</time></trkpt><trkpt lat="43.4815924" lon="11.4212298"><ele>539.8000000000001</ele><time>2026-04-04T16:54:07.036Z</time></trkpt><trkpt lat="43.4815013" lon="11.4213038"><ele>538.4</ele><time>2026-04-04T16:54:08.037Z</time></trkpt><trkpt lat="43.4814119" lon="11.4213795"><ele>537.0</ele><time>2026-04-04T16:54:09.035Z</time></trkpt><trkpt lat="43.4813143" lon="11.4214478"><ele>537.2</ele><time>2026-04-04T16:54:10.036Z</time></trkpt><trkpt lat="43.4812207" lon="11.4215185"><ele>537.4000000000001</ele><time>2026-04-04T16:54:11.035Z</time></trkpt><trkpt lat="43.4811386" lon="11.4215923"><ele>537.5999999999999</ele><time>2026-04-04T16:54:12.034Z</time></trkpt><trkpt lat="43.4810487" lon="11.4216626"><ele>537.8</ele><time>2026-04-04T16:54:13.036Z</time></trkpt><trkpt lat="43.4809577" lon="11.4217305"><ele>538.0</ele><time>2026-04-04T16:54:14.037Z</time></trkpt><trkpt lat="43.4808772" lon="11.4218211"><ele>538.0</ele><time>2026-04-04T16:54:15.037Z</time></trkpt><trkpt lat="43.4807655" lon="11.4218949"><ele>538.0</ele><time>2026-04-04T16:54:16.036Z</time></trkpt><trkpt lat="43.4806645" lon="11.4219677"><ele>538.0</ele><time>2026-04-04T16:54:17.036Z</time></trkpt><trkpt lat="43.4805711" lon="11.4220494"><ele>538.0</ele><time>2026-04-04T16:54:18.036Z</time></trkpt><trkpt lat="43.4804593" lon="11.422126"><ele>537.0</ele><time>2026-04-04T16:54:19.036Z</time></trkpt><trkpt lat="43.4803721" lon="11.422206"><ele>536.0</ele><time>2026-04-04T16:54:20.035Z</time></trkpt><trkpt lat="43.4802774" lon="11.4222889"><ele>535.0</ele><time>2026-04-04T16:54:21.036Z</time></trkpt><trkpt lat="43.4801822" lon="11.4223681"><ele>534.0</ele><time>2026-04-04T16:54:22.036Z</time></trkpt><trkpt lat="43.4800933" lon="11.4224505"><ele>533.0</ele><time>2026-04-04T16:54:23.035Z</time></trkpt><trkpt lat="43.4800006" lon="11.4225457"><ele>533.0</ele><time>2026-04-04T16:54:24.035Z</time></trkpt><trkpt lat="43.479922" lon="11.4226455"><ele>533.0</ele><time>2026-04-04T16:54:25.036Z</time></trkpt><trkpt lat="43.4798351" lon="11.4227461"><ele>533.0</ele><time>2026-04-04T16:54:26.036Z</time></trkpt><trkpt lat="43.4797498" lon="11.4228426"><ele>533.0</ele><time>2026-04-04T16:54:27.037Z</time></trkpt><trkpt lat="43.4796699" lon="11.4229386"><ele>533.0</ele><time>2026-04-04T16:54:28.036Z</time></trkpt><trkpt lat="43.4795873" lon="11.4230476"><ele>533.1999999999999</ele><time>2026-04-04T16:54:29.035Z</time></trkpt><trkpt lat="43.479517" lon="11.4231662"><ele>533.4</ele><time>2026-04-04T16:54:30.037Z</time></trkpt><trkpt lat="43.479451" lon="11.4232754"><ele>533.5999999999999</ele><time>2026-04-04T16:54:31.034Z</time></trkpt><trkpt lat="43.4793797" lon="11.4233872"><ele>533.8</ele><time>2026-04-04T16:54:32.035Z</time></trkpt><trkpt lat="43.4793096" lon="11.4234953"><ele>534.0</ele><time>2026-04-04T16:54:33.035Z</time></trkpt><trkpt lat="43.479252" lon="11.423608"><ele>534.0</ele><time>2026-04-04T16:54:34.034Z</time></trkpt><trkpt lat="43.4791746" lon="11.4236921"><ele>534.0</ele><time>2026-04-04T16:54:35.037Z</time></trkpt><trkpt lat="43.4791148" lon="11.4237915"><ele>534.0</ele><time>2026-04-04T16:54:36.036Z</time></trkpt><trkpt lat="43.4790353" lon="11.423869"><ele>534.0</ele><time>2026-04-04T16:54:37.037Z</time></trkpt><trkpt lat="43.4789743" lon="11.4239651"><ele>534.0</ele><time>2026-04-04T16:54:38.036Z</time></trkpt><trkpt lat="43.4789071" lon="11.4240741"><ele>532.8</ele><time>2026-04-04T16:54:39.035Z</time></trkpt><trkpt lat="43.478846" lon="11.4241624"><ele>531.5999999999999</ele><time>2026-04-04T16:54:40.035Z</time></trkpt><trkpt lat="43.4787734" lon="11.4242282"><ele>530.4</ele><time>2026-04-04T16:54:41.036Z</time></trkpt><trkpt lat="43.4787062" lon="11.4242822"><ele>529.1999999999999</ele><time>2026-04-04T16:54:42.036Z</time></trkpt><trkpt lat="43.4785884" lon="11.4243584"><ele>528.0</ele><time>2026-04-04T16:54:44.036Z</time></trkpt><trkpt lat="43.4785174" lon="11.424419"><ele>527.0</ele><time>2026-04-04T16:54:45.035Z</time></trkpt><trkpt lat="43.4784438" lon="11.4244656"><ele>526.0</ele><time>2026-04-04T16:54:46.035Z</time></trkpt><trkpt lat="43.4783701" lon="11.4245089"><ele>525.0</ele><time>2026-04-04T16:54:47.036Z</time></trkpt><trkpt lat="43.4783054" lon="11.4245499"><ele>524.0</ele><time>2026-04-04T16:54:48.036Z</time></trkpt><trkpt lat="43.4782112" lon="11.4246173"><ele>523.0</ele><time>2026-04-04T16:54:50.035Z</time></trkpt><trkpt lat="43.478135" lon="11.4246689"><ele>522.0</ele><time>2026-04-04T16:54:52.036Z</time></trkpt><trkpt lat="43.4780631" lon="11.4247156"><ele>521.3333333333334</ele><time>2026-04-04T16:54:54.036Z</time></trkpt><trkpt lat="43.477997" lon="11.424755"><ele>520.6666666666666</ele><time>2026-04-04T16:54:57.036Z</time></trkpt><trkpt lat="43.4779512" lon="11.42485"><ele>520.0</ele><time>2026-04-04T16:55:06.035Z</time></trkpt><trkpt lat="43.4778852" lon="11.4249414"><ele>519.3333333333333</ele><time>2026-04-04T16:55:08.036Z</time></trkpt><trkpt lat="43.4778159" lon="11.4250722"><ele>518.6666666666666</ele><time>2026-04-04T16:55:10.036Z</time></trkpt><trkpt lat="43.4777876" lon="11.4251619"><ele>518.0</ele><time>2026-04-04T16:55:11.035Z</time></trkpt><trkpt lat="43.4777582" lon="11.4252554"><ele>516.0</ele><time>2026-04-04T16:55:12.036Z</time></trkpt><trkpt lat="43.4777335" lon="11.4253545"><ele>514.0</ele><time>2026-04-04T16:55:13.036Z</time></trkpt><trkpt lat="43.4777184" lon="11.4254567"><ele>512.0</ele><time>2026-04-04T16:55:14.037Z</time></trkpt><trkpt lat="43.4777244" lon="11.4255673"><ele>510.0</ele><time>2026-04-04T16:55:15.036Z</time></trkpt><trkpt lat="43.4777291" lon="11.4257416"><ele>507.99999999999994</ele><time>2026-04-04T16:55:17.035Z</time></trkpt><trkpt lat="43.4777345" lon="11.4258491"><ele>506.0</ele><time>2026-04-04T16:55:18.035Z</time></trkpt><trkpt lat="43.477731" lon="11.4259477"><ele>505.3333333333333</ele><time>2026-04-04T16:55:19.036Z</time></trkpt><trkpt lat="43.4777261" lon="11.426038"><ele>504.66666666666663</ele><time>2026-04-04T16:55:20.036Z</time></trkpt><trkpt lat="43.4777198" lon="11.4261296"><ele>504.0</ele><time>2026-04-04T16:55:21.036Z</time></trkpt><trkpt lat="43.477632" lon="11.4262062"><ele>503.33333333333337</ele><time>2026-04-04T16:55:23.035Z</time></trkpt><trkpt lat="43.4775768" lon="11.4262778"><ele>502.6666666666667</ele><time>2026-04-04T16:55:24.036Z</time></trkpt><trkpt lat="43.4775277" lon="11.4263335"><ele>502.0</ele><time>2026-04-04T16:55:25.036Z</time></trkpt><trkpt lat="43.4774482" lon="11.4263334"><ele>500.20000000000005</ele><time>2026-04-04T16:55:26.037Z</time></trkpt><trkpt lat="43.4773021" lon="11.4263685"><ele>498.40000000000003</ele><time>2026-04-04T16:55:28.038Z</time></trkpt><trkpt lat="43.4772323" lon="11.4263693"><ele>496.59999999999997</ele><time>2026-04-04T16:55:29.036Z</time></trkpt><trkpt lat="43.4771559" lon="11.4263773"><ele>494.79999999999995</ele><time>2026-04-04T16:55:30.035Z</time></trkpt><trkpt lat="43.4770622" lon="11.4263879"><ele>493.0</ele><time>2026-04-04T16:55:31.035Z</time></trkpt><trkpt lat="43.4769801" lon="11.4263879"><ele>490.83333333333337</ele><time>2026-04-04T16:55:32.035Z</time></trkpt><trkpt lat="43.4768943" lon="11.426354"><ele>488.6666666666667</ele><time>2026-04-04T16:55:33.037Z</time></trkpt><trkpt lat="43.4768102" lon="11.4263559"><ele>486.5</ele><time>2026-04-04T16:55:34.036Z</time></trkpt><trkpt lat="43.4767287" lon="11.426338"><ele>484.33333333333337</ele><time>2026-04-04T16:55:35.036Z</time></trkpt><trkpt lat="43.4766284" lon="11.4263477"><ele>482.1666666666667</ele><time>2026-04-04T16:55:36.037Z</time></trkpt><trkpt lat="43.476547" lon="11.426343"><ele>480.0</ele><time>2026-04-04T16:55:37.036Z</time></trkpt><trkpt lat="43.476464" lon="11.4263406"><ele>480.0</ele><time>2026-04-04T16:55:38.036Z</time></trkpt><trkpt lat="43.476391" lon="11.4263392"><ele>480.0</ele><time>2026-04-04T16:55:39.035Z</time></trkpt><trkpt lat="43.4763262" lon="11.4263538"><ele>480.0</ele><time>2026-04-04T16:55:40.036Z</time></trkpt><trkpt lat="43.4762598" lon="11.4263645"><ele>480.0</ele><time>2026-04-04T16:55:41.035Z</time></trkpt><trkpt lat="43.476196" lon="11.4263873"><ele>480.0</ele><time>2026-04-04T16:55:42.036Z</time></trkpt><trkpt lat="43.4761262" lon="11.4264191"><ele>480.0</ele><time>2026-04-04T16:55:43.037Z</time></trkpt><trkpt lat="43.4760669" lon="11.4264685"><ele>480.0</ele><time>2026-04-04T16:55:44.035Z</time></trkpt><trkpt lat="43.4760016" lon="11.4265383"><ele>477.8571428571429</ele><time>2026-04-04T16:55:45.037Z</time></trkpt><trkpt lat="43.4759418" lon="11.4266022"><ele>475.71428571428567</ele><time>2026-04-04T16:55:46.037Z</time></trkpt><trkpt lat="43.4758857" lon="11.4266609"><ele>473.57142857142856</ele><time>2026-04-04T16:55:47.036Z</time></trkpt><trkpt lat="43.4758348" lon="11.4267241"><ele>471.42857142857144</ele><time>2026-04-04T16:55:48.036Z</time></trkpt><trkpt lat="43.4757813" lon="11.4267845"><ele>469.28571428571433</ele><time>2026-04-04T16:55:49.034Z</time></trkpt><trkpt lat="43.4757276" lon="11.4268378"><ele>467.1428571428571</ele><time>2026-04-04T16:55:50.035Z</time></trkpt><trkpt lat="43.4756826" lon="11.4269077"><ele>465.0</ele><time>2026-04-04T16:55:51.035Z</time></trkpt><trkpt lat="43.475614" lon="11.4270638"><ele>465.0</ele><time>2026-04-04T16:55:53.034Z</time></trkpt><trkpt lat="43.4755644" lon="11.4271287"><ele>465.0</ele><time>2026-04-04T16:55:54.036Z</time></trkpt><trkpt lat="43.4754814" lon="11.4272581"><ele>465.0</ele><time>2026-04-04T16:55:56.036Z</time></trkpt><trkpt lat="43.475434" lon="11.4273178"><ele>465.0</ele><time>2026-04-04T16:55:57.035Z</time></trkpt><trkpt lat="43.475338" lon="11.427431"><ele>465.0</ele><time>2026-04-04T16:55:59.035Z</time></trkpt><trkpt lat="43.4752771" lon="11.427472"><ele>460.8</ele><time>2026-04-04T16:56:00.034Z</time></trkpt><trkpt lat="43.4751716" lon="11.4275538"><ele>456.6</ele><time>2026-04-04T16:56:02.035Z</time></trkpt><trkpt lat="43.4751118" lon="11.4275967"><ele>452.4</ele><time>2026-04-04T16:56:03.034Z</time></trkpt><trkpt lat="43.4749911" lon="11.4276826"><ele>448.2</ele><time>2026-04-04T16:56:05.035Z</time></trkpt><trkpt lat="43.474898" lon="11.4277737"><ele>444.0</ele><time>2026-04-04T16:56:07.034Z</time></trkpt><trkpt lat="43.4748426" lon="11.4278254"><ele>444.0</ele><time>2026-04-04T16:56:08.036Z</time></trkpt><trkpt lat="43.4747875" lon="11.4278901"><ele>444.0</ele><time>2026-04-04T16:56:09.035Z</time></trkpt><trkpt lat="43.4747344" lon="11.4279574"><ele>444.0</ele><time>2026-04-04T16:56:10.037Z</time></trkpt><trkpt lat="43.4746888" lon="11.428034"><ele>444.0</ele><time>2026-04-04T16:56:11.035Z</time></trkpt><trkpt lat="43.4746338" lon="11.428102"><ele>444.0</ele><time>2026-04-04T16:56:12.036Z</time></trkpt><trkpt lat="43.4745811" lon="11.4281792"><ele>444.0</ele><time>2026-04-04T16:56:13.037Z</time></trkpt><trkpt lat="43.4745298" lon="11.4282549"><ele>444.0</ele><time>2026-04-04T16:56:14.036Z</time></trkpt><trkpt lat="43.4744766" lon="11.4283361"><ele>441.5</ele><time>2026-04-04T16:56:15.035Z</time></trkpt><trkpt lat="43.4744262" lon="11.4284096"><ele>439.0</ele><time>2026-04-04T16:56:16.037Z</time></trkpt><trkpt lat="43.4743846" lon="11.4284754"><ele>436.5</ele><time>2026-04-04T16:56:17.037Z</time></trkpt><trkpt lat="43.4743299" lon="11.4285434"><ele>434.0</ele><time>2026-04-04T16:56:18.036Z</time></trkpt><trkpt lat="43.4742819" lon="11.4286289"><ele>431.5</ele><time>2026-04-04T16:56:19.036Z</time></trkpt><trkpt lat="43.4742447" lon="11.4287087"><ele>429.0</ele><time>2026-04-04T16:56:20.035Z</time></trkpt><trkpt lat="43.4741847" lon="11.428807"><ele>428.8333333333333</ele><time>2026-04-04T16:56:21.036Z</time></trkpt><trkpt lat="43.4741375" lon="11.4289058"><ele>428.66666666666663</ele><time>2026-04-04T16:56:22.034Z</time></trkpt><trkpt lat="43.4740993" lon="11.4290069"><ele>428.5</ele><time>2026-04-04T16:56:23.036Z</time></trkpt><trkpt lat="43.4740522" lon="11.4290896"><ele>428.3333333333333</ele><time>2026-04-04T16:56:24.036Z</time></trkpt><trkpt lat="43.4740195" lon="11.4291801"><ele>428.16666666666663</ele><time>2026-04-04T16:56:25.037Z</time></trkpt><trkpt lat="43.4739736" lon="11.4292668"><ele>428.0</ele><time>2026-04-04T16:56:26.035Z</time></trkpt><trkpt lat="43.4739357" lon="11.4293634"><ele>427.99999999999994</ele><time>2026-04-04T16:56:27.036Z</time></trkpt><trkpt lat="43.4738926" lon="11.4294475"><ele>428.0</ele><time>2026-04-04T16:56:28.034Z</time></trkpt><trkpt lat="43.4738473" lon="11.4295517"><ele>428.0</ele><time>2026-04-04T16:56:29.036Z</time></trkpt><trkpt lat="43.4737974" lon="11.4296618"><ele>428.0</ele><time>2026-04-04T16:56:30.037Z</time></trkpt><trkpt lat="43.47375" lon="11.4297602"><ele>427.99999999999994</ele><time>2026-04-04T16:56:31.036Z</time></trkpt><trkpt lat="43.4737118" lon="11.4298715"><ele>428.0</ele><time>2026-04-04T16:56:32.036Z</time></trkpt><trkpt lat="43.4736718" lon="11.4299851"><ele>426.4</ele><time>2026-04-04T16:56:33.034Z</time></trkpt><trkpt lat="43.4736178" lon="11.4300948"><ele>424.79999999999995</ele><time>2026-04-04T16:56:34.034Z</time></trkpt><trkpt lat="43.4735669" lon="11.4302068"><ele>423.2</ele><time>2026-04-04T16:56:35.035Z</time></trkpt><trkpt lat="43.4735155" lon="11.4303179"><ele>421.6</ele><time>2026-04-04T16:56:36.036Z</time></trkpt><trkpt lat="43.4734629" lon="11.4304176"><ele>420.0</ele><time>2026-04-04T16:56:37.035Z</time></trkpt><trkpt lat="43.4734052" lon="11.430513"><ele>420.0</ele><time>2026-04-04T16:56:38.035Z</time></trkpt><trkpt lat="43.4733426" lon="11.4306131"><ele>420.0</ele><time>2026-04-04T16:56:39.035Z</time></trkpt><trkpt lat="43.4732794" lon="11.4307047"><ele>420.0</ele><time>2026-04-04T16:56:40.034Z</time></trkpt><trkpt lat="43.4732184" lon="11.4307789"><ele>420.0</ele><time>2026-04-04T16:56:41.036Z</time></trkpt><trkpt lat="43.4731495" lon="11.4308317"><ele>420.0</ele><time>2026-04-04T16:56:42.036Z</time></trkpt><trkpt lat="43.4730986" lon="11.4308952"><ele>420.0</ele><time>2026-04-04T16:56:43.035Z</time></trkpt><trkpt lat="43.4730373" lon="11.4309704"><ele>420.0</ele><time>2026-04-04T16:56:44.037Z</time></trkpt><trkpt lat="43.4729799" lon="11.4310337"><ele>420.0</ele><time>2026-04-04T16:56:45.035Z</time></trkpt><trkpt lat="43.4729209" lon="11.4311203"><ele>420.0</ele><time>2026-04-04T16:56:46.035Z</time></trkpt><trkpt lat="43.4728693" lon="11.4311987"><ele>420.0</ele><time>2026-04-04T16:56:47.035Z</time></trkpt><trkpt lat="43.4728256" lon="11.4312862"><ele>420.0</ele><time>2026-04-04T16:56:48.035Z</time></trkpt><trkpt lat="43.4727708" lon="11.4313638"><ele>420.0</ele><time>2026-04-04T16:56:49.035Z</time></trkpt><trkpt lat="43.4727063" lon="11.4314349"><ele>416.6</ele><time>2026-04-04T16:56:50.036Z</time></trkpt><trkpt lat="43.4726436" lon="11.4314989"><ele>413.2</ele><time>2026-04-04T16:56:51.035Z</time></trkpt><trkpt lat="43.4725392" lon="11.4315245"><ele>409.79999999999995</ele><time>2026-04-04T16:56:52.036Z</time></trkpt><trkpt lat="43.4724677" lon="11.4315605"><ele>406.4</ele><time>2026-04-04T16:56:53.034Z</time></trkpt><trkpt lat="43.4723557" lon="11.4315673"><ele>403.0</ele><time>2026-04-04T16:56:55.035Z</time></trkpt><trkpt lat="43.4722301" lon="11.4315969"><ele>400.25</ele><time>2026-04-04T16:56:57.035Z</time></trkpt><trkpt lat="43.4721033" lon="11.4316587"><ele>397.5</ele><time>2026-04-04T16:56:59.035Z</time></trkpt><trkpt lat="43.4719982" lon="11.4317335"><ele>394.75</ele><time>2026-04-04T16:57:01.036Z</time></trkpt><trkpt lat="43.4718853" lon="11.4317785"><ele>392.0</ele><time>2026-04-04T16:57:03.035Z</time></trkpt><trkpt lat="43.4717877" lon="11.4317313"><ele>392.0</ele><time>2026-04-04T16:57:05.035Z</time></trkpt><trkpt lat="43.4717251" lon="11.4317025"><ele>392.0</ele><time>2026-04-04T16:57:06.036Z</time></trkpt><trkpt lat="43.4716065" lon="11.4317342"><ele>392.0</ele><time>2026-04-04T16:57:08.036Z</time></trkpt><trkpt lat="43.4715201" lon="11.4317087"><ele>392.0</ele><time>2026-04-04T16:57:10.036Z</time></trkpt><trkpt lat="43.4714589" lon="11.4317739"><ele>392.0</ele><time>2026-04-04T16:57:11.035Z</time></trkpt><trkpt lat="43.471355" lon="11.4318702"><ele>389.20000000000005</ele><time>2026-04-04T16:57:13.035Z</time></trkpt><trkpt lat="43.471252" lon="11.4319543"><ele>386.4</ele><time>2026-04-04T16:57:15.035Z</time></trkpt><trkpt lat="43.4711665" lon="11.432049"><ele>383.6</ele><time>2026-04-04T16:57:17.036Z</time></trkpt><trkpt lat="43.4710725" lon="11.4321437"><ele>380.79999999999995</ele><time>2026-04-04T16:57:19.034Z</time></trkpt><trkpt lat="43.4710171" lon="11.432187"><ele>378.0</ele><time>2026-04-04T16:57:20.034Z</time></trkpt><trkpt lat="43.4709054" lon="11.432218"><ele>377.0</ele><time>2026-04-04T16:57:22.034Z</time></trkpt><trkpt lat="43.470803" lon="11.4322664"><ele>376.0</ele><time>2026-04-04T16:57:24.035Z</time></trkpt><trkpt lat="43.4707204" lon="11.432295"><ele>375.0</ele><time>2026-04-04T16:57:26.035Z</time></trkpt><trkpt lat="43.4706536" lon="11.4323214"><ele>374.0</ele><time>2026-04-04T16:57:28.035Z</time></trkpt><trkpt lat="43.4705999" lon="11.432369"><ele>373.0</ele><time>2026-04-04T16:57:31.034Z</time></trkpt><trkpt lat="43.4705535" lon="11.4324512"><ele>372.0</ele><time>2026-04-04T16:57:35.036Z</time></trkpt><trkpt lat="43.4705227" lon="11.4325789"><ele>372.0</ele><time>2026-04-04T16:57:38.036Z</time></trkpt><trkpt lat="43.470519" lon="11.4326962"><ele>372.0</ele><time>2026-04-04T16:57:40.035Z</time></trkpt><trkpt lat="43.470527" lon="11.432813"><ele>372.0</ele><time>2026-04-04T16:57:42.035Z</time></trkpt><trkpt lat="43.4705461" lon="11.4329185"><ele>372.0</ele><time>2026-04-04T16:57:44.035Z</time></trkpt><trkpt lat="43.4705695" lon="11.433"><ele>372.0</ele><time>2026-04-04T16:57:46.035Z</time></trkpt><trkpt lat="43.4705848" lon="11.4330986"><ele>372.0</ele><time>2026-04-04T16:57:50.036Z</time></trkpt><trkpt lat="43.4705273" lon="11.4331735"><ele>371.0</ele><time>2026-04-04T16:57:53.035Z</time></trkpt><trkpt lat="43.4704553" lon="11.4331893"><ele>370.0</ele><time>2026-04-04T16:57:55.035Z</time></trkpt><trkpt lat="43.4703424" lon="11.4331844"><ele>369.0</ele><time>2026-04-04T16:57:57.035Z</time></trkpt><trkpt lat="43.4702217" lon="11.4331971"><ele>368.0</ele><time>2026-04-04T16:57:59.036Z</time></trkpt><trkpt lat="43.4701517" lon="11.4331923"><ele>367.0</ele><time>2026-04-04T16:58:00.035Z</time></trkpt><trkpt lat="43.4700813" lon="11.4332028"><ele>366.0</ele><time>2026-04-04T16:58:01.036Z</time></trkpt><trkpt lat="43.4700135" lon="11.4332036"><ele>365.42857142857144</ele><time>2026-04-04T16:58:02.036Z</time></trkpt><trkpt lat="43.4699455" lon="11.4332032"><ele>364.8571428571429</ele><time>2026-04-04T16:58:03.035Z</time></trkpt><trkpt lat="43.4698755" lon="11.4332106"><ele>364.2857142857143</ele><time>2026-04-04T16:58:04.035Z</time></trkpt><trkpt lat="43.4698062" lon="11.4332073"><ele>363.7142857142857</ele><time>2026-04-04T16:58:05.034Z</time></trkpt><trkpt lat="43.4697332" lon="11.4332046"><ele>363.1428571428571</ele><time>2026-04-04T16:58:06.035Z</time></trkpt><trkpt lat="43.4696633" lon="11.4331855"><ele>362.57142857142856</ele><time>2026-04-04T16:58:07.036Z</time></trkpt><trkpt lat="43.4696008" lon="11.4331362"><ele>362.0</ele><time>2026-04-04T16:58:08.035Z</time></trkpt><trkpt lat="43.4695278" lon="11.4331185"><ele>361.40000000000003</ele><time>2026-04-04T16:58:09.034Z</time></trkpt><trkpt lat="43.4694299" lon="11.433046"><ele>360.8</ele><time>2026-04-04T16:58:11.034Z</time></trkpt><trkpt lat="43.4693606" lon="11.4330277"><ele>360.2</ele><time>2026-04-04T16:58:12.034Z</time></trkpt><trkpt lat="43.4692923" lon="11.4330121"><ele>359.6</ele><time>2026-04-04T16:58:13.034Z</time></trkpt><trkpt lat="43.4691559" lon="11.4330027"><ele>359.0</ele><time>2026-04-04T16:58:15.035Z</time></trkpt><trkpt lat="43.4690912" lon="11.4329761"><ele>359.0</ele><time>2026-04-04T16:58:16.036Z</time></trkpt><trkpt lat="43.4690141" lon="11.432987"><ele>359.0</ele><time>2026-04-04T16:58:17.034Z</time></trkpt><trkpt lat="43.4689418" lon="11.4329784"><ele>359.0</ele><time>2026-04-04T16:58:18.034Z</time></trkpt><trkpt lat="43.4688569" lon="11.4330182"><ele>359.0</ele><time>2026-04-04T16:58:19.035Z</time></trkpt><trkpt lat="43.4687728" lon="11.4330647"><ele>359.0</ele><time>2026-04-04T16:58:20.035Z</time></trkpt><trkpt lat="43.4686949" lon="11.4330896"><ele>359.0</ele><time>2026-04-04T16:58:21.036Z</time></trkpt><trkpt lat="43.4686183" lon="11.4331234"><ele>358.83333333333337</ele><time>2026-04-04T16:58:22.035Z</time></trkpt><trkpt lat="43.4685463" lon="11.4331522"><ele>358.6666666666667</ele><time>2026-04-04T16:58:23.033Z</time></trkpt><trkpt lat="43.4684779" lon="11.433187"><ele>358.5</ele><time>2026-04-04T16:58:24.034Z</time></trkpt><trkpt lat="43.4684023" lon="11.4332152"><ele>358.3333333333333</ele><time>2026-04-04T16:58:25.035Z</time></trkpt><trkpt lat="43.468337" lon="11.4332454"><ele>358.16666666666663</ele><time>2026-04-04T16:58:26.035Z</time></trkpt><trkpt lat="43.4682665" lon="11.4332924"><ele>358.0</ele><time>2026-04-04T16:58:27.034Z</time></trkpt><trkpt lat="43.4681967" lon="11.4333474"><ele>358.0</ele><time>2026-04-04T16:58:28.035Z</time></trkpt><trkpt lat="43.4681203" lon="11.4333966"><ele>358.0</ele><time>2026-04-04T16:58:29.036Z</time></trkpt><trkpt lat="43.4680535" lon="11.4334488"><ele>358.0</ele><time>2026-04-04T16:58:30.036Z</time></trkpt><trkpt lat="43.4679846" lon="11.4334917"><ele>358.0</ele><time>2026-04-04T16:58:31.036Z</time></trkpt><trkpt lat="43.4679244" lon="11.4335569"><ele>358.0</ele><time>2026-04-04T16:58:32.035Z</time></trkpt><trkpt lat="43.4678613" lon="11.4336288"><ele>358.0</ele><time>2026-04-04T16:58:33.034Z</time></trkpt><trkpt lat="43.4678099" lon="11.433704"><ele>357.5714285714286</ele><time>2026-04-04T16:58:34.034Z</time></trkpt><trkpt lat="43.4677608" lon="11.4337766"><ele>357.14285714285717</ele><time>2026-04-04T16:58:35.035Z</time></trkpt><trkpt lat="43.4677132" lon="11.4338474"><ele>356.7142857142857</ele><time>2026-04-04T16:58:36.034Z</time></trkpt><trkpt lat="43.4676708" lon="11.4339122"><ele>356.28571428571433</ele><time>2026-04-04T16:58:37.034Z</time></trkpt><trkpt lat="43.4676282" lon="11.4339761"><ele>355.8571428571429</ele><time>2026-04-04T16:58:38.035Z</time></trkpt><trkpt lat="43.4675745" lon="11.4340419"><ele>355.42857142857144</ele><time>2026-04-04T16:58:40.035Z</time></trkpt><trkpt lat="43.4675138" lon="11.4340901"><ele>355.0</ele><time>2026-04-04T16:58:43.034Z</time></trkpt><trkpt lat="43.4675382" lon="11.4341873"><ele>354.85714285714283</ele><time>2026-04-04T16:58:45.034Z</time></trkpt><trkpt lat="43.4675249" lon="11.4343009"><ele>354.7142857142857</ele><time>2026-04-04T16:58:48.036Z</time></trkpt><trkpt lat="43.4674987" lon="11.4343926"><ele>354.57142857142856</ele><time>2026-04-04T16:58:51.035Z</time></trkpt><trkpt lat="43.4674341" lon="11.4344235"><ele>354.42857142857144</ele><time>2026-04-04T16:58:54.035Z</time></trkpt><trkpt lat="43.4673784" lon="11.4343747"><ele>354.2857142857143</ele><time>2026-04-04T16:59:04.035Z</time></trkpt><trkpt lat="43.467295" lon="11.4344173"><ele>354.14285714285717</ele><time>2026-04-04T16:59:09.036Z</time></trkpt><trkpt lat="43.4672299" lon="11.4344376"><ele>354.0</ele><time>2026-04-04T16:59:11.035Z</time></trkpt><trkpt lat="43.4671635" lon="11.4344499"><ele>354.0</ele><time>2026-04-04T16:59:13.034Z</time></trkpt><trkpt lat="43.4671012" lon="11.4344663"><ele>351.0</ele><time>2026-04-04T16:59:15.036Z</time></trkpt><trkpt lat="43.4670334" lon="11.4344807"><ele>351.0</ele><time>2026-04-04T16:59:18.034Z</time></trkpt></trkseg></trk></gpx>